<?xml version='1.0' encoding='UTF-8'?><gpx version="1.1" creator="JPX - https://github.com/jenetics/jpx" xmlns="http://www.topografix.com/GPX/1/1"><trk><trkseg><trkpt lat="40.4652167" lon="15.0156433"><ele>27.0</ele><time>2026-03-28T08:18:48.016Z</time></trkpt><trkpt lat="40.4651567" lon="15.0155933"><ele>27.0</ele><time>2026-03-28T08:18:49.016Z</time></trkpt><trkpt lat="40.46508" lon="15.01556"><ele>27.0</ele><time>2026-03-28T08:18:50.016Z</time></trkpt><trkpt lat="40.4650133" lon="15.015545"><ele>27.0</ele><time>2026-03-28T08:18:51.016Z</time></trkpt><trkpt lat="40.4649217" lon="15.0154883"><ele>27.0</ele><time>2026-03-28T08:18:53.016Z</time></trkpt><trkpt lat="40.4648783" lon="15.01542"><ele>27.0</ele><time>2026-03-28T08:19:07.016Z</time></trkpt><trkpt lat="40.464775" lon="15.0154117"><ele>27.0</ele><time>2026-03-28T08:19:09.016Z</time></trkpt><trkpt lat="40.4646967" lon="15.0154233"><ele>27.000000000000004</ele><time>2026-03-28T08:19:10.017Z</time></trkpt><trkpt lat="40.4645967" lon="15.0154467"><ele>27.000000000000004</ele><time>2026-03-28T08:19:11.016Z</time></trkpt><trkpt lat="40.4644917" lon="15.0154683"><ele>27.0</ele><time>2026-03-28T08:19:12.016Z</time></trkpt><trkpt lat="40.4643833" lon="15.0154983"><ele>27.0</ele><time>2026-03-28T08:19:13.016Z</time></trkpt><trkpt lat="40.4642667" lon="15.0155317"><ele>26.5</ele><time>2026-03-28T08:19:14.016Z</time></trkpt><trkpt lat="40.4641483" lon="15.015565"><ele>26.0</ele><time>2026-03-28T08:19:15.017Z</time></trkpt><trkpt lat="40.4640167" lon="15.015605"><ele>25.5</ele><time>2026-03-28T08:19:16.016Z</time></trkpt><trkpt lat="40.4638733" lon="15.015645"><ele>25.0</ele><time>2026-03-28T08:19:17.016Z</time></trkpt><trkpt lat="40.4637233" lon="15.0156883"><ele>24.666666666666668</ele><time>2026-03-28T08:19:18.017Z</time></trkpt><trkpt lat="40.4635717" lon="15.0157233"><ele>24.333333333333336</ele><time>2026-03-28T08:19:19.017Z</time></trkpt><trkpt lat="40.4634133" lon="15.0157683"><ele>24.0</ele><time>2026-03-28T08:19:20.017Z</time></trkpt><trkpt lat="40.463255" lon="15.015815"><ele>24.0</ele><time>2026-03-28T08:19:21.016Z</time></trkpt><trkpt lat="40.4630967" lon="15.0158583"><ele>24.0</ele><time>2026-03-28T08:19:22.016Z</time></trkpt><trkpt lat="40.4629383" lon="15.0158983"><ele>24.0</ele><time>2026-03-28T08:19:23.016Z</time></trkpt><trkpt lat="40.46278" lon="15.0159417"><ele>24.0</ele><time>2026-03-28T08:19:24.016Z</time></trkpt><trkpt lat="40.4626283" lon="15.0159717"><ele>24.0</ele><time>2026-03-28T08:19:25.017Z</time></trkpt><trkpt lat="40.462485" lon="15.016"><ele>24.0</ele><time>2026-03-28T08:19:26.017Z</time></trkpt><trkpt lat="40.46235" lon="15.016025"><ele>24.0</ele><time>2026-03-28T08:19:27.017Z</time></trkpt><trkpt lat="40.462225" lon="15.0160467"><ele>23.799999999999997</ele><time>2026-03-28T08:19:28.017Z</time></trkpt><trkpt lat="40.4621033" lon="15.0160683"><ele>23.599999999999998</ele><time>2026-03-28T08:19:29.017Z</time></trkpt><trkpt lat="40.4620017" lon="15.0160883"><ele>23.4</ele><time>2026-03-28T08:19:30.016Z</time></trkpt><trkpt lat="40.461915" lon="15.016105"><ele>23.2</ele><time>2026-03-28T08:19:31.017Z</time></trkpt><trkpt lat="40.4618517" lon="15.0161183"><ele>23.0</ele><time>2026-03-28T08:19:32.016Z</time></trkpt><trkpt lat="40.461785" lon="15.0161767"><ele>23.0</ele><time>2026-03-28T08:19:34.016Z</time></trkpt><trkpt lat="40.4617667" lon="15.016345"><ele>23.0</ele><time>2026-03-28T08:19:36.017Z</time></trkpt><trkpt lat="40.4617683" lon="15.01647"><ele>23.0</ele><time>2026-03-28T08:19:38.016Z</time></trkpt><trkpt lat="40.4617767" lon="15.0165717"><ele>23.0</ele><time>2026-03-28T08:19:40.016Z</time></trkpt><trkpt lat="40.46178" lon="15.0167"><ele>23.0</ele><time>2026-03-28T08:19:42.016Z</time></trkpt><trkpt lat="40.4617817" lon="15.01683"><ele>23.0</ele><time>2026-03-28T08:19:44.016Z</time></trkpt><trkpt lat="40.4617833" lon="15.0169633"><ele>23.0</ele><time>2026-03-28T08:19:46.016Z</time></trkpt><trkpt lat="40.4617883" lon="15.017125"><ele>23.0</ele><time>2026-03-28T08:19:48.017Z</time></trkpt><trkpt lat="40.4617933" lon="15.0172367"><ele>23.0</ele><time>2026-03-28T08:19:49.017Z</time></trkpt><trkpt lat="40.4618083" lon="15.0173583"><ele>23.0</ele><time>2026-03-28T08:19:50.017Z</time></trkpt><trkpt lat="40.4618467" lon="15.0174767"><ele>23.0</ele><time>2026-03-28T08:19:51.017Z</time></trkpt><trkpt lat="40.46191" lon="15.0175883"><ele>23.0</ele><time>2026-03-28T08:19:52.017Z</time></trkpt><trkpt lat="40.4619983" lon="15.0176783"><ele>23.0</ele><time>2026-03-28T08:19:53.016Z</time></trkpt><trkpt lat="40.4621033" lon="15.0177533"><ele>23.0</ele><time>2026-03-28T08:19:54.016Z</time></trkpt><trkpt lat="40.4622117" lon="15.0178267"><ele>23.25</ele><time>2026-03-28T08:19:55.017Z</time></trkpt><trkpt lat="40.4623233" lon="15.017905"><ele>23.5</ele><time>2026-03-28T08:19:56.017Z</time></trkpt><trkpt lat="40.46242" lon="15.0179967"><ele>23.75</ele><time>2026-03-28T08:19:57.016Z</time></trkpt><trkpt lat="40.4625083" lon="15.0181"><ele>24.0</ele><time>2026-03-28T08:19:58.016Z</time></trkpt><trkpt lat="40.462585" lon="15.0182183"><ele>24.5</ele><time>2026-03-28T08:19:59.017Z</time></trkpt><trkpt lat="40.4626567" lon="15.01835"><ele>25.0</ele><time>2026-03-28T08:20:00.016Z</time></trkpt><trkpt lat="40.4627217" lon="15.018485"><ele>25.5</ele><time>2026-03-28T08:20:01.017Z</time></trkpt><trkpt lat="40.4627867" lon="15.018615"><ele>26.0</ele><time>2026-03-28T08:20:02.016Z</time></trkpt><trkpt lat="40.462845" lon="15.0187417"><ele>26.0</ele><time>2026-03-28T08:20:03.017Z</time></trkpt><trkpt lat="40.4629" lon="15.0188617"><ele>26.0</ele><time>2026-03-28T08:20:04.017Z</time></trkpt><trkpt lat="40.4629433" lon="15.018975"><ele>26.0</ele><time>2026-03-28T08:20:05.017Z</time></trkpt><trkpt lat="40.4629833" lon="15.019075"><ele>26.0</ele><time>2026-03-28T08:20:06.016Z</time></trkpt><trkpt lat="40.46301" lon="15.0192267"><ele>26.0</ele><time>2026-03-28T08:20:08.017Z</time></trkpt><trkpt lat="40.4629417" lon="15.0193583"><ele>26.25</ele><time>2026-03-28T08:20:10.017Z</time></trkpt><trkpt lat="40.462865" lon="15.0194333"><ele>26.5</ele><time>2026-03-28T08:20:11.016Z</time></trkpt><trkpt lat="40.4627617" lon="15.019515"><ele>26.75</ele><time>2026-03-28T08:20:12.016Z</time></trkpt><trkpt lat="40.4626483" lon="15.0196117"><ele>27.0</ele><time>2026-03-28T08:20:13.016Z</time></trkpt><trkpt lat="40.462535" lon="15.019715"><ele>27.0</ele><time>2026-03-28T08:20:14.016Z</time></trkpt><trkpt lat="40.462425" lon="15.0198233"><ele>27.0</ele><time>2026-03-28T08:20:15.016Z</time></trkpt><trkpt lat="40.4623283" lon="15.0199433"><ele>27.0</ele><time>2026-03-28T08:20:16.017Z</time></trkpt><trkpt lat="40.46224" lon="15.020075"><ele>27.0</ele><time>2026-03-28T08:20:17.016Z</time></trkpt><trkpt lat="40.4621567" lon="15.0202033"><ele>27.0</ele><time>2026-03-28T08:20:18.016Z</time></trkpt><trkpt lat="40.4620683" lon="15.0203283"><ele>27.0</ele><time>2026-03-28T08:20:19.017Z</time></trkpt><trkpt lat="40.461965" lon="15.02047"><ele>27.0</ele><time>2026-03-28T08:20:20.017Z</time></trkpt><trkpt lat="40.461865" lon="15.0206383"><ele>27.0</ele><time>2026-03-28T08:20:21.016Z</time></trkpt><trkpt lat="40.4617617" lon="15.0208267"><ele>26.666666666666664</ele><time>2026-03-28T08:20:22.017Z</time></trkpt><trkpt lat="40.46166" lon="15.0210167"><ele>26.333333333333332</ele><time>2026-03-28T08:20:23.016Z</time></trkpt><trkpt lat="40.4615633" lon="15.0211967"><ele>26.0</ele><time>2026-03-28T08:20:24.017Z</time></trkpt><trkpt lat="40.461465" lon="15.0213783"><ele>26.0</ele><time>2026-03-28T08:20:25.017Z</time></trkpt><trkpt lat="40.46138" lon="15.021555"><ele>26.0</ele><time>2026-03-28T08:20:26.016Z</time></trkpt><trkpt lat="40.4612967" lon="15.0217233"><ele>26.0</ele><time>2026-03-28T08:20:27.016Z</time></trkpt><trkpt lat="40.46122" lon="15.02189"><ele>25.75</ele><time>2026-03-28T08:20:28.017Z</time></trkpt><trkpt lat="40.46114" lon="15.0220467"><ele>25.5</ele><time>2026-03-28T08:20:29.016Z</time></trkpt><trkpt lat="40.4610667" lon="15.0222"><ele>25.25</ele><time>2026-03-28T08:20:30.016Z</time></trkpt><trkpt lat="40.4609933" lon="15.0223517"><ele>25.0</ele><time>2026-03-28T08:20:31.016Z</time></trkpt><trkpt lat="40.4609217" lon="15.0225017"><ele>25.5</ele><time>2026-03-28T08:20:32.016Z</time></trkpt><trkpt lat="40.4608533" lon="15.0226433"><ele>26.0</ele><time>2026-03-28T08:20:33.016Z</time></trkpt><trkpt lat="40.4607833" lon="15.022785"><ele>26.5</ele><time>2026-03-28T08:20:34.016Z</time></trkpt><trkpt lat="40.460715" lon="15.0229283"><ele>27.0</ele><time>2026-03-28T08:20:35.016Z</time></trkpt><trkpt lat="40.460645" lon="15.023065"><ele>27.0</ele><time>2026-03-28T08:20:36.017Z</time></trkpt><trkpt lat="40.460575" lon="15.0232"><ele>27.0</ele><time>2026-03-28T08:20:37.017Z</time></trkpt><trkpt lat="40.460515" lon="15.0233267"><ele>27.0</ele><time>2026-03-28T08:20:38.017Z</time></trkpt><trkpt lat="40.4604533" lon="15.0234533"><ele>27.0</ele><time>2026-03-28T08:20:39.016Z</time></trkpt><trkpt lat="40.4603883" lon="15.02357"><ele>27.200000000000003</ele><time>2026-03-28T08:20:40.016Z</time></trkpt><trkpt lat="40.4603333" lon="15.0236883"><ele>27.400000000000002</ele><time>2026-03-28T08:20:41.016Z</time></trkpt><trkpt lat="40.4602867" lon="15.0238"><ele>27.599999999999998</ele><time>2026-03-28T08:20:42.016Z</time></trkpt><trkpt lat="40.4602467" lon="15.0238817"><ele>27.799999999999997</ele><time>2026-03-28T08:20:43.016Z</time></trkpt><trkpt lat="40.4601967" lon="15.0239733"><ele>28.0</ele><time>2026-03-28T08:20:45.016Z</time></trkpt><trkpt lat="40.460145" lon="15.0240683"><ele>28.0</ele><time>2026-03-28T08:21:20.016Z</time></trkpt><trkpt lat="40.4600767" lon="15.024225"><ele>27.999999999999996</ele><time>2026-03-28T08:21:22.017Z</time></trkpt><trkpt lat="40.4600317" lon="15.0243267"><ele>27.999999999999996</ele><time>2026-03-28T08:21:23.017Z</time></trkpt><trkpt lat="40.4599867" lon="15.02442"><ele>28.0</ele><time>2026-03-28T08:21:24.017Z</time></trkpt><trkpt lat="40.45995" lon="15.0245133"><ele>28.0</ele><time>2026-03-28T08:21:26.017Z</time></trkpt><trkpt lat="40.459915" lon="15.0246"><ele>28.0</ele><time>2026-03-28T08:21:29.016Z</time></trkpt><trkpt lat="40.4598883" lon="15.0246783"><ele>27.999999999999996</ele><time>2026-03-28T08:21:30.017Z</time></trkpt><trkpt lat="40.45986" lon="15.0247917"><ele>27.999999999999996</ele><time>2026-03-28T08:21:31.017Z</time></trkpt><trkpt lat="40.4598267" lon="15.0249333"><ele>28.0</ele><time>2026-03-28T08:21:32.017Z</time></trkpt><trkpt lat="40.459775" lon="15.02508"><ele>28.0</ele><time>2026-03-28T08:21:33.016Z</time></trkpt><trkpt lat="40.45971" lon="15.025215"><ele>28.25</ele><time>2026-03-28T08:21:34.017Z</time></trkpt><trkpt lat="40.4596283" lon="15.02534"><ele>28.5</ele><time>2026-03-28T08:21:35.016Z</time></trkpt><trkpt lat="40.459535" lon="15.0254567"><ele>28.75</ele><time>2026-03-28T08:21:36.016Z</time></trkpt><trkpt lat="40.4594233" lon="15.0255567"><ele>29.0</ele><time>2026-03-28T08:21:37.017Z</time></trkpt><trkpt lat="40.4592967" lon="15.025645"><ele>29.0</ele><time>2026-03-28T08:21:38.016Z</time></trkpt><trkpt lat="40.459155" lon="15.0257417"><ele>29.0</ele><time>2026-03-28T08:21:39.017Z</time></trkpt><trkpt lat="40.4590033" lon="15.0258417"><ele>29.0</ele><time>2026-03-28T08:21:40.016Z</time></trkpt><trkpt lat="40.458845" lon="15.02594"><ele>29.0</ele><time>2026-03-28T08:21:41.016Z</time></trkpt><trkpt lat="40.4586817" lon="15.0260367"><ele>29.0</ele><time>2026-03-28T08:21:42.016Z</time></trkpt><trkpt lat="40.45852" lon="15.02612"><ele>29.0</ele><time>2026-03-28T08:21:43.017Z</time></trkpt><trkpt lat="40.458365" lon="15.0261933"><ele>29.0</ele><time>2026-03-28T08:21:44.016Z</time></trkpt><trkpt lat="40.45821" lon="15.026265"><ele>29.0</ele><time>2026-03-28T08:21:45.016Z</time></trkpt><trkpt lat="40.4580667" lon="15.0263317"><ele>29.0</ele><time>2026-03-28T08:21:46.016Z</time></trkpt><trkpt lat="40.457925" lon="15.0264017"><ele>29.333333333333332</ele><time>2026-03-28T08:21:47.017Z</time></trkpt><trkpt lat="40.45778" lon="15.026485"><ele>29.666666666666664</ele><time>2026-03-28T08:21:48.017Z</time></trkpt><trkpt lat="40.4576267" lon="15.026575"><ele>30.0</ele><time>2026-03-28T08:21:49.017Z</time></trkpt><trkpt lat="40.457465" lon="15.026675"><ele>30.666666666666664</ele><time>2026-03-28T08:21:50.016Z</time></trkpt><trkpt lat="40.4573033" lon="15.0267867"><ele>31.333333333333332</ele><time>2026-03-28T08:21:51.017Z</time></trkpt><trkpt lat="40.4571383" lon="15.0269067"><ele>32.0</ele><time>2026-03-28T08:21:52.016Z</time></trkpt><trkpt lat="40.4569783" lon="15.0270267"><ele>32.0</ele><time>2026-03-28T08:21:53.016Z</time></trkpt><trkpt lat="40.4568117" lon="15.02714"><ele>32.0</ele><time>2026-03-28T08:21:54.016Z</time></trkpt><trkpt lat="40.4566533" lon="15.0272517"><ele>32.0</ele><time>2026-03-28T08:21:55.017Z</time></trkpt><trkpt lat="40.4565067" lon="15.0273633"><ele>32.0</ele><time>2026-03-28T08:21:56.016Z</time></trkpt><trkpt lat="40.4563733" lon="15.0274683"><ele>32.0</ele><time>2026-03-28T08:21:57.016Z</time></trkpt><trkpt lat="40.4562483" lon="15.0275667"><ele>32.0</ele><time>2026-03-28T08:21:58.016Z</time></trkpt><trkpt lat="40.456125" lon="15.0276633"><ele>32.0</ele><time>2026-03-28T08:21:59.017Z</time></trkpt><trkpt lat="40.4559983" lon="15.0277617"><ele>31.666666666666664</ele><time>2026-03-28T08:22:00.016Z</time></trkpt><trkpt lat="40.455865" lon="15.027875"><ele>31.333333333333336</ele><time>2026-03-28T08:22:01.016Z</time></trkpt><trkpt lat="40.4557283" lon="15.0280133"><ele>31.0</ele><time>2026-03-28T08:22:02.016Z</time></trkpt><trkpt lat="40.45559" lon="15.0281767"><ele>31.333333333333336</ele><time>2026-03-28T08:22:03.017Z</time></trkpt><trkpt lat="40.45545" lon="15.0283483"><ele>31.666666666666664</ele><time>2026-03-28T08:22:04.016Z</time></trkpt><trkpt lat="40.455315" lon="15.0285217"><ele>32.0</ele><time>2026-03-28T08:22:05.016Z</time></trkpt><trkpt lat="40.4551917" lon="15.0286817"><ele>32.0</ele><time>2026-03-28T08:22:06.016Z</time></trkpt><trkpt lat="40.455075" lon="15.0288283"><ele>32.0</ele><time>2026-03-28T08:22:07.017Z</time></trkpt><trkpt lat="40.454955" lon="15.0289583"><ele>32.0</ele><time>2026-03-28T08:22:08.017Z</time></trkpt><trkpt lat="40.4548333" lon="15.0290817"><ele>32.0</ele><time>2026-03-28T08:22:09.016Z</time></trkpt><trkpt lat="40.4547033" lon="15.0292033"><ele>32.0</ele><time>2026-03-28T08:22:10.016Z</time></trkpt><trkpt lat="40.4545717" lon="15.0293367"><ele>32.0</ele><time>2026-03-28T08:22:11.016Z</time></trkpt><trkpt lat="40.4544433" lon="15.0294833"><ele>32.0</ele><time>2026-03-28T08:22:12.016Z</time></trkpt><trkpt lat="40.4543383" lon="15.0296233"><ele>32.0</ele><time>2026-03-28T08:22:13.017Z</time></trkpt><trkpt lat="40.4542283" lon="15.02974"><ele>32.0</ele><time>2026-03-28T08:22:14.017Z</time></trkpt><trkpt lat="40.4541183" lon="15.0298417"><ele>32.0</ele><time>2026-03-28T08:22:15.017Z</time></trkpt><trkpt lat="40.4540033" lon="15.029915"><ele>32.0</ele><time>2026-03-28T08:22:16.017Z</time></trkpt><trkpt lat="40.45389" lon="15.02997"><ele>32.0</ele><time>2026-03-28T08:22:17.017Z</time></trkpt><trkpt lat="40.45378" lon="15.03001"><ele>32.0</ele><time>2026-03-28T08:22:18.016Z</time></trkpt><trkpt lat="40.45367" lon="15.03004"><ele>32.0</ele><time>2026-03-28T08:22:19.016Z</time></trkpt><trkpt lat="40.4535667" lon="15.0300583"><ele>32.25</ele><time>2026-03-28T08:22:20.017Z</time></trkpt><trkpt lat="40.45345" lon="15.03005"><ele>32.5</ele><time>2026-03-28T08:22:21.017Z</time></trkpt><trkpt lat="40.4533217" lon="15.0300233"><ele>32.75</ele><time>2026-03-28T08:22:22.016Z</time></trkpt><trkpt lat="40.4531783" lon="15.029975"><ele>33.0</ele><time>2026-03-28T08:22:23.016Z</time></trkpt><trkpt lat="40.4530283" lon="15.029925"><ele>33.25</ele><time>2026-03-28T08:22:24.016Z</time></trkpt><trkpt lat="40.4528883" lon="15.0298783"><ele>33.5</ele><time>2026-03-28T08:22:25.016Z</time></trkpt><trkpt lat="40.4527583" lon="15.0298417"><ele>33.75</ele><time>2026-03-28T08:22:26.017Z</time></trkpt><trkpt lat="40.4526433" lon="15.0298017"><ele>34.0</ele><time>2026-03-28T08:22:27.016Z</time></trkpt><trkpt lat="40.4525533" lon="15.0297717"><ele>34.0</ele><time>2026-03-28T08:22:28.016Z</time></trkpt><trkpt lat="40.45248" lon="15.02975"><ele>34.0</ele><time>2026-03-28T08:22:29.016Z</time></trkpt><trkpt lat="40.452405" lon="15.0297383"><ele>34.0</ele><time>2026-03-28T08:22:31.017Z</time></trkpt><trkpt lat="40.4523283" lon="15.029815"><ele>34.0</ele><time>2026-03-28T08:22:35.016Z</time></trkpt><trkpt lat="40.4523" lon="15.0299"><ele>34.0</ele><time>2026-03-28T08:22:36.016Z</time></trkpt><trkpt lat="40.452275" lon="15.0300283"><ele>34.0</ele><time>2026-03-28T08:22:37.016Z</time></trkpt><trkpt lat="40.45224" lon="15.0301867"><ele>34.25</ele><time>2026-03-28T08:22:38.017Z</time></trkpt><trkpt lat="40.4522067" lon="15.0303617"><ele>34.5</ele><time>2026-03-28T08:22:39.017Z</time></trkpt><trkpt lat="40.4521683" lon="15.03055"><ele>34.75</ele><time>2026-03-28T08:22:40.016Z</time></trkpt><trkpt lat="40.452125" lon="15.0307517"><ele>35.0</ele><time>2026-03-28T08:22:41.017Z</time></trkpt><trkpt lat="40.452075" lon="15.0309633"><ele>34.0</ele><time>2026-03-28T08:22:42.017Z</time></trkpt><trkpt lat="40.4520267" lon="15.03118"><ele>33.0</ele><time>2026-03-28T08:22:43.016Z</time></trkpt><trkpt lat="40.45198" lon="15.0314033"><ele>32.0</ele><time>2026-03-28T08:22:44.016Z</time></trkpt><trkpt lat="40.4519367" lon="15.0316167"><ele>32.666666666666664</ele><time>2026-03-28T08:22:45.017Z</time></trkpt><trkpt lat="40.451895" lon="15.0318283"><ele>33.333333333333336</ele><time>2026-03-28T08:22:46.017Z</time></trkpt><trkpt lat="40.4518517" lon="15.0320467"><ele>34.0</ele><time>2026-03-28T08:22:47.016Z</time></trkpt><trkpt lat="40.4518067" lon="15.0322633"><ele>33.66666666666667</ele><time>2026-03-28T08:22:48.017Z</time></trkpt><trkpt lat="40.451755" lon="15.0324817"><ele>33.333333333333336</ele><time>2026-03-28T08:22:49.016Z</time></trkpt><trkpt lat="40.4517017" lon="15.0327083"><ele>33.0</ele><time>2026-03-28T08:22:50.017Z</time></trkpt><trkpt lat="40.45165" lon="15.0329333"><ele>33.0</ele><time>2026-03-28T08:22:51.017Z</time></trkpt><trkpt lat="40.4516067" lon="15.033155"><ele>33.0</ele><time>2026-03-28T08:22:52.016Z</time></trkpt><trkpt lat="40.4515617" lon="15.0333833"><ele>33.0</ele><time>2026-03-28T08:22:53.017Z</time></trkpt><trkpt lat="40.451515" lon="15.0336083"><ele>33.333333333333336</ele><time>2026-03-28T08:22:54.017Z</time></trkpt><trkpt lat="40.4514667" lon="15.033835"><ele>33.66666666666667</ele><time>2026-03-28T08:22:55.016Z</time></trkpt><trkpt lat="40.451415" lon="15.03406"><ele>34.0</ele><time>2026-03-28T08:22:56.016Z</time></trkpt><trkpt lat="40.4513583" lon="15.0342883"><ele>34.0</ele><time>2026-03-28T08:22:57.016Z</time></trkpt><trkpt lat="40.4513033" lon="15.0345267"><ele>34.0</ele><time>2026-03-28T08:22:58.016Z</time></trkpt><trkpt lat="40.4512567" lon="15.0347683"><ele>34.0</ele><time>2026-03-28T08:22:59.017Z</time></trkpt><trkpt lat="40.451205" lon="15.035015"><ele>34.333333333333336</ele><time>2026-03-28T08:23:00.017Z</time></trkpt><trkpt lat="40.451155" lon="15.0352533"><ele>34.666666666666664</ele><time>2026-03-28T08:23:01.017Z</time></trkpt><trkpt lat="40.4511017" lon="15.0354983"><ele>35.0</ele><time>2026-03-28T08:23:02.016Z</time></trkpt><trkpt lat="40.4510467" lon="15.0357433"><ele>34.666666666666664</ele><time>2026-03-28T08:23:03.017Z</time></trkpt><trkpt lat="40.4509933" lon="15.0359967"><ele>34.333333333333336</ele><time>2026-03-28T08:23:04.016Z</time></trkpt><trkpt lat="40.4509383" lon="15.0362517"><ele>34.0</ele><time>2026-03-28T08:23:05.016Z</time></trkpt><trkpt lat="40.4508783" lon="15.0365117"><ele>33.66666666666667</ele><time>2026-03-28T08:23:06.017Z</time></trkpt><trkpt lat="40.45082" lon="15.03678"><ele>33.333333333333336</ele><time>2026-03-28T08:23:07.016Z</time></trkpt><trkpt lat="40.4507617" lon="15.0370517"><ele>33.0</ele><time>2026-03-28T08:23:08.016Z</time></trkpt><trkpt lat="40.450705" lon="15.03732"><ele>33.333333333333336</ele><time>2026-03-28T08:23:09.017Z</time></trkpt><trkpt lat="40.45065" lon="15.037575"><ele>33.66666666666667</ele><time>2026-03-28T08:23:10.017Z</time></trkpt><trkpt lat="40.4505933" lon="15.0378217"><ele>34.0</ele><time>2026-03-28T08:23:11.016Z</time></trkpt><trkpt lat="40.4505433" lon="15.0380683"><ele>34.0</ele><time>2026-03-28T08:23:12.016Z</time></trkpt><trkpt lat="40.4504933" lon="15.0383083"><ele>34.0</ele><time>2026-03-28T08:23:13.017Z</time></trkpt><trkpt lat="40.450445" lon="15.038535"><ele>34.0</ele><time>2026-03-28T08:23:14.016Z</time></trkpt><trkpt lat="40.4504017" lon="15.03875"><ele>34.0</ele><time>2026-03-28T08:23:15.016Z</time></trkpt><trkpt lat="40.4503533" lon="15.038955"><ele>34.0</ele><time>2026-03-28T08:23:16.016Z</time></trkpt><trkpt lat="40.4503117" lon="15.0391517"><ele>34.0</ele><time>2026-03-28T08:23:17.016Z</time></trkpt><trkpt lat="40.4502633" lon="15.0393383"><ele>34.0</ele><time>2026-03-28T08:23:18.016Z</time></trkpt><trkpt lat="40.4502267" lon="15.03952"><ele>34.0</ele><time>2026-03-28T08:23:19.016Z</time></trkpt><trkpt lat="40.4501917" lon="15.0396933"><ele>34.0</ele><time>2026-03-28T08:23:20.016Z</time></trkpt><trkpt lat="40.4501667" lon="15.0398567"><ele>34.0</ele><time>2026-03-28T08:23:21.016Z</time></trkpt><trkpt lat="40.450155" lon="15.0400167"><ele>34.0</ele><time>2026-03-28T08:23:22.017Z</time></trkpt><trkpt lat="40.45016" lon="15.0401833"><ele>34.0</ele><time>2026-03-28T08:23:23.017Z</time></trkpt><trkpt lat="40.4501683" lon="15.04035"><ele>34.0</ele><time>2026-03-28T08:23:24.016Z</time></trkpt><trkpt lat="40.450185" lon="15.0405133"><ele>34.0</ele><time>2026-03-28T08:23:25.017Z</time></trkpt><trkpt lat="40.450205" lon="15.0406717"><ele>34.2</ele><time>2026-03-28T08:23:26.016Z</time></trkpt><trkpt lat="40.450235" lon="15.0408217"><ele>34.4</ele><time>2026-03-28T08:23:27.016Z</time></trkpt><trkpt lat="40.4502717" lon="15.0409583"><ele>34.6</ele><time>2026-03-28T08:23:28.017Z</time></trkpt><trkpt lat="40.4502933" lon="15.0410767"><ele>34.8</ele><time>2026-03-28T08:23:29.017Z</time></trkpt><trkpt lat="40.45029" lon="15.0411967"><ele>35.0</ele><time>2026-03-28T08:23:30.016Z</time></trkpt><trkpt lat="40.4502617" lon="15.0413317"><ele>35.0</ele><time>2026-03-28T08:23:31.016Z</time></trkpt><trkpt lat="40.4502033" lon="15.0414767"><ele>35.0</ele><time>2026-03-28T08:23:32.016Z</time></trkpt><trkpt lat="40.4501333" lon="15.0416367"><ele>35.0</ele><time>2026-03-28T08:23:33.016Z</time></trkpt><trkpt lat="40.4500567" lon="15.0417983"><ele>35.0</ele><time>2026-03-28T08:23:34.016Z</time></trkpt><trkpt lat="40.4499883" lon="15.0419533"><ele>34.75</ele><time>2026-03-28T08:23:35.017Z</time></trkpt><trkpt lat="40.4499233" lon="15.0420983"><ele>34.5</ele><time>2026-03-28T08:23:36.016Z</time></trkpt><trkpt lat="40.4498583" lon="15.042235"><ele>34.25</ele><time>2026-03-28T08:23:37.016Z</time></trkpt><trkpt lat="40.44979" lon="15.0423983"><ele>34.0</ele><time>2026-03-28T08:23:38.017Z</time></trkpt><trkpt lat="40.4497167" lon="15.042575"><ele>33.66666666666667</ele><time>2026-03-28T08:23:39.016Z</time></trkpt><trkpt lat="40.4496383" lon="15.0427617"><ele>33.333333333333336</ele><time>2026-03-28T08:23:40.016Z</time></trkpt><trkpt lat="40.4495483" lon="15.0429517"><ele>33.0</ele><time>2026-03-28T08:23:41.016Z</time></trkpt><trkpt lat="40.449455" lon="15.0431483"><ele>33.0</ele><time>2026-03-28T08:23:42.017Z</time></trkpt><trkpt lat="40.4493683" lon="15.04335"><ele>33.0</ele><time>2026-03-28T08:23:43.017Z</time></trkpt><trkpt lat="40.449275" lon="15.04356"><ele>33.0</ele><time>2026-03-28T08:23:44.016Z</time></trkpt><trkpt lat="40.449185" lon="15.0437667"><ele>33.0</ele><time>2026-03-28T08:23:45.017Z</time></trkpt><trkpt lat="40.4490967" lon="15.043965"><ele>33.0</ele><time>2026-03-28T08:23:46.016Z</time></trkpt><trkpt lat="40.449005" lon="15.0441517"><ele>33.0</ele><time>2026-03-28T08:23:47.017Z</time></trkpt><trkpt lat="40.4489133" lon="15.0443333"><ele>33.0</ele><time>2026-03-28T08:23:48.017Z</time></trkpt><trkpt lat="40.448815" lon="15.0444967"><ele>33.0</ele><time>2026-03-28T08:23:49.017Z</time></trkpt><trkpt lat="40.4487" lon="15.0446417"><ele>33.0</ele><time>2026-03-28T08:23:50.016Z</time></trkpt><trkpt lat="40.4485617" lon="15.04477"><ele>33.0</ele><time>2026-03-28T08:23:51.016Z</time></trkpt><trkpt lat="40.4484083" lon="15.0448767"><ele>33.0</ele><time>2026-03-28T08:23:52.016Z</time></trkpt><trkpt lat="40.44824" lon="15.0449733"><ele>33.0</ele><time>2026-03-28T08:23:53.016Z</time></trkpt><trkpt lat="40.448065" lon="15.0450717"><ele>32.333333333333336</ele><time>2026-03-28T08:23:54.017Z</time></trkpt><trkpt lat="40.4478867" lon="15.0451667"><ele>31.666666666666668</ele><time>2026-03-28T08:23:55.016Z</time></trkpt><trkpt lat="40.4477033" lon="15.0452633"><ele>31.0</ele><time>2026-03-28T08:23:56.017Z</time></trkpt><trkpt lat="40.4475117" lon="15.04536"><ele>31.0</ele><time>2026-03-28T08:23:57.016Z</time></trkpt><trkpt lat="40.4473167" lon="15.0454583"><ele>31.0</ele><time>2026-03-28T08:23:58.016Z</time></trkpt><trkpt lat="40.44713" lon="15.0455567"><ele>31.0</ele><time>2026-03-28T08:23:59.016Z</time></trkpt><trkpt lat="40.4469467" lon="15.045655"><ele>31.0</ele><time>2026-03-28T08:24:00.017Z</time></trkpt><trkpt lat="40.4467617" lon="15.0457517"><ele>31.0</ele><time>2026-03-28T08:24:01.017Z</time></trkpt><trkpt lat="40.4465783" lon="15.0458433"><ele>31.0</ele><time>2026-03-28T08:24:02.017Z</time></trkpt><trkpt lat="40.4463783" lon="15.04593"><ele>31.333333333333336</ele><time>2026-03-28T08:24:03.017Z</time></trkpt><trkpt lat="40.4461767" lon="15.0460017"><ele>31.666666666666664</ele><time>2026-03-28T08:24:04.016Z</time></trkpt><trkpt lat="40.4459767" lon="15.0460633"><ele>32.0</ele><time>2026-03-28T08:24:05.016Z</time></trkpt><trkpt lat="40.4457783" lon="15.0461267"><ele>32.0</ele><time>2026-03-28T08:24:06.016Z</time></trkpt><trkpt lat="40.445585" lon="15.0461867"><ele>32.0</ele><time>2026-03-28T08:24:07.017Z</time></trkpt><trkpt lat="40.445415" lon="15.046235"><ele>32.0</ele><time>2026-03-28T08:24:08.016Z</time></trkpt><trkpt lat="40.44525" lon="15.0462667"><ele>32.33333333333333</ele><time>2026-03-28T08:24:09.017Z</time></trkpt><trkpt lat="40.4450883" lon="15.04628"><ele>32.666666666666664</ele><time>2026-03-28T08:24:10.016Z</time></trkpt><trkpt lat="40.444925" lon="15.046275"><ele>33.0</ele><time>2026-03-28T08:24:11.017Z</time></trkpt><trkpt lat="40.4447567" lon="15.0462433"><ele>34.0</ele><time>2026-03-28T08:24:12.016Z</time></trkpt><trkpt lat="40.4445917" lon="15.0461967"><ele>35.0</ele><time>2026-03-28T08:24:13.017Z</time></trkpt><trkpt lat="40.4444233" lon="15.0461267"><ele>36.0</ele><time>2026-03-28T08:24:14.017Z</time></trkpt><trkpt lat="40.4442517" lon="15.046045"><ele>36.0</ele><time>2026-03-28T08:24:15.016Z</time></trkpt><trkpt lat="40.4440717" lon="15.045945"><ele>36.0</ele><time>2026-03-28T08:24:16.017Z</time></trkpt><trkpt lat="40.4438917" lon="15.045835"><ele>36.0</ele><time>2026-03-28T08:24:17.016Z</time></trkpt><trkpt lat="40.44371" lon="15.0457217"><ele>34.666666666666664</ele><time>2026-03-28T08:24:18.016Z</time></trkpt><trkpt lat="40.4435333" lon="15.0456133"><ele>33.33333333333333</ele><time>2026-03-28T08:24:19.016Z</time></trkpt><trkpt lat="40.44337" lon="15.045505"><ele>32.0</ele><time>2026-03-28T08:24:20.016Z</time></trkpt><trkpt lat="40.4432167" lon="15.0454117"><ele>32.0</ele><time>2026-03-28T08:24:21.016Z</time></trkpt><trkpt lat="40.4430667" lon="15.0453283"><ele>32.0</ele><time>2026-03-28T08:24:22.016Z</time></trkpt><trkpt lat="40.4429117" lon="15.0452683"><ele>32.0</ele><time>2026-03-28T08:24:23.016Z</time></trkpt><trkpt lat="40.4427417" lon="15.0452217"><ele>33.0</ele><time>2026-03-28T08:24:24.016Z</time></trkpt><trkpt lat="40.4425617" lon="15.0451783"><ele>34.0</ele><time>2026-03-28T08:24:25.017Z</time></trkpt><trkpt lat="40.4423733" lon="15.0451267"><ele>35.0</ele><time>2026-03-28T08:24:26.016Z</time></trkpt><trkpt lat="40.44219" lon="15.0450833"><ele>36.0</ele><time>2026-03-28T08:24:27.016Z</time></trkpt><trkpt lat="40.4420167" lon="15.045035"><ele>37.0</ele><time>2026-03-28T08:24:28.017Z</time></trkpt><trkpt lat="40.4418533" lon="15.0449867"><ele>38.0</ele><time>2026-03-28T08:24:29.017Z</time></trkpt><trkpt lat="40.441695" lon="15.044925"><ele>36.0</ele><time>2026-03-28T08:24:30.016Z</time></trkpt><trkpt lat="40.4415417" lon="15.04485"><ele>34.0</ele><time>2026-03-28T08:24:31.016Z</time></trkpt><trkpt lat="40.44139" lon="15.0447483"><ele>32.0</ele><time>2026-03-28T08:24:32.017Z</time></trkpt><trkpt lat="40.4412467" lon="15.0446383"><ele>32.0</ele><time>2026-03-28T08:24:33.017Z</time></trkpt><trkpt lat="40.4411017" lon="15.044545"><ele>32.0</ele><time>2026-03-28T08:24:34.017Z</time></trkpt><trkpt lat="40.4409533" lon="15.0444733"><ele>32.0</ele><time>2026-03-28T08:24:35.016Z</time></trkpt><trkpt lat="40.440795" lon="15.04442"><ele>32.0</ele><time>2026-03-28T08:24:36.017Z</time></trkpt><trkpt lat="40.44062" lon="15.04438"><ele>32.0</ele><time>2026-03-28T08:24:37.016Z</time></trkpt><trkpt lat="40.4404317" lon="15.044345"><ele>32.0</ele><time>2026-03-28T08:24:38.017Z</time></trkpt><trkpt lat="40.440245" lon="15.0443117"><ele>32.666666666666664</ele><time>2026-03-28T08:24:39.016Z</time></trkpt><trkpt lat="40.4400683" lon="15.0442733"><ele>33.333333333333336</ele><time>2026-03-28T08:24:40.017Z</time></trkpt><trkpt lat="40.4398933" lon="15.0442283"><ele>34.0</ele><time>2026-03-28T08:24:41.016Z</time></trkpt><trkpt lat="40.4397217" lon="15.044165"><ele>32.333333333333336</ele><time>2026-03-28T08:24:42.016Z</time></trkpt><trkpt lat="40.4395533" lon="15.0440917"><ele>30.666666666666664</ele><time>2026-03-28T08:24:43.017Z</time></trkpt><trkpt lat="40.43939" lon="15.044025"><ele>29.0</ele><time>2026-03-28T08:24:44.016Z</time></trkpt><trkpt lat="40.43922" lon="15.04398"><ele>29.0</ele><time>2026-03-28T08:24:45.017Z</time></trkpt><trkpt lat="40.4390383" lon="15.0439417"><ele>29.0</ele><time>2026-03-28T08:24:46.017Z</time></trkpt><trkpt lat="40.4388567" lon="15.043915"><ele>29.0</ele><time>2026-03-28T08:24:47.017Z</time></trkpt><trkpt lat="40.4386817" lon="15.04388"><ele>29.5</ele><time>2026-03-28T08:24:48.017Z</time></trkpt><trkpt lat="40.4385183" lon="15.04384"><ele>30.0</ele><time>2026-03-28T08:24:49.017Z</time></trkpt><trkpt lat="40.4383717" lon="15.0438133"><ele>30.5</ele><time>2026-03-28T08:24:50.016Z</time></trkpt><trkpt lat="40.438245" lon="15.0438033"><ele>31.0</ele><time>2026-03-28T08:24:51.016Z</time></trkpt><trkpt lat="40.4381167" lon="15.0438167"><ele>31.0</ele><time>2026-03-28T08:24:52.017Z</time></trkpt><trkpt lat="40.4379883" lon="15.0438617"><ele>31.0</ele><time>2026-03-28T08:24:53.016Z</time></trkpt><trkpt lat="40.437855" lon="15.043935"><ele>31.0</ele><time>2026-03-28T08:24:54.017Z</time></trkpt><trkpt lat="40.4377117" lon="15.0440217"><ele>31.0</ele><time>2026-03-28T08:24:55.017Z</time></trkpt><trkpt lat="40.437565" lon="15.0440983"><ele>31.0</ele><time>2026-03-28T08:24:56.016Z</time></trkpt><trkpt lat="40.437415" lon="15.0441367"><ele>31.0</ele><time>2026-03-28T08:24:57.016Z</time></trkpt><trkpt lat="40.4372533" lon="15.0441317"><ele>31.0</ele><time>2026-03-28T08:24:58.017Z</time></trkpt><trkpt lat="40.4370917" lon="15.044095"><ele>31.0</ele><time>2026-03-28T08:24:59.017Z</time></trkpt><trkpt lat="40.436925" lon="15.0440433"><ele>31.0</ele><time>2026-03-28T08:25:00.016Z</time></trkpt><trkpt lat="40.436755" lon="15.0439833"><ele>31.0</ele><time>2026-03-28T08:25:01.016Z</time></trkpt><trkpt lat="40.436575" lon="15.0439433"><ele>31.0</ele><time>2026-03-28T08:25:02.016Z</time></trkpt><trkpt lat="40.436385" lon="15.043915"><ele>31.0</ele><time>2026-03-28T08:25:03.017Z</time></trkpt><trkpt lat="40.4361867" lon="15.0439033"><ele>31.0</ele><time>2026-03-28T08:25:04.017Z</time></trkpt><trkpt lat="40.4359817" lon="15.0438967"><ele>30.666666666666668</ele><time>2026-03-28T08:25:05.016Z</time></trkpt><trkpt lat="40.4357817" lon="15.043895"><ele>30.333333333333336</ele><time>2026-03-28T08:25:06.016Z</time></trkpt><trkpt lat="40.4355817" lon="15.04389"><ele>30.0</ele><time>2026-03-28T08:25:07.016Z</time></trkpt><trkpt lat="40.4353817" lon="15.0438933"><ele>31.0</ele><time>2026-03-28T08:25:08.017Z</time></trkpt><trkpt lat="40.4351883" lon="15.043895"><ele>32.0</ele><time>2026-03-28T08:25:09.016Z</time></trkpt><trkpt lat="40.4350083" lon="15.0438917"><ele>33.0</ele><time>2026-03-28T08:25:10.016Z</time></trkpt><trkpt lat="40.43484" lon="15.0438883"><ele>33.0</ele><time>2026-03-28T08:25:11.017Z</time></trkpt><trkpt lat="40.4346867" lon="15.04389"><ele>33.0</ele><time>2026-03-28T08:25:12.017Z</time></trkpt><trkpt lat="40.4345433" lon="15.043895"><ele>33.0</ele><time>2026-03-28T08:25:13.016Z</time></trkpt><trkpt lat="40.4344167" lon="15.0438933"><ele>33.0</ele><time>2026-03-28T08:25:14.017Z</time></trkpt><trkpt lat="40.434315" lon="15.043895"><ele>32.8</ele><time>2026-03-28T08:25:15.016Z</time></trkpt><trkpt lat="40.4342383" lon="15.043895"><ele>32.599999999999994</ele><time>2026-03-28T08:25:16.017Z</time></trkpt><trkpt lat="40.434145" lon="15.0439367"><ele>32.400000000000006</ele><time>2026-03-28T08:25:18.016Z</time></trkpt><trkpt lat="40.4341083" lon="15.044065"><ele>32.2</ele><time>2026-03-28T08:25:20.016Z</time></trkpt><trkpt lat="40.4341017" lon="15.0441783"><ele>32.0</ele><time>2026-03-28T08:25:21.016Z</time></trkpt><trkpt lat="40.434095" lon="15.0443167"><ele>33.0</ele><time>2026-03-28T08:25:22.017Z</time></trkpt><trkpt lat="40.4340817" lon="15.0444717"><ele>34.0</ele><time>2026-03-28T08:25:23.017Z</time></trkpt><trkpt lat="40.4340717" lon="15.044635"><ele>35.0</ele><time>2026-03-28T08:25:24.017Z</time></trkpt><trkpt lat="40.43405" lon="15.04481"><ele>36.0</ele><time>2026-03-28T08:25:25.017Z</time></trkpt><trkpt lat="40.43404" lon="15.045"><ele>38.0</ele><time>2026-03-28T08:25:26.016Z</time></trkpt><trkpt lat="40.4340283" lon="15.0451967"><ele>40.0</ele><time>2026-03-28T08:25:27.017Z</time></trkpt><trkpt lat="40.4340133" lon="15.0453817"><ele>42.0</ele><time>2026-03-28T08:25:28.016Z</time></trkpt><trkpt lat="40.4339983" lon="15.0455633"><ele>44.0</ele><time>2026-03-28T08:25:29.016Z</time></trkpt><trkpt lat="40.4339783" lon="15.0457367"><ele>45.75</ele><time>2026-03-28T08:25:30.017Z</time></trkpt><trkpt lat="40.4339517" lon="15.0458917"><ele>47.5</ele><time>2026-03-28T08:25:31.016Z</time></trkpt><trkpt lat="40.4339167" lon="15.0460367"><ele>49.25</ele><time>2026-03-28T08:25:32.016Z</time></trkpt><trkpt lat="40.4338667" lon="15.0461783"><ele>51.0</ele><time>2026-03-28T08:25:33.017Z</time></trkpt><trkpt lat="40.4338033" lon="15.0463133"><ele>51.0</ele><time>2026-03-28T08:25:34.016Z</time></trkpt><trkpt lat="40.4337333" lon="15.04644"><ele>51.0</ele><time>2026-03-28T08:25:35.016Z</time></trkpt><trkpt lat="40.4336667" lon="15.0465483"><ele>51.0</ele><time>2026-03-28T08:25:36.017Z</time></trkpt><trkpt lat="40.4335917" lon="15.0466433"><ele>51.0</ele><time>2026-03-28T08:25:37.016Z</time></trkpt><trkpt lat="40.4335083" lon="15.046725"><ele>51.0</ele><time>2026-03-28T08:25:38.016Z</time></trkpt><trkpt lat="40.43341" lon="15.0467767"><ele>52.4</ele><time>2026-03-28T08:25:39.016Z</time></trkpt><trkpt lat="40.4333117" lon="15.0467983"><ele>53.8</ele><time>2026-03-28T08:25:40.016Z</time></trkpt><trkpt lat="40.4332133" lon="15.0467917"><ele>55.199999999999996</ele><time>2026-03-28T08:25:41.017Z</time></trkpt><trkpt lat="40.43312" lon="15.0467567"><ele>56.599999999999994</ele><time>2026-03-28T08:25:42.016Z</time></trkpt><trkpt lat="40.4330183" lon="15.0467017"><ele>58.0</ele><time>2026-03-28T08:25:43.016Z</time></trkpt><trkpt lat="40.432915" lon="15.0466283"><ele>56.4</ele><time>2026-03-28T08:25:44.016Z</time></trkpt><trkpt lat="40.4328067" lon="15.0465583"><ele>54.8</ele><time>2026-03-28T08:25:45.017Z</time></trkpt><trkpt lat="40.432705" lon="15.04651"><ele>53.2</ele><time>2026-03-28T08:25:46.016Z</time></trkpt><trkpt lat="40.4326017" lon="15.0464833"><ele>51.6</ele><time>2026-03-28T08:25:47.016Z</time></trkpt><trkpt lat="40.43249" lon="15.0464817"><ele>50.0</ele><time>2026-03-28T08:25:48.016Z</time></trkpt><trkpt lat="40.4323617" lon="15.0464817"><ele>50.0</ele><time>2026-03-28T08:25:49.017Z</time></trkpt><trkpt lat="40.4322283" lon="15.0464733"><ele>50.0</ele><time>2026-03-28T08:25:50.017Z</time></trkpt><trkpt lat="40.4320983" lon="15.0464767"><ele>50.0</ele><time>2026-03-28T08:25:51.017Z</time></trkpt><trkpt lat="40.4319783" lon="15.046495"><ele>50.0</ele><time>2026-03-28T08:25:52.017Z</time></trkpt><trkpt lat="40.431865" lon="15.04653"><ele>50.6</ele><time>2026-03-28T08:25:53.016Z</time></trkpt><trkpt lat="40.4317533" lon="15.0465833"><ele>51.2</ele><time>2026-03-28T08:25:54.016Z</time></trkpt><trkpt lat="40.4316483" lon="15.0466317"><ele>51.8</ele><time>2026-03-28T08:25:55.016Z</time></trkpt><trkpt lat="40.431565" lon="15.0466517"><ele>52.4</ele><time>2026-03-28T08:25:56.017Z</time></trkpt><trkpt lat="40.43147" lon="15.04667"><ele>53.0</ele><time>2026-03-28T08:25:58.016Z</time></trkpt><trkpt lat="40.4313633" lon="15.0466717"><ele>54.5</ele><time>2026-03-28T08:26:00.017Z</time></trkpt><trkpt lat="40.4312717" lon="15.0466767"><ele>56.0</ele><time>2026-03-28T08:26:01.016Z</time></trkpt><trkpt lat="40.4311567" lon="15.046685"><ele>57.5</ele><time>2026-03-28T08:26:02.017Z</time></trkpt><trkpt lat="40.4310283" lon="15.0466783"><ele>59.0</ele><time>2026-03-28T08:26:03.016Z</time></trkpt><trkpt lat="40.4308933" lon="15.04667"><ele>59.0</ele><time>2026-03-28T08:26:04.017Z</time></trkpt><trkpt lat="40.4307567" lon="15.0466483"><ele>59.0</ele><time>2026-03-28T08:26:05.016Z</time></trkpt><trkpt lat="40.430625" lon="15.0466167"><ele>59.0</ele><time>2026-03-28T08:26:06.016Z</time></trkpt><trkpt lat="40.4305017" lon="15.04657"><ele>59.0</ele><time>2026-03-28T08:26:07.016Z</time></trkpt><trkpt lat="40.430385" lon="15.0465183"><ele>56.75</ele><time>2026-03-28T08:26:08.016Z</time></trkpt><trkpt lat="40.430275" lon="15.0464583"><ele>54.5</ele><time>2026-03-28T08:26:09.017Z</time></trkpt><trkpt lat="40.430165" lon="15.0464033"><ele>52.25</ele><time>2026-03-28T08:26:10.017Z</time></trkpt><trkpt lat="40.4300583" lon="15.0463733"><ele>50.0</ele><time>2026-03-28T08:26:11.016Z</time></trkpt><trkpt lat="40.4299533" lon="15.0463733"><ele>50.0</ele><time>2026-03-28T08:26:12.016Z</time></trkpt><trkpt lat="40.4298467" lon="15.0464"><ele>50.0</ele><time>2026-03-28T08:26:13.017Z</time></trkpt><trkpt lat="40.4297433" lon="15.0464317"><ele>50.0</ele><time>2026-03-28T08:26:14.017Z</time></trkpt><trkpt lat="40.4296567" lon="15.0464417"><ele>50.0</ele><time>2026-03-28T08:26:15.017Z</time></trkpt><trkpt lat="40.4295867" lon="15.0464283"><ele>50.0</ele><time>2026-03-28T08:26:16.016Z</time></trkpt><trkpt lat="40.42952" lon="15.0463717"><ele>49.75</ele><time>2026-03-28T08:26:17.017Z</time></trkpt><trkpt lat="40.42944" lon="15.0462767"><ele>49.5</ele><time>2026-03-28T08:26:18.016Z</time></trkpt><trkpt lat="40.4293433" lon="15.0461767"><ele>49.25</ele><time>2026-03-28T08:26:19.016Z</time></trkpt><trkpt lat="40.4292367" lon="15.0460983"><ele>49.0</ele><time>2026-03-28T08:26:20.016Z</time></trkpt><trkpt lat="40.4291217" lon="15.046035"><ele>49.0</ele><time>2026-03-28T08:26:21.016Z</time></trkpt><trkpt lat="40.4289933" lon="15.0459883"><ele>49.0</ele><time>2026-03-28T08:26:22.017Z</time></trkpt><trkpt lat="40.4288533" lon="15.0459417"><ele>49.0</ele><time>2026-03-28T08:26:23.016Z</time></trkpt><trkpt lat="40.4287033" lon="15.0458967"><ele>49.0</ele><time>2026-03-28T08:26:24.017Z</time></trkpt><trkpt lat="40.4285467" lon="15.0458517"><ele>49.0</ele><time>2026-03-28T08:26:25.016Z</time></trkpt><trkpt lat="40.428385" lon="15.0458017"><ele>49.0</ele><time>2026-03-28T08:26:26.016Z</time></trkpt><trkpt lat="40.4282233" lon="15.0457433"><ele>49.0</ele><time>2026-03-28T08:26:27.017Z</time></trkpt><trkpt lat="40.4280717" lon="15.045685"><ele>47.0</ele><time>2026-03-28T08:26:28.016Z</time></trkpt><trkpt lat="40.42792" lon="15.0456267"><ele>45.0</ele><time>2026-03-28T08:26:29.017Z</time></trkpt><trkpt lat="40.4277683" lon="15.0455717"><ele>43.0</ele><time>2026-03-28T08:26:30.016Z</time></trkpt><trkpt lat="40.42761" lon="15.0455283"><ele>43.0</ele><time>2026-03-28T08:26:31.017Z</time></trkpt><trkpt lat="40.4274383" lon="15.0454967"><ele>43.0</ele><time>2026-03-28T08:26:32.016Z</time></trkpt><trkpt lat="40.42726" lon="15.0454783"><ele>43.0</ele><time>2026-03-28T08:26:33.016Z</time></trkpt><trkpt lat="40.4270883" lon="15.0454617"><ele>43.0</ele><time>2026-03-28T08:26:34.016Z</time></trkpt><trkpt lat="40.4269367" lon="15.0454517"><ele>43.0</ele><time>2026-03-28T08:26:35.017Z</time></trkpt><trkpt lat="40.4267883" lon="15.0454267"><ele>43.0</ele><time>2026-03-28T08:26:36.016Z</time></trkpt><trkpt lat="40.4266383" lon="15.045395"><ele>43.0</ele><time>2026-03-28T08:26:37.017Z</time></trkpt><trkpt lat="40.4264767" lon="15.0453717"><ele>43.0</ele><time>2026-03-28T08:26:38.016Z</time></trkpt><trkpt lat="40.4263067" lon="15.0453667"><ele>43.0</ele><time>2026-03-28T08:26:39.016Z</time></trkpt><trkpt lat="40.42613" lon="15.04538"><ele>44.0</ele><time>2026-03-28T08:26:40.017Z</time></trkpt><trkpt lat="40.425965" lon="15.0454017"><ele>45.0</ele><time>2026-03-28T08:26:41.016Z</time></trkpt><trkpt lat="40.4258117" lon="15.0454183"><ele>46.0</ele><time>2026-03-28T08:26:42.016Z</time></trkpt><trkpt lat="40.4256733" lon="15.0454267"><ele>46.0</ele><time>2026-03-28T08:26:43.017Z</time></trkpt><trkpt lat="40.42554" lon="15.0454267"><ele>46.0</ele><time>2026-03-28T08:26:44.016Z</time></trkpt><trkpt lat="40.4254033" lon="15.0454383"><ele>46.0</ele><time>2026-03-28T08:26:45.016Z</time></trkpt><trkpt lat="40.425245" lon="15.0454733"><ele>46.0</ele><time>2026-03-28T08:26:46.017Z</time></trkpt><trkpt lat="40.4250767" lon="15.04552"><ele>45.66666666666667</ele><time>2026-03-28T08:26:47.016Z</time></trkpt><trkpt lat="40.4249083" lon="15.0455767"><ele>45.333333333333336</ele><time>2026-03-28T08:26:48.017Z</time></trkpt><trkpt lat="40.424745" lon="15.0456133"><ele>45.0</ele><time>2026-03-28T08:26:49.016Z</time></trkpt><trkpt lat="40.4246033" lon="15.04565"><ele>44.833333333333336</ele><time>2026-03-28T08:26:50.016Z</time></trkpt><trkpt lat="40.42449" lon="15.0456817"><ele>44.666666666666664</ele><time>2026-03-28T08:26:51.017Z</time></trkpt><trkpt lat="40.424415" lon="15.0456967"><ele>44.5</ele><time>2026-03-28T08:26:52.016Z</time></trkpt><trkpt lat="40.4243517" lon="15.0457133"><ele>44.33333333333333</ele><time>2026-03-28T08:26:54.016Z</time></trkpt><trkpt lat="40.4243167" lon="15.045805"><ele>44.166666666666664</ele><time>2026-03-28T08:26:57.016Z</time></trkpt><trkpt lat="40.4243233" lon="15.0458967"><ele>44.0</ele><time>2026-03-28T08:26:58.017Z</time></trkpt><trkpt lat="40.4243383" lon="15.0460267"><ele>45.5</ele><time>2026-03-28T08:26:59.016Z</time></trkpt><trkpt lat="40.4243583" lon="15.0461833"><ele>47.0</ele><time>2026-03-28T08:27:00.017Z</time></trkpt><trkpt lat="40.4243783" lon="15.046355"><ele>48.5</ele><time>2026-03-28T08:27:01.017Z</time></trkpt><trkpt lat="40.4243983" lon="15.0465417"><ele>50.0</ele><time>2026-03-28T08:27:02.016Z</time></trkpt><trkpt lat="40.4244183" lon="15.0467417"><ele>51.66666666666667</ele><time>2026-03-28T08:27:03.016Z</time></trkpt><trkpt lat="40.4244317" lon="15.04694"><ele>53.33333333333333</ele><time>2026-03-28T08:27:04.016Z</time></trkpt><trkpt lat="40.4244317" lon="15.0471417"><ele>55.0</ele><time>2026-03-28T08:27:05.016Z</time></trkpt><trkpt lat="40.4244133" lon="15.0473433"><ele>57.666666666666664</ele><time>2026-03-28T08:27:06.017Z</time></trkpt><trkpt lat="40.4243633" lon="15.0475433"><ele>60.33333333333333</ele><time>2026-03-28T08:27:07.016Z</time></trkpt><trkpt lat="40.4242967" lon="15.047735"><ele>63.0</ele><time>2026-03-28T08:27:08.016Z</time></trkpt><trkpt lat="40.4242067" lon="15.0479233"><ele>63.0</ele><time>2026-03-28T08:27:09.017Z</time></trkpt><trkpt lat="40.4241" lon="15.04811"><ele>63.0</ele><time>2026-03-28T08:27:10.017Z</time></trkpt><trkpt lat="40.4239817" lon="15.048305"><ele>63.0</ele><time>2026-03-28T08:27:11.017Z</time></trkpt><trkpt lat="40.4238583" lon="15.0485117"><ele>65.0</ele><time>2026-03-28T08:27:12.017Z</time></trkpt><trkpt lat="40.42373" lon="15.04872"><ele>67.0</ele><time>2026-03-28T08:27:13.016Z</time></trkpt><trkpt lat="40.4236" lon="15.0489317"><ele>69.0</ele><time>2026-03-28T08:27:14.017Z</time></trkpt><trkpt lat="40.423475" lon="15.0491517"><ele>72.66666666666667</ele><time>2026-03-28T08:27:15.016Z</time></trkpt><trkpt lat="40.4233417" lon="15.0493717"><ele>76.33333333333334</ele><time>2026-03-28T08:27:16.016Z</time></trkpt><trkpt lat="40.4232083" lon="15.0495983"><ele>80.0</ele><time>2026-03-28T08:27:17.016Z</time></trkpt><trkpt lat="40.4230733" lon="15.04983"><ele>81.0</ele><time>2026-03-28T08:27:18.016Z</time></trkpt><trkpt lat="40.42293" lon="15.0500617"><ele>82.0</ele><time>2026-03-28T08:27:19.016Z</time></trkpt><trkpt lat="40.4227883" lon="15.0503017"><ele>82.0</ele><time>2026-03-28T08:27:20.016Z</time></trkpt><trkpt lat="40.4226467" lon="15.05054"><ele>82.0</ele><time>2026-03-28T08:27:21.016Z</time></trkpt><trkpt lat="40.422505" lon="15.05077"><ele>82.66666666666666</ele><time>2026-03-28T08:27:22.017Z</time></trkpt><trkpt lat="40.4223667" lon="15.0509933"><ele>83.33333333333333</ele><time>2026-03-28T08:27:23.017Z</time></trkpt><trkpt lat="40.4222333" lon="15.05121"><ele>84.0</ele><time>2026-03-28T08:27:24.016Z</time></trkpt><trkpt lat="40.4221033" lon="15.0514133"><ele>84.0</ele><time>2026-03-28T08:27:25.016Z</time></trkpt><trkpt lat="40.4219783" lon="15.0516133"><ele>84.0</ele><time>2026-03-28T08:27:26.016Z</time></trkpt><trkpt lat="40.421845" lon="15.0518133"><ele>84.0</ele><time>2026-03-28T08:27:27.016Z</time></trkpt><trkpt lat="40.4217017" lon="15.0520033"><ele>84.0</ele><time>2026-03-28T08:27:28.017Z</time></trkpt><trkpt lat="40.421545" lon="15.0521917"><ele>84.0</ele><time>2026-03-28T08:27:29.016Z</time></trkpt><trkpt lat="40.4213817" lon="15.0523717"><ele>84.0</ele><time>2026-03-28T08:27:30.016Z</time></trkpt><trkpt lat="40.4212133" lon="15.0525433"><ele>84.0</ele><time>2026-03-28T08:27:31.016Z</time></trkpt><trkpt lat="40.4210433" lon="15.05271"><ele>84.0</ele><time>2026-03-28T08:27:32.017Z</time></trkpt><trkpt lat="40.4208733" lon="15.05288"><ele>84.0</ele><time>2026-03-28T08:27:33.016Z</time></trkpt><trkpt lat="40.4206983" lon="15.0530583"><ele>84.0</ele><time>2026-03-28T08:27:34.016Z</time></trkpt><trkpt lat="40.42052" lon="15.0532383"><ele>84.0</ele><time>2026-03-28T08:27:35.017Z</time></trkpt><trkpt lat="40.4203383" lon="15.053405"><ele>84.0</ele><time>2026-03-28T08:27:36.016Z</time></trkpt><trkpt lat="40.4201467" lon="15.0535433"><ele>90.0</ele><time>2026-03-28T08:27:37.016Z</time></trkpt><trkpt lat="40.4199383" lon="15.0536733"><ele>96.0</ele><time>2026-03-28T08:27:38.017Z</time></trkpt><trkpt lat="40.419725" lon="15.053815"><ele>95.0</ele><time>2026-03-28T08:27:39.017Z</time></trkpt><trkpt lat="40.419505" lon="15.053965"><ele>94.0</ele><time>2026-03-28T08:27:40.017Z</time></trkpt><trkpt lat="40.41927" lon="15.05412"><ele>95.5</ele><time>2026-03-28T08:27:41.016Z</time></trkpt><trkpt lat="40.4190317" lon="15.0542783"><ele>97.0</ele><time>2026-03-28T08:27:42.017Z</time></trkpt><trkpt lat="40.41879" lon="15.054435"><ele>97.0</ele><time>2026-03-28T08:27:43.016Z</time></trkpt><trkpt lat="40.4185433" lon="15.0545867"><ele>97.0</ele><time>2026-03-28T08:27:44.017Z</time></trkpt><trkpt lat="40.4183067" lon="15.0547267"><ele>97.0</ele><time>2026-03-28T08:27:45.017Z</time></trkpt><trkpt lat="40.4180717" lon="15.0548633"><ele>97.0</ele><time>2026-03-28T08:27:46.016Z</time></trkpt><trkpt lat="40.41785" lon="15.055005"><ele>104.0</ele><time>2026-03-28T08:27:47.016Z</time></trkpt><trkpt lat="40.4176267" lon="15.0551617"><ele>111.0</ele><time>2026-03-28T08:27:48.016Z</time></trkpt><trkpt lat="40.4174033" lon="15.0553283"><ele>111.0</ele><time>2026-03-28T08:27:49.016Z</time></trkpt><trkpt lat="40.4171817" lon="15.0555033"><ele>111.0</ele><time>2026-03-28T08:27:50.016Z</time></trkpt><trkpt lat="40.41695" lon="15.0556867"><ele>117.5</ele><time>2026-03-28T08:27:51.017Z</time></trkpt><trkpt lat="40.4167183" lon="15.0558733"><ele>124.0</ele><time>2026-03-28T08:27:52.016Z</time></trkpt><trkpt lat="40.4164933" lon="15.0560583"><ele>120.0</ele><time>2026-03-28T08:27:53.017Z</time></trkpt><trkpt lat="40.4162683" lon="15.0562367"><ele>116.0</ele><time>2026-03-28T08:27:54.016Z</time></trkpt><trkpt lat="40.41604" lon="15.05641"><ele>116.0</ele><time>2026-03-28T08:27:55.016Z</time></trkpt><trkpt lat="40.4158117" lon="15.0565833"><ele>116.0</ele><time>2026-03-28T08:27:56.016Z</time></trkpt><trkpt lat="40.4156033" lon="15.0567467"><ele>124.5</ele><time>2026-03-28T08:27:57.016Z</time></trkpt><trkpt lat="40.4154083" lon="15.0569"><ele>133.0</ele><time>2026-03-28T08:27:58.017Z</time></trkpt><trkpt lat="40.4152183" lon="15.0570517"><ele>133.0</ele><time>2026-03-28T08:27:59.017Z</time></trkpt><trkpt lat="40.4150267" lon="15.05721"><ele>133.0</ele><time>2026-03-28T08:28:00.017Z</time></trkpt><trkpt lat="40.4148367" lon="15.0573783"><ele>136.33333333333334</ele><time>2026-03-28T08:28:01.016Z</time></trkpt><trkpt lat="40.4146533" lon="15.057535"><ele>139.66666666666666</ele><time>2026-03-28T08:28:02.017Z</time></trkpt><trkpt lat="40.4144867" lon="15.0576817"><ele>143.0</ele><time>2026-03-28T08:28:03.017Z</time></trkpt><trkpt lat="40.41434" lon="15.0578133"><ele>143.0</ele><time>2026-03-28T08:28:04.017Z</time></trkpt><trkpt lat="40.4142233" lon="15.0579267"><ele>143.0</ele><time>2026-03-28T08:28:05.017Z</time></trkpt><trkpt lat="40.41413" lon="15.0580183"><ele>143.0</ele><time>2026-03-28T08:28:06.016Z</time></trkpt><trkpt lat="40.4140517" lon="15.0580983"><ele>143.0</ele><time>2026-03-28T08:28:07.017Z</time></trkpt><trkpt lat="40.413985" lon="15.0581617"><ele>143.0</ele><time>2026-03-28T08:28:08.016Z</time></trkpt><trkpt lat="40.413865" lon="15.0581633"><ele>143.16666666666666</ele><time>2026-03-28T08:28:10.016Z</time></trkpt><trkpt lat="40.41379" lon="15.0581517"><ele>143.33333333333331</ele><time>2026-03-28T08:28:11.017Z</time></trkpt><trkpt lat="40.4137033" lon="15.0581483"><ele>143.5</ele><time>2026-03-28T08:28:12.017Z</time></trkpt><trkpt lat="40.4136183" lon="15.0581583"><ele>143.66666666666666</ele><time>2026-03-28T08:28:13.017Z</time></trkpt><trkpt lat="40.41354" lon="15.0581817"><ele>143.83333333333334</ele><time>2026-03-28T08:28:14.017Z</time></trkpt><trkpt lat="40.4134333" lon="15.0582283"><ele>144.0</ele><time>2026-03-28T08:28:16.017Z</time></trkpt><trkpt lat="40.41337" lon="15.0582583"><ele>144.0</ele><time>2026-03-28T08:28:18.016Z</time></trkpt><trkpt lat="40.4133083" lon="15.0581983"><ele>144.0</ele><time>2026-03-28T08:28:59.017Z</time></trkpt><trkpt lat="40.413265" lon="15.0581367"><ele>144.0</ele><time>2026-03-28T08:29:00.017Z</time></trkpt><trkpt lat="40.4132167" lon="15.0580567"><ele>144.0</ele><time>2026-03-28T08:29:01.017Z</time></trkpt><trkpt lat="40.413165" lon="15.0579533"><ele>144.0</ele><time>2026-03-28T08:29:02.017Z</time></trkpt><trkpt lat="40.413105" lon="15.0578467"><ele>144.0</ele><time>2026-03-28T08:29:03.016Z</time></trkpt><trkpt lat="40.41304" lon="15.057735"><ele>143.6</ele><time>2026-03-28T08:29:04.016Z</time></trkpt><trkpt lat="40.412975" lon="15.0576317"><ele>143.2</ele><time>2026-03-28T08:29:05.017Z</time></trkpt><trkpt lat="40.4129033" lon="15.0575317"><ele>142.79999999999998</ele><time>2026-03-28T08:29:06.017Z</time></trkpt><trkpt lat="40.412825" lon="15.0574483"><ele>142.4</ele><time>2026-03-28T08:29:07.017Z</time></trkpt><trkpt lat="40.41274" lon="15.05738"><ele>142.0</ele><time>2026-03-28T08:29:08.016Z</time></trkpt><trkpt lat="40.412655" lon="15.05732"><ele>141.4</ele><time>2026-03-28T08:29:09.016Z</time></trkpt><trkpt lat="40.4125817" lon="15.0572583"><ele>140.79999999999998</ele><time>2026-03-28T08:29:10.017Z</time></trkpt><trkpt lat="40.4125217" lon="15.05719"><ele>140.2</ele><time>2026-03-28T08:29:11.017Z</time></trkpt><trkpt lat="40.4124683" lon="15.0571383"><ele>139.6</ele><time>2026-03-28T08:29:12.017Z</time></trkpt><trkpt lat="40.4123583" lon="15.057105"><ele>139.0</ele><time>2026-03-28T08:29:14.017Z</time></trkpt><trkpt lat="40.4122467" lon="15.0571833"><ele>139.0</ele><time>2026-03-28T08:29:16.016Z</time></trkpt><trkpt lat="40.412195" lon="15.05726"><ele>139.0</ele><time>2026-03-28T08:29:17.016Z</time></trkpt><trkpt lat="40.4121383" lon="15.05735"><ele>139.0</ele><time>2026-03-28T08:29:18.017Z</time></trkpt><trkpt lat="40.4120717" lon="15.0574467"><ele>139.0</ele><time>2026-03-28T08:29:19.016Z</time></trkpt><trkpt lat="40.4120033" lon="15.0575367"><ele>139.0</ele><time>2026-03-28T08:29:20.017Z</time></trkpt><trkpt lat="40.41194" lon="15.0576133"><ele>139.0</ele><time>2026-03-28T08:29:21.017Z</time></trkpt><trkpt lat="40.4118833" lon="15.0576717"><ele>139.33333333333334</ele><time>2026-03-28T08:29:22.016Z</time></trkpt><trkpt lat="40.41183" lon="15.0577333"><ele>139.66666666666669</ele><time>2026-03-28T08:29:23.016Z</time></trkpt><trkpt lat="40.4117783" lon="15.0578067"><ele>140.0</ele><time>2026-03-28T08:29:24.017Z</time></trkpt><trkpt lat="40.4117283" lon="15.0578933"><ele>140.33333333333334</ele><time>2026-03-28T08:29:25.016Z</time></trkpt><trkpt lat="40.4116883" lon="15.0579983"><ele>140.66666666666666</ele><time>2026-03-28T08:29:26.016Z</time></trkpt><trkpt lat="40.4116583" lon="15.0581083"><ele>141.0</ele><time>2026-03-28T08:29:27.017Z</time></trkpt><trkpt lat="40.41164" lon="15.0582217"><ele>140.4</ele><time>2026-03-28T08:29:28.016Z</time></trkpt><trkpt lat="40.41163" lon="15.0583517"><ele>139.8</ele><time>2026-03-28T08:29:29.017Z</time></trkpt><trkpt lat="40.41162" lon="15.0584917"><ele>139.20000000000002</ele><time>2026-03-28T08:29:30.016Z</time></trkpt><trkpt lat="40.4115983" lon="15.0586367"><ele>138.6</ele><time>2026-03-28T08:29:31.016Z</time></trkpt><trkpt lat="40.41156" lon="15.0587867"><ele>138.0</ele><time>2026-03-28T08:29:32.017Z</time></trkpt><trkpt lat="40.4115133" lon="15.0589433"><ele>138.0</ele><time>2026-03-28T08:29:33.017Z</time></trkpt><trkpt lat="40.411465" lon="15.0591"><ele>138.0</ele><time>2026-03-28T08:29:34.017Z</time></trkpt><trkpt lat="40.4114183" lon="15.0592467"><ele>138.0</ele><time>2026-03-28T08:29:35.016Z</time></trkpt><trkpt lat="40.4113783" lon="15.0593783"><ele>138.0</ele><time>2026-03-28T08:29:36.016Z</time></trkpt><trkpt lat="40.4113467" lon="15.0595"><ele>137.0</ele><time>2026-03-28T08:29:37.017Z</time></trkpt><trkpt lat="40.4113183" lon="15.0595983"><ele>136.0</ele><time>2026-03-28T08:29:38.016Z</time></trkpt><trkpt lat="40.4112833" lon="15.0597283"><ele>135.0</ele><time>2026-03-28T08:29:40.016Z</time></trkpt><trkpt lat="40.4112433" lon="15.0598833"><ele>134.0</ele><time>2026-03-28T08:29:42.017Z</time></trkpt><trkpt lat="40.4112067" lon="15.059985"><ele>133.0</ele><time>2026-03-28T08:29:43.017Z</time></trkpt><trkpt lat="40.4111583" lon="15.0601167"><ele>133.0</ele><time>2026-03-28T08:29:44.016Z</time></trkpt><trkpt lat="40.4111117" lon="15.06027"><ele>133.0</ele><time>2026-03-28T08:29:45.016Z</time></trkpt><trkpt lat="40.4110767" lon="15.0604133"><ele>133.0</ele><time>2026-03-28T08:29:46.016Z</time></trkpt><trkpt lat="40.4110483" lon="15.0605317"><ele>133.0</ele><time>2026-03-28T08:29:47.016Z</time></trkpt><trkpt lat="40.411025" lon="15.0606233"><ele>133.0</ele><time>2026-03-28T08:29:48.017Z</time></trkpt><trkpt lat="40.4110017" lon="15.0607033"><ele>132.83333333333334</ele><time>2026-03-28T08:29:49.016Z</time></trkpt><trkpt lat="40.41096" lon="15.0608467"><ele>132.66666666666669</ele><time>2026-03-28T08:29:51.016Z</time></trkpt><trkpt lat="40.4109283" lon="15.0609267"><ele>132.5</ele><time>2026-03-28T08:29:53.016Z</time></trkpt><trkpt lat="40.410915" lon="15.0610217"><ele>132.33333333333334</ele><time>2026-03-28T08:29:56.016Z</time></trkpt><trkpt lat="40.41089" lon="15.0611333"><ele>132.16666666666666</ele><time>2026-03-28T08:29:58.016Z</time></trkpt><trkpt lat="40.4108667" lon="15.0612217"><ele>132.0</ele><time>2026-03-28T08:29:59.016Z</time></trkpt><trkpt lat="40.41084" lon="15.0613217"><ele>132.0</ele><time>2026-03-28T08:30:00.016Z</time></trkpt><trkpt lat="40.410815" lon="15.0614183"><ele>132.0</ele><time>2026-03-28T08:30:01.017Z</time></trkpt><trkpt lat="40.410795" lon="15.0615167"><ele>132.0</ele><time>2026-03-28T08:30:02.016Z</time></trkpt><trkpt lat="40.410775" lon="15.0616167"><ele>132.0</ele><time>2026-03-28T08:30:03.016Z</time></trkpt><trkpt lat="40.41075" lon="15.0617167"><ele>132.0</ele><time>2026-03-28T08:30:04.017Z</time></trkpt><trkpt lat="40.4107267" lon="15.061815"><ele>132.0</ele><time>2026-03-28T08:30:05.017Z</time></trkpt><trkpt lat="40.410705" lon="15.06191"><ele>131.66666666666666</ele><time>2026-03-28T08:30:06.017Z</time></trkpt><trkpt lat="40.4106867" lon="15.0619983"><ele>131.33333333333334</ele><time>2026-03-28T08:30:07.016Z</time></trkpt><trkpt lat="40.41067" lon="15.0620783"><ele>131.0</ele><time>2026-03-28T08:30:08.016Z</time></trkpt><trkpt lat="40.4106333" lon="15.062205"><ele>130.66666666666669</ele><time>2026-03-28T08:30:10.016Z</time></trkpt><trkpt lat="40.4105917" lon="15.062295"><ele>130.33333333333334</ele><time>2026-03-28T08:30:12.017Z</time></trkpt><trkpt lat="40.41055" lon="15.062415"><ele>130.0</ele><time>2026-03-28T08:30:14.016Z</time></trkpt><trkpt lat="40.41052" lon="15.06251"><ele>129.6</ele><time>2026-03-28T08:30:16.016Z</time></trkpt><trkpt lat="40.4104917" lon="15.0625883"><ele>129.2</ele><time>2026-03-28T08:30:18.016Z</time></trkpt><trkpt lat="40.41045" lon="15.062685"><ele>128.8</ele><time>2026-03-28T08:30:21.017Z</time></trkpt><trkpt lat="40.4104033" lon="15.0627783"><ele>128.4</ele><time>2026-03-28T08:30:24.016Z</time></trkpt><trkpt lat="40.410365" lon="15.0628833"><ele>128.0</ele><time>2026-03-28T08:30:26.016Z</time></trkpt><trkpt lat="40.4103167" lon="15.0630417"><ele>127.99999999999999</ele><time>2026-03-28T08:30:28.017Z</time></trkpt><trkpt lat="40.4102867" lon="15.0631367"><ele>128.0</ele><time>2026-03-28T08:30:29.017Z</time></trkpt><trkpt lat="40.4102517" lon="15.06324"><ele>128.0</ele><time>2026-03-28T08:30:30.016Z</time></trkpt><trkpt lat="40.4102233" lon="15.0633467"><ele>128.0</ele><time>2026-03-28T08:30:31.016Z</time></trkpt><trkpt lat="40.4101983" lon="15.0634517"><ele>127.99999999999999</ele><time>2026-03-28T08:30:32.016Z</time></trkpt><trkpt lat="40.4101683" lon="15.063555"><ele>128.0</ele><time>2026-03-28T08:30:33.016Z</time></trkpt><trkpt lat="40.4101333" lon="15.0636717"><ele>128.0</ele><time>2026-03-28T08:30:34.017Z</time></trkpt><trkpt lat="40.4101" lon="15.0637867"><ele>128.0</ele><time>2026-03-28T08:30:35.017Z</time></trkpt><trkpt lat="40.41007" lon="15.0639033"><ele>128.0</ele><time>2026-03-28T08:30:36.016Z</time></trkpt><trkpt lat="40.410045" lon="15.0640183"><ele>128.0</ele><time>2026-03-28T08:30:37.017Z</time></trkpt><trkpt lat="40.4100217" lon="15.06414"><ele>128.0</ele><time>2026-03-28T08:30:38.017Z</time></trkpt><trkpt lat="40.4099917" lon="15.06425"><ele>129.20000000000002</ele><time>2026-03-28T08:30:39.017Z</time></trkpt><trkpt lat="40.4099483" lon="15.0643667"><ele>130.4</ele><time>2026-03-28T08:30:40.017Z</time></trkpt><trkpt lat="40.4099" lon="15.0644867"><ele>131.60000000000002</ele><time>2026-03-28T08:30:41.016Z</time></trkpt><trkpt lat="40.409845" lon="15.0645983"><ele>132.8</ele><time>2026-03-28T08:30:42.016Z</time></trkpt><trkpt lat="40.409785" lon="15.0647033"><ele>134.0</ele><time>2026-03-28T08:30:43.016Z</time></trkpt><trkpt lat="40.409725" lon="15.0648083"><ele>134.0</ele><time>2026-03-28T08:30:44.017Z</time></trkpt><trkpt lat="40.4096667" lon="15.0649133"><ele>134.0</ele><time>2026-03-28T08:30:45.016Z</time></trkpt><trkpt lat="40.4096117" lon="15.0649917"><ele>134.0</ele><time>2026-03-28T08:30:46.016Z</time></trkpt><trkpt lat="40.40955" lon="15.06505"><ele>134.0</ele><time>2026-03-28T08:30:47.016Z</time></trkpt><trkpt lat="40.4094917" lon="15.0651017"><ele>134.0</ele><time>2026-03-28T08:30:48.017Z</time></trkpt><trkpt lat="40.4094417" lon="15.06517"><ele>134.0</ele><time>2026-03-28T08:30:49.016Z</time></trkpt><trkpt lat="40.4093933" lon="15.0652533"><ele>134.0</ele><time>2026-03-28T08:30:50.017Z</time></trkpt><trkpt lat="40.4093433" lon="15.0653367"><ele>134.0</ele><time>2026-03-28T08:30:51.017Z</time></trkpt><trkpt lat="40.40929" lon="15.065415"><ele>134.0</ele><time>2026-03-28T08:30:52.016Z</time></trkpt><trkpt lat="40.40923" lon="15.06548"><ele>134.0</ele><time>2026-03-28T08:30:53.017Z</time></trkpt><trkpt lat="40.40917" lon="15.0655367"><ele>134.0</ele><time>2026-03-28T08:30:54.016Z</time></trkpt><trkpt lat="40.40908" lon="15.0656117"><ele>134.0</ele><time>2026-03-28T08:30:56.016Z</time></trkpt><trkpt lat="40.40903" lon="15.065665"><ele>134.0</ele><time>2026-03-28T08:30:58.016Z</time></trkpt><trkpt lat="40.4089783" lon="15.0657317"><ele>134.0</ele><time>2026-03-28T08:31:00.017Z</time></trkpt><trkpt lat="40.4089133" lon="15.06582"><ele>134.0</ele><time>2026-03-28T08:31:02.016Z</time></trkpt><trkpt lat="40.408825" lon="15.06595"><ele>134.0</ele><time>2026-03-28T08:31:04.017Z</time></trkpt><trkpt lat="40.4087617" lon="15.0660383"><ele>134.0</ele><time>2026-03-28T08:31:05.016Z</time></trkpt><trkpt lat="40.4087" lon="15.0661367"><ele>133.66666666666666</ele><time>2026-03-28T08:31:06.017Z</time></trkpt><trkpt lat="40.40864" lon="15.06624"><ele>133.33333333333331</ele><time>2026-03-28T08:31:07.017Z</time></trkpt><trkpt lat="40.408585" lon="15.0663333"><ele>133.0</ele><time>2026-03-28T08:31:08.016Z</time></trkpt><trkpt lat="40.40853" lon="15.0664133"><ele>132.66666666666666</ele><time>2026-03-28T08:31:09.017Z</time></trkpt><trkpt lat="40.4084717" lon="15.0664833"><ele>132.33333333333334</ele><time>2026-03-28T08:31:10.017Z</time></trkpt><trkpt lat="40.4084083" lon="15.066545"><ele>132.0</ele><time>2026-03-28T08:31:11.016Z</time></trkpt><trkpt lat="40.4083467" lon="15.066605"><ele>135.0</ele><time>2026-03-28T08:31:12.016Z</time></trkpt><trkpt lat="40.4082783" lon="15.066675"><ele>138.0</ele><time>2026-03-28T08:31:13.016Z</time></trkpt><trkpt lat="40.4082033" lon="15.0667667"><ele>141.0</ele><time>2026-03-28T08:31:14.017Z</time></trkpt><trkpt lat="40.4081233" lon="15.066875"><ele>144.0</ele><time>2026-03-28T08:31:15.017Z</time></trkpt><trkpt lat="40.4080533" lon="15.06698"><ele>147.0</ele><time>2026-03-28T08:31:16.017Z</time></trkpt><trkpt lat="40.4079983" lon="15.0670667"><ele>148.0</ele><time>2026-03-28T08:31:17.016Z</time></trkpt><trkpt lat="40.4079533" lon="15.0671567"><ele>149.0</ele><time>2026-03-28T08:31:18.017Z</time></trkpt><trkpt lat="40.4079167" lon="15.067255"><ele>150.0</ele><time>2026-03-28T08:31:19.016Z</time></trkpt><trkpt lat="40.407885" lon="15.0673683"><ele>151.0</ele><time>2026-03-28T08:31:20.016Z</time></trkpt><trkpt lat="40.4078483" lon="15.067455"><ele>152.0</ele><time>2026-03-28T08:31:21.016Z</time></trkpt><trkpt lat="40.4078017" lon="15.0675167"><ele>153.0</ele><time>2026-03-28T08:31:22.016Z</time></trkpt><trkpt lat="40.4077367" lon="15.0675733"><ele>153.0</ele><time>2026-03-28T08:31:23.016Z</time></trkpt><trkpt lat="40.40766" lon="15.0676367"><ele>153.0</ele><time>2026-03-28T08:31:24.016Z</time></trkpt><trkpt lat="40.4075633" lon="15.0676917"><ele>153.0</ele><time>2026-03-28T08:31:25.017Z</time></trkpt><trkpt lat="40.40747" lon="15.0677417"><ele>153.0</ele><time>2026-03-28T08:31:26.016Z</time></trkpt><trkpt lat="40.4073783" lon="15.0677817"><ele>153.0</ele><time>2026-03-28T08:31:27.017Z</time></trkpt><trkpt lat="40.4072867" lon="15.067835"><ele>153.0</ele><time>2026-03-28T08:31:28.017Z</time></trkpt><trkpt lat="40.4071967" lon="15.0678833"><ele>153.0</ele><time>2026-03-28T08:31:29.016Z</time></trkpt><trkpt lat="40.4071133" lon="15.0679367"><ele>153.0</ele><time>2026-03-28T08:31:30.016Z</time></trkpt><trkpt lat="40.4070267" lon="15.067985"><ele>153.0</ele><time>2026-03-28T08:31:31.017Z</time></trkpt><trkpt lat="40.4069567" lon="15.0680233"><ele>153.0</ele><time>2026-03-28T08:31:32.016Z</time></trkpt><trkpt lat="40.406895" lon="15.0680667"><ele>153.0</ele><time>2026-03-28T08:31:33.017Z</time></trkpt><trkpt lat="40.40681" lon="15.0681583"><ele>153.83333333333334</ele><time>2026-03-28T08:31:35.017Z</time></trkpt><trkpt lat="40.406765" lon="15.06829"><ele>154.66666666666666</ele><time>2026-03-28T08:31:37.016Z</time></trkpt><trkpt lat="40.4067383" lon="15.0683833"><ele>155.5</ele><time>2026-03-28T08:31:38.016Z</time></trkpt><trkpt lat="40.4067133" lon="15.0684767"><ele>156.33333333333331</ele><time>2026-03-28T08:31:39.016Z</time></trkpt><trkpt lat="40.4066667" lon="15.0685633"><ele>157.16666666666666</ele><time>2026-03-28T08:31:40.017Z</time></trkpt><trkpt lat="40.40661" lon="15.0686633"><ele>158.0</ele><time>2026-03-28T08:31:41.016Z</time></trkpt><trkpt lat="40.40655" lon="15.06876"><ele>158.0</ele><time>2026-03-28T08:31:42.017Z</time></trkpt><trkpt lat="40.4065083" lon="15.0688517"><ele>158.0</ele><time>2026-03-28T08:31:43.017Z</time></trkpt><trkpt lat="40.4064617" lon="15.0689417"><ele>158.0</ele><time>2026-03-28T08:31:44.016Z</time></trkpt><trkpt lat="40.406405" lon="15.069055"><ele>158.0</ele><time>2026-03-28T08:31:45.017Z</time></trkpt><trkpt lat="40.4063467" lon="15.0691567"><ele>158.0</ele><time>2026-03-28T08:31:46.017Z</time></trkpt><trkpt lat="40.4062883" lon="15.0692667"><ele>157.6</ele><time>2026-03-28T08:31:47.017Z</time></trkpt><trkpt lat="40.40623" lon="15.0693883"><ele>157.20000000000002</ele><time>2026-03-28T08:31:48.016Z</time></trkpt><trkpt lat="40.4061717" lon="15.069505"><ele>156.8</ele><time>2026-03-28T08:31:49.017Z</time></trkpt><trkpt lat="40.406115" lon="15.0696167"><ele>156.4</ele><time>2026-03-28T08:31:50.016Z</time></trkpt><trkpt lat="40.406065" lon="15.069715"><ele>156.0</ele><time>2026-03-28T08:31:51.017Z</time></trkpt><trkpt lat="40.4060117" lon="15.0698117"><ele>156.0</ele><time>2026-03-28T08:31:52.016Z</time></trkpt><trkpt lat="40.4059567" lon="15.0699133"><ele>156.0</ele><time>2026-03-28T08:31:53.016Z</time></trkpt><trkpt lat="40.4058983" lon="15.07"><ele>156.0</ele><time>2026-03-28T08:31:54.017Z</time></trkpt><trkpt lat="40.4058517" lon="15.07009"><ele>156.0</ele><time>2026-03-28T08:31:55.017Z</time></trkpt><trkpt lat="40.4058117" lon="15.0701767"><ele>156.0</ele><time>2026-03-28T08:31:56.016Z</time></trkpt><trkpt lat="40.4057667" lon="15.07025"><ele>156.0</ele><time>2026-03-28T08:31:57.016Z</time></trkpt><trkpt lat="40.405715" lon="15.07032"><ele>156.83333333333334</ele><time>2026-03-28T08:31:58.016Z</time></trkpt><trkpt lat="40.4056567" lon="15.0704017"><ele>157.66666666666666</ele><time>2026-03-28T08:31:59.017Z</time></trkpt><trkpt lat="40.4056033" lon="15.0704883"><ele>158.5</ele><time>2026-03-28T08:32:00.016Z</time></trkpt><trkpt lat="40.4055567" lon="15.070565"><ele>159.33333333333331</ele><time>2026-03-28T08:32:01.016Z</time></trkpt><trkpt lat="40.4055217" lon="15.07065"><ele>160.16666666666666</ele><time>2026-03-28T08:32:02.017Z</time></trkpt><trkpt lat="40.4054817" lon="15.07075"><ele>161.0</ele><time>2026-03-28T08:32:03.017Z</time></trkpt><trkpt lat="40.405435" lon="15.07087"><ele>162.16666666666666</ele><time>2026-03-28T08:32:04.017Z</time></trkpt><trkpt lat="40.4053933" lon="15.070985"><ele>163.33333333333331</ele><time>2026-03-28T08:32:05.017Z</time></trkpt><trkpt lat="40.4053483" lon="15.0710867"><ele>164.5</ele><time>2026-03-28T08:32:06.016Z</time></trkpt><trkpt lat="40.4053167" lon="15.0711783"><ele>165.66666666666666</ele><time>2026-03-28T08:32:07.017Z</time></trkpt><trkpt lat="40.4052883" lon="15.0712783"><ele>166.83333333333334</ele><time>2026-03-28T08:32:08.016Z</time></trkpt><trkpt lat="40.405265" lon="15.0713817"><ele>168.0</ele><time>2026-03-28T08:32:09.016Z</time></trkpt><trkpt lat="40.4052433" lon="15.0714833"><ele>168.0</ele><time>2026-03-28T08:32:10.016Z</time></trkpt><trkpt lat="40.40522" lon="15.0715917"><ele>168.0</ele><time>2026-03-28T08:32:11.016Z</time></trkpt><trkpt lat="40.4052" lon="15.0716983"><ele>168.0</ele><time>2026-03-28T08:32:12.016Z</time></trkpt><trkpt lat="40.405175" lon="15.0718117"><ele>168.0</ele><time>2026-03-28T08:32:13.017Z</time></trkpt><trkpt lat="40.4051483" lon="15.0719317"><ele>168.0</ele><time>2026-03-28T08:32:14.017Z</time></trkpt><trkpt lat="40.4051233" lon="15.0720483"><ele>168.0</ele><time>2026-03-28T08:32:15.016Z</time></trkpt><trkpt lat="40.4050983" lon="15.0721533"><ele>168.8</ele><time>2026-03-28T08:32:16.016Z</time></trkpt><trkpt lat="40.4050733" lon="15.0722617"><ele>169.60000000000002</ele><time>2026-03-28T08:32:17.016Z</time></trkpt><trkpt lat="40.4050483" lon="15.0723683"><ele>170.39999999999998</ele><time>2026-03-28T08:32:18.016Z</time></trkpt><trkpt lat="40.40502" lon="15.0724817"><ele>171.2</ele><time>2026-03-28T08:32:19.016Z</time></trkpt><trkpt lat="40.4049967" lon="15.0725983"><ele>172.0</ele><time>2026-03-28T08:32:20.016Z</time></trkpt><trkpt lat="40.4049667" lon="15.07272"><ele>173.16666666666669</ele><time>2026-03-28T08:32:21.017Z</time></trkpt><trkpt lat="40.404935" lon="15.072845"><ele>174.33333333333334</ele><time>2026-03-28T08:32:22.017Z</time></trkpt><trkpt lat="40.4049117" lon="15.0729617"><ele>175.5</ele><time>2026-03-28T08:32:23.016Z</time></trkpt><trkpt lat="40.4048917" lon="15.073055"><ele>176.66666666666666</ele><time>2026-03-28T08:32:24.016Z</time></trkpt><trkpt lat="40.4048533" lon="15.0731767"><ele>177.83333333333331</ele><time>2026-03-28T08:32:26.017Z</time></trkpt><trkpt lat="40.4048267" lon="15.0732717"><ele>179.0</ele><time>2026-03-28T08:32:28.017Z</time></trkpt><trkpt lat="40.4048233" lon="15.0733883"><ele>180.16666666666666</ele><time>2026-03-28T08:32:30.017Z</time></trkpt><trkpt lat="40.40485" lon="15.0735517"><ele>181.33333333333331</ele><time>2026-03-28T08:32:32.017Z</time></trkpt><trkpt lat="40.404865" lon="15.0736483"><ele>182.5</ele><time>2026-03-28T08:32:33.017Z</time></trkpt><trkpt lat="40.4048817" lon="15.07375"><ele>183.66666666666666</ele><time>2026-03-28T08:32:34.016Z</time></trkpt><trkpt lat="40.404895" lon="15.0738533"><ele>184.83333333333334</ele><time>2026-03-28T08:32:35.017Z</time></trkpt><trkpt lat="40.4049083" lon="15.07396"><ele>186.0</ele><time>2026-03-28T08:32:36.017Z</time></trkpt><trkpt lat="40.4049233" lon="15.0740583"><ele>188.0</ele><time>2026-03-28T08:32:37.016Z</time></trkpt><trkpt lat="40.4049433" lon="15.074145"><ele>190.0</ele><time>2026-03-28T08:32:38.017Z</time></trkpt><trkpt lat="40.4049767" lon="15.0742217"><ele>192.0</ele><time>2026-03-28T08:32:39.017Z</time></trkpt><trkpt lat="40.4050133" lon="15.0742983"><ele>194.0</ele><time>2026-03-28T08:32:40.017Z</time></trkpt><trkpt lat="40.405045" lon="15.0743717"><ele>196.0</ele><time>2026-03-28T08:32:41.016Z</time></trkpt><trkpt lat="40.4050833" lon="15.0745033"><ele>198.0</ele><time>2026-03-28T08:32:43.016Z</time></trkpt><trkpt lat="40.4051" lon="15.0746483"><ele>198.0</ele><time>2026-03-28T08:32:45.016Z</time></trkpt><trkpt lat="40.4050933" lon="15.0747383"><ele>198.0</ele><time>2026-03-28T08:32:46.017Z</time></trkpt><trkpt lat="40.4050833" lon="15.0748517"><ele>198.0</ele><time>2026-03-28T08:32:47.016Z</time></trkpt><trkpt lat="40.4050567" lon="15.0750033"><ele>198.0</ele><time>2026-03-28T08:32:48.016Z</time></trkpt><trkpt lat="40.4050267" lon="15.07518"><ele>198.0</ele><time>2026-03-28T08:32:49.016Z</time></trkpt><trkpt lat="40.4049883" lon="15.0753733"><ele>200.0</ele><time>2026-03-28T08:32:50.017Z</time></trkpt><trkpt lat="40.4049517" lon="15.075565"><ele>202.0</ele><time>2026-03-28T08:32:51.016Z</time></trkpt><trkpt lat="40.4049233" lon="15.07574"><ele>204.0</ele><time>2026-03-28T08:32:52.016Z</time></trkpt><trkpt lat="40.4049033" lon="15.0758917"><ele>206.0</ele><time>2026-03-28T08:32:53.017Z</time></trkpt><trkpt lat="40.4048867" lon="15.0760433"><ele>207.25</ele><time>2026-03-28T08:32:54.017Z</time></trkpt><trkpt lat="40.4048717" lon="15.0762017"><ele>208.5</ele><time>2026-03-28T08:32:55.016Z</time></trkpt><trkpt lat="40.4048633" lon="15.0763683"><ele>209.75</ele><time>2026-03-28T08:32:56.016Z</time></trkpt><trkpt lat="40.4048567" lon="15.0765567"><ele>211.0</ele><time>2026-03-28T08:32:57.017Z</time></trkpt><trkpt lat="40.40485" lon="15.076755"><ele>213.0</ele><time>2026-03-28T08:32:58.016Z</time></trkpt><trkpt lat="40.40485" lon="15.0769583"><ele>215.0</ele><time>2026-03-28T08:32:59.017Z</time></trkpt><trkpt lat="40.4048467" lon="15.077155"><ele>217.0</ele><time>2026-03-28T08:33:00.016Z</time></trkpt><trkpt lat="40.4048433" lon="15.07733"><ele>219.0</ele><time>2026-03-28T08:33:01.016Z</time></trkpt><trkpt lat="40.4048383" lon="15.0774733"><ele>219.66666666666666</ele><time>2026-03-28T08:33:02.017Z</time></trkpt><trkpt lat="40.40484" lon="15.07759"><ele>220.33333333333331</ele><time>2026-03-28T08:33:03.017Z</time></trkpt><trkpt lat="40.4048333" lon="15.07769"><ele>221.0</ele><time>2026-03-28T08:33:04.016Z</time></trkpt><trkpt lat="40.404815" lon="15.0777867"><ele>221.66666666666666</ele><time>2026-03-28T08:33:05.016Z</time></trkpt><trkpt lat="40.4047783" lon="15.07788"><ele>222.33333333333331</ele><time>2026-03-28T08:33:06.017Z</time></trkpt><trkpt lat="40.4047267" lon="15.0779783"><ele>223.0</ele><time>2026-03-28T08:33:07.016Z</time></trkpt><trkpt lat="40.4046583" lon="15.0780917"><ele>222.0</ele><time>2026-03-28T08:33:08.017Z</time></trkpt><trkpt lat="40.4045683" lon="15.078225"><ele>221.0</ele><time>2026-03-28T08:33:09.017Z</time></trkpt><trkpt lat="40.4044733" lon="15.078355"><ele>220.0</ele><time>2026-03-28T08:33:10.017Z</time></trkpt><trkpt lat="40.4043867" lon="15.0784717"><ele>219.0</ele><time>2026-03-28T08:33:11.017Z</time></trkpt><trkpt lat="40.4043" lon="15.0785833"><ele>219.0</ele><time>2026-03-28T08:33:12.017Z</time></trkpt><trkpt lat="40.40422" lon="15.0786983"><ele>219.0</ele><time>2026-03-28T08:33:13.016Z</time></trkpt><trkpt lat="40.4041433" lon="15.0788017"><ele>219.0</ele><time>2026-03-28T08:33:14.017Z</time></trkpt><trkpt lat="40.40407" lon="15.0789117"><ele>219.0</ele><time>2026-03-28T08:33:15.017Z</time></trkpt><trkpt lat="40.4039967" lon="15.07902"><ele>218.79999999999998</ele><time>2026-03-28T08:33:16.016Z</time></trkpt><trkpt lat="40.40393" lon="15.079135"><ele>218.59999999999997</ele><time>2026-03-28T08:33:17.016Z</time></trkpt><trkpt lat="40.4038817" lon="15.0792467"><ele>218.4</ele><time>2026-03-28T08:33:18.017Z</time></trkpt><trkpt lat="40.4038383" lon="15.07938"><ele>218.2</ele><time>2026-03-28T08:33:19.016Z</time></trkpt><trkpt lat="40.4037933" lon="15.079525"><ele>218.0</ele><time>2026-03-28T08:33:20.017Z</time></trkpt><trkpt lat="40.4037583" lon="15.07968"><ele>218.0</ele><time>2026-03-28T08:33:21.016Z</time></trkpt><trkpt lat="40.40373" lon="15.0798217"><ele>218.0</ele><time>2026-03-28T08:33:22.016Z</time></trkpt><trkpt lat="40.4036917" lon="15.07997"><ele>218.0</ele><time>2026-03-28T08:33:23.017Z</time></trkpt><trkpt lat="40.4036433" lon="15.0801267"><ele>218.0</ele><time>2026-03-28T08:33:24.017Z</time></trkpt><trkpt lat="40.40359" lon="15.0802583"><ele>219.0</ele><time>2026-03-28T08:33:25.016Z</time></trkpt><trkpt lat="40.4035467" lon="15.080365"><ele>220.0</ele><time>2026-03-28T08:33:26.016Z</time></trkpt><trkpt lat="40.4035183" lon="15.0804567"><ele>221.0</ele><time>2026-03-28T08:33:27.016Z</time></trkpt><trkpt lat="40.4035067" lon="15.0805617"><ele>222.0</ele><time>2026-03-28T08:33:28.016Z</time></trkpt><trkpt lat="40.4034967" lon="15.0806933"><ele>223.0</ele><time>2026-03-28T08:33:29.017Z</time></trkpt><trkpt lat="40.403475" lon="15.0808233"><ele>224.0</ele><time>2026-03-28T08:33:30.016Z</time></trkpt><trkpt lat="40.4034517" lon="15.0809467"><ele>225.0</ele><time>2026-03-28T08:33:31.017Z</time></trkpt><trkpt lat="40.4034217" lon="15.08107"><ele>226.0</ele><time>2026-03-28T08:33:32.016Z</time></trkpt><trkpt lat="40.4033883" lon="15.0811867"><ele>227.0</ele><time>2026-03-28T08:33:33.016Z</time></trkpt><trkpt lat="40.4033333" lon="15.081305"><ele>228.0</ele><time>2026-03-28T08:33:34.016Z</time></trkpt><trkpt lat="40.40326" lon="15.08144"><ele>228.0</ele><time>2026-03-28T08:33:35.017Z</time></trkpt><trkpt lat="40.40317" lon="15.0815817"><ele>228.0</ele><time>2026-03-28T08:33:36.016Z</time></trkpt><trkpt lat="40.4030933" lon="15.08171"><ele>228.0</ele><time>2026-03-28T08:33:37.017Z</time></trkpt><trkpt lat="40.4030383" lon="15.081815"><ele>228.0</ele><time>2026-03-28T08:33:38.016Z</time></trkpt><trkpt lat="40.40299" lon="15.081875"><ele>228.0</ele><time>2026-03-28T08:33:39.016Z</time></trkpt><trkpt lat="40.402915" lon="15.0819767"><ele>228.0</ele><time>2026-03-28T08:33:41.017Z</time></trkpt><trkpt lat="40.4028667" lon="15.082085"><ele>228.0</ele><time>2026-03-28T08:33:43.017Z</time></trkpt><trkpt lat="40.4028267" lon="15.0821833"><ele>228.0</ele><time>2026-03-28T08:33:45.016Z</time></trkpt><trkpt lat="40.402785" lon="15.0822967"><ele>228.0</ele><time>2026-03-28T08:33:48.016Z</time></trkpt><trkpt lat="40.4027483" lon="15.0824883"><ele>228.0</ele><time>2026-03-28T08:33:50.016Z</time></trkpt><trkpt lat="40.402715" lon="15.08263"><ele>228.5</ele><time>2026-03-28T08:33:51.017Z</time></trkpt><trkpt lat="40.4026783" lon="15.0827917"><ele>229.0</ele><time>2026-03-28T08:33:52.016Z</time></trkpt><trkpt lat="40.4026467" lon="15.0829633"><ele>229.5</ele><time>2026-03-28T08:33:53.017Z</time></trkpt><trkpt lat="40.40262" lon="15.08313"><ele>230.0</ele><time>2026-03-28T08:33:54.016Z</time></trkpt><trkpt lat="40.4025933" lon="15.0832817"><ele>230.25</ele><time>2026-03-28T08:33:55.016Z</time></trkpt><trkpt lat="40.40257" lon="15.0834317"><ele>230.5</ele><time>2026-03-28T08:33:56.017Z</time></trkpt><trkpt lat="40.40255" lon="15.0835733"><ele>230.75</ele><time>2026-03-28T08:33:57.017Z</time></trkpt><trkpt lat="40.4025283" lon="15.0837183"><ele>231.0</ele><time>2026-03-28T08:33:58.016Z</time></trkpt><trkpt lat="40.4025067" lon="15.08387"><ele>231.0</ele><time>2026-03-28T08:33:59.016Z</time></trkpt><trkpt lat="40.40248" lon="15.0840333"><ele>231.0</ele><time>2026-03-28T08:34:00.016Z</time></trkpt><trkpt lat="40.4024517" lon="15.0842"><ele>231.0</ele><time>2026-03-28T08:34:01.017Z</time></trkpt><trkpt lat="40.40242" lon="15.0843667"><ele>231.0</ele><time>2026-03-28T08:34:02.016Z</time></trkpt><trkpt lat="40.4023917" lon="15.084525"><ele>231.0</ele><time>2026-03-28T08:34:03.016Z</time></trkpt><trkpt lat="40.4023683" lon="15.084675"><ele>231.0</ele><time>2026-03-28T08:34:04.017Z</time></trkpt><trkpt lat="40.4023467" lon="15.08483"><ele>231.0</ele><time>2026-03-28T08:34:05.016Z</time></trkpt><trkpt lat="40.402315" lon="15.0849867"><ele>231.0</ele><time>2026-03-28T08:34:06.017Z</time></trkpt><trkpt lat="40.402275" lon="15.085155"><ele>230.5</ele><time>2026-03-28T08:34:07.017Z</time></trkpt><trkpt lat="40.402225" lon="15.085335"><ele>230.0</ele><time>2026-03-28T08:34:08.017Z</time></trkpt><trkpt lat="40.4021733" lon="15.0855117"><ele>229.5</ele><time>2026-03-28T08:34:09.016Z</time></trkpt><trkpt lat="40.4021217" lon="15.085685"><ele>229.0</ele><time>2026-03-28T08:34:10.016Z</time></trkpt><trkpt lat="40.4020733" lon="15.085855"><ele>223.75</ele><time>2026-03-28T08:34:11.017Z</time></trkpt><trkpt lat="40.402025" lon="15.08602"><ele>218.5</ele><time>2026-03-28T08:34:12.017Z</time></trkpt><trkpt lat="40.401975" lon="15.0861867"><ele>213.25</ele><time>2026-03-28T08:34:13.017Z</time></trkpt><trkpt lat="40.4019283" lon="15.0863517"><ele>208.0</ele><time>2026-03-28T08:34:14.016Z</time></trkpt><trkpt lat="40.401875" lon="15.0865083"><ele>207.75</ele><time>2026-03-28T08:34:15.016Z</time></trkpt><trkpt lat="40.4018217" lon="15.08666"><ele>207.5</ele><time>2026-03-28T08:34:16.016Z</time></trkpt><trkpt lat="40.4017583" lon="15.0868117"><ele>207.25</ele><time>2026-03-28T08:34:17.016Z</time></trkpt><trkpt lat="40.4016833" lon="15.0869633"><ele>207.0</ele><time>2026-03-28T08:34:18.016Z</time></trkpt><trkpt lat="40.4015967" lon="15.0871083"><ele>207.0</ele><time>2026-03-28T08:34:19.016Z</time></trkpt><trkpt lat="40.4015083" lon="15.087245"><ele>207.0</ele><time>2026-03-28T08:34:20.016Z</time></trkpt><trkpt lat="40.4014217" lon="15.0873767"><ele>207.0</ele><time>2026-03-28T08:34:21.016Z</time></trkpt><trkpt lat="40.4013467" lon="15.087505"><ele>207.0</ele><time>2026-03-28T08:34:22.017Z</time></trkpt><trkpt lat="40.401275" lon="15.0876333"><ele>203.5</ele><time>2026-03-28T08:34:23.017Z</time></trkpt><trkpt lat="40.40121" lon="15.0877683"><ele>200.0</ele><time>2026-03-28T08:34:24.016Z</time></trkpt><trkpt lat="40.4011517" lon="15.0879"><ele>196.5</ele><time>2026-03-28T08:34:25.016Z</time></trkpt><trkpt lat="40.4010967" lon="15.0880317"><ele>193.0</ele><time>2026-03-28T08:34:26.016Z</time></trkpt><trkpt lat="40.40105" lon="15.0881517"><ele>193.8</ele><time>2026-03-28T08:34:27.017Z</time></trkpt><trkpt lat="40.4010083" lon="15.0882633"><ele>194.60000000000002</ele><time>2026-03-28T08:34:28.016Z</time></trkpt><trkpt lat="40.4009717" lon="15.0883583"><ele>195.39999999999998</ele><time>2026-03-28T08:34:29.016Z</time></trkpt><trkpt lat="40.4009183" lon="15.0884767"><ele>196.2</ele><time>2026-03-28T08:34:31.017Z</time></trkpt><trkpt lat="40.4008383" lon="15.0884983"><ele>197.0</ele><time>2026-03-28T08:34:33.017Z</time></trkpt><trkpt lat="40.40079" lon="15.088365"><ele>197.0</ele><time>2026-03-28T08:34:35.017Z</time></trkpt><trkpt lat="40.400775" lon="15.0882767"><ele>197.0</ele><time>2026-03-28T08:34:36.017Z</time></trkpt><trkpt lat="40.4007017" lon="15.0882"><ele>197.0</ele><time>2026-03-28T08:34:38.017Z</time></trkpt><trkpt lat="40.4006083" lon="15.0883217"><ele>197.0</ele><time>2026-03-28T08:34:40.017Z</time></trkpt><trkpt lat="40.4005617" lon="15.088435"><ele>197.0</ele><time>2026-03-28T08:34:41.016Z</time></trkpt><trkpt lat="40.40051" lon="15.08857"><ele>192.0</ele><time>2026-03-28T08:34:42.016Z</time></trkpt><trkpt lat="40.4004567" lon="15.0887217"><ele>187.0</ele><time>2026-03-28T08:34:43.017Z</time></trkpt><trkpt lat="40.4004" lon="15.0888917"><ele>182.0</ele><time>2026-03-28T08:34:44.017Z</time></trkpt><trkpt lat="40.4003383" lon="15.08907"><ele>177.0</ele><time>2026-03-28T08:34:45.016Z</time></trkpt><trkpt lat="40.400285" lon="15.0892567"><ele>177.0</ele><time>2026-03-28T08:34:46.016Z</time></trkpt><trkpt lat="40.4002333" lon="15.0894383"><ele>177.0</ele><time>2026-03-28T08:34:47.017Z</time></trkpt><trkpt lat="40.4001767" lon="15.0896117"><ele>177.0</ele><time>2026-03-28T08:34:48.017Z</time></trkpt><trkpt lat="40.4001283" lon="15.0897767"><ele>177.0</ele><time>2026-03-28T08:34:49.016Z</time></trkpt><trkpt lat="40.4000867" lon="15.0899333"><ele>176.0</ele><time>2026-03-28T08:34:50.016Z</time></trkpt><trkpt lat="40.4000483" lon="15.090085"><ele>175.0</ele><time>2026-03-28T08:34:51.016Z</time></trkpt><trkpt lat="40.4000183" lon="15.0902333"><ele>174.0</ele><time>2026-03-28T08:34:52.017Z</time></trkpt><trkpt lat="40.399995" lon="15.0903717"><ele>173.0</ele><time>2026-03-28T08:34:53.017Z</time></trkpt><trkpt lat="40.39998" lon="15.0905117"><ele>173.0</ele><time>2026-03-28T08:34:54.017Z</time></trkpt><trkpt lat="40.3999767" lon="15.09066"><ele>173.0</ele><time>2026-03-28T08:34:55.016Z</time></trkpt><trkpt lat="40.3999783" lon="15.09082"><ele>173.0</ele><time>2026-03-28T08:34:56.017Z</time></trkpt><trkpt lat="40.399985" lon="15.0909833"><ele>173.0</ele><time>2026-03-28T08:34:57.016Z</time></trkpt><trkpt lat="40.4" lon="15.0911483"><ele>172.0</ele><time>2026-03-28T08:34:58.016Z</time></trkpt><trkpt lat="40.400025" lon="15.0913067"><ele>171.0</ele><time>2026-03-28T08:34:59.017Z</time></trkpt><trkpt lat="40.4000517" lon="15.0914583"><ele>170.0</ele><time>2026-03-28T08:35:00.016Z</time></trkpt><trkpt lat="40.400075" lon="15.0916067"><ele>169.0</ele><time>2026-03-28T08:35:01.017Z</time></trkpt><trkpt lat="40.40008" lon="15.0917633"><ele>167.79999999999998</ele><time>2026-03-28T08:35:02.016Z</time></trkpt><trkpt lat="40.400065" lon="15.091925"><ele>166.6</ele><time>2026-03-28T08:35:03.017Z</time></trkpt><trkpt lat="40.4000467" lon="15.09208"><ele>165.4</ele><time>2026-03-28T08:35:04.016Z</time></trkpt><trkpt lat="40.4000217" lon="15.0922167"><ele>164.2</ele><time>2026-03-28T08:35:05.016Z</time></trkpt><trkpt lat="40.4000017" lon="15.0923283"><ele>163.0</ele><time>2026-03-28T08:35:06.017Z</time></trkpt><trkpt lat="40.3999867" lon="15.092415"><ele>163.0</ele><time>2026-03-28T08:35:07.017Z</time></trkpt><trkpt lat="40.3999367" lon="15.0925133"><ele>163.0</ele><time>2026-03-28T08:35:09.016Z</time></trkpt><trkpt lat="40.3998467" lon="15.0925183"><ele>163.0</ele><time>2026-03-28T08:35:11.017Z</time></trkpt><trkpt lat="40.3997867" lon="15.0924833"><ele>163.0</ele><time>2026-03-28T08:35:12.016Z</time></trkpt><trkpt lat="40.3997267" lon="15.0924183"><ele>163.0</ele><time>2026-03-28T08:35:13.016Z</time></trkpt><trkpt lat="40.399665" lon="15.09236"><ele>163.0</ele><time>2026-03-28T08:35:14.016Z</time></trkpt><trkpt lat="40.3995533" lon="15.0923233"><ele>160.33333333333334</ele><time>2026-03-28T08:35:16.016Z</time></trkpt><trkpt lat="40.3994917" lon="15.09235"><ele>157.66666666666669</ele><time>2026-03-28T08:35:17.016Z</time></trkpt><trkpt lat="40.3994433" lon="15.09242"><ele>155.0</ele><time>2026-03-28T08:35:18.017Z</time></trkpt><trkpt lat="40.39941" lon="15.0925117"><ele>152.33333333333334</ele><time>2026-03-28T08:35:19.016Z</time></trkpt><trkpt lat="40.3994017" lon="15.0926283"><ele>149.66666666666666</ele><time>2026-03-28T08:35:20.016Z</time></trkpt><trkpt lat="40.3994167" lon="15.0927483"><ele>147.0</ele><time>2026-03-28T08:35:21.017Z</time></trkpt><trkpt lat="40.3994467" lon="15.09286"><ele>146.0</ele><time>2026-03-28T08:35:22.017Z</time></trkpt><trkpt lat="40.399485" lon="15.0929733"><ele>145.0</ele><time>2026-03-28T08:35:23.016Z</time></trkpt><trkpt lat="40.3995283" lon="15.0930833"><ele>144.0</ele><time>2026-03-28T08:35:24.016Z</time></trkpt><trkpt lat="40.399555" lon="15.0931867"><ele>143.0</ele><time>2026-03-28T08:35:25.016Z</time></trkpt><trkpt lat="40.3995583" lon="15.0933067"><ele>142.0</ele><time>2026-03-28T08:35:26.016Z</time></trkpt><trkpt lat="40.3995367" lon="15.0934433"><ele>140.2</ele><time>2026-03-28T08:35:27.017Z</time></trkpt><trkpt lat="40.3995017" lon="15.093595"><ele>138.39999999999998</ele><time>2026-03-28T08:35:28.016Z</time></trkpt><trkpt lat="40.3994583" lon="15.0937367"><ele>136.60000000000002</ele><time>2026-03-28T08:35:29.017Z</time></trkpt><trkpt lat="40.399425" lon="15.0938683"><ele>134.8</ele><time>2026-03-28T08:35:30.016Z</time></trkpt><trkpt lat="40.3994067" lon="15.093985"><ele>133.0</ele><time>2026-03-28T08:35:31.016Z</time></trkpt><trkpt lat="40.399395" lon="15.0940917"><ele>132.42857142857142</ele><time>2026-03-28T08:35:32.017Z</time></trkpt><trkpt lat="40.3993917" lon="15.0941817"><ele>131.85714285714286</ele><time>2026-03-28T08:35:33.016Z</time></trkpt><trkpt lat="40.39939" lon="15.0942683"><ele>131.28571428571428</ele><time>2026-03-28T08:35:34.016Z</time></trkpt><trkpt lat="40.3993983" lon="15.09436"><ele>130.71428571428572</ele><time>2026-03-28T08:35:35.016Z</time></trkpt><trkpt lat="40.3994117" lon="15.0944617"><ele>130.14285714285714</ele><time>2026-03-28T08:35:36.016Z</time></trkpt><trkpt lat="40.39942" lon="15.0945667"><ele>129.57142857142856</ele><time>2026-03-28T08:35:37.016Z</time></trkpt><trkpt lat="40.3994117" lon="15.0946583"><ele>129.0</ele><time>2026-03-28T08:35:38.017Z</time></trkpt><trkpt lat="40.399325" lon="15.0948033"><ele>129.0</ele><time>2026-03-28T08:35:40.016Z</time></trkpt><trkpt lat="40.399215" lon="15.0948967"><ele>129.0</ele><time>2026-03-28T08:35:41.016Z</time></trkpt><trkpt lat="40.3990883" lon="15.0950133"><ele>129.0</ele><time>2026-03-28T08:35:42.016Z</time></trkpt><trkpt lat="40.3989783" lon="15.095115"><ele>129.0</ele><time>2026-03-28T08:35:43.016Z</time></trkpt><trkpt lat="40.3988983" lon="15.0952"><ele>128.0</ele><time>2026-03-28T08:35:44.016Z</time></trkpt><trkpt lat="40.398835" lon="15.0952933"><ele>127.0</ele><time>2026-03-28T08:35:45.016Z</time></trkpt><trkpt lat="40.3987733" lon="15.0954033"><ele>126.0</ele><time>2026-03-28T08:35:46.017Z</time></trkpt><trkpt lat="40.39872" lon="15.0955367"><ele>125.0</ele><time>2026-03-28T08:35:47.016Z</time></trkpt><trkpt lat="40.3986717" lon="15.0956883"><ele>124.0</ele><time>2026-03-28T08:35:48.016Z</time></trkpt><trkpt lat="40.3986167" lon="15.09586"><ele>127.66666666666667</ele><time>2026-03-28T08:35:49.016Z</time></trkpt><trkpt lat="40.3985517" lon="15.0960483"><ele>131.33333333333334</ele><time>2026-03-28T08:35:50.016Z</time></trkpt><trkpt lat="40.3984767" lon="15.0962533"><ele>135.0</ele><time>2026-03-28T08:35:51.017Z</time></trkpt><trkpt lat="40.39842" lon="15.0964317"><ele>135.0</ele><time>2026-03-28T08:35:52.016Z</time></trkpt><trkpt lat="40.3983783" lon="15.0965817"><ele>135.0</ele><time>2026-03-28T08:35:53.016Z</time></trkpt><trkpt lat="40.3983467" lon="15.0967067"><ele>135.0</ele><time>2026-03-28T08:35:54.016Z</time></trkpt><trkpt lat="40.3983033" lon="15.096825"><ele>135.0</ele><time>2026-03-28T08:35:55.016Z</time></trkpt><trkpt lat="40.3982517" lon="15.0969383"><ele>135.0</ele><time>2026-03-28T08:35:56.016Z</time></trkpt><trkpt lat="40.3981867" lon="15.0970517"><ele>136.0</ele><time>2026-03-28T08:35:57.016Z</time></trkpt><trkpt lat="40.3981067" lon="15.097165"><ele>137.0</ele><time>2026-03-28T08:35:58.016Z</time></trkpt><trkpt lat="40.3980233" lon="15.0972817"><ele>138.0</ele><time>2026-03-28T08:35:59.017Z</time></trkpt><trkpt lat="40.397935" lon="15.0974167"><ele>139.0</ele><time>2026-03-28T08:36:00.016Z</time></trkpt><trkpt lat="40.3978467" lon="15.097565"><ele>142.5</ele><time>2026-03-28T08:36:01.017Z</time></trkpt><trkpt lat="40.397765" lon="15.09771"><ele>146.0</ele><time>2026-03-28T08:36:02.017Z</time></trkpt><trkpt lat="40.3976933" lon="15.0978483"><ele>149.5</ele><time>2026-03-28T08:36:03.017Z</time></trkpt><trkpt lat="40.3976233" lon="15.0979833"><ele>153.0</ele><time>2026-03-28T08:36:04.016Z</time></trkpt><trkpt lat="40.3975717" lon="15.098115"><ele>156.25</ele><time>2026-03-28T08:36:05.017Z</time></trkpt><trkpt lat="40.3975283" lon="15.0982583"><ele>159.5</ele><time>2026-03-28T08:36:06.017Z</time></trkpt><trkpt lat="40.3974967" lon="15.09841"><ele>162.75</ele><time>2026-03-28T08:36:07.016Z</time></trkpt><trkpt lat="40.3974683" lon="15.0985783"><ele>166.0</ele><time>2026-03-28T08:36:08.017Z</time></trkpt><trkpt lat="40.3974367" lon="15.0987517"><ele>166.0</ele><time>2026-03-28T08:36:09.016Z</time></trkpt><trkpt lat="40.3973983" lon="15.0989033"><ele>166.0</ele><time>2026-03-28T08:36:10.017Z</time></trkpt><trkpt lat="40.3973517" lon="15.099025"><ele>166.0</ele><time>2026-03-28T08:36:11.016Z</time></trkpt><trkpt lat="40.3972867" lon="15.0991367"><ele>166.0</ele><time>2026-03-28T08:36:12.016Z</time></trkpt><trkpt lat="40.397205" lon="15.0992683"><ele>167.0</ele><time>2026-03-28T08:36:13.016Z</time></trkpt><trkpt lat="40.3971017" lon="15.0994183"><ele>168.0</ele><time>2026-03-28T08:36:14.016Z</time></trkpt><trkpt lat="40.3969933" lon="15.0995783"><ele>169.0</ele><time>2026-03-28T08:36:15.016Z</time></trkpt><trkpt lat="40.3968817" lon="15.0997417"><ele>169.0</ele><time>2026-03-28T08:36:16.016Z</time></trkpt><trkpt lat="40.39677" lon="15.0999067"><ele>169.0</ele><time>2026-03-28T08:36:17.016Z</time></trkpt><trkpt lat="40.39667" lon="15.1000633"><ele>169.0</ele><time>2026-03-28T08:36:18.016Z</time></trkpt><trkpt lat="40.3965667" lon="15.1002133"><ele>169.25</ele><time>2026-03-28T08:36:19.016Z</time></trkpt><trkpt lat="40.3964733" lon="15.100365"><ele>169.5</ele><time>2026-03-28T08:36:20.016Z</time></trkpt><trkpt lat="40.396395" lon="15.10053"><ele>169.75</ele><time>2026-03-28T08:36:21.017Z</time></trkpt><trkpt lat="40.3963217" lon="15.1007017"><ele>170.0</ele><time>2026-03-28T08:36:22.016Z</time></trkpt><trkpt lat="40.3962433" lon="15.1008883"><ele>173.25</ele><time>2026-03-28T08:36:23.017Z</time></trkpt><trkpt lat="40.3961733" lon="15.1010633"><ele>176.5</ele><time>2026-03-28T08:36:24.017Z</time></trkpt><trkpt lat="40.3961217" lon="15.1012267"><ele>179.75</ele><time>2026-03-28T08:36:25.017Z</time></trkpt><trkpt lat="40.39608" lon="15.101365"><ele>183.0</ele><time>2026-03-28T08:36:26.018Z</time></trkpt><trkpt lat="40.396045" lon="15.1014833"><ele>183.0</ele><time>2026-03-28T08:36:27.018Z</time></trkpt><trkpt lat="40.3960217" lon="15.101565"><ele>183.0</ele><time>2026-03-28T08:36:28.017Z</time></trkpt><trkpt lat="40.3959967" lon="15.10165"><ele>183.0</ele><time>2026-03-28T08:36:30.018Z</time></trkpt><trkpt lat="40.3960733" lon="15.1016783"><ele>183.0</ele><time>2026-03-28T08:36:33.017Z</time></trkpt><trkpt lat="40.3961817" lon="15.101575"><ele>183.0</ele><time>2026-03-28T08:36:35.017Z</time></trkpt><trkpt lat="40.3962483" lon="15.101475"><ele>183.0</ele><time>2026-03-28T08:36:36.017Z</time></trkpt><trkpt lat="40.396335" lon="15.1013533"><ele>183.0</ele><time>2026-03-28T08:36:37.017Z</time></trkpt><trkpt lat="40.396435" lon="15.1012383"><ele>183.0</ele><time>2026-03-28T08:36:38.017Z</time></trkpt><trkpt lat="40.3965533" lon="15.1011233"><ele>183.0</ele><time>2026-03-28T08:36:39.018Z</time></trkpt><trkpt lat="40.3966517" lon="15.1009967"><ele>183.4</ele><time>2026-03-28T08:36:40.018Z</time></trkpt><trkpt lat="40.3967317" lon="15.100875"><ele>183.8</ele><time>2026-03-28T08:36:41.017Z</time></trkpt><trkpt lat="40.3968017" lon="15.1007633"><ele>184.2</ele><time>2026-03-28T08:36:42.018Z</time></trkpt><trkpt lat="40.3968833" lon="15.1006867"><ele>184.6</ele><time>2026-03-28T08:36:43.017Z</time></trkpt><trkpt lat="40.3969667" lon="15.1006483"><ele>185.0</ele><time>2026-03-28T08:36:44.017Z</time></trkpt><trkpt lat="40.397055" lon="15.1006567"><ele>185.0</ele><time>2026-03-28T08:36:45.017Z</time></trkpt><trkpt lat="40.3971533" lon="15.1006917"><ele>185.0</ele><time>2026-03-28T08:36:46.018Z</time></trkpt><trkpt lat="40.3972717" lon="15.10072"><ele>185.0</ele><time>2026-03-28T08:36:47.018Z</time></trkpt><trkpt lat="40.3974033" lon="15.100735"><ele>185.0</ele><time>2026-03-28T08:36:48.017Z</time></trkpt><trkpt lat="40.397525" lon="15.1007233"><ele>187.5</ele><time>2026-03-28T08:36:49.018Z</time></trkpt><trkpt lat="40.397635" lon="15.1006933"><ele>190.0</ele><time>2026-03-28T08:36:50.017Z</time></trkpt><trkpt lat="40.3977217" lon="15.10064"><ele>192.5</ele><time>2026-03-28T08:36:51.017Z</time></trkpt><trkpt lat="40.3977883" lon="15.1005933"><ele>195.0</ele><time>2026-03-28T08:36:52.018Z</time></trkpt><trkpt lat="40.3978517" lon="15.10058"><ele>197.50000000000003</ele><time>2026-03-28T08:36:53.017Z</time></trkpt><trkpt lat="40.3978867" lon="15.1006567"><ele>200.0</ele><time>2026-03-28T08:36:55.018Z</time></trkpt><trkpt lat="40.397795" lon="15.1007567"><ele>205.25</ele><time>2026-03-28T08:36:57.018Z</time></trkpt><trkpt lat="40.3977067" lon="15.100815"><ele>210.5</ele><time>2026-03-28T08:36:58.018Z</time></trkpt><trkpt lat="40.3975883" lon="15.10089"><ele>215.75</ele><time>2026-03-28T08:36:59.017Z</time></trkpt><trkpt lat="40.3974567" lon="15.1009867"><ele>221.0</ele><time>2026-03-28T08:37:00.017Z</time></trkpt><trkpt lat="40.397335" lon="15.1010933"><ele>221.0</ele><time>2026-03-28T08:37:01.017Z</time></trkpt><trkpt lat="40.3972183" lon="15.1012017"><ele>221.0</ele><time>2026-03-28T08:37:02.018Z</time></trkpt><trkpt lat="40.3971067" lon="15.1013367"><ele>221.0</ele><time>2026-03-28T08:37:03.017Z</time></trkpt><trkpt lat="40.3970067" lon="15.1014933"><ele>221.0</ele><time>2026-03-28T08:37:04.018Z</time></trkpt><trkpt lat="40.3969133" lon="15.1016683"><ele>221.0</ele><time>2026-03-28T08:37:05.017Z</time></trkpt><trkpt lat="40.396825" lon="15.1018633"><ele>221.0</ele><time>2026-03-28T08:37:06.018Z</time></trkpt><trkpt lat="40.3967417" lon="15.1020667"><ele>221.0</ele><time>2026-03-28T08:37:07.018Z</time></trkpt><trkpt lat="40.3966617" lon="15.1022767"><ele>221.0</ele><time>2026-03-28T08:37:08.018Z</time></trkpt><trkpt lat="40.3965767" lon="15.1024817"><ele>221.0</ele><time>2026-03-28T08:37:09.018Z</time></trkpt><trkpt lat="40.3964967" lon="15.1026783"><ele>217.33333333333334</ele><time>2026-03-28T08:37:10.018Z</time></trkpt><trkpt lat="40.3964167" lon="15.102865"><ele>213.66666666666669</ele><time>2026-03-28T08:37:11.017Z</time></trkpt><trkpt lat="40.396335" lon="15.1030467"><ele>210.0</ele><time>2026-03-28T08:37:12.018Z</time></trkpt><trkpt lat="40.3962583" lon="15.1032283"><ele>213.25</ele><time>2026-03-28T08:37:13.018Z</time></trkpt><trkpt lat="40.3961867" lon="15.1034117"><ele>216.5</ele><time>2026-03-28T08:37:14.018Z</time></trkpt><trkpt lat="40.39612" lon="15.103585"><ele>219.75</ele><time>2026-03-28T08:37:15.018Z</time></trkpt><trkpt lat="40.3960567" lon="15.10375"><ele>223.0</ele><time>2026-03-28T08:37:16.017Z</time></trkpt><trkpt lat="40.39599" lon="15.10391"><ele>223.0</ele><time>2026-03-28T08:37:17.018Z</time></trkpt><trkpt lat="40.39593" lon="15.104065"><ele>223.0</ele><time>2026-03-28T08:37:18.018Z</time></trkpt><trkpt lat="40.3958783" lon="15.1042067"><ele>223.0</ele><time>2026-03-28T08:37:19.018Z</time></trkpt><trkpt lat="40.3958267" lon="15.1043367"><ele>223.0</ele><time>2026-03-28T08:37:20.017Z</time></trkpt><trkpt lat="40.3957867" lon="15.1044633"><ele>225.8</ele><time>2026-03-28T08:37:21.018Z</time></trkpt><trkpt lat="40.3957583" lon="15.1045783"><ele>228.60000000000002</ele><time>2026-03-28T08:37:22.018Z</time></trkpt><trkpt lat="40.3957367" lon="15.1047067"><ele>231.39999999999998</ele><time>2026-03-28T08:37:23.018Z</time></trkpt><trkpt lat="40.3957017" lon="15.10482"><ele>234.2</ele><time>2026-03-28T08:37:24.017Z</time></trkpt><trkpt lat="40.3956467" lon="15.104915"><ele>237.0</ele><time>2026-03-28T08:37:25.018Z</time></trkpt><trkpt lat="40.39559" lon="15.1050033"><ele>235.5</ele><time>2026-03-28T08:37:26.018Z</time></trkpt><trkpt lat="40.3955433" lon="15.1051017"><ele>234.0</ele><time>2026-03-28T08:37:27.018Z</time></trkpt><trkpt lat="40.3954817" lon="15.1051983"><ele>232.5</ele><time>2026-03-28T08:37:28.017Z</time></trkpt><trkpt lat="40.3954283" lon="15.105295"><ele>231.0</ele><time>2026-03-28T08:37:29.018Z</time></trkpt><trkpt lat="40.39536" lon="15.1053483"><ele>229.5</ele><time>2026-03-28T08:37:30.017Z</time></trkpt><trkpt lat="40.3952883" lon="15.1053833"><ele>228.0</ele><time>2026-03-28T08:37:31.017Z</time></trkpt><trkpt lat="40.395215" lon="15.1053967"><ele>228.0</ele><time>2026-03-28T08:37:32.017Z</time></trkpt><trkpt lat="40.39514" lon="15.105395"><ele>228.0</ele><time>2026-03-28T08:37:33.017Z</time></trkpt><trkpt lat="40.3950567" lon="15.1053883"><ele>228.0</ele><time>2026-03-28T08:37:34.018Z</time></trkpt><trkpt lat="40.3949683" lon="15.105425"><ele>228.0</ele><time>2026-03-28T08:37:35.018Z</time></trkpt><trkpt lat="40.3948933" lon="15.1054917"><ele>228.0</ele><time>2026-03-28T08:37:36.018Z</time></trkpt><trkpt lat="40.3948333" lon="15.1055917"><ele>228.0</ele><time>2026-03-28T08:37:37.018Z</time></trkpt><trkpt lat="40.3947867" lon="15.10572"><ele>232.0</ele><time>2026-03-28T08:37:38.018Z</time></trkpt><trkpt lat="40.3947467" lon="15.10586"><ele>236.0</ele><time>2026-03-28T08:37:39.018Z</time></trkpt><trkpt lat="40.3946983" lon="15.10601"><ele>240.0</ele><time>2026-03-28T08:37:40.018Z</time></trkpt><trkpt lat="40.394655" lon="15.1061767"><ele>244.0</ele><time>2026-03-28T08:37:41.017Z</time></trkpt><trkpt lat="40.3945983" lon="15.1063483"><ele>236.0</ele><time>2026-03-28T08:37:42.017Z</time></trkpt><trkpt lat="40.3945433" lon="15.1065283"><ele>228.0</ele><time>2026-03-28T08:37:43.017Z</time></trkpt><trkpt lat="40.3944867" lon="15.1067133"><ele>220.0</ele><time>2026-03-28T08:37:44.017Z</time></trkpt><trkpt lat="40.3944267" lon="15.1069"><ele>220.0</ele><time>2026-03-28T08:37:45.017Z</time></trkpt><trkpt lat="40.39436" lon="15.1070817"><ele>220.0</ele><time>2026-03-28T08:37:46.017Z</time></trkpt><trkpt lat="40.3943083" lon="15.1072617"><ele>220.0</ele><time>2026-03-28T08:37:47.017Z</time></trkpt><trkpt lat="40.3942583" lon="15.1074467"><ele>223.0</ele><time>2026-03-28T08:37:48.017Z</time></trkpt><trkpt lat="40.3941917" lon="15.10762"><ele>226.0</ele><time>2026-03-28T08:37:49.018Z</time></trkpt><trkpt lat="40.3941083" lon="15.1077817"><ele>229.0</ele><time>2026-03-28T08:37:50.017Z</time></trkpt><trkpt lat="40.3940167" lon="15.1079417"><ele>232.0</ele><time>2026-03-28T08:37:51.017Z</time></trkpt><trkpt lat="40.3939233" lon="15.1081017"><ele>229.75</ele><time>2026-03-28T08:37:52.018Z</time></trkpt><trkpt lat="40.3938333" lon="15.1082567"><ele>227.5</ele><time>2026-03-28T08:37:53.017Z</time></trkpt><trkpt lat="40.39375" lon="15.1084"><ele>225.25</ele><time>2026-03-28T08:37:54.017Z</time></trkpt><trkpt lat="40.3936767" lon="15.1085567"><ele>223.0</ele><time>2026-03-28T08:37:55.018Z</time></trkpt><trkpt lat="40.3936183" lon="15.1087217"><ele>223.0</ele><time>2026-03-28T08:37:56.017Z</time></trkpt><trkpt lat="40.39358" lon="15.1088967"><ele>223.0</ele><time>2026-03-28T08:37:57.017Z</time></trkpt><trkpt lat="40.3935617" lon="15.1090667"><ele>223.0</ele><time>2026-03-28T08:37:58.017Z</time></trkpt><trkpt lat="40.3935583" lon="15.109225"><ele>223.0</ele><time>2026-03-28T08:37:59.017Z</time></trkpt><trkpt lat="40.39358" lon="15.1093667"><ele>225.8</ele><time>2026-03-28T08:38:00.018Z</time></trkpt><trkpt lat="40.3936233" lon="15.10949"><ele>228.60000000000002</ele><time>2026-03-28T08:38:01.018Z</time></trkpt><trkpt lat="40.3936867" lon="15.1095983"><ele>231.39999999999998</ele><time>2026-03-28T08:38:02.018Z</time></trkpt><trkpt lat="40.393745" lon="15.1097033"><ele>234.2</ele><time>2026-03-28T08:38:03.017Z</time></trkpt><trkpt lat="40.3937933" lon="15.1098017"><ele>237.0</ele><time>2026-03-28T08:38:04.017Z</time></trkpt><trkpt lat="40.3938217" lon="15.1099017"><ele>238.16666666666666</ele><time>2026-03-28T08:38:05.018Z</time></trkpt><trkpt lat="40.39384" lon="15.1099917"><ele>239.33333333333331</ele><time>2026-03-28T08:38:06.018Z</time></trkpt><trkpt lat="40.3938417" lon="15.11009"><ele>240.5</ele><time>2026-03-28T08:38:07.017Z</time></trkpt><trkpt lat="40.3938317" lon="15.11019"><ele>241.66666666666666</ele><time>2026-03-28T08:38:08.018Z</time></trkpt><trkpt lat="40.3938083" lon="15.110295"><ele>242.83333333333331</ele><time>2026-03-28T08:38:09.017Z</time></trkpt><trkpt lat="40.3937733" lon="15.1104083"><ele>244.0</ele><time>2026-03-28T08:38:10.017Z</time></trkpt><trkpt lat="40.39372" lon="15.110535"><ele>244.0</ele><time>2026-03-28T08:38:11.017Z</time></trkpt><trkpt lat="40.3936567" lon="15.11068"><ele>244.0</ele><time>2026-03-28T08:38:12.018Z</time></trkpt><trkpt lat="40.3935917" lon="15.1108467"><ele>244.0</ele><time>2026-03-28T08:38:13.017Z</time></trkpt><trkpt lat="40.3935233" lon="15.1110017"><ele>244.0</ele><time>2026-03-28T08:38:14.018Z</time></trkpt><trkpt lat="40.3934633" lon="15.1111567"><ele>246.25</ele><time>2026-03-28T08:38:15.017Z</time></trkpt><trkpt lat="40.393425" lon="15.1113217"><ele>248.5</ele><time>2026-03-28T08:38:16.017Z</time></trkpt><trkpt lat="40.3933933" lon="15.1115033"><ele>250.75</ele><time>2026-03-28T08:38:17.017Z</time></trkpt><trkpt lat="40.3933617" lon="15.1116833"><ele>253.0</ele><time>2026-03-28T08:38:18.017Z</time></trkpt><trkpt lat="40.3933167" lon="15.1118483"><ele>256.25</ele><time>2026-03-28T08:38:19.018Z</time></trkpt><trkpt lat="40.3932567" lon="15.11199"><ele>259.5</ele><time>2026-03-28T08:38:20.017Z</time></trkpt><trkpt lat="40.3932017" lon="15.1121367"><ele>262.75</ele><time>2026-03-28T08:38:21.018Z</time></trkpt><trkpt lat="40.393165" lon="15.112305"><ele>266.0</ele><time>2026-03-28T08:38:22.018Z</time></trkpt><trkpt lat="40.39313" lon="15.1124933"><ele>268.6666666666667</ele><time>2026-03-28T08:38:23.017Z</time></trkpt><trkpt lat="40.3931017" lon="15.1127067"><ele>271.3333333333333</ele><time>2026-03-28T08:38:24.018Z</time></trkpt><trkpt lat="40.393075" lon="15.1129383"><ele>274.0</ele><time>2026-03-28T08:38:25.018Z</time></trkpt><trkpt lat="40.3930483" lon="15.11317"><ele>278.0</ele><time>2026-03-28T08:38:26.018Z</time></trkpt><trkpt lat="40.3930217" lon="15.1133917"><ele>282.0</ele><time>2026-03-28T08:38:27.017Z</time></trkpt><trkpt lat="40.392995" lon="15.1136083"><ele>286.0</ele><time>2026-03-28T08:38:28.017Z</time></trkpt><trkpt lat="40.3929867" lon="15.1138267"><ele>279.75</ele><time>2026-03-28T08:38:29.017Z</time></trkpt><trkpt lat="40.3929833" lon="15.1140433"><ele>273.5</ele><time>2026-03-28T08:38:30.017Z</time></trkpt><trkpt lat="40.3929817" lon="15.1142367"><ele>267.25</ele><time>2026-03-28T08:38:31.018Z</time></trkpt><trkpt lat="40.3929733" lon="15.114415"><ele>261.0</ele><time>2026-03-28T08:38:32.017Z</time></trkpt><trkpt lat="40.3929517" lon="15.1145883"><ele>261.0</ele><time>2026-03-28T08:38:33.018Z</time></trkpt><trkpt lat="40.3929017" lon="15.1147667"><ele>261.0</ele><time>2026-03-28T08:38:34.018Z</time></trkpt><trkpt lat="40.3928367" lon="15.1149483"><ele>261.0</ele><time>2026-03-28T08:38:35.017Z</time></trkpt><trkpt lat="40.3927667" lon="15.1151533"><ele>266.6666666666667</ele><time>2026-03-28T08:38:36.017Z</time></trkpt><trkpt lat="40.3926933" lon="15.115355"><ele>272.33333333333337</ele><time>2026-03-28T08:38:37.017Z</time></trkpt><trkpt lat="40.3926233" lon="15.1155817"><ele>278.0</ele><time>2026-03-28T08:38:38.017Z</time></trkpt><trkpt lat="40.3925483" lon="15.1158217"><ele>281.6666666666667</ele><time>2026-03-28T08:38:39.018Z</time></trkpt><trkpt lat="40.3924833" lon="15.1160667"><ele>285.3333333333333</ele><time>2026-03-28T08:38:40.017Z</time></trkpt><trkpt lat="40.392415" lon="15.1163117"><ele>289.0</ele><time>2026-03-28T08:38:41.018Z</time></trkpt><trkpt lat="40.3923533" lon="15.1165567"><ele>293.66666666666663</ele><time>2026-03-28T08:38:42.017Z</time></trkpt><trkpt lat="40.3922933" lon="15.1167983"><ele>298.3333333333333</ele><time>2026-03-28T08:38:43.017Z</time></trkpt><trkpt lat="40.39223" lon="15.1170333"><ele>303.0</ele><time>2026-03-28T08:38:44.018Z</time></trkpt><trkpt lat="40.3921717" lon="15.1172667"><ele>296.0</ele><time>2026-03-28T08:38:45.017Z</time></trkpt><trkpt lat="40.3921117" lon="15.1175017"><ele>289.0</ele><time>2026-03-28T08:38:46.018Z</time></trkpt><trkpt lat="40.3920533" lon="15.11773"><ele>282.0</ele><time>2026-03-28T08:38:47.017Z</time></trkpt><trkpt lat="40.3919983" lon="15.11796"><ele>282.0</ele><time>2026-03-28T08:38:48.017Z</time></trkpt><trkpt lat="40.3919483" lon="15.1181867"><ele>282.0</ele><time>2026-03-28T08:38:49.017Z</time></trkpt><trkpt lat="40.391905" lon="15.1184183"><ele>282.0</ele><time>2026-03-28T08:38:50.018Z</time></trkpt><trkpt lat="40.3918767" lon="15.1186433"><ele>286.0</ele><time>2026-03-28T08:38:51.017Z</time></trkpt><trkpt lat="40.39185" lon="15.1188567"><ele>290.0</ele><time>2026-03-28T08:38:52.018Z</time></trkpt><trkpt lat="40.391815" lon="15.1190567"><ele>294.0</ele><time>2026-03-28T08:38:53.017Z</time></trkpt><trkpt lat="40.3917667" lon="15.1192483"><ele>300.3333333333333</ele><time>2026-03-28T08:38:54.017Z</time></trkpt><trkpt lat="40.3917017" lon="15.1194283"><ele>306.66666666666663</ele><time>2026-03-28T08:38:55.017Z</time></trkpt><trkpt lat="40.3916167" lon="15.1196033"><ele>313.0</ele><time>2026-03-28T08:38:56.017Z</time></trkpt><trkpt lat="40.391515" lon="15.119795"><ele>318.66666666666663</ele><time>2026-03-28T08:38:57.017Z</time></trkpt><trkpt lat="40.39142" lon="15.1199967"><ele>324.3333333333333</ele><time>2026-03-28T08:38:58.018Z</time></trkpt><trkpt lat="40.391325" lon="15.1202117"><ele>330.0</ele><time>2026-03-28T08:38:59.017Z</time></trkpt><trkpt lat="40.39124" lon="15.1204317"><ele>319.3333333333333</ele><time>2026-03-28T08:39:00.017Z</time></trkpt><trkpt lat="40.391165" lon="15.1206467"><ele>308.66666666666663</ele><time>2026-03-28T08:39:01.017Z</time></trkpt><trkpt lat="40.3911" lon="15.120845"><ele>298.0</ele><time>2026-03-28T08:39:02.018Z</time></trkpt><trkpt lat="40.391045" lon="15.1210383"><ele>298.0</ele><time>2026-03-28T08:39:03.017Z</time></trkpt><trkpt lat="40.39101" lon="15.1212317"><ele>298.0</ele><time>2026-03-28T08:39:04.018Z</time></trkpt><trkpt lat="40.3909933" lon="15.1214317"><ele>298.0</ele><time>2026-03-28T08:39:05.017Z</time></trkpt><trkpt lat="40.3909933" lon="15.1216217"><ele>298.0</ele><time>2026-03-28T08:39:06.017Z</time></trkpt><trkpt lat="40.3910117" lon="15.12179"><ele>300.8</ele><time>2026-03-28T08:39:07.017Z</time></trkpt><trkpt lat="40.391045" lon="15.1219333"><ele>303.6</ele><time>2026-03-28T08:39:08.017Z</time></trkpt><trkpt lat="40.3911017" lon="15.1220567"><ele>306.4</ele><time>2026-03-28T08:39:09.018Z</time></trkpt><trkpt lat="40.3911667" lon="15.1221667"><ele>309.2</ele><time>2026-03-28T08:39:10.018Z</time></trkpt><trkpt lat="40.3912117" lon="15.12226"><ele>312.0</ele><time>2026-03-28T08:39:11.018Z</time></trkpt><trkpt lat="40.3912367" lon="15.12236"><ele>315.4</ele><time>2026-03-28T08:39:12.018Z</time></trkpt><trkpt lat="40.3912383" lon="15.1224683"><ele>318.79999999999995</ele><time>2026-03-28T08:39:13.017Z</time></trkpt><trkpt lat="40.3912067" lon="15.12256"><ele>322.2</ele><time>2026-03-28T08:39:14.017Z</time></trkpt><trkpt lat="40.3911317" lon="15.12262"><ele>325.59999999999997</ele><time>2026-03-28T08:39:15.018Z</time></trkpt><trkpt lat="40.391035" lon="15.122665"><ele>329.0</ele><time>2026-03-28T08:39:16.017Z</time></trkpt><trkpt lat="40.3909217" lon="15.1227367"><ele>329.0</ele><time>2026-03-28T08:39:17.017Z</time></trkpt><trkpt lat="40.3908017" lon="15.1228383"><ele>329.0</ele><time>2026-03-28T08:39:18.017Z</time></trkpt><trkpt lat="40.3906933" lon="15.1229467"><ele>329.0</ele><time>2026-03-28T08:39:19.018Z</time></trkpt><trkpt lat="40.390585" lon="15.1230417"><ele>329.0</ele><time>2026-03-28T08:39:20.017Z</time></trkpt><trkpt lat="40.3904617" lon="15.1231033"><ele>335.0</ele><time>2026-03-28T08:39:21.017Z</time></trkpt><trkpt lat="40.3903167" lon="15.12316"><ele>341.0</ele><time>2026-03-28T08:39:22.018Z</time></trkpt><trkpt lat="40.3901667" lon="15.1232233"><ele>347.0</ele><time>2026-03-28T08:39:23.017Z</time></trkpt><trkpt lat="40.3900217" lon="15.123285"><ele>347.0</ele><time>2026-03-28T08:39:24.017Z</time></trkpt><trkpt lat="40.38989" lon="15.1233483"><ele>347.0</ele><time>2026-03-28T08:39:25.018Z</time></trkpt><trkpt lat="40.38977" lon="15.1234183"><ele>347.0</ele><time>2026-03-28T08:39:26.018Z</time></trkpt><trkpt lat="40.38966" lon="15.1234833"><ele>347.0</ele><time>2026-03-28T08:39:27.017Z</time></trkpt><trkpt lat="40.38956" lon="15.1236"><ele>349.25</ele><time>2026-03-28T08:39:28.018Z</time></trkpt><trkpt lat="40.3894733" lon="15.123735"><ele>351.5</ele><time>2026-03-28T08:39:29.017Z</time></trkpt><trkpt lat="40.3893933" lon="15.12389"><ele>353.75</ele><time>2026-03-28T08:39:30.017Z</time></trkpt><trkpt lat="40.3893283" lon="15.1240567"><ele>356.0</ele><time>2026-03-28T08:39:31.017Z</time></trkpt><trkpt lat="40.3892783" lon="15.124205"><ele>356.0</ele><time>2026-03-28T08:39:32.017Z</time></trkpt><trkpt lat="40.389235" lon="15.1243417"><ele>356.0</ele><time>2026-03-28T08:39:33.017Z</time></trkpt><trkpt lat="40.3891967" lon="15.12445"><ele>356.0</ele><time>2026-03-28T08:39:34.017Z</time></trkpt><trkpt lat="40.389145" lon="15.1245283"><ele>356.0</ele><time>2026-03-28T08:39:35.018Z</time></trkpt><trkpt lat="40.3890333" lon="15.124565"><ele>356.0</ele><time>2026-03-28T08:39:37.017Z</time></trkpt><trkpt lat="40.3889267" lon="15.124485"><ele>356.0</ele><time>2026-03-28T08:39:39.017Z</time></trkpt><trkpt lat="40.38887" lon="15.124405"><ele>356.0</ele><time>2026-03-28T08:39:40.017Z</time></trkpt><trkpt lat="40.3887967" lon="15.1242933"><ele>356.0</ele><time>2026-03-28T08:39:41.018Z</time></trkpt><trkpt lat="40.38871" lon="15.1241717"><ele>356.0</ele><time>2026-03-28T08:39:42.018Z</time></trkpt><trkpt lat="40.3886183" lon="15.1240467"><ele>357.8</ele><time>2026-03-28T08:39:43.018Z</time></trkpt><trkpt lat="40.38853" lon="15.123905"><ele>359.6</ele><time>2026-03-28T08:39:44.017Z</time></trkpt><trkpt lat="40.3884683" lon="15.1237733"><ele>361.4</ele><time>2026-03-28T08:39:45.017Z</time></trkpt><trkpt lat="40.3884217" lon="15.1236583"><ele>363.2</ele><time>2026-03-28T08:39:46.017Z</time></trkpt><trkpt lat="40.3883817" lon="15.123565"><ele>365.0</ele><time>2026-03-28T08:39:47.018Z</time></trkpt><trkpt lat="40.3883283" lon="15.1235083"><ele>365.00000000000006</ele><time>2026-03-28T08:39:48.017Z</time></trkpt><trkpt lat="40.388265" lon="15.1234917"><ele>365.0</ele><time>2026-03-28T08:39:49.017Z</time></trkpt><trkpt lat="40.3882067" lon="15.1235267"><ele>365.0</ele><time>2026-03-28T08:39:50.017Z</time></trkpt><trkpt lat="40.3881683" lon="15.123595"><ele>365.0</ele><time>2026-03-28T08:39:51.018Z</time></trkpt><trkpt lat="40.3881667" lon="15.1236883"><ele>365.0</ele><time>2026-03-28T08:39:52.018Z</time></trkpt><trkpt lat="40.38819" lon="15.1237817"><ele>365.00000000000006</ele><time>2026-03-28T08:39:53.018Z</time></trkpt><trkpt lat="40.38824" lon="15.1238867"><ele>365.0</ele><time>2026-03-28T08:39:54.018Z</time></trkpt><trkpt lat="40.3883117" lon="15.1240033"><ele>366.75</ele><time>2026-03-28T08:39:55.018Z</time></trkpt><trkpt lat="40.3883867" lon="15.1241267"><ele>368.5</ele><time>2026-03-28T08:39:56.018Z</time></trkpt><trkpt lat="40.388445" lon="15.12426"><ele>370.25</ele><time>2026-03-28T08:39:57.017Z</time></trkpt><trkpt lat="40.3884917" lon="15.1244167"><ele>372.0</ele><time>2026-03-28T08:39:58.017Z</time></trkpt><trkpt lat="40.3885283" lon="15.1245883"><ele>372.0</ele><time>2026-03-28T08:39:59.017Z</time></trkpt><trkpt lat="40.38856" lon="15.1247517"><ele>372.0</ele><time>2026-03-28T08:40:00.018Z</time></trkpt><trkpt lat="40.3885983" lon="15.1248917"><ele>372.0</ele><time>2026-03-28T08:40:01.018Z</time></trkpt><trkpt lat="40.3886517" lon="15.125005"><ele>372.0</ele><time>2026-03-28T08:40:02.018Z</time></trkpt><trkpt lat="40.3887217" lon="15.1250883"><ele>372.0</ele><time>2026-03-28T08:40:03.017Z</time></trkpt><trkpt lat="40.3888117" lon="15.1251417"><ele>373.75</ele><time>2026-03-28T08:40:04.017Z</time></trkpt><trkpt lat="40.3889083" lon="15.1251817"><ele>375.5</ele><time>2026-03-28T08:40:05.018Z</time></trkpt><trkpt lat="40.3890233" lon="15.1252067"><ele>377.25</ele><time>2026-03-28T08:40:06.017Z</time></trkpt><trkpt lat="40.3891467" lon="15.1252133"><ele>379.0</ele><time>2026-03-28T08:40:07.017Z</time></trkpt><trkpt lat="40.3892617" lon="15.1251983"><ele>379.0</ele><time>2026-03-28T08:40:08.018Z</time></trkpt><trkpt lat="40.3893667" lon="15.1251533"><ele>379.0</ele><time>2026-03-28T08:40:09.018Z</time></trkpt><trkpt lat="40.38946" lon="15.1250767"><ele>379.0</ele><time>2026-03-28T08:40:10.018Z</time></trkpt><trkpt lat="40.3895417" lon="15.124965"><ele>379.0</ele><time>2026-03-28T08:40:11.017Z</time></trkpt><trkpt lat="40.3896117" lon="15.1248267"><ele>379.2</ele><time>2026-03-28T08:40:12.018Z</time></trkpt><trkpt lat="40.38968" lon="15.1246867"><ele>379.4</ele><time>2026-03-28T08:40:13.017Z</time></trkpt><trkpt lat="40.389755" lon="15.1245583"><ele>379.6</ele><time>2026-03-28T08:40:14.018Z</time></trkpt><trkpt lat="40.3898267" lon="15.1244567"><ele>379.8</ele><time>2026-03-28T08:40:15.017Z</time></trkpt><trkpt lat="40.3898967" lon="15.1243883"><ele>380.0</ele><time>2026-03-28T08:40:16.017Z</time></trkpt><trkpt lat="40.38996" lon="15.1243583"><ele>380.0</ele><time>2026-03-28T08:40:17.017Z</time></trkpt><trkpt lat="40.3900283" lon="15.1243767"><ele>380.0</ele><time>2026-03-28T08:40:18.018Z</time></trkpt><trkpt lat="40.390065" lon="15.1245267"><ele>380.0</ele><time>2026-03-28T08:40:20.018Z</time></trkpt><trkpt lat="40.3900483" lon="15.1246167"><ele>380.0</ele><time>2026-03-28T08:40:21.017Z</time></trkpt><trkpt lat="40.39001" lon="15.1247083"><ele>380.0</ele><time>2026-03-28T08:40:22.018Z</time></trkpt><trkpt lat="40.3899533" lon="15.1248067"><ele>380.0</ele><time>2026-03-28T08:40:23.018Z</time></trkpt><trkpt lat="40.3898917" lon="15.1249267"><ele>385.0</ele><time>2026-03-28T08:40:24.017Z</time></trkpt><trkpt lat="40.3898383" lon="15.125065"><ele>390.0</ele><time>2026-03-28T08:40:25.017Z</time></trkpt><trkpt lat="40.3897967" lon="15.125225"><ele>395.0</ele><time>2026-03-28T08:40:26.017Z</time></trkpt><trkpt lat="40.3897633" lon="15.1253983"><ele>400.0</ele><time>2026-03-28T08:40:27.018Z</time></trkpt><trkpt lat="40.389725" lon="15.1255733"><ele>399.75</ele><time>2026-03-28T08:40:28.018Z</time></trkpt><trkpt lat="40.389675" lon="15.125735"><ele>399.5</ele><time>2026-03-28T08:40:29.018Z</time></trkpt><trkpt lat="40.3896033" lon="15.1258817"><ele>399.25</ele><time>2026-03-28T08:40:30.017Z</time></trkpt><trkpt lat="40.3895167" lon="15.1260067"><ele>399.0</ele><time>2026-03-28T08:40:31.018Z</time></trkpt><trkpt lat="40.3894217" lon="15.1261117"><ele>399.0</ele><time>2026-03-28T08:40:32.017Z</time></trkpt><trkpt lat="40.3893167" lon="15.1261917"><ele>399.0</ele><time>2026-03-28T08:40:33.017Z</time></trkpt><trkpt lat="40.3891983" lon="15.12626"><ele>399.0</ele><time>2026-03-28T08:40:34.018Z</time></trkpt><trkpt lat="40.3890683" lon="15.12631"><ele>399.0</ele><time>2026-03-28T08:40:35.017Z</time></trkpt><trkpt lat="40.3889367" lon="15.1263417"><ele>401.25</ele><time>2026-03-28T08:40:36.017Z</time></trkpt><trkpt lat="40.3888033" lon="15.1263583"><ele>403.5</ele><time>2026-03-28T08:40:37.018Z</time></trkpt><trkpt lat="40.38867" lon="15.1263433"><ele>405.75</ele><time>2026-03-28T08:40:38.017Z</time></trkpt><trkpt lat="40.3885417" lon="15.1263083"><ele>408.0</ele><time>2026-03-28T08:40:39.018Z</time></trkpt><trkpt lat="40.388415" lon="15.1262483"><ele>408.0</ele><time>2026-03-28T08:40:40.017Z</time></trkpt><trkpt lat="40.3883017" lon="15.1261667"><ele>408.0</ele><time>2026-03-28T08:40:41.017Z</time></trkpt><trkpt lat="40.3882017" lon="15.12605"><ele>408.0</ele><time>2026-03-28T08:40:42.018Z</time></trkpt><trkpt lat="40.3881083" lon="15.12591"><ele>408.0</ele><time>2026-03-28T08:40:43.017Z</time></trkpt><trkpt lat="40.3880133" lon="15.1257633"><ele>408.0</ele><time>2026-03-28T08:40:44.018Z</time></trkpt><trkpt lat="40.387925" lon="15.1256167"><ele>408.0</ele><time>2026-03-28T08:40:45.018Z</time></trkpt><trkpt lat="40.38785" lon="15.12548"><ele>408.0</ele><time>2026-03-28T08:40:46.018Z</time></trkpt><trkpt lat="40.3878" lon="15.1253483"><ele>408.0</ele><time>2026-03-28T08:40:47.017Z</time></trkpt><trkpt lat="40.3877633" lon="15.12523"><ele>408.0</ele><time>2026-03-28T08:40:48.018Z</time></trkpt><trkpt lat="40.3877317" lon="15.1251317"><ele>408.0</ele><time>2026-03-28T08:40:49.017Z</time></trkpt><trkpt lat="40.38767" lon="15.1250217"><ele>408.0</ele><time>2026-03-28T08:40:51.017Z</time></trkpt><trkpt lat="40.3876067" lon="15.1250233"><ele>408.0</ele><time>2026-03-28T08:40:53.018Z</time></trkpt><trkpt lat="40.38759" lon="15.1251133"><ele>408.0</ele><time>2026-03-28T08:40:55.018Z</time></trkpt><trkpt lat="40.3876" lon="15.125195"><ele>408.0</ele><time>2026-03-28T08:40:56.017Z</time></trkpt><trkpt lat="40.3876283" lon="15.1253067"><ele>408.0</ele><time>2026-03-28T08:40:57.018Z</time></trkpt><trkpt lat="40.3876817" lon="15.12547"><ele>408.0</ele><time>2026-03-28T08:40:58.017Z</time></trkpt><trkpt lat="40.3877617" lon="15.1256917"><ele>408.0</ele><time>2026-03-28T08:40:59.017Z</time></trkpt><trkpt lat="40.3878483" lon="15.125905"><ele>408.0</ele><time>2026-03-28T08:41:00.018Z</time></trkpt><trkpt lat="40.3879333" lon="15.1261"><ele>408.0</ele><time>2026-03-28T08:41:01.017Z</time></trkpt><trkpt lat="40.38804" lon="15.1262883"><ele>408.0</ele><time>2026-03-28T08:41:02.018Z</time></trkpt><trkpt lat="40.38816" lon="15.1264683"><ele>414.0</ele><time>2026-03-28T08:41:03.017Z</time></trkpt><trkpt lat="40.3883" lon="15.1266317"><ele>420.0</ele><time>2026-03-28T08:41:04.017Z</time></trkpt><trkpt lat="40.388445" lon="15.1267817"><ele>426.0</ele><time>2026-03-28T08:41:05.017Z</time></trkpt><trkpt lat="40.3885967" lon="15.126905"><ele>426.0</ele><time>2026-03-28T08:41:06.017Z</time></trkpt><trkpt lat="40.38874" lon="15.126995"><ele>426.0</ele><time>2026-03-28T08:41:07.017Z</time></trkpt><trkpt lat="40.38886" lon="15.1270717"><ele>426.0</ele><time>2026-03-28T08:41:08.018Z</time></trkpt><trkpt lat="40.388975" lon="15.127145"><ele>426.0</ele><time>2026-03-28T08:41:09.018Z</time></trkpt><trkpt lat="40.3890783" lon="15.1272033"><ele>425.1666666666667</ele><time>2026-03-28T08:41:10.017Z</time></trkpt><trkpt lat="40.3891667" lon="15.1272433"><ele>424.33333333333337</ele><time>2026-03-28T08:41:11.018Z</time></trkpt><trkpt lat="40.38925" lon="15.1272767"><ele>423.5</ele><time>2026-03-28T08:41:12.017Z</time></trkpt><trkpt lat="40.3893483" lon="15.1273017"><ele>422.6666666666667</ele><time>2026-03-28T08:41:14.018Z</time></trkpt><trkpt lat="40.3893717" lon="15.1273983"><ele>421.83333333333337</ele><time>2026-03-28T08:41:18.018Z</time></trkpt><trkpt lat="40.3894033" lon="15.1274767"><ele>421.0</ele><time>2026-03-28T08:41:21.017Z</time></trkpt><trkpt lat="40.3894283" lon="15.12758"><ele>422.33333333333337</ele><time>2026-03-28T08:41:25.017Z</time></trkpt><trkpt lat="40.38944" lon="15.127695"><ele>423.6666666666667</ele><time>2026-03-28T08:41:27.018Z</time></trkpt><trkpt lat="40.3894567" lon="15.1278167"><ele>425.0</ele><time>2026-03-28T08:41:29.018Z</time></trkpt><trkpt lat="40.3894533" lon="15.1279083"><ele>426.33333333333337</ele><time>2026-03-28T08:41:31.018Z</time></trkpt><trkpt lat="40.3894517" lon="15.1280033"><ele>427.6666666666667</ele><time>2026-03-28T08:41:33.017Z</time></trkpt><trkpt lat="40.3894467" lon="15.1281283"><ele>429.0</ele><time>2026-03-28T08:41:35.017Z</time></trkpt><trkpt lat="40.38944" lon="15.1282417"><ele>429.0</ele><time>2026-03-28T08:41:37.017Z</time></trkpt><trkpt lat="40.3894333" lon="15.1283367"><ele>429.0</ele><time>2026-03-28T08:41:40.018Z</time></trkpt><trkpt lat="40.3894417" lon="15.1282417"><ele>429.0</ele><time>2026-03-28T08:42:29.018Z</time></trkpt><trkpt lat="40.3894517" lon="15.1281467"><ele>429.0</ele><time>2026-03-28T08:42:30.017Z</time></trkpt><trkpt lat="40.3894617" lon="15.1280317"><ele>429.0</ele><time>2026-03-28T08:42:31.017Z</time></trkpt><trkpt lat="40.3894667" lon="15.1279183"><ele>429.0</ele><time>2026-03-28T08:42:32.017Z</time></trkpt><trkpt lat="40.3894633" lon="15.1278183"><ele>430.0</ele><time>2026-03-28T08:42:33.017Z</time></trkpt><trkpt lat="40.3894533" lon="15.1277233"><ele>431.0</ele><time>2026-03-28T08:42:34.017Z</time></trkpt><trkpt lat="40.389445" lon="15.12764"><ele>432.0</ele><time>2026-03-28T08:42:35.018Z</time></trkpt><trkpt lat="40.3894283" lon="15.12753"><ele>433.0</ele><time>2026-03-28T08:42:37.017Z</time></trkpt><trkpt lat="40.3893833" lon="15.1274517"><ele>434.0</ele><time>2026-03-28T08:43:17.017Z</time></trkpt><trkpt lat="40.3893933" lon="15.127355"><ele>435.0</ele><time>2026-03-28T08:43:20.017Z</time></trkpt><trkpt lat="40.389455" lon="15.1273267"><ele>436.0</ele><time>2026-03-28T08:43:22.018Z</time></trkpt><trkpt lat="40.3895817" lon="15.12735"><ele>436.6666666666667</ele><time>2026-03-28T08:43:24.017Z</time></trkpt><trkpt lat="40.38966" lon="15.1273717"><ele>437.33333333333337</ele><time>2026-03-28T08:43:25.018Z</time></trkpt><trkpt lat="40.389745" lon="15.12739"><ele>438.0</ele><time>2026-03-28T08:43:26.018Z</time></trkpt><trkpt lat="40.3898333" lon="15.1274033"><ele>438.66666666666663</ele><time>2026-03-28T08:43:27.017Z</time></trkpt><trkpt lat="40.3899167" lon="15.1274167"><ele>439.3333333333333</ele><time>2026-03-28T08:43:28.018Z</time></trkpt><trkpt lat="40.39" lon="15.1274017"><ele>440.0</ele><time>2026-03-28T08:43:29.017Z</time></trkpt><trkpt lat="40.39009" lon="15.1273633"><ele>437.2</ele><time>2026-03-28T08:43:30.017Z</time></trkpt><trkpt lat="40.3901683" lon="15.1273017"><ele>434.4</ele><time>2026-03-28T08:43:31.017Z</time></trkpt><trkpt lat="40.3902367" lon="15.1272133"><ele>431.6</ele><time>2026-03-28T08:43:32.017Z</time></trkpt><trkpt lat="40.390305" lon="15.1271233"><ele>428.8</ele><time>2026-03-28T08:43:33.018Z</time></trkpt><trkpt lat="40.390385" lon="15.1270417"><ele>426.0</ele><time>2026-03-28T08:43:34.017Z</time></trkpt><trkpt lat="40.3904783" lon="15.1269867"><ele>429.75</ele><time>2026-03-28T08:43:35.017Z</time></trkpt><trkpt lat="40.3905883" lon="15.126945"><ele>433.5</ele><time>2026-03-28T08:43:36.017Z</time></trkpt><trkpt lat="40.3907033" lon="15.12692"><ele>437.25</ele><time>2026-03-28T08:43:37.018Z</time></trkpt><trkpt lat="40.3908267" lon="15.1268917"><ele>441.0</ele><time>2026-03-28T08:43:38.017Z</time></trkpt><trkpt lat="40.3909467" lon="15.1268633"><ele>441.0</ele><time>2026-03-28T08:43:39.018Z</time></trkpt><trkpt lat="40.3910633" lon="15.1268133"><ele>441.0</ele><time>2026-03-28T08:43:40.017Z</time></trkpt><trkpt lat="40.3911733" lon="15.1267367"><ele>441.0</ele><time>2026-03-28T08:43:41.017Z</time></trkpt><trkpt lat="40.3912733" lon="15.126635"><ele>441.0</ele><time>2026-03-28T08:43:42.018Z</time></trkpt><trkpt lat="40.3913633" lon="15.1265233"><ele>442.25</ele><time>2026-03-28T08:43:43.018Z</time></trkpt><trkpt lat="40.3914617" lon="15.1264167"><ele>443.5</ele><time>2026-03-28T08:43:44.018Z</time></trkpt><trkpt lat="40.39157" lon="15.1263267"><ele>444.75</ele><time>2026-03-28T08:43:45.018Z</time></trkpt><trkpt lat="40.3916817" lon="15.1262467"><ele>446.0</ele><time>2026-03-28T08:43:46.017Z</time></trkpt><trkpt lat="40.3918067" lon="15.126165"><ele>446.0</ele><time>2026-03-28T08:43:47.018Z</time></trkpt><trkpt lat="40.3919367" lon="15.1260883"><ele>446.0</ele><time>2026-03-28T08:43:48.018Z</time></trkpt><trkpt lat="40.39207" lon="15.1260117"><ele>446.0</ele><time>2026-03-28T08:43:49.017Z</time></trkpt><trkpt lat="40.3922083" lon="15.125935"><ele>446.0</ele><time>2026-03-28T08:43:50.018Z</time></trkpt><trkpt lat="40.39235" lon="15.1258617"><ele>446.0</ele><time>2026-03-28T08:43:51.018Z</time></trkpt><trkpt lat="40.3924867" lon="15.1257867"><ele>446.0</ele><time>2026-03-28T08:43:52.018Z</time></trkpt><trkpt lat="40.392615" lon="15.1257167"><ele>446.0</ele><time>2026-03-28T08:43:53.017Z</time></trkpt><trkpt lat="40.3927333" lon="15.1256483"><ele>446.0</ele><time>2026-03-28T08:43:54.017Z</time></trkpt><trkpt lat="40.3928417" lon="15.125575"><ele>446.0</ele><time>2026-03-28T08:43:55.017Z</time></trkpt><trkpt lat="40.39293" lon="15.125475"><ele>446.0</ele><time>2026-03-28T08:43:56.017Z</time></trkpt><trkpt lat="40.392995" lon="15.1253533"><ele>446.0</ele><time>2026-03-28T08:43:57.017Z</time></trkpt><trkpt lat="40.3930317" lon="15.125195"><ele>446.0</ele><time>2026-03-28T08:43:58.017Z</time></trkpt><trkpt lat="40.3930583" lon="15.1250167"><ele>448.8</ele><time>2026-03-28T08:43:59.018Z</time></trkpt><trkpt lat="40.3930817" lon="15.1248467"><ele>451.6</ele><time>2026-03-28T08:44:00.018Z</time></trkpt><trkpt lat="40.39311" lon="15.1247"><ele>454.4</ele><time>2026-03-28T08:44:01.018Z</time></trkpt><trkpt lat="40.3931433" lon="15.124595"><ele>457.2</ele><time>2026-03-28T08:44:02.018Z</time></trkpt><trkpt lat="40.3931917" lon="15.12453"><ele>460.0</ele><time>2026-03-28T08:44:03.018Z</time></trkpt><trkpt lat="40.393255" lon="15.1245067"><ele>460.00000000000006</ele><time>2026-03-28T08:44:04.017Z</time></trkpt><trkpt lat="40.393325" lon="15.1245283"><ele>460.0</ele><time>2026-03-28T08:44:05.018Z</time></trkpt><trkpt lat="40.3933867" lon="15.1245817"><ele>460.0</ele><time>2026-03-28T08:44:06.018Z</time></trkpt><trkpt lat="40.393425" lon="15.12466"><ele>460.0</ele><time>2026-03-28T08:44:07.018Z</time></trkpt><trkpt lat="40.39344" lon="15.12477"><ele>460.00000000000006</ele><time>2026-03-28T08:44:08.018Z</time></trkpt><trkpt lat="40.393425" lon="15.1248917"><ele>460.0</ele><time>2026-03-28T08:44:09.017Z</time></trkpt><trkpt lat="40.3933833" lon="15.1250317"><ele>461.25</ele><time>2026-03-28T08:44:10.018Z</time></trkpt><trkpt lat="40.393335" lon="15.12519"><ele>462.5</ele><time>2026-03-28T08:44:11.018Z</time></trkpt><trkpt lat="40.3932817" lon="15.1253667"><ele>463.75</ele><time>2026-03-28T08:44:12.018Z</time></trkpt><trkpt lat="40.393225" lon="15.12555"><ele>465.0</ele><time>2026-03-28T08:44:13.017Z</time></trkpt><trkpt lat="40.3931667" lon="15.1257333"><ele>463.5</ele><time>2026-03-28T08:44:14.017Z</time></trkpt><trkpt lat="40.3931133" lon="15.1259033"><ele>462.0</ele><time>2026-03-28T08:44:15.017Z</time></trkpt><trkpt lat="40.3930533" lon="15.1260533"><ele>460.5</ele><time>2026-03-28T08:44:16.018Z</time></trkpt><trkpt lat="40.3929833" lon="15.126175"><ele>459.0</ele><time>2026-03-28T08:44:17.018Z</time></trkpt><trkpt lat="40.3929033" lon="15.1262783"><ele>459.0</ele><time>2026-03-28T08:44:18.017Z</time></trkpt><trkpt lat="40.392835" lon="15.1263717"><ele>459.0</ele><time>2026-03-28T08:44:19.017Z</time></trkpt><trkpt lat="40.392785" lon="15.1264567"><ele>459.0</ele><time>2026-03-28T08:44:20.017Z</time></trkpt><trkpt lat="40.392765" lon="15.12655"><ele>459.0</ele><time>2026-03-28T08:44:21.018Z</time></trkpt><trkpt lat="40.3927617" lon="15.1266333"><ele>459.0</ele><time>2026-03-28T08:44:22.017Z</time></trkpt><trkpt lat="40.39281" lon="15.126775"><ele>459.0</ele><time>2026-03-28T08:44:24.018Z</time></trkpt><trkpt lat="40.3928517" lon="15.12685"><ele>460.79999999999995</ele><time>2026-03-28T08:44:25.017Z</time></trkpt><trkpt lat="40.392905" lon="15.1269283"><ele>462.59999999999997</ele><time>2026-03-28T08:44:26.017Z</time></trkpt><trkpt lat="40.392975" lon="15.1270067"><ele>464.4</ele><time>2026-03-28T08:44:27.018Z</time></trkpt><trkpt lat="40.3930633" lon="15.12709"><ele>466.2</ele><time>2026-03-28T08:44:28.018Z</time></trkpt><trkpt lat="40.3931583" lon="15.1271867"><ele>468.0</ele><time>2026-03-28T08:44:29.018Z</time></trkpt><trkpt lat="40.3932567" lon="15.12728"><ele>469.4</ele><time>2026-03-28T08:44:30.017Z</time></trkpt><trkpt lat="40.3933583" lon="15.1273633"><ele>470.79999999999995</ele><time>2026-03-28T08:44:31.018Z</time></trkpt><trkpt lat="40.3934667" lon="15.12742"><ele>472.2</ele><time>2026-03-28T08:44:32.017Z</time></trkpt><trkpt lat="40.3935733" lon="15.1274483"><ele>473.6</ele><time>2026-03-28T08:44:33.018Z</time></trkpt><trkpt lat="40.3936717" lon="15.1274483"><ele>475.0</ele><time>2026-03-28T08:44:34.018Z</time></trkpt><trkpt lat="40.39377" lon="15.1274233"><ele>480.0</ele><time>2026-03-28T08:44:35.017Z</time></trkpt><trkpt lat="40.39387" lon="15.1273817"><ele>485.0</ele><time>2026-03-28T08:44:36.017Z</time></trkpt><trkpt lat="40.3939767" lon="15.1273183"><ele>490.0</ele><time>2026-03-28T08:44:37.018Z</time></trkpt><trkpt lat="40.39409" lon="15.1272567"><ele>495.0</ele><time>2026-03-28T08:44:38.017Z</time></trkpt><trkpt lat="40.39421" lon="15.127215"><ele>495.0</ele><time>2026-03-28T08:44:39.017Z</time></trkpt><trkpt lat="40.3943333" lon="15.1272067"><ele>495.0</ele><time>2026-03-28T08:44:40.017Z</time></trkpt><trkpt lat="40.394465" lon="15.1272267"><ele>495.0</ele><time>2026-03-28T08:44:41.017Z</time></trkpt><trkpt lat="40.3946017" lon="15.12728"><ele>495.0</ele><time>2026-03-28T08:44:42.017Z</time></trkpt><trkpt lat="40.3947433" lon="15.1273483"><ele>494.66666666666663</ele><time>2026-03-28T08:44:43.017Z</time></trkpt><trkpt lat="40.3948933" lon="15.127425"><ele>494.3333333333333</ele><time>2026-03-28T08:44:44.017Z</time></trkpt><trkpt lat="40.39504" lon="15.127505"><ele>494.0</ele><time>2026-03-28T08:44:45.018Z</time></trkpt><trkpt lat="40.3951717" lon="15.12759"><ele>494.0</ele><time>2026-03-28T08:44:46.018Z</time></trkpt><trkpt lat="40.39528" lon="15.1276867"><ele>494.0</ele><time>2026-03-28T08:44:47.018Z</time></trkpt><trkpt lat="40.395365" lon="15.1278033"><ele>494.0</ele><time>2026-03-28T08:44:48.018Z</time></trkpt><trkpt lat="40.3954183" lon="15.127935"><ele>494.0</ele><time>2026-03-28T08:44:49.017Z</time></trkpt><trkpt lat="40.3954383" lon="15.128075"><ele>494.0</ele><time>2026-03-28T08:44:50.017Z</time></trkpt><trkpt lat="40.395435" lon="15.128215"><ele>494.0</ele><time>2026-03-28T08:44:51.018Z</time></trkpt><trkpt lat="40.3954483" lon="15.1283383"><ele>494.0</ele><time>2026-03-28T08:44:52.017Z</time></trkpt><trkpt lat="40.3954983" lon="15.128435"><ele>494.0</ele><time>2026-03-28T08:44:53.017Z</time></trkpt><trkpt lat="40.39557" lon="15.128495"><ele>494.0</ele><time>2026-03-28T08:44:54.017Z</time></trkpt><trkpt lat="40.395655" lon="15.1284883"><ele>496.4</ele><time>2026-03-28T08:44:55.017Z</time></trkpt><trkpt lat="40.395725" lon="15.128445"><ele>498.79999999999995</ele><time>2026-03-28T08:44:56.017Z</time></trkpt><trkpt lat="40.3957567" lon="15.1283517"><ele>501.20000000000005</ele><time>2026-03-28T08:44:57.018Z</time></trkpt><trkpt lat="40.3957667" lon="15.1282383"><ele>503.6</ele><time>2026-03-28T08:44:58.017Z</time></trkpt><trkpt lat="40.39576" lon="15.1281033"><ele>506.0</ele><time>2026-03-28T08:44:59.017Z</time></trkpt><trkpt lat="40.3957317" lon="15.1279417"><ele>507.0</ele><time>2026-03-28T08:45:00.017Z</time></trkpt><trkpt lat="40.3956833" lon="15.12777"><ele>508.0</ele><time>2026-03-28T08:45:01.018Z</time></trkpt><trkpt lat="40.3956083" lon="15.1276017"><ele>509.0</ele><time>2026-03-28T08:45:02.017Z</time></trkpt><trkpt lat="40.3955083" lon="15.1274433"><ele>510.0</ele><time>2026-03-28T08:45:03.017Z</time></trkpt><trkpt lat="40.395405" lon="15.1273033"><ele>510.0</ele><time>2026-03-28T08:45:04.018Z</time></trkpt><trkpt lat="40.3953167" lon="15.1271667"><ele>510.0</ele><time>2026-03-28T08:45:05.017Z</time></trkpt><trkpt lat="40.39525" lon="15.127015"><ele>510.0</ele><time>2026-03-28T08:45:06.018Z</time></trkpt><trkpt lat="40.3951967" lon="15.1268383"><ele>510.0</ele><time>2026-03-28T08:45:07.017Z</time></trkpt><trkpt lat="40.3951517" lon="15.1266533"><ele>510.0</ele><time>2026-03-28T08:45:08.018Z</time></trkpt><trkpt lat="40.395125" lon="15.1264783"><ele>510.0</ele><time>2026-03-28T08:45:09.018Z</time></trkpt><trkpt lat="40.3951217" lon="15.12632"><ele>510.0</ele><time>2026-03-28T08:45:10.018Z</time></trkpt><trkpt lat="40.3951433" lon="15.12617"><ele>510.0</ele><time>2026-03-28T08:45:11.018Z</time></trkpt><trkpt lat="40.39518" lon="15.1260267"><ele>510.0</ele><time>2026-03-28T08:45:12.018Z</time></trkpt><trkpt lat="40.3952183" lon="15.12589"><ele>510.0</ele><time>2026-03-28T08:45:13.017Z</time></trkpt><trkpt lat="40.3952283" lon="15.1257433"><ele>510.0</ele><time>2026-03-28T08:45:14.018Z</time></trkpt><trkpt lat="40.3952067" lon="15.1255767"><ele>510.0</ele><time>2026-03-28T08:45:15.018Z</time></trkpt><trkpt lat="40.3951667" lon="15.1253883"><ele>512.3333333333334</ele><time>2026-03-28T08:45:16.017Z</time></trkpt><trkpt lat="40.3951167" lon="15.125175"><ele>514.6666666666667</ele><time>2026-03-28T08:45:17.018Z</time></trkpt><trkpt lat="40.39506" lon="15.1249433"><ele>517.0</ele><time>2026-03-28T08:45:18.018Z</time></trkpt><trkpt lat="40.395" lon="15.12471"><ele>520.3333333333334</ele><time>2026-03-28T08:45:19.018Z</time></trkpt><trkpt lat="40.3949433" lon="15.124495"><ele>523.6666666666666</ele><time>2026-03-28T08:45:20.017Z</time></trkpt><trkpt lat="40.3948867" lon="15.1243067"><ele>527.0</ele><time>2026-03-28T08:45:21.017Z</time></trkpt><trkpt lat="40.3948317" lon="15.124145"><ele>524.2</ele><time>2026-03-28T08:45:22.017Z</time></trkpt><trkpt lat="40.3947867" lon="15.124"><ele>521.4000000000001</ele><time>2026-03-28T08:45:23.018Z</time></trkpt><trkpt lat="40.3947683" lon="15.1238617"><ele>518.5999999999999</ele><time>2026-03-28T08:45:24.017Z</time></trkpt><trkpt lat="40.394785" lon="15.1237317"><ele>515.8</ele><time>2026-03-28T08:45:25.018Z</time></trkpt><trkpt lat="40.3948317" lon="15.12361"><ele>513.0</ele><time>2026-03-28T08:45:26.017Z</time></trkpt><trkpt lat="40.3949133" lon="15.1235117"><ele>513.0</ele><time>2026-03-28T08:45:27.017Z</time></trkpt><trkpt lat="40.3950167" lon="15.1234333"><ele>513.0</ele><time>2026-03-28T08:45:28.018Z</time></trkpt><trkpt lat="40.3951467" lon="15.1233733"><ele>513.0</ele><time>2026-03-28T08:45:29.018Z</time></trkpt><trkpt lat="40.395295" lon="15.1233083"><ele>513.0</ele><time>2026-03-28T08:45:30.018Z</time></trkpt><trkpt lat="40.395445" lon="15.123245"><ele>515.25</ele><time>2026-03-28T08:45:31.018Z</time></trkpt><trkpt lat="40.3955917" lon="15.1232033"><ele>517.5</ele><time>2026-03-28T08:45:32.017Z</time></trkpt><trkpt lat="40.39572" lon="15.1231833"><ele>519.75</ele><time>2026-03-28T08:45:33.018Z</time></trkpt><trkpt lat="40.3958383" lon="15.123145"><ele>522.0</ele><time>2026-03-28T08:45:34.018Z</time></trkpt><trkpt lat="40.3959467" lon="15.1230667"><ele>522.0</ele><time>2026-03-28T08:45:35.017Z</time></trkpt><trkpt lat="40.3960433" lon="15.1229417"><ele>522.0</ele><time>2026-03-28T08:45:36.017Z</time></trkpt><trkpt lat="40.3961433" lon="15.12279"><ele>522.0</ele><time>2026-03-28T08:45:37.017Z</time></trkpt><trkpt lat="40.3962567" lon="15.1226267"><ele>526.0</ele><time>2026-03-28T08:45:38.017Z</time></trkpt><trkpt lat="40.39639" lon="15.1224567"><ele>530.0</ele><time>2026-03-28T08:45:39.018Z</time></trkpt><trkpt lat="40.3965217" lon="15.1222933"><ele>534.0</ele><time>2026-03-28T08:45:40.017Z</time></trkpt><trkpt lat="40.3966517" lon="15.12213"><ele>534.0</ele><time>2026-03-28T08:45:41.018Z</time></trkpt><trkpt lat="40.3967767" lon="15.1219917"><ele>534.0</ele><time>2026-03-28T08:45:42.017Z</time></trkpt><trkpt lat="40.3968967" lon="15.1218633"><ele>534.0</ele><time>2026-03-28T08:45:43.018Z</time></trkpt><trkpt lat="40.39702" lon="15.12174"><ele>534.0</ele><time>2026-03-28T08:45:44.017Z</time></trkpt><trkpt lat="40.3971517" lon="15.1216167"><ele>534.0</ele><time>2026-03-28T08:45:45.018Z</time></trkpt><trkpt lat="40.3973017" lon="15.1215133"><ele>534.0</ele><time>2026-03-28T08:45:46.017Z</time></trkpt><trkpt lat="40.3974517" lon="15.1214283"><ele>536.0</ele><time>2026-03-28T08:45:47.017Z</time></trkpt><trkpt lat="40.3975917" lon="15.12134"><ele>538.0</ele><time>2026-03-28T08:45:48.018Z</time></trkpt><trkpt lat="40.3977017" lon="15.121245"><ele>540.0</ele><time>2026-03-28T08:45:49.018Z</time></trkpt><trkpt lat="40.3977817" lon="15.1211233"><ele>542.0</ele><time>2026-03-28T08:45:50.018Z</time></trkpt><trkpt lat="40.3978333" lon="15.1209667"><ele>542.0</ele><time>2026-03-28T08:45:51.018Z</time></trkpt><trkpt lat="40.39786" lon="15.1207817"><ele>542.0</ele><time>2026-03-28T08:45:52.017Z</time></trkpt><trkpt lat="40.3978783" lon="15.1205717"><ele>542.0</ele><time>2026-03-28T08:45:53.018Z</time></trkpt><trkpt lat="40.3978833" lon="15.120365"><ele>543.25</ele><time>2026-03-28T08:45:54.018Z</time></trkpt><trkpt lat="40.3978783" lon="15.12018"><ele>544.5</ele><time>2026-03-28T08:45:55.017Z</time></trkpt><trkpt lat="40.39785" lon="15.12002"><ele>545.75</ele><time>2026-03-28T08:45:56.017Z</time></trkpt><trkpt lat="40.3977883" lon="15.1198667"><ele>547.0</ele><time>2026-03-28T08:45:57.018Z</time></trkpt><trkpt lat="40.397715" lon="15.1197267"><ele>549.5</ele><time>2026-03-28T08:45:58.017Z</time></trkpt><trkpt lat="40.3976683" lon="15.119585"><ele>552.0</ele><time>2026-03-28T08:45:59.017Z</time></trkpt><trkpt lat="40.3976533" lon="15.1194433"><ele>554.5</ele><time>2026-03-28T08:46:00.018Z</time></trkpt><trkpt lat="40.39767" lon="15.1192883"><ele>557.0</ele><time>2026-03-28T08:46:01.018Z</time></trkpt><trkpt lat="40.397695" lon="15.1191217"><ele>558.8000000000001</ele><time>2026-03-28T08:46:02.017Z</time></trkpt><trkpt lat="40.39771" lon="15.1189517"><ele>560.6</ele><time>2026-03-28T08:46:03.017Z</time></trkpt><trkpt lat="40.39771" lon="15.1187967"><ele>562.4000000000001</ele><time>2026-03-28T08:46:04.018Z</time></trkpt><trkpt lat="40.39772" lon="15.1186817"><ele>564.2</ele><time>2026-03-28T08:46:05.017Z</time></trkpt><trkpt lat="40.39775" lon="15.1185933"><ele>566.0</ele><time>2026-03-28T08:46:06.017Z</time></trkpt><trkpt lat="40.3978383" lon="15.1185417"><ele>566.0</ele><time>2026-03-28T08:46:08.017Z</time></trkpt><trkpt lat="40.3979317" lon="15.1186567"><ele>566.0</ele><time>2026-03-28T08:46:10.017Z</time></trkpt><trkpt lat="40.397965" lon="15.1187717"><ele>566.0</ele><time>2026-03-28T08:46:11.018Z</time></trkpt><trkpt lat="40.3979967" lon="15.1189033"><ele>566.0</ele><time>2026-03-28T08:46:12.018Z</time></trkpt><trkpt lat="40.398035" lon="15.11903"><ele>566.0</ele><time>2026-03-28T08:46:13.017Z</time></trkpt><trkpt lat="40.3980883" lon="15.1191467"><ele>566.4</ele><time>2026-03-28T08:46:14.017Z</time></trkpt><trkpt lat="40.3981583" lon="15.1192433"><ele>566.8</ele><time>2026-03-28T08:46:15.018Z</time></trkpt><trkpt lat="40.3982483" lon="15.1193167"><ele>567.1999999999999</ele><time>2026-03-28T08:46:16.018Z</time></trkpt><trkpt lat="40.398355" lon="15.1193667"><ele>567.6</ele><time>2026-03-28T08:46:17.017Z</time></trkpt><trkpt lat="40.3984733" lon="15.1194183"><ele>568.0</ele><time>2026-03-28T08:46:18.017Z</time></trkpt><trkpt lat="40.3986033" lon="15.119485"><ele>568.0</ele><time>2026-03-28T08:46:19.017Z</time></trkpt><trkpt lat="40.3987333" lon="15.1195583"><ele>568.0</ele><time>2026-03-28T08:46:20.018Z</time></trkpt><trkpt lat="40.398855" lon="15.1196267"><ele>568.0</ele><time>2026-03-28T08:46:21.017Z</time></trkpt><trkpt lat="40.39895" lon="15.1196983"><ele>568.0</ele><time>2026-03-28T08:46:22.018Z</time></trkpt><trkpt lat="40.399015" lon="15.1197467"><ele>569.4</ele><time>2026-03-28T08:46:23.018Z</time></trkpt><trkpt lat="40.3990633" lon="15.1198383"><ele>570.8</ele><time>2026-03-28T08:46:25.017Z</time></trkpt><trkpt lat="40.3990383" lon="15.119975"><ele>572.2</ele><time>2026-03-28T08:46:27.018Z</time></trkpt><trkpt lat="40.399005" lon="15.12008"><ele>573.6</ele><time>2026-03-28T08:46:28.017Z</time></trkpt><trkpt lat="40.3989583" lon="15.120205"><ele>575.0</ele><time>2026-03-28T08:46:29.018Z</time></trkpt><trkpt lat="40.3989183" lon="15.1203283"><ele>575.0</ele><time>2026-03-28T08:46:30.017Z</time></trkpt><trkpt lat="40.3988883" lon="15.1204317"><ele>575.0</ele><time>2026-03-28T08:46:31.017Z</time></trkpt><trkpt lat="40.398875" lon="15.120515"><ele>575.0</ele><time>2026-03-28T08:46:32.017Z</time></trkpt><trkpt lat="40.3989083" lon="15.120615"><ele>575.0</ele><time>2026-03-28T08:46:34.018Z</time></trkpt><trkpt lat="40.3990233" lon="15.1206217"><ele>575.0</ele><time>2026-03-28T08:46:36.017Z</time></trkpt><trkpt lat="40.399095" lon="15.120615"><ele>575.0</ele><time>2026-03-28T08:46:37.018Z</time></trkpt><trkpt lat="40.399175" lon="15.1206"><ele>575.0</ele><time>2026-03-28T08:46:38.018Z</time></trkpt><trkpt lat="40.3992533" lon="15.1205967"><ele>575.0</ele><time>2026-03-28T08:46:39.018Z</time></trkpt><trkpt lat="40.39933" lon="15.1206183"><ele>575.0</ele><time>2026-03-28T08:46:40.018Z</time></trkpt><trkpt lat="40.399415" lon="15.1206683"><ele>575.0</ele><time>2026-03-28T08:46:41.017Z</time></trkpt><trkpt lat="40.3994983" lon="15.120715"><ele>575.0</ele><time>2026-03-28T08:46:42.018Z</time></trkpt><trkpt lat="40.3995917" lon="15.1207683"><ele>575.0</ele><time>2026-03-28T08:46:43.018Z</time></trkpt><trkpt lat="40.39969" lon="15.1208267"><ele>573.8</ele><time>2026-03-28T08:46:44.018Z</time></trkpt><trkpt lat="40.3997817" lon="15.1208783"><ele>572.6</ele><time>2026-03-28T08:46:45.018Z</time></trkpt><trkpt lat="40.3998617" lon="15.1209183"><ele>571.4</ele><time>2026-03-28T08:46:46.018Z</time></trkpt><trkpt lat="40.3999333" lon="15.1209583"><ele>570.2</ele><time>2026-03-28T08:46:47.018Z</time></trkpt><trkpt lat="40.3999917" lon="15.1210033"><ele>569.0</ele><time>2026-03-28T08:46:48.018Z</time></trkpt><trkpt lat="40.4000517" lon="15.1211583"><ele>569.0</ele><time>2026-03-28T08:46:50.017Z</time></trkpt><trkpt lat="40.4000683" lon="15.12129"><ele>569.0</ele><time>2026-03-28T08:46:51.018Z</time></trkpt><trkpt lat="40.4000817" lon="15.1214433"><ele>569.0</ele><time>2026-03-28T08:46:52.017Z</time></trkpt><trkpt lat="40.4000933" lon="15.1216083"><ele>569.0</ele><time>2026-03-28T08:46:53.017Z</time></trkpt><trkpt lat="40.4001033" lon="15.1217717"><ele>570.25</ele><time>2026-03-28T08:46:54.017Z</time></trkpt><trkpt lat="40.4001267" lon="15.1219317"><ele>571.5</ele><time>2026-03-28T08:46:55.017Z</time></trkpt><trkpt lat="40.4001667" lon="15.122085"><ele>572.75</ele><time>2026-03-28T08:46:56.017Z</time></trkpt><trkpt lat="40.40023" lon="15.1222117"><ele>574.0</ele><time>2026-03-28T08:46:57.017Z</time></trkpt><trkpt lat="40.4003017" lon="15.12232"><ele>573.6666666666667</ele><time>2026-03-28T08:46:58.018Z</time></trkpt><trkpt lat="40.4003717" lon="15.122415"><ele>573.3333333333334</ele><time>2026-03-28T08:46:59.017Z</time></trkpt><trkpt lat="40.400435" lon="15.1225"><ele>573.0</ele><time>2026-03-28T08:47:00.017Z</time></trkpt><trkpt lat="40.4004833" lon="15.1225883"><ele>572.6666666666666</ele><time>2026-03-28T08:47:01.018Z</time></trkpt><trkpt lat="40.4005083" lon="15.1226867"><ele>572.3333333333333</ele><time>2026-03-28T08:47:02.017Z</time></trkpt><trkpt lat="40.4005133" lon="15.1228017"><ele>572.0</ele><time>2026-03-28T08:47:03.017Z</time></trkpt><trkpt lat="40.40052" lon="15.1229417"><ele>572.0</ele><time>2026-03-28T08:47:04.018Z</time></trkpt><trkpt lat="40.4005417" lon="15.123105"><ele>572.0</ele><time>2026-03-28T08:47:05.017Z</time></trkpt><trkpt lat="40.4005833" lon="15.1232767"><ele>572.0</ele><time>2026-03-28T08:47:06.017Z</time></trkpt><trkpt lat="40.40063" lon="15.123435"><ele>572.0</ele><time>2026-03-28T08:47:07.017Z</time></trkpt><trkpt lat="40.4006767" lon="15.1235867"><ele>572.8000000000001</ele><time>2026-03-28T08:47:08.017Z</time></trkpt><trkpt lat="40.4007217" lon="15.1237133"><ele>573.6</ele><time>2026-03-28T08:47:09.018Z</time></trkpt><trkpt lat="40.4007733" lon="15.1238117"><ele>574.4000000000001</ele><time>2026-03-28T08:47:10.017Z</time></trkpt><trkpt lat="40.400845" lon="15.1238917"><ele>575.2</ele><time>2026-03-28T08:47:11.017Z</time></trkpt><trkpt lat="40.4009283" lon="15.123965"><ele>576.0</ele><time>2026-03-28T08:47:12.017Z</time></trkpt><trkpt lat="40.4009983" lon="15.1240633"><ele>577.75</ele><time>2026-03-28T08:47:13.017Z</time></trkpt><trkpt lat="40.401045" lon="15.1242033"><ele>579.5</ele><time>2026-03-28T08:47:14.018Z</time></trkpt><trkpt lat="40.4010817" lon="15.1243667"><ele>581.25</ele><time>2026-03-28T08:47:15.017Z</time></trkpt><trkpt lat="40.40113" lon="15.1245383"><ele>583.0</ele><time>2026-03-28T08:47:16.018Z</time></trkpt><trkpt lat="40.4011817" lon="15.1246933"><ele>583.0</ele><time>2026-03-28T08:47:17.017Z</time></trkpt><trkpt lat="40.4012433" lon="15.1248283"><ele>583.0</ele><time>2026-03-28T08:47:18.017Z</time></trkpt><trkpt lat="40.4013017" lon="15.1249467"><ele>583.0</ele><time>2026-03-28T08:47:19.017Z</time></trkpt><trkpt lat="40.4013333" lon="15.1250633"><ele>583.0</ele><time>2026-03-28T08:47:20.018Z</time></trkpt><trkpt lat="40.4013467" lon="15.1251917"><ele>583.0</ele><time>2026-03-28T08:47:21.017Z</time></trkpt><trkpt lat="40.4013467" lon="15.125335"><ele>582.5</ele><time>2026-03-28T08:47:22.018Z</time></trkpt><trkpt lat="40.4013517" lon="15.1254867"><ele>582.0</ele><time>2026-03-28T08:47:23.018Z</time></trkpt><trkpt lat="40.4013633" lon="15.1256333"><ele>581.5</ele><time>2026-03-28T08:47:24.018Z</time></trkpt><trkpt lat="40.4014" lon="15.1257683"><ele>581.0</ele><time>2026-03-28T08:47:25.017Z</time></trkpt><trkpt lat="40.401455" lon="15.1259067"><ele>582.0</ele><time>2026-03-28T08:47:26.018Z</time></trkpt><trkpt lat="40.4015183" lon="15.1260433"><ele>583.0</ele><time>2026-03-28T08:47:27.017Z</time></trkpt><trkpt lat="40.4015817" lon="15.1261817"><ele>584.0</ele><time>2026-03-28T08:47:28.017Z</time></trkpt><trkpt lat="40.4016483" lon="15.1263183"><ele>585.0</ele><time>2026-03-28T08:47:29.017Z</time></trkpt><trkpt lat="40.4017117" lon="15.1264567"><ele>586.4</ele><time>2026-03-28T08:47:30.017Z</time></trkpt><trkpt lat="40.4017683" lon="15.126595"><ele>587.8</ele><time>2026-03-28T08:47:31.017Z</time></trkpt><trkpt lat="40.4018083" lon="15.1267367"><ele>589.2</ele><time>2026-03-28T08:47:32.017Z</time></trkpt><trkpt lat="40.4018283" lon="15.1268617"><ele>590.6</ele><time>2026-03-28T08:47:33.017Z</time></trkpt><trkpt lat="40.4018267" lon="15.1269783"><ele>592.0</ele><time>2026-03-28T08:47:34.018Z</time></trkpt><trkpt lat="40.4018117" lon="15.1271083"><ele>592.0</ele><time>2026-03-28T08:47:35.018Z</time></trkpt><trkpt lat="40.4018083" lon="15.1272483"><ele>592.0</ele><time>2026-03-28T08:47:36.018Z</time></trkpt><trkpt lat="40.401835" lon="15.1273717"><ele>592.0</ele><time>2026-03-28T08:47:37.018Z</time></trkpt><trkpt lat="40.4018917" lon="15.1274683"><ele>592.0</ele><time>2026-03-28T08:47:38.017Z</time></trkpt><trkpt lat="40.4019683" lon="15.1275433"><ele>592.0</ele><time>2026-03-28T08:47:39.017Z</time></trkpt><trkpt lat="40.40204" lon="15.1276033"><ele>593.1666666666667</ele><time>2026-03-28T08:47:40.017Z</time></trkpt><trkpt lat="40.4021033" lon="15.1276717"><ele>594.3333333333334</ele><time>2026-03-28T08:47:41.018Z</time></trkpt><trkpt lat="40.4021383" lon="15.1277533"><ele>595.5</ele><time>2026-03-28T08:47:42.018Z</time></trkpt><trkpt lat="40.4021583" lon="15.1278583"><ele>596.6666666666666</ele><time>2026-03-28T08:47:43.017Z</time></trkpt><trkpt lat="40.4021767" lon="15.127985"><ele>597.8333333333333</ele><time>2026-03-28T08:47:44.017Z</time></trkpt><trkpt lat="40.4021983" lon="15.1281167"><ele>599.0</ele><time>2026-03-28T08:47:45.017Z</time></trkpt><trkpt lat="40.402225" lon="15.1282517"><ele>600.2</ele><time>2026-03-28T08:47:46.018Z</time></trkpt><trkpt lat="40.4022583" lon="15.1283767"><ele>601.4</ele><time>2026-03-28T08:47:47.018Z</time></trkpt><trkpt lat="40.4023" lon="15.128495"><ele>602.6</ele><time>2026-03-28T08:47:48.018Z</time></trkpt><trkpt lat="40.4023533" lon="15.1286233"><ele>603.8</ele><time>2026-03-28T08:47:49.017Z</time></trkpt><trkpt lat="40.402385" lon="15.1287567"><ele>605.0</ele><time>2026-03-28T08:47:50.017Z</time></trkpt><trkpt lat="40.402395" lon="15.128905"><ele>606.75</ele><time>2026-03-28T08:47:51.017Z</time></trkpt><trkpt lat="40.4024017" lon="15.1290733"><ele>608.5</ele><time>2026-03-28T08:47:52.017Z</time></trkpt><trkpt lat="40.40242" lon="15.1292567"><ele>610.25</ele><time>2026-03-28T08:47:53.018Z</time></trkpt><trkpt lat="40.4024467" lon="15.1294317"><ele>612.0</ele><time>2026-03-28T08:47:54.017Z</time></trkpt><trkpt lat="40.402475" lon="15.129585"><ele>612.0</ele><time>2026-03-28T08:47:55.017Z</time></trkpt><trkpt lat="40.4025117" lon="15.1297217"><ele>612.0</ele><time>2026-03-28T08:47:56.017Z</time></trkpt><trkpt lat="40.402565" lon="15.1298433"><ele>612.0</ele><time>2026-03-28T08:47:57.018Z</time></trkpt><trkpt lat="40.402625" lon="15.1299483"><ele>612.0</ele><time>2026-03-28T08:47:58.017Z</time></trkpt><trkpt lat="40.4026767" lon="15.1300283"><ele>612.0</ele><time>2026-03-28T08:47:59.017Z</time></trkpt><trkpt lat="40.4027233" lon="15.1300883"><ele>613.6</ele><time>2026-03-28T08:48:00.017Z</time></trkpt><trkpt lat="40.402845" lon="15.1301617"><ele>615.2</ele><time>2026-03-28T08:48:02.017Z</time></trkpt><trkpt lat="40.4029217" lon="15.13018"><ele>616.8</ele><time>2026-03-28T08:48:03.017Z</time></trkpt><trkpt lat="40.4030017" lon="15.13021"><ele>618.4</ele><time>2026-03-28T08:48:04.018Z</time></trkpt><trkpt lat="40.4030917" lon="15.1302417"><ele>620.0</ele><time>2026-03-28T08:48:05.017Z</time></trkpt><trkpt lat="40.4031933" lon="15.1302683"><ele>621.0</ele><time>2026-03-28T08:48:06.017Z</time></trkpt><trkpt lat="40.4033033" lon="15.130285"><ele>622.0</ele><time>2026-03-28T08:48:07.017Z</time></trkpt><trkpt lat="40.4034083" lon="15.1303"><ele>623.0</ele><time>2026-03-28T08:48:08.017Z</time></trkpt><trkpt lat="40.40352" lon="15.1303183"><ele>624.0</ele><time>2026-03-28T08:48:09.017Z</time></trkpt><trkpt lat="40.40364" lon="15.130355"><ele>624.0</ele><time>2026-03-28T08:48:10.018Z</time></trkpt><trkpt lat="40.403775" lon="15.13039"><ele>624.0</ele><time>2026-03-28T08:48:11.018Z</time></trkpt><trkpt lat="40.4039067" lon="15.130425"><ele>624.0</ele><time>2026-03-28T08:48:12.018Z</time></trkpt><trkpt lat="40.404015" lon="15.130455"><ele>624.0</ele><time>2026-03-28T08:48:13.017Z</time></trkpt><trkpt lat="40.4040983" lon="15.13049"><ele>624.8</ele><time>2026-03-28T08:48:14.017Z</time></trkpt><trkpt lat="40.4041567" lon="15.130545"><ele>625.5999999999999</ele><time>2026-03-28T08:48:15.017Z</time></trkpt><trkpt lat="40.4042033" lon="15.130605"><ele>626.4</ele><time>2026-03-28T08:48:16.018Z</time></trkpt><trkpt lat="40.404255" lon="15.13066"><ele>627.1999999999999</ele><time>2026-03-28T08:48:17.018Z</time></trkpt><trkpt lat="40.4043467" lon="15.1307633"><ele>628.0</ele><time>2026-03-28T08:48:19.017Z</time></trkpt><trkpt lat="40.4044117" lon="15.1309067"><ele>629.4</ele><time>2026-03-28T08:48:21.017Z</time></trkpt><trkpt lat="40.404435" lon="15.1310083"><ele>630.8</ele><time>2026-03-28T08:48:22.018Z</time></trkpt><trkpt lat="40.4044717" lon="15.1311267"><ele>632.2</ele><time>2026-03-28T08:48:23.018Z</time></trkpt><trkpt lat="40.4045217" lon="15.1312517"><ele>633.6</ele><time>2026-03-28T08:48:24.018Z</time></trkpt><trkpt lat="40.4045917" lon="15.13137"><ele>635.0</ele><time>2026-03-28T08:48:25.017Z</time></trkpt><trkpt lat="40.4046883" lon="15.13148"><ele>638.25</ele><time>2026-03-28T08:48:26.017Z</time></trkpt><trkpt lat="40.4047983" lon="15.1315833"><ele>641.5</ele><time>2026-03-28T08:48:27.017Z</time></trkpt><trkpt lat="40.4049117" lon="15.131685"><ele>644.75</ele><time>2026-03-28T08:48:28.018Z</time></trkpt><trkpt lat="40.405015" lon="15.1317783"><ele>648.0</ele><time>2026-03-28T08:48:29.017Z</time></trkpt><trkpt lat="40.4050833" lon="15.1318867"><ele>648.0</ele><time>2026-03-28T08:48:30.017Z</time></trkpt><trkpt lat="40.4051283" lon="15.1320183"><ele>648.0</ele><time>2026-03-28T08:48:31.018Z</time></trkpt><trkpt lat="40.405175" lon="15.1321633"><ele>648.0</ele><time>2026-03-28T08:48:32.017Z</time></trkpt><trkpt lat="40.4052367" lon="15.1323033"><ele>648.0</ele><time>2026-03-28T08:48:33.018Z</time></trkpt><trkpt lat="40.405315" lon="15.1324333"><ele>650.0</ele><time>2026-03-28T08:48:34.017Z</time></trkpt><trkpt lat="40.405375" lon="15.132555"><ele>652.0</ele><time>2026-03-28T08:48:35.018Z</time></trkpt><trkpt lat="40.4054117" lon="15.1326867"><ele>654.0</ele><time>2026-03-28T08:48:36.018Z</time></trkpt><trkpt lat="40.4054333" lon="15.1328467"><ele>656.0</ele><time>2026-03-28T08:48:37.017Z</time></trkpt><trkpt lat="40.40545" lon="15.1330183"><ele>656.0</ele><time>2026-03-28T08:48:38.018Z</time></trkpt><trkpt lat="40.4054567" lon="15.1331917"><ele>656.0</ele><time>2026-03-28T08:48:39.017Z</time></trkpt><trkpt lat="40.40546" lon="15.1333683"><ele>656.0</ele><time>2026-03-28T08:48:40.017Z</time></trkpt><trkpt lat="40.405485" lon="15.1335467"><ele>656.0</ele><time>2026-03-28T08:48:41.017Z</time></trkpt><trkpt lat="40.4055267" lon="15.1337217"><ele>659.25</ele><time>2026-03-28T08:48:42.018Z</time></trkpt><trkpt lat="40.40558" lon="15.1338917"><ele>662.5</ele><time>2026-03-28T08:48:43.017Z</time></trkpt><trkpt lat="40.4056217" lon="15.134045"><ele>665.75</ele><time>2026-03-28T08:48:44.017Z</time></trkpt><trkpt lat="40.4056633" lon="15.1341983"><ele>669.0</ele><time>2026-03-28T08:48:45.018Z</time></trkpt><trkpt lat="40.4057183" lon="15.13435"><ele>671.75</ele><time>2026-03-28T08:48:46.017Z</time></trkpt><trkpt lat="40.4057933" lon="15.134495"><ele>674.5</ele><time>2026-03-28T08:48:47.017Z</time></trkpt><trkpt lat="40.40588" lon="15.1346367"><ele>677.25</ele><time>2026-03-28T08:48:48.018Z</time></trkpt><trkpt lat="40.405975" lon="15.1347667"><ele>680.0</ele><time>2026-03-28T08:48:49.017Z</time></trkpt><trkpt lat="40.4060783" lon="15.1348683"><ele>682.2</ele><time>2026-03-28T08:48:50.018Z</time></trkpt><trkpt lat="40.406175" lon="15.1349533"><ele>684.4</ele><time>2026-03-28T08:48:51.017Z</time></trkpt><trkpt lat="40.4062717" lon="15.135015"><ele>686.5999999999999</ele><time>2026-03-28T08:48:52.017Z</time></trkpt><trkpt lat="40.4063533" lon="15.1350517"><ele>688.8</ele><time>2026-03-28T08:48:53.018Z</time></trkpt><trkpt lat="40.40643" lon="15.1350867"><ele>691.0</ele><time>2026-03-28T08:48:54.017Z</time></trkpt><trkpt lat="40.4064917" lon="15.1351417"><ele>692.5714285714286</ele><time>2026-03-28T08:48:55.017Z</time></trkpt><trkpt lat="40.406535" lon="15.1352133"><ele>694.1428571428571</ele><time>2026-03-28T08:48:56.017Z</time></trkpt><trkpt lat="40.4065533" lon="15.1352983"><ele>695.7142857142858</ele><time>2026-03-28T08:48:57.017Z</time></trkpt><trkpt lat="40.40655" lon="15.1353867"><ele>697.2857142857142</ele><time>2026-03-28T08:48:58.017Z</time></trkpt><trkpt lat="40.40652" lon="15.1354683"><ele>698.8571428571429</ele><time>2026-03-28T08:48:59.017Z</time></trkpt><trkpt lat="40.40647" lon="15.1355433"><ele>700.4285714285714</ele><time>2026-03-28T08:49:00.017Z</time></trkpt><trkpt lat="40.4064133" lon="15.1356133"><ele>702.0</ele><time>2026-03-28T08:49:01.017Z</time></trkpt><trkpt lat="40.4063367" lon="15.1356867"><ele>702.25</ele><time>2026-03-28T08:49:02.017Z</time></trkpt><trkpt lat="40.4062517" lon="15.1357633"><ele>702.5</ele><time>2026-03-28T08:49:03.018Z</time></trkpt><trkpt lat="40.4061617" lon="15.1358433"><ele>702.75</ele><time>2026-03-28T08:49:04.018Z</time></trkpt><trkpt lat="40.40606" lon="15.1359317"><ele>703.0</ele><time>2026-03-28T08:49:05.017Z</time></trkpt><trkpt lat="40.4059617" lon="15.13603"><ele>703.0</ele><time>2026-03-28T08:49:06.017Z</time></trkpt><trkpt lat="40.40586" lon="15.136135"><ele>703.0</ele><time>2026-03-28T08:49:07.018Z</time></trkpt><trkpt lat="40.4057517" lon="15.1362483"><ele>703.0</ele><time>2026-03-28T08:49:08.017Z</time></trkpt><trkpt lat="40.4056417" lon="15.13637"><ele>703.0</ele><time>2026-03-28T08:49:09.018Z</time></trkpt><trkpt lat="40.405525" lon="15.1364967"><ele>706.6666666666667</ele><time>2026-03-28T08:49:10.018Z</time></trkpt><trkpt lat="40.4054167" lon="15.136625"><ele>710.3333333333334</ele><time>2026-03-28T08:49:11.017Z</time></trkpt><trkpt lat="40.4052917" lon="15.1367567"><ele>714.0</ele><time>2026-03-28T08:49:12.017Z</time></trkpt><trkpt lat="40.4051633" lon="15.13689"><ele>714.0</ele><time>2026-03-28T08:49:13.018Z</time></trkpt><trkpt lat="40.40502" lon="15.1370183"><ele>714.0</ele><time>2026-03-28T08:49:14.018Z</time></trkpt><trkpt lat="40.40488" lon="15.1371383"><ele>714.0</ele><time>2026-03-28T08:49:15.017Z</time></trkpt><trkpt lat="40.4047533" lon="15.1372433"><ele>712.8000000000001</ele><time>2026-03-28T08:49:16.018Z</time></trkpt><trkpt lat="40.4046533" lon="15.137335"><ele>711.6</ele><time>2026-03-28T08:49:17.017Z</time></trkpt><trkpt lat="40.4045883" lon="15.1374183"><ele>710.4</ele><time>2026-03-28T08:49:18.018Z</time></trkpt><trkpt lat="40.4045483" lon="15.1374917"><ele>709.2</ele><time>2026-03-28T08:49:19.017Z</time></trkpt><trkpt lat="40.404585" lon="15.13761"><ele>708.0</ele><time>2026-03-28T08:49:21.017Z</time></trkpt><trkpt lat="40.4047183" lon="15.1376683"><ele>713.75</ele><time>2026-03-28T08:49:23.018Z</time></trkpt><trkpt lat="40.40482" lon="15.1376917"><ele>719.5</ele><time>2026-03-28T08:49:24.017Z</time></trkpt><trkpt lat="40.4049517" lon="15.137725"><ele>725.25</ele><time>2026-03-28T08:49:25.017Z</time></trkpt><trkpt lat="40.40509" lon="15.13777"><ele>731.0</ele><time>2026-03-28T08:49:26.017Z</time></trkpt><trkpt lat="40.4052417" lon="15.1378383"><ele>731.0</ele><time>2026-03-28T08:49:27.017Z</time></trkpt><trkpt lat="40.4054117" lon="15.13791"><ele>731.0</ele><time>2026-03-28T08:49:28.017Z</time></trkpt><trkpt lat="40.4055817" lon="15.1379883"><ele>731.0</ele><time>2026-03-28T08:49:29.017Z</time></trkpt><trkpt lat="40.4057533" lon="15.1380533"><ele>732.6666666666666</ele><time>2026-03-28T08:49:30.018Z</time></trkpt><trkpt lat="40.4059367" lon="15.138105"><ele>734.3333333333334</ele><time>2026-03-28T08:49:31.017Z</time></trkpt><trkpt lat="40.4061117" lon="15.138155"><ele>736.0</ele><time>2026-03-28T08:49:32.017Z</time></trkpt><trkpt lat="40.4062783" lon="15.1382033"><ele>742.0</ele><time>2026-03-28T08:49:33.018Z</time></trkpt><trkpt lat="40.4064283" lon="15.13825"><ele>748.0</ele><time>2026-03-28T08:49:34.018Z</time></trkpt><trkpt lat="40.4065617" lon="15.1382883"><ele>754.0</ele><time>2026-03-28T08:49:35.018Z</time></trkpt><trkpt lat="40.4066967" lon="15.1383033"><ele>760.0</ele><time>2026-03-28T08:49:36.018Z</time></trkpt><trkpt lat="40.4068317" lon="15.1383"><ele>760.0</ele><time>2026-03-28T08:49:37.018Z</time></trkpt><trkpt lat="40.406965" lon="15.13828"><ele>760.0</ele><time>2026-03-28T08:49:38.018Z</time></trkpt><trkpt lat="40.40707" lon="15.1382667"><ele>760.0</ele><time>2026-03-28T08:49:39.017Z</time></trkpt><trkpt lat="40.40716" lon="15.13827"><ele>760.0</ele><time>2026-03-28T08:49:40.017Z</time></trkpt><trkpt lat="40.4072233" lon="15.1383033"><ele>760.0</ele><time>2026-03-28T08:49:41.018Z</time></trkpt><trkpt lat="40.4072717" lon="15.138365"><ele>760.75</ele><time>2026-03-28T08:49:42.017Z</time></trkpt><trkpt lat="40.4073117" lon="15.1384717"><ele>761.5</ele><time>2026-03-28T08:49:43.017Z</time></trkpt><trkpt lat="40.40734" lon="15.13861"><ele>762.25</ele><time>2026-03-28T08:49:44.017Z</time></trkpt><trkpt lat="40.4073383" lon="15.1387883"><ele>763.0</ele><time>2026-03-28T08:49:45.018Z</time></trkpt><trkpt lat="40.4073217" lon="15.1389717"><ele>765.75</ele><time>2026-03-28T08:49:46.018Z</time></trkpt><trkpt lat="40.4073233" lon="15.1391533"><ele>768.5</ele><time>2026-03-28T08:49:47.017Z</time></trkpt><trkpt lat="40.4073517" lon="15.13931"><ele>771.25</ele><time>2026-03-28T08:49:48.018Z</time></trkpt><trkpt lat="40.4074117" lon="15.139445"><ele>774.0</ele><time>2026-03-28T08:49:49.017Z</time></trkpt><trkpt lat="40.40747" lon="15.139565"><ele>774.0</ele><time>2026-03-28T08:49:50.018Z</time></trkpt><trkpt lat="40.4075017" lon="15.13967"><ele>774.0</ele><time>2026-03-28T08:49:51.017Z</time></trkpt><trkpt lat="40.4075033" lon="15.1397667"><ele>774.0</ele><time>2026-03-28T08:49:52.017Z</time></trkpt><trkpt lat="40.4074733" lon="15.1398483"><ele>774.0</ele><time>2026-03-28T08:49:53.018Z</time></trkpt><trkpt lat="40.4074133" lon="15.13992"><ele>774.0</ele><time>2026-03-28T08:49:54.018Z</time></trkpt><trkpt lat="40.4073483" lon="15.139995"><ele>774.0</ele><time>2026-03-28T08:49:55.018Z</time></trkpt><trkpt lat="40.4072883" lon="15.140065"><ele>776.6</ele><time>2026-03-28T08:49:56.018Z</time></trkpt><trkpt lat="40.4072783" lon="15.1402067"><ele>779.2</ele><time>2026-03-28T08:49:58.017Z</time></trkpt><trkpt lat="40.4073817" lon="15.1402733"><ele>781.8000000000001</ele><time>2026-03-28T08:50:00.018Z</time></trkpt><trkpt lat="40.407465" lon="15.140265"><ele>784.4000000000001</ele><time>2026-03-28T08:50:01.017Z</time></trkpt><trkpt lat="40.40757" lon="15.14024"><ele>787.0</ele><time>2026-03-28T08:50:02.017Z</time></trkpt><trkpt lat="40.4076917" lon="15.1402067"><ele>787.0</ele><time>2026-03-28T08:50:03.017Z</time></trkpt><trkpt lat="40.4078283" lon="15.1401867"><ele>787.0</ele><time>2026-03-28T08:50:04.017Z</time></trkpt><trkpt lat="40.407985" lon="15.14017"><ele>787.0</ele><time>2026-03-28T08:50:05.018Z</time></trkpt><trkpt lat="40.408155" lon="15.140155"><ele>789.0</ele><time>2026-03-28T08:50:06.018Z</time></trkpt><trkpt lat="40.4083233" lon="15.140145"><ele>791.0</ele><time>2026-03-28T08:50:07.018Z</time></trkpt><trkpt lat="40.40849" lon="15.1401383"><ele>793.0</ele><time>2026-03-28T08:50:08.018Z</time></trkpt><trkpt lat="40.4086583" lon="15.1401383"><ele>793.0</ele><time>2026-03-28T08:50:09.018Z</time></trkpt><trkpt lat="40.4088133" lon="15.14014"><ele>793.0</ele><time>2026-03-28T08:50:10.017Z</time></trkpt><trkpt lat="40.40894" lon="15.140155"><ele>793.0</ele><time>2026-03-28T08:50:11.018Z</time></trkpt><trkpt lat="40.40905" lon="15.1401817"><ele>793.0</ele><time>2026-03-28T08:50:12.017Z</time></trkpt><trkpt lat="40.4091583" lon="15.1402317"><ele>794.5999999999999</ele><time>2026-03-28T08:50:13.017Z</time></trkpt><trkpt lat="40.4092517" lon="15.1403083"><ele>796.1999999999999</ele><time>2026-03-28T08:50:14.017Z</time></trkpt><trkpt lat="40.4093283" lon="15.1404267"><ele>797.8</ele><time>2026-03-28T08:50:15.018Z</time></trkpt><trkpt lat="40.4093767" lon="15.1405733"><ele>799.4</ele><time>2026-03-28T08:50:16.017Z</time></trkpt><trkpt lat="40.4094" lon="15.1406933"><ele>801.0</ele><time>2026-03-28T08:50:17.017Z</time></trkpt><trkpt lat="40.409405" lon="15.1407867"><ele>802.0</ele><time>2026-03-28T08:50:18.017Z</time></trkpt><trkpt lat="40.4093733" lon="15.14086"><ele>803.0</ele><time>2026-03-28T08:50:19.017Z</time></trkpt><trkpt lat="40.4093133" lon="15.14092"><ele>804.0</ele><time>2026-03-28T08:50:20.019Z</time></trkpt><trkpt lat="40.409225" lon="15.1409733"><ele>805.0</ele><time>2026-03-28T08:50:21.018Z</time></trkpt><trkpt lat="40.4091167" lon="15.141035"><ele>806.0</ele><time>2026-03-28T08:50:22.018Z</time></trkpt><trkpt lat="40.4089967" lon="15.1411117"><ele>806.0</ele><time>2026-03-28T08:50:23.019Z</time></trkpt><trkpt lat="40.40889" lon="15.1412017"><ele>806.0</ele><time>2026-03-28T08:50:24.018Z</time></trkpt><trkpt lat="40.408805" lon="15.1412867"><ele>806.0</ele><time>2026-03-28T08:50:25.019Z</time></trkpt><trkpt lat="40.408735" lon="15.14137"><ele>806.0</ele><time>2026-03-28T08:50:26.018Z</time></trkpt><trkpt lat="40.40869" lon="15.1414717"><ele>806.0</ele><time>2026-03-28T08:50:27.019Z</time></trkpt><trkpt lat="40.4086767" lon="15.1415917"><ele>808.5</ele><time>2026-03-28T08:50:28.018Z</time></trkpt><trkpt lat="40.408685" lon="15.1417333"><ele>811.0</ele><time>2026-03-28T08:50:29.019Z</time></trkpt><trkpt lat="40.408715" lon="15.1418817"><ele>813.5</ele><time>2026-03-28T08:50:30.019Z</time></trkpt><trkpt lat="40.4087483" lon="15.1420517"><ele>816.0</ele><time>2026-03-28T08:50:31.018Z</time></trkpt><trkpt lat="40.4087867" lon="15.142245"><ele>818.6666666666667</ele><time>2026-03-28T08:50:32.018Z</time></trkpt><trkpt lat="40.4088333" lon="15.1424533"><ele>821.3333333333334</ele><time>2026-03-28T08:50:33.018Z</time></trkpt><trkpt lat="40.4088733" lon="15.14267"><ele>824.0</ele><time>2026-03-28T08:50:34.019Z</time></trkpt><trkpt lat="40.4089133" lon="15.142895"><ele>824.0</ele><time>2026-03-28T08:50:35.018Z</time></trkpt><trkpt lat="40.40896" lon="15.143125"><ele>824.0</ele><time>2026-03-28T08:50:36.019Z</time></trkpt><trkpt lat="40.4089983" lon="15.1433533"><ele>824.0</ele><time>2026-03-28T08:50:37.019Z</time></trkpt><trkpt lat="40.409045" lon="15.143575"><ele>828.6666666666667</ele><time>2026-03-28T08:50:38.018Z</time></trkpt><trkpt lat="40.409085" lon="15.1437833"><ele>833.3333333333333</ele><time>2026-03-28T08:50:39.018Z</time></trkpt><trkpt lat="40.409135" lon="15.1439883"><ele>838.0</ele><time>2026-03-28T08:50:40.018Z</time></trkpt><trkpt lat="40.409185" lon="15.1441867"><ele>845.0</ele><time>2026-03-28T08:50:41.018Z</time></trkpt><trkpt lat="40.4092367" lon="15.1443783"><ele>852.0</ele><time>2026-03-28T08:50:42.018Z</time></trkpt><trkpt lat="40.4092833" lon="15.1445717"><ele>859.0</ele><time>2026-03-28T08:50:43.018Z</time></trkpt><trkpt lat="40.4093383" lon="15.1447633"><ele>863.5</ele><time>2026-03-28T08:50:44.018Z</time></trkpt><trkpt lat="40.4094" lon="15.144955"><ele>868.0</ele><time>2026-03-28T08:50:45.018Z</time></trkpt><trkpt lat="40.4094667" lon="15.1451267"><ele>872.5</ele><time>2026-03-28T08:50:46.018Z</time></trkpt><trkpt lat="40.409525" lon="15.1452817"><ele>877.0</ele><time>2026-03-28T08:50:47.018Z</time></trkpt><trkpt lat="40.4095833" lon="15.1454117"><ele>877.0</ele><time>2026-03-28T08:50:48.018Z</time></trkpt><trkpt lat="40.40963" lon="15.1455317"><ele>877.0</ele><time>2026-03-28T08:50:49.018Z</time></trkpt><trkpt lat="40.40967" lon="15.14565"><ele>877.0</ele><time>2026-03-28T08:50:50.018Z</time></trkpt><trkpt lat="40.4096867" lon="15.1457783"><ele>877.0</ele><time>2026-03-28T08:50:51.018Z</time></trkpt><trkpt lat="40.4096783" lon="15.1459133"><ele>877.0</ele><time>2026-03-28T08:50:52.019Z</time></trkpt><trkpt lat="40.40966" lon="15.1460567"><ele>877.0</ele><time>2026-03-28T08:50:53.018Z</time></trkpt><trkpt lat="40.409655" lon="15.1462033"><ele>877.0</ele><time>2026-03-28T08:50:54.018Z</time></trkpt><trkpt lat="40.4096567" lon="15.14635"><ele>877.0</ele><time>2026-03-28T08:50:55.018Z</time></trkpt><trkpt lat="40.409685" lon="15.1465033"><ele>877.0</ele><time>2026-03-28T08:50:56.018Z</time></trkpt><trkpt lat="40.40973" lon="15.14666"><ele>877.0</ele><time>2026-03-28T08:50:57.018Z</time></trkpt><trkpt lat="40.4097933" lon="15.1468233"><ele>877.0</ele><time>2026-03-28T08:50:58.019Z</time></trkpt><trkpt lat="40.409855" lon="15.146995"><ele>877.0</ele><time>2026-03-28T08:50:59.018Z</time></trkpt><trkpt lat="40.4099167" lon="15.1471633"><ele>877.0</ele><time>2026-03-28T08:51:00.019Z</time></trkpt><trkpt lat="40.409965" lon="15.1473317"><ele>878.75</ele><time>2026-03-28T08:51:01.019Z</time></trkpt><trkpt lat="40.4100033" lon="15.147495"><ele>880.5</ele><time>2026-03-28T08:51:02.018Z</time></trkpt><trkpt lat="40.4100367" lon="15.1476633"><ele>882.25</ele><time>2026-03-28T08:51:03.018Z</time></trkpt><trkpt lat="40.4100717" lon="15.1478167"><ele>884.0</ele><time>2026-03-28T08:51:04.018Z</time></trkpt><trkpt lat="40.4101067" lon="15.1479583"><ele>884.0</ele><time>2026-03-28T08:51:05.018Z</time></trkpt><trkpt lat="40.410155" lon="15.1480917"><ele>884.0000000000001</ele><time>2026-03-28T08:51:06.019Z</time></trkpt><trkpt lat="40.4102133" lon="15.148215"><ele>884.0000000000001</ele><time>2026-03-28T08:51:07.019Z</time></trkpt><trkpt lat="40.41027" lon="15.148325"><ele>884.0</ele><time>2026-03-28T08:51:08.018Z</time></trkpt><trkpt lat="40.4103217" lon="15.1484117"><ele>884.0</ele><time>2026-03-28T08:51:09.019Z</time></trkpt><trkpt lat="40.41038" lon="15.1484833"><ele>883.4000000000001</ele><time>2026-03-28T08:51:10.018Z</time></trkpt><trkpt lat="40.4104567" lon="15.148535"><ele>882.8000000000001</ele><time>2026-03-28T08:51:11.019Z</time></trkpt><trkpt lat="40.4105333" lon="15.148545"><ele>882.1999999999999</ele><time>2026-03-28T08:51:12.018Z</time></trkpt><trkpt lat="40.4106267" lon="15.1485217"><ele>881.5999999999999</ele><time>2026-03-28T08:51:13.019Z</time></trkpt><trkpt lat="40.4107267" lon="15.1484617"><ele>881.0</ele><time>2026-03-28T08:51:14.019Z</time></trkpt><trkpt lat="40.410825" lon="15.148395"><ele>881.0000000000001</ele><time>2026-03-28T08:51:15.018Z</time></trkpt><trkpt lat="40.41092" lon="15.1483517"><ele>881.0</ele><time>2026-03-28T08:51:16.018Z</time></trkpt><trkpt lat="40.411005" lon="15.1483517"><ele>881.0</ele><time>2026-03-28T08:51:17.018Z</time></trkpt><trkpt lat="40.4110833" lon="15.1483917"><ele>881.0</ele><time>2026-03-28T08:51:18.018Z</time></trkpt><trkpt lat="40.4111433" lon="15.14847"><ele>881.0000000000001</ele><time>2026-03-28T08:51:19.018Z</time></trkpt><trkpt lat="40.4111917" lon="15.1485667"><ele>881.0</ele><time>2026-03-28T08:51:20.019Z</time></trkpt><trkpt lat="40.4112417" lon="15.14871"><ele>881.0</ele><time>2026-03-28T08:51:21.019Z</time></trkpt><trkpt lat="40.4112983" lon="15.14886"><ele>881.0</ele><time>2026-03-28T08:51:22.018Z</time></trkpt><trkpt lat="40.411365" lon="15.14901"><ele>881.0</ele><time>2026-03-28T08:51:23.019Z</time></trkpt><trkpt lat="40.4114233" lon="15.1491383"><ele>881.0</ele><time>2026-03-28T08:51:24.018Z</time></trkpt><trkpt lat="40.4114817" lon="15.1492267"><ele>884.0000000000001</ele><time>2026-03-28T08:51:25.018Z</time></trkpt><trkpt lat="40.411545" lon="15.1492917"><ele>887.0</ele><time>2026-03-28T08:51:26.019Z</time></trkpt><trkpt lat="40.4116133" lon="15.149315"><ele>890.0</ele><time>2026-03-28T08:51:27.019Z</time></trkpt><trkpt lat="40.4116933" lon="15.1493"><ele>893.0</ele><time>2026-03-28T08:51:28.019Z</time></trkpt><trkpt lat="40.4117817" lon="15.1492567"><ele>896.0000000000001</ele><time>2026-03-28T08:51:29.019Z</time></trkpt><trkpt lat="40.4118833" lon="15.1491883"><ele>899.0</ele><time>2026-03-28T08:51:30.019Z</time></trkpt><trkpt lat="40.4119917" lon="15.149105"><ele>898.25</ele><time>2026-03-28T08:51:31.018Z</time></trkpt><trkpt lat="40.4121083" lon="15.1490117"><ele>897.5</ele><time>2026-03-28T08:51:32.019Z</time></trkpt><trkpt lat="40.4122233" lon="15.1489167"><ele>896.75</ele><time>2026-03-28T08:51:33.019Z</time></trkpt><trkpt lat="40.4123333" lon="15.148795"><ele>896.0</ele><time>2026-03-28T08:51:34.018Z</time></trkpt><trkpt lat="40.4124367" lon="15.1486383"><ele>899.3333333333334</ele><time>2026-03-28T08:51:35.018Z</time></trkpt><trkpt lat="40.4125483" lon="15.1484517"><ele>902.6666666666667</ele><time>2026-03-28T08:51:36.018Z</time></trkpt><trkpt lat="40.412655" lon="15.148255"><ele>906.0</ele><time>2026-03-28T08:51:37.019Z</time></trkpt><trkpt lat="40.4127717" lon="15.1480467"><ele>906.0</ele><time>2026-03-28T08:51:38.018Z</time></trkpt><trkpt lat="40.41288" lon="15.1478183"><ele>906.0</ele><time>2026-03-28T08:51:39.019Z</time></trkpt><trkpt lat="40.41297" lon="15.147575"><ele>906.0</ele><time>2026-03-28T08:51:40.018Z</time></trkpt><trkpt lat="40.4130483" lon="15.1473283"><ele>913.6666666666667</ele><time>2026-03-28T08:51:41.018Z</time></trkpt><trkpt lat="40.4131083" lon="15.14711"><ele>921.3333333333334</ele><time>2026-03-28T08:51:42.019Z</time></trkpt><trkpt lat="40.413165" lon="15.1468967"><ele>929.0</ele><time>2026-03-28T08:51:43.018Z</time></trkpt><trkpt lat="40.4132167" lon="15.1466933"><ele>928.0</ele><time>2026-03-28T08:51:44.019Z</time></trkpt><trkpt lat="40.4132517" lon="15.1465017"><ele>927.0</ele><time>2026-03-28T08:51:45.019Z</time></trkpt><trkpt lat="40.4132833" lon="15.1463117"><ele>926.0</ele><time>2026-03-28T08:51:46.019Z</time></trkpt><trkpt lat="40.4133183" lon="15.1461267"><ele>925.0</ele><time>2026-03-28T08:51:47.019Z</time></trkpt><trkpt lat="40.4133433" lon="15.1459533"><ele>925.0</ele><time>2026-03-28T08:51:48.018Z</time></trkpt><trkpt lat="40.4133817" lon="15.1457967"><ele>925.0</ele><time>2026-03-28T08:51:49.018Z</time></trkpt><trkpt lat="40.4134233" lon="15.1456667"><ele>925.0</ele><time>2026-03-28T08:51:50.019Z</time></trkpt><trkpt lat="40.4134667" lon="15.145545"><ele>925.0</ele><time>2026-03-28T08:51:51.019Z</time></trkpt><trkpt lat="40.41351" lon="15.1454367"><ele>925.0</ele><time>2026-03-28T08:51:52.018Z</time></trkpt><trkpt lat="40.4135433" lon="15.1453317"><ele>923.3333333333333</ele><time>2026-03-28T08:51:53.019Z</time></trkpt><trkpt lat="40.4135767" lon="15.1452333"><ele>921.6666666666666</ele><time>2026-03-28T08:51:54.019Z</time></trkpt><trkpt lat="40.4136017" lon="15.1451433"><ele>920.0</ele><time>2026-03-28T08:51:55.019Z</time></trkpt><trkpt lat="40.4136317" lon="15.1450133"><ele>918.3333333333333</ele><time>2026-03-28T08:51:57.018Z</time></trkpt><trkpt lat="40.4136867" lon="15.1449567"><ele>916.6666666666666</ele><time>2026-03-28T08:51:59.018Z</time></trkpt><trkpt lat="40.41374" lon="15.145005"><ele>915.0</ele><time>2026-03-28T08:52:01.018Z</time></trkpt><trkpt lat="40.413745" lon="15.1451533"><ele>915.0</ele><time>2026-03-28T08:52:03.019Z</time></trkpt><trkpt lat="40.413725" lon="15.1452733"><ele>915.0</ele><time>2026-03-28T08:52:04.019Z</time></trkpt><trkpt lat="40.4137017" lon="15.14542"><ele>915.0</ele><time>2026-03-28T08:52:05.018Z</time></trkpt><trkpt lat="40.4136767" lon="15.1455967"><ele>915.0</ele><time>2026-03-28T08:52:06.019Z</time></trkpt><trkpt lat="40.413655" lon="15.1457983"><ele>918.3333333333333</ele><time>2026-03-28T08:52:07.018Z</time></trkpt><trkpt lat="40.413635" lon="15.146"><ele>921.6666666666666</ele><time>2026-03-28T08:52:08.019Z</time></trkpt><trkpt lat="40.4136333" lon="15.146195"><ele>925.0</ele><time>2026-03-28T08:52:09.018Z</time></trkpt><trkpt lat="40.4136467" lon="15.1463883"><ele>926.3333333333333</ele><time>2026-03-28T08:52:10.019Z</time></trkpt><trkpt lat="40.41367" lon="15.1466083"><ele>927.6666666666667</ele><time>2026-03-28T08:52:11.019Z</time></trkpt><trkpt lat="40.4137" lon="15.1468417"><ele>929.0</ele><time>2026-03-28T08:52:12.019Z</time></trkpt><trkpt lat="40.4137417" lon="15.1470833"><ele>929.0</ele><time>2026-03-28T08:52:13.019Z</time></trkpt><trkpt lat="40.413785" lon="15.1473117"><ele>929.0</ele><time>2026-03-28T08:52:14.018Z</time></trkpt><trkpt lat="40.413825" lon="15.1475233"><ele>929.0</ele><time>2026-03-28T08:52:15.018Z</time></trkpt><trkpt lat="40.4138633" lon="15.1477183"><ele>940.0</ele><time>2026-03-28T08:52:16.018Z</time></trkpt><trkpt lat="40.4138983" lon="15.1479033"><ele>951.0</ele><time>2026-03-28T08:52:17.019Z</time></trkpt><trkpt lat="40.4139333" lon="15.1480733"><ele>962.0</ele><time>2026-03-28T08:52:18.018Z</time></trkpt><trkpt lat="40.4139483" lon="15.14825"><ele>973.0</ele><time>2026-03-28T08:52:19.018Z</time></trkpt><trkpt lat="40.4139483" lon="15.14844"><ele>973.6666666666666</ele><time>2026-03-28T08:52:20.019Z</time></trkpt><trkpt lat="40.4139383" lon="15.1486433"><ele>974.3333333333333</ele><time>2026-03-28T08:52:21.019Z</time></trkpt><trkpt lat="40.4139233" lon="15.148855"><ele>975.0</ele><time>2026-03-28T08:52:22.019Z</time></trkpt><trkpt lat="40.41391" lon="15.1490533"><ele>975.75</ele><time>2026-03-28T08:52:23.018Z</time></trkpt><trkpt lat="40.4139" lon="15.1492383"><ele>976.5</ele><time>2026-03-28T08:52:24.018Z</time></trkpt><trkpt lat="40.4138867" lon="15.1494167"><ele>977.25</ele><time>2026-03-28T08:52:25.019Z</time></trkpt><trkpt lat="40.4138533" lon="15.149595"><ele>978.0</ele><time>2026-03-28T08:52:26.019Z</time></trkpt><trkpt lat="40.4138067" lon="15.1497783"><ele>969.0</ele><time>2026-03-28T08:52:27.019Z</time></trkpt><trkpt lat="40.4137483" lon="15.1499567"><ele>960.0</ele><time>2026-03-28T08:52:28.019Z</time></trkpt><trkpt lat="40.4136817" lon="15.150135"><ele>951.0</ele><time>2026-03-28T08:52:29.018Z</time></trkpt><trkpt lat="40.4136133" lon="15.1503133"><ele>951.0</ele><time>2026-03-28T08:52:30.019Z</time></trkpt><trkpt lat="40.413555" lon="15.1504883"><ele>951.0</ele><time>2026-03-28T08:52:31.019Z</time></trkpt><trkpt lat="40.4135067" lon="15.1506617"><ele>951.0</ele><time>2026-03-28T08:52:32.018Z</time></trkpt><trkpt lat="40.4134767" lon="15.15085"><ele>951.0</ele><time>2026-03-28T08:52:33.019Z</time></trkpt><trkpt lat="40.4134517" lon="15.1510367"><ele>956.3333333333333</ele><time>2026-03-28T08:52:34.019Z</time></trkpt><trkpt lat="40.4134317" lon="15.1512283"><ele>961.6666666666666</ele><time>2026-03-28T08:52:35.019Z</time></trkpt><trkpt lat="40.413425" lon="15.1514317"><ele>967.0</ele><time>2026-03-28T08:52:36.019Z</time></trkpt><trkpt lat="40.4134083" lon="15.1516367"><ele>970.0</ele><time>2026-03-28T08:52:37.018Z</time></trkpt><trkpt lat="40.4134017" lon="15.1518533"><ele>973.0</ele><time>2026-03-28T08:52:38.018Z</time></trkpt><trkpt lat="40.4133967" lon="15.1520833"><ele>976.0</ele><time>2026-03-28T08:52:39.018Z</time></trkpt><trkpt lat="40.4133867" lon="15.1523067"><ele>978.0</ele><time>2026-03-28T08:52:40.018Z</time></trkpt><trkpt lat="40.4133767" lon="15.152525"><ele>980.0</ele><time>2026-03-28T08:52:41.018Z</time></trkpt><trkpt lat="40.4133717" lon="15.1527417"><ele>982.0</ele><time>2026-03-28T08:52:42.018Z</time></trkpt><trkpt lat="40.4133833" lon="15.1529633"><ele>982.0</ele><time>2026-03-28T08:52:43.018Z</time></trkpt><trkpt lat="40.413405" lon="15.1531817"><ele>982.0</ele><time>2026-03-28T08:52:44.018Z</time></trkpt><trkpt lat="40.4134383" lon="15.1533933"><ele>982.0</ele><time>2026-03-28T08:52:45.018Z</time></trkpt><trkpt lat="40.4134783" lon="15.1535983"><ele>984.3333333333333</ele><time>2026-03-28T08:52:46.019Z</time></trkpt><trkpt lat="40.4135283" lon="15.1538017"><ele>986.6666666666667</ele><time>2026-03-28T08:52:47.018Z</time></trkpt><trkpt lat="40.4135817" lon="15.1539933"><ele>989.0</ele><time>2026-03-28T08:52:48.019Z</time></trkpt><trkpt lat="40.4136333" lon="15.1541667"><ele>989.5</ele><time>2026-03-28T08:52:49.018Z</time></trkpt><trkpt lat="40.41368" lon="15.1543317"><ele>990.0</ele><time>2026-03-28T08:52:50.019Z</time></trkpt><trkpt lat="40.41371" lon="15.15448"><ele>990.5</ele><time>2026-03-28T08:52:51.019Z</time></trkpt><trkpt lat="40.4137183" lon="15.154635"><ele>991.0</ele><time>2026-03-28T08:52:52.019Z</time></trkpt><trkpt lat="40.4137067" lon="15.15479"><ele>992.5</ele><time>2026-03-28T08:52:53.019Z</time></trkpt><trkpt lat="40.4136783" lon="15.1549417"><ele>994.0</ele><time>2026-03-28T08:52:54.018Z</time></trkpt><trkpt lat="40.41364" lon="15.1551033"><ele>995.5</ele><time>2026-03-28T08:52:55.018Z</time></trkpt><trkpt lat="40.4135967" lon="15.1552783"><ele>997.0</ele><time>2026-03-28T08:52:56.018Z</time></trkpt><trkpt lat="40.413545" lon="15.1554583"><ele>997.0</ele><time>2026-03-28T08:52:57.019Z</time></trkpt><trkpt lat="40.4134833" lon="15.1556333"><ele>997.0</ele><time>2026-03-28T08:52:58.018Z</time></trkpt><trkpt lat="40.4134133" lon="15.1558033"><ele>997.0</ele><time>2026-03-28T08:52:59.019Z</time></trkpt><trkpt lat="40.413335" lon="15.155955"><ele>997.0</ele><time>2026-03-28T08:53:00.018Z</time></trkpt><trkpt lat="40.4132483" lon="15.1561"><ele>1000.25</ele><time>2026-03-28T08:53:01.018Z</time></trkpt><trkpt lat="40.4131583" lon="15.1562333"><ele>1003.5</ele><time>2026-03-28T08:53:02.018Z</time></trkpt><trkpt lat="40.4130617" lon="15.156355"><ele>1006.75</ele><time>2026-03-28T08:53:03.018Z</time></trkpt><trkpt lat="40.4129667" lon="15.156475"><ele>1010.0</ele><time>2026-03-28T08:53:04.019Z</time></trkpt><trkpt lat="40.41288" lon="15.156595"><ele>1012.5</ele><time>2026-03-28T08:53:05.018Z</time></trkpt><trkpt lat="40.412805" lon="15.1567133"><ele>1015.0</ele><time>2026-03-28T08:53:06.018Z</time></trkpt><trkpt lat="40.4127367" lon="15.156835"><ele>1017.5</ele><time>2026-03-28T08:53:07.018Z</time></trkpt><trkpt lat="40.4126717" lon="15.156955"><ele>1020.0</ele><time>2026-03-28T08:53:08.018Z</time></trkpt><trkpt lat="40.4126083" lon="15.1570767"><ele>1020.0</ele><time>2026-03-28T08:53:09.019Z</time></trkpt><trkpt lat="40.4125417" lon="15.157195"><ele>1020.0</ele><time>2026-03-28T08:53:10.018Z</time></trkpt><trkpt lat="40.4124783" lon="15.1573183"><ele>1020.0</ele><time>2026-03-28T08:53:11.019Z</time></trkpt><trkpt lat="40.4124167" lon="15.15744"><ele>1020.0</ele><time>2026-03-28T08:53:12.018Z</time></trkpt><trkpt lat="40.4123633" lon="15.1575583"><ele>1020.0</ele><time>2026-03-28T08:53:13.019Z</time></trkpt><trkpt lat="40.412315" lon="15.15767"><ele>1020.3333333333334</ele><time>2026-03-28T08:53:14.019Z</time></trkpt><trkpt lat="40.4122717" lon="15.15778"><ele>1020.6666666666667</ele><time>2026-03-28T08:53:15.018Z</time></trkpt><trkpt lat="40.4122317" lon="15.1578833"><ele>1021.0</ele><time>2026-03-28T08:53:16.019Z</time></trkpt><trkpt lat="40.412195" lon="15.15798"><ele>1021.3333333333334</ele><time>2026-03-28T08:53:17.019Z</time></trkpt><trkpt lat="40.4121633" lon="15.1580733"><ele>1021.6666666666667</ele><time>2026-03-28T08:53:18.019Z</time></trkpt><trkpt lat="40.4121333" lon="15.1581617"><ele>1022.0</ele><time>2026-03-28T08:53:19.018Z</time></trkpt><trkpt lat="40.4121067" lon="15.1582517"><ele>1025.0</ele><time>2026-03-28T08:53:20.018Z</time></trkpt><trkpt lat="40.41208" lon="15.15834"><ele>1028.0</ele><time>2026-03-28T08:53:21.019Z</time></trkpt><trkpt lat="40.4120567" lon="15.1584267"><ele>1031.0</ele><time>2026-03-28T08:53:22.019Z</time></trkpt><trkpt lat="40.412035" lon="15.1585067"><ele>1034.0</ele><time>2026-03-28T08:53:23.019Z</time></trkpt><trkpt lat="40.4120133" lon="15.1585867"><ele>1037.0</ele><time>2026-03-28T08:53:24.018Z</time></trkpt><trkpt lat="40.4119867" lon="15.15867"><ele>1040.0</ele><time>2026-03-28T08:53:25.018Z</time></trkpt><trkpt lat="40.41196" lon="15.1587517"><ele>1043.0</ele><time>2026-03-28T08:53:26.018Z</time></trkpt><trkpt lat="40.4119317" lon="15.158835"><ele>1043.0</ele><time>2026-03-28T08:53:27.018Z</time></trkpt><trkpt lat="40.4119" lon="15.158915"><ele>1043.0</ele><time>2026-03-28T08:53:28.019Z</time></trkpt><trkpt lat="40.4118733" lon="15.158995"><ele>1043.0</ele><time>2026-03-28T08:53:29.019Z</time></trkpt><trkpt lat="40.4118467" lon="15.1590717"><ele>1043.0</ele><time>2026-03-28T08:53:30.019Z</time></trkpt><trkpt lat="40.4118133" lon="15.1592183"><ele>1043.0</ele><time>2026-03-28T08:53:32.019Z</time></trkpt><trkpt lat="40.41184" lon="15.1593517"><ele>1043.0</ele><time>2026-03-28T08:53:34.018Z</time></trkpt><trkpt lat="40.4119483" lon="15.1594467"><ele>1038.3333333333335</ele><time>2026-03-28T08:53:36.018Z</time></trkpt><trkpt lat="40.4120217" lon="15.15947"><ele>1033.6666666666667</ele><time>2026-03-28T08:53:37.018Z</time></trkpt><trkpt lat="40.4121017" lon="15.1594917"><ele>1029.0</ele><time>2026-03-28T08:53:38.019Z</time></trkpt><trkpt lat="40.4121833" lon="15.1595167"><ele>1024.3333333333333</ele><time>2026-03-28T08:53:39.018Z</time></trkpt><trkpt lat="40.4122633" lon="15.1595517"><ele>1019.6666666666666</ele><time>2026-03-28T08:53:40.018Z</time></trkpt><trkpt lat="40.4123317" lon="15.1595933"><ele>1015.0</ele><time>2026-03-28T08:53:41.018Z</time></trkpt><trkpt lat="40.4123867" lon="15.1596383"><ele>1011.8333333333333</ele><time>2026-03-28T08:53:42.018Z</time></trkpt><trkpt lat="40.4124383" lon="15.1597733"><ele>1008.6666666666666</ele><time>2026-03-28T08:53:44.019Z</time></trkpt><trkpt lat="40.4124367" lon="15.1598617"><ele>1005.5</ele><time>2026-03-28T08:53:45.018Z</time></trkpt><trkpt lat="40.4124067" lon="15.1599467"><ele>1002.3333333333333</ele><time>2026-03-28T08:53:46.018Z</time></trkpt><trkpt lat="40.4123517" lon="15.1600233"><ele>999.1666666666666</ele><time>2026-03-28T08:53:47.018Z</time></trkpt><trkpt lat="40.4122983" lon="15.1601033"><ele>996.0</ele><time>2026-03-28T08:53:48.018Z</time></trkpt><trkpt lat="40.41225" lon="15.1601933"><ele>995.0</ele><time>2026-03-28T08:53:49.018Z</time></trkpt><trkpt lat="40.4122083" lon="15.16029"><ele>994.0</ele><time>2026-03-28T08:53:50.019Z</time></trkpt><trkpt lat="40.4121733" lon="15.1603933"><ele>993.0</ele><time>2026-03-28T08:53:51.018Z</time></trkpt><trkpt lat="40.4121433" lon="15.1605067"><ele>992.0</ele><time>2026-03-28T08:53:52.019Z</time></trkpt><trkpt lat="40.4121167" lon="15.1606217"><ele>991.0</ele><time>2026-03-28T08:53:53.018Z</time></trkpt><trkpt lat="40.4120867" lon="15.1607317"><ele>990.0</ele><time>2026-03-28T08:53:54.019Z</time></trkpt><trkpt lat="40.412055" lon="15.1608333"><ele>986.3333333333334</ele><time>2026-03-28T08:53:55.018Z</time></trkpt><trkpt lat="40.4120183" lon="15.1609233"><ele>982.6666666666667</ele><time>2026-03-28T08:53:56.018Z</time></trkpt><trkpt lat="40.4119767" lon="15.1609967"><ele>979.0</ele><time>2026-03-28T08:53:57.018Z</time></trkpt><trkpt lat="40.411925" lon="15.1610517"><ele>975.3333333333334</ele><time>2026-03-28T08:53:58.019Z</time></trkpt><trkpt lat="40.4118567" lon="15.16108"><ele>971.6666666666667</ele><time>2026-03-28T08:53:59.018Z</time></trkpt><trkpt lat="40.411765" lon="15.1610867"><ele>968.0</ele><time>2026-03-28T08:54:00.018Z</time></trkpt><trkpt lat="40.4116533" lon="15.1610867"><ele>968.0</ele><time>2026-03-28T08:54:01.019Z</time></trkpt><trkpt lat="40.41154" lon="15.1610917"><ele>968.0</ele><time>2026-03-28T08:54:02.018Z</time></trkpt><trkpt lat="40.41143" lon="15.1611083"><ele>968.0</ele><time>2026-03-28T08:54:03.018Z</time></trkpt><trkpt lat="40.4113217" lon="15.1611333"><ele>968.0</ele><time>2026-03-28T08:54:04.018Z</time></trkpt><trkpt lat="40.41122" lon="15.1611583"><ele>968.0</ele><time>2026-03-28T08:54:05.018Z</time></trkpt><trkpt lat="40.4111133" lon="15.1611883"><ele>968.5999999999999</ele><time>2026-03-28T08:54:06.018Z</time></trkpt><trkpt lat="40.41101" lon="15.1612217"><ele>969.1999999999999</ele><time>2026-03-28T08:54:07.019Z</time></trkpt><trkpt lat="40.41091" lon="15.1612617"><ele>969.8</ele><time>2026-03-28T08:54:08.018Z</time></trkpt><trkpt lat="40.4108167" lon="15.1613067"><ele>970.4</ele><time>2026-03-28T08:54:09.018Z</time></trkpt><trkpt lat="40.4107317" lon="15.1613633"><ele>971.0</ele><time>2026-03-28T08:54:10.019Z</time></trkpt><trkpt lat="40.4106517" lon="15.1614367"><ele>971.0</ele><time>2026-03-28T08:54:11.018Z</time></trkpt><trkpt lat="40.41058" lon="15.1615283"><ele>970.9999999999999</ele><time>2026-03-28T08:54:12.018Z</time></trkpt><trkpt lat="40.4105183" lon="15.161635"><ele>970.9999999999999</ele><time>2026-03-28T08:54:13.018Z</time></trkpt><trkpt lat="40.4104633" lon="15.1617583"><ele>971.0</ele><time>2026-03-28T08:54:14.019Z</time></trkpt><trkpt lat="40.4104133" lon="15.1618917"><ele>971.0</ele><time>2026-03-28T08:54:15.019Z</time></trkpt><trkpt lat="40.4103683" lon="15.16203"><ele>965.25</ele><time>2026-03-28T08:54:16.019Z</time></trkpt><trkpt lat="40.4103283" lon="15.162175"><ele>959.5</ele><time>2026-03-28T08:54:17.018Z</time></trkpt><trkpt lat="40.4102883" lon="15.162325"><ele>953.75</ele><time>2026-03-28T08:54:18.019Z</time></trkpt><trkpt lat="40.4102467" lon="15.1624783"><ele>948.0</ele><time>2026-03-28T08:54:19.018Z</time></trkpt><trkpt lat="40.41019" lon="15.1626333"><ele>945.75</ele><time>2026-03-28T08:54:20.018Z</time></trkpt><trkpt lat="40.4101183" lon="15.1627783"><ele>943.5</ele><time>2026-03-28T08:54:21.018Z</time></trkpt><trkpt lat="40.4100333" lon="15.162915"><ele>941.25</ele><time>2026-03-28T08:54:22.019Z</time></trkpt><trkpt lat="40.4099467" lon="15.1630483"><ele>939.0</ele><time>2026-03-28T08:54:23.019Z</time></trkpt><trkpt lat="40.4098667" lon="15.16318"><ele>936.6</ele><time>2026-03-28T08:54:24.018Z</time></trkpt><trkpt lat="40.4097933" lon="15.1633083"><ele>934.2</ele><time>2026-03-28T08:54:25.019Z</time></trkpt><trkpt lat="40.4097283" lon="15.1634467"><ele>931.8000000000001</ele><time>2026-03-28T08:54:26.019Z</time></trkpt><trkpt lat="40.4096733" lon="15.16356"><ele>929.4000000000001</ele><time>2026-03-28T08:54:27.018Z</time></trkpt><trkpt lat="40.409625" lon="15.1636633"><ele>927.0</ele><time>2026-03-28T08:54:28.018Z</time></trkpt><trkpt lat="40.4095767" lon="15.1637433"><ele>927.0</ele><time>2026-03-28T08:54:29.018Z</time></trkpt><trkpt lat="40.409525" lon="15.1637967"><ele>927.0</ele><time>2026-03-28T08:54:30.019Z</time></trkpt><trkpt lat="40.4094567" lon="15.163825"><ele>927.0</ele><time>2026-03-28T08:54:31.019Z</time></trkpt><trkpt lat="40.4093717" lon="15.16384"><ele>927.0</ele><time>2026-03-28T08:54:32.018Z</time></trkpt><trkpt lat="40.409275" lon="15.163875"><ele>927.0</ele><time>2026-03-28T08:54:33.018Z</time></trkpt><trkpt lat="40.4091767" lon="15.1639283"><ele>927.0</ele><time>2026-03-28T08:54:34.019Z</time></trkpt><trkpt lat="40.409085" lon="15.1639967"><ele>925.0</ele><time>2026-03-28T08:54:35.019Z</time></trkpt><trkpt lat="40.4090017" lon="15.16407"><ele>923.0</ele><time>2026-03-28T08:54:36.018Z</time></trkpt><trkpt lat="40.40893" lon="15.1641483"><ele>921.0</ele><time>2026-03-28T08:54:37.019Z</time></trkpt><trkpt lat="40.4088767" lon="15.164235"><ele>919.0</ele><time>2026-03-28T08:54:38.019Z</time></trkpt><trkpt lat="40.408835" lon="15.1643333"><ele>917.0</ele><time>2026-03-28T08:54:39.018Z</time></trkpt><trkpt lat="40.40881" lon="15.16444"><ele>915.0</ele><time>2026-03-28T08:54:40.019Z</time></trkpt><trkpt lat="40.4087883" lon="15.1645383"><ele>914.4</ele><time>2026-03-28T08:54:41.018Z</time></trkpt><trkpt lat="40.4087667" lon="15.1646217"><ele>913.8</ele><time>2026-03-28T08:54:42.019Z</time></trkpt><trkpt lat="40.4086983" lon="15.1647233"><ele>913.2</ele><time>2026-03-28T08:54:44.018Z</time></trkpt><trkpt lat="40.40858" lon="15.1647067"><ele>912.6</ele><time>2026-03-28T08:54:46.018Z</time></trkpt><trkpt lat="40.4084983" lon="15.164655"><ele>912.0</ele><time>2026-03-28T08:54:47.018Z</time></trkpt><trkpt lat="40.408405" lon="15.16461"><ele>912.0</ele><time>2026-03-28T08:54:48.018Z</time></trkpt><trkpt lat="40.4083117" lon="15.1645917"><ele>912.0</ele><time>2026-03-28T08:54:49.019Z</time></trkpt><trkpt lat="40.4082133" lon="15.1646"><ele>912.0</ele><time>2026-03-28T08:54:50.018Z</time></trkpt><trkpt lat="40.40812" lon="15.1646267"><ele>912.0</ele><time>2026-03-28T08:54:51.019Z</time></trkpt><trkpt lat="40.4080283" lon="15.164665"><ele>912.0</ele><time>2026-03-28T08:54:52.018Z</time></trkpt><trkpt lat="40.4079283" lon="15.1647233"><ele>913.6</ele><time>2026-03-28T08:54:53.019Z</time></trkpt><trkpt lat="40.4078383" lon="15.1647817"><ele>915.2</ele><time>2026-03-28T08:54:54.019Z</time></trkpt><trkpt lat="40.4077517" lon="15.1648417"><ele>916.8</ele><time>2026-03-28T08:54:55.018Z</time></trkpt><trkpt lat="40.4076717" lon="15.1649067"><ele>918.4</ele><time>2026-03-28T08:54:56.018Z</time></trkpt><trkpt lat="40.4075933" lon="15.1649717"><ele>920.0</ele><time>2026-03-28T08:54:57.019Z</time></trkpt><trkpt lat="40.4075117" lon="15.1650417"><ele>916.6666666666667</ele><time>2026-03-28T08:54:58.019Z</time></trkpt><trkpt lat="40.4074433" lon="15.1651317"><ele>913.3333333333334</ele><time>2026-03-28T08:54:59.019Z</time></trkpt><trkpt lat="40.4073883" lon="15.165225"><ele>910.0</ele><time>2026-03-28T08:55:00.019Z</time></trkpt><trkpt lat="40.4073483" lon="15.1653267"><ele>906.6666666666667</ele><time>2026-03-28T08:55:01.018Z</time></trkpt><trkpt lat="40.407315" lon="15.1654267"><ele>903.3333333333334</ele><time>2026-03-28T08:55:02.018Z</time></trkpt><trkpt lat="40.4072933" lon="15.16552"><ele>900.0</ele><time>2026-03-28T08:55:03.018Z</time></trkpt><trkpt lat="40.4072967" lon="15.1656033"><ele>900.0</ele><time>2026-03-28T08:55:04.019Z</time></trkpt><trkpt lat="40.4073283" lon="15.1656767"><ele>900.0</ele><time>2026-03-28T08:55:05.018Z</time></trkpt><trkpt lat="40.407385" lon="15.165745"><ele>900.0</ele><time>2026-03-28T08:55:06.018Z</time></trkpt><trkpt lat="40.4074733" lon="15.16581"><ele>900.0</ele><time>2026-03-28T08:55:07.018Z</time></trkpt><trkpt lat="40.407595" lon="15.165875"><ele>900.0</ele><time>2026-03-28T08:55:08.019Z</time></trkpt><trkpt lat="40.4077283" lon="15.1659433"><ele>893.6666666666667</ele><time>2026-03-28T08:55:09.019Z</time></trkpt><trkpt lat="40.4078717" lon="15.166015"><ele>887.3333333333334</ele><time>2026-03-28T08:55:10.019Z</time></trkpt><trkpt lat="40.408015" lon="15.1660917"><ele>881.0</ele><time>2026-03-28T08:55:11.018Z</time></trkpt><trkpt lat="40.408155" lon="15.1661683"><ele>880.0</ele><time>2026-03-28T08:55:12.019Z</time></trkpt><trkpt lat="40.4082917" lon="15.1662383"><ele>879.0</ele><time>2026-03-28T08:55:13.019Z</time></trkpt><trkpt lat="40.408425" lon="15.1663017"><ele>878.0</ele><time>2026-03-28T08:55:14.019Z</time></trkpt><trkpt lat="40.408555" lon="15.1663583"><ele>877.0</ele><time>2026-03-28T08:55:15.018Z</time></trkpt><trkpt lat="40.40868" lon="15.1664183"><ele>877.0</ele><time>2026-03-28T08:55:16.018Z</time></trkpt><trkpt lat="40.4087983" lon="15.1664867"><ele>877.0</ele><time>2026-03-28T08:55:17.019Z</time></trkpt><trkpt lat="40.4089033" lon="15.1665633"><ele>877.0</ele><time>2026-03-28T08:55:18.019Z</time></trkpt><trkpt lat="40.408985" lon="15.16664"><ele>877.0</ele><time>2026-03-28T08:55:19.018Z</time></trkpt><trkpt lat="40.4090517" lon="15.1667117"><ele>877.0</ele><time>2026-03-28T08:55:20.019Z</time></trkpt><trkpt lat="40.40911" lon="15.166785"><ele>875.1428571428572</ele><time>2026-03-28T08:55:21.019Z</time></trkpt><trkpt lat="40.4091617" lon="15.1668583"><ele>873.2857142857143</ele><time>2026-03-28T08:55:22.018Z</time></trkpt><trkpt lat="40.4092067" lon="15.1669317"><ele>871.4285714285714</ele><time>2026-03-28T08:55:23.018Z</time></trkpt><trkpt lat="40.4092467" lon="15.16701"><ele>869.5714285714287</ele><time>2026-03-28T08:55:24.019Z</time></trkpt><trkpt lat="40.4092817" lon="15.167095"><ele>867.7142857142857</ele><time>2026-03-28T08:55:25.018Z</time></trkpt><trkpt lat="40.409305" lon="15.1671883"><ele>865.8571428571429</ele><time>2026-03-28T08:55:26.019Z</time></trkpt><trkpt lat="40.4093133" lon="15.1672933"><ele>864.0</ele><time>2026-03-28T08:55:27.019Z</time></trkpt><trkpt lat="40.4093033" lon="15.1674033"><ele>862.0</ele><time>2026-03-28T08:55:28.019Z</time></trkpt><trkpt lat="40.4092783" lon="15.167515"><ele>860.0000000000001</ele><time>2026-03-28T08:55:29.019Z</time></trkpt><trkpt lat="40.409245" lon="15.1676317"><ele>858.0000000000001</ele><time>2026-03-28T08:55:30.018Z</time></trkpt><trkpt lat="40.4092033" lon="15.1677483"><ele>856.0</ele><time>2026-03-28T08:55:31.018Z</time></trkpt><trkpt lat="40.4091533" lon="15.1678633"><ele>854.0</ele><time>2026-03-28T08:55:32.018Z</time></trkpt><trkpt lat="40.4090933" lon="15.167965"><ele>854.0</ele><time>2026-03-28T08:55:33.019Z</time></trkpt><trkpt lat="40.4090217" lon="15.1680467"><ele>854.0000000000001</ele><time>2026-03-28T08:55:34.018Z</time></trkpt><trkpt lat="40.40894" lon="15.1681083"><ele>854.0000000000001</ele><time>2026-03-28T08:55:35.018Z</time></trkpt><trkpt lat="40.4088517" lon="15.1681583"><ele>854.0</ele><time>2026-03-28T08:55:36.019Z</time></trkpt><trkpt lat="40.4087633" lon="15.1682067"><ele>854.0</ele><time>2026-03-28T08:55:37.018Z</time></trkpt><trkpt lat="40.4086817" lon="15.16825"><ele>851.2857142857143</ele><time>2026-03-28T08:55:38.019Z</time></trkpt><trkpt lat="40.408615" lon="15.1682983"><ele>848.5714285714286</ele><time>2026-03-28T08:55:39.019Z</time></trkpt><trkpt lat="40.4085667" lon="15.1683633"><ele>845.8571428571429</ele><time>2026-03-28T08:55:40.018Z</time></trkpt><trkpt lat="40.408545" lon="15.168445"><ele>843.1428571428571</ele><time>2026-03-28T08:55:41.018Z</time></trkpt><trkpt lat="40.4085583" lon="15.1685283"><ele>840.4285714285714</ele><time>2026-03-28T08:55:42.019Z</time></trkpt><trkpt lat="40.408605" lon="15.1686067"><ele>837.7142857142858</ele><time>2026-03-28T08:55:43.018Z</time></trkpt><trkpt lat="40.4086683" lon="15.16867"><ele>835.0</ele><time>2026-03-28T08:55:44.019Z</time></trkpt><trkpt lat="40.4087367" lon="15.1687133"><ele>834.9999999999999</ele><time>2026-03-28T08:55:45.019Z</time></trkpt><trkpt lat="40.4088317" lon="15.1687567"><ele>835.0</ele><time>2026-03-28T08:55:47.018Z</time></trkpt><trkpt lat="40.4088217" lon="15.1688467"><ele>835.0</ele><time>2026-03-28T08:55:50.019Z</time></trkpt><trkpt lat="40.4087433" lon="15.168835"><ele>835.0</ele><time>2026-03-28T08:55:52.018Z</time></trkpt><trkpt lat="40.4086817" lon="15.168805"><ele>834.9999999999999</ele><time>2026-03-28T08:55:53.018Z</time></trkpt><trkpt lat="40.4086083" lon="15.1687717"><ele>835.0</ele><time>2026-03-28T08:55:54.018Z</time></trkpt><trkpt lat="40.4085283" lon="15.1687267"><ele>834.9999999999999</ele><time>2026-03-28T08:55:55.019Z</time></trkpt><trkpt lat="40.4084567" lon="15.16867"><ele>835.0</ele><time>2026-03-28T08:55:56.019Z</time></trkpt><trkpt lat="40.4084033" lon="15.1685983"><ele>835.0</ele><time>2026-03-28T08:55:57.019Z</time></trkpt><trkpt lat="40.408375" lon="15.16851"><ele>835.0</ele><time>2026-03-28T08:55:58.018Z</time></trkpt><trkpt lat="40.4083733" lon="15.1683933"><ele>834.9999999999999</ele><time>2026-03-28T08:55:59.019Z</time></trkpt><trkpt lat="40.4083783" lon="15.16826"><ele>835.0</ele><time>2026-03-28T08:56:00.018Z</time></trkpt><trkpt lat="40.4083683" lon="15.1681317"><ele>837.2</ele><time>2026-03-28T08:56:01.019Z</time></trkpt><trkpt lat="40.408335" lon="15.168015"><ele>839.4</ele><time>2026-03-28T08:56:02.019Z</time></trkpt><trkpt lat="40.4082817" lon="15.1679183"><ele>841.5999999999999</ele><time>2026-03-28T08:56:03.018Z</time></trkpt><trkpt lat="40.408205" lon="15.1678417"><ele>843.8</ele><time>2026-03-28T08:56:04.018Z</time></trkpt><trkpt lat="40.4081133" lon="15.1677817"><ele>846.0</ele><time>2026-03-28T08:56:05.018Z</time></trkpt><trkpt lat="40.4080083" lon="15.1677383"><ele>845.0</ele><time>2026-03-28T08:56:06.018Z</time></trkpt><trkpt lat="40.4078933" lon="15.16771"><ele>844.0</ele><time>2026-03-28T08:56:07.019Z</time></trkpt><trkpt lat="40.4077733" lon="15.1676933"><ele>843.0</ele><time>2026-03-28T08:56:08.019Z</time></trkpt><trkpt lat="40.4076483" lon="15.1676883"><ele>842.0</ele><time>2026-03-28T08:56:09.018Z</time></trkpt><trkpt lat="40.40752" lon="15.1676933"><ele>842.0</ele><time>2026-03-28T08:56:10.019Z</time></trkpt><trkpt lat="40.4073883" lon="15.1677167"><ele>842.0</ele><time>2026-03-28T08:56:11.019Z</time></trkpt><trkpt lat="40.4072517" lon="15.16775"><ele>842.0</ele><time>2026-03-28T08:56:12.019Z</time></trkpt><trkpt lat="40.40712" lon="15.1678083"><ele>842.0</ele><time>2026-03-28T08:56:13.019Z</time></trkpt><trkpt lat="40.4069767" lon="15.1678817"><ele>847.6666666666667</ele><time>2026-03-28T08:56:14.019Z</time></trkpt><trkpt lat="40.4068383" lon="15.1679667"><ele>853.3333333333333</ele><time>2026-03-28T08:56:15.019Z</time></trkpt><trkpt lat="40.406705" lon="15.1680567"><ele>859.0</ele><time>2026-03-28T08:56:16.019Z</time></trkpt><trkpt lat="40.40657" lon="15.168145"><ele>859.25</ele><time>2026-03-28T08:56:17.019Z</time></trkpt><trkpt lat="40.4064317" lon="15.1682217"><ele>859.5</ele><time>2026-03-28T08:56:18.018Z</time></trkpt><trkpt lat="40.4062933" lon="15.1682883"><ele>859.75</ele><time>2026-03-28T08:56:19.019Z</time></trkpt><trkpt lat="40.4061567" lon="15.1683483"><ele>860.0</ele><time>2026-03-28T08:56:20.018Z</time></trkpt><trkpt lat="40.40602" lon="15.1684117"><ele>860.0</ele><time>2026-03-28T08:56:21.019Z</time></trkpt><trkpt lat="40.4058833" lon="15.1684733"><ele>860.0</ele><time>2026-03-28T08:56:22.018Z</time></trkpt><trkpt lat="40.405745" lon="15.1685317"><ele>860.0</ele><time>2026-03-28T08:56:23.018Z</time></trkpt><trkpt lat="40.4056033" lon="15.1685833"><ele>860.0</ele><time>2026-03-28T08:56:24.018Z</time></trkpt><trkpt lat="40.4054617" lon="15.168635"><ele>869.25</ele><time>2026-03-28T08:56:25.018Z</time></trkpt><trkpt lat="40.40532" lon="15.1687"><ele>878.5</ele><time>2026-03-28T08:56:26.018Z</time></trkpt><trkpt lat="40.40518" lon="15.1687767"><ele>887.75</ele><time>2026-03-28T08:56:27.018Z</time></trkpt><trkpt lat="40.40505" lon="15.1688617"><ele>897.0</ele><time>2026-03-28T08:56:28.019Z</time></trkpt><trkpt lat="40.4049317" lon="15.1689517"><ele>895.0</ele><time>2026-03-28T08:56:29.019Z</time></trkpt><trkpt lat="40.40482" lon="15.1690417"><ele>893.0</ele><time>2026-03-28T08:56:30.018Z</time></trkpt><trkpt lat="40.4047183" lon="15.1691283"><ele>891.0</ele><time>2026-03-28T08:56:31.018Z</time></trkpt><trkpt lat="40.4046317" lon="15.169225"><ele>889.0</ele><time>2026-03-28T08:56:32.019Z</time></trkpt><trkpt lat="40.404555" lon="15.16934"><ele>889.0</ele><time>2026-03-28T08:56:33.019Z</time></trkpt><trkpt lat="40.40449" lon="15.1694767"><ele>889.0</ele><time>2026-03-28T08:56:34.019Z</time></trkpt><trkpt lat="40.4044317" lon="15.1696217"><ele>889.0</ele><time>2026-03-28T08:56:35.019Z</time></trkpt><trkpt lat="40.4043717" lon="15.1697667"><ele>889.0</ele><time>2026-03-28T08:56:36.018Z</time></trkpt><trkpt lat="40.404305" lon="15.16989"><ele>881.0</ele><time>2026-03-28T08:56:37.019Z</time></trkpt><trkpt lat="40.4042233" lon="15.169995"><ele>873.0</ele><time>2026-03-28T08:56:38.018Z</time></trkpt><trkpt lat="40.4041267" lon="15.17009"><ele>865.0</ele><time>2026-03-28T08:56:39.019Z</time></trkpt><trkpt lat="40.40402" lon="15.1701733"><ele>857.0</ele><time>2026-03-28T08:56:40.018Z</time></trkpt><trkpt lat="40.4039067" lon="15.1702533"><ele>864.5</ele><time>2026-03-28T08:56:41.019Z</time></trkpt><trkpt lat="40.4037883" lon="15.1703317"><ele>872.0</ele><time>2026-03-28T08:56:42.018Z</time></trkpt><trkpt lat="40.4036667" lon="15.170415"><ele>879.5</ele><time>2026-03-28T08:56:43.018Z</time></trkpt><trkpt lat="40.4035417" lon="15.170495"><ele>887.0</ele><time>2026-03-28T08:56:44.018Z</time></trkpt><trkpt lat="40.4034067" lon="15.170575"><ele>887.0</ele><time>2026-03-28T08:56:45.019Z</time></trkpt><trkpt lat="40.4032633" lon="15.17066"><ele>887.0</ele><time>2026-03-28T08:56:46.019Z</time></trkpt><trkpt lat="40.403115" lon="15.1707533"><ele>887.0</ele><time>2026-03-28T08:56:47.018Z</time></trkpt><trkpt lat="40.4029617" lon="15.1708517"><ele>884.6666666666667</ele><time>2026-03-28T08:56:48.019Z</time></trkpt><trkpt lat="40.4028033" lon="15.1709483"><ele>882.3333333333333</ele><time>2026-03-28T08:56:49.019Z</time></trkpt><trkpt lat="40.4026417" lon="15.1710467"><ele>880.0</ele><time>2026-03-28T08:56:50.019Z</time></trkpt><trkpt lat="40.4024817" lon="15.17115"><ele>880.0</ele><time>2026-03-28T08:56:51.018Z</time></trkpt><trkpt lat="40.4023317" lon="15.1712567"><ele>880.0</ele><time>2026-03-28T08:56:52.018Z</time></trkpt><trkpt lat="40.40219" lon="15.17137"><ele>880.0</ele><time>2026-03-28T08:56:53.018Z</time></trkpt><trkpt lat="40.4020617" lon="15.1714833"><ele>878.0</ele><time>2026-03-28T08:56:54.018Z</time></trkpt><trkpt lat="40.40194" lon="15.17159"><ele>876.0</ele><time>2026-03-28T08:56:55.019Z</time></trkpt><trkpt lat="40.4018283" lon="15.1716883"><ele>874.0</ele><time>2026-03-28T08:56:56.018Z</time></trkpt><trkpt lat="40.401735" lon="15.1717533"><ele>872.0</ele><time>2026-03-28T08:56:57.019Z</time></trkpt><trkpt lat="40.4016417" lon="15.1717767"><ele>872.0</ele><time>2026-03-28T08:56:58.018Z</time></trkpt><trkpt lat="40.4015433" lon="15.171775"><ele>872.0</ele><time>2026-03-28T08:56:59.018Z</time></trkpt><trkpt lat="40.40147" lon="15.1717417"><ele>872.0</ele><time>2026-03-28T08:57:00.019Z</time></trkpt><trkpt lat="40.4014017" lon="15.1716783"><ele>872.0</ele><time>2026-03-28T08:57:01.018Z</time></trkpt><trkpt lat="40.4013283" lon="15.1715933"><ele>872.0</ele><time>2026-03-28T08:57:02.018Z</time></trkpt><trkpt lat="40.40125" lon="15.1715017"><ele>873.0</ele><time>2026-03-28T08:57:03.019Z</time></trkpt><trkpt lat="40.401165" lon="15.171425"><ele>874.0</ele><time>2026-03-28T08:57:04.019Z</time></trkpt><trkpt lat="40.4010867" lon="15.1713667"><ele>875.0</ele><time>2026-03-28T08:57:05.018Z</time></trkpt><trkpt lat="40.4009983" lon="15.1713483"><ele>876.0</ele><time>2026-03-28T08:57:06.019Z</time></trkpt><trkpt lat="40.40092" lon="15.1713567"><ele>877.0</ele><time>2026-03-28T08:57:07.018Z</time></trkpt><trkpt lat="40.40082" lon="15.17145"><ele>877.2</ele><time>2026-03-28T08:57:09.018Z</time></trkpt><trkpt lat="40.4007867" lon="15.17153"><ele>877.4000000000001</ele><time>2026-03-28T08:57:10.018Z</time></trkpt><trkpt lat="40.4007583" lon="15.1716217"><ele>877.5999999999999</ele><time>2026-03-28T08:57:11.019Z</time></trkpt><trkpt lat="40.40073" lon="15.1717367"><ele>877.8</ele><time>2026-03-28T08:57:12.019Z</time></trkpt><trkpt lat="40.4007167" lon="15.1718783"><ele>878.0</ele><time>2026-03-28T08:57:13.018Z</time></trkpt><trkpt lat="40.4007" lon="15.1720467"><ele>878.0</ele><time>2026-03-28T08:57:14.019Z</time></trkpt><trkpt lat="40.4006883" lon="15.1722317"><ele>878.0</ele><time>2026-03-28T08:57:15.018Z</time></trkpt><trkpt lat="40.40068" lon="15.1724117"><ele>878.0</ele><time>2026-03-28T08:57:16.019Z</time></trkpt><trkpt lat="40.400675" lon="15.1725917"><ele>878.0</ele><time>2026-03-28T08:57:17.018Z</time></trkpt><trkpt lat="40.4006617" lon="15.17277"><ele>877.8</ele><time>2026-03-28T08:57:18.019Z</time></trkpt><trkpt lat="40.4006333" lon="15.1729367"><ele>877.5999999999999</ele><time>2026-03-28T08:57:19.018Z</time></trkpt><trkpt lat="40.4005933" lon="15.1730833"><ele>877.4000000000001</ele><time>2026-03-28T08:57:20.018Z</time></trkpt><trkpt lat="40.400545" lon="15.1732083"><ele>877.2</ele><time>2026-03-28T08:57:21.018Z</time></trkpt><trkpt lat="40.4004883" lon="15.1733"><ele>877.0</ele><time>2026-03-28T08:57:22.019Z</time></trkpt><trkpt lat="40.4004317" lon="15.17336"><ele>879.0</ele><time>2026-03-28T08:57:23.018Z</time></trkpt><trkpt lat="40.400365" lon="15.1733917"><ele>881.0</ele><time>2026-03-28T08:57:24.018Z</time></trkpt><trkpt lat="40.4002867" lon="15.1733883"><ele>883.0</ele><time>2026-03-28T08:57:25.019Z</time></trkpt><trkpt lat="40.40019" lon="15.1733467"><ele>885.0</ele><time>2026-03-28T08:57:26.019Z</time></trkpt><trkpt lat="40.4000817" lon="15.1732867"><ele>887.0</ele><time>2026-03-28T08:57:27.019Z</time></trkpt><trkpt lat="40.3999667" lon="15.1732433"><ele>887.0</ele><time>2026-03-28T08:57:28.019Z</time></trkpt><trkpt lat="40.3998417" lon="15.17321"><ele>887.0</ele><time>2026-03-28T08:57:29.019Z</time></trkpt><trkpt lat="40.3997133" lon="15.1731883"><ele>887.0</ele><time>2026-03-28T08:57:30.019Z</time></trkpt><trkpt lat="40.39957" lon="15.1731617"><ele>887.0</ele><time>2026-03-28T08:57:31.018Z</time></trkpt><trkpt lat="40.3994383" lon="15.1731417"><ele>889.75</ele><time>2026-03-28T08:57:32.018Z</time></trkpt><trkpt lat="40.3993117" lon="15.1731383"><ele>892.5</ele><time>2026-03-28T08:57:33.018Z</time></trkpt><trkpt lat="40.3991917" lon="15.1731483"><ele>895.25</ele><time>2026-03-28T08:57:34.018Z</time></trkpt><trkpt lat="40.3990717" lon="15.173185"><ele>898.0</ele><time>2026-03-28T08:57:35.018Z</time></trkpt><trkpt lat="40.3989483" lon="15.1732483"><ele>898.75</ele><time>2026-03-28T08:57:36.018Z</time></trkpt><trkpt lat="40.3988283" lon="15.173325"><ele>899.5</ele><time>2026-03-28T08:57:37.018Z</time></trkpt><trkpt lat="40.3987017" lon="15.1733967"><ele>900.25</ele><time>2026-03-28T08:57:38.018Z</time></trkpt><trkpt lat="40.39858" lon="15.1734783"><ele>901.0</ele><time>2026-03-28T08:57:39.018Z</time></trkpt><trkpt lat="40.398465" lon="15.1735333"><ele>901.0</ele><time>2026-03-28T08:57:40.019Z</time></trkpt><trkpt lat="40.3983533" lon="15.173545"><ele>900.9999999999999</ele><time>2026-03-28T08:57:41.018Z</time></trkpt><trkpt lat="40.398255" lon="15.1735133"><ele>900.9999999999999</ele><time>2026-03-28T08:57:42.019Z</time></trkpt><trkpt lat="40.39816" lon="15.1734533"><ele>901.0</ele><time>2026-03-28T08:57:43.019Z</time></trkpt><trkpt lat="40.3980683" lon="15.173365"><ele>901.0</ele><time>2026-03-28T08:57:44.019Z</time></trkpt><trkpt lat="40.3979633" lon="15.1732717"><ele>902.0</ele><time>2026-03-28T08:57:45.019Z</time></trkpt><trkpt lat="40.3978617" lon="15.1731833"><ele>902.9999999999999</ele><time>2026-03-28T08:57:46.018Z</time></trkpt><trkpt lat="40.3977717" lon="15.17311"><ele>903.9999999999999</ele><time>2026-03-28T08:57:47.019Z</time></trkpt><trkpt lat="40.3976867" lon="15.1730583"><ele>905.0</ele><time>2026-03-28T08:57:48.018Z</time></trkpt><trkpt lat="40.3976" lon="15.17303"><ele>906.0</ele><time>2026-03-28T08:57:49.018Z</time></trkpt><trkpt lat="40.3975167" lon="15.1730083"><ele>906.0</ele><time>2026-03-28T08:57:50.018Z</time></trkpt><trkpt lat="40.3974317" lon="15.1729817"><ele>906.0</ele><time>2026-03-28T08:57:51.019Z</time></trkpt><trkpt lat="40.397355" lon="15.1729433"><ele>906.0</ele><time>2026-03-28T08:57:52.018Z</time></trkpt><trkpt lat="40.39728" lon="15.1729"><ele>906.0</ele><time>2026-03-28T08:57:53.018Z</time></trkpt><trkpt lat="40.3972167" lon="15.1728483"><ele>906.0</ele><time>2026-03-28T08:57:54.019Z</time></trkpt><trkpt lat="40.3971283" lon="15.17277"><ele>906.0</ele><time>2026-03-28T08:57:56.019Z</time></trkpt><trkpt lat="40.397065" lon="15.17278"><ele>906.0</ele><time>2026-03-28T08:57:58.018Z</time></trkpt><trkpt lat="40.397085" lon="15.1728733"><ele>906.0</ele><time>2026-03-28T08:58:00.019Z</time></trkpt><trkpt lat="40.3971267" lon="15.1729367"><ele>906.0</ele><time>2026-03-28T08:58:01.018Z</time></trkpt><trkpt lat="40.3971833" lon="15.1730183"><ele>906.0</ele><time>2026-03-28T08:58:02.018Z</time></trkpt><trkpt lat="40.397235" lon="15.1730967"><ele>906.0</ele><time>2026-03-28T08:58:03.018Z</time></trkpt><trkpt lat="40.3972833" lon="15.173165"><ele>906.0</ele><time>2026-03-28T08:58:04.018Z</time></trkpt><trkpt lat="40.3973683" lon="15.1732617"><ele>901.8</ele><time>2026-03-28T08:58:06.019Z</time></trkpt><trkpt lat="40.3973967" lon="15.1733367"><ele>897.5999999999999</ele><time>2026-03-28T08:58:08.018Z</time></trkpt><trkpt lat="40.3972783" lon="15.173305"><ele>893.4</ele><time>2026-03-28T08:58:12.018Z</time></trkpt><trkpt lat="40.3971983" lon="15.1732367"><ele>889.2</ele><time>2026-03-28T08:58:13.019Z</time></trkpt><trkpt lat="40.3971217" lon="15.1731667"><ele>885.0</ele><time>2026-03-28T08:58:14.02Z</time></trkpt><trkpt lat="40.397055" lon="15.1730967"><ele>885.0</ele><time>2026-03-28T08:58:15.019Z</time></trkpt><trkpt lat="40.396995" lon="15.17304"><ele>885.0</ele><time>2026-03-28T08:58:16.02Z</time></trkpt><trkpt lat="40.3969" lon="15.1729867"><ele>885.0</ele><time>2026-03-28T08:58:18.02Z</time></trkpt><trkpt lat="40.3968383" lon="15.1730233"><ele>885.0</ele><time>2026-03-28T08:58:20.019Z</time></trkpt><trkpt lat="40.39683" lon="15.1731233"><ele>885.0</ele><time>2026-03-28T08:58:22.02Z</time></trkpt><trkpt lat="40.3968683" lon="15.173285"><ele>882.6666666666666</ele><time>2026-03-28T08:58:24.019Z</time></trkpt><trkpt lat="40.3968933" lon="15.1733817"><ele>880.3333333333333</ele><time>2026-03-28T08:58:25.02Z</time></trkpt><trkpt lat="40.396915" lon="15.173485"><ele>878.0</ele><time>2026-03-28T08:58:26.02Z</time></trkpt><trkpt lat="40.396935" lon="15.1735933"><ele>875.6666666666666</ele><time>2026-03-28T08:58:27.019Z</time></trkpt><trkpt lat="40.396955" lon="15.1736967"><ele>873.3333333333333</ele><time>2026-03-28T08:58:28.019Z</time></trkpt><trkpt lat="40.3969717" lon="15.1737883"><ele>871.0</ele><time>2026-03-28T08:58:29.02Z</time></trkpt><trkpt lat="40.396985" lon="15.17387"><ele>871.0</ele><time>2026-03-28T08:58:30.02Z</time></trkpt><trkpt lat="40.3970167" lon="15.1740133"><ele>870.9999999999999</ele><time>2026-03-28T08:58:32.019Z</time></trkpt><trkpt lat="40.3970733" lon="15.17412"><ele>870.9999999999999</ele><time>2026-03-28T08:58:34.019Z</time></trkpt><trkpt lat="40.3971533" lon="15.1741833"><ele>871.0</ele><time>2026-03-28T08:58:36.019Z</time></trkpt><trkpt lat="40.39722" lon="15.174225"><ele>871.0</ele><time>2026-03-28T08:58:38.019Z</time></trkpt><trkpt lat="40.3972667" lon="15.1743283"><ele>871.6666666666666</ele><time>2026-03-28T08:58:41.02Z</time></trkpt><trkpt lat="40.39725" lon="15.1744617"><ele>872.3333333333333</ele><time>2026-03-28T08:58:43.02Z</time></trkpt><trkpt lat="40.397225" lon="15.17456"><ele>873.0</ele><time>2026-03-28T08:58:44.02Z</time></trkpt><trkpt lat="40.3971867" lon="15.17466"><ele>873.6666666666667</ele><time>2026-03-28T08:58:45.02Z</time></trkpt><trkpt lat="40.3971483" lon="15.1747483"><ele>874.3333333333334</ele><time>2026-03-28T08:58:46.019Z</time></trkpt><trkpt lat="40.39711" lon="15.1748267"><ele>875.0</ele><time>2026-03-28T08:58:47.02Z</time></trkpt><trkpt lat="40.3970683" lon="15.174895"><ele>871.1666666666667</ele><time>2026-03-28T08:58:48.019Z</time></trkpt><trkpt lat="40.3970317" lon="15.1749733"><ele>867.3333333333334</ele><time>2026-03-28T08:58:49.019Z</time></trkpt><trkpt lat="40.3970017" lon="15.1750567"><ele>863.5</ele><time>2026-03-28T08:58:50.019Z</time></trkpt><trkpt lat="40.396985" lon="15.1751433"><ele>859.6666666666667</ele><time>2026-03-28T08:58:51.02Z</time></trkpt><trkpt lat="40.3969833" lon="15.1752417"><ele>855.8333333333334</ele><time>2026-03-28T08:58:52.02Z</time></trkpt><trkpt lat="40.397" lon="15.1753533"><ele>852.0</ele><time>2026-03-28T08:58:53.019Z</time></trkpt><trkpt lat="40.3970233" lon="15.17548"><ele>852.0</ele><time>2026-03-28T08:58:54.02Z</time></trkpt><trkpt lat="40.397055" lon="15.1755867"><ele>852.0</ele><time>2026-03-28T08:58:55.02Z</time></trkpt><trkpt lat="40.39709" lon="15.1756817"><ele>852.0</ele><time>2026-03-28T08:58:56.019Z</time></trkpt><trkpt lat="40.397135" lon="15.1757617"><ele>852.0</ele><time>2026-03-28T08:58:57.019Z</time></trkpt><trkpt lat="40.3971917" lon="15.175825"><ele>852.0</ele><time>2026-03-28T08:58:58.02Z</time></trkpt><trkpt lat="40.3972567" lon="15.1758783"><ele>852.0</ele><time>2026-03-28T08:58:59.019Z</time></trkpt><trkpt lat="40.3973283" lon="15.175925"><ele>853.3333333333334</ele><time>2026-03-28T08:59:00.02Z</time></trkpt><trkpt lat="40.3974017" lon="15.1759617"><ele>854.6666666666667</ele><time>2026-03-28T08:59:01.019Z</time></trkpt><trkpt lat="40.3974717" lon="15.175995"><ele>856.0</ele><time>2026-03-28T08:59:02.02Z</time></trkpt><trkpt lat="40.3975367" lon="15.1760233"><ele>857.3333333333334</ele><time>2026-03-28T08:59:03.019Z</time></trkpt><trkpt lat="40.3976433" lon="15.1760933"><ele>858.6666666666667</ele><time>2026-03-28T08:59:05.02Z</time></trkpt><trkpt lat="40.3977083" lon="15.1761983"><ele>860.0</ele><time>2026-03-28T08:59:07.02Z</time></trkpt><trkpt lat="40.39772" lon="15.1762817"><ele>860.0</ele><time>2026-03-28T08:59:08.02Z</time></trkpt><trkpt lat="40.3977167" lon="15.1764"><ele>860.0</ele><time>2026-03-28T08:59:09.02Z</time></trkpt><trkpt lat="40.3977067" lon="15.17655"><ele>860.0</ele><time>2026-03-28T08:59:10.02Z</time></trkpt><trkpt lat="40.3977067" lon="15.1766833"><ele>860.0</ele><time>2026-03-28T08:59:11.019Z</time></trkpt><trkpt lat="40.3977117" lon="15.1768067"><ele>860.0</ele><time>2026-03-28T08:59:12.02Z</time></trkpt><trkpt lat="40.3977217" lon="15.1769317"><ele>858.2</ele><time>2026-03-28T08:59:13.019Z</time></trkpt><trkpt lat="40.397745" lon="15.177075"><ele>856.4</ele><time>2026-03-28T08:59:14.02Z</time></trkpt><trkpt lat="40.397765" lon="15.17722"><ele>854.5999999999999</ele><time>2026-03-28T08:59:15.02Z</time></trkpt><trkpt lat="40.3977817" lon="15.1773583"><ele>852.8</ele><time>2026-03-28T08:59:16.02Z</time></trkpt><trkpt lat="40.3977883" lon="15.1774883"><ele>851.0</ele><time>2026-03-28T08:59:17.02Z</time></trkpt><trkpt lat="40.3977883" lon="15.177605"><ele>850.5000000000001</ele><time>2026-03-28T08:59:18.019Z</time></trkpt><trkpt lat="40.3977817" lon="15.177715"><ele>850.0</ele><time>2026-03-28T08:59:19.02Z</time></trkpt><trkpt lat="40.39777" lon="15.17782"><ele>849.5</ele><time>2026-03-28T08:59:20.019Z</time></trkpt><trkpt lat="40.3977583" lon="15.1779133"><ele>849.0</ele><time>2026-03-28T08:59:21.02Z</time></trkpt><trkpt lat="40.3977417" lon="15.17801"><ele>848.5000000000001</ele><time>2026-03-28T08:59:22.019Z</time></trkpt><trkpt lat="40.3977233" lon="15.1781067"><ele>848.0</ele><time>2026-03-28T08:59:23.019Z</time></trkpt><trkpt lat="40.3977017" lon="15.1782083"><ele>847.8</ele><time>2026-03-28T08:59:24.02Z</time></trkpt><trkpt lat="40.397675" lon="15.1783167"><ele>847.5999999999999</ele><time>2026-03-28T08:59:25.019Z</time></trkpt><trkpt lat="40.397645" lon="15.1784267"><ele>847.4000000000001</ele><time>2026-03-28T08:59:26.019Z</time></trkpt><trkpt lat="40.3976083" lon="15.1785483"><ele>847.2</ele><time>2026-03-28T08:59:27.019Z</time></trkpt><trkpt lat="40.3975767" lon="15.1786683"><ele>847.0</ele><time>2026-03-28T08:59:28.019Z</time></trkpt><trkpt lat="40.3975517" lon="15.1787833"><ele>846.9999999999999</ele><time>2026-03-28T08:59:29.02Z</time></trkpt><trkpt lat="40.3975367" lon="15.1789033"><ele>847.0</ele><time>2026-03-28T08:59:30.019Z</time></trkpt><trkpt lat="40.397525" lon="15.1790167"><ele>847.0</ele><time>2026-03-28T08:59:31.02Z</time></trkpt><trkpt lat="40.3975133" lon="15.1791183"><ele>847.0</ele><time>2026-03-28T08:59:32.02Z</time></trkpt><trkpt lat="40.3974933" lon="15.179215"><ele>846.9999999999999</ele><time>2026-03-28T08:59:33.019Z</time></trkpt><trkpt lat="40.3974733" lon="15.1793183"><ele>847.0</ele><time>2026-03-28T08:59:34.02Z</time></trkpt><trkpt lat="40.3974567" lon="15.1794217"><ele>847.4999999999999</ele><time>2026-03-28T08:59:35.019Z</time></trkpt><trkpt lat="40.39744" lon="15.1795267"><ele>848.0</ele><time>2026-03-28T08:59:36.019Z</time></trkpt><trkpt lat="40.3974267" lon="15.1796283"><ele>848.5</ele><time>2026-03-28T08:59:37.019Z</time></trkpt><trkpt lat="40.397415" lon="15.17973"><ele>849.0</ele><time>2026-03-28T08:59:38.02Z</time></trkpt><trkpt lat="40.3974033" lon="15.1798417"><ele>849.4999999999999</ele><time>2026-03-28T08:59:39.019Z</time></trkpt><trkpt lat="40.3973867" lon="15.17995"><ele>850.0</ele><time>2026-03-28T08:59:40.019Z</time></trkpt><trkpt lat="40.397365" lon="15.18005"><ele>850.0</ele><time>2026-03-28T08:59:41.02Z</time></trkpt><trkpt lat="40.3973417" lon="15.1801367"><ele>850.0</ele><time>2026-03-28T08:59:42.02Z</time></trkpt><trkpt lat="40.3973217" lon="15.18028"><ele>850.0</ele><time>2026-03-28T08:59:44.02Z</time></trkpt><trkpt lat="40.3973717" lon="15.1803517"><ele>850.0</ele><time>2026-03-28T08:59:46.02Z</time></trkpt><trkpt lat="40.397495" lon="15.1803733"><ele>850.0</ele><time>2026-03-28T08:59:48.02Z</time></trkpt><trkpt lat="40.3975717" lon="15.1803867"><ele>849.9999999999999</ele><time>2026-03-28T08:59:49.019Z</time></trkpt><trkpt lat="40.3976483" lon="15.1804017"><ele>850.0</ele><time>2026-03-28T08:59:50.019Z</time></trkpt><trkpt lat="40.3977317" lon="15.1804183"><ele>850.0</ele><time>2026-03-28T08:59:51.019Z</time></trkpt><trkpt lat="40.3978133" lon="15.1804317"><ele>850.0</ele><time>2026-03-28T08:59:52.019Z</time></trkpt><trkpt lat="40.3978983" lon="15.18044"><ele>849.9999999999999</ele><time>2026-03-28T08:59:53.019Z</time></trkpt><trkpt lat="40.3979817" lon="15.1804433"><ele>850.0</ele><time>2026-03-28T08:59:54.02Z</time></trkpt><trkpt lat="40.39806" lon="15.1804333"><ele>849.6</ele><time>2026-03-28T08:59:55.019Z</time></trkpt><trkpt lat="40.3981317" lon="15.1804217"><ele>849.2</ele><time>2026-03-28T08:59:56.019Z</time></trkpt><trkpt lat="40.3982383" lon="15.1804267"><ele>848.8</ele><time>2026-03-28T08:59:58.019Z</time></trkpt><trkpt lat="40.39828" lon="15.1804967"><ele>848.4</ele><time>2026-03-28T09:00:00.019Z</time></trkpt><trkpt lat="40.398215" lon="15.1806183"><ele>848.0</ele><time>2026-03-28T09:00:02.019Z</time></trkpt><trkpt lat="40.3981467" lon="15.1807333"><ele>843.8</ele><time>2026-03-28T09:00:04.019Z</time></trkpt><trkpt lat="40.3981433" lon="15.1808567"><ele>839.5999999999999</ele><time>2026-03-28T09:00:06.019Z</time></trkpt><trkpt lat="40.3982183" lon="15.180895"><ele>835.4000000000001</ele><time>2026-03-28T09:00:08.019Z</time></trkpt><trkpt lat="40.3983183" lon="15.18087"><ele>831.2</ele><time>2026-03-28T09:00:10.02Z</time></trkpt><trkpt lat="40.398415" lon="15.1808567"><ele>827.0</ele><time>2026-03-28T09:00:12.019Z</time></trkpt><trkpt lat="40.3984967" lon="15.1809083"><ele>827.0000000000001</ele><time>2026-03-28T09:00:14.019Z</time></trkpt><trkpt lat="40.3985217" lon="15.1810367"><ele>827.0</ele><time>2026-03-28T09:00:16.02Z</time></trkpt><trkpt lat="40.3985233" lon="15.1811283"><ele>827.0</ele><time>2026-03-28T09:00:17.02Z</time></trkpt><trkpt lat="40.398535" lon="15.1812183"><ele>827.0</ele><time>2026-03-28T09:00:18.019Z</time></trkpt><trkpt lat="40.3985667" lon="15.1812933"><ele>827.0000000000001</ele><time>2026-03-28T09:00:19.019Z</time></trkpt><trkpt lat="40.39861" lon="15.1813783"><ele>827.0</ele><time>2026-03-28T09:00:20.019Z</time></trkpt><trkpt lat="40.3986733" lon="15.18146"><ele>825.5000000000001</ele><time>2026-03-28T09:00:21.019Z</time></trkpt><trkpt lat="40.3987367" lon="15.18154"><ele>824.0</ele><time>2026-03-28T09:00:22.02Z</time></trkpt><trkpt lat="40.3987967" lon="15.1816133"><ele>822.5</ele><time>2026-03-28T09:00:23.019Z</time></trkpt><trkpt lat="40.3988567" lon="15.181675"><ele>821.0</ele><time>2026-03-28T09:00:24.019Z</time></trkpt><trkpt lat="40.398925" lon="15.1817217"><ele>819.5000000000001</ele><time>2026-03-28T09:00:25.02Z</time></trkpt><trkpt lat="40.3990017" lon="15.1817517"><ele>818.0</ele><time>2026-03-28T09:00:26.02Z</time></trkpt><trkpt lat="40.39908" lon="15.181775"><ele>815.0000000000001</ele><time>2026-03-28T09:00:27.02Z</time></trkpt><trkpt lat="40.399155" lon="15.1818"><ele>812.0</ele><time>2026-03-28T09:00:28.019Z</time></trkpt><trkpt lat="40.39923" lon="15.1818383"><ele>809.0</ele><time>2026-03-28T09:00:29.02Z</time></trkpt><trkpt lat="40.3993017" lon="15.1818883"><ele>806.0</ele><time>2026-03-28T09:00:30.02Z</time></trkpt><trkpt lat="40.3993617" lon="15.181955"><ele>803.0000000000001</ele><time>2026-03-28T09:00:31.019Z</time></trkpt><trkpt lat="40.3994067" lon="15.18211"><ele>800.0</ele><time>2026-03-28T09:00:33.019Z</time></trkpt><trkpt lat="40.3994" lon="15.1822033"><ele>800.0000000000001</ele><time>2026-03-28T09:00:34.019Z</time></trkpt><trkpt lat="40.39937" lon="15.182305"><ele>800.0</ele><time>2026-03-28T09:00:35.02Z</time></trkpt><trkpt lat="40.3993267" lon="15.1823983"><ele>800.0</ele><time>2026-03-28T09:00:36.02Z</time></trkpt><trkpt lat="40.39927" lon="15.1824733"><ele>800.0</ele><time>2026-03-28T09:00:37.02Z</time></trkpt><trkpt lat="40.399195" lon="15.18252"><ele>800.0000000000001</ele><time>2026-03-28T09:00:38.019Z</time></trkpt><trkpt lat="40.3991167" lon="15.1825417"><ele>800.0</ele><time>2026-03-28T09:00:39.02Z</time></trkpt><trkpt lat="40.39904" lon="15.1825583"><ele>800.8333333333334</ele><time>2026-03-28T09:00:40.019Z</time></trkpt><trkpt lat="40.3989617" lon="15.18257"><ele>801.6666666666667</ele><time>2026-03-28T09:00:41.019Z</time></trkpt><trkpt lat="40.3988933" lon="15.1825767"><ele>802.5</ele><time>2026-03-28T09:00:42.02Z</time></trkpt><trkpt lat="40.3988317" lon="15.182605"><ele>803.3333333333333</ele><time>2026-03-28T09:00:43.02Z</time></trkpt><trkpt lat="40.39878" lon="15.1826533"><ele>804.1666666666666</ele><time>2026-03-28T09:00:44.019Z</time></trkpt><trkpt lat="40.3987633" lon="15.1828067"><ele>805.0</ele><time>2026-03-28T09:00:46.019Z</time></trkpt><trkpt lat="40.39883" lon="15.1829133"><ele>801.9999999999999</ele><time>2026-03-28T09:00:48.02Z</time></trkpt><trkpt lat="40.398895" lon="15.182895"><ele>799.0</ele><time>2026-03-28T09:00:49.019Z</time></trkpt><trkpt lat="40.398965" lon="15.1828783"><ele>796.0</ele><time>2026-03-28T09:00:50.019Z</time></trkpt><trkpt lat="40.399035" lon="15.1828517"><ele>793.0</ele><time>2026-03-28T09:00:51.019Z</time></trkpt><trkpt lat="40.3991433" lon="15.182855"><ele>789.9999999999999</ele><time>2026-03-28T09:00:53.02Z</time></trkpt><trkpt lat="40.399205" lon="15.18296"><ele>787.0</ele><time>2026-03-28T09:00:55.019Z</time></trkpt><trkpt lat="40.3992083" lon="15.1830583"><ele>783.2</ele><time>2026-03-28T09:00:56.02Z</time></trkpt><trkpt lat="40.3991767" lon="15.1832017"><ele>779.4000000000001</ele><time>2026-03-28T09:00:57.019Z</time></trkpt><trkpt lat="40.399145" lon="15.18335"><ele>775.5999999999999</ele><time>2026-03-28T09:00:58.019Z</time></trkpt><trkpt lat="40.3991217" lon="15.1834883"><ele>771.8</ele><time>2026-03-28T09:00:59.02Z</time></trkpt><trkpt lat="40.399115" lon="15.1836067"><ele>768.0</ele><time>2026-03-28T09:01:00.02Z</time></trkpt><trkpt lat="40.3991117" lon="15.1837017"><ele>768.0</ele><time>2026-03-28T09:01:01.02Z</time></trkpt><trkpt lat="40.3991283" lon="15.1837867"><ele>768.0</ele><time>2026-03-28T09:01:02.019Z</time></trkpt><trkpt lat="40.3991617" lon="15.1838583"><ele>768.0</ele><time>2026-03-28T09:01:03.02Z</time></trkpt><trkpt lat="40.3992217" lon="15.1839117"><ele>768.0</ele><time>2026-03-28T09:01:04.019Z</time></trkpt><trkpt lat="40.3993133" lon="15.1839633"><ele>768.0</ele><time>2026-03-28T09:01:05.02Z</time></trkpt><trkpt lat="40.39942" lon="15.1840083"><ele>768.0</ele><time>2026-03-28T09:01:06.02Z</time></trkpt><trkpt lat="40.39953" lon="15.1840317"><ele>766.0</ele><time>2026-03-28T09:01:07.02Z</time></trkpt><trkpt lat="40.3996267" lon="15.18405"><ele>764.0</ele><time>2026-03-28T09:01:08.02Z</time></trkpt><trkpt lat="40.3997117" lon="15.184055"><ele>762.0</ele><time>2026-03-28T09:01:09.02Z</time></trkpt><trkpt lat="40.3997817" lon="15.1840433"><ele>760.0</ele><time>2026-03-28T09:01:10.019Z</time></trkpt><trkpt lat="40.3998433" lon="15.183995"><ele>758.0</ele><time>2026-03-28T09:01:11.019Z</time></trkpt><trkpt lat="40.3998983" lon="15.1839183"><ele>756.0</ele><time>2026-03-28T09:01:12.02Z</time></trkpt><trkpt lat="40.399935" lon="15.18383"><ele>756.8333333333334</ele><time>2026-03-28T09:01:13.019Z</time></trkpt><trkpt lat="40.399945" lon="15.1837383"><ele>757.6666666666666</ele><time>2026-03-28T09:01:14.02Z</time></trkpt><trkpt lat="40.3999367" lon="15.183625"><ele>758.5</ele><time>2026-03-28T09:01:15.019Z</time></trkpt><trkpt lat="40.39992" lon="15.1835067"><ele>759.3333333333333</ele><time>2026-03-28T09:01:16.019Z</time></trkpt><trkpt lat="40.3999117" lon="15.1833867"><ele>760.1666666666666</ele><time>2026-03-28T09:01:17.019Z</time></trkpt><trkpt lat="40.399915" lon="15.1832717"><ele>761.0</ele><time>2026-03-28T09:01:18.02Z</time></trkpt><trkpt lat="40.399935" lon="15.1831467"><ele>761.0</ele><time>2026-03-28T09:01:19.019Z</time></trkpt><trkpt lat="40.3999783" lon="15.1830267"><ele>761.0</ele><time>2026-03-28T09:01:20.019Z</time></trkpt><trkpt lat="40.40004" lon="15.182915"><ele>761.0</ele><time>2026-03-28T09:01:21.02Z</time></trkpt><trkpt lat="40.4001033" lon="15.182825"><ele>761.0</ele><time>2026-03-28T09:01:22.02Z</time></trkpt><trkpt lat="40.4001783" lon="15.1827533"><ele>761.0</ele><time>2026-03-28T09:01:23.019Z</time></trkpt><trkpt lat="40.400255" lon="15.1826683"><ele>761.0</ele><time>2026-03-28T09:01:24.019Z</time></trkpt><trkpt lat="40.4003183" lon="15.1825683"><ele>761.0</ele><time>2026-03-28T09:01:25.02Z</time></trkpt><trkpt lat="40.4003733" lon="15.18246"><ele>761.0</ele><time>2026-03-28T09:01:26.019Z</time></trkpt><trkpt lat="40.4004233" lon="15.1823483"><ele>761.0</ele><time>2026-03-28T09:01:27.019Z</time></trkpt><trkpt lat="40.400465" lon="15.1822483"><ele>761.0</ele><time>2026-03-28T09:01:28.02Z</time></trkpt><trkpt lat="40.4005" lon="15.1821533"><ele>755.8571428571428</ele><time>2026-03-28T09:01:29.019Z</time></trkpt><trkpt lat="40.400525" lon="15.1820483"><ele>750.7142857142857</ele><time>2026-03-28T09:01:30.019Z</time></trkpt><trkpt lat="40.4005383" lon="15.1819433"><ele>745.5714285714286</ele><time>2026-03-28T09:01:31.02Z</time></trkpt><trkpt lat="40.4005383" lon="15.18184"><ele>740.4285714285713</ele><time>2026-03-28T09:01:32.019Z</time></trkpt><trkpt lat="40.4005317" lon="15.1817417"><ele>735.2857142857143</ele><time>2026-03-28T09:01:33.019Z</time></trkpt><trkpt lat="40.4005283" lon="15.1816567"><ele>730.1428571428571</ele><time>2026-03-28T09:01:34.02Z</time></trkpt><trkpt lat="40.4005167" lon="15.181575"><ele>725.0</ele><time>2026-03-28T09:01:35.02Z</time></trkpt><trkpt lat="40.4005183" lon="15.1814383"><ele>725.0</ele><time>2026-03-28T09:01:37.019Z</time></trkpt><trkpt lat="40.400555" lon="15.1813183"><ele>725.0</ele><time>2026-03-28T09:01:39.019Z</time></trkpt><trkpt lat="40.4005967" lon="15.1812467"><ele>725.0</ele><time>2026-03-28T09:01:40.019Z</time></trkpt><trkpt lat="40.4006517" lon="15.1811683"><ele>725.0</ele><time>2026-03-28T09:01:41.02Z</time></trkpt><trkpt lat="40.40071" lon="15.1810933"><ele>725.0</ele><time>2026-03-28T09:01:42.019Z</time></trkpt><trkpt lat="40.40077" lon="15.1810183"><ele>725.0</ele><time>2026-03-28T09:01:43.019Z</time></trkpt><trkpt lat="40.4008417" lon="15.180955"><ele>725.0</ele><time>2026-03-28T09:01:44.019Z</time></trkpt><trkpt lat="40.4009083" lon="15.1808983"><ele>725.0</ele><time>2026-03-28T09:01:45.02Z</time></trkpt><trkpt lat="40.4009717" lon="15.1808433"><ele>725.0</ele><time>2026-03-28T09:01:46.019Z</time></trkpt><trkpt lat="40.4010267" lon="15.1807717"><ele>725.0</ele><time>2026-03-28T09:01:47.019Z</time></trkpt><trkpt lat="40.4010683" lon="15.1806867"><ele>725.0</ele><time>2026-03-28T09:01:48.019Z</time></trkpt><trkpt lat="40.401095" lon="15.1805883"><ele>725.0</ele><time>2026-03-28T09:01:49.02Z</time></trkpt><trkpt lat="40.4011167" lon="15.1804967"><ele>725.3333333333333</ele><time>2026-03-28T09:01:50.02Z</time></trkpt><trkpt lat="40.40115" lon="15.180415"><ele>725.6666666666666</ele><time>2026-03-28T09:01:51.02Z</time></trkpt><trkpt lat="40.4011983" lon="15.18036"><ele>726.0</ele><time>2026-03-28T09:01:52.02Z</time></trkpt><trkpt lat="40.4013183" lon="15.1803283"><ele>726.3333333333334</ele><time>2026-03-28T09:01:54.02Z</time></trkpt><trkpt lat="40.4014183" lon="15.18041"><ele>726.6666666666667</ele><time>2026-03-28T09:01:56.019Z</time></trkpt><trkpt lat="40.4014567" lon="15.1804817"><ele>727.0</ele><time>2026-03-28T09:01:57.02Z</time></trkpt><trkpt lat="40.4015167" lon="15.180585"><ele>722.4000000000001</ele><time>2026-03-28T09:01:59.019Z</time></trkpt><trkpt lat="40.401605" lon="15.180525"><ele>717.8000000000001</ele><time>2026-03-28T09:02:02.019Z</time></trkpt><trkpt lat="40.4016567" lon="15.180395"><ele>713.2</ele><time>2026-03-28T09:02:04.019Z</time></trkpt><trkpt lat="40.4017067" lon="15.1802267"><ele>708.6</ele><time>2026-03-28T09:02:06.019Z</time></trkpt><trkpt lat="40.40174" lon="15.1801267"><ele>704.0</ele><time>2026-03-28T09:02:07.019Z</time></trkpt><trkpt lat="40.401775" lon="15.1800333"><ele>704.0</ele><time>2026-03-28T09:02:08.019Z</time></trkpt><trkpt lat="40.401815" lon="15.1799517"><ele>704.0</ele><time>2026-03-28T09:02:09.019Z</time></trkpt><trkpt lat="40.4018683" lon="15.17988"><ele>704.0</ele><time>2026-03-28T09:02:10.02Z</time></trkpt><trkpt lat="40.4019317" lon="15.1798133"><ele>704.0</ele><time>2026-03-28T09:02:11.019Z</time></trkpt><trkpt lat="40.4019967" lon="15.179755"><ele>704.0</ele><time>2026-03-28T09:02:12.02Z</time></trkpt><trkpt lat="40.4020583" lon="15.1797117"><ele>704.0</ele><time>2026-03-28T09:02:13.02Z</time></trkpt><trkpt lat="40.40215" lon="15.1796867"><ele>699.6</ele><time>2026-03-28T09:02:15.019Z</time></trkpt><trkpt lat="40.4022267" lon="15.17977"><ele>695.2</ele><time>2026-03-28T09:02:17.02Z</time></trkpt><trkpt lat="40.4022633" lon="15.1798783"><ele>690.8000000000001</ele><time>2026-03-28T09:02:18.02Z</time></trkpt><trkpt lat="40.4023067" lon="15.1800183"><ele>686.4000000000001</ele><time>2026-03-28T09:02:19.019Z</time></trkpt><trkpt lat="40.4023617" lon="15.1801517"><ele>682.0</ele><time>2026-03-28T09:02:20.019Z</time></trkpt><trkpt lat="40.4024217" lon="15.18028"><ele>682.0</ele><time>2026-03-28T09:02:21.019Z</time></trkpt><trkpt lat="40.40248" lon="15.180405"><ele>682.0</ele><time>2026-03-28T09:02:22.019Z</time></trkpt><trkpt lat="40.40253" lon="15.180525"><ele>682.0</ele><time>2026-03-28T09:02:23.019Z</time></trkpt><trkpt lat="40.4025733" lon="15.180635"><ele>682.0</ele><time>2026-03-28T09:02:24.019Z</time></trkpt><trkpt lat="40.4026067" lon="15.180715"><ele>682.0</ele><time>2026-03-28T09:02:25.019Z</time></trkpt><trkpt lat="40.4026117" lon="15.1808517"><ele>681.6666666666667</ele><time>2026-03-28T09:02:27.019Z</time></trkpt><trkpt lat="40.4025783" lon="15.1809283"><ele>681.3333333333334</ele><time>2026-03-28T09:02:28.019Z</time></trkpt><trkpt lat="40.402535" lon="15.1810083"><ele>681.0</ele><time>2026-03-28T09:02:29.02Z</time></trkpt><trkpt lat="40.4024833" lon="15.1810967"><ele>680.6666666666666</ele><time>2026-03-28T09:02:30.02Z</time></trkpt><trkpt lat="40.4024433" lon="15.181175"><ele>680.3333333333333</ele><time>2026-03-28T09:02:31.019Z</time></trkpt><trkpt lat="40.4024383" lon="15.1812983"><ele>680.0</ele><time>2026-03-28T09:02:33.02Z</time></trkpt><trkpt lat="40.4025233" lon="15.1813333"><ele>680.0</ele><time>2026-03-28T09:02:35.02Z</time></trkpt><trkpt lat="40.4025917" lon="15.1813117"><ele>680.0</ele><time>2026-03-28T09:02:36.019Z</time></trkpt><trkpt lat="40.4026567" lon="15.1813"><ele>680.0</ele><time>2026-03-28T09:02:37.02Z</time></trkpt><trkpt lat="40.40272" lon="15.1813133"><ele>680.0</ele><time>2026-03-28T09:02:38.02Z</time></trkpt><trkpt lat="40.40282" lon="15.18143"><ele>680.0</ele><time>2026-03-28T09:02:40.019Z</time></trkpt><trkpt lat="40.4028683" lon="15.1815417"><ele>680.0</ele><time>2026-03-28T09:02:41.019Z</time></trkpt><trkpt lat="40.4029133" lon="15.1816667"><ele>678.5</ele><time>2026-03-28T09:02:42.019Z</time></trkpt><trkpt lat="40.402955" lon="15.1817867"><ele>677.0</ele><time>2026-03-28T09:02:43.019Z</time></trkpt><trkpt lat="40.4029817" lon="15.1818967"><ele>675.5</ele><time>2026-03-28T09:02:44.019Z</time></trkpt><trkpt lat="40.4029983" lon="15.181995"><ele>674.0</ele><time>2026-03-28T09:02:45.02Z</time></trkpt><trkpt lat="40.40301" lon="15.182095"><ele>672.5</ele><time>2026-03-28T09:02:46.02Z</time></trkpt><trkpt lat="40.4030267" lon="15.1821817"><ele>671.0</ele><time>2026-03-28T09:02:47.02Z</time></trkpt><trkpt lat="40.4030617" lon="15.1822767"><ele>666.5999999999999</ele><time>2026-03-28T09:02:48.02Z</time></trkpt><trkpt lat="40.4031167" lon="15.1823833"><ele>662.2</ele><time>2026-03-28T09:02:49.02Z</time></trkpt><trkpt lat="40.4031783" lon="15.1825"><ele>657.8</ele><time>2026-03-28T09:02:50.019Z</time></trkpt><trkpt lat="40.4032383" lon="15.18262"><ele>653.4000000000001</ele><time>2026-03-28T09:02:51.019Z</time></trkpt><trkpt lat="40.4032917" lon="15.1827383"><ele>649.0</ele><time>2026-03-28T09:02:52.019Z</time></trkpt><trkpt lat="40.4033383" lon="15.182865"><ele>649.0</ele><time>2026-03-28T09:02:53.02Z</time></trkpt><trkpt lat="40.403385" lon="15.1829933"><ele>649.0</ele><time>2026-03-28T09:02:54.019Z</time></trkpt><trkpt lat="40.4034283" lon="15.1831117"><ele>649.0</ele><time>2026-03-28T09:02:55.02Z</time></trkpt><trkpt lat="40.403465" lon="15.183215"><ele>649.0</ele><time>2026-03-28T09:02:56.02Z</time></trkpt><trkpt lat="40.4035" lon="15.1833033"><ele>649.0</ele><time>2026-03-28T09:02:57.019Z</time></trkpt><trkpt lat="40.4035233" lon="15.1833933"><ele>649.0</ele><time>2026-03-28T09:02:58.02Z</time></trkpt><trkpt lat="40.40354" lon="15.183535"><ele>647.6</ele><time>2026-03-28T09:03:00.02Z</time></trkpt><trkpt lat="40.4034783" lon="15.1837033"><ele>646.2</ele><time>2026-03-28T09:03:02.019Z</time></trkpt><trkpt lat="40.4034283" lon="15.18381"><ele>644.8000000000001</ele><time>2026-03-28T09:03:03.02Z</time></trkpt><trkpt lat="40.4033767" lon="15.183925"><ele>643.4000000000001</ele><time>2026-03-28T09:03:04.02Z</time></trkpt><trkpt lat="40.40332" lon="15.1840417"><ele>642.0</ele><time>2026-03-28T09:03:05.019Z</time></trkpt><trkpt lat="40.403265" lon="15.1841567"><ele>639.0</ele><time>2026-03-28T09:03:06.02Z</time></trkpt><trkpt lat="40.4032117" lon="15.184265"><ele>636.0</ele><time>2026-03-28T09:03:07.02Z</time></trkpt><trkpt lat="40.4031717" lon="15.1843633"><ele>633.0</ele><time>2026-03-28T09:03:08.02Z</time></trkpt><trkpt lat="40.403145" lon="15.1844567"><ele>630.0</ele><time>2026-03-28T09:03:09.019Z</time></trkpt><trkpt lat="40.4031133" lon="15.1845567"><ele>627.0</ele><time>2026-03-28T09:03:10.019Z</time></trkpt><trkpt lat="40.403085" lon="15.18465"><ele>624.0</ele><time>2026-03-28T09:03:11.02Z</time></trkpt><trkpt lat="40.403075" lon="15.1847333"><ele>624.0</ele><time>2026-03-28T09:03:12.02Z</time></trkpt><trkpt lat="40.4030867" lon="15.1848583"><ele>624.0</ele><time>2026-03-28T09:03:14.019Z</time></trkpt><trkpt lat="40.40316" lon="15.184865"><ele>624.0</ele><time>2026-03-28T09:03:17.02Z</time></trkpt><trkpt lat="40.4031967" lon="15.1847767"><ele>624.0</ele><time>2026-03-28T09:03:19.019Z</time></trkpt><trkpt lat="40.403245" lon="15.18461"><ele>624.0</ele><time>2026-03-28T09:03:21.019Z</time></trkpt><trkpt lat="40.4032783" lon="15.18451"><ele>624.0</ele><time>2026-03-28T09:03:22.02Z</time></trkpt><trkpt lat="40.40332" lon="15.1843917"><ele>624.0</ele><time>2026-03-28T09:03:23.02Z</time></trkpt><trkpt lat="40.4033533" lon="15.1842683"><ele>624.0</ele><time>2026-03-28T09:03:24.02Z</time></trkpt><trkpt lat="40.4033883" lon="15.1841583"><ele>624.0</ele><time>2026-03-28T09:03:25.02Z</time></trkpt><trkpt lat="40.4034267" lon="15.1840767"><ele>624.0</ele><time>2026-03-28T09:03:26.019Z</time></trkpt><trkpt lat="40.4034767" lon="15.1840167"><ele>624.0</ele><time>2026-03-28T09:03:27.019Z</time></trkpt><trkpt lat="40.4036" lon="15.18397"><ele>622.6</ele><time>2026-03-28T09:03:29.019Z</time></trkpt><trkpt lat="40.403665" lon="15.183965"><ele>621.2</ele><time>2026-03-28T09:03:30.02Z</time></trkpt><trkpt lat="40.40377" lon="15.1839183"><ele>619.8000000000001</ele><time>2026-03-28T09:03:32.019Z</time></trkpt><trkpt lat="40.403855" lon="15.1838283"><ele>618.4</ele><time>2026-03-28T09:03:34.019Z</time></trkpt><trkpt lat="40.4039233" lon="15.1836733"><ele>617.0</ele><time>2026-03-28T09:03:36.019Z</time></trkpt><trkpt lat="40.40395" lon="15.18358"><ele>617.0</ele><time>2026-03-28T09:03:37.019Z</time></trkpt><trkpt lat="40.403965" lon="15.18349"><ele>617.0</ele><time>2026-03-28T09:03:38.019Z</time></trkpt><trkpt lat="40.40398" lon="15.1834083"><ele>617.0</ele><time>2026-03-28T09:03:39.019Z</time></trkpt><trkpt lat="40.4040083" lon="15.1832467"><ele>617.0</ele><time>2026-03-28T09:03:41.019Z</time></trkpt><trkpt lat="40.4040233" lon="15.1831617"><ele>617.0</ele><time>2026-03-28T09:03:42.02Z</time></trkpt><trkpt lat="40.4040517" lon="15.1830433"><ele>617.0</ele><time>2026-03-28T09:03:44.019Z</time></trkpt><trkpt lat="40.4041083" lon="15.1829833"><ele>617.0</ele><time>2026-03-28T09:03:46.019Z</time></trkpt><trkpt lat="40.4041817" lon="15.1829817"><ele>617.0</ele><time>2026-03-28T09:03:48.019Z</time></trkpt><trkpt lat="40.4042417" lon="15.1830467"><ele>617.0</ele><time>2026-03-28T09:03:51.019Z</time></trkpt><trkpt lat="40.4042517" lon="15.18313"><ele>617.0</ele><time>2026-03-28T09:03:55.02Z</time></trkpt><trkpt lat="40.4042717" lon="15.1832367"><ele>617.0</ele><time>2026-03-28T09:03:57.02Z</time></trkpt><trkpt lat="40.4042833" lon="15.1833267"><ele>617.0</ele><time>2026-03-28T09:03:58.019Z</time></trkpt><trkpt lat="40.4043067" lon="15.1834217"><ele>617.0</ele><time>2026-03-28T09:03:59.019Z</time></trkpt><trkpt lat="40.4043433" lon="15.1835183"><ele>617.0</ele><time>2026-03-28T09:04:00.02Z</time></trkpt><trkpt lat="40.4044017" lon="15.183605"><ele>617.0</ele><time>2026-03-28T09:04:01.02Z</time></trkpt><trkpt lat="40.4044733" lon="15.1836733"><ele>617.0</ele><time>2026-03-28T09:04:02.02Z</time></trkpt><trkpt lat="40.4045517" lon="15.183735"><ele>617.0</ele><time>2026-03-28T09:04:03.02Z</time></trkpt><trkpt lat="40.4046383" lon="15.1837933"><ele>617.0</ele><time>2026-03-28T09:04:04.019Z</time></trkpt><trkpt lat="40.4047217" lon="15.18385"><ele>615.5</ele><time>2026-03-28T09:04:05.02Z</time></trkpt><trkpt lat="40.4047883" lon="15.183915"><ele>614.0</ele><time>2026-03-28T09:04:06.019Z</time></trkpt><trkpt lat="40.40485" lon="15.183995"><ele>612.5</ele><time>2026-03-28T09:04:07.019Z</time></trkpt><trkpt lat="40.40489" lon="15.184085"><ele>611.0</ele><time>2026-03-28T09:04:08.019Z</time></trkpt><trkpt lat="40.4049167" lon="15.184195"><ele>609.5</ele><time>2026-03-28T09:04:09.019Z</time></trkpt><trkpt lat="40.404935" lon="15.1843183"><ele>608.0</ele><time>2026-03-28T09:04:10.019Z</time></trkpt><trkpt lat="40.4049433" lon="15.1844467"><ele>606.1999999999999</ele><time>2026-03-28T09:04:11.019Z</time></trkpt><trkpt lat="40.4049617" lon="15.1845633"><ele>604.4</ele><time>2026-03-28T09:04:12.02Z</time></trkpt><trkpt lat="40.4049783" lon="15.184665"><ele>602.5999999999999</ele><time>2026-03-28T09:04:13.02Z</time></trkpt><trkpt lat="40.4050033" lon="15.184745"><ele>600.8</ele><time>2026-03-28T09:04:14.02Z</time></trkpt><trkpt lat="40.4051033" lon="15.1848617"><ele>599.0</ele><time>2026-03-28T09:04:16.019Z</time></trkpt><trkpt lat="40.4051983" lon="15.1849217"><ele>597.0</ele><time>2026-03-28T09:04:17.019Z</time></trkpt><trkpt lat="40.4053067" lon="15.184975"><ele>595.0</ele><time>2026-03-28T09:04:18.019Z</time></trkpt><trkpt lat="40.4054083" lon="15.1850317"><ele>593.0</ele><time>2026-03-28T09:04:19.019Z</time></trkpt><trkpt lat="40.405505" lon="15.185085"><ele>591.0</ele><time>2026-03-28T09:04:20.019Z</time></trkpt><trkpt lat="40.4055933" lon="15.1851283"><ele>589.0</ele><time>2026-03-28T09:04:21.019Z</time></trkpt><trkpt lat="40.4056933" lon="15.1851617"><ele>587.8</ele><time>2026-03-28T09:04:22.019Z</time></trkpt><trkpt lat="40.4057983" lon="15.1851917"><ele>586.5999999999999</ele><time>2026-03-28T09:04:23.02Z</time></trkpt><trkpt lat="40.4058967" lon="15.1852167"><ele>585.4</ele><time>2026-03-28T09:04:24.02Z</time></trkpt><trkpt lat="40.4059967" lon="15.1852483"><ele>584.1999999999999</ele><time>2026-03-28T09:04:25.019Z</time></trkpt><trkpt lat="40.4061" lon="15.1852883"><ele>583.0</ele><time>2026-03-28T09:04:26.02Z</time></trkpt><trkpt lat="40.4062033" lon="15.18534"><ele>583.0</ele><time>2026-03-28T09:04:27.019Z</time></trkpt><trkpt lat="40.4063017" lon="15.1853917"><ele>583.0</ele><time>2026-03-28T09:04:28.019Z</time></trkpt><trkpt lat="40.4064083" lon="15.1854433"><ele>583.0</ele><time>2026-03-28T09:04:29.02Z</time></trkpt><trkpt lat="40.4065167" lon="15.1854883"><ele>583.0</ele><time>2026-03-28T09:04:30.019Z</time></trkpt><trkpt lat="40.4066167" lon="15.1855217"><ele>583.0</ele><time>2026-03-28T09:04:31.019Z</time></trkpt><trkpt lat="40.40672" lon="15.1855517"><ele>580.8</ele><time>2026-03-28T09:04:32.02Z</time></trkpt><trkpt lat="40.4068167" lon="15.185565"><ele>578.5999999999999</ele><time>2026-03-28T09:04:33.019Z</time></trkpt><trkpt lat="40.4069133" lon="15.185565"><ele>576.4000000000001</ele><time>2026-03-28T09:04:34.02Z</time></trkpt><trkpt lat="40.4070083" lon="15.1855433"><ele>574.2</ele><time>2026-03-28T09:04:35.019Z</time></trkpt><trkpt lat="40.407105" lon="15.1855117"><ele>572.0</ele><time>2026-03-28T09:04:36.02Z</time></trkpt><trkpt lat="40.4071933" lon="15.1854883"><ele>570.6666666666666</ele><time>2026-03-28T09:04:37.02Z</time></trkpt><trkpt lat="40.40728" lon="15.1855"><ele>569.3333333333333</ele><time>2026-03-28T09:04:38.019Z</time></trkpt><trkpt lat="40.4073733" lon="15.1855333"><ele>568.0</ele><time>2026-03-28T09:04:39.019Z</time></trkpt><trkpt lat="40.4074617" lon="15.1855783"><ele>566.6666666666666</ele><time>2026-03-28T09:04:40.02Z</time></trkpt><trkpt lat="40.407545" lon="15.1856"><ele>565.3333333333334</ele><time>2026-03-28T09:04:41.02Z</time></trkpt><trkpt lat="40.4076233" lon="15.1856117"><ele>564.0</ele><time>2026-03-28T09:04:42.02Z</time></trkpt><trkpt lat="40.40772" lon="15.1856"><ele>564.0</ele><time>2026-03-28T09:04:43.019Z</time></trkpt><trkpt lat="40.4078283" lon="15.18558"><ele>564.0</ele><time>2026-03-28T09:04:44.019Z</time></trkpt><trkpt lat="40.407935" lon="15.1855417"><ele>564.0</ele><time>2026-03-28T09:04:45.019Z</time></trkpt><trkpt lat="40.4080283" lon="15.185495"><ele>564.0</ele><time>2026-03-28T09:04:46.02Z</time></trkpt><trkpt lat="40.4081183" lon="15.1854267"><ele>564.0</ele><time>2026-03-28T09:04:47.019Z</time></trkpt><trkpt lat="40.408205" lon="15.1853533"><ele>561.5</ele><time>2026-03-28T09:04:48.02Z</time></trkpt><trkpt lat="40.4082967" lon="15.1852567"><ele>559.0</ele><time>2026-03-28T09:04:49.019Z</time></trkpt><trkpt lat="40.4083883" lon="15.1851433"><ele>556.5</ele><time>2026-03-28T09:04:50.019Z</time></trkpt><trkpt lat="40.4084817" lon="15.185025"><ele>554.0</ele><time>2026-03-28T09:04:51.019Z</time></trkpt><trkpt lat="40.4085667" lon="15.18492"><ele>554.6</ele><time>2026-03-28T09:04:52.019Z</time></trkpt><trkpt lat="40.408645" lon="15.1848333"><ele>555.2</ele><time>2026-03-28T09:04:53.02Z</time></trkpt><trkpt lat="40.40873" lon="15.184755"><ele>555.8000000000001</ele><time>2026-03-28T09:04:54.019Z</time></trkpt><trkpt lat="40.4088217" lon="15.184695"><ele>556.4</ele><time>2026-03-28T09:04:55.02Z</time></trkpt><trkpt lat="40.408925" lon="15.184645"><ele>557.0</ele><time>2026-03-28T09:04:56.02Z</time></trkpt><trkpt lat="40.4090383" lon="15.1846017"><ele>557.0</ele><time>2026-03-28T09:04:57.019Z</time></trkpt><trkpt lat="40.4091617" lon="15.1845583"><ele>557.0</ele><time>2026-03-28T09:04:58.019Z</time></trkpt><trkpt lat="40.4093033" lon="15.1845233"><ele>557.0</ele><time>2026-03-28T09:04:59.02Z</time></trkpt><trkpt lat="40.4094517" lon="15.1844917"><ele>557.0</ele><time>2026-03-28T09:05:00.019Z</time></trkpt><trkpt lat="40.4095933" lon="15.184475"><ele>555.25</ele><time>2026-03-28T09:05:01.019Z</time></trkpt><trkpt lat="40.4097383" lon="15.1844433"><ele>553.5</ele><time>2026-03-28T09:05:02.02Z</time></trkpt><trkpt lat="40.4098633" lon="15.1844133"><ele>551.75</ele><time>2026-03-28T09:05:03.019Z</time></trkpt><trkpt lat="40.4099917" lon="15.184385"><ele>550.0</ele><time>2026-03-28T09:05:04.019Z</time></trkpt><trkpt lat="40.4101117" lon="15.1843633"><ele>550.0</ele><time>2026-03-28T09:05:05.02Z</time></trkpt><trkpt lat="40.4102233" lon="15.18434"><ele>550.0</ele><time>2026-03-28T09:05:06.019Z</time></trkpt><trkpt lat="40.4103267" lon="15.1843217"><ele>550.0</ele><time>2026-03-28T09:05:07.019Z</time></trkpt><trkpt lat="40.41043" lon="15.1843083"><ele>550.0</ele><time>2026-03-28T09:05:08.019Z</time></trkpt><trkpt lat="40.4105333" lon="15.1842867"><ele>550.0</ele><time>2026-03-28T09:05:09.019Z</time></trkpt><trkpt lat="40.4106483" lon="15.1842617"><ele>547.5</ele><time>2026-03-28T09:05:10.02Z</time></trkpt><trkpt lat="40.4107567" lon="15.184225"><ele>545.0</ele><time>2026-03-28T09:05:11.02Z</time></trkpt><trkpt lat="40.41088" lon="15.1841733"><ele>542.5</ele><time>2026-03-28T09:05:12.019Z</time></trkpt><trkpt lat="40.41101" lon="15.1841117"><ele>540.0</ele><time>2026-03-28T09:05:13.02Z</time></trkpt><trkpt lat="40.4111567" lon="15.1840417"><ele>539.5</ele><time>2026-03-28T09:05:14.02Z</time></trkpt><trkpt lat="40.4112967" lon="15.1839717"><ele>539.0</ele><time>2026-03-28T09:05:15.02Z</time></trkpt><trkpt lat="40.4114267" lon="15.183905"><ele>538.5</ele><time>2026-03-28T09:05:16.019Z</time></trkpt><trkpt lat="40.4115517" lon="15.1838533"><ele>538.0</ele><time>2026-03-28T09:05:17.02Z</time></trkpt><trkpt lat="40.4116733" lon="15.183795"><ele>538.0</ele><time>2026-03-28T09:05:18.019Z</time></trkpt><trkpt lat="40.411795" lon="15.1837367"><ele>538.0</ele><time>2026-03-28T09:05:19.019Z</time></trkpt><trkpt lat="40.4119117" lon="15.1836717"><ele>538.0</ele><time>2026-03-28T09:05:20.02Z</time></trkpt><trkpt lat="40.4120167" lon="15.18362"><ele>538.0</ele><time>2026-03-28T09:05:21.02Z</time></trkpt><trkpt lat="40.4121233" lon="15.1835917"><ele>535.4</ele><time>2026-03-28T09:05:22.019Z</time></trkpt><trkpt lat="40.412225" lon="15.1835767"><ele>532.8</ele><time>2026-03-28T09:05:23.02Z</time></trkpt><trkpt lat="40.4123133" lon="15.1835683"><ele>530.2</ele><time>2026-03-28T09:05:24.02Z</time></trkpt><trkpt lat="40.412395" lon="15.1835783"><ele>527.6</ele><time>2026-03-28T09:05:25.02Z</time></trkpt><trkpt lat="40.412485" lon="15.1836233"><ele>525.0</ele><time>2026-03-28T09:05:26.019Z</time></trkpt><trkpt lat="40.4126" lon="15.1836883"><ele>525.0</ele><time>2026-03-28T09:05:27.019Z</time></trkpt><trkpt lat="40.4127283" lon="15.1837633"><ele>525.0</ele><time>2026-03-28T09:05:28.019Z</time></trkpt><trkpt lat="40.4128567" lon="15.18384"><ele>525.0</ele><time>2026-03-28T09:05:29.019Z</time></trkpt><trkpt lat="40.41299" lon="15.183915"><ele>525.0</ele><time>2026-03-28T09:05:30.02Z</time></trkpt><trkpt lat="40.41312" lon="15.1839883"><ele>520.0</ele><time>2026-03-28T09:05:31.019Z</time></trkpt><trkpt lat="40.4132483" lon="15.18407"><ele>515.0</ele><time>2026-03-28T09:05:32.019Z</time></trkpt><trkpt lat="40.4133767" lon="15.1841483"><ele>510.0</ele><time>2026-03-28T09:05:33.019Z</time></trkpt><trkpt lat="40.4135" lon="15.184225"><ele>505.0</ele><time>2026-03-28T09:05:34.02Z</time></trkpt><trkpt lat="40.4136133" lon="15.1842917"><ele>505.0</ele><time>2026-03-28T09:05:35.02Z</time></trkpt><trkpt lat="40.413715" lon="15.1843483"><ele>505.0</ele><time>2026-03-28T09:05:36.019Z</time></trkpt><trkpt lat="40.413805" lon="15.1843867"><ele>505.0</ele><time>2026-03-28T09:05:37.02Z</time></trkpt><trkpt lat="40.4138933" lon="15.184405"><ele>505.0</ele><time>2026-03-28T09:05:38.019Z</time></trkpt><trkpt lat="40.4139967" lon="15.1844"><ele>505.0</ele><time>2026-03-28T09:05:39.02Z</time></trkpt><trkpt lat="40.4141117" lon="15.1843883"><ele>502.25</ele><time>2026-03-28T09:05:40.019Z</time></trkpt><trkpt lat="40.414245" lon="15.1843733"><ele>499.5</ele><time>2026-03-28T09:05:41.02Z</time></trkpt><trkpt lat="40.4143817" lon="15.1843683"><ele>496.75</ele><time>2026-03-28T09:05:42.02Z</time></trkpt><trkpt lat="40.4145217" lon="15.184375"><ele>494.0</ele><time>2026-03-28T09:05:43.019Z</time></trkpt><trkpt lat="40.4146567" lon="15.1843833"><ele>491.79999999999995</ele><time>2026-03-28T09:05:44.019Z</time></trkpt><trkpt lat="40.4147617" lon="15.1844117"><ele>489.59999999999997</ele><time>2026-03-28T09:05:45.019Z</time></trkpt><trkpt lat="40.4148617" lon="15.1844517"><ele>487.4</ele><time>2026-03-28T09:05:46.02Z</time></trkpt><trkpt lat="40.4149567" lon="15.1845083"><ele>485.2</ele><time>2026-03-28T09:05:47.019Z</time></trkpt><trkpt lat="40.4150567" lon="15.1845817"><ele>483.0</ele><time>2026-03-28T09:05:48.019Z</time></trkpt><trkpt lat="40.415155" lon="15.1846533"><ele>483.0</ele><time>2026-03-28T09:05:49.019Z</time></trkpt><trkpt lat="40.4152483" lon="15.1847217"><ele>482.99999999999994</ele><time>2026-03-28T09:05:50.02Z</time></trkpt><trkpt lat="40.41535" lon="15.1847767"><ele>482.99999999999994</ele><time>2026-03-28T09:05:51.02Z</time></trkpt><trkpt lat="40.4154433" lon="15.184825"><ele>483.0</ele><time>2026-03-28T09:05:52.019Z</time></trkpt><trkpt lat="40.4155367" lon="15.1848667"><ele>483.0</ele><time>2026-03-28T09:05:53.019Z</time></trkpt><trkpt lat="40.415635" lon="15.1848883"><ele>480.0</ele><time>2026-03-28T09:05:54.019Z</time></trkpt><trkpt lat="40.41573" lon="15.1849017"><ele>477.0</ele><time>2026-03-28T09:05:55.02Z</time></trkpt><trkpt lat="40.41581" lon="15.1849067"><ele>474.0</ele><time>2026-03-28T09:05:56.02Z</time></trkpt><trkpt lat="40.41591" lon="15.1849217"><ele>471.0</ele><time>2026-03-28T09:05:58.02Z</time></trkpt><trkpt lat="40.4159817" lon="15.1849733"><ele>468.0</ele><time>2026-03-28T09:06:01.021Z</time></trkpt><trkpt lat="40.416065" lon="15.1850133"><ele>465.0</ele><time>2026-03-28T09:06:03.021Z</time></trkpt><trkpt lat="40.4161717" lon="15.185045"><ele>465.0</ele><time>2026-03-28T09:06:05.02Z</time></trkpt><trkpt lat="40.416235" lon="15.1850483"><ele>465.0</ele><time>2026-03-28T09:06:06.021Z</time></trkpt><trkpt lat="40.416305" lon="15.185055"><ele>465.0</ele><time>2026-03-28T09:06:07.021Z</time></trkpt><trkpt lat="40.4164333" lon="15.1850867"><ele>465.0</ele><time>2026-03-28T09:06:09.02Z</time></trkpt><trkpt lat="40.4165067" lon="15.1851083"><ele>465.0</ele><time>2026-03-28T09:06:10.021Z</time></trkpt><trkpt lat="40.4165817" lon="15.1851367"><ele>465.0</ele><time>2026-03-28T09:06:11.021Z</time></trkpt><trkpt lat="40.4166467" lon="15.1851717"><ele>464.4</ele><time>2026-03-28T09:06:12.02Z</time></trkpt><trkpt lat="40.416765" lon="15.1852317"><ele>463.8</ele><time>2026-03-28T09:06:14.021Z</time></trkpt><trkpt lat="40.4168817" lon="15.1853033"><ele>463.20000000000005</ele><time>2026-03-28T09:06:16.02Z</time></trkpt><trkpt lat="40.41695" lon="15.185335"><ele>462.6</ele><time>2026-03-28T09:06:17.02Z</time></trkpt><trkpt lat="40.4170117" lon="15.185375"><ele>462.0</ele><time>2026-03-28T09:06:18.021Z</time></trkpt><trkpt lat="40.4170717" lon="15.1854067"><ele>462.0</ele><time>2026-03-28T09:06:19.02Z</time></trkpt><trkpt lat="40.417135" lon="15.1854367"><ele>462.0</ele><time>2026-03-28T09:06:20.021Z</time></trkpt><trkpt lat="40.4172" lon="15.1854667"><ele>462.0</ele><time>2026-03-28T09:06:21.021Z</time></trkpt><trkpt lat="40.4172683" lon="15.1855017"><ele>462.0</ele><time>2026-03-28T09:06:22.021Z</time></trkpt><trkpt lat="40.4173383" lon="15.1855433"><ele>462.0</ele><time>2026-03-28T09:06:23.02Z</time></trkpt><trkpt lat="40.417395" lon="15.1855833"><ele>462.0</ele><time>2026-03-28T09:06:24.021Z</time></trkpt><trkpt lat="40.41746" lon="15.1856183"><ele>462.0</ele><time>2026-03-28T09:06:25.021Z</time></trkpt><trkpt lat="40.41752" lon="15.1856483"><ele>457.75</ele><time>2026-03-28T09:06:26.021Z</time></trkpt><trkpt lat="40.4176233" lon="15.1857383"><ele>453.5</ele><time>2026-03-28T09:06:28.021Z</time></trkpt><trkpt lat="40.4177083" lon="15.1858517"><ele>449.25</ele><time>2026-03-28T09:06:30.021Z</time></trkpt><trkpt lat="40.4177683" lon="15.1859917"><ele>445.0</ele><time>2026-03-28T09:06:32.02Z</time></trkpt><trkpt lat="40.417785" lon="15.1861517"><ele>445.00000000000006</ele><time>2026-03-28T09:06:34.021Z</time></trkpt><trkpt lat="40.4177933" lon="15.1862483"><ele>445.0</ele><time>2026-03-28T09:06:35.021Z</time></trkpt><trkpt lat="40.4177983" lon="15.1863483"><ele>445.0</ele><time>2026-03-28T09:06:36.021Z</time></trkpt><trkpt lat="40.4178033" lon="15.186435"><ele>445.0</ele><time>2026-03-28T09:06:37.02Z</time></trkpt><trkpt lat="40.417805" lon="15.186595"><ele>445.00000000000006</ele><time>2026-03-28T09:06:39.02Z</time></trkpt><trkpt lat="40.4178133" lon="15.1867117"><ele>445.0</ele><time>2026-03-28T09:06:41.021Z</time></trkpt><trkpt lat="40.4178817" lon="15.1868317"><ele>442.6666666666667</ele><time>2026-03-28T09:06:43.021Z</time></trkpt><trkpt lat="40.417955" lon="15.186915"><ele>440.33333333333337</ele><time>2026-03-28T09:06:45.02Z</time></trkpt><trkpt lat="40.4180117" lon="15.186975"><ele>438.0</ele><time>2026-03-28T09:06:49.021Z</time></trkpt><trkpt lat="40.418065" lon="15.1870583"><ele>435.66666666666663</ele><time>2026-03-28T09:06:52.02Z</time></trkpt><trkpt lat="40.41812" lon="15.1871217"><ele>433.3333333333333</ele><time>2026-03-28T09:06:53.02Z</time></trkpt><trkpt lat="40.4181967" lon="15.1871967"><ele>431.0</ele><time>2026-03-28T09:06:54.021Z</time></trkpt><trkpt lat="40.418295" lon="15.18729"><ele>429.0</ele><time>2026-03-28T09:06:55.02Z</time></trkpt><trkpt lat="40.4184017" lon="15.18739"><ele>427.0</ele><time>2026-03-28T09:06:56.02Z</time></trkpt><trkpt lat="40.4185217" lon="15.1874883"><ele>425.0</ele><time>2026-03-28T09:06:57.021Z</time></trkpt><trkpt lat="40.4186317" lon="15.1875867"><ele>423.0</ele><time>2026-03-28T09:06:58.02Z</time></trkpt><trkpt lat="40.4187317" lon="15.1876867"><ele>421.5</ele><time>2026-03-28T09:06:59.021Z</time></trkpt><trkpt lat="40.41883" lon="15.1877833"><ele>420.0</ele><time>2026-03-28T09:07:00.02Z</time></trkpt><trkpt lat="40.4189217" lon="15.1878767"><ele>418.5</ele><time>2026-03-28T09:07:01.02Z</time></trkpt><trkpt lat="40.4190083" lon="15.1879683"><ele>417.0</ele><time>2026-03-28T09:07:02.021Z</time></trkpt><trkpt lat="40.4191017" lon="15.1880567"><ele>417.0</ele><time>2026-03-28T09:07:03.02Z</time></trkpt><trkpt lat="40.4191983" lon="15.188135"><ele>417.0</ele><time>2026-03-28T09:07:04.021Z</time></trkpt><trkpt lat="40.4192833" lon="15.1882267"><ele>417.0</ele><time>2026-03-28T09:07:05.021Z</time></trkpt><trkpt lat="40.4193633" lon="15.1883367"><ele>417.0</ele><time>2026-03-28T09:07:06.021Z</time></trkpt><trkpt lat="40.4194467" lon="15.1884717"><ele>417.25</ele><time>2026-03-28T09:07:07.02Z</time></trkpt><trkpt lat="40.419535" lon="15.188605"><ele>417.5</ele><time>2026-03-28T09:07:08.02Z</time></trkpt><trkpt lat="40.4196233" lon="15.1887333"><ele>417.75</ele><time>2026-03-28T09:07:09.02Z</time></trkpt><trkpt lat="40.4197117" lon="15.1888533"><ele>418.0</ele><time>2026-03-28T09:07:10.021Z</time></trkpt><trkpt lat="40.4197983" lon="15.1889667"><ele>415.59999999999997</ele><time>2026-03-28T09:07:11.021Z</time></trkpt><trkpt lat="40.4198933" lon="15.1890733"><ele>413.2</ele><time>2026-03-28T09:07:12.02Z</time></trkpt><trkpt lat="40.4199683" lon="15.1891733"><ele>410.8</ele><time>2026-03-28T09:07:13.02Z</time></trkpt><trkpt lat="40.42003" lon="15.1892583"><ele>408.4</ele><time>2026-03-28T09:07:14.02Z</time></trkpt><trkpt lat="40.420085" lon="15.18933"><ele>406.0</ele><time>2026-03-28T09:07:15.021Z</time></trkpt><trkpt lat="40.4201583" lon="15.1894133"><ele>406.0</ele><time>2026-03-28T09:07:17.021Z</time></trkpt><trkpt lat="40.4202283" lon="15.1894567"><ele>406.0</ele><time>2026-03-28T09:07:19.021Z</time></trkpt><trkpt lat="40.4202917" lon="15.1894917"><ele>406.0</ele><time>2026-03-28T09:07:20.02Z</time></trkpt><trkpt lat="40.4204" lon="15.18955"><ele>406.0</ele><time>2026-03-28T09:07:21.02Z</time></trkpt><trkpt lat="40.420555" lon="15.1896067"><ele>406.0</ele><time>2026-03-28T09:07:22.021Z</time></trkpt><trkpt lat="40.4207067" lon="15.1896683"><ele>406.0</ele><time>2026-03-28T09:07:23.02Z</time></trkpt><trkpt lat="40.420855" lon="15.1897317"><ele>406.0</ele><time>2026-03-28T09:07:24.02Z</time></trkpt><trkpt lat="40.4209767" lon="15.1898017"><ele>406.0</ele><time>2026-03-28T09:07:25.02Z</time></trkpt><trkpt lat="40.4210883" lon="15.1898817"><ele>406.0</ele><time>2026-03-28T09:07:26.02Z</time></trkpt><trkpt lat="40.42118" lon="15.1899667"><ele>405.1666666666667</ele><time>2026-03-28T09:07:27.02Z</time></trkpt><trkpt lat="40.4212667" lon="15.1900517"><ele>404.33333333333337</ele><time>2026-03-28T09:07:28.02Z</time></trkpt><trkpt lat="40.42134" lon="15.1901317"><ele>403.5</ele><time>2026-03-28T09:07:29.02Z</time></trkpt><trkpt lat="40.4213783" lon="15.1902133"><ele>402.66666666666663</ele><time>2026-03-28T09:07:30.02Z</time></trkpt><trkpt lat="40.4214017" lon="15.1903133"><ele>401.8333333333333</ele><time>2026-03-28T09:07:31.021Z</time></trkpt><trkpt lat="40.4214033" lon="15.190425"><ele>401.0</ele><time>2026-03-28T09:07:32.02Z</time></trkpt><trkpt lat="40.4213817" lon="15.1905483"><ele>401.0</ele><time>2026-03-28T09:07:33.021Z</time></trkpt><trkpt lat="40.42133" lon="15.1906717"><ele>401.0</ele><time>2026-03-28T09:07:34.02Z</time></trkpt><trkpt lat="40.4212517" lon="15.1908133"><ele>401.0</ele><time>2026-03-28T09:07:35.02Z</time></trkpt><trkpt lat="40.421155" lon="15.1909483"><ele>401.0</ele><time>2026-03-28T09:07:36.021Z</time></trkpt><trkpt lat="40.4210467" lon="15.1910733"><ele>400.75</ele><time>2026-03-28T09:07:37.021Z</time></trkpt><trkpt lat="40.4209383" lon="15.1911683"><ele>400.5</ele><time>2026-03-28T09:07:38.02Z</time></trkpt><trkpt lat="40.4208317" lon="15.191245"><ele>400.25</ele><time>2026-03-28T09:07:39.02Z</time></trkpt><trkpt lat="40.4207217" lon="15.1913133"><ele>400.0</ele><time>2026-03-28T09:07:40.02Z</time></trkpt><trkpt lat="40.420605" lon="15.19137"><ele>400.0</ele><time>2026-03-28T09:07:41.02Z</time></trkpt><trkpt lat="40.4204883" lon="15.1914267"><ele>400.0</ele><time>2026-03-28T09:07:42.02Z</time></trkpt><trkpt lat="40.420395" lon="15.19148"><ele>400.0</ele><time>2026-03-28T09:07:43.021Z</time></trkpt><trkpt lat="40.4203233" lon="15.1915417"><ele>400.0</ele><time>2026-03-28T09:07:44.02Z</time></trkpt><trkpt lat="40.4202633" lon="15.191595"><ele>400.0</ele><time>2026-03-28T09:07:45.021Z</time></trkpt><trkpt lat="40.4201883" lon="15.19164"><ele>398.83333333333337</ele><time>2026-03-28T09:07:47.02Z</time></trkpt><trkpt lat="40.4201283" lon="15.1915767"><ele>397.6666666666667</ele><time>2026-03-28T09:07:49.021Z</time></trkpt><trkpt lat="40.42009" lon="15.1915017"><ele>396.5</ele><time>2026-03-28T09:07:51.02Z</time></trkpt><trkpt lat="40.4200517" lon="15.19142"><ele>395.33333333333337</ele><time>2026-03-28T09:07:53.02Z</time></trkpt><trkpt lat="40.419995" lon="15.1913167"><ele>394.1666666666667</ele><time>2026-03-28T09:07:55.021Z</time></trkpt><trkpt lat="40.4199333" lon="15.1912667"><ele>393.0</ele><time>2026-03-28T09:07:57.02Z</time></trkpt><trkpt lat="40.4199833" lon="15.19133"><ele>393.0</ele><time>2026-03-28T09:08:42.021Z</time></trkpt><trkpt lat="40.42007" lon="15.1914717"><ele>393.0</ele><time>2026-03-28T09:08:44.02Z</time></trkpt><trkpt lat="40.4201117" lon="15.1915483"><ele>393.0</ele><time>2026-03-28T09:08:45.021Z</time></trkpt><trkpt lat="40.42015" lon="15.19162"><ele>393.0</ele><time>2026-03-28T09:08:46.02Z</time></trkpt><trkpt lat="40.4201933" lon="15.191695"><ele>393.0</ele><time>2026-03-28T09:08:48.021Z</time></trkpt><trkpt lat="40.420215" lon="15.1918233"><ele>393.0</ele><time>2026-03-28T09:13:12.021Z</time></trkpt><trkpt lat="40.42023" lon="15.1919233"><ele>392.59999999999997</ele><time>2026-03-28T09:13:13.02Z</time></trkpt><trkpt lat="40.4202517" lon="15.1920317"><ele>392.2</ele><time>2026-03-28T09:13:14.02Z</time></trkpt><trkpt lat="40.420285" lon="15.19215"><ele>391.8</ele><time>2026-03-28T09:13:15.021Z</time></trkpt><trkpt lat="40.4203367" lon="15.192285"><ele>391.4</ele><time>2026-03-28T09:13:16.02Z</time></trkpt><trkpt lat="40.42039" lon="15.192425"><ele>391.0</ele><time>2026-03-28T09:13:17.02Z</time></trkpt><trkpt lat="40.42044" lon="15.1925583"><ele>393.5</ele><time>2026-03-28T09:13:18.02Z</time></trkpt><trkpt lat="40.4205017" lon="15.1926883"><ele>396.0</ele><time>2026-03-28T09:13:19.021Z</time></trkpt><trkpt lat="40.4205683" lon="15.1928217"><ele>398.5</ele><time>2026-03-28T09:13:20.021Z</time></trkpt><trkpt lat="40.4206333" lon="15.1929467"><ele>401.0</ele><time>2026-03-28T09:13:21.021Z</time></trkpt><trkpt lat="40.4207017" lon="15.19307"><ele>398.8</ele><time>2026-03-28T09:13:22.02Z</time></trkpt><trkpt lat="40.4207617" lon="15.19319"><ele>396.6</ele><time>2026-03-28T09:13:23.021Z</time></trkpt><trkpt lat="40.4208133" lon="15.1933117"><ele>394.4</ele><time>2026-03-28T09:13:24.021Z</time></trkpt><trkpt lat="40.4208567" lon="15.193435"><ele>392.2</ele><time>2026-03-28T09:13:25.02Z</time></trkpt><trkpt lat="40.4209033" lon="15.193555"><ele>390.0</ele><time>2026-03-28T09:13:26.021Z</time></trkpt><trkpt lat="40.4209533" lon="15.19367"><ele>390.0</ele><time>2026-03-28T09:13:27.021Z</time></trkpt><trkpt lat="40.421005" lon="15.19378"><ele>390.0</ele><time>2026-03-28T09:13:28.021Z</time></trkpt><trkpt lat="40.421055" lon="15.1938917"><ele>390.0</ele><time>2026-03-28T09:13:29.02Z</time></trkpt><trkpt lat="40.4211017" lon="15.193995"><ele>390.0</ele><time>2026-03-28T09:13:30.02Z</time></trkpt><trkpt lat="40.4211467" lon="15.1940917"><ele>390.0</ele><time>2026-03-28T09:13:31.02Z</time></trkpt><trkpt lat="40.4211933" lon="15.194185"><ele>391.0</ele><time>2026-03-28T09:13:32.02Z</time></trkpt><trkpt lat="40.421235" lon="15.1942767"><ele>392.0</ele><time>2026-03-28T09:13:33.02Z</time></trkpt><trkpt lat="40.4212767" lon="15.1943683"><ele>393.0</ele><time>2026-03-28T09:13:34.021Z</time></trkpt><trkpt lat="40.4213233" lon="15.1944517"><ele>394.0</ele><time>2026-03-28T09:13:35.02Z</time></trkpt><trkpt lat="40.421375" lon="15.1945267"><ele>395.0</ele><time>2026-03-28T09:13:36.02Z</time></trkpt><trkpt lat="40.421435" lon="15.194595"><ele>396.0</ele><time>2026-03-28T09:13:37.02Z</time></trkpt><trkpt lat="40.4214983" lon="15.1946483"><ele>396.0</ele><time>2026-03-28T09:13:38.02Z</time></trkpt><trkpt lat="40.4215633" lon="15.194695"><ele>396.0</ele><time>2026-03-28T09:13:39.02Z</time></trkpt><trkpt lat="40.4216283" lon="15.194735"><ele>396.0</ele><time>2026-03-28T09:13:40.021Z</time></trkpt><trkpt lat="40.4216933" lon="15.194775"><ele>396.0</ele><time>2026-03-28T09:13:41.02Z</time></trkpt><trkpt lat="40.4217617" lon="15.1948083"><ele>396.0</ele><time>2026-03-28T09:13:42.02Z</time></trkpt><trkpt lat="40.4218267" lon="15.19484"><ele>396.0</ele><time>2026-03-28T09:13:43.02Z</time></trkpt><trkpt lat="40.421895" lon="15.194865"><ele>396.0</ele><time>2026-03-28T09:13:44.021Z</time></trkpt><trkpt lat="40.4219683" lon="15.1948883"><ele>394.6666666666667</ele><time>2026-03-28T09:13:45.021Z</time></trkpt><trkpt lat="40.4220467" lon="15.1949"><ele>393.33333333333337</ele><time>2026-03-28T09:13:46.02Z</time></trkpt><trkpt lat="40.4221217" lon="15.1949"><ele>392.0</ele><time>2026-03-28T09:13:47.02Z</time></trkpt><trkpt lat="40.4221967" lon="15.1948933"><ele>390.6666666666667</ele><time>2026-03-28T09:13:48.021Z</time></trkpt><trkpt lat="40.4222733" lon="15.1948683"><ele>389.33333333333337</ele><time>2026-03-28T09:13:49.02Z</time></trkpt><trkpt lat="40.4223417" lon="15.1948383"><ele>388.0</ele><time>2026-03-28T09:13:50.02Z</time></trkpt><trkpt lat="40.42241" lon="15.1947967"><ele>388.00000000000006</ele><time>2026-03-28T09:13:51.02Z</time></trkpt><trkpt lat="40.4224833" lon="15.1947517"><ele>388.0</ele><time>2026-03-28T09:13:52.021Z</time></trkpt><trkpt lat="40.4225517" lon="15.194705"><ele>388.0</ele><time>2026-03-28T09:13:53.021Z</time></trkpt><trkpt lat="40.4226217" lon="15.1946517"><ele>388.0</ele><time>2026-03-28T09:13:54.02Z</time></trkpt><trkpt lat="40.4227033" lon="15.194595"><ele>388.00000000000006</ele><time>2026-03-28T09:13:55.02Z</time></trkpt><trkpt lat="40.4227917" lon="15.194545"><ele>388.0</ele><time>2026-03-28T09:13:56.02Z</time></trkpt><trkpt lat="40.42288" lon="15.194495"><ele>388.00000000000006</ele><time>2026-03-28T09:13:57.02Z</time></trkpt><trkpt lat="40.4229667" lon="15.1944417"><ele>388.0</ele><time>2026-03-28T09:13:58.02Z</time></trkpt><trkpt lat="40.42305" lon="15.1943967"><ele>388.0</ele><time>2026-03-28T09:13:59.02Z</time></trkpt><trkpt lat="40.4231317" lon="15.1943567"><ele>388.0</ele><time>2026-03-28T09:14:00.021Z</time></trkpt><trkpt lat="40.4232133" lon="15.1943183"><ele>388.00000000000006</ele><time>2026-03-28T09:14:01.02Z</time></trkpt><trkpt lat="40.4232933" lon="15.1942867"><ele>388.0</ele><time>2026-03-28T09:14:02.02Z</time></trkpt><trkpt lat="40.423375" lon="15.1942617"><ele>384.79999999999995</ele><time>2026-03-28T09:14:03.02Z</time></trkpt><trkpt lat="40.423465" lon="15.1942433"><ele>381.6</ele><time>2026-03-28T09:14:04.021Z</time></trkpt><trkpt lat="40.4235667" lon="15.1942267"><ele>378.4</ele><time>2026-03-28T09:14:05.02Z</time></trkpt><trkpt lat="40.4236833" lon="15.1942083"><ele>375.20000000000005</ele><time>2026-03-28T09:14:06.021Z</time></trkpt><trkpt lat="40.4237967" lon="15.1941883"><ele>372.0</ele><time>2026-03-28T09:14:07.02Z</time></trkpt><trkpt lat="40.423905" lon="15.1941867"><ele>372.0</ele><time>2026-03-28T09:14:08.021Z</time></trkpt><trkpt lat="40.4240117" lon="15.194215"><ele>372.0</ele><time>2026-03-28T09:14:09.021Z</time></trkpt><trkpt lat="40.424115" lon="15.1942617"><ele>372.0</ele><time>2026-03-28T09:14:10.021Z</time></trkpt><trkpt lat="40.4242017" lon="15.19433"><ele>372.0</ele><time>2026-03-28T09:14:11.021Z</time></trkpt><trkpt lat="40.4242733" lon="15.1944267"><ele>372.0</ele><time>2026-03-28T09:14:12.02Z</time></trkpt><trkpt lat="40.4243167" lon="15.1945433"><ele>372.0</ele><time>2026-03-28T09:14:13.021Z</time></trkpt><trkpt lat="40.4243383" lon="15.1946633"><ele>372.0</ele><time>2026-03-28T09:14:14.021Z</time></trkpt><trkpt lat="40.4243417" lon="15.19477"><ele>372.0</ele><time>2026-03-28T09:14:15.021Z</time></trkpt><trkpt lat="40.4243283" lon="15.1948583"><ele>372.0</ele><time>2026-03-28T09:14:16.02Z</time></trkpt><trkpt lat="40.424255" lon="15.1949633"><ele>372.0</ele><time>2026-03-28T09:14:18.02Z</time></trkpt><trkpt lat="40.4241267" lon="15.1949417"><ele>372.0</ele><time>2026-03-28T09:14:20.02Z</time></trkpt><trkpt lat="40.4240533" lon="15.194875"><ele>372.0</ele><time>2026-03-28T09:14:21.02Z</time></trkpt><trkpt lat="40.4239783" lon="15.1947917"><ele>372.0</ele><time>2026-03-28T09:14:22.021Z</time></trkpt><trkpt lat="40.4238967" lon="15.1947417"><ele>372.0</ele><time>2026-03-28T09:14:23.021Z</time></trkpt><trkpt lat="40.4237867" lon="15.1946883"><ele>372.0</ele><time>2026-03-28T09:14:24.02Z</time></trkpt><trkpt lat="40.4236583" lon="15.1946567"><ele>371.75</ele><time>2026-03-28T09:14:25.02Z</time></trkpt><trkpt lat="40.4235383" lon="15.19466"><ele>371.5</ele><time>2026-03-28T09:14:26.02Z</time></trkpt><trkpt lat="40.42342" lon="15.1946933"><ele>371.25</ele><time>2026-03-28T09:14:27.02Z</time></trkpt><trkpt lat="40.423305" lon="15.19475"><ele>371.0</ele><time>2026-03-28T09:14:28.02Z</time></trkpt><trkpt lat="40.4231867" lon="15.1948317"><ele>370.25</ele><time>2026-03-28T09:14:29.021Z</time></trkpt><trkpt lat="40.423065" lon="15.1949233"><ele>369.5</ele><time>2026-03-28T09:14:30.02Z</time></trkpt><trkpt lat="40.4229417" lon="15.19501"><ele>368.75</ele><time>2026-03-28T09:14:31.021Z</time></trkpt><trkpt lat="40.4228117" lon="15.1951033"><ele>368.0</ele><time>2026-03-28T09:14:32.02Z</time></trkpt><trkpt lat="40.4226733" lon="15.1951883"><ele>368.0</ele><time>2026-03-28T09:14:33.021Z</time></trkpt><trkpt lat="40.4225283" lon="15.19528"><ele>368.0</ele><time>2026-03-28T09:14:34.02Z</time></trkpt><trkpt lat="40.4223783" lon="15.1953583"><ele>368.0</ele><time>2026-03-28T09:14:35.021Z</time></trkpt><trkpt lat="40.4222333" lon="15.19542"><ele>368.75</ele><time>2026-03-28T09:14:36.021Z</time></trkpt><trkpt lat="40.4220867" lon="15.1954617"><ele>369.5</ele><time>2026-03-28T09:14:37.02Z</time></trkpt><trkpt lat="40.4219417" lon="15.1954833"><ele>370.25</ele><time>2026-03-28T09:14:38.02Z</time></trkpt><trkpt lat="40.4218" lon="15.195485"><ele>371.0</ele><time>2026-03-28T09:14:39.021Z</time></trkpt><trkpt lat="40.421665" lon="15.1954533"><ele>371.0</ele><time>2026-03-28T09:14:40.021Z</time></trkpt><trkpt lat="40.4215283" lon="15.1953917"><ele>371.0</ele><time>2026-03-28T09:14:41.021Z</time></trkpt><trkpt lat="40.4213817" lon="15.1953083"><ele>371.0</ele><time>2026-03-28T09:14:42.021Z</time></trkpt><trkpt lat="40.4212267" lon="15.1952"><ele>373.6666666666667</ele><time>2026-03-28T09:14:43.021Z</time></trkpt><trkpt lat="40.4210633" lon="15.19508"><ele>376.3333333333333</ele><time>2026-03-28T09:14:44.021Z</time></trkpt><trkpt lat="40.4208967" lon="15.1949533"><ele>379.0</ele><time>2026-03-28T09:14:45.021Z</time></trkpt><trkpt lat="40.4207283" lon="15.1948183"><ele>379.0</ele><time>2026-03-28T09:14:46.02Z</time></trkpt><trkpt lat="40.4205783" lon="15.1946817"><ele>379.0</ele><time>2026-03-28T09:14:47.021Z</time></trkpt><trkpt lat="40.4204167" lon="15.19456"><ele>379.0</ele><time>2026-03-28T09:14:48.02Z</time></trkpt><trkpt lat="40.4202633" lon="15.1944517"><ele>373.3333333333333</ele><time>2026-03-28T09:14:49.02Z</time></trkpt><trkpt lat="40.4201167" lon="15.194335"><ele>367.6666666666667</ele><time>2026-03-28T09:14:50.021Z</time></trkpt><trkpt lat="40.4199683" lon="15.194205"><ele>362.0</ele><time>2026-03-28T09:14:51.02Z</time></trkpt><trkpt lat="40.4198233" lon="15.1940717"><ele>361.0</ele><time>2026-03-28T09:14:52.02Z</time></trkpt><trkpt lat="40.4196933" lon="15.1939433"><ele>360.0</ele><time>2026-03-28T09:14:53.02Z</time></trkpt><trkpt lat="40.4195717" lon="15.1938033"><ele>359.0</ele><time>2026-03-28T09:14:54.021Z</time></trkpt><trkpt lat="40.4194617" lon="15.1936733"><ele>359.0</ele><time>2026-03-28T09:14:55.02Z</time></trkpt><trkpt lat="40.419365" lon="15.1935317"><ele>359.0</ele><time>2026-03-28T09:14:56.021Z</time></trkpt><trkpt lat="40.4192783" lon="15.1933717"><ele>359.0</ele><time>2026-03-28T09:14:57.021Z</time></trkpt><trkpt lat="40.4191983" lon="15.1932117"><ele>359.0</ele><time>2026-03-28T09:14:58.02Z</time></trkpt><trkpt lat="40.4191333" lon="15.19305"><ele>360.79999999999995</ele><time>2026-03-28T09:14:59.021Z</time></trkpt><trkpt lat="40.4190833" lon="15.1928917"><ele>362.59999999999997</ele><time>2026-03-28T09:15:00.02Z</time></trkpt><trkpt lat="40.4190417" lon="15.19275"><ele>364.4</ele><time>2026-03-28T09:15:01.02Z</time></trkpt><trkpt lat="40.4190067" lon="15.1926283"><ele>366.2</ele><time>2026-03-28T09:15:02.02Z</time></trkpt><trkpt lat="40.418955" lon="15.1925333"><ele>368.0</ele><time>2026-03-28T09:15:03.02Z</time></trkpt><trkpt lat="40.4188733" lon="15.192475"><ele>367.75</ele><time>2026-03-28T09:15:04.021Z</time></trkpt><trkpt lat="40.4187717" lon="15.1924583"><ele>367.5</ele><time>2026-03-28T09:15:05.021Z</time></trkpt><trkpt lat="40.418665" lon="15.1924967"><ele>367.25</ele><time>2026-03-28T09:15:06.021Z</time></trkpt><trkpt lat="40.4185483" lon="15.1925617"><ele>367.0</ele><time>2026-03-28T09:15:07.02Z</time></trkpt><trkpt lat="40.41843" lon="15.19266"><ele>367.0</ele><time>2026-03-28T09:15:08.021Z</time></trkpt><trkpt lat="40.418335" lon="15.1927867"><ele>367.0</ele><time>2026-03-28T09:15:09.021Z</time></trkpt><trkpt lat="40.418255" lon="15.1929267"><ele>367.0</ele><time>2026-03-28T09:15:10.02Z</time></trkpt><trkpt lat="40.41819" lon="15.19308"><ele>367.0</ele><time>2026-03-28T09:15:11.021Z</time></trkpt><trkpt lat="40.4181567" lon="15.1932533"><ele>365.5</ele><time>2026-03-28T09:15:12.02Z</time></trkpt><trkpt lat="40.4181483" lon="15.1934367"><ele>364.0</ele><time>2026-03-28T09:15:13.02Z</time></trkpt><trkpt lat="40.4181683" lon="15.1936233"><ele>362.5</ele><time>2026-03-28T09:15:14.021Z</time></trkpt><trkpt lat="40.4181933" lon="15.19381"><ele>361.0</ele><time>2026-03-28T09:15:15.021Z</time></trkpt><trkpt lat="40.4182167" lon="15.1939917"><ele>360.6</ele><time>2026-03-28T09:15:16.02Z</time></trkpt><trkpt lat="40.41823" lon="15.1941533"><ele>360.20000000000005</ele><time>2026-03-28T09:15:17.02Z</time></trkpt><trkpt lat="40.4182283" lon="15.1943033"><ele>359.79999999999995</ele><time>2026-03-28T09:15:18.021Z</time></trkpt><trkpt lat="40.4182267" lon="15.19444"><ele>359.4</ele><time>2026-03-28T09:15:19.02Z</time></trkpt><trkpt lat="40.4182" lon="15.1945683"><ele>359.0</ele><time>2026-03-28T09:15:20.021Z</time></trkpt><trkpt lat="40.4181383" lon="15.1946767"><ele>359.0</ele><time>2026-03-28T09:15:21.02Z</time></trkpt><trkpt lat="40.4180417" lon="15.194765"><ele>359.0</ele><time>2026-03-28T09:15:22.02Z</time></trkpt><trkpt lat="40.41792" lon="15.1948417"><ele>359.0</ele><time>2026-03-28T09:15:23.02Z</time></trkpt><trkpt lat="40.4177867" lon="15.194905"><ele>359.0</ele><time>2026-03-28T09:15:24.02Z</time></trkpt><trkpt lat="40.41764" lon="15.1949767"><ele>360.33333333333337</ele><time>2026-03-28T09:15:25.02Z</time></trkpt><trkpt lat="40.4174933" lon="15.19506"><ele>361.6666666666667</ele><time>2026-03-28T09:15:26.021Z</time></trkpt><trkpt lat="40.417355" lon="15.1951617"><ele>363.0</ele><time>2026-03-28T09:15:27.02Z</time></trkpt><trkpt lat="40.4172367" lon="15.1952767"><ele>364.59999999999997</ele><time>2026-03-28T09:15:28.021Z</time></trkpt><trkpt lat="40.4171333" lon="15.1953867"><ele>366.2</ele><time>2026-03-28T09:15:29.02Z</time></trkpt><trkpt lat="40.4170467" lon="15.19549"><ele>367.8</ele><time>2026-03-28T09:15:30.02Z</time></trkpt><trkpt lat="40.416985" lon="15.1955983"><ele>369.4</ele><time>2026-03-28T09:15:31.02Z</time></trkpt><trkpt lat="40.4169567" lon="15.1957133"><ele>371.0</ele><time>2026-03-28T09:15:32.02Z</time></trkpt><trkpt lat="40.416965" lon="15.1958317"><ele>371.0</ele><time>2026-03-28T09:15:33.02Z</time></trkpt><trkpt lat="40.4170017" lon="15.1959317"><ele>371.0</ele><time>2026-03-28T09:15:34.02Z</time></trkpt><trkpt lat="40.4170717" lon="15.1960283"><ele>371.0</ele><time>2026-03-28T09:15:35.02Z</time></trkpt><trkpt lat="40.41714" lon="15.196125"><ele>371.0</ele><time>2026-03-28T09:15:36.02Z</time></trkpt><trkpt lat="40.4171933" lon="15.1962333"><ele>371.0</ele><time>2026-03-28T09:15:37.02Z</time></trkpt><trkpt lat="40.4172083" lon="15.19637"><ele>371.5</ele><time>2026-03-28T09:15:38.021Z</time></trkpt><trkpt lat="40.4171933" lon="15.1965283"><ele>372.0</ele><time>2026-03-28T09:15:39.02Z</time></trkpt><trkpt lat="40.4171633" lon="15.196705"><ele>372.5</ele><time>2026-03-28T09:15:40.02Z</time></trkpt><trkpt lat="40.417125" lon="15.19689"><ele>373.0</ele><time>2026-03-28T09:15:41.021Z</time></trkpt><trkpt lat="40.417095" lon="15.1970883"><ele>373.0</ele><time>2026-03-28T09:15:42.021Z</time></trkpt><trkpt lat="40.4170633" lon="15.1972867"><ele>373.0</ele><time>2026-03-28T09:15:43.021Z</time></trkpt><trkpt lat="40.41704" lon="15.1974667"><ele>373.0</ele><time>2026-03-28T09:15:44.021Z</time></trkpt><trkpt lat="40.4170083" lon="15.1976283"><ele>373.0</ele><time>2026-03-28T09:15:45.02Z</time></trkpt><trkpt lat="40.4169617" lon="15.19778"><ele>372.25</ele><time>2026-03-28T09:15:46.02Z</time></trkpt><trkpt lat="40.416875" lon="15.19791"><ele>371.5</ele><time>2026-03-28T09:15:47.021Z</time></trkpt><trkpt lat="40.4167733" lon="15.1980183"><ele>370.75</ele><time>2026-03-28T09:15:48.021Z</time></trkpt><trkpt lat="40.4166817" lon="15.19812"><ele>370.0</ele><time>2026-03-28T09:15:49.021Z</time></trkpt><trkpt lat="40.4166067" lon="15.1982517"><ele>367.75</ele><time>2026-03-28T09:15:50.021Z</time></trkpt><trkpt lat="40.4165633" lon="15.1984183"><ele>365.5</ele><time>2026-03-28T09:15:51.02Z</time></trkpt><trkpt lat="40.4165467" lon="15.198605"><ele>363.25</ele><time>2026-03-28T09:15:52.02Z</time></trkpt><trkpt lat="40.41655" lon="15.198795"><ele>361.0</ele><time>2026-03-28T09:15:53.02Z</time></trkpt><trkpt lat="40.41656" lon="15.1989917"><ele>361.0</ele><time>2026-03-28T09:15:54.02Z</time></trkpt><trkpt lat="40.4165783" lon="15.1991783"><ele>361.0</ele><time>2026-03-28T09:15:55.02Z</time></trkpt><trkpt lat="40.4166167" lon="15.1993617"><ele>361.0</ele><time>2026-03-28T09:15:56.021Z</time></trkpt><trkpt lat="40.416685" lon="15.1995333"><ele>361.0</ele><time>2026-03-28T09:15:57.021Z</time></trkpt><trkpt lat="40.4167733" lon="15.1997033"><ele>364.0</ele><time>2026-03-28T09:15:58.02Z</time></trkpt><trkpt lat="40.4168717" lon="15.1998633"><ele>367.0</ele><time>2026-03-28T09:15:59.02Z</time></trkpt><trkpt lat="40.416975" lon="15.2000217"><ele>370.0</ele><time>2026-03-28T09:16:00.02Z</time></trkpt><trkpt lat="40.4170733" lon="15.2001783"><ele>365.5</ele><time>2026-03-28T09:16:01.021Z</time></trkpt><trkpt lat="40.41716" lon="15.2003383"><ele>361.0</ele><time>2026-03-28T09:16:02.021Z</time></trkpt><trkpt lat="40.417235" lon="15.20049"><ele>356.5</ele><time>2026-03-28T09:16:03.02Z</time></trkpt><trkpt lat="40.41729" lon="15.20065"><ele>352.0</ele><time>2026-03-28T09:16:04.021Z</time></trkpt><trkpt lat="40.417325" lon="15.2008183"><ele>352.0</ele><time>2026-03-28T09:16:05.02Z</time></trkpt><trkpt lat="40.41734" lon="15.201005"><ele>352.0</ele><time>2026-03-28T09:16:06.02Z</time></trkpt><trkpt lat="40.4173683" lon="15.201205"><ele>352.0</ele><time>2026-03-28T09:16:07.021Z</time></trkpt><trkpt lat="40.4174067" lon="15.2014167"><ele>353.0</ele><time>2026-03-28T09:16:08.02Z</time></trkpt><trkpt lat="40.417455" lon="15.201635"><ele>354.0</ele><time>2026-03-28T09:16:09.021Z</time></trkpt><trkpt lat="40.4175133" lon="15.201855"><ele>355.0</ele><time>2026-03-28T09:16:10.02Z</time></trkpt><trkpt lat="40.4175683" lon="15.20207"><ele>355.0</ele><time>2026-03-28T09:16:11.02Z</time></trkpt><trkpt lat="40.4176233" lon="15.2022817"><ele>355.0</ele><time>2026-03-28T09:16:12.02Z</time></trkpt><trkpt lat="40.4176867" lon="15.202485"><ele>355.0</ele><time>2026-03-28T09:16:13.021Z</time></trkpt><trkpt lat="40.4177433" lon="15.2026767"><ele>353.75</ele><time>2026-03-28T09:16:14.02Z</time></trkpt><trkpt lat="40.4178017" lon="15.2028483"><ele>352.5</ele><time>2026-03-28T09:16:15.02Z</time></trkpt><trkpt lat="40.4178633" lon="15.20301"><ele>351.25</ele><time>2026-03-28T09:16:16.02Z</time></trkpt><trkpt lat="40.4179417" lon="15.203155"><ele>350.0</ele><time>2026-03-28T09:16:17.02Z</time></trkpt><trkpt lat="40.4180317" lon="15.2032833"><ele>350.0</ele><time>2026-03-28T09:16:18.02Z</time></trkpt><trkpt lat="40.4181417" lon="15.2033833"><ele>350.0</ele><time>2026-03-28T09:16:19.021Z</time></trkpt><trkpt lat="40.4182617" lon="15.20347"><ele>350.0</ele><time>2026-03-28T09:16:20.02Z</time></trkpt><trkpt lat="40.4183983" lon="15.203545"><ele>350.0</ele><time>2026-03-28T09:16:21.02Z</time></trkpt><trkpt lat="40.418535" lon="15.20361"><ele>350.0</ele><time>2026-03-28T09:16:22.02Z</time></trkpt><trkpt lat="40.41867" lon="15.2036567"><ele>350.0</ele><time>2026-03-28T09:16:23.02Z</time></trkpt><trkpt lat="40.4188067" lon="15.2036883"><ele>350.0</ele><time>2026-03-28T09:16:24.02Z</time></trkpt><trkpt lat="40.4189367" lon="15.203695"><ele>350.0</ele><time>2026-03-28T09:16:25.02Z</time></trkpt><trkpt lat="40.4190583" lon="15.2036867"><ele>347.8</ele><time>2026-03-28T09:16:26.02Z</time></trkpt><trkpt lat="40.41917" lon="15.20368"><ele>345.6</ele><time>2026-03-28T09:16:27.02Z</time></trkpt><trkpt lat="40.419265" lon="15.2036933"><ele>343.4</ele><time>2026-03-28T09:16:28.021Z</time></trkpt><trkpt lat="40.4193467" lon="15.2037417"><ele>341.2</ele><time>2026-03-28T09:16:29.021Z</time></trkpt><trkpt lat="40.4194233" lon="15.20382"><ele>339.0</ele><time>2026-03-28T09:16:30.02Z</time></trkpt><trkpt lat="40.4194933" lon="15.2039267"><ele>338.5</ele><time>2026-03-28T09:16:31.021Z</time></trkpt><trkpt lat="40.4195433" lon="15.20405"><ele>338.0</ele><time>2026-03-28T09:16:32.021Z</time></trkpt><trkpt lat="40.4196017" lon="15.2041867"><ele>337.5</ele><time>2026-03-28T09:16:33.02Z</time></trkpt><trkpt lat="40.4196783" lon="15.2043083"><ele>337.0</ele><time>2026-03-28T09:16:34.02Z</time></trkpt><trkpt lat="40.4197683" lon="15.2044133"><ele>337.0</ele><time>2026-03-28T09:16:35.02Z</time></trkpt><trkpt lat="40.41987" lon="15.2044933"><ele>337.0</ele><time>2026-03-28T09:16:36.02Z</time></trkpt><trkpt lat="40.41998" lon="15.2045533"><ele>337.0</ele><time>2026-03-28T09:16:37.021Z</time></trkpt><trkpt lat="40.42007" lon="15.204605"><ele>337.0</ele><time>2026-03-28T09:16:38.02Z</time></trkpt><trkpt lat="40.420165" lon="15.2046883"><ele>337.0</ele><time>2026-03-28T09:16:39.021Z</time></trkpt><trkpt lat="40.42025" lon="15.2048"><ele>337.0</ele><time>2026-03-28T09:16:40.021Z</time></trkpt><trkpt lat="40.420325" lon="15.2049433"><ele>337.0</ele><time>2026-03-28T09:16:41.02Z</time></trkpt><trkpt lat="40.4203883" lon="15.20508"><ele>337.0</ele><time>2026-03-28T09:16:42.02Z</time></trkpt><trkpt lat="40.4204233" lon="15.2052383"><ele>338.25</ele><time>2026-03-28T09:16:43.02Z</time></trkpt><trkpt lat="40.4204617" lon="15.2054117"><ele>339.5</ele><time>2026-03-28T09:16:44.02Z</time></trkpt><trkpt lat="40.4205033" lon="15.2055783"><ele>340.75</ele><time>2026-03-28T09:16:45.021Z</time></trkpt><trkpt lat="40.420565" lon="15.2057267"><ele>342.0</ele><time>2026-03-28T09:16:46.021Z</time></trkpt><trkpt lat="40.4206533" lon="15.20586"><ele>342.0</ele><time>2026-03-28T09:16:47.02Z</time></trkpt><trkpt lat="40.4207567" lon="15.2059767"><ele>342.0</ele><time>2026-03-28T09:16:48.02Z</time></trkpt><trkpt lat="40.4208733" lon="15.20609"><ele>342.0</ele><time>2026-03-28T09:16:49.021Z</time></trkpt><trkpt lat="40.42099" lon="15.2062017"><ele>342.0</ele><time>2026-03-28T09:16:50.021Z</time></trkpt><trkpt lat="40.421095" lon="15.2063083"><ele>342.0</ele><time>2026-03-28T09:16:51.02Z</time></trkpt><trkpt lat="40.4211817" lon="15.2064"><ele>342.0</ele><time>2026-03-28T09:16:52.02Z</time></trkpt><trkpt lat="40.4212717" lon="15.2064683"><ele>342.0</ele><time>2026-03-28T09:16:53.02Z</time></trkpt><trkpt lat="40.42137" lon="15.2065067"><ele>342.0</ele><time>2026-03-28T09:16:54.02Z</time></trkpt><trkpt lat="40.421475" lon="15.2065283"><ele>342.0</ele><time>2026-03-28T09:16:55.021Z</time></trkpt><trkpt lat="40.4215917" lon="15.2065533"><ele>344.25</ele><time>2026-03-28T09:16:56.02Z</time></trkpt><trkpt lat="40.4217133" lon="15.2065767"><ele>346.5</ele><time>2026-03-28T09:16:57.02Z</time></trkpt><trkpt lat="40.42184" lon="15.2066133"><ele>348.75</ele><time>2026-03-28T09:16:58.02Z</time></trkpt><trkpt lat="40.4219633" lon="15.206645"><ele>351.0</ele><time>2026-03-28T09:16:59.021Z</time></trkpt><trkpt lat="40.4220917" lon="15.2066683"><ele>350.75</ele><time>2026-03-28T09:17:00.021Z</time></trkpt><trkpt lat="40.4222133" lon="15.20668"><ele>350.5</ele><time>2026-03-28T09:17:01.02Z</time></trkpt><trkpt lat="40.4223383" lon="15.2066683"><ele>350.25</ele><time>2026-03-28T09:17:02.02Z</time></trkpt><trkpt lat="40.4224683" lon="15.206625"><ele>350.0</ele><time>2026-03-28T09:17:03.02Z</time></trkpt><trkpt lat="40.4226" lon="15.2065533"><ele>344.75</ele><time>2026-03-28T09:17:04.02Z</time></trkpt><trkpt lat="40.4227333" lon="15.20647"><ele>339.5</ele><time>2026-03-28T09:17:05.021Z</time></trkpt><trkpt lat="40.4228533" lon="15.2063967"><ele>334.25</ele><time>2026-03-28T09:17:06.02Z</time></trkpt><trkpt lat="40.4229633" lon="15.20632"><ele>329.0</ele><time>2026-03-28T09:17:07.021Z</time></trkpt><trkpt lat="40.4230633" lon="15.206245"><ele>329.0</ele><time>2026-03-28T09:17:08.02Z</time></trkpt><trkpt lat="40.4231733" lon="15.2061867"><ele>329.0</ele><time>2026-03-28T09:17:09.021Z</time></trkpt><trkpt lat="40.4232867" lon="15.2061467"><ele>329.0</ele><time>2026-03-28T09:17:10.021Z</time></trkpt><trkpt lat="40.4234133" lon="15.20613"><ele>329.0</ele><time>2026-03-28T09:17:11.02Z</time></trkpt><trkpt lat="40.423545" lon="15.206145"><ele>329.0</ele><time>2026-03-28T09:17:12.02Z</time></trkpt><trkpt lat="40.42368" lon="15.2061833"><ele>329.0</ele><time>2026-03-28T09:17:13.02Z</time></trkpt><trkpt lat="40.4238283" lon="15.20623"><ele>329.0</ele><time>2026-03-28T09:17:14.02Z</time></trkpt><trkpt lat="40.4239717" lon="15.206275"><ele>329.0</ele><time>2026-03-28T09:17:15.021Z</time></trkpt><trkpt lat="40.4241117" lon="15.206325"><ele>327.0</ele><time>2026-03-28T09:17:16.02Z</time></trkpt><trkpt lat="40.4242367" lon="15.206375"><ele>325.0</ele><time>2026-03-28T09:17:17.02Z</time></trkpt><trkpt lat="40.4243467" lon="15.2064183"><ele>323.0</ele><time>2026-03-28T09:17:18.021Z</time></trkpt><trkpt lat="40.4244417" lon="15.2064767"><ele>321.0</ele><time>2026-03-28T09:17:19.02Z</time></trkpt><trkpt lat="40.4245333" lon="15.2065617"><ele>321.0</ele><time>2026-03-28T09:17:20.02Z</time></trkpt><trkpt lat="40.4246067" lon="15.2066633"><ele>321.0</ele><time>2026-03-28T09:17:21.02Z</time></trkpt><trkpt lat="40.424655" lon="15.206795"><ele>321.0</ele><time>2026-03-28T09:17:22.02Z</time></trkpt><trkpt lat="40.424705" lon="15.2069617"><ele>321.0</ele><time>2026-03-28T09:17:23.02Z</time></trkpt><trkpt lat="40.4247583" lon="15.20714"><ele>321.0</ele><time>2026-03-28T09:17:24.02Z</time></trkpt><trkpt lat="40.4248233" lon="15.207325"><ele>321.0</ele><time>2026-03-28T09:17:25.021Z</time></trkpt><trkpt lat="40.42489" lon="15.2075033"><ele>321.0</ele><time>2026-03-28T09:17:26.021Z</time></trkpt><trkpt lat="40.424965" lon="15.207685"><ele>324.3333333333333</ele><time>2026-03-28T09:17:27.02Z</time></trkpt><trkpt lat="40.4250417" lon="15.207865"><ele>327.66666666666663</ele><time>2026-03-28T09:17:28.021Z</time></trkpt><trkpt lat="40.425115" lon="15.2080483"><ele>331.0</ele><time>2026-03-28T09:17:29.021Z</time></trkpt><trkpt lat="40.4251933" lon="15.208235"><ele>333.75</ele><time>2026-03-28T09:17:30.02Z</time></trkpt><trkpt lat="40.42527" lon="15.2084133"><ele>336.5</ele><time>2026-03-28T09:17:31.021Z</time></trkpt><trkpt lat="40.4253417" lon="15.208575"><ele>339.25</ele><time>2026-03-28T09:17:32.02Z</time></trkpt><trkpt lat="40.4253933" lon="15.208715"><ele>342.0</ele><time>2026-03-28T09:17:33.02Z</time></trkpt><trkpt lat="40.425425" lon="15.2088333"><ele>342.0</ele><time>2026-03-28T09:17:34.02Z</time></trkpt><trkpt lat="40.4254283" lon="15.2089467"><ele>342.0</ele><time>2026-03-28T09:17:35.02Z</time></trkpt><trkpt lat="40.4254" lon="15.209065"><ele>342.0</ele><time>2026-03-28T09:17:36.02Z</time></trkpt><trkpt lat="40.4253383" lon="15.209195"><ele>342.0</ele><time>2026-03-28T09:17:37.021Z</time></trkpt><trkpt lat="40.4252633" lon="15.20934"><ele>342.0</ele><time>2026-03-28T09:17:38.02Z</time></trkpt><trkpt lat="40.425195" lon="15.2095"><ele>342.3333333333333</ele><time>2026-03-28T09:17:39.02Z</time></trkpt><trkpt lat="40.4251083" lon="15.2096683"><ele>342.66666666666663</ele><time>2026-03-28T09:17:40.02Z</time></trkpt><trkpt lat="40.4250167" lon="15.2098467"><ele>343.0</ele><time>2026-03-28T09:17:41.02Z</time></trkpt><trkpt lat="40.4249267" lon="15.210025"><ele>343.0</ele><time>2026-03-28T09:17:42.02Z</time></trkpt><trkpt lat="40.4248433" lon="15.2101983"><ele>343.0</ele><time>2026-03-28T09:17:43.02Z</time></trkpt><trkpt lat="40.4247583" lon="15.210385"><ele>343.0</ele><time>2026-03-28T09:17:44.02Z</time></trkpt><trkpt lat="40.424685" lon="15.2105783"><ele>346.0</ele><time>2026-03-28T09:17:45.021Z</time></trkpt><trkpt lat="40.4246067" lon="15.2107717"><ele>349.0</ele><time>2026-03-28T09:17:46.02Z</time></trkpt><trkpt lat="40.4245167" lon="15.2109683"><ele>352.0</ele><time>2026-03-28T09:17:47.02Z</time></trkpt><trkpt lat="40.4244367" lon="15.2111717"><ele>352.0</ele><time>2026-03-28T09:17:48.021Z</time></trkpt><trkpt lat="40.42435" lon="15.2113667"><ele>352.0</ele><time>2026-03-28T09:17:49.02Z</time></trkpt><trkpt lat="40.4242533" lon="15.2115617"><ele>352.0</ele><time>2026-03-28T09:17:50.02Z</time></trkpt><trkpt lat="40.4241617" lon="15.2117667"><ele>350.3333333333333</ele><time>2026-03-28T09:17:51.02Z</time></trkpt><trkpt lat="40.42407" lon="15.211975"><ele>348.6666666666667</ele><time>2026-03-28T09:17:52.02Z</time></trkpt><trkpt lat="40.4239867" lon="15.212185"><ele>347.0</ele><time>2026-03-28T09:17:53.021Z</time></trkpt><trkpt lat="40.4238917" lon="15.2124"><ele>349.33333333333337</ele><time>2026-03-28T09:17:54.021Z</time></trkpt><trkpt lat="40.4238033" lon="15.2126117"><ele>351.6666666666667</ele><time>2026-03-28T09:17:55.021Z</time></trkpt><trkpt lat="40.4237167" lon="15.2128267"><ele>354.0</ele><time>2026-03-28T09:17:56.021Z</time></trkpt><trkpt lat="40.4236317" lon="15.21304"><ele>350.6666666666667</ele><time>2026-03-28T09:17:57.021Z</time></trkpt><trkpt lat="40.423545" lon="15.2132567"><ele>347.33333333333337</ele><time>2026-03-28T09:17:58.021Z</time></trkpt><trkpt lat="40.42346" lon="15.21347"><ele>344.0</ele><time>2026-03-28T09:17:59.02Z</time></trkpt><trkpt lat="40.4233717" lon="15.2136833"><ele>344.0</ele><time>2026-03-28T09:18:00.02Z</time></trkpt><trkpt lat="40.423285" lon="15.2138917"><ele>344.0</ele><time>2026-03-28T09:18:01.02Z</time></trkpt><trkpt lat="40.4232" lon="15.214095"><ele>344.0</ele><time>2026-03-28T09:18:02.021Z</time></trkpt><trkpt lat="40.4231183" lon="15.21429"><ele>342.0</ele><time>2026-03-28T09:18:03.021Z</time></trkpt><trkpt lat="40.4230417" lon="15.2144817"><ele>340.0</ele><time>2026-03-28T09:18:04.021Z</time></trkpt><trkpt lat="40.4229633" lon="15.2146733"><ele>338.0</ele><time>2026-03-28T09:18:05.02Z</time></trkpt><trkpt lat="40.4228833" lon="15.2148633"><ele>342.0</ele><time>2026-03-28T09:18:06.02Z</time></trkpt><trkpt lat="40.4228033" lon="15.2150467"><ele>346.0</ele><time>2026-03-28T09:18:07.02Z</time></trkpt><trkpt lat="40.4227317" lon="15.2152233"><ele>350.0</ele><time>2026-03-28T09:18:08.021Z</time></trkpt><trkpt lat="40.422655" lon="15.2153883"><ele>350.0</ele><time>2026-03-28T09:18:09.02Z</time></trkpt><trkpt lat="40.4225717" lon="15.2155467"><ele>350.0</ele><time>2026-03-28T09:18:10.02Z</time></trkpt><trkpt lat="40.4225067" lon="15.2157133"><ele>350.0</ele><time>2026-03-28T09:18:11.02Z</time></trkpt><trkpt lat="40.4224583" lon="15.2158917"><ele>350.0</ele><time>2026-03-28T09:18:12.02Z</time></trkpt><trkpt lat="40.42244" lon="15.2160867"><ele>347.0</ele><time>2026-03-28T09:18:13.02Z</time></trkpt><trkpt lat="40.4224317" lon="15.2162817"><ele>344.0</ele><time>2026-03-28T09:18:14.021Z</time></trkpt><trkpt lat="40.42243" lon="15.2164833"><ele>341.0</ele><time>2026-03-28T09:18:15.021Z</time></trkpt><trkpt lat="40.42241" lon="15.2166917"><ele>340.0</ele><time>2026-03-28T09:18:16.02Z</time></trkpt><trkpt lat="40.422375" lon="15.2169017"><ele>339.0</ele><time>2026-03-28T09:18:17.02Z</time></trkpt><trkpt lat="40.4223267" lon="15.2171133"><ele>338.0</ele><time>2026-03-28T09:18:18.021Z</time></trkpt><trkpt lat="40.4222633" lon="15.2173183"><ele>335.33333333333337</ele><time>2026-03-28T09:18:19.021Z</time></trkpt><trkpt lat="40.4221883" lon="15.217515"><ele>332.6666666666667</ele><time>2026-03-28T09:18:20.021Z</time></trkpt><trkpt lat="40.4220933" lon="15.2177067"><ele>330.0</ele><time>2026-03-28T09:18:21.021Z</time></trkpt><trkpt lat="40.422005" lon="15.2178983"><ele>335.3333333333333</ele><time>2026-03-28T09:18:22.021Z</time></trkpt><trkpt lat="40.42194" lon="15.2180983"><ele>340.66666666666663</ele><time>2026-03-28T09:18:23.021Z</time></trkpt><trkpt lat="40.4218867" lon="15.218295"><ele>346.0</ele><time>2026-03-28T09:18:24.021Z</time></trkpt><trkpt lat="40.4218433" lon="15.2184833"><ele>346.0</ele><time>2026-03-28T09:18:25.021Z</time></trkpt><trkpt lat="40.4217967" lon="15.21864"><ele>346.0</ele><time>2026-03-28T09:18:26.02Z</time></trkpt><trkpt lat="40.42174" lon="15.218775"><ele>346.0</ele><time>2026-03-28T09:18:27.021Z</time></trkpt><trkpt lat="40.4216683" lon="15.2189083"><ele>346.0</ele><time>2026-03-28T09:18:28.02Z</time></trkpt><trkpt lat="40.4215767" lon="15.21902"><ele>346.25</ele><time>2026-03-28T09:18:29.021Z</time></trkpt><trkpt lat="40.421455" lon="15.219105"><ele>346.5</ele><time>2026-03-28T09:18:30.02Z</time></trkpt><trkpt lat="40.42135" lon="15.2191917"><ele>346.75</ele><time>2026-03-28T09:18:31.02Z</time></trkpt><trkpt lat="40.42127" lon="15.2193067"><ele>347.0</ele><time>2026-03-28T09:18:32.021Z</time></trkpt><trkpt lat="40.4212217" lon="15.2194383"><ele>347.0</ele><time>2026-03-28T09:18:33.02Z</time></trkpt><trkpt lat="40.421195" lon="15.2195833"><ele>347.0</ele><time>2026-03-28T09:18:34.02Z</time></trkpt><trkpt lat="40.421175" lon="15.2197233"><ele>347.0</ele><time>2026-03-28T09:18:35.02Z</time></trkpt><trkpt lat="40.4211583" lon="15.2198583"><ele>347.0</ele><time>2026-03-28T09:18:36.021Z</time></trkpt><trkpt lat="40.4211183" lon="15.21999"><ele>347.0</ele><time>2026-03-28T09:18:37.021Z</time></trkpt><trkpt lat="40.4210517" lon="15.22011"><ele>345.0</ele><time>2026-03-28T09:18:38.021Z</time></trkpt><trkpt lat="40.4209667" lon="15.2202317"><ele>343.0</ele><time>2026-03-28T09:18:39.02Z</time></trkpt><trkpt lat="40.4208533" lon="15.220355"><ele>341.0</ele><time>2026-03-28T09:18:40.021Z</time></trkpt><trkpt lat="40.4207417" lon="15.2204683"><ele>339.0</ele><time>2026-03-28T09:18:41.02Z</time></trkpt><trkpt lat="40.420645" lon="15.22058"><ele>338.5</ele><time>2026-03-28T09:18:42.02Z</time></trkpt><trkpt lat="40.4205667" lon="15.2206983"><ele>338.0</ele><time>2026-03-28T09:18:43.021Z</time></trkpt><trkpt lat="40.4205133" lon="15.2208333"><ele>337.5</ele><time>2026-03-28T09:18:44.02Z</time></trkpt><trkpt lat="40.4204717" lon="15.22098"><ele>337.0</ele><time>2026-03-28T09:18:45.021Z</time></trkpt><trkpt lat="40.4204417" lon="15.2211267"><ele>335.75</ele><time>2026-03-28T09:18:46.021Z</time></trkpt><trkpt lat="40.4204383" lon="15.22127"><ele>334.5</ele><time>2026-03-28T09:18:47.021Z</time></trkpt><trkpt lat="40.4204583" lon="15.221435"><ele>333.25</ele><time>2026-03-28T09:18:48.021Z</time></trkpt><trkpt lat="40.4204817" lon="15.2216017"><ele>332.0</ele><time>2026-03-28T09:18:49.02Z</time></trkpt><trkpt lat="40.4205083" lon="15.2217767"><ele>332.0</ele><time>2026-03-28T09:18:50.021Z</time></trkpt><trkpt lat="40.420535" lon="15.2219517"><ele>332.0</ele><time>2026-03-28T09:18:51.02Z</time></trkpt><trkpt lat="40.4205617" lon="15.2221217"><ele>332.0</ele><time>2026-03-28T09:18:52.02Z</time></trkpt><trkpt lat="40.42058" lon="15.22229"><ele>332.0</ele><time>2026-03-28T09:18:53.02Z</time></trkpt><trkpt lat="40.4205617" lon="15.222455"><ele>330.75</ele><time>2026-03-28T09:18:54.02Z</time></trkpt><trkpt lat="40.4205133" lon="15.22262"><ele>329.5</ele><time>2026-03-28T09:18:55.02Z</time></trkpt><trkpt lat="40.4204483" lon="15.2227917"><ele>328.25</ele><time>2026-03-28T09:18:56.021Z</time></trkpt><trkpt lat="40.4203717" lon="15.2229667"><ele>327.0</ele><time>2026-03-28T09:18:57.021Z</time></trkpt><trkpt lat="40.4202833" lon="15.2231333"><ele>332.25</ele><time>2026-03-28T09:18:58.021Z</time></trkpt><trkpt lat="40.4202217" lon="15.2233133"><ele>337.5</ele><time>2026-03-28T09:18:59.021Z</time></trkpt><trkpt lat="40.4201583" lon="15.2234867"><ele>342.75</ele><time>2026-03-28T09:19:00.021Z</time></trkpt><trkpt lat="40.4201067" lon="15.2236733"><ele>348.0</ele><time>2026-03-28T09:19:01.021Z</time></trkpt><trkpt lat="40.4200567" lon="15.2238667"><ele>345.3333333333333</ele><time>2026-03-28T09:19:02.02Z</time></trkpt><trkpt lat="40.42002" lon="15.2240683"><ele>342.66666666666663</ele><time>2026-03-28T09:19:03.022Z</time></trkpt><trkpt lat="40.4199933" lon="15.2242667"><ele>340.0</ele><time>2026-03-28T09:19:04.021Z</time></trkpt><trkpt lat="40.419965" lon="15.22445"><ele>340.0</ele><time>2026-03-28T09:19:05.022Z</time></trkpt><trkpt lat="40.41994" lon="15.224625"><ele>340.0</ele><time>2026-03-28T09:19:06.022Z</time></trkpt><trkpt lat="40.4199083" lon="15.2247867"><ele>340.0</ele><time>2026-03-28T09:19:07.022Z</time></trkpt><trkpt lat="40.4198717" lon="15.2249367"><ele>340.0</ele><time>2026-03-28T09:19:08.021Z</time></trkpt><trkpt lat="40.419815" lon="15.2250767"><ele>338.0</ele><time>2026-03-28T09:19:09.022Z</time></trkpt><trkpt lat="40.4197583" lon="15.22521"><ele>336.0</ele><time>2026-03-28T09:19:10.022Z</time></trkpt><trkpt lat="40.41969" lon="15.2253433"><ele>334.0</ele><time>2026-03-28T09:19:11.022Z</time></trkpt><trkpt lat="40.4196117" lon="15.2254733"><ele>332.0</ele><time>2026-03-28T09:19:12.021Z</time></trkpt><trkpt lat="40.41953" lon="15.2256267"><ele>335.0</ele><time>2026-03-28T09:19:13.022Z</time></trkpt><trkpt lat="40.419445" lon="15.2257733"><ele>338.0</ele><time>2026-03-28T09:19:14.021Z</time></trkpt><trkpt lat="40.41935" lon="15.225925"><ele>341.0</ele><time>2026-03-28T09:19:15.022Z</time></trkpt><trkpt lat="40.419265" lon="15.2260867"><ele>344.0</ele><time>2026-03-28T09:19:16.022Z</time></trkpt><trkpt lat="40.41918" lon="15.2262517"><ele>344.0</ele><time>2026-03-28T09:19:17.022Z</time></trkpt><trkpt lat="40.419095" lon="15.2264183"><ele>344.0</ele><time>2026-03-28T09:19:18.022Z</time></trkpt><trkpt lat="40.4190117" lon="15.22658"><ele>344.0</ele><time>2026-03-28T09:19:19.022Z</time></trkpt><trkpt lat="40.41893" lon="15.2267383"><ele>344.0</ele><time>2026-03-28T09:19:20.022Z</time></trkpt><trkpt lat="40.418855" lon="15.2268967"><ele>343.75</ele><time>2026-03-28T09:19:21.022Z</time></trkpt><trkpt lat="40.4187967" lon="15.227045"><ele>343.5</ele><time>2026-03-28T09:19:22.021Z</time></trkpt><trkpt lat="40.4187417" lon="15.22719"><ele>343.25</ele><time>2026-03-28T09:19:23.021Z</time></trkpt><trkpt lat="40.41868" lon="15.22732"><ele>343.0</ele><time>2026-03-28T09:19:24.021Z</time></trkpt><trkpt lat="40.4186183" lon="15.22745"><ele>343.0</ele><time>2026-03-28T09:19:25.022Z</time></trkpt><trkpt lat="40.4185567" lon="15.2275583"><ele>343.0</ele><time>2026-03-28T09:19:26.021Z</time></trkpt><trkpt lat="40.4184967" lon="15.2276483"><ele>343.0</ele><time>2026-03-28T09:19:27.022Z</time></trkpt><trkpt lat="40.4184217" lon="15.227725"><ele>343.0</ele><time>2026-03-28T09:19:28.021Z</time></trkpt><trkpt lat="40.41833" lon="15.2277833"><ele>343.0</ele><time>2026-03-28T09:19:29.021Z</time></trkpt><trkpt lat="40.4182133" lon="15.2278383"><ele>343.0</ele><time>2026-03-28T09:19:30.021Z</time></trkpt><trkpt lat="40.41809" lon="15.2278933"><ele>343.0</ele><time>2026-03-28T09:19:31.022Z</time></trkpt><trkpt lat="40.4179517" lon="15.2279417"><ele>343.0</ele><time>2026-03-28T09:19:32.022Z</time></trkpt><trkpt lat="40.4178483" lon="15.2280083"><ele>343.0</ele><time>2026-03-28T09:19:33.021Z</time></trkpt><trkpt lat="40.4177717" lon="15.2281033"><ele>343.66666666666663</ele><time>2026-03-28T09:19:34.022Z</time></trkpt><trkpt lat="40.4177067" lon="15.2281933"><ele>344.3333333333333</ele><time>2026-03-28T09:19:35.022Z</time></trkpt><trkpt lat="40.4176517" lon="15.2282817"><ele>345.0</ele><time>2026-03-28T09:19:36.021Z</time></trkpt><trkpt lat="40.4176083" lon="15.2283717"><ele>345.6666666666667</ele><time>2026-03-28T09:19:37.021Z</time></trkpt><trkpt lat="40.4175717" lon="15.2284583"><ele>346.33333333333337</ele><time>2026-03-28T09:19:38.022Z</time></trkpt><trkpt lat="40.4175417" lon="15.22855"><ele>347.0</ele><time>2026-03-28T09:19:39.022Z</time></trkpt><trkpt lat="40.4175083" lon="15.2286367"><ele>347.0</ele><time>2026-03-28T09:19:40.022Z</time></trkpt><trkpt lat="40.4174717" lon="15.2287167"><ele>347.0</ele><time>2026-03-28T09:19:41.021Z</time></trkpt><trkpt lat="40.41743" lon="15.2287867"><ele>347.0</ele><time>2026-03-28T09:19:42.021Z</time></trkpt><trkpt lat="40.4173917" lon="15.22886"><ele>347.0</ele><time>2026-03-28T09:19:43.021Z</time></trkpt><trkpt lat="40.4173533" lon="15.2289383"><ele>347.0</ele><time>2026-03-28T09:19:44.022Z</time></trkpt><trkpt lat="40.4173233" lon="15.2290167"><ele>347.0</ele><time>2026-03-28T09:19:45.022Z</time></trkpt><trkpt lat="40.4173" lon="15.2291367"><ele>347.0</ele><time>2026-03-28T09:19:47.021Z</time></trkpt><trkpt lat="40.4173667" lon="15.2292617"><ele>345.83333333333337</ele><time>2026-03-28T09:19:50.022Z</time></trkpt><trkpt lat="40.4174267" lon="15.2293117"><ele>344.6666666666667</ele><time>2026-03-28T09:19:51.022Z</time></trkpt><trkpt lat="40.4174967" lon="15.22937"><ele>343.5</ele><time>2026-03-28T09:19:52.021Z</time></trkpt><trkpt lat="40.4175733" lon="15.2294067"><ele>342.3333333333333</ele><time>2026-03-28T09:19:53.022Z</time></trkpt><trkpt lat="40.417645" lon="15.2294"><ele>341.16666666666663</ele><time>2026-03-28T09:19:54.021Z</time></trkpt><trkpt lat="40.4177183" lon="15.2293517"><ele>340.0</ele><time>2026-03-28T09:19:55.022Z</time></trkpt><trkpt lat="40.4177933" lon="15.2292917"><ele>340.0</ele><time>2026-03-28T09:19:56.022Z</time></trkpt><trkpt lat="40.4178717" lon="15.229235"><ele>340.0</ele><time>2026-03-28T09:19:57.022Z</time></trkpt><trkpt lat="40.4179567" lon="15.2291883"><ele>340.0</ele><time>2026-03-28T09:19:58.022Z</time></trkpt><trkpt lat="40.4180517" lon="15.2291467"><ele>340.0</ele><time>2026-03-28T09:19:59.021Z</time></trkpt><trkpt lat="40.418135" lon="15.2290967"><ele>340.0</ele><time>2026-03-28T09:20:00.021Z</time></trkpt><trkpt lat="40.41821" lon="15.22905"><ele>336.2</ele><time>2026-03-28T09:20:01.021Z</time></trkpt><trkpt lat="40.418275" lon="15.22902"><ele>332.4</ele><time>2026-03-28T09:20:02.022Z</time></trkpt><trkpt lat="40.418365" lon="15.229025"><ele>328.6</ele><time>2026-03-28T09:20:04.022Z</time></trkpt><trkpt lat="40.4183967" lon="15.2291717"><ele>324.8</ele><time>2026-03-28T09:20:06.021Z</time></trkpt><trkpt lat="40.4184067" lon="15.2293117"><ele>321.0</ele><time>2026-03-28T09:20:07.022Z</time></trkpt><trkpt lat="40.41841" lon="15.2294733"><ele>321.0</ele><time>2026-03-28T09:20:08.021Z</time></trkpt><trkpt lat="40.4184167" lon="15.2296517"><ele>321.0</ele><time>2026-03-28T09:20:09.022Z</time></trkpt><trkpt lat="40.4184267" lon="15.229845"><ele>321.0</ele><time>2026-03-28T09:20:10.022Z</time></trkpt><trkpt lat="40.4184433" lon="15.2300217"><ele>321.0</ele><time>2026-03-28T09:20:11.021Z</time></trkpt><trkpt lat="40.418465" lon="15.2301883"><ele>319.2</ele><time>2026-03-28T09:20:12.021Z</time></trkpt><trkpt lat="40.4184833" lon="15.2303433"><ele>317.40000000000003</ele><time>2026-03-28T09:20:13.022Z</time></trkpt><trkpt lat="40.4185" lon="15.2304983"><ele>315.6</ele><time>2026-03-28T09:20:14.022Z</time></trkpt><trkpt lat="40.4185083" lon="15.23064"><ele>313.8</ele><time>2026-03-28T09:20:15.021Z</time></trkpt><trkpt lat="40.418505" lon="15.23075"><ele>312.0</ele><time>2026-03-28T09:20:16.022Z</time></trkpt><trkpt lat="40.4185033" lon="15.23084"><ele>310.5714285714286</ele><time>2026-03-28T09:20:17.021Z</time></trkpt><trkpt lat="40.4184783" lon="15.2309183"><ele>309.1428571428571</ele><time>2026-03-28T09:20:18.022Z</time></trkpt><trkpt lat="40.4184333" lon="15.2309867"><ele>307.7142857142857</ele><time>2026-03-28T09:20:19.021Z</time></trkpt><trkpt lat="40.4183783" lon="15.2310417"><ele>306.28571428571433</ele><time>2026-03-28T09:20:20.022Z</time></trkpt><trkpt lat="40.418325" lon="15.231095"><ele>304.8571428571429</ele><time>2026-03-28T09:20:21.022Z</time></trkpt><trkpt lat="40.4182667" lon="15.23114"><ele>303.42857142857144</ele><time>2026-03-28T09:20:22.021Z</time></trkpt><trkpt lat="40.4182083" lon="15.2311767"><ele>302.0</ele><time>2026-03-28T09:20:23.022Z</time></trkpt><trkpt lat="40.4181433" lon="15.2312133"><ele>302.0</ele><time>2026-03-28T09:20:24.022Z</time></trkpt><trkpt lat="40.4180783" lon="15.2312617"><ele>302.0</ele><time>2026-03-28T09:20:25.021Z</time></trkpt><trkpt lat="40.41802" lon="15.2313283"><ele>302.0</ele><time>2026-03-28T09:20:26.021Z</time></trkpt><trkpt lat="40.4179667" lon="15.231425"><ele>302.0</ele><time>2026-03-28T09:20:27.022Z</time></trkpt><trkpt lat="40.417915" lon="15.23153"><ele>302.0</ele><time>2026-03-28T09:20:28.022Z</time></trkpt><trkpt lat="40.4178633" lon="15.2316283"><ele>302.0</ele><time>2026-03-28T09:20:29.021Z</time></trkpt><trkpt lat="40.4178117" lon="15.231715"><ele>302.1666666666667</ele><time>2026-03-28T09:20:30.022Z</time></trkpt><trkpt lat="40.4177733" lon="15.2317983"><ele>302.33333333333337</ele><time>2026-03-28T09:20:31.021Z</time></trkpt><trkpt lat="40.4177617" lon="15.231885"><ele>302.5</ele><time>2026-03-28T09:20:32.021Z</time></trkpt><trkpt lat="40.417785" lon="15.231975"><ele>302.6666666666667</ele><time>2026-03-28T09:20:33.021Z</time></trkpt><trkpt lat="40.4178317" lon="15.2320433"><ele>302.8333333333333</ele><time>2026-03-28T09:20:34.022Z</time></trkpt><trkpt lat="40.41788" lon="15.2320967"><ele>303.0</ele><time>2026-03-28T09:20:35.021Z</time></trkpt><trkpt lat="40.4179717" lon="15.2322017"><ele>300.4</ele><time>2026-03-28T09:20:37.021Z</time></trkpt><trkpt lat="40.4180017" lon="15.23228"><ele>297.8</ele><time>2026-03-28T09:20:38.022Z</time></trkpt><trkpt lat="40.418015" lon="15.2323717"><ele>295.2</ele><time>2026-03-28T09:20:39.021Z</time></trkpt><trkpt lat="40.41802" lon="15.2324583"><ele>292.6</ele><time>2026-03-28T09:20:40.021Z</time></trkpt><trkpt lat="40.4179817" lon="15.2326067"><ele>290.0</ele><time>2026-03-28T09:20:42.021Z</time></trkpt><trkpt lat="40.4178533" lon="15.2326683"><ele>289.2</ele><time>2026-03-28T09:20:44.022Z</time></trkpt><trkpt lat="40.4177533" lon="15.2326733"><ele>288.4</ele><time>2026-03-28T09:20:45.021Z</time></trkpt><trkpt lat="40.4176417" lon="15.2326767"><ele>287.6</ele><time>2026-03-28T09:20:46.022Z</time></trkpt><trkpt lat="40.4175217" lon="15.232685"><ele>286.8</ele><time>2026-03-28T09:20:47.021Z</time></trkpt><trkpt lat="40.4174083" lon="15.2327083"><ele>286.0</ele><time>2026-03-28T09:20:48.021Z</time></trkpt><trkpt lat="40.4172933" lon="15.2327533"><ele>286.0</ele><time>2026-03-28T09:20:49.021Z</time></trkpt><trkpt lat="40.4171883" lon="15.2328283"><ele>286.0</ele><time>2026-03-28T09:20:50.021Z</time></trkpt><trkpt lat="40.4170817" lon="15.2329233"><ele>286.0</ele><time>2026-03-28T09:20:51.021Z</time></trkpt><trkpt lat="40.416985" lon="15.2330083"><ele>286.0</ele><time>2026-03-28T09:20:52.021Z</time></trkpt><trkpt lat="40.4169067" lon="15.23308"><ele>285.5</ele><time>2026-03-28T09:20:53.022Z</time></trkpt><trkpt lat="40.4168417" lon="15.2331417"><ele>285.0</ele><time>2026-03-28T09:20:54.021Z</time></trkpt><trkpt lat="40.4167817" lon="15.2332567"><ele>284.5</ele><time>2026-03-28T09:20:56.021Z</time></trkpt><trkpt lat="40.41678" lon="15.23342"><ele>284.0</ele><time>2026-03-28T09:20:58.021Z</time></trkpt><trkpt lat="40.4167967" lon="15.2335117"><ele>283.5</ele><time>2026-03-28T09:20:59.021Z</time></trkpt><trkpt lat="40.416815" lon="15.2335917"><ele>283.0</ele><time>2026-03-28T09:21:00.021Z</time></trkpt><trkpt lat="40.41682" lon="15.2337017"><ele>283.0</ele><time>2026-03-28T09:21:02.021Z</time></trkpt><trkpt lat="40.4168" lon="15.2337983"><ele>283.0</ele><time>2026-03-28T09:21:04.022Z</time></trkpt><trkpt lat="40.416705" lon="15.233925"><ele>283.0</ele><time>2026-03-28T09:21:06.021Z</time></trkpt><trkpt lat="40.416655" lon="15.2340033"><ele>283.0</ele><time>2026-03-28T09:21:07.022Z</time></trkpt><trkpt lat="40.4166117" lon="15.2340967"><ele>283.0</ele><time>2026-03-28T09:21:08.022Z</time></trkpt><trkpt lat="40.4165733" lon="15.2341817"><ele>283.0</ele><time>2026-03-28T09:21:09.021Z</time></trkpt><trkpt lat="40.4165417" lon="15.2342533"><ele>280.66666666666663</ele><time>2026-03-28T09:21:10.022Z</time></trkpt><trkpt lat="40.4165167" lon="15.2343383"><ele>278.3333333333333</ele><time>2026-03-28T09:21:11.021Z</time></trkpt><trkpt lat="40.4164917" lon="15.2344333"><ele>276.0</ele><time>2026-03-28T09:21:12.021Z</time></trkpt><trkpt lat="40.4164783" lon="15.2345417"><ele>273.6666666666667</ele><time>2026-03-28T09:21:13.022Z</time></trkpt><trkpt lat="40.4164567" lon="15.2346533"><ele>271.33333333333337</ele><time>2026-03-28T09:21:14.021Z</time></trkpt><trkpt lat="40.4164367" lon="15.2347517"><ele>269.0</ele><time>2026-03-28T09:21:15.021Z</time></trkpt><trkpt lat="40.4164133" lon="15.2348367"><ele>265.4</ele><time>2026-03-28T09:21:16.022Z</time></trkpt><trkpt lat="40.416375" lon="15.234935"><ele>261.79999999999995</ele><time>2026-03-28T09:21:18.022Z</time></trkpt><trkpt lat="40.4162967" lon="15.2350033"><ele>258.20000000000005</ele><time>2026-03-28T09:21:21.021Z</time></trkpt><trkpt lat="40.41625" lon="15.2350783"><ele>254.60000000000002</ele><time>2026-03-28T09:21:23.022Z</time></trkpt><trkpt lat="40.4162317" lon="15.23521"><ele>251.0</ele><time>2026-03-28T09:21:25.022Z</time></trkpt><trkpt lat="40.4162267" lon="15.23538"><ele>249.83333333333334</ele><time>2026-03-28T09:21:27.022Z</time></trkpt><trkpt lat="40.4162233" lon="15.2354733"><ele>248.66666666666669</ele><time>2026-03-28T09:21:28.021Z</time></trkpt><trkpt lat="40.4162167" lon="15.2355567"><ele>247.5</ele><time>2026-03-28T09:21:29.022Z</time></trkpt><trkpt lat="40.4161917" lon="15.2356833"><ele>246.33333333333331</ele><time>2026-03-28T09:21:31.021Z</time></trkpt><trkpt lat="40.4161283" lon="15.2357617"><ele>245.16666666666666</ele><time>2026-03-28T09:21:33.021Z</time></trkpt><trkpt lat="40.4160433" lon="15.235755"><ele>244.0</ele><time>2026-03-28T09:21:35.022Z</time></trkpt><trkpt lat="40.41598" lon="15.2357867"><ele>240.2</ele><time>2026-03-28T09:21:37.022Z</time></trkpt><trkpt lat="40.4160117" lon="15.2359083"><ele>236.39999999999998</ele><time>2026-03-28T09:21:39.021Z</time></trkpt><trkpt lat="40.4160933" lon="15.23605"><ele>232.6</ele><time>2026-03-28T09:21:41.022Z</time></trkpt><trkpt lat="40.41614" lon="15.236125"><ele>228.8</ele><time>2026-03-28T09:21:42.022Z</time></trkpt><trkpt lat="40.416195" lon="15.2362333"><ele>225.0</ele><time>2026-03-28T09:21:44.021Z</time></trkpt><trkpt lat="40.41619" lon="15.23633"><ele>220.8</ele><time>2026-03-28T09:21:46.021Z</time></trkpt><trkpt lat="40.4161517" lon="15.2365017"><ele>216.6</ele><time>2026-03-28T09:21:48.022Z</time></trkpt><trkpt lat="40.416145" lon="15.2366067"><ele>212.39999999999998</ele><time>2026-03-28T09:21:49.022Z</time></trkpt><trkpt lat="40.4161499" lon="15.2367152"><ele>208.2</ele><time>2026-03-28T09:21:50.022Z</time></trkpt><trkpt lat="40.4161611" lon="15.2368282"><ele>204.0</ele><time>2026-03-28T09:21:51.022Z</time></trkpt><trkpt lat="40.416176" lon="15.2369436"><ele>204.0</ele><time>2026-03-28T09:21:52.022Z</time></trkpt><trkpt lat="40.4161886" lon="15.2370574"><ele>204.0</ele><time>2026-03-28T09:21:53.021Z</time></trkpt><trkpt lat="40.4161946" lon="15.23717"><ele>204.0</ele><time>2026-03-28T09:21:54.021Z</time></trkpt><trkpt lat="40.4162028" lon="15.2372705"><ele>204.0</ele><time>2026-03-28T09:21:55.021Z</time></trkpt><trkpt lat="40.4162086" lon="15.2373605"><ele>204.0</ele><time>2026-03-28T09:21:56.021Z</time></trkpt><trkpt lat="40.4162317" lon="15.2375105"><ele>204.0</ele><time>2026-03-28T09:21:58.021Z</time></trkpt><trkpt lat="40.416296" lon="15.2376477"><ele>201.16666666666666</ele><time>2026-03-28T09:22:00.022Z</time></trkpt><trkpt lat="40.4163375" lon="15.2377276"><ele>198.33333333333334</ele><time>2026-03-28T09:22:01.022Z</time></trkpt><trkpt lat="40.4163866" lon="15.2378102"><ele>195.5</ele><time>2026-03-28T09:22:02.021Z</time></trkpt><trkpt lat="40.4164397" lon="15.2378965"><ele>192.66666666666669</ele><time>2026-03-28T09:22:03.022Z</time></trkpt><trkpt lat="40.4164867" lon="15.237985"><ele>189.83333333333334</ele><time>2026-03-28T09:22:04.021Z</time></trkpt><trkpt lat="40.416536" lon="15.2380738"><ele>187.0</ele><time>2026-03-28T09:22:05.022Z</time></trkpt><trkpt lat="40.4165845" lon="15.238162"><ele>185.16666666666669</ele><time>2026-03-28T09:22:06.022Z</time></trkpt><trkpt lat="40.4166315" lon="15.2382449"><ele>183.33333333333334</ele><time>2026-03-28T09:22:07.021Z</time></trkpt><trkpt lat="40.4166818" lon="15.2383269"><ele>181.5</ele><time>2026-03-28T09:22:08.022Z</time></trkpt><trkpt lat="40.4167368" lon="15.238407"><ele>179.66666666666666</ele><time>2026-03-28T09:22:09.022Z</time></trkpt><trkpt lat="40.4167916" lon="15.238477"><ele>177.83333333333331</ele><time>2026-03-28T09:22:10.022Z</time></trkpt><trkpt lat="40.4168451" lon="15.2385409"><ele>176.0</ele><time>2026-03-28T09:22:11.022Z</time></trkpt><trkpt lat="40.4168989" lon="15.2385954"><ele>176.0</ele><time>2026-03-28T09:22:12.022Z</time></trkpt><trkpt lat="40.4169765" lon="15.2386719"><ele>176.0</ele><time>2026-03-28T09:22:14.021Z</time></trkpt><trkpt lat="40.4169556" lon="15.2387642"><ele>176.0</ele><time>2026-03-28T09:22:17.021Z</time></trkpt><trkpt lat="40.4168696" lon="15.2388186"><ele>176.0</ele><time>2026-03-28T09:22:19.021Z</time></trkpt><trkpt lat="40.4168232" lon="15.2388832"><ele>176.0</ele><time>2026-03-28T09:22:21.022Z</time></trkpt><trkpt lat="40.4168798" lon="15.2389567"><ele>176.0</ele><time>2026-03-28T09:22:25.022Z</time></trkpt><trkpt lat="40.4168177" lon="15.2390354"><ele>172.8</ele><time>2026-03-28T09:22:28.022Z</time></trkpt><trkpt lat="40.4167467" lon="15.239051"><ele>169.60000000000002</ele><time>2026-03-28T09:22:29.022Z</time></trkpt><trkpt lat="40.4166521" lon="15.2390648"><ele>166.4</ele><time>2026-03-28T09:22:30.021Z</time></trkpt><trkpt lat="40.4165497" lon="15.2390808"><ele>163.2</ele><time>2026-03-28T09:22:31.022Z</time></trkpt><trkpt lat="40.4164505" lon="15.2390999"><ele>160.0</ele><time>2026-03-28T09:22:32.021Z</time></trkpt><trkpt lat="40.4163562" lon="15.239134"><ele>158.4</ele><time>2026-03-28T09:22:33.022Z</time></trkpt><trkpt lat="40.4162633" lon="15.2391967"><ele>156.8</ele><time>2026-03-28T09:22:34.022Z</time></trkpt><trkpt lat="40.416175" lon="15.2392733"><ele>155.2</ele><time>2026-03-28T09:22:35.021Z</time></trkpt><trkpt lat="40.416095" lon="15.2393433"><ele>153.6</ele><time>2026-03-28T09:22:36.021Z</time></trkpt><trkpt lat="40.4160133" lon="15.239395"><ele>152.0</ele><time>2026-03-28T09:22:37.021Z</time></trkpt><trkpt lat="40.4159433" lon="15.23942"><ele>152.0</ele><time>2026-03-28T09:22:38.022Z</time></trkpt><trkpt lat="40.4158267" lon="15.2394417"><ele>152.0</ele><time>2026-03-28T09:22:40.021Z</time></trkpt><trkpt lat="40.4157333" lon="15.2394333"><ele>152.0</ele><time>2026-03-28T09:22:42.022Z</time></trkpt><trkpt lat="40.4156817" lon="15.2394867"><ele>152.0</ele><time>2026-03-28T09:22:44.021Z</time></trkpt><trkpt lat="40.4156967" lon="15.2396483"><ele>152.0</ele><time>2026-03-28T09:22:46.021Z</time></trkpt><trkpt lat="40.41573" lon="15.2397583"><ele>149.2</ele><time>2026-03-28T09:22:47.021Z</time></trkpt><trkpt lat="40.4157767" lon="15.23988"><ele>146.39999999999998</ele><time>2026-03-28T09:22:48.021Z</time></trkpt><trkpt lat="40.41582" lon="15.2400167"><ele>143.60000000000002</ele><time>2026-03-28T09:22:49.021Z</time></trkpt><trkpt lat="40.4158567" lon="15.2401433"><ele>140.8</ele><time>2026-03-28T09:22:50.021Z</time></trkpt><trkpt lat="40.4159033" lon="15.2402733"><ele>138.0</ele><time>2026-03-28T09:22:51.022Z</time></trkpt><trkpt lat="40.4159583" lon="15.2403933"><ele>138.0</ele><time>2026-03-28T09:22:52.021Z</time></trkpt><trkpt lat="40.4160317" lon="15.2405167"><ele>138.0</ele><time>2026-03-28T09:22:53.021Z</time></trkpt><trkpt lat="40.4161017" lon="15.240635"><ele>138.0</ele><time>2026-03-28T09:22:54.022Z</time></trkpt><trkpt lat="40.4161617" lon="15.2407533"><ele>138.0</ele><time>2026-03-28T09:22:55.021Z</time></trkpt><trkpt lat="40.416205" lon="15.2408833"><ele>136.0</ele><time>2026-03-28T09:22:56.021Z</time></trkpt><trkpt lat="40.4162383" lon="15.241015"><ele>134.0</ele><time>2026-03-28T09:22:57.021Z</time></trkpt><trkpt lat="40.4162533" lon="15.241155"><ele>132.0</ele><time>2026-03-28T09:22:58.022Z</time></trkpt><trkpt lat="40.4162667" lon="15.2412867"><ele>130.0</ele><time>2026-03-28T09:22:59.021Z</time></trkpt><trkpt lat="40.4162683" lon="15.2414083"><ele>128.0</ele><time>2026-03-28T09:23:00.021Z</time></trkpt><trkpt lat="40.4162617" lon="15.24151"><ele>127.4</ele><time>2026-03-28T09:23:01.022Z</time></trkpt><trkpt lat="40.4162583" lon="15.2416"><ele>126.80000000000001</ele><time>2026-03-28T09:23:02.021Z</time></trkpt><trkpt lat="40.4162483" lon="15.2416817"><ele>126.2</ele><time>2026-03-28T09:23:03.022Z</time></trkpt><trkpt lat="40.4162333" lon="15.2418317"><ele>125.6</ele><time>2026-03-28T09:23:05.021Z</time></trkpt><trkpt lat="40.41622" lon="15.2420017"><ele>125.0</ele><time>2026-03-28T09:23:07.021Z</time></trkpt><trkpt lat="40.4162067" lon="15.242105"><ele>125.0</ele><time>2026-03-28T09:23:08.021Z</time></trkpt><trkpt lat="40.4161867" lon="15.2422183"><ele>125.0</ele><time>2026-03-28T09:23:09.022Z</time></trkpt><trkpt lat="40.4161583" lon="15.2423367"><ele>125.0</ele><time>2026-03-28T09:23:10.021Z</time></trkpt><trkpt lat="40.416135" lon="15.2424583"><ele>125.0</ele><time>2026-03-28T09:23:11.021Z</time></trkpt><trkpt lat="40.41612" lon="15.2425767"><ele>125.0</ele><time>2026-03-28T09:23:12.022Z</time></trkpt><trkpt lat="40.4161033" lon="15.24268"><ele>125.33333333333333</ele><time>2026-03-28T09:23:13.021Z</time></trkpt><trkpt lat="40.4161017" lon="15.2427767"><ele>125.66666666666666</ele><time>2026-03-28T09:23:14.021Z</time></trkpt><trkpt lat="40.4161117" lon="15.2428683"><ele>126.0</ele><time>2026-03-28T09:23:15.022Z</time></trkpt><trkpt lat="40.4161417" lon="15.2429567"><ele>126.33333333333334</ele><time>2026-03-28T09:23:16.022Z</time></trkpt><trkpt lat="40.416185" lon="15.2430533"><ele>126.66666666666667</ele><time>2026-03-28T09:23:17.021Z</time></trkpt><trkpt lat="40.4162433" lon="15.2431567"><ele>127.0</ele><time>2026-03-28T09:23:18.021Z</time></trkpt><trkpt lat="40.416305" lon="15.2432867"><ele>127.19999999999999</ele><time>2026-03-28T09:23:19.022Z</time></trkpt><trkpt lat="40.41637" lon="15.2434117"><ele>127.39999999999999</ele><time>2026-03-28T09:23:20.022Z</time></trkpt><trkpt lat="40.4164383" lon="15.2435367"><ele>127.60000000000001</ele><time>2026-03-28T09:23:21.022Z</time></trkpt><trkpt lat="40.4164967" lon="15.2436533"><ele>127.80000000000001</ele><time>2026-03-28T09:23:22.021Z</time></trkpt><trkpt lat="40.4165283" lon="15.2437617"><ele>128.0</ele><time>2026-03-28T09:23:23.022Z</time></trkpt><trkpt lat="40.4165317" lon="15.2438783"><ele>130.20000000000002</ele><time>2026-03-28T09:23:24.021Z</time></trkpt><trkpt lat="40.41652" lon="15.2440033"><ele>132.4</ele><time>2026-03-28T09:23:25.022Z</time></trkpt><trkpt lat="40.416495" lon="15.2441383"><ele>134.60000000000002</ele><time>2026-03-28T09:23:26.021Z</time></trkpt><trkpt lat="40.416455" lon="15.24427"><ele>136.8</ele><time>2026-03-28T09:23:27.021Z</time></trkpt><trkpt lat="40.416415" lon="15.2444067"><ele>139.0</ele><time>2026-03-28T09:23:28.021Z</time></trkpt><trkpt lat="40.4163867" lon="15.2445317"><ele>139.0</ele><time>2026-03-28T09:23:29.022Z</time></trkpt><trkpt lat="40.4163767" lon="15.24464"><ele>139.0</ele><time>2026-03-28T09:23:30.021Z</time></trkpt><trkpt lat="40.4163883" lon="15.2447467"><ele>139.0</ele><time>2026-03-28T09:23:31.022Z</time></trkpt><trkpt lat="40.4164117" lon="15.244855"><ele>139.0</ele><time>2026-03-28T09:23:32.021Z</time></trkpt><trkpt lat="40.4164583" lon="15.2449667"><ele>139.0</ele><time>2026-03-28T09:23:33.021Z</time></trkpt><trkpt lat="40.4165183" lon="15.2450867"><ele>141.0</ele><time>2026-03-28T09:23:34.021Z</time></trkpt><trkpt lat="40.4165767" lon="15.2452067"><ele>143.0</ele><time>2026-03-28T09:23:35.021Z</time></trkpt><trkpt lat="40.41661" lon="15.245315"><ele>145.0</ele><time>2026-03-28T09:23:36.021Z</time></trkpt><trkpt lat="40.4166267" lon="15.2454317"><ele>147.0</ele><time>2026-03-28T09:23:37.022Z</time></trkpt><trkpt lat="40.4166317" lon="15.24556"><ele>149.0</ele><time>2026-03-28T09:23:38.022Z</time></trkpt><trkpt lat="40.4166283" lon="15.2457033"><ele>150.0</ele><time>2026-03-28T09:23:39.022Z</time></trkpt><trkpt lat="40.41662" lon="15.2458567"><ele>151.0</ele><time>2026-03-28T09:23:40.021Z</time></trkpt><trkpt lat="40.416625" lon="15.2460233"><ele>152.0</ele><time>2026-03-28T09:23:41.022Z</time></trkpt><trkpt lat="40.4166367" lon="15.2461817"><ele>153.0</ele><time>2026-03-28T09:23:42.022Z</time></trkpt><trkpt lat="40.4166383" lon="15.2463183"><ele>153.0</ele><time>2026-03-28T09:23:43.021Z</time></trkpt><trkpt lat="40.4166317" lon="15.2464533"><ele>153.0</ele><time>2026-03-28T09:23:44.021Z</time></trkpt><trkpt lat="40.4166317" lon="15.24657"><ele>153.0</ele><time>2026-03-28T09:23:45.022Z</time></trkpt><trkpt lat="40.4166383" lon="15.2466817"><ele>153.0</ele><time>2026-03-28T09:23:46.022Z</time></trkpt><trkpt lat="40.4166417" lon="15.2467967"><ele>153.0</ele><time>2026-03-28T09:23:47.022Z</time></trkpt><trkpt lat="40.416635" lon="15.2468917"><ele>153.0</ele><time>2026-03-28T09:23:48.021Z</time></trkpt><trkpt lat="40.4165517" lon="15.2470083"><ele>153.4</ele><time>2026-03-28T09:23:50.022Z</time></trkpt><trkpt lat="40.41648" lon="15.2470383"><ele>153.8</ele><time>2026-03-28T09:23:51.021Z</time></trkpt><trkpt lat="40.4163983" lon="15.247045"><ele>154.2</ele><time>2026-03-28T09:23:52.022Z</time></trkpt><trkpt lat="40.416295" lon="15.2470333"><ele>154.6</ele><time>2026-03-28T09:23:53.021Z</time></trkpt><trkpt lat="40.4161717" lon="15.24702"><ele>155.0</ele><time>2026-03-28T09:23:54.022Z</time></trkpt><trkpt lat="40.41604" lon="15.24701"><ele>157.25</ele><time>2026-03-28T09:23:55.021Z</time></trkpt><trkpt lat="40.4158983" lon="15.2469967"><ele>159.5</ele><time>2026-03-28T09:23:56.021Z</time></trkpt><trkpt lat="40.41576" lon="15.2469767"><ele>161.75</ele><time>2026-03-28T09:23:57.021Z</time></trkpt><trkpt lat="40.415635" lon="15.2469467"><ele>164.0</ele><time>2026-03-28T09:23:58.021Z</time></trkpt><trkpt lat="40.4155317" lon="15.246895"><ele>166.39999999999998</ele><time>2026-03-28T09:23:59.021Z</time></trkpt><trkpt lat="40.41545" lon="15.2468217"><ele>168.8</ele><time>2026-03-28T09:24:00.022Z</time></trkpt><trkpt lat="40.41537" lon="15.2467217"><ele>171.2</ele><time>2026-03-28T09:24:01.021Z</time></trkpt><trkpt lat="40.4152967" lon="15.24663"><ele>173.60000000000002</ele><time>2026-03-28T09:24:02.021Z</time></trkpt><trkpt lat="40.4152167" lon="15.246565"><ele>176.0</ele><time>2026-03-28T09:24:03.022Z</time></trkpt><trkpt lat="40.41512" lon="15.2465183"><ele>176.0</ele><time>2026-03-28T09:24:04.021Z</time></trkpt><trkpt lat="40.415005" lon="15.2464867"><ele>176.0</ele><time>2026-03-28T09:24:05.021Z</time></trkpt><trkpt lat="40.414885" lon="15.2464667"><ele>176.0</ele><time>2026-03-28T09:24:06.022Z</time></trkpt><trkpt lat="40.414765" lon="15.246455"><ele>176.0</ele><time>2026-03-28T09:24:07.021Z</time></trkpt><trkpt lat="40.4146583" lon="15.2464283"><ele>177.16666666666666</ele><time>2026-03-28T09:24:08.021Z</time></trkpt><trkpt lat="40.41457" lon="15.2464"><ele>178.33333333333331</ele><time>2026-03-28T09:24:09.022Z</time></trkpt><trkpt lat="40.4144983" lon="15.246385"><ele>179.5</ele><time>2026-03-28T09:24:10.021Z</time></trkpt><trkpt lat="40.4143917" lon="15.2464283"><ele>180.66666666666666</ele><time>2026-03-28T09:24:12.021Z</time></trkpt><trkpt lat="40.414355" lon="15.246505"><ele>181.83333333333334</ele><time>2026-03-28T09:24:13.022Z</time></trkpt><trkpt lat="40.4143283" lon="15.2465983"><ele>183.0</ele><time>2026-03-28T09:24:14.021Z</time></trkpt><trkpt lat="40.41431" lon="15.246705"><ele>183.16666666666666</ele><time>2026-03-28T09:24:15.022Z</time></trkpt><trkpt lat="40.4142867" lon="15.2467933"><ele>183.33333333333334</ele><time>2026-03-28T09:24:16.022Z</time></trkpt><trkpt lat="40.414255" lon="15.246895"><ele>183.5</ele><time>2026-03-28T09:24:18.021Z</time></trkpt><trkpt lat="40.4142267" lon="15.246995"><ele>183.66666666666669</ele><time>2026-03-28T09:24:20.022Z</time></trkpt><trkpt lat="40.41416" lon="15.24714"><ele>183.83333333333334</ele><time>2026-03-28T09:24:22.021Z</time></trkpt><trkpt lat="40.41411" lon="15.24722"><ele>184.0</ele><time>2026-03-28T09:24:23.021Z</time></trkpt><trkpt lat="40.4140517" lon="15.2472983"><ele>184.0</ele><time>2026-03-28T09:24:24.022Z</time></trkpt><trkpt lat="40.413995" lon="15.2473767"><ele>184.0</ele><time>2026-03-28T09:24:25.022Z</time></trkpt><trkpt lat="40.4139517" lon="15.24747"><ele>184.0</ele><time>2026-03-28T09:24:26.021Z</time></trkpt><trkpt lat="40.4139117" lon="15.247575"><ele>184.0</ele><time>2026-03-28T09:24:27.022Z</time></trkpt><trkpt lat="40.4138817" lon="15.2476883"><ele>184.0</ele><time>2026-03-28T09:24:28.022Z</time></trkpt><trkpt lat="40.4138567" lon="15.2478083"><ele>184.0</ele><time>2026-03-28T09:24:29.021Z</time></trkpt><trkpt lat="40.41384" lon="15.2479333"><ele>185.39999999999998</ele><time>2026-03-28T09:24:30.021Z</time></trkpt><trkpt lat="40.4138117" lon="15.24807"><ele>186.8</ele><time>2026-03-28T09:24:31.021Z</time></trkpt><trkpt lat="40.4137817" lon="15.2482083"><ele>188.2</ele><time>2026-03-28T09:24:32.021Z</time></trkpt><trkpt lat="40.4137517" lon="15.2483367"><ele>189.60000000000002</ele><time>2026-03-28T09:24:33.021Z</time></trkpt><trkpt lat="40.4137067" lon="15.24845"><ele>191.0</ele><time>2026-03-28T09:24:34.022Z</time></trkpt><trkpt lat="40.4136517" lon="15.2485567"><ele>191.0</ele><time>2026-03-28T09:24:35.022Z</time></trkpt><trkpt lat="40.413615" lon="15.2486583"><ele>191.0</ele><time>2026-03-28T09:24:36.022Z</time></trkpt><trkpt lat="40.4136117" lon="15.24876"><ele>191.0</ele><time>2026-03-28T09:24:37.022Z</time></trkpt><trkpt lat="40.4136367" lon="15.248845"><ele>191.0</ele><time>2026-03-28T09:24:38.021Z</time></trkpt><trkpt lat="40.4136867" lon="15.2489167"><ele>191.0</ele><time>2026-03-28T09:24:39.022Z</time></trkpt><trkpt lat="40.4137383" lon="15.2489783"><ele>191.0</ele><time>2026-03-28T09:24:40.021Z</time></trkpt><trkpt lat="40.4137683" lon="15.2490767"><ele>192.5</ele><time>2026-03-28T09:24:42.022Z</time></trkpt><trkpt lat="40.4137067" lon="15.2491383"><ele>194.0</ele><time>2026-03-28T09:24:44.022Z</time></trkpt><trkpt lat="40.4135867" lon="15.2491683"><ele>195.5</ele><time>2026-03-28T09:24:46.022Z</time></trkpt><trkpt lat="40.41351" lon="15.2491833"><ele>197.0</ele><time>2026-03-28T09:24:47.021Z</time></trkpt><trkpt lat="40.4134367" lon="15.2492017"><ele>198.50000000000003</ele><time>2026-03-28T09:24:48.021Z</time></trkpt><trkpt lat="40.41336" lon="15.2492733"><ele>200.0</ele><time>2026-03-28T09:24:50.022Z</time></trkpt><trkpt lat="40.4133883" lon="15.2493717"><ele>200.0</ele><time>2026-03-28T09:24:52.022Z</time></trkpt><trkpt lat="40.4134983" lon="15.2494667"><ele>200.0</ele><time>2026-03-28T09:24:54.021Z</time></trkpt><trkpt lat="40.413565" lon="15.2495217"><ele>200.0</ele><time>2026-03-28T09:24:55.021Z</time></trkpt><trkpt lat="40.4136233" lon="15.24958"><ele>200.0</ele><time>2026-03-28T09:24:56.021Z</time></trkpt><trkpt lat="40.4136617" lon="15.2496467"><ele>200.0</ele><time>2026-03-28T09:24:57.021Z</time></trkpt><trkpt lat="40.41369" lon="15.249795"><ele>201.83333333333334</ele><time>2026-03-28T09:24:59.021Z</time></trkpt><trkpt lat="40.4136467" lon="15.249915"><ele>203.66666666666669</ele><time>2026-03-28T09:25:01.021Z</time></trkpt><trkpt lat="40.4135967" lon="15.249975"><ele>205.5</ele><time>2026-03-28T09:25:02.021Z</time></trkpt><trkpt lat="40.413535" lon="15.250025"><ele>207.33333333333331</ele><time>2026-03-28T09:25:03.021Z</time></trkpt><trkpt lat="40.4134617" lon="15.2500583"><ele>209.16666666666666</ele><time>2026-03-28T09:25:04.021Z</time></trkpt><trkpt lat="40.413375" lon="15.2500883"><ele>211.0</ele><time>2026-03-28T09:25:05.022Z</time></trkpt><trkpt lat="40.4132767" lon="15.2501217"><ele>211.0</ele><time>2026-03-28T09:25:06.021Z</time></trkpt><trkpt lat="40.4131667" lon="15.2501617"><ele>211.0</ele><time>2026-03-28T09:25:07.021Z</time></trkpt><trkpt lat="40.4130517" lon="15.2502017"><ele>211.0</ele><time>2026-03-28T09:25:08.022Z</time></trkpt><trkpt lat="40.4129317" lon="15.25023"><ele>211.0</ele><time>2026-03-28T09:25:09.022Z</time></trkpt><trkpt lat="40.4128117" lon="15.25025"><ele>214.25</ele><time>2026-03-28T09:25:10.022Z</time></trkpt><trkpt lat="40.412695" lon="15.2502567"><ele>217.5</ele><time>2026-03-28T09:25:11.021Z</time></trkpt><trkpt lat="40.41258" lon="15.250245"><ele>220.75</ele><time>2026-03-28T09:25:12.022Z</time></trkpt><trkpt lat="40.4124583" lon="15.25023"><ele>224.0</ele><time>2026-03-28T09:25:13.022Z</time></trkpt><trkpt lat="40.4123333" lon="15.2502167"><ele>224.0</ele><time>2026-03-28T09:25:14.021Z</time></trkpt><trkpt lat="40.41221" lon="15.2502"><ele>224.0</ele><time>2026-03-28T09:25:15.021Z</time></trkpt><trkpt lat="40.4120883" lon="15.2501733"><ele>224.0</ele><time>2026-03-28T09:25:16.022Z</time></trkpt><trkpt lat="40.4119617" lon="15.2501533"><ele>224.0</ele><time>2026-03-28T09:25:17.022Z</time></trkpt><trkpt lat="40.411845" lon="15.2501467"><ele>226.2</ele><time>2026-03-28T09:25:18.022Z</time></trkpt><trkpt lat="40.4117467" lon="15.2501533"><ele>228.39999999999998</ele><time>2026-03-28T09:25:19.022Z</time></trkpt><trkpt lat="40.41165" lon="15.2501733"><ele>230.6</ele><time>2026-03-28T09:25:20.021Z</time></trkpt><trkpt lat="40.41155" lon="15.2501833"><ele>232.8</ele><time>2026-03-28T09:25:21.021Z</time></trkpt><trkpt lat="40.411445" lon="15.250185"><ele>235.0</ele><time>2026-03-28T09:25:22.022Z</time></trkpt><trkpt lat="40.41133" lon="15.2501783"><ele>238.0</ele><time>2026-03-28T09:25:23.021Z</time></trkpt><trkpt lat="40.4112133" lon="15.2501583"><ele>241.0</ele><time>2026-03-28T09:25:24.021Z</time></trkpt><trkpt lat="40.4110967" lon="15.25013"><ele>244.0</ele><time>2026-03-28T09:25:25.022Z</time></trkpt><trkpt lat="40.4109667" lon="15.2501183"><ele>247.0</ele><time>2026-03-28T09:25:26.021Z</time></trkpt><trkpt lat="40.41084" lon="15.2501233"><ele>247.0</ele><time>2026-03-28T09:25:27.021Z</time></trkpt><trkpt lat="40.410725" lon="15.2501417"><ele>247.0</ele><time>2026-03-28T09:25:28.021Z</time></trkpt><trkpt lat="40.41061" lon="15.250165"><ele>247.0</ele><time>2026-03-28T09:25:29.021Z</time></trkpt><trkpt lat="40.4104983" lon="15.250185"><ele>247.0</ele><time>2026-03-28T09:25:30.021Z</time></trkpt><trkpt lat="40.410395" lon="15.2502017"><ele>247.0</ele><time>2026-03-28T09:25:31.022Z</time></trkpt><trkpt lat="40.410295" lon="15.2502167"><ele>249.39999999999998</ele><time>2026-03-28T09:25:32.021Z</time></trkpt><trkpt lat="40.4101917" lon="15.25022"><ele>251.79999999999998</ele><time>2026-03-28T09:25:33.021Z</time></trkpt><trkpt lat="40.4100833" lon="15.25022"><ele>254.2</ele><time>2026-03-28T09:25:34.021Z</time></trkpt><trkpt lat="40.4099767" lon="15.2502117"><ele>256.59999999999997</ele><time>2026-03-28T09:25:35.022Z</time></trkpt><trkpt lat="40.4098833" lon="15.2502083"><ele>259.0</ele><time>2026-03-28T09:25:36.021Z</time></trkpt><trkpt lat="40.4098033" lon="15.2502083"><ele>259.0</ele><time>2026-03-28T09:25:37.021Z</time></trkpt><trkpt lat="40.409735" lon="15.2501967"><ele>259.0</ele><time>2026-03-28T09:25:38.022Z</time></trkpt><trkpt lat="40.4096733" lon="15.25017"><ele>259.0</ele><time>2026-03-28T09:25:39.021Z</time></trkpt><trkpt lat="40.4095967" lon="15.2501167"><ele>259.0</ele><time>2026-03-28T09:25:40.021Z</time></trkpt><trkpt lat="40.409505" lon="15.25005"><ele>259.0</ele><time>2026-03-28T09:25:41.022Z</time></trkpt><trkpt lat="40.40941" lon="15.24997"><ele>259.0</ele><time>2026-03-28T09:25:42.021Z</time></trkpt><trkpt lat="40.409315" lon="15.2498833"><ele>261.4</ele><time>2026-03-28T09:25:43.021Z</time></trkpt><trkpt lat="40.4092283" lon="15.2497883"><ele>263.79999999999995</ele><time>2026-03-28T09:25:44.021Z</time></trkpt><trkpt lat="40.4091583" lon="15.2496883"><ele>266.20000000000005</ele><time>2026-03-28T09:25:45.022Z</time></trkpt><trkpt lat="40.4091" lon="15.249615"><ele>268.6</ele><time>2026-03-28T09:25:46.021Z</time></trkpt><trkpt lat="40.409035" lon="15.2495733"><ele>271.0</ele><time>2026-03-28T09:25:47.021Z</time></trkpt><trkpt lat="40.4089533" lon="15.2495433"><ele>271.0</ele><time>2026-03-28T09:25:48.022Z</time></trkpt><trkpt lat="40.40887" lon="15.2495133"><ele>271.0</ele><time>2026-03-28T09:25:49.021Z</time></trkpt><trkpt lat="40.4088" lon="15.24948"><ele>271.0</ele><time>2026-03-28T09:25:50.021Z</time></trkpt><trkpt lat="40.4087217" lon="15.2494533"><ele>271.0</ele><time>2026-03-28T09:25:51.021Z</time></trkpt><trkpt lat="40.4086417" lon="15.2494433"><ele>271.0</ele><time>2026-03-28T09:25:52.022Z</time></trkpt><trkpt lat="40.4085533" lon="15.2494467"><ele>271.0</ele><time>2026-03-28T09:25:53.021Z</time></trkpt><trkpt lat="40.4084617" lon="15.2494683"><ele>274.8</ele><time>2026-03-28T09:25:54.021Z</time></trkpt><trkpt lat="40.4083583" lon="15.2495033"><ele>278.6</ele><time>2026-03-28T09:25:55.022Z</time></trkpt><trkpt lat="40.408255" lon="15.2495317"><ele>282.4</ele><time>2026-03-28T09:25:56.021Z</time></trkpt><trkpt lat="40.4081467" lon="15.2495583"><ele>286.2</ele><time>2026-03-28T09:25:57.021Z</time></trkpt><trkpt lat="40.4080483" lon="15.249575"><ele>290.0</ele><time>2026-03-28T09:25:58.022Z</time></trkpt><trkpt lat="40.40795" lon="15.2495883"><ele>293.0</ele><time>2026-03-28T09:25:59.022Z</time></trkpt><trkpt lat="40.407855" lon="15.24959"><ele>296.0</ele><time>2026-03-28T09:26:00.022Z</time></trkpt><trkpt lat="40.4077617" lon="15.2495867"><ele>299.0</ele><time>2026-03-28T09:26:01.021Z</time></trkpt><trkpt lat="40.40767" lon="15.2495933"><ele>302.0</ele><time>2026-03-28T09:26:02.022Z</time></trkpt><trkpt lat="40.4075867" lon="15.2496133"><ele>305.0</ele><time>2026-03-28T09:26:03.021Z</time></trkpt><trkpt lat="40.407525" lon="15.2496383"><ele>308.0</ele><time>2026-03-28T09:26:04.022Z</time></trkpt><trkpt lat="40.407465" lon="15.2496833"><ele>308.0</ele><time>2026-03-28T09:26:05.021Z</time></trkpt><trkpt lat="40.407405" lon="15.24975"><ele>308.0</ele><time>2026-03-28T09:26:06.022Z</time></trkpt><trkpt lat="40.40733" lon="15.2498383"><ele>308.0</ele><time>2026-03-28T09:26:07.022Z</time></trkpt><trkpt lat="40.40725" lon="15.249935"><ele>308.0</ele><time>2026-03-28T09:26:08.021Z</time></trkpt><trkpt lat="40.4071667" lon="15.25004"><ele>308.0</ele><time>2026-03-28T09:26:09.021Z</time></trkpt><trkpt lat="40.4070817" lon="15.2501333"><ele>308.6666666666667</ele><time>2026-03-28T09:26:10.021Z</time></trkpt><trkpt lat="40.4070083" lon="15.250205"><ele>309.33333333333337</ele><time>2026-03-28T09:26:11.022Z</time></trkpt><trkpt lat="40.4069483" lon="15.250265"><ele>310.0</ele><time>2026-03-28T09:26:12.022Z</time></trkpt><trkpt lat="40.4068933" lon="15.2503083"><ele>310.6666666666667</ele><time>2026-03-28T09:26:13.021Z</time></trkpt><trkpt lat="40.406775" lon="15.250355"><ele>311.3333333333333</ele><time>2026-03-28T09:26:15.021Z</time></trkpt><trkpt lat="40.4066933" lon="15.250365"><ele>312.0</ele><time>2026-03-28T09:26:16.021Z</time></trkpt><trkpt lat="40.4066017" lon="15.2503667"><ele>312.0</ele><time>2026-03-28T09:26:17.021Z</time></trkpt><trkpt lat="40.4065017" lon="15.2503733"><ele>312.0</ele><time>2026-03-28T09:26:18.022Z</time></trkpt><trkpt lat="40.4064033" lon="15.2503767"><ele>312.0</ele><time>2026-03-28T09:26:19.021Z</time></trkpt><trkpt lat="40.406305" lon="15.250385"><ele>312.0</ele><time>2026-03-28T09:26:20.022Z</time></trkpt><trkpt lat="40.40621" lon="15.2503883"><ele>312.0</ele><time>2026-03-28T09:26:21.021Z</time></trkpt><trkpt lat="40.4061183" lon="15.25039"><ele>314.3333333333333</ele><time>2026-03-28T09:26:22.021Z</time></trkpt><trkpt lat="40.406025" lon="15.2503967"><ele>316.6666666666667</ele><time>2026-03-28T09:26:23.021Z</time></trkpt><trkpt lat="40.40594" lon="15.250395"><ele>319.0</ele><time>2026-03-28T09:26:24.021Z</time></trkpt><trkpt lat="40.4058533" lon="15.2503817"><ele>321.33333333333337</ele><time>2026-03-28T09:26:25.022Z</time></trkpt><trkpt lat="40.4057667" lon="15.250375"><ele>323.6666666666667</ele><time>2026-03-28T09:26:26.022Z</time></trkpt><trkpt lat="40.40569" lon="15.2503933"><ele>326.0</ele><time>2026-03-28T09:26:27.022Z</time></trkpt><trkpt lat="40.405615" lon="15.2504233"><ele>326.0</ele><time>2026-03-28T09:26:28.021Z</time></trkpt><trkpt lat="40.40554" lon="15.2504567"><ele>326.0</ele><time>2026-03-28T09:26:29.021Z</time></trkpt><trkpt lat="40.4054733" lon="15.2504933"><ele>326.0</ele><time>2026-03-28T09:26:30.021Z</time></trkpt><trkpt lat="40.4054033" lon="15.2505267"><ele>326.0</ele><time>2026-03-28T09:26:31.021Z</time></trkpt><trkpt lat="40.405335" lon="15.2505617"><ele>326.0</ele><time>2026-03-28T09:26:32.021Z</time></trkpt><trkpt lat="40.4052533" lon="15.2506017"><ele>326.0</ele><time>2026-03-28T09:26:33.021Z</time></trkpt><trkpt lat="40.4051633" lon="15.2506533"><ele>324.6</ele><time>2026-03-28T09:26:34.021Z</time></trkpt><trkpt lat="40.405065" lon="15.250715"><ele>323.20000000000005</ele><time>2026-03-28T09:26:35.021Z</time></trkpt><trkpt lat="40.404965" lon="15.2507783"><ele>321.79999999999995</ele><time>2026-03-28T09:26:36.021Z</time></trkpt><trkpt lat="40.40486" lon="15.2508367"><ele>320.4</ele><time>2026-03-28T09:26:37.021Z</time></trkpt><trkpt lat="40.40476" lon="15.2508933"><ele>319.0</ele><time>2026-03-28T09:26:38.022Z</time></trkpt><trkpt lat="40.4046633" lon="15.25095"><ele>320.79999999999995</ele><time>2026-03-28T09:26:39.021Z</time></trkpt><trkpt lat="40.40457" lon="15.2510117"><ele>322.59999999999997</ele><time>2026-03-28T09:26:40.021Z</time></trkpt><trkpt lat="40.4044833" lon="15.2510667"><ele>324.4</ele><time>2026-03-28T09:26:41.021Z</time></trkpt><trkpt lat="40.4044067" lon="15.2511083"><ele>326.2</ele><time>2026-03-28T09:26:42.021Z</time></trkpt><trkpt lat="40.4043433" lon="15.2511483"><ele>328.0</ele><time>2026-03-28T09:26:43.022Z</time></trkpt><trkpt lat="40.4042167" lon="15.2511967"><ele>328.0</ele><time>2026-03-28T09:26:45.021Z</time></trkpt><trkpt lat="40.4041417" lon="15.2512017"><ele>328.0</ele><time>2026-03-28T09:26:46.022Z</time></trkpt><trkpt lat="40.404065" lon="15.2511933"><ele>328.0</ele><time>2026-03-28T09:26:47.021Z</time></trkpt><trkpt lat="40.40398" lon="15.2511533"><ele>328.0</ele><time>2026-03-28T09:26:48.022Z</time></trkpt><trkpt lat="40.4038917" lon="15.25109"><ele>328.0</ele><time>2026-03-28T09:26:49.022Z</time></trkpt><trkpt lat="40.4038033" lon="15.2510317"><ele>328.0</ele><time>2026-03-28T09:26:50.022Z</time></trkpt><trkpt lat="40.4037167" lon="15.2509817"><ele>327.16666666666663</ele><time>2026-03-28T09:26:51.021Z</time></trkpt><trkpt lat="40.40364" lon="15.2509517"><ele>326.3333333333333</ele><time>2026-03-28T09:26:52.022Z</time></trkpt><trkpt lat="40.40357" lon="15.2509367"><ele>325.5</ele><time>2026-03-28T09:26:53.021Z</time></trkpt><trkpt lat="40.4034983" lon="15.25093"><ele>324.6666666666667</ele><time>2026-03-28T09:26:54.021Z</time></trkpt><trkpt lat="40.4034267" lon="15.2509483"><ele>323.83333333333337</ele><time>2026-03-28T09:26:55.022Z</time></trkpt><trkpt lat="40.403345" lon="15.2509783"><ele>323.0</ele><time>2026-03-28T09:26:56.021Z</time></trkpt><trkpt lat="40.4032533" lon="15.251005"><ele>323.0</ele><time>2026-03-28T09:26:57.021Z</time></trkpt><trkpt lat="40.4031633" lon="15.2510367"><ele>323.0</ele><time>2026-03-28T09:26:58.021Z</time></trkpt><trkpt lat="40.4030783" lon="15.25108"><ele>323.0</ele><time>2026-03-28T09:26:59.021Z</time></trkpt><trkpt lat="40.40299" lon="15.25114"><ele>323.0</ele><time>2026-03-28T09:27:00.021Z</time></trkpt><trkpt lat="40.4029033" lon="15.2512017"><ele>323.0</ele><time>2026-03-28T09:27:01.021Z</time></trkpt><trkpt lat="40.4028283" lon="15.25125"><ele>323.59999999999997</ele><time>2026-03-28T09:27:02.022Z</time></trkpt><trkpt lat="40.4027717" lon="15.2512933"><ele>324.2</ele><time>2026-03-28T09:27:03.021Z</time></trkpt><trkpt lat="40.4026717" lon="15.2512933"><ele>324.8</ele><time>2026-03-28T09:27:05.021Z</time></trkpt><trkpt lat="40.4025683" lon="15.2511933"><ele>325.4</ele><time>2026-03-28T09:27:07.022Z</time></trkpt><trkpt lat="40.4025033" lon="15.2511017"><ele>326.0</ele><time>2026-03-28T09:27:08.021Z</time></trkpt><trkpt lat="40.4024167" lon="15.2509967"><ele>326.0</ele><time>2026-03-28T09:27:09.021Z</time></trkpt><trkpt lat="40.4023283" lon="15.2509033"><ele>326.0</ele><time>2026-03-28T09:27:10.021Z</time></trkpt><trkpt lat="40.4022467" lon="15.2508233"><ele>326.0</ele><time>2026-03-28T09:27:11.022Z</time></trkpt><trkpt lat="40.40218" lon="15.2507583"><ele>326.0</ele><time>2026-03-28T09:27:12.021Z</time></trkpt><trkpt lat="40.402125" lon="15.25068"><ele>326.0</ele><time>2026-03-28T09:27:13.022Z</time></trkpt><trkpt lat="40.4020783" lon="15.250605"><ele>326.83333333333337</ele><time>2026-03-28T09:27:14.021Z</time></trkpt><trkpt lat="40.40202" lon="15.25053"><ele>327.6666666666667</ele><time>2026-03-28T09:27:15.021Z</time></trkpt><trkpt lat="40.40196" lon="15.2504617"><ele>328.5</ele><time>2026-03-28T09:27:16.022Z</time></trkpt><trkpt lat="40.4018967" lon="15.250405"><ele>329.3333333333333</ele><time>2026-03-28T09:27:17.021Z</time></trkpt><trkpt lat="40.40183" lon="15.2503567"><ele>330.16666666666663</ele><time>2026-03-28T09:27:18.022Z</time></trkpt><trkpt lat="40.401755" lon="15.2503317"><ele>331.0</ele><time>2026-03-28T09:27:19.022Z</time></trkpt><trkpt lat="40.40168" lon="15.25033"><ele>331.0</ele><time>2026-03-28T09:27:20.021Z</time></trkpt><trkpt lat="40.401605" lon="15.2503417"><ele>331.0</ele><time>2026-03-28T09:27:21.022Z</time></trkpt><trkpt lat="40.4015267" lon="15.2503733"><ele>331.0</ele><time>2026-03-28T09:27:22.022Z</time></trkpt><trkpt lat="40.4014567" lon="15.2503983"><ele>331.0</ele><time>2026-03-28T09:27:23.021Z</time></trkpt><trkpt lat="40.4013817" lon="15.2504117"><ele>331.0</ele><time>2026-03-28T09:27:24.021Z</time></trkpt><trkpt lat="40.40131" lon="15.2504133"><ele>331.0</ele><time>2026-03-28T09:27:25.021Z</time></trkpt><trkpt lat="40.4011917" lon="15.25047"><ele>329.8333333333333</ele><time>2026-03-28T09:27:27.021Z</time></trkpt><trkpt lat="40.4011333" lon="15.250535"><ele>328.66666666666663</ele><time>2026-03-28T09:27:28.022Z</time></trkpt><trkpt lat="40.4010783" lon="15.2506233"><ele>327.5</ele><time>2026-03-28T09:27:29.021Z</time></trkpt><trkpt lat="40.4010333" lon="15.250715"><ele>326.3333333333333</ele><time>2026-03-28T09:27:30.021Z</time></trkpt><trkpt lat="40.4009817" lon="15.2507933"><ele>325.1666666666667</ele><time>2026-03-28T09:27:31.022Z</time></trkpt><trkpt lat="40.4009267" lon="15.25085"><ele>324.0</ele><time>2026-03-28T09:27:32.021Z</time></trkpt><trkpt lat="40.400865" lon="15.2508767"><ele>320.4</ele><time>2026-03-28T09:27:33.021Z</time></trkpt><trkpt lat="40.4007983" lon="15.250875"><ele>316.79999999999995</ele><time>2026-03-28T09:27:34.021Z</time></trkpt><trkpt lat="40.4007233" lon="15.250845"><ele>313.20000000000005</ele><time>2026-03-28T09:27:35.021Z</time></trkpt><trkpt lat="40.400635" lon="15.2507867"><ele>309.6</ele><time>2026-03-28T09:27:36.021Z</time></trkpt><trkpt lat="40.400535" lon="15.2507033"><ele>306.0</ele><time>2026-03-28T09:27:37.021Z</time></trkpt><trkpt lat="40.400435" lon="15.2506067"><ele>305.5</ele><time>2026-03-28T09:27:38.021Z</time></trkpt><trkpt lat="40.4003333" lon="15.2505083"><ele>305.0</ele><time>2026-03-28T09:27:39.021Z</time></trkpt><trkpt lat="40.4002317" lon="15.2504217"><ele>304.5</ele><time>2026-03-28T09:27:40.021Z</time></trkpt><trkpt lat="40.400135" lon="15.2503417"><ele>304.0</ele><time>2026-03-28T09:27:41.021Z</time></trkpt><trkpt lat="40.4000417" lon="15.250265"><ele>304.0</ele><time>2026-03-28T09:27:42.021Z</time></trkpt><trkpt lat="40.3999467" lon="15.2501967"><ele>304.0</ele><time>2026-03-28T09:27:43.021Z</time></trkpt><trkpt lat="40.39985" lon="15.2501433"><ele>304.0</ele><time>2026-03-28T09:27:44.021Z</time></trkpt><trkpt lat="40.399765" lon="15.2501067"><ele>304.0</ele><time>2026-03-28T09:27:45.021Z</time></trkpt><trkpt lat="40.3996783" lon="15.2500883"><ele>304.0</ele><time>2026-03-28T09:27:46.021Z</time></trkpt><trkpt lat="40.3996" lon="15.2500883"><ele>300.8333333333333</ele><time>2026-03-28T09:27:47.022Z</time></trkpt><trkpt lat="40.399525" lon="15.25009"><ele>297.66666666666663</ele><time>2026-03-28T09:27:48.021Z</time></trkpt><trkpt lat="40.3994583" lon="15.2500967"><ele>294.5</ele><time>2026-03-28T09:27:49.022Z</time></trkpt><trkpt lat="40.3993467" lon="15.2501317"><ele>291.3333333333333</ele><time>2026-03-28T09:27:51.022Z</time></trkpt><trkpt lat="40.399255" lon="15.25016"><ele>288.1666666666667</ele><time>2026-03-28T09:27:53.022Z</time></trkpt><trkpt lat="40.39916" lon="15.250165"><ele>285.0</ele><time>2026-03-28T09:28:28.021Z</time></trkpt><trkpt lat="40.399055" lon="15.2501817"><ele>285.0</ele><time>2026-03-28T09:44:56.021Z</time></trkpt><trkpt lat="40.3989633" lon="15.2501733"><ele>285.0</ele><time>2026-03-28T09:44:59.021Z</time></trkpt><trkpt lat="40.3988467" lon="15.25015"><ele>285.0</ele><time>2026-03-28T09:45:01.022Z</time></trkpt><trkpt lat="40.3987267" lon="15.2501367"><ele>285.0</ele><time>2026-03-28T09:45:03.021Z</time></trkpt><trkpt lat="40.398605" lon="15.250145"><ele>284.4</ele><time>2026-03-28T09:45:05.022Z</time></trkpt><trkpt lat="40.39854" lon="15.25016"><ele>283.8</ele><time>2026-03-28T09:45:06.021Z</time></trkpt><trkpt lat="40.3984783" lon="15.25018"><ele>283.2</ele><time>2026-03-28T09:45:07.022Z</time></trkpt><trkpt lat="40.3983583" lon="15.2502267"><ele>282.6</ele><time>2026-03-28T09:45:09.021Z</time></trkpt><trkpt lat="40.39824" lon="15.2502783"><ele>282.0</ele><time>2026-03-28T09:45:11.021Z</time></trkpt><trkpt lat="40.3981667" lon="15.2503033"><ele>282.0</ele><time>2026-03-28T09:45:12.022Z</time></trkpt><trkpt lat="40.3980883" lon="15.250335"><ele>282.0</ele><time>2026-03-28T09:45:13.022Z</time></trkpt><trkpt lat="40.3980083" lon="15.250375"><ele>282.0</ele><time>2026-03-28T09:45:14.021Z</time></trkpt><trkpt lat="40.3979267" lon="15.2504067"><ele>282.0</ele><time>2026-03-28T09:45:15.022Z</time></trkpt><trkpt lat="40.3978533" lon="15.2504233"><ele>282.0</ele><time>2026-03-28T09:45:16.021Z</time></trkpt><trkpt lat="40.39779" lon="15.2504333"><ele>282.0</ele><time>2026-03-28T09:45:17.022Z</time></trkpt><trkpt lat="40.3977267" lon="15.2504317"><ele>282.6666666666667</ele><time>2026-03-28T09:45:18.021Z</time></trkpt><trkpt lat="40.3976583" lon="15.2504283"><ele>283.3333333333333</ele><time>2026-03-28T09:45:19.021Z</time></trkpt><trkpt lat="40.39758" lon="15.2504167"><ele>284.0</ele><time>2026-03-28T09:45:20.022Z</time></trkpt><trkpt lat="40.3975033" lon="15.2503817"><ele>284.66666666666663</ele><time>2026-03-28T09:45:21.021Z</time></trkpt><trkpt lat="40.3974317" lon="15.2503367"><ele>285.3333333333333</ele><time>2026-03-28T09:45:22.022Z</time></trkpt><trkpt lat="40.3973583" lon="15.25028"><ele>286.0</ele><time>2026-03-28T09:45:23.022Z</time></trkpt><trkpt lat="40.3972783" lon="15.2502483"><ele>286.0</ele><time>2026-03-28T09:45:24.021Z</time></trkpt><trkpt lat="40.397185" lon="15.2502317"><ele>286.0</ele><time>2026-03-28T09:45:25.021Z</time></trkpt><trkpt lat="40.3970883" lon="15.2502333"><ele>286.0</ele><time>2026-03-28T09:45:26.022Z</time></trkpt><trkpt lat="40.3969917" lon="15.2502517"><ele>286.0</ele><time>2026-03-28T09:45:27.021Z</time></trkpt><trkpt lat="40.396895" lon="15.2502783"><ele>286.0</ele><time>2026-03-28T09:45:28.021Z</time></trkpt><trkpt lat="40.396815" lon="15.2503217"><ele>287.0</ele><time>2026-03-28T09:45:29.021Z</time></trkpt><trkpt lat="40.3967467" lon="15.2503683"><ele>288.0</ele><time>2026-03-28T09:45:30.022Z</time></trkpt><trkpt lat="40.3966867" lon="15.2504367"><ele>289.0</ele><time>2026-03-28T09:45:31.022Z</time></trkpt><trkpt lat="40.3966333" lon="15.25052"><ele>290.0</ele><time>2026-03-28T09:45:32.022Z</time></trkpt><trkpt lat="40.396585" lon="15.2506"><ele>291.0</ele><time>2026-03-28T09:45:33.022Z</time></trkpt><trkpt lat="40.39654" lon="15.2506733"><ele>292.0</ele><time>2026-03-28T09:45:34.022Z</time></trkpt><trkpt lat="40.3964933" lon="15.2507333"><ele>294.0</ele><time>2026-03-28T09:45:35.022Z</time></trkpt><trkpt lat="40.3963783" lon="15.2507983"><ele>296.0</ele><time>2026-03-28T09:45:37.021Z</time></trkpt><trkpt lat="40.3963067" lon="15.2508217"><ele>298.0</ele><time>2026-03-28T09:45:38.022Z</time></trkpt><trkpt lat="40.39623" lon="15.2508517"><ele>300.0</ele><time>2026-03-28T09:45:39.022Z</time></trkpt><trkpt lat="40.396145" lon="15.2508717"><ele>302.0</ele><time>2026-03-28T09:45:40.022Z</time></trkpt><trkpt lat="40.39605" lon="15.250895"><ele>302.4</ele><time>2026-03-28T09:45:41.022Z</time></trkpt><trkpt lat="40.3959483" lon="15.2509267"><ele>302.79999999999995</ele><time>2026-03-28T09:45:42.021Z</time></trkpt><trkpt lat="40.39585" lon="15.25095"><ele>303.2</ele><time>2026-03-28T09:45:43.022Z</time></trkpt><trkpt lat="40.3957633" lon="15.2509817"><ele>303.59999999999997</ele><time>2026-03-28T09:45:44.022Z</time></trkpt><trkpt lat="40.3956733" lon="15.251015"><ele>304.0</ele><time>2026-03-28T09:45:45.022Z</time></trkpt><trkpt lat="40.3955817" lon="15.2510633"><ele>306.59999999999997</ele><time>2026-03-28T09:45:46.022Z</time></trkpt><trkpt lat="40.39548" lon="15.251125"><ele>309.2</ele><time>2026-03-28T09:45:47.022Z</time></trkpt><trkpt lat="40.395385" lon="15.25119"><ele>311.79999999999995</ele><time>2026-03-28T09:45:48.022Z</time></trkpt><trkpt lat="40.3953033" lon="15.25126"><ele>314.4</ele><time>2026-03-28T09:45:49.021Z</time></trkpt><trkpt lat="40.3952317" lon="15.2513333"><ele>317.0</ele><time>2026-03-28T09:45:50.022Z</time></trkpt><trkpt lat="40.3951633" lon="15.2514167"><ele>316.0</ele><time>2026-03-28T09:45:51.021Z</time></trkpt><trkpt lat="40.3950967" lon="15.2515"><ele>315.0</ele><time>2026-03-28T09:45:52.021Z</time></trkpt><trkpt lat="40.3950417" lon="15.2515717"><ele>314.0</ele><time>2026-03-28T09:45:53.021Z</time></trkpt><trkpt lat="40.394945" lon="15.2516517"><ele>313.0</ele><time>2026-03-28T09:45:55.021Z</time></trkpt><trkpt lat="40.3948217" lon="15.2517017"><ele>312.0</ele><time>2026-03-28T09:45:57.021Z</time></trkpt><trkpt lat="40.3947517" lon="15.2517233"><ele>312.0</ele><time>2026-03-28T09:45:58.022Z</time></trkpt><trkpt lat="40.3946733" lon="15.251745"><ele>312.0</ele><time>2026-03-28T09:45:59.021Z</time></trkpt><trkpt lat="40.3945817" lon="15.2517717"><ele>312.0</ele><time>2026-03-28T09:46:00.022Z</time></trkpt><trkpt lat="40.3944833" lon="15.2518117"><ele>312.0</ele><time>2026-03-28T09:46:01.022Z</time></trkpt><trkpt lat="40.3943683" lon="15.251855"><ele>312.0</ele><time>2026-03-28T09:46:02.021Z</time></trkpt><trkpt lat="40.3942467" lon="15.2519"><ele>313.2</ele><time>2026-03-28T09:46:03.022Z</time></trkpt><trkpt lat="40.3941267" lon="15.2519467"><ele>314.4</ele><time>2026-03-28T09:46:04.021Z</time></trkpt><trkpt lat="40.3940233" lon="15.2519883"><ele>315.6</ele><time>2026-03-28T09:46:05.022Z</time></trkpt><trkpt lat="40.3939233" lon="15.2520283"><ele>316.8</ele><time>2026-03-28T09:46:06.022Z</time></trkpt><trkpt lat="40.3938233" lon="15.25207"><ele>318.0</ele><time>2026-03-28T09:46:07.021Z</time></trkpt><trkpt lat="40.3937283" lon="15.2521067"><ele>319.0</ele><time>2026-03-28T09:46:08.021Z</time></trkpt><trkpt lat="40.3936417" lon="15.2521433"><ele>320.0</ele><time>2026-03-28T09:46:09.022Z</time></trkpt><trkpt lat="40.3935717" lon="15.2521833"><ele>321.0</ele><time>2026-03-28T09:46:10.021Z</time></trkpt><trkpt lat="40.3935033" lon="15.2522217"><ele>322.0</ele><time>2026-03-28T09:46:11.021Z</time></trkpt><trkpt lat="40.3934433" lon="15.2522567"><ele>323.0</ele><time>2026-03-28T09:46:12.022Z</time></trkpt><trkpt lat="40.3933817" lon="15.2522833"><ele>324.0</ele><time>2026-03-28T09:46:13.022Z</time></trkpt><trkpt lat="40.3932617" lon="15.2523417"><ele>323.6666666666667</ele><time>2026-03-28T09:46:15.021Z</time></trkpt><trkpt lat="40.3931967" lon="15.2523733"><ele>323.3333333333333</ele><time>2026-03-28T09:46:16.022Z</time></trkpt><trkpt lat="40.3931283" lon="15.25241"><ele>323.0</ele><time>2026-03-28T09:46:17.021Z</time></trkpt><trkpt lat="40.3930533" lon="15.2524617"><ele>322.66666666666663</ele><time>2026-03-28T09:46:18.021Z</time></trkpt><trkpt lat="40.3929783" lon="15.2525217"><ele>322.3333333333333</ele><time>2026-03-28T09:46:19.022Z</time></trkpt><trkpt lat="40.3929" lon="15.2525967"><ele>322.0</ele><time>2026-03-28T09:46:20.021Z</time></trkpt><trkpt lat="40.3928283" lon="15.2526733"><ele>322.0</ele><time>2026-03-28T09:46:21.022Z</time></trkpt><trkpt lat="40.3927633" lon="15.2527633"><ele>322.0</ele><time>2026-03-28T09:46:22.022Z</time></trkpt><trkpt lat="40.3927067" lon="15.2528517"><ele>322.0</ele><time>2026-03-28T09:46:23.022Z</time></trkpt><trkpt lat="40.3926633" lon="15.2529433"><ele>322.0</ele><time>2026-03-28T09:46:24.022Z</time></trkpt><trkpt lat="40.3926317" lon="15.25303"><ele>322.0</ele><time>2026-03-28T09:46:25.021Z</time></trkpt><trkpt lat="40.3926033" lon="15.2531333"><ele>322.0</ele><time>2026-03-28T09:46:26.021Z</time></trkpt><trkpt lat="40.3925733" lon="15.25324"><ele>320.16666666666663</ele><time>2026-03-28T09:46:27.021Z</time></trkpt><trkpt lat="40.392535" lon="15.2533483"><ele>318.3333333333333</ele><time>2026-03-28T09:46:28.021Z</time></trkpt><trkpt lat="40.3924883" lon="15.25345"><ele>316.5</ele><time>2026-03-28T09:46:29.022Z</time></trkpt><trkpt lat="40.3924317" lon="15.2535317"><ele>314.6666666666667</ele><time>2026-03-28T09:46:30.021Z</time></trkpt><trkpt lat="40.39236" lon="15.2535917"><ele>312.83333333333337</ele><time>2026-03-28T09:46:31.022Z</time></trkpt><trkpt lat="40.392285" lon="15.2536333"><ele>311.0</ele><time>2026-03-28T09:46:32.022Z</time></trkpt><trkpt lat="40.392205" lon="15.25366"><ele>312.40000000000003</ele><time>2026-03-28T09:46:33.021Z</time></trkpt><trkpt lat="40.392115" lon="15.2536567"><ele>313.8</ele><time>2026-03-28T09:46:34.021Z</time></trkpt><trkpt lat="40.3920217" lon="15.253635"><ele>315.20000000000005</ele><time>2026-03-28T09:46:35.022Z</time></trkpt><trkpt lat="40.391915" lon="15.2535983"><ele>316.6</ele><time>2026-03-28T09:46:36.022Z</time></trkpt><trkpt lat="40.391795" lon="15.2535617"><ele>318.0</ele><time>2026-03-28T09:46:37.022Z</time></trkpt><trkpt lat="40.3916733" lon="15.2535283"><ele>318.0</ele><time>2026-03-28T09:46:38.022Z</time></trkpt><trkpt lat="40.3915517" lon="15.2535067"><ele>318.0</ele><time>2026-03-28T09:46:39.021Z</time></trkpt><trkpt lat="40.3914167" lon="15.2535017"><ele>318.0</ele><time>2026-03-28T09:46:40.022Z</time></trkpt><trkpt lat="40.39128" lon="15.2535083"><ele>318.0</ele><time>2026-03-28T09:46:41.021Z</time></trkpt><trkpt lat="40.3911433" lon="15.2535133"><ele>318.0</ele><time>2026-03-28T09:46:42.022Z</time></trkpt><trkpt lat="40.391005" lon="15.2535267"><ele>318.0</ele><time>2026-03-28T09:46:43.021Z</time></trkpt><trkpt lat="40.39088" lon="15.2535383"><ele>318.0</ele><time>2026-03-28T09:46:44.022Z</time></trkpt><trkpt lat="40.3907667" lon="15.2535467"><ele>318.0</ele><time>2026-03-28T09:46:45.021Z</time></trkpt><trkpt lat="40.3906483" lon="15.25356"><ele>318.0</ele><time>2026-03-28T09:46:46.022Z</time></trkpt><trkpt lat="40.39053" lon="15.253565"><ele>318.0</ele><time>2026-03-28T09:46:47.021Z</time></trkpt><trkpt lat="40.3904133" lon="15.2535533"><ele>318.0</ele><time>2026-03-28T09:46:48.021Z</time></trkpt><trkpt lat="40.390295" lon="15.2535467"><ele>318.0</ele><time>2026-03-28T09:46:49.022Z</time></trkpt><trkpt lat="40.39018" lon="15.2535417"><ele>319.5</ele><time>2026-03-28T09:46:50.022Z</time></trkpt><trkpt lat="40.3900633" lon="15.2535317"><ele>321.0</ele><time>2026-03-28T09:46:51.021Z</time></trkpt><trkpt lat="40.3899483" lon="15.253515"><ele>322.5</ele><time>2026-03-28T09:46:52.022Z</time></trkpt><trkpt lat="40.3898367" lon="15.25349"><ele>324.0</ele><time>2026-03-28T09:46:53.022Z</time></trkpt><trkpt lat="40.3897333" lon="15.2534517"><ele>325.2</ele><time>2026-03-28T09:46:54.022Z</time></trkpt><trkpt lat="40.3896317" lon="15.253405"><ele>326.4</ele><time>2026-03-28T09:46:55.021Z</time></trkpt><trkpt lat="40.38952" lon="15.253355"><ele>327.6</ele><time>2026-03-28T09:46:56.021Z</time></trkpt><trkpt lat="40.3894133" lon="15.25332"><ele>328.8</ele><time>2026-03-28T09:46:57.021Z</time></trkpt><trkpt lat="40.3893183" lon="15.2532883"><ele>330.0</ele><time>2026-03-28T09:46:58.021Z</time></trkpt><trkpt lat="40.3892333" lon="15.2532717"><ele>330.0</ele><time>2026-03-28T09:46:59.021Z</time></trkpt><trkpt lat="40.3891483" lon="15.2532733"><ele>330.0</ele><time>2026-03-28T09:47:00.021Z</time></trkpt><trkpt lat="40.3890633" lon="15.2532967"><ele>330.0</ele><time>2026-03-28T09:47:01.022Z</time></trkpt><trkpt lat="40.3889733" lon="15.2533417"><ele>330.0</ele><time>2026-03-28T09:47:02.022Z</time></trkpt><trkpt lat="40.3888717" lon="15.2534017"><ele>330.0</ele><time>2026-03-28T09:47:03.022Z</time></trkpt><trkpt lat="40.38876" lon="15.253475"><ele>330.75</ele><time>2026-03-28T09:47:04.021Z</time></trkpt><trkpt lat="40.3886467" lon="15.2535567"><ele>331.5</ele><time>2026-03-28T09:47:05.022Z</time></trkpt><trkpt lat="40.388535" lon="15.2536367"><ele>332.25</ele><time>2026-03-28T09:47:06.022Z</time></trkpt><trkpt lat="40.388425" lon="15.2537133"><ele>333.0</ele><time>2026-03-28T09:47:07.021Z</time></trkpt><trkpt lat="40.388325" lon="15.2537933"><ele>333.0</ele><time>2026-03-28T09:47:08.022Z</time></trkpt><trkpt lat="40.3882283" lon="15.253885"><ele>333.0</ele><time>2026-03-28T09:47:09.021Z</time></trkpt><trkpt lat="40.3881317" lon="15.2539933"><ele>333.0</ele><time>2026-03-28T09:47:10.022Z</time></trkpt><trkpt lat="40.38803" lon="15.254095"><ele>333.0</ele><time>2026-03-28T09:47:11.022Z</time></trkpt><trkpt lat="40.38793" lon="15.2541817"><ele>333.79999999999995</ele><time>2026-03-28T09:47:12.021Z</time></trkpt><trkpt lat="40.3878317" lon="15.2542683"><ele>334.6</ele><time>2026-03-28T09:47:13.021Z</time></trkpt><trkpt lat="40.3877467" lon="15.2543467"><ele>335.4</ele><time>2026-03-28T09:47:14.021Z</time></trkpt><trkpt lat="40.387675" lon="15.2544183"><ele>336.20000000000005</ele><time>2026-03-28T09:47:15.022Z</time></trkpt><trkpt lat="40.3876167" lon="15.2544767"><ele>337.0</ele><time>2026-03-28T09:47:16.022Z</time></trkpt><trkpt lat="40.3875483" lon="15.25457"><ele>337.0</ele><time>2026-03-28T09:47:18.021Z</time></trkpt><trkpt lat="40.3875333" lon="15.2546867"><ele>337.0</ele><time>2026-03-28T09:47:20.022Z</time></trkpt><trkpt lat="40.3875667" lon="15.2548617"><ele>337.0</ele><time>2026-03-28T09:47:22.022Z</time></trkpt><trkpt lat="40.3875933" lon="15.25497"><ele>337.0</ele><time>2026-03-28T09:47:23.021Z</time></trkpt><trkpt lat="40.387625" lon="15.2550917"><ele>337.0</ele><time>2026-03-28T09:47:24.021Z</time></trkpt><trkpt lat="40.387665" lon="15.255235"><ele>337.8</ele><time>2026-03-28T09:47:25.021Z</time></trkpt><trkpt lat="40.3876983" lon="15.2553817"><ele>338.6</ele><time>2026-03-28T09:47:26.021Z</time></trkpt><trkpt lat="40.3877317" lon="15.2555133"><ele>339.40000000000003</ele><time>2026-03-28T09:47:27.021Z</time></trkpt><trkpt lat="40.3877567" lon="15.25564"><ele>340.20000000000005</ele><time>2026-03-28T09:47:28.022Z</time></trkpt><trkpt lat="40.3877767" lon="15.255755"><ele>341.0</ele><time>2026-03-28T09:47:29.021Z</time></trkpt><trkpt lat="40.38779" lon="15.2558617"><ele>341.6666666666667</ele><time>2026-03-28T09:47:30.021Z</time></trkpt><trkpt lat="40.3878067" lon="15.25597"><ele>342.33333333333337</ele><time>2026-03-28T09:47:31.021Z</time></trkpt><trkpt lat="40.3878233" lon="15.256075"><ele>343.0</ele><time>2026-03-28T09:47:32.021Z</time></trkpt><trkpt lat="40.3878467" lon="15.2561583"><ele>343.6666666666667</ele><time>2026-03-28T09:47:33.022Z</time></trkpt><trkpt lat="40.3878917" lon="15.2562783"><ele>344.3333333333333</ele><time>2026-03-28T09:47:35.022Z</time></trkpt><trkpt lat="40.3878167" lon="15.2563233"><ele>345.0</ele><time>2026-03-28T09:47:38.022Z</time></trkpt><trkpt lat="40.387725" lon="15.2562367"><ele>345.0</ele><time>2026-03-28T09:47:40.021Z</time></trkpt><trkpt lat="40.38762" lon="15.2561633"><ele>345.0</ele><time>2026-03-28T09:47:42.022Z</time></trkpt><trkpt lat="40.387505" lon="15.2561117"><ele>345.0</ele><time>2026-03-28T09:47:44.021Z</time></trkpt><trkpt lat="40.3874467" lon="15.2560767"><ele>345.0</ele><time>2026-03-28T09:47:45.022Z</time></trkpt><trkpt lat="40.3873833" lon="15.2560267"><ele>345.0</ele><time>2026-03-28T09:47:46.022Z</time></trkpt><trkpt lat="40.3873217" lon="15.2559717"><ele>345.0</ele><time>2026-03-28T09:47:47.021Z</time></trkpt><trkpt lat="40.3872717" lon="15.255915"><ele>345.0</ele><time>2026-03-28T09:47:48.021Z</time></trkpt><trkpt lat="40.38722" lon="15.2558533"><ele>345.0</ele><time>2026-03-28T09:47:49.022Z</time></trkpt><trkpt lat="40.387135" lon="15.2557717"><ele>345.0</ele><time>2026-03-28T09:47:51.022Z</time></trkpt><trkpt lat="40.3870617" lon="15.2557583"><ele>345.0</ele><time>2026-03-28T09:47:53.022Z</time></trkpt><trkpt lat="40.38698" lon="15.2558517"><ele>345.0</ele><time>2026-03-28T09:47:55.022Z</time></trkpt><trkpt lat="40.38692" lon="15.2559267"><ele>342.0</ele><time>2026-03-28T09:47:56.022Z</time></trkpt><trkpt lat="40.38685" lon="15.2560133"><ele>339.0</ele><time>2026-03-28T09:47:57.022Z</time></trkpt><trkpt lat="40.3867733" lon="15.256105"><ele>336.0</ele><time>2026-03-28T09:47:58.021Z</time></trkpt><trkpt lat="40.3867" lon="15.2561967"><ele>333.0</ele><time>2026-03-28T09:47:59.021Z</time></trkpt><trkpt lat="40.38663" lon="15.256285"><ele>330.0</ele><time>2026-03-28T09:48:00.022Z</time></trkpt><trkpt lat="40.386555" lon="15.256375"><ele>329.2</ele><time>2026-03-28T09:48:01.022Z</time></trkpt><trkpt lat="40.3864833" lon="15.2564633"><ele>328.4</ele><time>2026-03-28T09:48:02.021Z</time></trkpt><trkpt lat="40.3864133" lon="15.2565483"><ele>327.6</ele><time>2026-03-28T09:48:03.021Z</time></trkpt><trkpt lat="40.3863517" lon="15.2566383"><ele>326.8</ele><time>2026-03-28T09:48:04.021Z</time></trkpt><trkpt lat="40.3862933" lon="15.2567267"><ele>326.0</ele><time>2026-03-28T09:48:05.021Z</time></trkpt><trkpt lat="40.3862417" lon="15.2568167"><ele>323.33333333333337</ele><time>2026-03-28T09:48:06.021Z</time></trkpt><trkpt lat="40.38619" lon="15.2569"><ele>320.6666666666667</ele><time>2026-03-28T09:48:07.022Z</time></trkpt><trkpt lat="40.38615" lon="15.2569967"><ele>318.0</ele><time>2026-03-28T09:48:08.022Z</time></trkpt><trkpt lat="40.3861183" lon="15.257095"><ele>315.3333333333333</ele><time>2026-03-28T09:48:09.021Z</time></trkpt><trkpt lat="40.3860933" lon="15.2571967"><ele>312.66666666666663</ele><time>2026-03-28T09:48:10.021Z</time></trkpt><trkpt lat="40.3860683" lon="15.2573083"><ele>310.0</ele><time>2026-03-28T09:48:11.021Z</time></trkpt><trkpt lat="40.3860467" lon="15.2574367"><ele>309.6</ele><time>2026-03-28T09:48:12.021Z</time></trkpt><trkpt lat="40.3860283" lon="15.2575567"><ele>309.2</ele><time>2026-03-28T09:48:13.022Z</time></trkpt><trkpt lat="40.3860083" lon="15.2576817"><ele>308.8</ele><time>2026-03-28T09:48:14.021Z</time></trkpt><trkpt lat="40.3859683" lon="15.2578017"><ele>308.4</ele><time>2026-03-28T09:48:15.021Z</time></trkpt><trkpt lat="40.3859283" lon="15.2579217"><ele>308.0</ele><time>2026-03-28T09:48:16.022Z</time></trkpt><trkpt lat="40.3859" lon="15.2580167"><ele>308.0</ele><time>2026-03-28T09:48:17.021Z</time></trkpt><trkpt lat="40.3858883" lon="15.2581133"><ele>308.0</ele><time>2026-03-28T09:48:18.021Z</time></trkpt><trkpt lat="40.38589" lon="15.2582133"><ele>308.0</ele><time>2026-03-28T09:48:19.022Z</time></trkpt><trkpt lat="40.3859017" lon="15.2583267"><ele>308.0</ele><time>2026-03-28T09:48:20.022Z</time></trkpt><trkpt lat="40.3859183" lon="15.2584633"><ele>308.0</ele><time>2026-03-28T09:48:21.021Z</time></trkpt><trkpt lat="40.3859317" lon="15.2586067"><ele>308.0</ele><time>2026-03-28T09:48:22.021Z</time></trkpt><trkpt lat="40.38594" lon="15.2587483"><ele>308.0</ele><time>2026-03-28T09:48:23.022Z</time></trkpt><trkpt lat="40.38594" lon="15.258875"><ele>308.0</ele><time>2026-03-28T09:48:24.021Z</time></trkpt><trkpt lat="40.3859333" lon="15.2590033"><ele>308.0</ele><time>2026-03-28T09:48:25.021Z</time></trkpt><trkpt lat="40.3859167" lon="15.25914"><ele>308.0</ele><time>2026-03-28T09:48:26.021Z</time></trkpt><trkpt lat="40.38589" lon="15.2592817"><ele>308.0</ele><time>2026-03-28T09:48:27.021Z</time></trkpt><trkpt lat="40.3858667" lon="15.2594133"><ele>308.0</ele><time>2026-03-28T09:48:28.021Z</time></trkpt><trkpt lat="40.3858433" lon="15.25953"><ele>308.0</ele><time>2026-03-28T09:48:29.022Z</time></trkpt><trkpt lat="40.3858283" lon="15.2596317"><ele>308.0</ele><time>2026-03-28T09:48:30.021Z</time></trkpt><trkpt lat="40.385815" lon="15.25973"><ele>308.0</ele><time>2026-03-28T09:48:31.021Z</time></trkpt><trkpt lat="40.3858083" lon="15.2598183"><ele>308.0</ele><time>2026-03-28T09:48:32.022Z</time></trkpt><trkpt lat="40.3858067" lon="15.2599733"><ele>308.2857142857143</ele><time>2026-03-28T09:48:34.021Z</time></trkpt><trkpt lat="40.3858183" lon="15.260055"><ele>308.57142857142856</ele><time>2026-03-28T09:48:35.022Z</time></trkpt><trkpt lat="40.3858467" lon="15.2601367"><ele>308.8571428571429</ele><time>2026-03-28T09:48:36.021Z</time></trkpt><trkpt lat="40.3858833" lon="15.2602233"><ele>309.1428571428571</ele><time>2026-03-28T09:48:37.022Z</time></trkpt><trkpt lat="40.3859067" lon="15.2603133"><ele>309.42857142857144</ele><time>2026-03-28T09:48:38.022Z</time></trkpt><trkpt lat="40.3859233" lon="15.2604017"><ele>309.7142857142857</ele><time>2026-03-28T09:48:39.022Z</time></trkpt><trkpt lat="40.385935" lon="15.2604917"><ele>310.0</ele><time>2026-03-28T09:48:40.021Z</time></trkpt><trkpt lat="40.3859317" lon="15.26058"><ele>310.16666666666663</ele><time>2026-03-28T09:48:41.021Z</time></trkpt><trkpt lat="40.3859133" lon="15.2606667"><ele>310.3333333333333</ele><time>2026-03-28T09:48:42.022Z</time></trkpt><trkpt lat="40.3858817" lon="15.260755"><ele>310.5</ele><time>2026-03-28T09:48:43.021Z</time></trkpt><trkpt lat="40.3858417" lon="15.2608483"><ele>310.6666666666667</ele><time>2026-03-28T09:48:44.021Z</time></trkpt><trkpt lat="40.3857933" lon="15.2609417"><ele>310.83333333333337</ele><time>2026-03-28T09:48:45.021Z</time></trkpt><trkpt lat="40.3857367" lon="15.2610267"><ele>311.0</ele><time>2026-03-28T09:48:46.021Z</time></trkpt><trkpt lat="40.38567" lon="15.2610883"><ele>311.0</ele><time>2026-03-28T09:48:47.021Z</time></trkpt><trkpt lat="40.3856017" lon="15.2611317"><ele>311.0</ele><time>2026-03-28T09:48:48.022Z</time></trkpt><trkpt lat="40.3855317" lon="15.261165"><ele>311.0</ele><time>2026-03-28T09:48:49.021Z</time></trkpt><trkpt lat="40.38545" lon="15.2611717"><ele>311.0</ele><time>2026-03-28T09:48:50.022Z</time></trkpt><trkpt lat="40.3853767" lon="15.2611683"><ele>311.0</ele><time>2026-03-28T09:48:51.021Z</time></trkpt><trkpt lat="40.38531" lon="15.2611517"><ele>311.0</ele><time>2026-03-28T09:48:52.022Z</time></trkpt><trkpt lat="40.3852417" lon="15.2611283"><ele>311.0</ele><time>2026-03-28T09:48:53.022Z</time></trkpt><trkpt lat="40.3851633" lon="15.2610867"><ele>310.33333333333337</ele><time>2026-03-28T09:48:54.022Z</time></trkpt><trkpt lat="40.3850817" lon="15.261055"><ele>309.6666666666667</ele><time>2026-03-28T09:48:55.021Z</time></trkpt><trkpt lat="40.384995" lon="15.261035"><ele>309.0</ele><time>2026-03-28T09:48:56.021Z</time></trkpt><trkpt lat="40.3849117" lon="15.261025"><ele>308.3333333333333</ele><time>2026-03-28T09:48:57.022Z</time></trkpt><trkpt lat="40.3848367" lon="15.261045"><ele>307.66666666666663</ele><time>2026-03-28T09:48:58.022Z</time></trkpt><trkpt lat="40.3847533" lon="15.2610817"><ele>307.0</ele><time>2026-03-28T09:48:59.022Z</time></trkpt><trkpt lat="40.3846583" lon="15.26113"><ele>307.0</ele><time>2026-03-28T09:49:00.021Z</time></trkpt><trkpt lat="40.3845667" lon="15.2611683"><ele>307.0</ele><time>2026-03-28T09:49:01.022Z</time></trkpt><trkpt lat="40.3844733" lon="15.2611883"><ele>307.0</ele><time>2026-03-28T09:49:02.022Z</time></trkpt><trkpt lat="40.3843683" lon="15.2611933"><ele>307.0</ele><time>2026-03-28T09:49:03.022Z</time></trkpt><trkpt lat="40.38426" lon="15.261195"><ele>307.0</ele><time>2026-03-28T09:49:04.021Z</time></trkpt><trkpt lat="40.3841583" lon="15.2611867"><ele>307.0</ele><time>2026-03-28T09:49:05.022Z</time></trkpt><trkpt lat="40.38407" lon="15.2611933"><ele>307.0</ele><time>2026-03-28T09:49:06.021Z</time></trkpt><trkpt lat="40.383995" lon="15.261225"><ele>307.0</ele><time>2026-03-28T09:49:07.021Z</time></trkpt><trkpt lat="40.38392" lon="15.2612633"><ele>307.0</ele><time>2026-03-28T09:49:08.021Z</time></trkpt><trkpt lat="40.383845" lon="15.2613267"><ele>307.0</ele><time>2026-03-28T09:49:09.022Z</time></trkpt><trkpt lat="40.3837667" lon="15.26141"><ele>307.0</ele><time>2026-03-28T09:49:10.022Z</time></trkpt><trkpt lat="40.38368" lon="15.2614933"><ele>309.8</ele><time>2026-03-28T09:49:11.021Z</time></trkpt><trkpt lat="40.3835883" lon="15.2615417"><ele>312.6</ele><time>2026-03-28T09:49:12.022Z</time></trkpt><trkpt lat="40.383495" lon="15.261575"><ele>315.40000000000003</ele><time>2026-03-28T09:49:13.021Z</time></trkpt><trkpt lat="40.383405" lon="15.2615933"><ele>318.2</ele><time>2026-03-28T09:49:14.022Z</time></trkpt><trkpt lat="40.383335" lon="15.261615"><ele>321.0</ele><time>2026-03-28T09:49:15.021Z</time></trkpt><trkpt lat="40.3832283" lon="15.2616733"><ele>321.0</ele><time>2026-03-28T09:49:17.021Z</time></trkpt><trkpt lat="40.383145" lon="15.2617733"><ele>321.0</ele><time>2026-03-28T09:49:19.021Z</time></trkpt><trkpt lat="40.3830967" lon="15.2619067"><ele>321.0</ele><time>2026-03-28T09:49:21.021Z</time></trkpt><trkpt lat="40.3830933" lon="15.2620017"><ele>321.0</ele><time>2026-03-28T09:49:23.021Z</time></trkpt><trkpt lat="40.3831433" lon="15.262075"><ele>321.0</ele><time>2026-03-28T09:49:25.021Z</time></trkpt><trkpt lat="40.3832633" lon="15.262145"><ele>321.0</ele><time>2026-03-28T09:49:27.021Z</time></trkpt><trkpt lat="40.383345" lon="15.26218"><ele>321.0</ele><time>2026-03-28T09:49:28.021Z</time></trkpt><trkpt lat="40.383435" lon="15.2622117"><ele>321.0</ele><time>2026-03-28T09:49:29.021Z</time></trkpt><trkpt lat="40.3835233" lon="15.2622433"><ele>321.0</ele><time>2026-03-28T09:49:30.021Z</time></trkpt><trkpt lat="40.383605" lon="15.2623083"><ele>321.0</ele><time>2026-03-28T09:49:31.021Z</time></trkpt><trkpt lat="40.383665" lon="15.2624017"><ele>322.5</ele><time>2026-03-28T09:49:32.021Z</time></trkpt><trkpt lat="40.3837283" lon="15.262525"><ele>324.0</ele><time>2026-03-28T09:49:33.021Z</time></trkpt><trkpt lat="40.38379" lon="15.2626683"><ele>325.5</ele><time>2026-03-28T09:49:34.021Z</time></trkpt><trkpt lat="40.3838583" lon="15.26282"><ele>327.0</ele><time>2026-03-28T09:49:35.022Z</time></trkpt><trkpt lat="40.3839317" lon="15.2629767"><ele>331.0</ele><time>2026-03-28T09:49:36.022Z</time></trkpt><trkpt lat="40.3840067" lon="15.2631433"><ele>335.0</ele><time>2026-03-28T09:49:37.021Z</time></trkpt><trkpt lat="40.3840767" lon="15.2633067"><ele>339.0</ele><time>2026-03-28T09:49:38.022Z</time></trkpt><trkpt lat="40.3841517" lon="15.2634417"><ele>343.0</ele><time>2026-03-28T09:49:39.022Z</time></trkpt><trkpt lat="40.384225" lon="15.2635767"><ele>343.0</ele><time>2026-03-28T09:49:40.022Z</time></trkpt><trkpt lat="40.3843167" lon="15.2636817"><ele>343.0</ele><time>2026-03-28T09:49:41.022Z</time></trkpt><trkpt lat="40.3844333" lon="15.2637717"><ele>343.0</ele><time>2026-03-28T09:49:42.021Z</time></trkpt><trkpt lat="40.384555" lon="15.2638567"><ele>343.0</ele><time>2026-03-28T09:49:43.021Z</time></trkpt><trkpt lat="40.3846633" lon="15.26393"><ele>345.4</ele><time>2026-03-28T09:49:44.021Z</time></trkpt><trkpt lat="40.3847483" lon="15.2639917"><ele>347.79999999999995</ele><time>2026-03-28T09:49:45.021Z</time></trkpt><trkpt lat="40.3847983" lon="15.2640617"><ele>350.2</ele><time>2026-03-28T09:49:46.022Z</time></trkpt><trkpt lat="40.3847967" lon="15.2642"><ele>352.6</ele><time>2026-03-28T09:49:48.022Z</time></trkpt><trkpt lat="40.3847117" lon="15.2642317"><ele>355.0</ele><time>2026-03-28T09:49:49.022Z</time></trkpt><trkpt lat="40.384615" lon="15.26425"><ele>355.0</ele><time>2026-03-28T09:49:50.021Z</time></trkpt><trkpt lat="40.384505" lon="15.2642683"><ele>355.0</ele><time>2026-03-28T09:49:51.022Z</time></trkpt><trkpt lat="40.3844033" lon="15.2642917"><ele>355.0</ele><time>2026-03-28T09:49:52.021Z</time></trkpt><trkpt lat="40.38433" lon="15.2643317"><ele>355.0</ele><time>2026-03-28T09:49:53.022Z</time></trkpt><trkpt lat="40.38428" lon="15.2644717"><ele>355.0</ele><time>2026-03-28T09:49:55.022Z</time></trkpt><trkpt lat="40.3843267" lon="15.264575"><ele>355.0</ele><time>2026-03-28T09:49:56.021Z</time></trkpt><trkpt lat="40.3844017" lon="15.2646917"><ele>355.0</ele><time>2026-03-28T09:49:57.021Z</time></trkpt><trkpt lat="40.3844783" lon="15.26483"><ele>355.0</ele><time>2026-03-28T09:49:58.021Z</time></trkpt><trkpt lat="40.384545" lon="15.2649933"><ele>355.0</ele><time>2026-03-28T09:49:59.022Z</time></trkpt><trkpt lat="40.384605" lon="15.2651683"><ele>356.66666666666663</ele><time>2026-03-28T09:50:00.021Z</time></trkpt><trkpt lat="40.3846683" lon="15.2653583"><ele>358.3333333333333</ele><time>2026-03-28T09:50:01.021Z</time></trkpt><trkpt lat="40.38475" lon="15.2655583"><ele>360.0</ele><time>2026-03-28T09:50:02.021Z</time></trkpt><trkpt lat="40.38484" lon="15.2657533"><ele>363.5</ele><time>2026-03-28T09:50:03.022Z</time></trkpt><trkpt lat="40.3849067" lon="15.2659217"><ele>367.0</ele><time>2026-03-28T09:50:04.021Z</time></trkpt><trkpt lat="40.3849667" lon="15.2660817"><ele>370.5</ele><time>2026-03-28T09:50:05.022Z</time></trkpt><trkpt lat="40.3850017" lon="15.2662267"><ele>374.0</ele><time>2026-03-28T09:50:06.022Z</time></trkpt><trkpt lat="40.3850067" lon="15.26637"><ele>375.25</ele><time>2026-03-28T09:50:07.021Z</time></trkpt><trkpt lat="40.384985" lon="15.266535"><ele>376.5</ele><time>2026-03-28T09:50:08.021Z</time></trkpt><trkpt lat="40.3849467" lon="15.2666967"><ele>377.75</ele><time>2026-03-28T09:50:09.021Z</time></trkpt><trkpt lat="40.3849033" lon="15.266845"><ele>379.0</ele><time>2026-03-28T09:50:10.022Z</time></trkpt><trkpt lat="40.3848767" lon="15.2670017"><ele>379.0</ele><time>2026-03-28T09:50:11.021Z</time></trkpt><trkpt lat="40.3848617" lon="15.2671767"><ele>379.0</ele><time>2026-03-28T09:50:12.022Z</time></trkpt><trkpt lat="40.3848533" lon="15.2673567"><ele>379.0</ele><time>2026-03-28T09:50:13.022Z</time></trkpt><trkpt lat="40.384845" lon="15.26754"><ele>379.0</ele><time>2026-03-28T09:50:14.021Z</time></trkpt><trkpt lat="40.3848317" lon="15.26771"><ele>379.6</ele><time>2026-03-28T09:50:15.021Z</time></trkpt><trkpt lat="40.3848117" lon="15.2678517"><ele>380.2</ele><time>2026-03-28T09:50:16.022Z</time></trkpt><trkpt lat="40.384775" lon="15.26797"><ele>380.8</ele><time>2026-03-28T09:50:17.021Z</time></trkpt><trkpt lat="40.3847233" lon="15.26807"><ele>381.40000000000003</ele><time>2026-03-28T09:50:18.021Z</time></trkpt><trkpt lat="40.384645" lon="15.26814"><ele>382.0</ele><time>2026-03-28T09:50:19.021Z</time></trkpt><trkpt lat="40.3845483" lon="15.2682133"><ele>379.5</ele><time>2026-03-28T09:50:20.022Z</time></trkpt><trkpt lat="40.384435" lon="15.268285"><ele>377.0</ele><time>2026-03-28T09:50:21.021Z</time></trkpt><trkpt lat="40.3843267" lon="15.2683567"><ele>374.5</ele><time>2026-03-28T09:50:22.021Z</time></trkpt><trkpt lat="40.384225" lon="15.26842"><ele>372.0</ele><time>2026-03-28T09:50:23.022Z</time></trkpt><trkpt lat="40.384135" lon="15.26848"><ele>372.0</ele><time>2026-03-28T09:50:24.021Z</time></trkpt><trkpt lat="40.384045" lon="15.2685567"><ele>372.0</ele><time>2026-03-28T09:50:25.021Z</time></trkpt><trkpt lat="40.3839783" lon="15.2686533"><ele>372.0</ele><time>2026-03-28T09:50:26.021Z</time></trkpt><trkpt lat="40.38393" lon="15.2687533"><ele>372.0</ele><time>2026-03-28T09:50:27.022Z</time></trkpt><trkpt lat="40.3839183" lon="15.268855"><ele>372.0</ele><time>2026-03-28T09:50:28.021Z</time></trkpt><trkpt lat="40.3839483" lon="15.268955"><ele>373.0</ele><time>2026-03-28T09:50:29.021Z</time></trkpt><trkpt lat="40.3840033" lon="15.2690433"><ele>374.0</ele><time>2026-03-28T09:50:30.021Z</time></trkpt><trkpt lat="40.3840833" lon="15.2691283"><ele>375.0</ele><time>2026-03-28T09:50:31.021Z</time></trkpt><trkpt lat="40.3841467" lon="15.269215"><ele>376.0</ele><time>2026-03-28T09:50:32.021Z</time></trkpt><trkpt lat="40.3841833" lon="15.2693183"><ele>377.0</ele><time>2026-03-28T09:50:33.021Z</time></trkpt><trkpt lat="40.3841983" lon="15.2694367"><ele>377.0</ele><time>2026-03-28T09:50:34.021Z</time></trkpt><trkpt lat="40.3841817" lon="15.2695983"><ele>377.0</ele><time>2026-03-28T09:50:35.021Z</time></trkpt><trkpt lat="40.384165" lon="15.2697833"><ele>377.0</ele><time>2026-03-28T09:50:36.021Z</time></trkpt><trkpt lat="40.38416" lon="15.269975"><ele>377.0</ele><time>2026-03-28T09:50:37.021Z</time></trkpt><trkpt lat="40.384175" lon="15.2701617"><ele>378.40000000000003</ele><time>2026-03-28T09:50:38.021Z</time></trkpt><trkpt lat="40.38419" lon="15.2703483"><ele>379.8</ele><time>2026-03-28T09:50:39.021Z</time></trkpt><trkpt lat="40.3841917" lon="15.2705"><ele>381.2</ele><time>2026-03-28T09:50:40.021Z</time></trkpt><trkpt lat="40.3842" lon="15.27061"><ele>382.6</ele><time>2026-03-28T09:50:41.022Z</time></trkpt><trkpt lat="40.3842333" lon="15.2706817"><ele>384.0</ele><time>2026-03-28T09:50:42.021Z</time></trkpt><trkpt lat="40.384295" lon="15.2707067"><ele>384.0</ele><time>2026-03-28T09:50:43.022Z</time></trkpt><trkpt lat="40.3843617" lon="15.2706867"><ele>384.0</ele><time>2026-03-28T09:50:44.021Z</time></trkpt><trkpt lat="40.384425" lon="15.2706267"><ele>384.0</ele><time>2026-03-28T09:50:45.021Z</time></trkpt><trkpt lat="40.3844867" lon="15.2705233"><ele>384.0</ele><time>2026-03-28T09:50:46.021Z</time></trkpt><trkpt lat="40.3845533" lon="15.2703883"><ele>384.0</ele><time>2026-03-28T09:50:47.021Z</time></trkpt><trkpt lat="40.3846283" lon="15.2702467"><ele>387.25</ele><time>2026-03-28T09:50:48.022Z</time></trkpt><trkpt lat="40.3847067" lon="15.270115"><ele>390.5</ele><time>2026-03-28T09:50:49.022Z</time></trkpt><trkpt lat="40.3847917" lon="15.2699867"><ele>393.75</ele><time>2026-03-28T09:50:50.021Z</time></trkpt><trkpt lat="40.384895" lon="15.26985"><ele>397.0</ele><time>2026-03-28T09:50:51.021Z</time></trkpt><trkpt lat="40.3850217" lon="15.2696883"><ele>397.0</ele><time>2026-03-28T09:50:52.021Z</time></trkpt><trkpt lat="40.3851483" lon="15.2695183"><ele>397.0</ele><time>2026-03-28T09:50:53.022Z</time></trkpt><trkpt lat="40.38527" lon="15.2693817"><ele>397.0</ele><time>2026-03-28T09:50:54.022Z</time></trkpt><trkpt lat="40.3853683" lon="15.2692667"><ele>397.0</ele><time>2026-03-28T09:50:55.021Z</time></trkpt><trkpt lat="40.3854467" lon="15.2691533"><ele>397.0</ele><time>2026-03-28T09:50:56.021Z</time></trkpt><trkpt lat="40.3855017" lon="15.2690417"><ele>397.0</ele><time>2026-03-28T09:50:57.021Z</time></trkpt><trkpt lat="40.3855417" lon="15.26895"><ele>397.0</ele><time>2026-03-28T09:50:58.022Z</time></trkpt><trkpt lat="40.3856133" lon="15.2688667"><ele>397.0</ele><time>2026-03-28T09:51:00.021Z</time></trkpt><trkpt lat="40.3856533" lon="15.2689933"><ele>402.5</ele><time>2026-03-28T09:51:02.022Z</time></trkpt><trkpt lat="40.3856517" lon="15.2690783"><ele>408.0</ele><time>2026-03-28T09:51:03.021Z</time></trkpt><trkpt lat="40.3856533" lon="15.2692033"><ele>413.5</ele><time>2026-03-28T09:51:04.022Z</time></trkpt><trkpt lat="40.38565" lon="15.2693833"><ele>419.0</ele><time>2026-03-28T09:51:05.021Z</time></trkpt><trkpt lat="40.385655" lon="15.269635"><ele>421.0</ele><time>2026-03-28T09:51:06.022Z</time></trkpt><trkpt lat="40.3856567" lon="15.2698783"><ele>423.0</ele><time>2026-03-28T09:51:07.022Z</time></trkpt><trkpt lat="40.3856533" lon="15.2700917"><ele>425.0</ele><time>2026-03-28T09:51:08.021Z</time></trkpt><trkpt lat="40.3856367" lon="15.270305"><ele>425.0</ele><time>2026-03-28T09:51:09.021Z</time></trkpt><trkpt lat="40.3856067" lon="15.2705083"><ele>425.0</ele><time>2026-03-28T09:51:10.021Z</time></trkpt><trkpt lat="40.3855767" lon="15.2706933"><ele>425.0</ele><time>2026-03-28T09:51:11.022Z</time></trkpt><trkpt lat="40.3855567" lon="15.27085"><ele>425.0</ele><time>2026-03-28T09:51:12.021Z</time></trkpt><trkpt lat="40.3855633" lon="15.2710067"><ele>425.5</ele><time>2026-03-28T09:51:13.022Z</time></trkpt><trkpt lat="40.3855867" lon="15.2711583"><ele>426.0</ele><time>2026-03-28T09:51:14.022Z</time></trkpt><trkpt lat="40.3856133" lon="15.27133"><ele>426.5</ele><time>2026-03-28T09:51:15.022Z</time></trkpt><trkpt lat="40.385625" lon="15.271515"><ele>427.0</ele><time>2026-03-28T09:51:16.022Z</time></trkpt><trkpt lat="40.3856167" lon="15.271705"><ele>428.5</ele><time>2026-03-28T09:51:17.021Z</time></trkpt><trkpt lat="40.3855933" lon="15.27188"><ele>430.0</ele><time>2026-03-28T09:51:18.021Z</time></trkpt><trkpt lat="40.3855517" lon="15.2720517"><ele>431.5</ele><time>2026-03-28T09:51:19.021Z</time></trkpt><trkpt lat="40.3855183" lon="15.2722183"><ele>433.0</ele><time>2026-03-28T09:51:20.021Z</time></trkpt><trkpt lat="40.3854983" lon="15.2723867"><ele>427.33333333333337</ele><time>2026-03-28T09:51:21.021Z</time></trkpt><trkpt lat="40.385495" lon="15.2725733"><ele>421.66666666666663</ele><time>2026-03-28T09:51:22.022Z</time></trkpt><trkpt lat="40.385495" lon="15.27278"><ele>416.0</ele><time>2026-03-28T09:51:23.022Z</time></trkpt><trkpt lat="40.3854833" lon="15.2729817"><ele>417.5</ele><time>2026-03-28T09:51:24.021Z</time></trkpt><trkpt lat="40.3854567" lon="15.2731767"><ele>419.0</ele><time>2026-03-28T09:51:25.022Z</time></trkpt><trkpt lat="40.3854333" lon="15.2733633"><ele>420.5</ele><time>2026-03-28T09:51:26.022Z</time></trkpt><trkpt lat="40.3854083" lon="15.27353"><ele>422.0</ele><time>2026-03-28T09:51:27.021Z</time></trkpt><trkpt lat="40.3853767" lon="15.2736733"><ele>422.0</ele><time>2026-03-28T09:51:28.021Z</time></trkpt><trkpt lat="40.3853233" lon="15.27381"><ele>422.0</ele><time>2026-03-28T09:51:29.021Z</time></trkpt><trkpt lat="40.3852533" lon="15.2739433"><ele>422.0</ele><time>2026-03-28T09:51:30.021Z</time></trkpt><trkpt lat="40.3851733" lon="15.2740783"><ele>422.0</ele><time>2026-03-28T09:51:31.021Z</time></trkpt><trkpt lat="40.3850817" lon="15.2742217"><ele>424.75</ele><time>2026-03-28T09:51:32.021Z</time></trkpt><trkpt lat="40.38499" lon="15.2743633"><ele>427.5</ele><time>2026-03-28T09:51:33.022Z</time></trkpt><trkpt lat="40.3849017" lon="15.2744933"><ele>430.25</ele><time>2026-03-28T09:51:34.021Z</time></trkpt><trkpt lat="40.38482" lon="15.2746133"><ele>433.0</ele><time>2026-03-28T09:51:35.021Z</time></trkpt><trkpt lat="40.3847433" lon="15.2747517"><ele>432.25</ele><time>2026-03-28T09:51:36.021Z</time></trkpt><trkpt lat="40.3846717" lon="15.27491"><ele>431.5</ele><time>2026-03-28T09:51:37.022Z</time></trkpt><trkpt lat="40.3845983" lon="15.27508"><ele>430.75</ele><time>2026-03-28T09:51:38.022Z</time></trkpt><trkpt lat="40.38451" lon="15.2752417"><ele>430.0</ele><time>2026-03-28T09:51:39.021Z</time></trkpt><trkpt lat="40.3844117" lon="15.2753817"><ele>430.0</ele><time>2026-03-28T09:51:40.022Z</time></trkpt><trkpt lat="40.3843117" lon="15.2755233"><ele>430.0</ele><time>2026-03-28T09:51:41.022Z</time></trkpt><trkpt lat="40.3842167" lon="15.2756433"><ele>430.0</ele><time>2026-03-28T09:51:42.021Z</time></trkpt><trkpt lat="40.38412" lon="15.2757517"><ele>430.0</ele><time>2026-03-28T09:51:43.022Z</time></trkpt><trkpt lat="40.384025" lon="15.2758567"><ele>430.5</ele><time>2026-03-28T09:51:44.022Z</time></trkpt><trkpt lat="40.3839367" lon="15.2759733"><ele>431.0</ele><time>2026-03-28T09:51:45.021Z</time></trkpt><trkpt lat="40.3838483" lon="15.27609"><ele>431.5</ele><time>2026-03-28T09:51:46.021Z</time></trkpt><trkpt lat="40.3837683" lon="15.2762067"><ele>432.0</ele><time>2026-03-28T09:51:47.021Z</time></trkpt><trkpt lat="40.3836983" lon="15.2763217"><ele>432.0</ele><time>2026-03-28T09:51:48.021Z</time></trkpt><trkpt lat="40.3836467" lon="15.27643"><ele>432.00000000000006</ele><time>2026-03-28T09:51:49.021Z</time></trkpt><trkpt lat="40.3836067" lon="15.2765317"><ele>432.00000000000006</ele><time>2026-03-28T09:51:50.021Z</time></trkpt><trkpt lat="40.383575" lon="15.2766067"><ele>432.0</ele><time>2026-03-28T09:51:51.021Z</time></trkpt><trkpt lat="40.383505" lon="15.276745"><ele>432.0</ele><time>2026-03-28T09:51:53.022Z</time></trkpt><trkpt lat="40.3834383" lon="15.2768183"><ele>433.75</ele><time>2026-03-28T09:51:54.022Z</time></trkpt><trkpt lat="40.3833483" lon="15.2768917"><ele>435.5</ele><time>2026-03-28T09:51:55.021Z</time></trkpt><trkpt lat="40.3832483" lon="15.2769833"><ele>437.25</ele><time>2026-03-28T09:51:56.021Z</time></trkpt><trkpt lat="40.3831417" lon="15.27707"><ele>439.0</ele><time>2026-03-28T09:51:57.022Z</time></trkpt><trkpt lat="40.3830383" lon="15.2771467"><ele>438.0</ele><time>2026-03-28T09:51:58.021Z</time></trkpt><trkpt lat="40.3829317" lon="15.2772167"><ele>437.0</ele><time>2026-03-28T09:51:59.021Z</time></trkpt><trkpt lat="40.3828217" lon="15.27728"><ele>436.0</ele><time>2026-03-28T09:52:00.021Z</time></trkpt><trkpt lat="40.382705" lon="15.2773483"><ele>435.0</ele><time>2026-03-28T09:52:01.021Z</time></trkpt><trkpt lat="40.3825833" lon="15.2774083"><ele>437.6</ele><time>2026-03-28T09:52:02.021Z</time></trkpt><trkpt lat="40.3824667" lon="15.2774517"><ele>440.2</ele><time>2026-03-28T09:52:03.021Z</time></trkpt><trkpt lat="40.3823617" lon="15.27749"><ele>442.79999999999995</ele><time>2026-03-28T09:52:04.022Z</time></trkpt><trkpt lat="40.3822733" lon="15.27752"><ele>445.4</ele><time>2026-03-28T09:52:05.021Z</time></trkpt><trkpt lat="40.3821933" lon="15.2775617"><ele>448.0</ele><time>2026-03-28T09:52:06.022Z</time></trkpt><trkpt lat="40.382115" lon="15.2776183"><ele>448.2</ele><time>2026-03-28T09:52:07.021Z</time></trkpt><trkpt lat="40.382035" lon="15.2776933"><ele>448.4</ele><time>2026-03-28T09:52:08.022Z</time></trkpt><trkpt lat="40.3819383" lon="15.277775"><ele>448.59999999999997</ele><time>2026-03-28T09:52:09.021Z</time></trkpt><trkpt lat="40.3818317" lon="15.2778367"><ele>448.79999999999995</ele><time>2026-03-28T09:52:10.021Z</time></trkpt><trkpt lat="40.3817317" lon="15.277895"><ele>449.0</ele><time>2026-03-28T09:52:11.021Z</time></trkpt><trkpt lat="40.3816467" lon="15.277945"><ele>449.0</ele><time>2026-03-28T09:52:12.022Z</time></trkpt><trkpt lat="40.38157" lon="15.2780117"><ele>449.0</ele><time>2026-03-28T09:52:13.021Z</time></trkpt><trkpt lat="40.3814933" lon="15.278095"><ele>449.0</ele><time>2026-03-28T09:52:14.021Z</time></trkpt><trkpt lat="40.3814167" lon="15.2782033"><ele>449.0</ele><time>2026-03-28T09:52:15.021Z</time></trkpt><trkpt lat="40.3813283" lon="15.2783317"><ele>449.0</ele><time>2026-03-28T09:52:16.022Z</time></trkpt><trkpt lat="40.3812233" lon="15.2784783"><ele>448.3333333333333</ele><time>2026-03-28T09:52:17.021Z</time></trkpt><trkpt lat="40.381115" lon="15.2786367"><ele>447.66666666666663</ele><time>2026-03-28T09:52:18.021Z</time></trkpt><trkpt lat="40.3810117" lon="15.2788067"><ele>447.0</ele><time>2026-03-28T09:52:19.022Z</time></trkpt><trkpt lat="40.3809083" lon="15.2789883"><ele>449.33333333333337</ele><time>2026-03-28T09:52:20.021Z</time></trkpt><trkpt lat="40.3808133" lon="15.279165"><ele>451.6666666666667</ele><time>2026-03-28T09:52:21.021Z</time></trkpt><trkpt lat="40.3807083" lon="15.279335"><ele>454.0</ele><time>2026-03-28T09:52:22.022Z</time></trkpt><trkpt lat="40.3806033" lon="15.2794917"><ele>454.0</ele><time>2026-03-28T09:52:23.021Z</time></trkpt><trkpt lat="40.3805067" lon="15.2796333"><ele>454.0</ele><time>2026-03-28T09:52:24.022Z</time></trkpt><trkpt lat="40.3804133" lon="15.2797517"><ele>454.0</ele><time>2026-03-28T09:52:25.021Z</time></trkpt><trkpt lat="40.3803383" lon="15.2798583"><ele>454.0</ele><time>2026-03-28T09:52:26.022Z</time></trkpt><trkpt lat="40.3802817" lon="15.279955"><ele>456.0</ele><time>2026-03-28T09:52:27.022Z</time></trkpt><trkpt lat="40.3802533" lon="15.28005"><ele>458.0</ele><time>2026-03-28T09:52:28.021Z</time></trkpt><trkpt lat="40.3802533" lon="15.2801467"><ele>460.0</ele><time>2026-03-28T09:52:29.021Z</time></trkpt><trkpt lat="40.3802767" lon="15.2802583"><ele>462.0</ele><time>2026-03-28T09:52:30.021Z</time></trkpt><trkpt lat="40.3803183" lon="15.2803867"><ele>464.0</ele><time>2026-03-28T09:52:31.021Z</time></trkpt><trkpt lat="40.3803683" lon="15.2805283"><ele>464.6</ele><time>2026-03-28T09:52:32.021Z</time></trkpt><trkpt lat="40.38042" lon="15.28067"><ele>465.2</ele><time>2026-03-28T09:52:33.022Z</time></trkpt><trkpt lat="40.3804683" lon="15.2807933"><ele>465.80000000000007</ele><time>2026-03-28T09:52:34.022Z</time></trkpt><trkpt lat="40.380505" lon="15.28089"><ele>466.40000000000003</ele><time>2026-03-28T09:52:35.022Z</time></trkpt><trkpt lat="40.3805333" lon="15.28098"><ele>467.0</ele><time>2026-03-28T09:52:36.021Z</time></trkpt><trkpt lat="40.3805517" lon="15.2810683"><ele>464.0</ele><time>2026-03-28T09:52:37.022Z</time></trkpt><trkpt lat="40.3805667" lon="15.2811783"><ele>461.00000000000006</ele><time>2026-03-28T09:52:38.022Z</time></trkpt><trkpt lat="40.380585" lon="15.2813067"><ele>458.00000000000006</ele><time>2026-03-28T09:52:39.022Z</time></trkpt><trkpt lat="40.380605" lon="15.2814383"><ele>455.0</ele><time>2026-03-28T09:52:40.021Z</time></trkpt><trkpt lat="40.3806183" lon="15.2815567"><ele>452.0</ele><time>2026-03-28T09:52:41.021Z</time></trkpt><trkpt lat="40.3806283" lon="15.28165"><ele>451.3333333333333</ele><time>2026-03-28T09:52:42.021Z</time></trkpt><trkpt lat="40.38063" lon="15.281775"><ele>450.66666666666663</ele><time>2026-03-28T09:52:44.022Z</time></trkpt><trkpt lat="40.3806333" lon="15.2818633"><ele>450.0</ele><time>2026-03-28T09:52:47.022Z</time></trkpt><trkpt lat="40.3806517" lon="15.2817783"><ele>449.33333333333337</ele><time>2026-03-28T09:53:02.021Z</time></trkpt><trkpt lat="40.3806483" lon="15.2816933"><ele>448.6666666666667</ele><time>2026-03-28T09:53:03.021Z</time></trkpt><trkpt lat="40.3806383" lon="15.28159"><ele>448.0</ele><time>2026-03-28T09:53:04.021Z</time></trkpt><trkpt lat="40.380625" lon="15.28146"><ele>449.0</ele><time>2026-03-28T09:53:05.022Z</time></trkpt><trkpt lat="40.3806017" lon="15.2813"><ele>450.0</ele><time>2026-03-28T09:53:06.021Z</time></trkpt><trkpt lat="40.3805717" lon="15.2811483"><ele>451.0</ele><time>2026-03-28T09:53:07.021Z</time></trkpt><trkpt lat="40.38054" lon="15.2810183"><ele>452.0</ele><time>2026-03-28T09:53:08.021Z</time></trkpt><trkpt lat="40.3804983" lon="15.280895"><ele>455.0</ele><time>2026-03-28T09:53:09.021Z</time></trkpt><trkpt lat="40.3804483" lon="15.2807633"><ele>458.0</ele><time>2026-03-28T09:53:10.022Z</time></trkpt><trkpt lat="40.3803917" lon="15.2806033"><ele>461.0</ele><time>2026-03-28T09:53:11.021Z</time></trkpt><trkpt lat="40.3803367" lon="15.28044"><ele>464.0</ele><time>2026-03-28T09:53:12.021Z</time></trkpt><trkpt lat="40.3803033" lon="15.28031"><ele>463.99999999999994</ele><time>2026-03-28T09:53:13.022Z</time></trkpt><trkpt lat="40.3802833" lon="15.2802133"><ele>464.0</ele><time>2026-03-28T09:53:14.021Z</time></trkpt><trkpt lat="40.3802717" lon="15.28013"><ele>464.0</ele><time>2026-03-28T09:53:15.021Z</time></trkpt><trkpt lat="40.3802383" lon="15.280025"><ele>464.0</ele><time>2026-03-28T09:53:17.022Z</time></trkpt><trkpt lat="40.3801717" lon="15.27995"><ele>463.99999999999994</ele><time>2026-03-28T09:53:19.022Z</time></trkpt><trkpt lat="40.3800983" lon="15.2799133"><ele>464.0</ele><time>2026-03-28T09:53:21.021Z</time></trkpt><trkpt lat="40.38001" lon="15.2798617"><ele>463.99999999999994</ele><time>2026-03-28T09:53:31.021Z</time></trkpt><trkpt lat="40.3799483" lon="15.27982"><ele>464.0</ele><time>2026-03-28T09:53:33.021Z</time></trkpt><trkpt lat="40.379895" lon="15.2797667"><ele>464.0</ele><time>2026-03-28T09:53:35.022Z</time></trkpt><trkpt lat="40.3798417" lon="15.2796733"><ele>464.0</ele><time>2026-03-28T09:53:38.022Z</time></trkpt><trkpt lat="40.3797833" lon="15.2795717"><ele>463.99999999999994</ele><time>2026-03-28T09:54:48.021Z</time></trkpt><trkpt lat="40.37983" lon="15.27963"><ele>464.0</ele><time>2026-03-28T09:54:50.021Z</time></trkpt><trkpt lat="40.3799317" lon="15.2797567"><ele>463.99999999999994</ele><time>2026-03-28T09:55:54.021Z</time></trkpt><trkpt lat="40.37999" lon="15.2798167"><ele>464.0</ele><time>2026-03-28T09:55:56.021Z</time></trkpt><trkpt lat="40.3799533" lon="15.2798933"><ele>464.0</ele><time>2026-03-28T10:01:54.021Z</time></trkpt><trkpt lat="40.3798717" lon="15.2799483"><ele>464.0</ele><time>2026-03-28T10:01:57.021Z</time></trkpt><trkpt lat="40.3797933" lon="15.2799933"><ele>463.99999999999994</ele><time>2026-03-28T10:01:59.022Z</time></trkpt><trkpt lat="40.3797283" lon="15.280025"><ele>464.0</ele><time>2026-03-28T10:02:01.021Z</time></trkpt><trkpt lat="40.3796683" lon="15.2800617"><ele>465.6</ele><time>2026-03-28T10:02:03.022Z</time></trkpt><trkpt lat="40.3795917" lon="15.2800983"><ele>467.2</ele><time>2026-03-28T10:02:09.022Z</time></trkpt><trkpt lat="40.3794967" lon="15.2801317"><ele>468.80000000000007</ele><time>2026-03-28T10:02:12.021Z</time></trkpt><trkpt lat="40.37942" lon="15.2801783"><ele>470.40000000000003</ele><time>2026-03-28T10:02:14.021Z</time></trkpt><trkpt lat="40.3793283" lon="15.2802433"><ele>472.0</ele><time>2026-03-28T10:02:16.021Z</time></trkpt><trkpt lat="40.379225" lon="15.2803017"><ele>472.0</ele><time>2026-03-28T10:02:18.021Z</time></trkpt><trkpt lat="40.379125" lon="15.2803467"><ele>472.00000000000006</ele><time>2026-03-28T10:08:47.022Z</time></trkpt><trkpt lat="40.3790317" lon="15.28039"><ele>472.00000000000006</ele><time>2026-03-28T10:08:49.021Z</time></trkpt><trkpt lat="40.3789267" lon="15.2804017"><ele>472.0</ele><time>2026-03-28T10:08:51.022Z</time></trkpt><trkpt lat="40.37883" lon="15.28041"><ele>472.0</ele><time>2026-03-28T10:08:53.021Z</time></trkpt><trkpt lat="40.378745" lon="15.2804183"><ele>472.1428571428571</ele><time>2026-03-28T10:08:55.022Z</time></trkpt><trkpt lat="40.37868" lon="15.280415"><ele>472.28571428571433</ele><time>2026-03-28T10:08:58.021Z</time></trkpt><trkpt lat="40.3786167" lon="15.280415"><ele>472.42857142857144</ele><time>2026-03-28T10:09:00.021Z</time></trkpt><trkpt lat="40.3785517" lon="15.2804367"><ele>472.57142857142856</ele><time>2026-03-28T10:09:02.021Z</time></trkpt><trkpt lat="40.3784933" lon="15.280485"><ele>472.71428571428567</ele><time>2026-03-28T10:09:04.021Z</time></trkpt><trkpt lat="40.3784333" lon="15.2805367"><ele>472.8571428571429</ele><time>2026-03-28T10:09:06.021Z</time></trkpt><trkpt lat="40.3783533" lon="15.280605"><ele>473.0</ele><time>2026-03-28T10:09:08.021Z</time></trkpt><trkpt lat="40.37828" lon="15.28067"><ele>473.66666666666663</ele><time>2026-03-28T10:09:10.022Z</time></trkpt><trkpt lat="40.37817" lon="15.2807733"><ele>474.3333333333333</ele><time>2026-03-28T10:09:12.022Z</time></trkpt><trkpt lat="40.3781083" lon="15.28083"><ele>475.0</ele><time>2026-03-28T10:09:13.022Z</time></trkpt><trkpt lat="40.37804" lon="15.28089"><ele>475.66666666666663</ele><time>2026-03-28T10:09:14.021Z</time></trkpt><trkpt lat="40.37797" lon="15.280945"><ele>476.3333333333333</ele><time>2026-03-28T10:09:15.021Z</time></trkpt><trkpt lat="40.3779067" lon="15.2809867"><ele>477.0</ele><time>2026-03-28T10:09:16.021Z</time></trkpt><trkpt lat="40.377795" lon="15.2809617"><ele>479.40000000000003</ele><time>2026-03-28T10:09:18.022Z</time></trkpt><trkpt lat="40.3777233" lon="15.28084"><ele>481.80000000000007</ele><time>2026-03-28T10:09:20.021Z</time></trkpt><trkpt lat="40.3776233" lon="15.2808"><ele>484.2</ele><time>2026-03-28T10:09:22.021Z</time></trkpt><trkpt lat="40.3775633" lon="15.28084"><ele>486.6</ele><time>2026-03-28T10:09:23.022Z</time></trkpt><trkpt lat="40.3775017" lon="15.2809083"><ele>489.0</ele><time>2026-03-28T10:09:24.021Z</time></trkpt><trkpt lat="40.3774417" lon="15.2809983"><ele>489.0</ele><time>2026-03-28T10:09:25.021Z</time></trkpt><trkpt lat="40.3773917" lon="15.2810917"><ele>489.0</ele><time>2026-03-28T10:09:26.022Z</time></trkpt><trkpt lat="40.377355" lon="15.281175"><ele>489.0</ele><time>2026-03-28T10:09:27.021Z</time></trkpt><trkpt lat="40.37732" lon="15.2812483"><ele>489.0</ele><time>2026-03-28T10:09:28.022Z</time></trkpt><trkpt lat="40.3772683" lon="15.2813033"><ele>489.0</ele><time>2026-03-28T10:09:29.021Z</time></trkpt><trkpt lat="40.3772017" lon="15.2813517"><ele>489.0</ele><time>2026-03-28T10:09:30.022Z</time></trkpt><trkpt lat="40.3771233" lon="15.2813967"><ele>489.4</ele><time>2026-03-28T10:09:31.021Z</time></trkpt><trkpt lat="40.37703" lon="15.2814317"><ele>489.79999999999995</ele><time>2026-03-28T10:09:32.022Z</time></trkpt><trkpt lat="40.3769283" lon="15.2814517"><ele>490.20000000000005</ele><time>2026-03-28T10:09:33.022Z</time></trkpt><trkpt lat="40.3768217" lon="15.2814683"><ele>490.6</ele><time>2026-03-28T10:09:34.022Z</time></trkpt><trkpt lat="40.3767133" lon="15.2814933"><ele>491.0</ele><time>2026-03-28T10:09:35.022Z</time></trkpt><trkpt lat="40.37659" lon="15.2815133"><ele>492.0</ele><time>2026-03-28T10:09:36.022Z</time></trkpt><trkpt lat="40.376465" lon="15.28154"><ele>493.0</ele><time>2026-03-28T10:09:37.022Z</time></trkpt><trkpt lat="40.3763433" lon="15.28155"><ele>494.0</ele><time>2026-03-28T10:09:38.021Z</time></trkpt><trkpt lat="40.376235" lon="15.2815583"><ele>495.0</ele><time>2026-03-28T10:09:39.021Z</time></trkpt><trkpt lat="40.3761367" lon="15.2815483"><ele>498.1666666666667</ele><time>2026-03-28T10:09:40.021Z</time></trkpt><trkpt lat="40.3760533" lon="15.28153"><ele>501.33333333333337</ele><time>2026-03-28T10:09:41.021Z</time></trkpt><trkpt lat="40.3759767" lon="15.2815167"><ele>504.5</ele><time>2026-03-28T10:09:42.021Z</time></trkpt><trkpt lat="40.375905" lon="15.2815283"><ele>507.6666666666667</ele><time>2026-03-28T10:09:43.022Z</time></trkpt><trkpt lat="40.3758467" lon="15.2815733"><ele>510.83333333333337</ele><time>2026-03-28T10:09:44.022Z</time></trkpt><trkpt lat="40.3757983" lon="15.28165"><ele>514.0</ele><time>2026-03-28T10:09:45.022Z</time></trkpt><trkpt lat="40.3757517" lon="15.28174"><ele>514.0</ele><time>2026-03-28T10:09:46.021Z</time></trkpt><trkpt lat="40.3757033" lon="15.28184"><ele>514.0</ele><time>2026-03-28T10:09:47.022Z</time></trkpt><trkpt lat="40.3756333" lon="15.2819233"><ele>514.0</ele><time>2026-03-28T10:09:48.022Z</time></trkpt><trkpt lat="40.3755533" lon="15.28198"><ele>514.0</ele><time>2026-03-28T10:09:49.021Z</time></trkpt><trkpt lat="40.3754767" lon="15.2820133"><ele>514.0</ele><time>2026-03-28T10:09:50.022Z</time></trkpt><trkpt lat="40.3754" lon="15.2820167"><ele>514.0</ele><time>2026-03-28T10:09:51.021Z</time></trkpt><trkpt lat="40.375335" lon="15.281975"><ele>517.1666666666667</ele><time>2026-03-28T10:09:52.021Z</time></trkpt><trkpt lat="40.3752717" lon="15.281905"><ele>520.3333333333334</ele><time>2026-03-28T10:09:53.021Z</time></trkpt><trkpt lat="40.3752067" lon="15.2818233"><ele>523.5</ele><time>2026-03-28T10:09:54.021Z</time></trkpt><trkpt lat="40.3751317" lon="15.2817533"><ele>526.6666666666666</ele><time>2026-03-28T10:09:55.022Z</time></trkpt><trkpt lat="40.3750567" lon="15.2816967"><ele>529.8333333333333</ele><time>2026-03-28T10:09:56.021Z</time></trkpt><trkpt lat="40.3749817" lon="15.2816533"><ele>533.0</ele><time>2026-03-28T10:09:57.022Z</time></trkpt><trkpt lat="40.3749167" lon="15.281635"><ele>533.0</ele><time>2026-03-28T10:09:58.022Z</time></trkpt><trkpt lat="40.3748283" lon="15.28171"><ele>533.0</ele><time>2026-03-28T10:10:00.021Z</time></trkpt><trkpt lat="40.3748483" lon="15.2818667"><ele>533.0</ele><time>2026-03-28T10:10:02.021Z</time></trkpt><trkpt lat="40.374885" lon="15.2819583"><ele>533.0</ele><time>2026-03-28T10:10:03.021Z</time></trkpt><trkpt lat="40.3749167" lon="15.2820467"><ele>533.0</ele><time>2026-03-28T10:10:04.021Z</time></trkpt><trkpt lat="40.374935" lon="15.282155"><ele>533.0</ele><time>2026-03-28T10:10:05.022Z</time></trkpt><trkpt lat="40.37492" lon="15.28226"><ele>533.0</ele><time>2026-03-28T10:10:06.022Z</time></trkpt><trkpt lat="40.3748917" lon="15.2823683"><ele>533.0</ele><time>2026-03-28T10:10:07.021Z</time></trkpt><trkpt lat="40.3748533" lon="15.2824867"><ele>533.0</ele><time>2026-03-28T10:10:08.021Z</time></trkpt><trkpt lat="40.3748083" lon="15.2826133"><ele>533.0</ele><time>2026-03-28T10:10:09.021Z</time></trkpt><trkpt lat="40.3747633" lon="15.2827567"><ele>534.75</ele><time>2026-03-28T10:10:10.021Z</time></trkpt><trkpt lat="40.374725" lon="15.28291"><ele>536.5</ele><time>2026-03-28T10:10:11.022Z</time></trkpt><trkpt lat="40.374695" lon="15.2830683"><ele>538.25</ele><time>2026-03-28T10:10:12.022Z</time></trkpt><trkpt lat="40.3746633" lon="15.2832083"><ele>540.0</ele><time>2026-03-28T10:10:13.021Z</time></trkpt><trkpt lat="40.3746367" lon="15.2833333"><ele>544.3333333333334</ele><time>2026-03-28T10:10:14.021Z</time></trkpt><trkpt lat="40.3746283" lon="15.2834517"><ele>548.6666666666666</ele><time>2026-03-28T10:10:15.021Z</time></trkpt><trkpt lat="40.3746267" lon="15.2835683"><ele>553.0</ele><time>2026-03-28T10:10:16.022Z</time></trkpt><trkpt lat="40.3746317" lon="15.2836867"><ele>557.3333333333333</ele><time>2026-03-28T10:10:17.022Z</time></trkpt><trkpt lat="40.3746417" lon="15.2838067"><ele>561.6666666666666</ele><time>2026-03-28T10:10:18.021Z</time></trkpt><trkpt lat="40.3746367" lon="15.28392"><ele>566.0</ele><time>2026-03-28T10:10:19.021Z</time></trkpt><trkpt lat="40.3746167" lon="15.2840383"><ele>566.5</ele><time>2026-03-28T10:10:20.021Z</time></trkpt><trkpt lat="40.3745817" lon="15.284155"><ele>567.0</ele><time>2026-03-28T10:10:21.022Z</time></trkpt><trkpt lat="40.37454" lon="15.284265"><ele>567.5</ele><time>2026-03-28T10:10:22.021Z</time></trkpt><trkpt lat="40.374505" lon="15.2843733"><ele>568.0</ele><time>2026-03-28T10:10:23.021Z</time></trkpt><trkpt lat="40.3744683" lon="15.284475"><ele>568.5</ele><time>2026-03-28T10:10:24.022Z</time></trkpt><trkpt lat="40.37444" lon="15.28458"><ele>569.0</ele><time>2026-03-28T10:10:25.022Z</time></trkpt><trkpt lat="40.374435" lon="15.2846933"><ele>569.4</ele><time>2026-03-28T10:10:26.021Z</time></trkpt><trkpt lat="40.3744533" lon="15.2848233"><ele>569.8</ele><time>2026-03-28T10:10:27.021Z</time></trkpt><trkpt lat="40.3744917" lon="15.2849483"><ele>570.2</ele><time>2026-03-28T10:10:28.021Z</time></trkpt><trkpt lat="40.374535" lon="15.2850717"><ele>570.6</ele><time>2026-03-28T10:10:29.021Z</time></trkpt><trkpt lat="40.3745667" lon="15.285205"><ele>571.0</ele><time>2026-03-28T10:10:30.021Z</time></trkpt><trkpt lat="40.3745933" lon="15.2853633"><ele>571.0</ele><time>2026-03-28T10:10:31.021Z</time></trkpt><trkpt lat="40.3746033" lon="15.285545"><ele>571.0</ele><time>2026-03-28T10:10:32.021Z</time></trkpt><trkpt lat="40.374615" lon="15.2857367"><ele>571.0</ele><time>2026-03-28T10:10:33.021Z</time></trkpt><trkpt lat="40.37463" lon="15.2859267"><ele>571.0</ele><time>2026-03-28T10:10:34.022Z</time></trkpt><trkpt lat="40.37468" lon="15.2861117"><ele>562.75</ele><time>2026-03-28T10:10:35.021Z</time></trkpt><trkpt lat="40.3747483" lon="15.28628"><ele>554.5</ele><time>2026-03-28T10:10:36.022Z</time></trkpt><trkpt lat="40.3748233" lon="15.2864433"><ele>546.25</ele><time>2026-03-28T10:10:37.021Z</time></trkpt><trkpt lat="40.3749" lon="15.2865967"><ele>538.0</ele><time>2026-03-28T10:10:38.021Z</time></trkpt><trkpt lat="40.37499" lon="15.286745"><ele>538.0</ele><time>2026-03-28T10:10:39.021Z</time></trkpt><trkpt lat="40.3750833" lon="15.2868933"><ele>538.0</ele><time>2026-03-28T10:10:40.021Z</time></trkpt><trkpt lat="40.3751817" lon="15.2870333"><ele>538.0</ele><time>2026-03-28T10:10:41.022Z</time></trkpt><trkpt lat="40.3752833" lon="15.2871733"><ele>538.0</ele><time>2026-03-28T10:10:42.022Z</time></trkpt><trkpt lat="40.37538" lon="15.2873183"><ele>536.5</ele><time>2026-03-28T10:10:43.022Z</time></trkpt><trkpt lat="40.3754817" lon="15.287455"><ele>535.0</ele><time>2026-03-28T10:10:44.021Z</time></trkpt><trkpt lat="40.3755867" lon="15.2875833"><ele>533.5</ele><time>2026-03-28T10:10:45.021Z</time></trkpt><trkpt lat="40.3756917" lon="15.2876933"><ele>532.0</ele><time>2026-03-28T10:10:46.022Z</time></trkpt><trkpt lat="40.3757933" lon="15.287805"><ele>532.0</ele><time>2026-03-28T10:10:47.022Z</time></trkpt><trkpt lat="40.3758867" lon="15.2878967"><ele>532.0</ele><time>2026-03-28T10:10:48.022Z</time></trkpt><trkpt lat="40.37598" lon="15.2879817"><ele>532.0</ele><time>2026-03-28T10:10:49.021Z</time></trkpt><trkpt lat="40.3760783" lon="15.2880583"><ele>532.0</ele><time>2026-03-28T10:10:50.022Z</time></trkpt><trkpt lat="40.3761683" lon="15.2881217"><ele>532.0</ele><time>2026-03-28T10:10:51.022Z</time></trkpt><trkpt lat="40.3762417" lon="15.2882017"><ele>529.8000000000001</ele><time>2026-03-28T10:10:52.021Z</time></trkpt><trkpt lat="40.376305" lon="15.2883"><ele>527.6</ele><time>2026-03-28T10:10:53.021Z</time></trkpt><trkpt lat="40.3763517" lon="15.2884117"><ele>525.4000000000001</ele><time>2026-03-28T10:10:54.022Z</time></trkpt><trkpt lat="40.3763883" lon="15.2885517"><ele>523.2</ele><time>2026-03-28T10:10:55.021Z</time></trkpt><trkpt lat="40.3764167" lon="15.288705"><ele>521.0</ele><time>2026-03-28T10:10:56.021Z</time></trkpt><trkpt lat="40.3764517" lon="15.2888717"><ele>523.25</ele><time>2026-03-28T10:10:57.022Z</time></trkpt><trkpt lat="40.3764983" lon="15.2890417"><ele>525.5</ele><time>2026-03-28T10:10:58.021Z</time></trkpt><trkpt lat="40.3765533" lon="15.2892117"><ele>527.75</ele><time>2026-03-28T10:10:59.021Z</time></trkpt><trkpt lat="40.3766133" lon="15.2893783"><ele>530.0</ele><time>2026-03-28T10:11:00.022Z</time></trkpt><trkpt lat="40.3766683" lon="15.2895433"><ele>530.0</ele><time>2026-03-28T10:11:01.022Z</time></trkpt><trkpt lat="40.37672" lon="15.2897033"><ele>530.0</ele><time>2026-03-28T10:11:02.021Z</time></trkpt><trkpt lat="40.3767383" lon="15.289865"><ele>530.0</ele><time>2026-03-28T10:11:03.022Z</time></trkpt><trkpt lat="40.376745" lon="15.2900267"><ele>530.0</ele><time>2026-03-28T10:11:04.022Z</time></trkpt><trkpt lat="40.376735" lon="15.2901783"><ele>532.0</ele><time>2026-03-28T10:11:05.021Z</time></trkpt><trkpt lat="40.376715" lon="15.2903283"><ele>534.0</ele><time>2026-03-28T10:11:06.022Z</time></trkpt><trkpt lat="40.37667" lon="15.2904717"><ele>536.0</ele><time>2026-03-28T10:11:07.022Z</time></trkpt><trkpt lat="40.3766017" lon="15.2906233"><ele>538.0</ele><time>2026-03-28T10:11:08.021Z</time></trkpt><trkpt lat="40.3765283" lon="15.29078"><ele>538.0</ele><time>2026-03-28T10:11:09.022Z</time></trkpt><trkpt lat="40.3764483" lon="15.2909383"><ele>538.0</ele><time>2026-03-28T10:11:10.022Z</time></trkpt><trkpt lat="40.3763633" lon="15.29109"><ele>538.0</ele><time>2026-03-28T10:11:11.021Z</time></trkpt><trkpt lat="40.3762883" lon="15.2912267"><ele>538.0</ele><time>2026-03-28T10:11:12.021Z</time></trkpt><trkpt lat="40.3762383" lon="15.2913367"><ele>539.8</ele><time>2026-03-28T10:11:13.021Z</time></trkpt><trkpt lat="40.376195" lon="15.291435"><ele>541.5999999999999</ele><time>2026-03-28T10:11:14.021Z</time></trkpt><trkpt lat="40.3761333" lon="15.2915217"><ele>543.4000000000001</ele><time>2026-03-28T10:11:15.022Z</time></trkpt><trkpt lat="40.376065" lon="15.291595"><ele>545.2</ele><time>2026-03-28T10:11:16.022Z</time></trkpt><trkpt lat="40.37598" lon="15.2916583"><ele>547.0</ele><time>2026-03-28T10:11:17.022Z</time></trkpt><trkpt lat="40.3758783" lon="15.291725"><ele>547.0</ele><time>2026-03-28T10:11:18.021Z</time></trkpt><trkpt lat="40.375765" lon="15.2918"><ele>547.0</ele><time>2026-03-28T10:11:19.021Z</time></trkpt><trkpt lat="40.375655" lon="15.2918667"><ele>547.0</ele><time>2026-03-28T10:11:20.021Z</time></trkpt><trkpt lat="40.3755467" lon="15.2919167"><ele>547.0</ele><time>2026-03-28T10:11:21.021Z</time></trkpt><trkpt lat="40.375445" lon="15.29198"><ele>548.8000000000001</ele><time>2026-03-28T10:11:22.021Z</time></trkpt><trkpt lat="40.3753717" lon="15.29207"><ele>550.6</ele><time>2026-03-28T10:11:23.021Z</time></trkpt><trkpt lat="40.375305" lon="15.2921833"><ele>552.4000000000001</ele><time>2026-03-28T10:11:24.022Z</time></trkpt><trkpt lat="40.37524" lon="15.29231"><ele>554.2</ele><time>2026-03-28T10:11:25.021Z</time></trkpt><trkpt lat="40.3751717" lon="15.2924267"><ele>556.0</ele><time>2026-03-28T10:11:26.021Z</time></trkpt><trkpt lat="40.3750833" lon="15.292525"><ele>556.0</ele><time>2026-03-28T10:11:27.022Z</time></trkpt><trkpt lat="40.3749867" lon="15.2926183"><ele>556.0</ele><time>2026-03-28T10:11:28.021Z</time></trkpt><trkpt lat="40.3748817" lon="15.2927167"><ele>556.0</ele><time>2026-03-28T10:11:29.022Z</time></trkpt><trkpt lat="40.374795" lon="15.292825"><ele>556.0</ele><time>2026-03-28T10:11:30.021Z</time></trkpt><trkpt lat="40.3747217" lon="15.292935"><ele>558.4</ele><time>2026-03-28T10:11:31.021Z</time></trkpt><trkpt lat="40.3746633" lon="15.2930467"><ele>560.8</ele><time>2026-03-28T10:11:32.021Z</time></trkpt><trkpt lat="40.3746217" lon="15.2931667"><ele>563.1999999999999</ele><time>2026-03-28T10:11:33.022Z</time></trkpt><trkpt lat="40.3745933" lon="15.29331"><ele>565.6</ele><time>2026-03-28T10:11:34.022Z</time></trkpt><trkpt lat="40.3745633" lon="15.29346"><ele>568.0</ele><time>2026-03-28T10:11:35.022Z</time></trkpt><trkpt lat="40.3745233" lon="15.2936"><ele>568.0</ele><time>2026-03-28T10:11:36.021Z</time></trkpt><trkpt lat="40.3744883" lon="15.29373"><ele>568.0</ele><time>2026-03-28T10:11:37.021Z</time></trkpt><trkpt lat="40.37448" lon="15.293855"><ele>568.0</ele><time>2026-03-28T10:11:38.022Z</time></trkpt><trkpt lat="40.3745083" lon="15.2939883"><ele>568.0</ele><time>2026-03-28T10:11:39.022Z</time></trkpt><trkpt lat="40.374555" lon="15.29413"><ele>568.0</ele><time>2026-03-28T10:11:40.022Z</time></trkpt><trkpt lat="40.3746067" lon="15.294285"><ele>567.0</ele><time>2026-03-28T10:11:41.021Z</time></trkpt><trkpt lat="40.374655" lon="15.2944583"><ele>566.0</ele><time>2026-03-28T10:11:42.022Z</time></trkpt><trkpt lat="40.3747067" lon="15.2946367"><ele>565.0</ele><time>2026-03-28T10:11:43.022Z</time></trkpt><trkpt lat="40.3747417" lon="15.2948133"><ele>564.0</ele><time>2026-03-28T10:11:44.021Z</time></trkpt><trkpt lat="40.3747783" lon="15.29499"><ele>562.0</ele><time>2026-03-28T10:11:45.022Z</time></trkpt><trkpt lat="40.3748133" lon="15.295155"><ele>560.0</ele><time>2026-03-28T10:11:46.021Z</time></trkpt><trkpt lat="40.3748417" lon="15.2953067"><ele>558.0</ele><time>2026-03-28T10:11:47.021Z</time></trkpt><trkpt lat="40.37487" lon="15.2954383"><ele>556.0</ele><time>2026-03-28T10:11:48.021Z</time></trkpt><trkpt lat="40.3748933" lon="15.2955617"><ele>557.0</ele><time>2026-03-28T10:11:49.022Z</time></trkpt><trkpt lat="40.37489" lon="15.295665"><ele>558.0</ele><time>2026-03-28T10:11:50.021Z</time></trkpt><trkpt lat="40.3748633" lon="15.295745"><ele>559.0</ele><time>2026-03-28T10:11:51.022Z</time></trkpt><trkpt lat="40.3748083" lon="15.29579"><ele>560.0</ele><time>2026-03-28T10:11:52.021Z</time></trkpt><trkpt lat="40.37473" lon="15.2958017"><ele>561.0</ele><time>2026-03-28T10:11:53.021Z</time></trkpt><trkpt lat="40.37464" lon="15.29581"><ele>562.0</ele><time>2026-03-28T10:11:54.022Z</time></trkpt><trkpt lat="40.374535" lon="15.29583"><ele>564.5</ele><time>2026-03-28T10:11:55.021Z</time></trkpt><trkpt lat="40.3744167" lon="15.295865"><ele>567.0</ele><time>2026-03-28T10:11:56.022Z</time></trkpt><trkpt lat="40.3742933" lon="15.2959067"><ele>569.5</ele><time>2026-03-28T10:11:57.021Z</time></trkpt><trkpt lat="40.3741733" lon="15.2959483"><ele>572.0</ele><time>2026-03-28T10:11:58.022Z</time></trkpt><trkpt lat="40.374055" lon="15.29601"><ele>572.0</ele><time>2026-03-28T10:11:59.022Z</time></trkpt><trkpt lat="40.373935" lon="15.2960817"><ele>572.0</ele><time>2026-03-28T10:12:00.022Z</time></trkpt><trkpt lat="40.3738167" lon="15.2961667"><ele>572.0</ele><time>2026-03-28T10:12:01.022Z</time></trkpt><trkpt lat="40.3736967" lon="15.29626"><ele>572.0</ele><time>2026-03-28T10:12:02.022Z</time></trkpt><trkpt lat="40.3735783" lon="15.2963767"><ele>575.5</ele><time>2026-03-28T10:12:03.021Z</time></trkpt><trkpt lat="40.3734667" lon="15.2965033"><ele>579.0</ele><time>2026-03-28T10:12:04.021Z</time></trkpt><trkpt lat="40.3733567" lon="15.2966317"><ele>582.5</ele><time>2026-03-28T10:12:05.022Z</time></trkpt><trkpt lat="40.373255" lon="15.2967633"><ele>586.0</ele><time>2026-03-28T10:12:06.022Z</time></trkpt><trkpt lat="40.3731633" lon="15.2968983"><ele>586.0</ele><time>2026-03-28T10:12:07.021Z</time></trkpt><trkpt lat="40.3730783" lon="15.2970217"><ele>586.0</ele><time>2026-03-28T10:12:08.022Z</time></trkpt><trkpt lat="40.3729983" lon="15.2971167"><ele>586.0</ele><time>2026-03-28T10:12:09.021Z</time></trkpt><trkpt lat="40.3729067" lon="15.297195"><ele>586.0</ele><time>2026-03-28T10:12:10.021Z</time></trkpt><trkpt lat="40.3727933" lon="15.2972583"><ele>587.25</ele><time>2026-03-28T10:12:11.021Z</time></trkpt><trkpt lat="40.3726617" lon="15.29731"><ele>588.5</ele><time>2026-03-28T10:12:12.022Z</time></trkpt><trkpt lat="40.372525" lon="15.297365"><ele>589.75</ele><time>2026-03-28T10:12:13.022Z</time></trkpt><trkpt lat="40.3723917" lon="15.2974117"><ele>591.0</ele><time>2026-03-28T10:12:14.022Z</time></trkpt><trkpt lat="40.372265" lon="15.29743"><ele>593.5</ele><time>2026-03-28T10:12:15.021Z</time></trkpt><trkpt lat="40.3721467" lon="15.2974283"><ele>596.0</ele><time>2026-03-28T10:12:16.021Z</time></trkpt><trkpt lat="40.3720283" lon="15.29743"><ele>598.5</ele><time>2026-03-28T10:12:17.022Z</time></trkpt><trkpt lat="40.3719017" lon="15.2974567"><ele>601.0</ele><time>2026-03-28T10:12:18.021Z</time></trkpt><trkpt lat="40.3717733" lon="15.2975117"><ele>601.0</ele><time>2026-03-28T10:12:19.022Z</time></trkpt><trkpt lat="40.3716533" lon="15.2975933"><ele>601.0</ele><time>2026-03-28T10:12:20.022Z</time></trkpt><trkpt lat="40.3715383" lon="15.2977017"><ele>601.0</ele><time>2026-03-28T10:12:21.021Z</time></trkpt><trkpt lat="40.371425" lon="15.2978383"><ele>601.0</ele><time>2026-03-28T10:12:22.022Z</time></trkpt><trkpt lat="40.3713117" lon="15.2979917"><ele>605.0</ele><time>2026-03-28T10:12:23.021Z</time></trkpt><trkpt lat="40.3711967" lon="15.2981483"><ele>609.0</ele><time>2026-03-28T10:12:24.021Z</time></trkpt><trkpt lat="40.3710817" lon="15.2982967"><ele>613.0</ele><time>2026-03-28T10:12:25.022Z</time></trkpt><trkpt lat="40.3709767" lon="15.29843"><ele>613.0</ele><time>2026-03-28T10:12:26.021Z</time></trkpt><trkpt lat="40.3709" lon="15.2985717"><ele>613.0</ele><time>2026-03-28T10:12:27.022Z</time></trkpt><trkpt lat="40.3708367" lon="15.2987017"><ele>613.0</ele><time>2026-03-28T10:12:28.021Z</time></trkpt><trkpt lat="40.3707617" lon="15.29881"><ele>613.0</ele><time>2026-03-28T10:12:29.021Z</time></trkpt><trkpt lat="40.370675" lon="15.2988983"><ele>612.0</ele><time>2026-03-28T10:12:30.022Z</time></trkpt><trkpt lat="40.3705633" lon="15.2989617"><ele>611.0</ele><time>2026-03-28T10:12:31.022Z</time></trkpt><trkpt lat="40.3704383" lon="15.299005"><ele>610.0</ele><time>2026-03-28T10:12:32.022Z</time></trkpt><trkpt lat="40.3702983" lon="15.2990533"><ele>609.0</ele><time>2026-03-28T10:12:33.021Z</time></trkpt><trkpt lat="40.3701533" lon="15.2991217"><ele>609.0</ele><time>2026-03-28T10:12:34.021Z</time></trkpt><trkpt lat="40.3700067" lon="15.299205"><ele>609.0</ele><time>2026-03-28T10:12:35.022Z</time></trkpt><trkpt lat="40.36986" lon="15.2993183"><ele>609.0</ele><time>2026-03-28T10:12:36.022Z</time></trkpt><trkpt lat="40.3697233" lon="15.29946"><ele>610.5</ele><time>2026-03-28T10:12:37.021Z</time></trkpt><trkpt lat="40.36961" lon="15.2996083"><ele>612.0</ele><time>2026-03-28T10:12:38.022Z</time></trkpt><trkpt lat="40.3695067" lon="15.2997467"><ele>613.5</ele><time>2026-03-28T10:12:39.021Z</time></trkpt><trkpt lat="40.3694217" lon="15.2998833"><ele>615.0</ele><time>2026-03-28T10:12:40.022Z</time></trkpt><trkpt lat="40.3693333" lon="15.3000017"><ele>615.0</ele><time>2026-03-28T10:12:41.021Z</time></trkpt><trkpt lat="40.3692317" lon="15.3000983"><ele>615.0</ele><time>2026-03-28T10:12:42.021Z</time></trkpt><trkpt lat="40.3691283" lon="15.3001767"><ele>615.0</ele><time>2026-03-28T10:12:43.021Z</time></trkpt><trkpt lat="40.3690417" lon="15.3002517"><ele>615.0</ele><time>2026-03-28T10:12:44.021Z</time></trkpt><trkpt lat="40.3689883" lon="15.3003317"><ele>615.0</ele><time>2026-03-28T10:12:45.022Z</time></trkpt><trkpt lat="40.368955" lon="15.30043"><ele>615.0</ele><time>2026-03-28T10:12:46.022Z</time></trkpt><trkpt lat="40.3689483" lon="15.30055"><ele>615.0</ele><time>2026-03-28T10:12:47.021Z</time></trkpt><trkpt lat="40.3689667" lon="15.30068"><ele>615.0</ele><time>2026-03-28T10:12:48.021Z</time></trkpt><trkpt lat="40.369" lon="15.3008133"><ele>615.0</ele><time>2026-03-28T10:12:49.021Z</time></trkpt><trkpt lat="40.3690467" lon="15.3009483"><ele>615.0</ele><time>2026-03-28T10:12:50.021Z</time></trkpt><trkpt lat="40.3690867" lon="15.301075"><ele>614.5</ele><time>2026-03-28T10:12:51.021Z</time></trkpt><trkpt lat="40.3691133" lon="15.3012017"><ele>614.0</ele><time>2026-03-28T10:12:52.021Z</time></trkpt><trkpt lat="40.3691183" lon="15.3013433"><ele>613.5</ele><time>2026-03-28T10:12:53.021Z</time></trkpt><trkpt lat="40.3691083" lon="15.3015033"><ele>613.0</ele><time>2026-03-28T10:12:54.021Z</time></trkpt><trkpt lat="40.3690767" lon="15.3016667"><ele>613.0</ele><time>2026-03-28T10:12:55.021Z</time></trkpt><trkpt lat="40.36904" lon="15.3018383"><ele>613.0</ele><time>2026-03-28T10:12:56.021Z</time></trkpt><trkpt lat="40.3689917" lon="15.3020133"><ele>613.0</ele><time>2026-03-28T10:12:57.022Z</time></trkpt><trkpt lat="40.3689317" lon="15.3022133"><ele>613.0</ele><time>2026-03-28T10:12:58.021Z</time></trkpt><trkpt lat="40.3688533" lon="15.3024383"><ele>614.0</ele><time>2026-03-28T10:12:59.021Z</time></trkpt><trkpt lat="40.3687567" lon="15.3026717"><ele>615.0</ele><time>2026-03-28T10:13:00.021Z</time></trkpt><trkpt lat="40.3686583" lon="15.302915"><ele>616.0</ele><time>2026-03-28T10:13:01.021Z</time></trkpt><trkpt lat="40.3685733" lon="15.3031483"><ele>618.6666666666667</ele><time>2026-03-28T10:13:02.022Z</time></trkpt><trkpt lat="40.3685" lon="15.303365"><ele>621.3333333333334</ele><time>2026-03-28T10:13:03.022Z</time></trkpt><trkpt lat="40.3684367" lon="15.303575"><ele>624.0</ele><time>2026-03-28T10:13:04.022Z</time></trkpt><trkpt lat="40.3683783" lon="15.303775"><ele>624.3333333333334</ele><time>2026-03-28T10:13:05.021Z</time></trkpt><trkpt lat="40.3683217" lon="15.30397"><ele>624.6666666666667</ele><time>2026-03-28T10:13:06.022Z</time></trkpt><trkpt lat="40.36827" lon="15.3041717"><ele>625.0</ele><time>2026-03-28T10:13:07.021Z</time></trkpt><trkpt lat="40.3682083" lon="15.30437"><ele>625.0</ele><time>2026-03-28T10:13:08.022Z</time></trkpt><trkpt lat="40.368145" lon="15.3045733"><ele>625.0</ele><time>2026-03-28T10:13:09.022Z</time></trkpt><trkpt lat="40.3680817" lon="15.3047717"><ele>625.0</ele><time>2026-03-28T10:13:10.021Z</time></trkpt><trkpt lat="40.3679983" lon="15.3049433"><ele>625.5</ele><time>2026-03-28T10:13:11.022Z</time></trkpt><trkpt lat="40.367905" lon="15.30509"><ele>626.0</ele><time>2026-03-28T10:13:12.022Z</time></trkpt><trkpt lat="40.3678167" lon="15.30521"><ele>626.5</ele><time>2026-03-28T10:13:13.022Z</time></trkpt><trkpt lat="40.367755" lon="15.3053383"><ele>627.0</ele><time>2026-03-28T10:13:14.022Z</time></trkpt><trkpt lat="40.367725" lon="15.3054933"><ele>628.75</ele><time>2026-03-28T10:13:15.021Z</time></trkpt><trkpt lat="40.3677167" lon="15.3056717"><ele>630.5</ele><time>2026-03-28T10:13:16.021Z</time></trkpt><trkpt lat="40.3677183" lon="15.30587"><ele>632.25</ele><time>2026-03-28T10:13:17.021Z</time></trkpt><trkpt lat="40.367705" lon="15.30607"><ele>634.0</ele><time>2026-03-28T10:13:18.021Z</time></trkpt><trkpt lat="40.3676883" lon="15.3062667"><ele>635.6666666666667</ele><time>2026-03-28T10:13:19.021Z</time></trkpt><trkpt lat="40.3676683" lon="15.30647"><ele>637.3333333333334</ele><time>2026-03-28T10:13:20.022Z</time></trkpt><trkpt lat="40.3676317" lon="15.306675"><ele>639.0</ele><time>2026-03-28T10:13:21.022Z</time></trkpt><trkpt lat="40.3675783" lon="15.306885"><ele>639.0</ele><time>2026-03-28T10:13:22.021Z</time></trkpt><trkpt lat="40.36751" lon="15.3071"><ele>639.0</ele><time>2026-03-28T10:13:23.021Z</time></trkpt><trkpt lat="40.3674367" lon="15.307325"><ele>639.0</ele><time>2026-03-28T10:13:24.022Z</time></trkpt><trkpt lat="40.3673683" lon="15.3075533"><ele>640.3333333333334</ele><time>2026-03-28T10:13:25.021Z</time></trkpt><trkpt lat="40.3672983" lon="15.30777"><ele>641.6666666666667</ele><time>2026-03-28T10:13:26.022Z</time></trkpt><trkpt lat="40.3672217" lon="15.3079683"><ele>643.0</ele><time>2026-03-28T10:13:27.022Z</time></trkpt><trkpt lat="40.3671317" lon="15.30815"><ele>644.3333333333334</ele><time>2026-03-28T10:13:28.021Z</time></trkpt><trkpt lat="40.3670233" lon="15.3083083"><ele>645.6666666666666</ele><time>2026-03-28T10:13:29.022Z</time></trkpt><trkpt lat="40.3669017" lon="15.3084333"><ele>647.0</ele><time>2026-03-28T10:13:30.021Z</time></trkpt><trkpt lat="40.3667667" lon="15.30854"><ele>647.0</ele><time>2026-03-28T10:13:31.021Z</time></trkpt><trkpt lat="40.36663" lon="15.3086483"><ele>647.0</ele><time>2026-03-28T10:13:32.021Z</time></trkpt><trkpt lat="40.366505" lon="15.3087683"><ele>647.0</ele><time>2026-03-28T10:13:33.022Z</time></trkpt><trkpt lat="40.3663833" lon="15.3089133"><ele>651.3333333333333</ele><time>2026-03-28T10:13:34.021Z</time></trkpt><trkpt lat="40.3662583" lon="15.3090867"><ele>655.6666666666666</ele><time>2026-03-28T10:13:35.022Z</time></trkpt><trkpt lat="40.3661267" lon="15.3092783"><ele>660.0</ele><time>2026-03-28T10:13:36.021Z</time></trkpt><trkpt lat="40.3659817" lon="15.309465"><ele>660.0</ele><time>2026-03-28T10:13:37.021Z</time></trkpt><trkpt lat="40.36584" lon="15.30963"><ele>660.0</ele><time>2026-03-28T10:13:38.022Z</time></trkpt><trkpt lat="40.3657067" lon="15.30977"><ele>660.0</ele><time>2026-03-28T10:13:39.022Z</time></trkpt><trkpt lat="40.365595" lon="15.309895"><ele>662.5</ele><time>2026-03-28T10:13:40.022Z</time></trkpt><trkpt lat="40.3655017" lon="15.31002"><ele>665.0</ele><time>2026-03-28T10:13:41.022Z</time></trkpt><trkpt lat="40.3654383" lon="15.31015"><ele>667.5</ele><time>2026-03-28T10:13:42.021Z</time></trkpt><trkpt lat="40.3654083" lon="15.3103017"><ele>670.0</ele><time>2026-03-28T10:13:43.021Z</time></trkpt><trkpt lat="40.3653883" lon="15.3104683"><ele>671.75</ele><time>2026-03-28T10:13:44.021Z</time></trkpt><trkpt lat="40.3653733" lon="15.3106433"><ele>673.5</ele><time>2026-03-28T10:13:45.022Z</time></trkpt><trkpt lat="40.3653433" lon="15.31083"><ele>675.25</ele><time>2026-03-28T10:13:46.022Z</time></trkpt><trkpt lat="40.3653017" lon="15.31104"><ele>677.0</ele><time>2026-03-28T10:13:47.021Z</time></trkpt><trkpt lat="40.3652467" lon="15.3112617"><ele>679.3333333333333</ele><time>2026-03-28T10:13:48.022Z</time></trkpt><trkpt lat="40.3651867" lon="15.3114967"><ele>681.6666666666666</ele><time>2026-03-28T10:13:49.021Z</time></trkpt><trkpt lat="40.3651217" lon="15.311725"><ele>684.0</ele><time>2026-03-28T10:13:50.021Z</time></trkpt><trkpt lat="40.3650617" lon="15.3119283"><ele>684.0</ele><time>2026-03-28T10:13:51.022Z</time></trkpt><trkpt lat="40.3650033" lon="15.3121117"><ele>684.0</ele><time>2026-03-28T10:13:52.022Z</time></trkpt><trkpt lat="40.3649417" lon="15.3122917"><ele>684.0</ele><time>2026-03-28T10:13:53.021Z</time></trkpt><trkpt lat="40.3648667" lon="15.3124633"><ele>684.0</ele><time>2026-03-28T10:13:54.022Z</time></trkpt><trkpt lat="40.3647967" lon="15.312645"><ele>684.0</ele><time>2026-03-28T10:13:55.022Z</time></trkpt><trkpt lat="40.36474" lon="15.3128383"><ele>684.0</ele><time>2026-03-28T10:13:56.021Z</time></trkpt><trkpt lat="40.3646967" lon="15.3130267"><ele>689.0</ele><time>2026-03-28T10:13:57.021Z</time></trkpt><trkpt lat="40.3646633" lon="15.3132"><ele>694.0</ele><time>2026-03-28T10:13:58.021Z</time></trkpt><trkpt lat="40.3646367" lon="15.31336"><ele>699.0</ele><time>2026-03-28T10:13:59.021Z</time></trkpt><trkpt lat="40.3646133" lon="15.3135133"><ele>704.0</ele><time>2026-03-28T10:14:00.021Z</time></trkpt><trkpt lat="40.364595" lon="15.3136567"><ele>704.0</ele><time>2026-03-28T10:14:01.021Z</time></trkpt><trkpt lat="40.36457" lon="15.3137967"><ele>704.0</ele><time>2026-03-28T10:14:02.021Z</time></trkpt><trkpt lat="40.3645367" lon="15.3139333"><ele>704.0</ele><time>2026-03-28T10:14:03.021Z</time></trkpt><trkpt lat="40.364495" lon="15.3140667"><ele>704.0</ele><time>2026-03-28T10:14:04.021Z</time></trkpt><trkpt lat="40.36444" lon="15.314205"><ele>704.0</ele><time>2026-03-28T10:14:05.021Z</time></trkpt><trkpt lat="40.364375" lon="15.3143517"><ele>701.75</ele><time>2026-03-28T10:14:06.022Z</time></trkpt><trkpt lat="40.364295" lon="15.3144967"><ele>699.5</ele><time>2026-03-28T10:14:07.022Z</time></trkpt><trkpt lat="40.364215" lon="15.3146433"><ele>697.25</ele><time>2026-03-28T10:14:08.021Z</time></trkpt><trkpt lat="40.3641417" lon="15.31478"><ele>695.0</ele><time>2026-03-28T10:14:09.022Z</time></trkpt><trkpt lat="40.3640767" lon="15.3149133"><ele>697.25</ele><time>2026-03-28T10:14:10.022Z</time></trkpt><trkpt lat="40.364015" lon="15.3150483"><ele>699.5</ele><time>2026-03-28T10:14:11.021Z</time></trkpt><trkpt lat="40.3639567" lon="15.3151883"><ele>701.75</ele><time>2026-03-28T10:14:12.022Z</time></trkpt><trkpt lat="40.3639017" lon="15.3153267"><ele>704.0</ele><time>2026-03-28T10:14:13.022Z</time></trkpt><trkpt lat="40.3638533" lon="15.3154733"><ele>702.0</ele><time>2026-03-28T10:14:14.021Z</time></trkpt><trkpt lat="40.36381" lon="15.3156233"><ele>700.0</ele><time>2026-03-28T10:14:15.021Z</time></trkpt><trkpt lat="40.3637783" lon="15.3157967"><ele>698.0</ele><time>2026-03-28T10:14:16.021Z</time></trkpt><trkpt lat="40.363755" lon="15.31598"><ele>696.0</ele><time>2026-03-28T10:14:17.021Z</time></trkpt><trkpt lat="40.36374" lon="15.3161733"><ele>696.0</ele><time>2026-03-28T10:14:18.022Z</time></trkpt><trkpt lat="40.36373" lon="15.3163783"><ele>696.0</ele><time>2026-03-28T10:14:19.021Z</time></trkpt><trkpt lat="40.363725" lon="15.3165833"><ele>696.0</ele><time>2026-03-28T10:14:20.022Z</time></trkpt><trkpt lat="40.3637133" lon="15.3167933"><ele>698.3333333333334</ele><time>2026-03-28T10:14:21.021Z</time></trkpt><trkpt lat="40.3636967" lon="15.3170183"><ele>700.6666666666667</ele><time>2026-03-28T10:14:22.021Z</time></trkpt><trkpt lat="40.363675" lon="15.31724"><ele>703.0</ele><time>2026-03-28T10:14:23.022Z</time></trkpt><trkpt lat="40.3636517" lon="15.31746"><ele>704.3333333333334</ele><time>2026-03-28T10:14:24.021Z</time></trkpt><trkpt lat="40.3636217" lon="15.3176833"><ele>705.6666666666666</ele><time>2026-03-28T10:14:25.021Z</time></trkpt><trkpt lat="40.3635917" lon="15.3179033"><ele>707.0</ele><time>2026-03-28T10:14:26.021Z</time></trkpt><trkpt lat="40.3635717" lon="15.3181133"><ele>707.0</ele><time>2026-03-28T10:14:27.022Z</time></trkpt><trkpt lat="40.36357" lon="15.3183283"><ele>707.0</ele><time>2026-03-28T10:14:28.022Z</time></trkpt><trkpt lat="40.363575" lon="15.3185333"><ele>707.0</ele><time>2026-03-28T10:14:29.021Z</time></trkpt><trkpt lat="40.3635833" lon="15.3187183"><ele>707.0</ele><time>2026-03-28T10:14:30.021Z</time></trkpt><trkpt lat="40.3635767" lon="15.31889"><ele>707.0</ele><time>2026-03-28T10:14:31.022Z</time></trkpt><trkpt lat="40.3635483" lon="15.3190583"><ele>707.0</ele><time>2026-03-28T10:14:32.021Z</time></trkpt><trkpt lat="40.3634967" lon="15.3192283"><ele>707.0</ele><time>2026-03-28T10:14:33.022Z</time></trkpt><trkpt lat="40.3634367" lon="15.3194017"><ele>705.5</ele><time>2026-03-28T10:14:34.021Z</time></trkpt><trkpt lat="40.3633783" lon="15.3195683"><ele>704.0</ele><time>2026-03-28T10:14:35.022Z</time></trkpt><trkpt lat="40.3633283" lon="15.3197317"><ele>702.5</ele><time>2026-03-28T10:14:36.021Z</time></trkpt><trkpt lat="40.3632783" lon="15.3198817"><ele>701.0</ele><time>2026-03-28T10:14:37.021Z</time></trkpt><trkpt lat="40.3632317" lon="15.320025"><ele>699.0</ele><time>2026-03-28T10:14:38.022Z</time></trkpt><trkpt lat="40.3631817" lon="15.32017"><ele>697.0</ele><time>2026-03-28T10:14:39.022Z</time></trkpt><trkpt lat="40.3631417" lon="15.3203283"><ele>695.0</ele><time>2026-03-28T10:14:40.021Z</time></trkpt><trkpt lat="40.3631067" lon="15.3205017"><ele>693.0</ele><time>2026-03-28T10:14:41.022Z</time></trkpt><trkpt lat="40.36308" lon="15.3206983"><ele>691.3333333333334</ele><time>2026-03-28T10:14:42.021Z</time></trkpt><trkpt lat="40.36306" lon="15.320905"><ele>689.6666666666667</ele><time>2026-03-28T10:14:43.022Z</time></trkpt><trkpt lat="40.36304" lon="15.3211117"><ele>688.0</ele><time>2026-03-28T10:14:44.022Z</time></trkpt><trkpt lat="40.3630167" lon="15.3213183"><ele>692.75</ele><time>2026-03-28T10:14:45.021Z</time></trkpt><trkpt lat="40.3630017" lon="15.3215167"><ele>697.5</ele><time>2026-03-28T10:14:46.021Z</time></trkpt><trkpt lat="40.362985" lon="15.3216833"><ele>702.25</ele><time>2026-03-28T10:14:47.022Z</time></trkpt><trkpt lat="40.3629583" lon="15.3218383"><ele>707.0</ele><time>2026-03-28T10:14:48.021Z</time></trkpt><trkpt lat="40.362915" lon="15.3219817"><ele>707.0</ele><time>2026-03-28T10:14:49.021Z</time></trkpt><trkpt lat="40.3628433" lon="15.3221017"><ele>707.0</ele><time>2026-03-28T10:14:50.021Z</time></trkpt><trkpt lat="40.362745" lon="15.3221933"><ele>707.0</ele><time>2026-03-28T10:14:51.022Z</time></trkpt><trkpt lat="40.3626467" lon="15.32228"><ele>707.0</ele><time>2026-03-28T10:14:52.022Z</time></trkpt><trkpt lat="40.362575" lon="15.3223717"><ele>707.0</ele><time>2026-03-28T10:14:53.021Z</time></trkpt><trkpt lat="40.3625183" lon="15.3224733"><ele>707.0</ele><time>2026-03-28T10:14:54.022Z</time></trkpt><trkpt lat="40.36249" lon="15.3226017"><ele>707.0</ele><time>2026-03-28T10:14:55.021Z</time></trkpt><trkpt lat="40.3624833" lon="15.3227583"><ele>707.0</ele><time>2026-03-28T10:14:56.021Z</time></trkpt><trkpt lat="40.3624867" lon="15.322935"><ele>706.5</ele><time>2026-03-28T10:14:57.022Z</time></trkpt><trkpt lat="40.362485" lon="15.32312"><ele>706.0</ele><time>2026-03-28T10:14:58.022Z</time></trkpt><trkpt lat="40.3624817" lon="15.32331"><ele>705.5</ele><time>2026-03-28T10:14:59.022Z</time></trkpt><trkpt lat="40.3624817" lon="15.3235"><ele>705.0</ele><time>2026-03-28T10:15:00.021Z</time></trkpt><trkpt lat="40.3624783" lon="15.3236917"><ele>705.0</ele><time>2026-03-28T10:15:01.021Z</time></trkpt><trkpt lat="40.3624833" lon="15.3238817"><ele>705.0</ele><time>2026-03-28T10:15:02.021Z</time></trkpt><trkpt lat="40.362495" lon="15.3240667"><ele>705.0</ele><time>2026-03-28T10:15:03.021Z</time></trkpt><trkpt lat="40.3625083" lon="15.3242433"><ele>705.0</ele><time>2026-03-28T10:15:04.021Z</time></trkpt><trkpt lat="40.362515" lon="15.3244167"><ele>703.0</ele><time>2026-03-28T10:15:05.021Z</time></trkpt><trkpt lat="40.3625183" lon="15.3246"><ele>701.0</ele><time>2026-03-28T10:15:06.022Z</time></trkpt><trkpt lat="40.3625033" lon="15.3247967"><ele>699.0</ele><time>2026-03-28T10:15:07.021Z</time></trkpt><trkpt lat="40.3624733" lon="15.325005"><ele>697.6666666666666</ele><time>2026-03-28T10:15:08.021Z</time></trkpt><trkpt lat="40.3624367" lon="15.32524"><ele>696.3333333333333</ele><time>2026-03-28T10:15:09.021Z</time></trkpt><trkpt lat="40.3623983" lon="15.325495"><ele>695.0</ele><time>2026-03-28T10:15:10.021Z</time></trkpt><trkpt lat="40.36236" lon="15.32577"><ele>693.3333333333333</ele><time>2026-03-28T10:15:11.022Z</time></trkpt><trkpt lat="40.3623317" lon="15.3260567"><ele>691.6666666666666</ele><time>2026-03-28T10:15:12.021Z</time></trkpt><trkpt lat="40.36231" lon="15.3263283"><ele>690.0</ele><time>2026-03-28T10:15:13.021Z</time></trkpt><trkpt lat="40.3623" lon="15.3265883"><ele>690.0</ele><time>2026-03-28T10:15:14.021Z</time></trkpt><trkpt lat="40.362295" lon="15.3268267"><ele>690.0</ele><time>2026-03-28T10:15:15.022Z</time></trkpt><trkpt lat="40.362285" lon="15.3270317"><ele>690.0</ele><time>2026-03-28T10:15:16.022Z</time></trkpt><trkpt lat="40.3622567" lon="15.3272167"><ele>689.75</ele><time>2026-03-28T10:15:17.022Z</time></trkpt><trkpt lat="40.3622183" lon="15.3273767"><ele>689.5</ele><time>2026-03-28T10:15:18.021Z</time></trkpt><trkpt lat="40.3621683" lon="15.3275267"><ele>689.25</ele><time>2026-03-28T10:15:19.022Z</time></trkpt><trkpt lat="40.36211" lon="15.327675"><ele>689.0</ele><time>2026-03-28T10:15:20.022Z</time></trkpt><trkpt lat="40.3620533" lon="15.327845"><ele>690.25</ele><time>2026-03-28T10:15:21.022Z</time></trkpt><trkpt lat="40.3620067" lon="15.3280283"><ele>691.5</ele><time>2026-03-28T10:15:22.021Z</time></trkpt><trkpt lat="40.3619717" lon="15.3282017"><ele>692.75</ele><time>2026-03-28T10:15:23.022Z</time></trkpt><trkpt lat="40.3619467" lon="15.3283467"><ele>694.0</ele><time>2026-03-28T10:15:24.021Z</time></trkpt><trkpt lat="40.3619283" lon="15.328475"><ele>694.0</ele><time>2026-03-28T10:15:25.021Z</time></trkpt><trkpt lat="40.3619233" lon="15.3285733"><ele>694.0</ele><time>2026-03-28T10:15:26.022Z</time></trkpt><trkpt lat="40.3619" lon="15.3287017"><ele>694.0</ele><time>2026-03-28T10:15:28.021Z</time></trkpt><trkpt lat="40.3618283" lon="15.328695"><ele>694.0</ele><time>2026-03-28T10:15:31.022Z</time></trkpt><trkpt lat="40.3618017" lon="15.3285967"><ele>694.0</ele><time>2026-03-28T10:15:32.022Z</time></trkpt><trkpt lat="40.361765" lon="15.3284867"><ele>694.0</ele><time>2026-03-28T10:15:33.022Z</time></trkpt><trkpt lat="40.3617183" lon="15.328365"><ele>694.0</ele><time>2026-03-28T10:15:34.022Z</time></trkpt><trkpt lat="40.3616583" lon="15.328225"><ele>694.0</ele><time>2026-03-28T10:15:35.022Z</time></trkpt><trkpt lat="40.3615867" lon="15.32808"><ele>694.0</ele><time>2026-03-28T10:15:36.021Z</time></trkpt><trkpt lat="40.3615033" lon="15.327945"><ele>694.0</ele><time>2026-03-28T10:15:37.021Z</time></trkpt><trkpt lat="40.3614167" lon="15.327795"><ele>693.5</ele><time>2026-03-28T10:15:38.021Z</time></trkpt><trkpt lat="40.361335" lon="15.3276733"><ele>693.0</ele><time>2026-03-28T10:15:39.021Z</time></trkpt><trkpt lat="40.36126" lon="15.32756"><ele>692.5</ele><time>2026-03-28T10:15:40.021Z</time></trkpt><trkpt lat="40.3611817" lon="15.32746"><ele>692.0</ele><time>2026-03-28T10:15:41.022Z</time></trkpt><trkpt lat="40.3611" lon="15.3273767"><ele>692.0</ele><time>2026-03-28T10:15:42.022Z</time></trkpt><trkpt lat="40.3610117" lon="15.32731"><ele>692.0</ele><time>2026-03-28T10:15:43.022Z</time></trkpt><trkpt lat="40.3609233" lon="15.3272717"><ele>692.0</ele><time>2026-03-28T10:15:44.022Z</time></trkpt><trkpt lat="40.3608283" lon="15.3272483"><ele>692.0</ele><time>2026-03-28T10:15:45.022Z</time></trkpt><trkpt lat="40.36072" lon="15.3272367"><ele>692.0</ele><time>2026-03-28T10:15:46.021Z</time></trkpt><trkpt lat="40.3605967" lon="15.32722"><ele>691.5</ele><time>2026-03-28T10:15:47.021Z</time></trkpt><trkpt lat="40.36047" lon="15.3272033"><ele>691.0</ele><time>2026-03-28T10:15:48.021Z</time></trkpt><trkpt lat="40.3603467" lon="15.3271817"><ele>690.5</ele><time>2026-03-28T10:15:49.021Z</time></trkpt><trkpt lat="40.3602267" lon="15.327155"><ele>690.0</ele><time>2026-03-28T10:15:50.022Z</time></trkpt><trkpt lat="40.3601167" lon="15.3271167"><ele>690.0</ele><time>2026-03-28T10:15:51.021Z</time></trkpt><trkpt lat="40.3600183" lon="15.3270667"><ele>690.0</ele><time>2026-03-28T10:15:52.022Z</time></trkpt><trkpt lat="40.3599367" lon="15.327005"><ele>690.0</ele><time>2026-03-28T10:15:53.023Z</time></trkpt><trkpt lat="40.3598733" lon="15.3269267"><ele>690.0</ele><time>2026-03-28T10:15:54.022Z</time></trkpt><trkpt lat="40.3598267" lon="15.32684"><ele>690.0</ele><time>2026-03-28T10:15:55.022Z</time></trkpt><trkpt lat="40.3597867" lon="15.3267517"><ele>690.0</ele><time>2026-03-28T10:15:56.022Z</time></trkpt><trkpt lat="40.3597483" lon="15.3266517"><ele>690.0</ele><time>2026-03-28T10:15:57.023Z</time></trkpt><trkpt lat="40.3597083" lon="15.3265517"><ele>690.0</ele><time>2026-03-28T10:15:58.023Z</time></trkpt><trkpt lat="40.3596717" lon="15.3264617"><ele>690.0</ele><time>2026-03-28T10:15:59.022Z</time></trkpt><trkpt lat="40.3596217" lon="15.3263883"><ele>690.0</ele><time>2026-03-28T10:16:00.022Z</time></trkpt><trkpt lat="40.3595483" lon="15.326335"><ele>690.0</ele><time>2026-03-28T10:16:01.022Z</time></trkpt><trkpt lat="40.35947" lon="15.326295"><ele>690.0</ele><time>2026-03-28T10:16:02.023Z</time></trkpt><trkpt lat="40.35937" lon="15.3262533"><ele>691.25</ele><time>2026-03-28T10:16:03.023Z</time></trkpt><trkpt lat="40.3592617" lon="15.32621"><ele>692.5</ele><time>2026-03-28T10:16:04.022Z</time></trkpt><trkpt lat="40.359145" lon="15.326155"><ele>693.75</ele><time>2026-03-28T10:16:05.022Z</time></trkpt><trkpt lat="40.3590317" lon="15.3260933"><ele>695.0</ele><time>2026-03-28T10:16:06.022Z</time></trkpt><trkpt lat="40.358915" lon="15.3260417"><ele>691.6</ele><time>2026-03-28T10:16:07.022Z</time></trkpt><trkpt lat="40.3588133" lon="15.32599"><ele>688.2</ele><time>2026-03-28T10:16:08.022Z</time></trkpt><trkpt lat="40.358725" lon="15.3259517"><ele>684.8</ele><time>2026-03-28T10:16:09.022Z</time></trkpt><trkpt lat="40.3586433" lon="15.325925"><ele>681.4</ele><time>2026-03-28T10:16:10.022Z</time></trkpt><trkpt lat="40.35856" lon="15.3258983"><ele>678.0</ele><time>2026-03-28T10:16:11.023Z</time></trkpt><trkpt lat="40.3584767" lon="15.32587"><ele>678.0</ele><time>2026-03-28T10:16:12.022Z</time></trkpt><trkpt lat="40.358385" lon="15.3258483"><ele>678.0</ele><time>2026-03-28T10:16:13.023Z</time></trkpt><trkpt lat="40.3582833" lon="15.325805"><ele>678.0</ele><time>2026-03-28T10:16:14.022Z</time></trkpt><trkpt lat="40.3581817" lon="15.3257583"><ele>678.0</ele><time>2026-03-28T10:16:15.022Z</time></trkpt><trkpt lat="40.3580767" lon="15.3256933"><ele>678.0</ele><time>2026-03-28T10:16:16.022Z</time></trkpt><trkpt lat="40.357965" lon="15.3256067"><ele>677.25</ele><time>2026-03-28T10:16:17.022Z</time></trkpt><trkpt lat="40.3578483" lon="15.3255233"><ele>676.5</ele><time>2026-03-28T10:16:18.022Z</time></trkpt><trkpt lat="40.3577283" lon="15.3254383"><ele>675.75</ele><time>2026-03-28T10:16:19.022Z</time></trkpt><trkpt lat="40.35761" lon="15.3253567"><ele>675.0</ele><time>2026-03-28T10:16:20.022Z</time></trkpt><trkpt lat="40.3575033" lon="15.325275"><ele>675.0</ele><time>2026-03-28T10:16:21.023Z</time></trkpt><trkpt lat="40.357395" lon="15.32519"><ele>675.0</ele><time>2026-03-28T10:16:22.022Z</time></trkpt><trkpt lat="40.3572983" lon="15.3251"><ele>675.0</ele><time>2026-03-28T10:16:23.022Z</time></trkpt><trkpt lat="40.357215" lon="15.3250117"><ele>675.0</ele><time>2026-03-28T10:16:24.023Z</time></trkpt><trkpt lat="40.357135" lon="15.32492"><ele>674.1666666666666</ele><time>2026-03-28T10:16:25.022Z</time></trkpt><trkpt lat="40.3570667" lon="15.3248433"><ele>673.3333333333334</ele><time>2026-03-28T10:16:26.022Z</time></trkpt><trkpt lat="40.3569983" lon="15.3247717"><ele>672.5</ele><time>2026-03-28T10:16:27.022Z</time></trkpt><trkpt lat="40.3569433" lon="15.3247017"><ele>671.6666666666667</ele><time>2026-03-28T10:16:28.022Z</time></trkpt><trkpt lat="40.3568983" lon="15.3246283"><ele>670.8333333333334</ele><time>2026-03-28T10:16:29.022Z</time></trkpt><trkpt lat="40.3568533" lon="15.3245517"><ele>670.0</ele><time>2026-03-28T10:16:30.023Z</time></trkpt><trkpt lat="40.3568067" lon="15.32447"><ele>671.4285714285713</ele><time>2026-03-28T10:16:31.022Z</time></trkpt><trkpt lat="40.3567567" lon="15.3243817"><ele>672.8571428571429</ele><time>2026-03-28T10:16:32.022Z</time></trkpt><trkpt lat="40.3567167" lon="15.324305"><ele>674.2857142857142</ele><time>2026-03-28T10:16:33.022Z</time></trkpt><trkpt lat="40.356685" lon="15.3242317"><ele>675.7142857142857</ele><time>2026-03-28T10:16:34.022Z</time></trkpt><trkpt lat="40.356645" lon="15.3241667"><ele>677.1428571428571</ele><time>2026-03-28T10:16:35.023Z</time></trkpt><trkpt lat="40.356595" lon="15.3241033"><ele>678.5714285714286</ele><time>2026-03-28T10:16:36.022Z</time></trkpt><trkpt lat="40.35654" lon="15.32404"><ele>680.0</ele><time>2026-03-28T10:16:37.022Z</time></trkpt><trkpt lat="40.3564767" lon="15.3239833"><ele>680.0</ele><time>2026-03-28T10:16:38.022Z</time></trkpt><trkpt lat="40.3564117" lon="15.3239233"><ele>680.0</ele><time>2026-03-28T10:16:39.022Z</time></trkpt><trkpt lat="40.3563517" lon="15.323865"><ele>680.0</ele><time>2026-03-28T10:16:40.023Z</time></trkpt><trkpt lat="40.356305" lon="15.323805"><ele>680.0</ele><time>2026-03-28T10:16:41.022Z</time></trkpt><trkpt lat="40.3562367" lon="15.3237267"><ele>680.0</ele><time>2026-03-28T10:16:43.022Z</time></trkpt><trkpt lat="40.3561383" lon="15.32372"><ele>680.0</ele><time>2026-03-28T10:16:46.022Z</time></trkpt><trkpt lat="40.356055" lon="15.323805"><ele>677.3333333333333</ele><time>2026-03-28T10:16:48.022Z</time></trkpt><trkpt lat="40.3559633" lon="15.3239183"><ele>674.6666666666666</ele><time>2026-03-28T10:16:50.023Z</time></trkpt><trkpt lat="40.3559117" lon="15.323995"><ele>672.0</ele><time>2026-03-28T10:16:51.022Z</time></trkpt><trkpt lat="40.3558667" lon="15.3240733"><ele>669.3333333333334</ele><time>2026-03-28T10:16:52.022Z</time></trkpt><trkpt lat="40.3558267" lon="15.324145"><ele>666.6666666666667</ele><time>2026-03-28T10:16:53.023Z</time></trkpt><trkpt lat="40.3557967" lon="15.3242183"><ele>664.0</ele><time>2026-03-28T10:16:54.022Z</time></trkpt><trkpt lat="40.35576" lon="15.3243233"><ele>664.0</ele><time>2026-03-28T10:16:56.022Z</time></trkpt><trkpt lat="40.3557133" lon="15.3243933"><ele>664.0</ele><time>2026-03-28T10:16:58.022Z</time></trkpt><trkpt lat="40.3556633" lon="15.3244683"><ele>664.0</ele><time>2026-03-28T10:17:01.023Z</time></trkpt><trkpt lat="40.3556033" lon="15.3245417"><ele>664.0</ele><time>2026-03-28T10:17:05.022Z</time></trkpt><trkpt lat="40.35555" lon="15.324635"><ele>664.0</ele><time>2026-03-28T10:17:07.023Z</time></trkpt><trkpt lat="40.355485" lon="15.3247517"><ele>664.0</ele><time>2026-03-28T10:17:09.022Z</time></trkpt><trkpt lat="40.35542" lon="15.3248817"><ele>660.6666666666667</ele><time>2026-03-28T10:17:11.023Z</time></trkpt><trkpt lat="40.3553467" lon="15.3250067"><ele>657.3333333333334</ele><time>2026-03-28T10:17:13.022Z</time></trkpt><trkpt lat="40.3553033" lon="15.3250683"><ele>654.0</ele><time>2026-03-28T10:17:14.023Z</time></trkpt><trkpt lat="40.355255" lon="15.3251333"><ele>650.6666666666666</ele><time>2026-03-28T10:17:15.022Z</time></trkpt><trkpt lat="40.3552033" lon="15.325205"><ele>647.3333333333333</ele><time>2026-03-28T10:17:16.022Z</time></trkpt><trkpt lat="40.3551483" lon="15.3252767"><ele>644.0</ele><time>2026-03-28T10:17:17.023Z</time></trkpt><trkpt lat="40.3550933" lon="15.325355"><ele>644.0</ele><time>2026-03-28T10:17:18.022Z</time></trkpt><trkpt lat="40.3550367" lon="15.3254383"><ele>644.0</ele><time>2026-03-28T10:17:19.023Z</time></trkpt><trkpt lat="40.3549767" lon="15.325515"><ele>644.0</ele><time>2026-03-28T10:17:20.023Z</time></trkpt><trkpt lat="40.3549167" lon="15.325585"><ele>644.0</ele><time>2026-03-28T10:17:21.023Z</time></trkpt><trkpt lat="40.35486" lon="15.3256467"><ele>644.0</ele><time>2026-03-28T10:17:22.023Z</time></trkpt><trkpt lat="40.3547933" lon="15.3257017"><ele>644.0</ele><time>2026-03-28T10:17:23.023Z</time></trkpt><trkpt lat="40.35472" lon="15.3257483"><ele>641.5714285714286</ele><time>2026-03-28T10:17:24.022Z</time></trkpt><trkpt lat="40.35465" lon="15.32579"><ele>639.1428571428571</ele><time>2026-03-28T10:17:25.022Z</time></trkpt><trkpt lat="40.3545833" lon="15.325835"><ele>636.7142857142858</ele><time>2026-03-28T10:17:26.023Z</time></trkpt><trkpt lat="40.354525" lon="15.3258767"><ele>634.2857142857142</ele><time>2026-03-28T10:17:27.023Z</time></trkpt><trkpt lat="40.354465" lon="15.32592"><ele>631.8571428571429</ele><time>2026-03-28T10:17:28.022Z</time></trkpt><trkpt lat="40.3543983" lon="15.3259683"><ele>629.4285714285714</ele><time>2026-03-28T10:17:29.022Z</time></trkpt><trkpt lat="40.3543383" lon="15.3260233"><ele>627.0</ele><time>2026-03-28T10:17:30.023Z</time></trkpt><trkpt lat="40.3542783" lon="15.3260667"><ele>627.0</ele><time>2026-03-28T10:17:31.022Z</time></trkpt><trkpt lat="40.35422" lon="15.3260983"><ele>627.0</ele><time>2026-03-28T10:17:32.023Z</time></trkpt><trkpt lat="40.3540883" lon="15.326125"><ele>627.0</ele><time>2026-03-28T10:17:34.023Z</time></trkpt><trkpt lat="40.35402" lon="15.3261133"><ele>627.0</ele><time>2026-03-28T10:17:35.022Z</time></trkpt><trkpt lat="40.3539483" lon="15.3260883"><ele>627.0</ele><time>2026-03-28T10:17:36.023Z</time></trkpt><trkpt lat="40.3538633" lon="15.3260517"><ele>627.0</ele><time>2026-03-28T10:17:37.022Z</time></trkpt><trkpt lat="40.3537717" lon="15.3260217"><ele>624.6</ele><time>2026-03-28T10:17:38.022Z</time></trkpt><trkpt lat="40.3536867" lon="15.3259917"><ele>622.2</ele><time>2026-03-28T10:17:39.023Z</time></trkpt><trkpt lat="40.353595" lon="15.32596"><ele>619.8</ele><time>2026-03-28T10:17:40.023Z</time></trkpt><trkpt lat="40.353505" lon="15.3259267"><ele>617.4</ele><time>2026-03-28T10:17:41.023Z</time></trkpt><trkpt lat="40.3534217" lon="15.32589"><ele>615.0</ele><time>2026-03-28T10:17:42.023Z</time></trkpt><trkpt lat="40.3533417" lon="15.32585"><ele>615.0</ele><time>2026-03-28T10:17:43.022Z</time></trkpt><trkpt lat="40.3532633" lon="15.3258083"><ele>615.0</ele><time>2026-03-28T10:17:44.023Z</time></trkpt><trkpt lat="40.353195" lon="15.3257833"><ele>615.0</ele><time>2026-03-28T10:17:45.023Z</time></trkpt><trkpt lat="40.3531317" lon="15.3257533"><ele>615.0</ele><time>2026-03-28T10:17:46.022Z</time></trkpt><trkpt lat="40.3530733" lon="15.3257083"><ele>615.0</ele><time>2026-03-28T10:17:47.023Z</time></trkpt><trkpt lat="40.3530317" lon="15.3256417"><ele>615.0</ele><time>2026-03-28T10:17:48.023Z</time></trkpt><trkpt lat="40.3530183" lon="15.325495"><ele>614.6</ele><time>2026-03-28T10:17:50.023Z</time></trkpt><trkpt lat="40.3530433" lon="15.3254183"><ele>614.2</ele><time>2026-03-28T10:17:51.022Z</time></trkpt><trkpt lat="40.3531017" lon="15.32533"><ele>613.8</ele><time>2026-03-28T10:17:52.023Z</time></trkpt><trkpt lat="40.3531567" lon="15.3252317"><ele>613.4</ele><time>2026-03-28T10:17:53.023Z</time></trkpt><trkpt lat="40.3532" lon="15.3251083"><ele>613.0</ele><time>2026-03-28T10:17:54.022Z</time></trkpt><trkpt lat="40.3532317" lon="15.3249683"><ele>613.0</ele><time>2026-03-28T10:17:55.023Z</time></trkpt><trkpt lat="40.3532533" lon="15.3248417"><ele>613.0</ele><time>2026-03-28T10:17:56.022Z</time></trkpt><trkpt lat="40.3532633" lon="15.3247267"><ele>613.0</ele><time>2026-03-28T10:17:57.023Z</time></trkpt><trkpt lat="40.3532433" lon="15.3246133"><ele>613.0</ele><time>2026-03-28T10:17:58.023Z</time></trkpt><trkpt lat="40.3532217" lon="15.3245083"><ele>613.0</ele><time>2026-03-28T10:17:59.022Z</time></trkpt><trkpt lat="40.353215" lon="15.3244033"><ele>613.0</ele><time>2026-03-28T10:18:00.022Z</time></trkpt><trkpt lat="40.3532367" lon="15.3242883"><ele>612.4</ele><time>2026-03-28T10:18:01.022Z</time></trkpt><trkpt lat="40.353285" lon="15.3241733"><ele>611.8</ele><time>2026-03-28T10:18:02.022Z</time></trkpt><trkpt lat="40.353335" lon="15.3240733"><ele>611.2</ele><time>2026-03-28T10:18:03.023Z</time></trkpt><trkpt lat="40.35338" lon="15.3239767"><ele>610.6</ele><time>2026-03-28T10:18:04.022Z</time></trkpt><trkpt lat="40.35341" lon="15.3238833"><ele>610.0</ele><time>2026-03-28T10:18:05.022Z</time></trkpt><trkpt lat="40.3533867" lon="15.32376"><ele>610.0</ele><time>2026-03-28T10:18:07.022Z</time></trkpt><trkpt lat="40.3532717" lon="15.32366"><ele>610.0</ele><time>2026-03-28T10:18:09.022Z</time></trkpt><trkpt lat="40.3531933" lon="15.3235883"><ele>610.0</ele><time>2026-03-28T10:18:10.023Z</time></trkpt><trkpt lat="40.3531133" lon="15.3235"><ele>610.0</ele><time>2026-03-28T10:18:11.022Z</time></trkpt><trkpt lat="40.353045" lon="15.32339"><ele>610.0</ele><time>2026-03-28T10:18:12.022Z</time></trkpt><trkpt lat="40.352985" lon="15.3232533"><ele>609.25</ele><time>2026-03-28T10:18:13.023Z</time></trkpt><trkpt lat="40.35293" lon="15.3231"><ele>608.5</ele><time>2026-03-28T10:18:14.022Z</time></trkpt><trkpt lat="40.35287" lon="15.3229383"><ele>607.75</ele><time>2026-03-28T10:18:15.023Z</time></trkpt><trkpt lat="40.3528067" lon="15.32277"><ele>607.0</ele><time>2026-03-28T10:18:16.023Z</time></trkpt><trkpt lat="40.352725" lon="15.3225983"><ele>607.0</ele><time>2026-03-28T10:18:17.023Z</time></trkpt><trkpt lat="40.352645" lon="15.3224183"><ele>607.0</ele><time>2026-03-28T10:18:18.022Z</time></trkpt><trkpt lat="40.3525783" lon="15.3222517"><ele>607.0</ele><time>2026-03-28T10:18:19.023Z</time></trkpt><trkpt lat="40.3525067" lon="15.3220917"><ele>607.0</ele><time>2026-03-28T10:18:20.023Z</time></trkpt><trkpt lat="40.3524383" lon="15.32196"><ele>607.4</ele><time>2026-03-28T10:18:21.023Z</time></trkpt><trkpt lat="40.352355" lon="15.3218633"><ele>607.8000000000001</ele><time>2026-03-28T10:18:22.023Z</time></trkpt><trkpt lat="40.3522683" lon="15.3218033"><ele>608.2</ele><time>2026-03-28T10:18:23.022Z</time></trkpt><trkpt lat="40.3521767" lon="15.32177"><ele>608.6</ele><time>2026-03-28T10:18:24.022Z</time></trkpt><trkpt lat="40.3520867" lon="15.3217567"><ele>609.0</ele><time>2026-03-28T10:18:25.022Z</time></trkpt><trkpt lat="40.3520017" lon="15.3217417"><ele>609.0</ele><time>2026-03-28T10:18:26.023Z</time></trkpt><trkpt lat="40.351925" lon="15.3217"><ele>609.0</ele><time>2026-03-28T10:18:27.022Z</time></trkpt><trkpt lat="40.3518617" lon="15.321625"><ele>609.0</ele><time>2026-03-28T10:18:28.022Z</time></trkpt><trkpt lat="40.3518067" lon="15.3215233"><ele>609.0</ele><time>2026-03-28T10:18:29.023Z</time></trkpt><trkpt lat="40.3517467" lon="15.3214283"><ele>609.0</ele><time>2026-03-28T10:18:30.022Z</time></trkpt><trkpt lat="40.3516567" lon="15.32135"><ele>608.75</ele><time>2026-03-28T10:18:31.022Z</time></trkpt><trkpt lat="40.3515567" lon="15.3212967"><ele>608.5</ele><time>2026-03-28T10:18:32.023Z</time></trkpt><trkpt lat="40.3514383" lon="15.3212583"><ele>608.25</ele><time>2026-03-28T10:18:33.023Z</time></trkpt><trkpt lat="40.3513267" lon="15.3212133"><ele>608.0</ele><time>2026-03-28T10:18:34.023Z</time></trkpt><trkpt lat="40.351225" lon="15.3211633"><ele>608.0</ele><time>2026-03-28T10:18:35.022Z</time></trkpt><trkpt lat="40.3511317" lon="15.3211067"><ele>608.0</ele><time>2026-03-28T10:18:36.022Z</time></trkpt><trkpt lat="40.3510417" lon="15.3210483"><ele>608.0</ele><time>2026-03-28T10:18:37.022Z</time></trkpt><trkpt lat="40.3509467" lon="15.3210067"><ele>608.0</ele><time>2026-03-28T10:18:38.023Z</time></trkpt><trkpt lat="40.3508517" lon="15.3209917"><ele>608.0</ele><time>2026-03-28T10:18:39.023Z</time></trkpt><trkpt lat="40.3507617" lon="15.3209817"><ele>608.0</ele><time>2026-03-28T10:18:40.023Z</time></trkpt><trkpt lat="40.3506767" lon="15.32095"><ele>608.0</ele><time>2026-03-28T10:18:41.022Z</time></trkpt><trkpt lat="40.3506" lon="15.3208833"><ele>608.0</ele><time>2026-03-28T10:18:42.022Z</time></trkpt><trkpt lat="40.3505117" lon="15.3207833"><ele>608.0</ele><time>2026-03-28T10:18:43.023Z</time></trkpt><trkpt lat="40.3504167" lon="15.3206783"><ele>608.0</ele><time>2026-03-28T10:18:44.022Z</time></trkpt><trkpt lat="40.350325" lon="15.3205733"><ele>606.5</ele><time>2026-03-28T10:18:45.023Z</time></trkpt><trkpt lat="40.3502317" lon="15.3204767"><ele>605.0</ele><time>2026-03-28T10:18:46.023Z</time></trkpt><trkpt lat="40.3501567" lon="15.3204017"><ele>603.5</ele><time>2026-03-28T10:18:47.022Z</time></trkpt><trkpt lat="40.3500833" lon="15.32034"><ele>602.0</ele><time>2026-03-28T10:18:48.022Z</time></trkpt><trkpt lat="40.35001" lon="15.3203"><ele>600.5</ele><time>2026-03-28T10:18:49.022Z</time></trkpt><trkpt lat="40.3499483" lon="15.320275"><ele>599.0</ele><time>2026-03-28T10:18:50.023Z</time></trkpt><trkpt lat="40.3498317" lon="15.3203317"><ele>599.0</ele><time>2026-03-28T10:18:52.022Z</time></trkpt><trkpt lat="40.3497667" lon="15.320405"><ele>599.0</ele><time>2026-03-28T10:18:53.022Z</time></trkpt><trkpt lat="40.349695" lon="15.3204917"><ele>599.0</ele><time>2026-03-28T10:18:54.023Z</time></trkpt><trkpt lat="40.3496133" lon="15.3205733"><ele>599.0</ele><time>2026-03-28T10:18:55.022Z</time></trkpt><trkpt lat="40.349525" lon="15.3206483"><ele>599.0</ele><time>2026-03-28T10:18:56.023Z</time></trkpt><trkpt lat="40.34943" lon="15.3207033"><ele>595.2</ele><time>2026-03-28T10:18:57.023Z</time></trkpt><trkpt lat="40.3493267" lon="15.3207517"><ele>591.4</ele><time>2026-03-28T10:18:58.023Z</time></trkpt><trkpt lat="40.3492233" lon="15.3208"><ele>587.6</ele><time>2026-03-28T10:18:59.022Z</time></trkpt><trkpt lat="40.3491283" lon="15.3208633"><ele>583.8</ele><time>2026-03-28T10:19:00.023Z</time></trkpt><trkpt lat="40.349035" lon="15.320945"><ele>580.0</ele><time>2026-03-28T10:19:01.023Z</time></trkpt><trkpt lat="40.3489467" lon="15.3210367"><ele>577.6</ele><time>2026-03-28T10:19:02.022Z</time></trkpt><trkpt lat="40.348865" lon="15.3211317"><ele>575.2</ele><time>2026-03-28T10:19:03.022Z</time></trkpt><trkpt lat="40.348785" lon="15.32122"><ele>572.8</ele><time>2026-03-28T10:19:04.023Z</time></trkpt><trkpt lat="40.3487083" lon="15.3213133"><ele>570.4</ele><time>2026-03-28T10:19:05.022Z</time></trkpt><trkpt lat="40.348635" lon="15.3214067"><ele>568.0</ele><time>2026-03-28T10:19:06.022Z</time></trkpt><trkpt lat="40.348565" lon="15.32151"><ele>567.1999999999999</ele><time>2026-03-28T10:19:07.023Z</time></trkpt><trkpt lat="40.3485" lon="15.3216133"><ele>566.4</ele><time>2026-03-28T10:19:08.023Z</time></trkpt><trkpt lat="40.3484417" lon="15.3217167"><ele>565.5999999999999</ele><time>2026-03-28T10:19:09.023Z</time></trkpt><trkpt lat="40.3483867" lon="15.3218233"><ele>564.8</ele><time>2026-03-28T10:19:10.022Z</time></trkpt><trkpt lat="40.348335" lon="15.32193"><ele>564.0</ele><time>2026-03-28T10:19:11.023Z</time></trkpt><trkpt lat="40.34829" lon="15.3220383"><ele>564.0</ele><time>2026-03-28T10:19:12.022Z</time></trkpt><trkpt lat="40.3482333" lon="15.322145"><ele>564.0</ele><time>2026-03-28T10:19:13.022Z</time></trkpt><trkpt lat="40.3481767" lon="15.3222517"><ele>564.0</ele><time>2026-03-28T10:19:14.022Z</time></trkpt><trkpt lat="40.3481317" lon="15.322355"><ele>564.0</ele><time>2026-03-28T10:19:15.022Z</time></trkpt><trkpt lat="40.3480883" lon="15.3224533"><ele>564.0</ele><time>2026-03-28T10:19:16.023Z</time></trkpt><trkpt lat="40.3480417" lon="15.3225433"><ele>561.1666666666666</ele><time>2026-03-28T10:19:17.023Z</time></trkpt><trkpt lat="40.3479933" lon="15.3226233"><ele>558.3333333333334</ele><time>2026-03-28T10:19:18.022Z</time></trkpt><trkpt lat="40.3479383" lon="15.3227117"><ele>555.5</ele><time>2026-03-28T10:19:19.022Z</time></trkpt><trkpt lat="40.3478817" lon="15.3227933"><ele>552.6666666666667</ele><time>2026-03-28T10:19:20.022Z</time></trkpt><trkpt lat="40.347825" lon="15.3228717"><ele>549.8333333333334</ele><time>2026-03-28T10:19:21.023Z</time></trkpt><trkpt lat="40.3477817" lon="15.32294"><ele>547.0</ele><time>2026-03-28T10:19:22.022Z</time></trkpt><trkpt lat="40.34772" lon="15.3230517"><ele>545.8333333333334</ele><time>2026-03-28T10:19:24.022Z</time></trkpt><trkpt lat="40.3476367" lon="15.3231517"><ele>544.6666666666667</ele><time>2026-03-28T10:19:26.022Z</time></trkpt><trkpt lat="40.34755" lon="15.3232667"><ele>543.5</ele><time>2026-03-28T10:19:28.023Z</time></trkpt><trkpt lat="40.3475067" lon="15.3233333"><ele>542.3333333333334</ele><time>2026-03-28T10:19:29.022Z</time></trkpt><trkpt lat="40.3474617" lon="15.323405"><ele>541.1666666666666</ele><time>2026-03-28T10:19:30.022Z</time></trkpt><trkpt lat="40.347415" lon="15.3234717"><ele>540.0</ele><time>2026-03-28T10:19:31.022Z</time></trkpt><trkpt lat="40.3473583" lon="15.3235317"><ele>540.0</ele><time>2026-03-28T10:19:32.022Z</time></trkpt><trkpt lat="40.347305" lon="15.3235983"><ele>540.0</ele><time>2026-03-28T10:19:33.023Z</time></trkpt><trkpt lat="40.34725" lon="15.3236667"><ele>540.0</ele><time>2026-03-28T10:19:34.023Z</time></trkpt><trkpt lat="40.3471933" lon="15.3237383"><ele>540.0</ele><time>2026-03-28T10:19:35.023Z</time></trkpt><trkpt lat="40.3471333" lon="15.3238083"><ele>540.0</ele><time>2026-03-28T10:19:36.023Z</time></trkpt><trkpt lat="40.3470667" lon="15.323875"><ele>540.0</ele><time>2026-03-28T10:19:37.023Z</time></trkpt><trkpt lat="40.3470017" lon="15.3239383"><ele>537.2857142857142</ele><time>2026-03-28T10:19:38.022Z</time></trkpt><trkpt lat="40.3469283" lon="15.3239883"><ele>534.5714285714286</ele><time>2026-03-28T10:19:39.022Z</time></trkpt><trkpt lat="40.3468667" lon="15.324035"><ele>531.8571428571429</ele><time>2026-03-28T10:19:40.023Z</time></trkpt><trkpt lat="40.34681" lon="15.3240867"><ele>529.1428571428571</ele><time>2026-03-28T10:19:41.022Z</time></trkpt><trkpt lat="40.346755" lon="15.3241417"><ele>526.4285714285714</ele><time>2026-03-28T10:19:42.022Z</time></trkpt><trkpt lat="40.346695" lon="15.3241983"><ele>523.7142857142857</ele><time>2026-03-28T10:19:43.023Z</time></trkpt><trkpt lat="40.3466317" lon="15.324255"><ele>521.0</ele><time>2026-03-28T10:19:44.022Z</time></trkpt><trkpt lat="40.346565" lon="15.324315"><ele>521.0</ele><time>2026-03-28T10:19:45.022Z</time></trkpt><trkpt lat="40.3465017" lon="15.3243733"><ele>521.0</ele><time>2026-03-28T10:19:46.023Z</time></trkpt><trkpt lat="40.3464483" lon="15.3244367"><ele>521.0</ele><time>2026-03-28T10:19:47.022Z</time></trkpt><trkpt lat="40.3464" lon="15.324505"><ele>521.0</ele><time>2026-03-28T10:19:48.022Z</time></trkpt><trkpt lat="40.3463533" lon="15.3246017"><ele>521.0</ele><time>2026-03-28T10:19:49.022Z</time></trkpt><trkpt lat="40.3463117" lon="15.324725"><ele>521.0</ele><time>2026-03-28T10:19:50.022Z</time></trkpt><trkpt lat="40.34626" lon="15.3248483"><ele>517.8</ele><time>2026-03-28T10:19:51.023Z</time></trkpt><trkpt lat="40.3462117" lon="15.324955"><ele>514.6</ele><time>2026-03-28T10:19:52.023Z</time></trkpt><trkpt lat="40.346155" lon="15.3250533"><ele>511.4</ele><time>2026-03-28T10:19:53.023Z</time></trkpt><trkpt lat="40.34608" lon="15.3251367"><ele>508.2</ele><time>2026-03-28T10:19:54.023Z</time></trkpt><trkpt lat="40.3459917" lon="15.3252083"><ele>505.0</ele><time>2026-03-28T10:19:55.023Z</time></trkpt><trkpt lat="40.3458983" lon="15.325275"><ele>505.0</ele><time>2026-03-28T10:19:56.022Z</time></trkpt><trkpt lat="40.3458033" lon="15.3253467"><ele>505.0</ele><time>2026-03-28T10:19:57.023Z</time></trkpt><trkpt lat="40.3457133" lon="15.32541"><ele>505.0</ele><time>2026-03-28T10:19:58.022Z</time></trkpt><trkpt lat="40.3456267" lon="15.32547"><ele>505.0</ele><time>2026-03-28T10:19:59.023Z</time></trkpt><trkpt lat="40.3455517" lon="15.3255267"><ele>505.0</ele><time>2026-03-28T10:20:00.023Z</time></trkpt><trkpt lat="40.34547" lon="15.3255767"><ele>503.6</ele><time>2026-03-28T10:20:01.022Z</time></trkpt><trkpt lat="40.34539" lon="15.3256217"><ele>502.2</ele><time>2026-03-28T10:20:02.022Z</time></trkpt><trkpt lat="40.3453067" lon="15.3256567"><ele>500.79999999999995</ele><time>2026-03-28T10:20:03.023Z</time></trkpt><trkpt lat="40.3452117" lon="15.3256817"><ele>499.4</ele><time>2026-03-28T10:20:04.022Z</time></trkpt><trkpt lat="40.345115" lon="15.3257"><ele>498.0</ele><time>2026-03-28T10:20:05.022Z</time></trkpt><trkpt lat="40.3450183" lon="15.3257267"><ele>498.0</ele><time>2026-03-28T10:20:06.023Z</time></trkpt><trkpt lat="40.3449233" lon="15.325755"><ele>498.0</ele><time>2026-03-28T10:20:07.022Z</time></trkpt><trkpt lat="40.3448283" lon="15.3257867"><ele>498.0</ele><time>2026-03-28T10:20:08.022Z</time></trkpt><trkpt lat="40.34475" lon="15.3258317"><ele>498.0</ele><time>2026-03-28T10:20:09.022Z</time></trkpt><trkpt lat="40.3446817" lon="15.3258767"><ele>498.0</ele><time>2026-03-28T10:20:10.022Z</time></trkpt><trkpt lat="40.344615" lon="15.325945"><ele>498.0</ele><time>2026-03-28T10:20:11.023Z</time></trkpt><trkpt lat="40.3445467" lon="15.326035"><ele>496.4</ele><time>2026-03-28T10:20:12.022Z</time></trkpt><trkpt lat="40.3444817" lon="15.3261317"><ele>494.79999999999995</ele><time>2026-03-28T10:20:13.022Z</time></trkpt><trkpt lat="40.3444117" lon="15.326225"><ele>493.2</ele><time>2026-03-28T10:20:14.022Z</time></trkpt><trkpt lat="40.3443483" lon="15.3263067"><ele>491.6</ele><time>2026-03-28T10:20:15.022Z</time></trkpt><trkpt lat="40.3442817" lon="15.3263833"><ele>490.0</ele><time>2026-03-28T10:20:16.022Z</time></trkpt><trkpt lat="40.34421" lon="15.32645"><ele>489.50000000000006</ele><time>2026-03-28T10:20:17.023Z</time></trkpt><trkpt lat="40.34413" lon="15.3265017"><ele>489.0</ele><time>2026-03-28T10:20:18.022Z</time></trkpt><trkpt lat="40.3440417" lon="15.3265417"><ele>488.5</ele><time>2026-03-28T10:20:19.022Z</time></trkpt><trkpt lat="40.3439667" lon="15.3265817"><ele>488.0</ele><time>2026-03-28T10:20:20.022Z</time></trkpt><trkpt lat="40.3439017" lon="15.3266283"><ele>487.50000000000006</ele><time>2026-03-28T10:20:21.022Z</time></trkpt><trkpt lat="40.3438317" lon="15.3266717"><ele>487.0</ele><time>2026-03-28T10:20:22.022Z</time></trkpt><trkpt lat="40.3437617" lon="15.3266983"><ele>486.40000000000003</ele><time>2026-03-28T10:20:23.022Z</time></trkpt><trkpt lat="40.34369" lon="15.3267133"><ele>485.80000000000007</ele><time>2026-03-28T10:20:24.022Z</time></trkpt><trkpt lat="40.343625" lon="15.326725"><ele>485.2</ele><time>2026-03-28T10:20:25.023Z</time></trkpt><trkpt lat="40.3435167" lon="15.3267567"><ele>484.6</ele><time>2026-03-28T10:20:27.022Z</time></trkpt><trkpt lat="40.3434317" lon="15.3267217"><ele>484.0</ele><time>2026-03-28T10:20:29.023Z</time></trkpt><trkpt lat="40.3433567" lon="15.3265833"><ele>484.00000000000006</ele><time>2026-03-28T10:20:31.023Z</time></trkpt><trkpt lat="40.3433117" lon="15.3265067"><ele>484.0</ele><time>2026-03-28T10:20:32.022Z</time></trkpt><trkpt lat="40.3432567" lon="15.3264367"><ele>484.0</ele><time>2026-03-28T10:20:33.022Z</time></trkpt><trkpt lat="40.3431933" lon="15.3263767"><ele>484.0</ele><time>2026-03-28T10:20:34.022Z</time></trkpt><trkpt lat="40.3431167" lon="15.32632"><ele>484.00000000000006</ele><time>2026-03-28T10:20:35.022Z</time></trkpt><trkpt lat="40.3430333" lon="15.326275"><ele>484.0</ele><time>2026-03-28T10:20:36.022Z</time></trkpt><trkpt lat="40.3429533" lon="15.3262317"><ele>481.50000000000006</ele><time>2026-03-28T10:20:37.023Z</time></trkpt><trkpt lat="40.3428867" lon="15.3261983"><ele>479.0</ele><time>2026-03-28T10:20:38.022Z</time></trkpt><trkpt lat="40.3427683" lon="15.3261533"><ele>476.5</ele><time>2026-03-28T10:20:40.022Z</time></trkpt><trkpt lat="40.3427033" lon="15.3261483"><ele>474.0</ele><time>2026-03-28T10:20:41.022Z</time></trkpt><trkpt lat="40.3426" lon="15.3261567"><ele>471.50000000000006</ele><time>2026-03-28T10:20:43.023Z</time></trkpt><trkpt lat="40.342525" lon="15.32619"><ele>469.0</ele><time>2026-03-28T10:20:45.023Z</time></trkpt><trkpt lat="40.342465" lon="15.32626"><ele>469.79999999999995</ele><time>2026-03-28T10:20:47.023Z</time></trkpt><trkpt lat="40.3423983" lon="15.3264033"><ele>470.59999999999997</ele><time>2026-03-28T10:20:49.023Z</time></trkpt><trkpt lat="40.3423617" lon="15.326495"><ele>471.4</ele><time>2026-03-28T10:20:50.022Z</time></trkpt><trkpt lat="40.3423167" lon="15.3265933"><ele>472.2</ele><time>2026-03-28T10:20:51.023Z</time></trkpt><trkpt lat="40.3422483" lon="15.3267033"><ele>473.0</ele><time>2026-03-28T10:20:52.022Z</time></trkpt><trkpt lat="40.34217" lon="15.3267933"><ele>470.8333333333333</ele><time>2026-03-28T10:20:53.023Z</time></trkpt><trkpt lat="40.3420983" lon="15.3268767"><ele>468.66666666666663</ele><time>2026-03-28T10:20:54.023Z</time></trkpt><trkpt lat="40.3420283" lon="15.32695"><ele>466.5</ele><time>2026-03-28T10:20:55.023Z</time></trkpt><trkpt lat="40.3419633" lon="15.3270183"><ele>464.33333333333337</ele><time>2026-03-28T10:20:56.022Z</time></trkpt><trkpt lat="40.3419067" lon="15.3270817"><ele>462.1666666666667</ele><time>2026-03-28T10:20:57.023Z</time></trkpt><trkpt lat="40.3418517" lon="15.3271383"><ele>460.0</ele><time>2026-03-28T10:20:58.022Z</time></trkpt><trkpt lat="40.3417667" lon="15.32721"><ele>460.4</ele><time>2026-03-28T10:21:00.022Z</time></trkpt><trkpt lat="40.3416783" lon="15.3272933"><ele>460.8</ele><time>2026-03-28T10:21:02.022Z</time></trkpt><trkpt lat="40.3415817" lon="15.32739"><ele>461.20000000000005</ele><time>2026-03-28T10:21:04.023Z</time></trkpt><trkpt lat="40.3415333" lon="15.3274433"><ele>461.6</ele><time>2026-03-28T10:21:05.022Z</time></trkpt><trkpt lat="40.34148" lon="15.3274917"><ele>462.0</ele><time>2026-03-28T10:21:06.022Z</time></trkpt><trkpt lat="40.3413767" lon="15.3275833"><ele>459.40000000000003</ele><time>2026-03-28T10:21:08.023Z</time></trkpt><trkpt lat="40.3412783" lon="15.3276367"><ele>456.80000000000007</ele><time>2026-03-28T10:21:10.022Z</time></trkpt><trkpt lat="40.3411733" lon="15.3276617"><ele>454.2</ele><time>2026-03-28T10:21:12.022Z</time></trkpt><trkpt lat="40.3410667" lon="15.3276683"><ele>451.6</ele><time>2026-03-28T10:21:14.022Z</time></trkpt><trkpt lat="40.3409783" lon="15.3276667"><ele>449.0</ele><time>2026-03-28T10:21:16.023Z</time></trkpt><trkpt lat="40.3409133" lon="15.3276283"><ele>448.99999999999994</ele><time>2026-03-28T10:21:18.022Z</time></trkpt><trkpt lat="40.340865" lon="15.3275483"><ele>449.0</ele><time>2026-03-28T10:21:20.022Z</time></trkpt><trkpt lat="40.3407983" lon="15.32741"><ele>449.0</ele><time>2026-03-28T10:21:22.023Z</time></trkpt><trkpt lat="40.34075" lon="15.3273283"><ele>449.0</ele><time>2026-03-28T10:21:23.022Z</time></trkpt><trkpt lat="40.3407017" lon="15.3272483"><ele>448.99999999999994</ele><time>2026-03-28T10:21:24.023Z</time></trkpt><trkpt lat="40.3406567" lon="15.3271733"><ele>449.0</ele><time>2026-03-28T10:21:25.022Z</time></trkpt><trkpt lat="40.3406117" lon="15.3270967"><ele>448.79999999999995</ele><time>2026-03-28T10:21:26.023Z</time></trkpt><trkpt lat="40.3405717" lon="15.32702"><ele>448.59999999999997</ele><time>2026-03-28T10:21:27.022Z</time></trkpt><trkpt lat="40.3405133" lon="15.3268933"><ele>448.4</ele><time>2026-03-28T10:21:29.022Z</time></trkpt><trkpt lat="40.3404817" lon="15.3267733"><ele>448.2</ele><time>2026-03-28T10:21:31.022Z</time></trkpt><trkpt lat="40.3404667" lon="15.3266567"><ele>448.0</ele><time>2026-03-28T10:21:33.023Z</time></trkpt><trkpt lat="40.3404383" lon="15.326525"><ele>444.4</ele><time>2026-03-28T10:21:35.022Z</time></trkpt><trkpt lat="40.3404067" lon="15.3263667"><ele>440.79999999999995</ele><time>2026-03-28T10:21:37.023Z</time></trkpt><trkpt lat="40.3403833" lon="15.3262883"><ele>437.2</ele><time>2026-03-28T10:21:38.023Z</time></trkpt><trkpt lat="40.340325" lon="15.3261483"><ele>433.6</ele><time>2026-03-28T10:21:40.023Z</time></trkpt><trkpt lat="40.3402733" lon="15.32608"><ele>430.0</ele><time>2026-03-28T10:21:41.023Z</time></trkpt><trkpt lat="40.3402133" lon="15.3260217"><ele>430.00000000000006</ele><time>2026-03-28T10:21:42.022Z</time></trkpt><trkpt lat="40.3401517" lon="15.3259583"><ele>430.0</ele><time>2026-03-28T10:21:43.022Z</time></trkpt><trkpt lat="40.3400867" lon="15.3258967"><ele>430.0</ele><time>2026-03-28T10:21:44.023Z</time></trkpt><trkpt lat="40.3400183" lon="15.3258467"><ele>430.0</ele><time>2026-03-28T10:21:45.023Z</time></trkpt><trkpt lat="40.339945" lon="15.3257833"><ele>430.00000000000006</ele><time>2026-03-28T10:21:46.023Z</time></trkpt><trkpt lat="40.3398717" lon="15.3257317"><ele>430.0</ele><time>2026-03-28T10:21:47.022Z</time></trkpt><trkpt lat="40.3397933" lon="15.3256867"><ele>428.00000000000006</ele><time>2026-03-28T10:21:48.022Z</time></trkpt><trkpt lat="40.339715" lon="15.3256467"><ele>426.0</ele><time>2026-03-28T10:21:49.022Z</time></trkpt><trkpt lat="40.3396383" lon="15.3256067"><ele>424.0</ele><time>2026-03-28T10:21:50.022Z</time></trkpt><trkpt lat="40.3395567" lon="15.3255667"><ele>422.0</ele><time>2026-03-28T10:21:51.022Z</time></trkpt><trkpt lat="40.3394817" lon="15.325525"><ele>420.00000000000006</ele><time>2026-03-28T10:21:52.022Z</time></trkpt><trkpt lat="40.3394067" lon="15.3254817"><ele>418.0</ele><time>2026-03-28T10:21:53.022Z</time></trkpt><trkpt lat="40.33933" lon="15.3254367"><ele>417.0</ele><time>2026-03-28T10:21:54.022Z</time></trkpt><trkpt lat="40.339255" lon="15.3253933"><ele>416.0</ele><time>2026-03-28T10:21:55.022Z</time></trkpt><trkpt lat="40.3391833" lon="15.3253617"><ele>415.0</ele><time>2026-03-28T10:21:56.023Z</time></trkpt><trkpt lat="40.3391183" lon="15.32534"><ele>414.0</ele><time>2026-03-28T10:21:57.022Z</time></trkpt><trkpt lat="40.339" lon="15.3252983"><ele>413.0</ele><time>2026-03-28T10:21:59.023Z</time></trkpt><trkpt lat="40.33888" lon="15.3252317"><ele>412.16666666666663</ele><time>2026-03-28T10:22:01.023Z</time></trkpt><trkpt lat="40.3387867" lon="15.3251433"><ele>411.3333333333333</ele><time>2026-03-28T10:22:03.023Z</time></trkpt><trkpt lat="40.338715" lon="15.32509"><ele>410.5</ele><time>2026-03-28T10:22:05.022Z</time></trkpt><trkpt lat="40.3386383" lon="15.325135"><ele>409.66666666666663</ele><time>2026-03-28T10:22:07.023Z</time></trkpt><trkpt lat="40.3385917" lon="15.3252"><ele>408.8333333333333</ele><time>2026-03-28T10:22:08.023Z</time></trkpt><trkpt lat="40.3385417" lon="15.325285"><ele>408.0</ele><time>2026-03-28T10:22:09.023Z</time></trkpt><trkpt lat="40.3384917" lon="15.32537"><ele>408.0</ele><time>2026-03-28T10:22:10.023Z</time></trkpt><trkpt lat="40.3384383" lon="15.325455"><ele>408.0</ele><time>2026-03-28T10:22:11.023Z</time></trkpt><trkpt lat="40.3383817" lon="15.3255417"><ele>408.0</ele><time>2026-03-28T10:22:12.022Z</time></trkpt><trkpt lat="40.3383217" lon="15.3256233"><ele>408.0</ele><time>2026-03-28T10:22:13.023Z</time></trkpt><trkpt lat="40.3382617" lon="15.3257033"><ele>408.0</ele><time>2026-03-28T10:22:14.022Z</time></trkpt><trkpt lat="40.3382067" lon="15.3257917"><ele>408.0</ele><time>2026-03-28T10:22:15.023Z</time></trkpt><trkpt lat="40.33817" lon="15.3258917"><ele>407.4</ele><time>2026-03-28T10:22:16.022Z</time></trkpt><trkpt lat="40.338145" lon="15.3260117"><ele>406.79999999999995</ele><time>2026-03-28T10:22:17.022Z</time></trkpt><trkpt lat="40.3381217" lon="15.326145"><ele>406.2</ele><time>2026-03-28T10:22:18.023Z</time></trkpt><trkpt lat="40.3380933" lon="15.32627"><ele>405.6</ele><time>2026-03-28T10:22:19.022Z</time></trkpt><trkpt lat="40.3380583" lon="15.326385"><ele>405.0</ele><time>2026-03-28T10:22:20.022Z</time></trkpt><trkpt lat="40.3380217" lon="15.3264883"><ele>402.3333333333333</ele><time>2026-03-28T10:22:21.023Z</time></trkpt><trkpt lat="40.337985" lon="15.32659"><ele>399.66666666666663</ele><time>2026-03-28T10:22:22.023Z</time></trkpt><trkpt lat="40.3379517" lon="15.326695"><ele>397.0</ele><time>2026-03-28T10:22:23.023Z</time></trkpt><trkpt lat="40.337925" lon="15.3268017"><ele>394.3333333333333</ele><time>2026-03-28T10:22:24.022Z</time></trkpt><trkpt lat="40.3379017" lon="15.326915"><ele>391.66666666666663</ele><time>2026-03-28T10:22:25.022Z</time></trkpt><trkpt lat="40.3378833" lon="15.3270333"><ele>389.0</ele><time>2026-03-28T10:22:26.023Z</time></trkpt><trkpt lat="40.3378733" lon="15.327155"><ele>388.49999999999994</ele><time>2026-03-28T10:22:27.022Z</time></trkpt><trkpt lat="40.3378667" lon="15.32727"><ele>388.0</ele><time>2026-03-28T10:22:28.022Z</time></trkpt><trkpt lat="40.3378667" lon="15.32738"><ele>387.5</ele><time>2026-03-28T10:22:29.023Z</time></trkpt><trkpt lat="40.3378717" lon="15.3274833"><ele>387.0</ele><time>2026-03-28T10:22:30.023Z</time></trkpt><trkpt lat="40.3378767" lon="15.3275833"><ele>386.49999999999994</ele><time>2026-03-28T10:22:31.023Z</time></trkpt><trkpt lat="40.3378783" lon="15.3276767"><ele>386.0</ele><time>2026-03-28T10:22:32.022Z</time></trkpt><trkpt lat="40.3378617" lon="15.3278167"><ele>385.99999999999994</ele><time>2026-03-28T10:22:34.022Z</time></trkpt><trkpt lat="40.3378017" lon="15.3278567"><ele>386.0</ele><time>2026-03-28T10:22:36.022Z</time></trkpt><trkpt lat="40.3377467" lon="15.32775"><ele>386.0</ele><time>2026-03-28T10:22:38.022Z</time></trkpt><trkpt lat="40.3377217" lon="15.327655"><ele>386.0</ele><time>2026-03-28T10:22:39.023Z</time></trkpt><trkpt lat="40.337695" lon="15.3275517"><ele>385.99999999999994</ele><time>2026-03-28T10:22:40.022Z</time></trkpt><trkpt lat="40.3376617" lon="15.3274367"><ele>386.0</ele><time>2026-03-28T10:22:41.022Z</time></trkpt><trkpt lat="40.3376367" lon="15.3273183"><ele>386.6</ele><time>2026-03-28T10:22:42.022Z</time></trkpt><trkpt lat="40.3376167" lon="15.327195"><ele>387.20000000000005</ele><time>2026-03-28T10:22:43.022Z</time></trkpt><trkpt lat="40.3376017" lon="15.327065"><ele>387.79999999999995</ele><time>2026-03-28T10:22:44.023Z</time></trkpt><trkpt lat="40.337595" lon="15.3269217"><ele>388.4</ele><time>2026-03-28T10:22:45.023Z</time></trkpt><trkpt lat="40.3375867" lon="15.3267483"><ele>389.0</ele><time>2026-03-28T10:22:46.022Z</time></trkpt><trkpt lat="40.3375717" lon="15.3265683"><ele>389.75</ele><time>2026-03-28T10:22:47.022Z</time></trkpt><trkpt lat="40.3375467" lon="15.3263917"><ele>390.5</ele><time>2026-03-28T10:22:48.022Z</time></trkpt><trkpt lat="40.337525" lon="15.3262167"><ele>391.25</ele><time>2026-03-28T10:22:49.023Z</time></trkpt><trkpt lat="40.3375017" lon="15.32605"><ele>392.0</ele><time>2026-03-28T10:22:50.022Z</time></trkpt><trkpt lat="40.3374767" lon="15.325905"><ele>392.0</ele><time>2026-03-28T10:22:51.023Z</time></trkpt><trkpt lat="40.3374417" lon="15.3257633"><ele>392.0</ele><time>2026-03-28T10:22:52.023Z</time></trkpt><trkpt lat="40.3374" lon="15.3256133"><ele>392.0</ele><time>2026-03-28T10:22:53.023Z</time></trkpt><trkpt lat="40.3373667" lon="15.32546"><ele>392.0</ele><time>2026-03-28T10:22:54.023Z</time></trkpt><trkpt lat="40.3373467" lon="15.3253033"><ele>393.6</ele><time>2026-03-28T10:22:55.022Z</time></trkpt><trkpt lat="40.3373233" lon="15.325145"><ele>395.20000000000005</ele><time>2026-03-28T10:22:56.023Z</time></trkpt><trkpt lat="40.3373117" lon="15.3249983"><ele>396.8</ele><time>2026-03-28T10:22:57.022Z</time></trkpt><trkpt lat="40.3373067" lon="15.3248617"><ele>398.4</ele><time>2026-03-28T10:22:58.022Z</time></trkpt><trkpt lat="40.337305" lon="15.32474"><ele>400.0</ele><time>2026-03-28T10:22:59.022Z</time></trkpt><trkpt lat="40.3373033" lon="15.3246267"><ele>400.00000000000006</ele><time>2026-03-28T10:23:00.023Z</time></trkpt><trkpt lat="40.3373" lon="15.3245133"><ele>400.0</ele><time>2026-03-28T10:23:01.023Z</time></trkpt><trkpt lat="40.3372917" lon="15.3244083"><ele>400.0</ele><time>2026-03-28T10:23:02.022Z</time></trkpt><trkpt lat="40.3372933" lon="15.3243117"><ele>400.0</ele><time>2026-03-28T10:23:03.022Z</time></trkpt><trkpt lat="40.3373" lon="15.32421"><ele>400.00000000000006</ele><time>2026-03-28T10:23:04.022Z</time></trkpt><trkpt lat="40.3373067" lon="15.3241167"><ele>400.0</ele><time>2026-03-28T10:23:05.023Z</time></trkpt><trkpt lat="40.3373133" lon="15.3240233"><ele>400.00000000000006</ele><time>2026-03-28T10:23:06.022Z</time></trkpt><trkpt lat="40.3373167" lon="15.32393"><ele>400.0</ele><time>2026-03-28T10:23:07.023Z</time></trkpt><trkpt lat="40.3373117" lon="15.323835"><ele>400.0</ele><time>2026-03-28T10:23:08.023Z</time></trkpt><trkpt lat="40.3372983" lon="15.3237333"><ele>400.0</ele><time>2026-03-28T10:23:09.023Z</time></trkpt><trkpt lat="40.3372833" lon="15.3236467"><ele>400.0</ele><time>2026-03-28T10:23:10.022Z</time></trkpt><trkpt lat="40.3372567" lon="15.32357"><ele>400.00000000000006</ele><time>2026-03-28T10:23:11.022Z</time></trkpt><trkpt lat="40.3372217" lon="15.323495"><ele>400.0</ele><time>2026-03-28T10:23:12.023Z</time></trkpt><trkpt lat="40.3371817" lon="15.3234217"><ele>398.2</ele><time>2026-03-28T10:23:13.022Z</time></trkpt><trkpt lat="40.3371383" lon="15.3233467"><ele>396.4</ele><time>2026-03-28T10:23:14.022Z</time></trkpt><trkpt lat="40.3370867" lon="15.3232917"><ele>394.6</ele><time>2026-03-28T10:23:15.022Z</time></trkpt><trkpt lat="40.33699" lon="15.3232833"><ele>392.8</ele><time>2026-03-28T10:23:17.022Z</time></trkpt><trkpt lat="40.3368633" lon="15.32336"><ele>391.0</ele><time>2026-03-28T10:23:19.023Z</time></trkpt><trkpt lat="40.3367767" lon="15.3233733"><ele>391.0</ele><time>2026-03-28T10:23:20.022Z</time></trkpt><trkpt lat="40.3366733" lon="15.32335"><ele>391.0</ele><time>2026-03-28T10:23:21.023Z</time></trkpt><trkpt lat="40.3365483" lon="15.3233"><ele>391.0</ele><time>2026-03-28T10:23:22.022Z</time></trkpt><trkpt lat="40.33642" lon="15.3232483"><ele>391.0</ele><time>2026-03-28T10:23:23.022Z</time></trkpt><trkpt lat="40.336295" lon="15.323205"><ele>389.0</ele><time>2026-03-28T10:23:24.022Z</time></trkpt><trkpt lat="40.33618" lon="15.3231767"><ele>387.0</ele><time>2026-03-28T10:23:25.022Z</time></trkpt><trkpt lat="40.3360633" lon="15.323175"><ele>385.0</ele><time>2026-03-28T10:23:26.022Z</time></trkpt><trkpt lat="40.335945" lon="15.3232217"><ele>383.0</ele><time>2026-03-28T10:23:27.023Z</time></trkpt><trkpt lat="40.3358433" lon="15.323285"><ele>383.0</ele><time>2026-03-28T10:23:28.023Z</time></trkpt><trkpt lat="40.3357583" lon="15.323365"><ele>383.0</ele><time>2026-03-28T10:23:29.022Z</time></trkpt><trkpt lat="40.3356967" lon="15.323465"><ele>383.0</ele><time>2026-03-28T10:23:30.023Z</time></trkpt><trkpt lat="40.3356667" lon="15.323595"><ele>383.0</ele><time>2026-03-28T10:23:31.023Z</time></trkpt><trkpt lat="40.3356583" lon="15.32374"><ele>383.0</ele><time>2026-03-28T10:23:32.023Z</time></trkpt><trkpt lat="40.3356633" lon="15.3239067"><ele>383.75</ele><time>2026-03-28T10:23:33.022Z</time></trkpt><trkpt lat="40.335665" lon="15.324085"><ele>384.5</ele><time>2026-03-28T10:23:34.022Z</time></trkpt><trkpt lat="40.335665" lon="15.32426"><ele>385.25</ele><time>2026-03-28T10:23:35.022Z</time></trkpt><trkpt lat="40.335665" lon="15.3244283"><ele>386.0</ele><time>2026-03-28T10:23:36.023Z</time></trkpt><trkpt lat="40.335665" lon="15.324585"><ele>386.4</ele><time>2026-03-28T10:23:37.023Z</time></trkpt><trkpt lat="40.3356633" lon="15.3247417"><ele>386.8</ele><time>2026-03-28T10:23:38.022Z</time></trkpt><trkpt lat="40.3356633" lon="15.3248917"><ele>387.2</ele><time>2026-03-28T10:23:39.023Z</time></trkpt><trkpt lat="40.33567" lon="15.32503"><ele>387.59999999999997</ele><time>2026-03-28T10:23:40.022Z</time></trkpt><trkpt lat="40.335685" lon="15.3251417"><ele>388.0</ele><time>2026-03-28T10:23:41.022Z</time></trkpt><trkpt lat="40.335695" lon="15.325245"><ele>388.00000000000006</ele><time>2026-03-28T10:23:42.022Z</time></trkpt><trkpt lat="40.3356717" lon="15.3253267"><ele>388.0</ele><time>2026-03-28T10:23:43.022Z</time></trkpt><trkpt lat="40.3356117" lon="15.3253833"><ele>388.0</ele><time>2026-03-28T10:23:44.023Z</time></trkpt><trkpt lat="40.3355633" lon="15.3254533"><ele>388.0</ele><time>2026-03-28T10:23:45.022Z</time></trkpt><trkpt lat="40.3355483" lon="15.3255483"><ele>388.00000000000006</ele><time>2026-03-28T10:23:46.022Z</time></trkpt><trkpt lat="40.33557" lon="15.3256567"><ele>388.0</ele><time>2026-03-28T10:23:47.022Z</time></trkpt><trkpt lat="40.33562" lon="15.3257717"><ele>387.5</ele><time>2026-03-28T10:23:48.022Z</time></trkpt><trkpt lat="40.3357033" lon="15.3259017"><ele>387.0</ele><time>2026-03-28T10:23:49.022Z</time></trkpt><trkpt lat="40.3357967" lon="15.3260333"><ele>386.5</ele><time>2026-03-28T10:23:50.022Z</time></trkpt><trkpt lat="40.33587" lon="15.3261733"><ele>386.0</ele><time>2026-03-28T10:23:51.023Z</time></trkpt><trkpt lat="40.3359267" lon="15.326345"><ele>389.0</ele><time>2026-03-28T10:23:52.023Z</time></trkpt><trkpt lat="40.3359717" lon="15.3265567"><ele>392.0</ele><time>2026-03-28T10:23:53.022Z</time></trkpt><trkpt lat="40.33603" lon="15.3267833"><ele>395.0</ele><time>2026-03-28T10:23:54.022Z</time></trkpt><trkpt lat="40.3361083" lon="15.3270017"><ele>395.0</ele><time>2026-03-28T10:23:55.022Z</time></trkpt><trkpt lat="40.3361867" lon="15.3271967"><ele>395.0</ele><time>2026-03-28T10:23:56.022Z</time></trkpt><trkpt lat="40.33626" lon="15.3273717"><ele>395.0</ele><time>2026-03-28T10:23:57.022Z</time></trkpt><trkpt lat="40.3363167" lon="15.3275267"><ele>397.5</ele><time>2026-03-28T10:23:58.022Z</time></trkpt><trkpt lat="40.3363483" lon="15.3276917"><ele>400.0</ele><time>2026-03-28T10:23:59.022Z</time></trkpt><trkpt lat="40.3363433" lon="15.3278683"><ele>402.5</ele><time>2026-03-28T10:24:00.023Z</time></trkpt><trkpt lat="40.336335" lon="15.3280583"><ele>405.0</ele><time>2026-03-28T10:24:01.022Z</time></trkpt><trkpt lat="40.3363267" lon="15.3282567"><ele>405.0</ele><time>2026-03-28T10:24:02.022Z</time></trkpt><trkpt lat="40.3363183" lon="15.328445"><ele>405.0</ele><time>2026-03-28T10:24:03.023Z</time></trkpt><trkpt lat="40.336305" lon="15.3286133"><ele>405.0</ele><time>2026-03-28T10:24:04.023Z</time></trkpt><trkpt lat="40.33629" lon="15.3287633"><ele>405.0</ele><time>2026-03-28T10:24:05.022Z</time></trkpt><trkpt lat="40.336275" lon="15.328895"><ele>405.0</ele><time>2026-03-28T10:24:06.023Z</time></trkpt><trkpt lat="40.3362583" lon="15.328995"><ele>405.0</ele><time>2026-03-28T10:24:07.022Z</time></trkpt><trkpt lat="40.33622" lon="15.3291033"><ele>405.0</ele><time>2026-03-28T10:24:09.023Z</time></trkpt><trkpt lat="40.3361533" lon="15.32908"><ele>405.0</ele><time>2026-03-28T10:24:11.023Z</time></trkpt><trkpt lat="40.3361417" lon="15.3289633"><ele>405.0</ele><time>2026-03-28T10:24:13.023Z</time></trkpt><trkpt lat="40.336135" lon="15.3288783"><ele>405.0</ele><time>2026-03-28T10:24:14.023Z</time></trkpt><trkpt lat="40.33606" lon="15.3287783"><ele>405.0</ele><time>2026-03-28T10:24:16.023Z</time></trkpt><trkpt lat="40.3359583" lon="15.3288533"><ele>405.0</ele><time>2026-03-28T10:24:18.022Z</time></trkpt><trkpt lat="40.3359317" lon="15.3289567"><ele>405.0</ele><time>2026-03-28T10:24:19.022Z</time></trkpt><trkpt lat="40.3359117" lon="15.329085"><ele>405.0</ele><time>2026-03-28T10:24:20.023Z</time></trkpt><trkpt lat="40.3358917" lon="15.329225"><ele>405.0</ele><time>2026-03-28T10:24:21.022Z</time></trkpt><trkpt lat="40.3358867" lon="15.32938"><ele>404.8333333333333</ele><time>2026-03-28T10:24:22.022Z</time></trkpt><trkpt lat="40.3359" lon="15.3295"><ele>404.66666666666663</ele><time>2026-03-28T10:24:23.023Z</time></trkpt><trkpt lat="40.3359017" lon="15.3295917"><ele>404.5</ele><time>2026-03-28T10:24:24.023Z</time></trkpt><trkpt lat="40.3358333" lon="15.3296333"><ele>404.3333333333333</ele><time>2026-03-28T10:24:26.022Z</time></trkpt><trkpt lat="40.3357633" lon="15.3295117"><ele>404.16666666666663</ele><time>2026-03-28T10:24:28.022Z</time></trkpt><trkpt lat="40.3357383" lon="15.3293967"><ele>404.0</ele><time>2026-03-28T10:24:29.023Z</time></trkpt><trkpt lat="40.3357017" lon="15.3292583"><ele>404.0</ele><time>2026-03-28T10:24:30.022Z</time></trkpt><trkpt lat="40.3356617" lon="15.3290833"><ele>404.0</ele><time>2026-03-28T10:24:31.022Z</time></trkpt><trkpt lat="40.3356333" lon="15.328885"><ele>404.0</ele><time>2026-03-28T10:24:32.022Z</time></trkpt><trkpt lat="40.3356283" lon="15.3286633"><ele>404.3333333333333</ele><time>2026-03-28T10:24:33.022Z</time></trkpt><trkpt lat="40.3356367" lon="15.32844"><ele>404.66666666666663</ele><time>2026-03-28T10:24:34.022Z</time></trkpt><trkpt lat="40.3356483" lon="15.3282383"><ele>405.0</ele><time>2026-03-28T10:24:35.023Z</time></trkpt><trkpt lat="40.3356483" lon="15.32806"><ele>405.0</ele><time>2026-03-28T10:24:36.022Z</time></trkpt><trkpt lat="40.3356217" lon="15.3278933"><ele>405.0</ele><time>2026-03-28T10:24:37.023Z</time></trkpt><trkpt lat="40.3355633" lon="15.327755"><ele>405.0</ele><time>2026-03-28T10:24:38.022Z</time></trkpt><trkpt lat="40.33548" lon="15.32764"><ele>405.0</ele><time>2026-03-28T10:24:39.022Z</time></trkpt><trkpt lat="40.3353767" lon="15.3275417"><ele>409.6</ele><time>2026-03-28T10:24:40.022Z</time></trkpt><trkpt lat="40.3352633" lon="15.3274667"><ele>414.2</ele><time>2026-03-28T10:24:41.023Z</time></trkpt><trkpt lat="40.3351617" lon="15.3273917"><ele>418.79999999999995</ele><time>2026-03-28T10:24:42.022Z</time></trkpt><trkpt lat="40.3350817" lon="15.3273067"><ele>423.4</ele><time>2026-03-28T10:24:43.022Z</time></trkpt><trkpt lat="40.3350317" lon="15.32719"><ele>428.0</ele><time>2026-03-28T10:24:44.023Z</time></trkpt><trkpt lat="40.3349867" lon="15.3270517"><ele>428.0</ele><time>2026-03-28T10:24:45.022Z</time></trkpt><trkpt lat="40.3349417" lon="15.3269133"><ele>427.99999999999994</ele><time>2026-03-28T10:24:46.022Z</time></trkpt><trkpt lat="40.3348967" lon="15.3267917"><ele>427.99999999999994</ele><time>2026-03-28T10:24:47.023Z</time></trkpt><trkpt lat="40.3348517" lon="15.3266917"><ele>428.0</ele><time>2026-03-28T10:24:48.023Z</time></trkpt><trkpt lat="40.3347917" lon="15.3266217"><ele>428.0</ele><time>2026-03-28T10:24:49.023Z</time></trkpt><trkpt lat="40.3347167" lon="15.326585"><ele>430.59999999999997</ele><time>2026-03-28T10:24:50.022Z</time></trkpt><trkpt lat="40.3346333" lon="15.3265767"><ele>433.19999999999993</ele><time>2026-03-28T10:24:51.022Z</time></trkpt><trkpt lat="40.3345433" lon="15.3265933"><ele>435.8</ele><time>2026-03-28T10:24:52.022Z</time></trkpt><trkpt lat="40.33444" lon="15.3266267"><ele>438.4</ele><time>2026-03-28T10:24:53.022Z</time></trkpt><trkpt lat="40.3343283" lon="15.3266683"><ele>441.0</ele><time>2026-03-28T10:24:54.023Z</time></trkpt><trkpt lat="40.3342033" lon="15.32672"><ele>441.0</ele><time>2026-03-28T10:24:55.022Z</time></trkpt><trkpt lat="40.3340683" lon="15.326785"><ele>441.0</ele><time>2026-03-28T10:24:56.023Z</time></trkpt><trkpt lat="40.3339283" lon="15.32686"><ele>441.0</ele><time>2026-03-28T10:24:57.023Z</time></trkpt><trkpt lat="40.3337883" lon="15.3269383"><ele>441.0</ele><time>2026-03-28T10:24:58.022Z</time></trkpt><trkpt lat="40.3336467" lon="15.32703"><ele>445.33333333333337</ele><time>2026-03-28T10:24:59.023Z</time></trkpt><trkpt lat="40.3335017" lon="15.327135"><ele>449.6666666666667</ele><time>2026-03-28T10:25:00.022Z</time></trkpt><trkpt lat="40.3333633" lon="15.3272467"><ele>454.0</ele><time>2026-03-28T10:25:01.022Z</time></trkpt><trkpt lat="40.3332367" lon="15.3273567"><ele>457.5</ele><time>2026-03-28T10:25:02.022Z</time></trkpt><trkpt lat="40.333115" lon="15.327445"><ele>461.0</ele><time>2026-03-28T10:25:03.022Z</time></trkpt><trkpt lat="40.3329933" lon="15.3275083"><ele>464.5</ele><time>2026-03-28T10:25:04.022Z</time></trkpt><trkpt lat="40.332885" lon="15.3275517"><ele>468.0</ele><time>2026-03-28T10:25:05.023Z</time></trkpt><trkpt lat="40.3327867" lon="15.3275933"><ele>471.79999999999995</ele><time>2026-03-28T10:25:06.022Z</time></trkpt><trkpt lat="40.3326967" lon="15.3276467"><ele>475.59999999999997</ele><time>2026-03-28T10:25:07.022Z</time></trkpt><trkpt lat="40.3326267" lon="15.3277283"><ele>479.40000000000003</ele><time>2026-03-28T10:25:08.022Z</time></trkpt><trkpt lat="40.332565" lon="15.3278283"><ele>483.20000000000005</ele><time>2026-03-28T10:25:09.022Z</time></trkpt><trkpt lat="40.3325067" lon="15.32795"><ele>487.0</ele><time>2026-03-28T10:25:10.023Z</time></trkpt><trkpt lat="40.332445" lon="15.3280717"><ele>488.20000000000005</ele><time>2026-03-28T10:25:11.023Z</time></trkpt><trkpt lat="40.3323833" lon="15.3281733"><ele>489.40000000000003</ele><time>2026-03-28T10:25:12.022Z</time></trkpt><trkpt lat="40.332315" lon="15.3282583"><ele>490.59999999999997</ele><time>2026-03-28T10:25:13.023Z</time></trkpt><trkpt lat="40.3322283" lon="15.3283283"><ele>491.79999999999995</ele><time>2026-03-28T10:25:14.023Z</time></trkpt><trkpt lat="40.3321283" lon="15.3284"><ele>493.0</ele><time>2026-03-28T10:25:15.023Z</time></trkpt><trkpt lat="40.3320267" lon="15.3284867"><ele>496.25</ele><time>2026-03-28T10:25:16.022Z</time></trkpt><trkpt lat="40.33192" lon="15.3285883"><ele>499.5</ele><time>2026-03-28T10:25:17.023Z</time></trkpt><trkpt lat="40.33182" lon="15.32872"><ele>502.75</ele><time>2026-03-28T10:25:18.022Z</time></trkpt><trkpt lat="40.33172" lon="15.328845"><ele>506.0</ele><time>2026-03-28T10:25:19.022Z</time></trkpt><trkpt lat="40.3316167" lon="15.3289683"><ele>506.0</ele><time>2026-03-28T10:25:20.022Z</time></trkpt><trkpt lat="40.3315233" lon="15.3290967"><ele>506.0</ele><time>2026-03-28T10:25:21.022Z</time></trkpt><trkpt lat="40.3314367" lon="15.3292283"><ele>506.0</ele><time>2026-03-28T10:25:22.023Z</time></trkpt><trkpt lat="40.3313517" lon="15.3293533"><ele>506.0</ele><time>2026-03-28T10:25:23.022Z</time></trkpt><trkpt lat="40.33127" lon="15.3294817"><ele>507.75</ele><time>2026-03-28T10:25:24.023Z</time></trkpt><trkpt lat="40.3311917" lon="15.3296117"><ele>509.5</ele><time>2026-03-28T10:25:25.022Z</time></trkpt><trkpt lat="40.3311183" lon="15.329735"><ele>511.25</ele><time>2026-03-28T10:25:26.022Z</time></trkpt><trkpt lat="40.3310383" lon="15.3298567"><ele>513.0</ele><time>2026-03-28T10:25:27.022Z</time></trkpt><trkpt lat="40.330955" lon="15.32997"><ele>513.0</ele><time>2026-03-28T10:25:28.022Z</time></trkpt><trkpt lat="40.3308717" lon="15.3300817"><ele>513.0</ele><time>2026-03-28T10:25:29.022Z</time></trkpt><trkpt lat="40.3307983" lon="15.3301833"><ele>513.0</ele><time>2026-03-28T10:25:30.022Z</time></trkpt><trkpt lat="40.33074" lon="15.3302667"><ele>513.0</ele><time>2026-03-28T10:25:31.022Z</time></trkpt><trkpt lat="40.3306717" lon="15.3303333"><ele>513.0</ele><time>2026-03-28T10:25:33.022Z</time></trkpt><trkpt lat="40.3306067" lon="15.3304267"><ele>513.0</ele><time>2026-03-28T10:25:36.022Z</time></trkpt><trkpt lat="40.3305617" lon="15.3304883"><ele>513.0</ele><time>2026-03-28T10:25:37.023Z</time></trkpt><trkpt lat="40.3305117" lon="15.3305483"><ele>513.0</ele><time>2026-03-28T10:25:38.023Z</time></trkpt><trkpt lat="40.3304617" lon="15.3306233"><ele>513.0</ele><time>2026-03-28T10:25:40.023Z</time></trkpt><trkpt lat="40.3303933" lon="15.330695"><ele>513.0</ele><time>2026-03-28T10:26:49.023Z</time></trkpt><trkpt lat="40.3303317" lon="15.33076"><ele>513.0</ele><time>2026-03-28T10:26:50.022Z</time></trkpt><trkpt lat="40.33027" lon="15.330835"><ele>515.6</ele><time>2026-03-28T10:26:51.023Z</time></trkpt><trkpt lat="40.3302017" lon="15.3309067"><ele>518.1999999999999</ele><time>2026-03-28T10:26:52.023Z</time></trkpt><trkpt lat="40.3301283" lon="15.3309833"><ele>520.8</ele><time>2026-03-28T10:26:53.022Z</time></trkpt><trkpt lat="40.3300433" lon="15.3310517"><ele>523.4</ele><time>2026-03-28T10:26:54.022Z</time></trkpt><trkpt lat="40.3299517" lon="15.3311333"><ele>526.0</ele><time>2026-03-28T10:26:55.022Z</time></trkpt><trkpt lat="40.3298567" lon="15.3312233"><ele>526.0</ele><time>2026-03-28T10:26:56.023Z</time></trkpt><trkpt lat="40.3297567" lon="15.331305"><ele>526.0</ele><time>2026-03-28T10:26:57.022Z</time></trkpt><trkpt lat="40.3296567" lon="15.331385"><ele>526.0</ele><time>2026-03-28T10:26:58.022Z</time></trkpt><trkpt lat="40.3295583" lon="15.3314633"><ele>526.0</ele><time>2026-03-28T10:26:59.022Z</time></trkpt><trkpt lat="40.3294617" lon="15.331545"><ele>529.5</ele><time>2026-03-28T10:27:00.023Z</time></trkpt><trkpt lat="40.3293633" lon="15.3316283"><ele>533.0</ele><time>2026-03-28T10:27:01.022Z</time></trkpt><trkpt lat="40.3292733" lon="15.3317167"><ele>536.5</ele><time>2026-03-28T10:27:02.023Z</time></trkpt><trkpt lat="40.32918" lon="15.331795"><ele>540.0</ele><time>2026-03-28T10:27:03.023Z</time></trkpt><trkpt lat="40.3290783" lon="15.33185"><ele>540.0</ele><time>2026-03-28T10:27:04.022Z</time></trkpt><trkpt lat="40.3289667" lon="15.331895"><ele>540.0</ele><time>2026-03-28T10:27:05.022Z</time></trkpt><trkpt lat="40.3288567" lon="15.33194"><ele>540.0</ele><time>2026-03-28T10:27:06.022Z</time></trkpt><trkpt lat="40.3287567" lon="15.3320067"><ele>540.0</ele><time>2026-03-28T10:27:07.022Z</time></trkpt><trkpt lat="40.3286467" lon="15.3320583"><ele>542.4</ele><time>2026-03-28T10:27:08.022Z</time></trkpt><trkpt lat="40.3285417" lon="15.3321117"><ele>544.8</ele><time>2026-03-28T10:27:09.022Z</time></trkpt><trkpt lat="40.3284383" lon="15.3321667"><ele>547.2</ele><time>2026-03-28T10:27:10.023Z</time></trkpt><trkpt lat="40.3283383" lon="15.3322067"><ele>549.6</ele><time>2026-03-28T10:27:11.023Z</time></trkpt><trkpt lat="40.32823" lon="15.3322333"><ele>552.0</ele><time>2026-03-28T10:27:12.022Z</time></trkpt><trkpt lat="40.32812" lon="15.33225"><ele>555.25</ele><time>2026-03-28T10:27:13.022Z</time></trkpt><trkpt lat="40.3280117" lon="15.3322617"><ele>558.5</ele><time>2026-03-28T10:27:14.022Z</time></trkpt><trkpt lat="40.3279017" lon="15.3322717"><ele>561.75</ele><time>2026-03-28T10:27:15.022Z</time></trkpt><trkpt lat="40.32779" lon="15.33229"><ele>565.0</ele><time>2026-03-28T10:27:16.023Z</time></trkpt><trkpt lat="40.3276733" lon="15.3323183"><ele>565.0</ele><time>2026-03-28T10:27:17.022Z</time></trkpt><trkpt lat="40.3275567" lon="15.332345"><ele>565.0</ele><time>2026-03-28T10:27:18.022Z</time></trkpt><trkpt lat="40.3274417" lon="15.3323733"><ele>565.0</ele><time>2026-03-28T10:27:19.023Z</time></trkpt><trkpt lat="40.32733" lon="15.3324033"><ele>565.0</ele><time>2026-03-28T10:27:20.022Z</time></trkpt><trkpt lat="40.3272183" lon="15.332435"><ele>566.75</ele><time>2026-03-28T10:27:21.022Z</time></trkpt><trkpt lat="40.3271033" lon="15.3324617"><ele>568.5</ele><time>2026-03-28T10:27:22.023Z</time></trkpt><trkpt lat="40.326985" lon="15.3324833"><ele>570.25</ele><time>2026-03-28T10:27:23.023Z</time></trkpt><trkpt lat="40.3268683" lon="15.3324983"><ele>572.0</ele><time>2026-03-28T10:27:24.023Z</time></trkpt><trkpt lat="40.32675" lon="15.3325117"><ele>572.0</ele><time>2026-03-28T10:27:25.023Z</time></trkpt><trkpt lat="40.3266333" lon="15.3325317"><ele>572.0</ele><time>2026-03-28T10:27:26.023Z</time></trkpt><trkpt lat="40.3265183" lon="15.3325433"><ele>572.0</ele><time>2026-03-28T10:27:27.023Z</time></trkpt><trkpt lat="40.3264067" lon="15.3325467"><ele>572.0</ele><time>2026-03-28T10:27:28.022Z</time></trkpt><trkpt lat="40.326295" lon="15.332545"><ele>575.25</ele><time>2026-03-28T10:27:29.023Z</time></trkpt><trkpt lat="40.3261883" lon="15.33254"><ele>578.5</ele><time>2026-03-28T10:27:30.023Z</time></trkpt><trkpt lat="40.3260683" lon="15.3325233"><ele>581.75</ele><time>2026-03-28T10:27:31.022Z</time></trkpt><trkpt lat="40.3259467" lon="15.3324967"><ele>585.0</ele><time>2026-03-28T10:27:32.023Z</time></trkpt><trkpt lat="40.3258217" lon="15.3324767"><ele>585.0</ele><time>2026-03-28T10:27:33.022Z</time></trkpt><trkpt lat="40.3257" lon="15.3324517"><ele>585.0</ele><time>2026-03-28T10:27:34.022Z</time></trkpt><trkpt lat="40.3255783" lon="15.3324267"><ele>585.0</ele><time>2026-03-28T10:27:35.023Z</time></trkpt><trkpt lat="40.3254483" lon="15.33239"><ele>585.0</ele><time>2026-03-28T10:27:36.022Z</time></trkpt><trkpt lat="40.3253267" lon="15.332355"><ele>587.4</ele><time>2026-03-28T10:27:37.023Z</time></trkpt><trkpt lat="40.3252217" lon="15.3323167"><ele>589.8</ele><time>2026-03-28T10:27:38.022Z</time></trkpt><trkpt lat="40.325135" lon="15.3322783"><ele>592.2</ele><time>2026-03-28T10:27:39.022Z</time></trkpt><trkpt lat="40.325065" lon="15.3322467"><ele>594.6</ele><time>2026-03-28T10:27:40.022Z</time></trkpt><trkpt lat="40.3249583" lon="15.332215"><ele>597.0</ele><time>2026-03-28T10:27:42.023Z</time></trkpt><trkpt lat="40.3248367" lon="15.3321817"><ele>598.1666666666666</ele><time>2026-03-28T10:28:14.023Z</time></trkpt><trkpt lat="40.3247417" lon="15.332185"><ele>599.3333333333334</ele><time>2026-03-28T10:28:16.023Z</time></trkpt><trkpt lat="40.324645" lon="15.3321833"><ele>600.5</ele><time>2026-03-28T10:28:18.024Z</time></trkpt><trkpt lat="40.3245417" lon="15.3321667"><ele>601.6666666666667</ele><time>2026-03-28T10:28:20.024Z</time></trkpt><trkpt lat="40.32448" lon="15.332145"><ele>602.8333333333334</ele><time>2026-03-28T10:28:21.023Z</time></trkpt><trkpt lat="40.3244117" lon="15.3321183"><ele>604.0</ele><time>2026-03-28T10:28:22.023Z</time></trkpt><trkpt lat="40.32435" lon="15.3320917"><ele>604.5</ele><time>2026-03-28T10:28:23.024Z</time></trkpt><trkpt lat="40.3242817" lon="15.3320617"><ele>605.0</ele><time>2026-03-28T10:28:24.024Z</time></trkpt><trkpt lat="40.3242067" lon="15.3320317"><ele>605.5</ele><time>2026-03-28T10:28:25.023Z</time></trkpt><trkpt lat="40.324135" lon="15.3319917"><ele>606.0</ele><time>2026-03-28T10:28:26.024Z</time></trkpt><trkpt lat="40.324065" lon="15.3319517"><ele>606.5</ele><time>2026-03-28T10:28:27.024Z</time></trkpt><trkpt lat="40.3239917" lon="15.3319167"><ele>607.0</ele><time>2026-03-28T10:28:28.023Z</time></trkpt><trkpt lat="40.3239167" lon="15.3318817"><ele>607.5</ele><time>2026-03-28T10:28:29.023Z</time></trkpt><trkpt lat="40.3238417" lon="15.33184"><ele>608.0</ele><time>2026-03-28T10:28:30.024Z</time></trkpt><trkpt lat="40.323765" lon="15.3317983"><ele>608.5</ele><time>2026-03-28T10:28:31.024Z</time></trkpt><trkpt lat="40.3236917" lon="15.3317633"><ele>609.0</ele><time>2026-03-28T10:28:32.024Z</time></trkpt><trkpt lat="40.32361" lon="15.331725"><ele>609.5</ele><time>2026-03-28T10:28:33.024Z</time></trkpt><trkpt lat="40.3235283" lon="15.3316883"><ele>610.0</ele><time>2026-03-28T10:28:34.023Z</time></trkpt><trkpt lat="40.3234483" lon="15.3316483"><ele>610.0</ele><time>2026-03-28T10:28:35.023Z</time></trkpt><trkpt lat="40.3233583" lon="15.331615"><ele>610.0</ele><time>2026-03-28T10:28:36.023Z</time></trkpt><trkpt lat="40.3232683" lon="15.3315867"><ele>610.0</ele><time>2026-03-28T10:28:37.024Z</time></trkpt><trkpt lat="40.3231717" lon="15.3315717"><ele>610.0</ele><time>2026-03-28T10:28:38.023Z</time></trkpt><trkpt lat="40.3230783" lon="15.3315633"><ele>610.0</ele><time>2026-03-28T10:28:39.024Z</time></trkpt><trkpt lat="40.3229883" lon="15.33156"><ele>611.6666666666667</ele><time>2026-03-28T10:28:40.023Z</time></trkpt><trkpt lat="40.3229" lon="15.331555"><ele>613.3333333333334</ele><time>2026-03-28T10:28:41.023Z</time></trkpt><trkpt lat="40.32281" lon="15.3315567"><ele>615.0</ele><time>2026-03-28T10:28:42.024Z</time></trkpt><trkpt lat="40.3227217" lon="15.3315533"><ele>616.6666666666666</ele><time>2026-03-28T10:28:43.023Z</time></trkpt><trkpt lat="40.3226317" lon="15.331545"><ele>618.3333333333333</ele><time>2026-03-28T10:28:44.024Z</time></trkpt><trkpt lat="40.322545" lon="15.3315317"><ele>620.0</ele><time>2026-03-28T10:28:45.024Z</time></trkpt><trkpt lat="40.3224667" lon="15.33152"><ele>620.0</ele><time>2026-03-28T10:28:46.024Z</time></trkpt><trkpt lat="40.322395" lon="15.331515"><ele>620.0</ele><time>2026-03-28T10:28:47.024Z</time></trkpt><trkpt lat="40.32232" lon="15.33153"><ele>620.0</ele><time>2026-03-28T10:28:48.024Z</time></trkpt><trkpt lat="40.3222383" lon="15.3315567"><ele>620.0</ele><time>2026-03-28T10:28:49.023Z</time></trkpt><trkpt lat="40.32216" lon="15.3315983"><ele>620.0</ele><time>2026-03-28T10:28:50.024Z</time></trkpt><trkpt lat="40.3220783" lon="15.3316367"><ele>620.0</ele><time>2026-03-28T10:28:51.023Z</time></trkpt><trkpt lat="40.3219933" lon="15.3316683"><ele>622.4</ele><time>2026-03-28T10:28:52.023Z</time></trkpt><trkpt lat="40.3219067" lon="15.331685"><ele>624.8</ele><time>2026-03-28T10:28:53.023Z</time></trkpt><trkpt lat="40.3218217" lon="15.3316817"><ele>627.2</ele><time>2026-03-28T10:28:54.023Z</time></trkpt><trkpt lat="40.321735" lon="15.331665"><ele>629.6</ele><time>2026-03-28T10:28:55.024Z</time></trkpt><trkpt lat="40.3216417" lon="15.331635"><ele>632.0</ele><time>2026-03-28T10:28:56.024Z</time></trkpt><trkpt lat="40.321545" lon="15.3315917"><ele>632.0</ele><time>2026-03-28T10:28:57.023Z</time></trkpt><trkpt lat="40.3214467" lon="15.331545"><ele>632.0</ele><time>2026-03-28T10:28:58.023Z</time></trkpt><trkpt lat="40.321345" lon="15.331495"><ele>632.0</ele><time>2026-03-28T10:28:59.024Z</time></trkpt><trkpt lat="40.3212417" lon="15.33145"><ele>632.0</ele><time>2026-03-28T10:29:00.023Z</time></trkpt><trkpt lat="40.3211383" lon="15.3314067"><ele>632.0</ele><time>2026-03-28T10:29:01.024Z</time></trkpt><trkpt lat="40.321035" lon="15.331365"><ele>635.2</ele><time>2026-03-28T10:29:02.023Z</time></trkpt><trkpt lat="40.3209317" lon="15.3313183"><ele>638.4000000000001</ele><time>2026-03-28T10:29:03.023Z</time></trkpt><trkpt lat="40.3208267" lon="15.3312667"><ele>641.5999999999999</ele><time>2026-03-28T10:29:04.023Z</time></trkpt><trkpt lat="40.32072" lon="15.33122"><ele>644.8</ele><time>2026-03-28T10:29:05.024Z</time></trkpt><trkpt lat="40.3206167" lon="15.3311767"><ele>648.0</ele><time>2026-03-28T10:29:06.023Z</time></trkpt><trkpt lat="40.3205167" lon="15.33112"><ele>649.0</ele><time>2026-03-28T10:29:07.024Z</time></trkpt><trkpt lat="40.3204217" lon="15.33106"><ele>650.0</ele><time>2026-03-28T10:29:08.023Z</time></trkpt><trkpt lat="40.3203317" lon="15.3309933"><ele>651.0</ele><time>2026-03-28T10:29:09.023Z</time></trkpt><trkpt lat="40.32024" lon="15.330935"><ele>652.0</ele><time>2026-03-28T10:29:10.024Z</time></trkpt><trkpt lat="40.3201467" lon="15.3308867"><ele>653.0</ele><time>2026-03-28T10:29:11.023Z</time></trkpt><trkpt lat="40.3200517" lon="15.3308367"><ele>653.0</ele><time>2026-03-28T10:29:12.023Z</time></trkpt><trkpt lat="40.3199583" lon="15.3308"><ele>653.0</ele><time>2026-03-28T10:29:13.024Z</time></trkpt><trkpt lat="40.3198617" lon="15.3307667"><ele>653.0</ele><time>2026-03-28T10:29:14.023Z</time></trkpt><trkpt lat="40.31977" lon="15.3307433"><ele>653.0</ele><time>2026-03-28T10:29:15.023Z</time></trkpt><trkpt lat="40.3196767" lon="15.3307317"><ele>653.0</ele><time>2026-03-28T10:29:16.024Z</time></trkpt><trkpt lat="40.3195817" lon="15.3307217"><ele>655.2</ele><time>2026-03-28T10:29:17.024Z</time></trkpt><trkpt lat="40.319485" lon="15.3307217"><ele>657.4</ele><time>2026-03-28T10:29:18.024Z</time></trkpt><trkpt lat="40.3193817" lon="15.3307217"><ele>659.6</ele><time>2026-03-28T10:29:19.023Z</time></trkpt><trkpt lat="40.3192783" lon="15.3307183"><ele>661.8000000000001</ele><time>2026-03-28T10:29:20.023Z</time></trkpt><trkpt lat="40.31917" lon="15.3307183"><ele>664.0</ele><time>2026-03-28T10:29:21.023Z</time></trkpt><trkpt lat="40.3190617" lon="15.3307167"><ele>664.0</ele><time>2026-03-28T10:29:22.024Z</time></trkpt><trkpt lat="40.3189567" lon="15.330725"><ele>664.0</ele><time>2026-03-28T10:29:23.023Z</time></trkpt><trkpt lat="40.3188483" lon="15.33072"><ele>664.0</ele><time>2026-03-28T10:29:24.024Z</time></trkpt><trkpt lat="40.31874" lon="15.330725"><ele>664.0</ele><time>2026-03-28T10:29:25.024Z</time></trkpt><trkpt lat="40.3186267" lon="15.330725"><ele>664.0</ele><time>2026-03-28T10:29:26.024Z</time></trkpt><trkpt lat="40.3185183" lon="15.3307217"><ele>666.0</ele><time>2026-03-28T10:29:27.023Z</time></trkpt><trkpt lat="40.31841" lon="15.3307183"><ele>668.0</ele><time>2026-03-28T10:29:28.023Z</time></trkpt><trkpt lat="40.3183033" lon="15.3306967"><ele>670.0</ele><time>2026-03-28T10:29:29.024Z</time></trkpt><trkpt lat="40.3182017" lon="15.3306667"><ele>672.0</ele><time>2026-03-28T10:29:30.023Z</time></trkpt><trkpt lat="40.3181" lon="15.330625"><ele>674.0</ele><time>2026-03-28T10:29:31.023Z</time></trkpt><trkpt lat="40.3179967" lon="15.3305717"><ele>678.5</ele><time>2026-03-28T10:29:32.024Z</time></trkpt><trkpt lat="40.31789" lon="15.33051"><ele>683.0</ele><time>2026-03-28T10:29:33.023Z</time></trkpt><trkpt lat="40.31778" lon="15.3304567"><ele>687.5</ele><time>2026-03-28T10:29:34.024Z</time></trkpt><trkpt lat="40.3176683" lon="15.3304083"><ele>692.0</ele><time>2026-03-28T10:29:35.023Z</time></trkpt><trkpt lat="40.3175533" lon="15.3303617"><ele>692.0</ele><time>2026-03-28T10:29:36.023Z</time></trkpt><trkpt lat="40.3174383" lon="15.33032"><ele>692.0</ele><time>2026-03-28T10:29:37.023Z</time></trkpt><trkpt lat="40.317325" lon="15.3302817"><ele>692.0</ele><time>2026-03-28T10:29:38.023Z</time></trkpt><trkpt lat="40.3172167" lon="15.3302417"><ele>692.0</ele><time>2026-03-28T10:29:39.024Z</time></trkpt><trkpt lat="40.3171133" lon="15.3302017"><ele>693.8</ele><time>2026-03-28T10:29:40.023Z</time></trkpt><trkpt lat="40.3170133" lon="15.3301567"><ele>695.6</ele><time>2026-03-28T10:29:41.023Z</time></trkpt><trkpt lat="40.3169133" lon="15.330125"><ele>697.4</ele><time>2026-03-28T10:29:42.024Z</time></trkpt><trkpt lat="40.3168167" lon="15.3301217"><ele>699.1999999999999</ele><time>2026-03-28T10:29:43.023Z</time></trkpt><trkpt lat="40.316715" lon="15.33013"><ele>701.0</ele><time>2026-03-28T10:29:44.023Z</time></trkpt><trkpt lat="40.3166167" lon="15.3301417"><ele>701.0</ele><time>2026-03-28T10:29:45.023Z</time></trkpt><trkpt lat="40.3165183" lon="15.3301533"><ele>701.0</ele><time>2026-03-28T10:29:46.023Z</time></trkpt><trkpt lat="40.316425" lon="15.3301667"><ele>701.0</ele><time>2026-03-28T10:29:47.023Z</time></trkpt><trkpt lat="40.3163283" lon="15.3301617"><ele>701.0</ele><time>2026-03-28T10:29:48.023Z</time></trkpt><trkpt lat="40.316235" lon="15.33015"><ele>701.0</ele><time>2026-03-28T10:29:49.024Z</time></trkpt><trkpt lat="40.31613" lon="15.33013"><ele>701.8</ele><time>2026-03-28T10:29:50.023Z</time></trkpt><trkpt lat="40.3160283" lon="15.330115"><ele>702.5999999999999</ele><time>2026-03-28T10:29:51.023Z</time></trkpt><trkpt lat="40.3159217" lon="15.3300967"><ele>703.4</ele><time>2026-03-28T10:29:52.023Z</time></trkpt><trkpt lat="40.315815" lon="15.3300767"><ele>704.2</ele><time>2026-03-28T10:29:53.024Z</time></trkpt><trkpt lat="40.3157183" lon="15.330055"><ele>705.0</ele><time>2026-03-28T10:29:54.023Z</time></trkpt><trkpt lat="40.3156267" lon="15.330015"><ele>706.2</ele><time>2026-03-28T10:29:55.023Z</time></trkpt><trkpt lat="40.3155367" lon="15.3299767"><ele>707.4</ele><time>2026-03-28T10:29:56.024Z</time></trkpt><trkpt lat="40.3154483" lon="15.3299217"><ele>708.5999999999999</ele><time>2026-03-28T10:29:57.023Z</time></trkpt><trkpt lat="40.3153667" lon="15.3298533"><ele>709.8</ele><time>2026-03-28T10:29:58.023Z</time></trkpt><trkpt lat="40.3152883" lon="15.3297783"><ele>711.0</ele><time>2026-03-28T10:29:59.023Z</time></trkpt><trkpt lat="40.3152117" lon="15.3297033"><ele>711.1999999999999</ele><time>2026-03-28T10:30:00.024Z</time></trkpt><trkpt lat="40.3151333" lon="15.3296367"><ele>711.4</ele><time>2026-03-28T10:30:01.023Z</time></trkpt><trkpt lat="40.3150567" lon="15.32958"><ele>711.6</ele><time>2026-03-28T10:30:02.023Z</time></trkpt><trkpt lat="40.314975" lon="15.3295367"><ele>711.8</ele><time>2026-03-28T10:30:03.023Z</time></trkpt><trkpt lat="40.3148883" lon="15.3295067"><ele>712.0</ele><time>2026-03-28T10:30:04.024Z</time></trkpt><trkpt lat="40.31479" lon="15.32948"><ele>711.2</ele><time>2026-03-28T10:30:05.023Z</time></trkpt><trkpt lat="40.3146867" lon="15.3294517"><ele>710.4000000000001</ele><time>2026-03-28T10:30:06.023Z</time></trkpt><trkpt lat="40.3145783" lon="15.3294283"><ele>709.5999999999999</ele><time>2026-03-28T10:30:07.023Z</time></trkpt><trkpt lat="40.3144683" lon="15.3293983"><ele>708.8</ele><time>2026-03-28T10:30:08.023Z</time></trkpt><trkpt lat="40.3143567" lon="15.3293733"><ele>708.0</ele><time>2026-03-28T10:30:09.024Z</time></trkpt><trkpt lat="40.3142417" lon="15.329345"><ele>708.0</ele><time>2026-03-28T10:30:10.024Z</time></trkpt><trkpt lat="40.3141267" lon="15.3293133"><ele>708.0</ele><time>2026-03-28T10:30:11.023Z</time></trkpt><trkpt lat="40.3140117" lon="15.3292833"><ele>708.0</ele><time>2026-03-28T10:30:12.023Z</time></trkpt><trkpt lat="40.3138983" lon="15.3292567"><ele>708.0</ele><time>2026-03-28T10:30:13.024Z</time></trkpt><trkpt lat="40.31378" lon="15.329235"><ele>708.75</ele><time>2026-03-28T10:30:14.024Z</time></trkpt><trkpt lat="40.313665" lon="15.329225"><ele>709.5</ele><time>2026-03-28T10:30:15.023Z</time></trkpt><trkpt lat="40.313545" lon="15.32923"><ele>710.25</ele><time>2026-03-28T10:30:16.023Z</time></trkpt><trkpt lat="40.3134217" lon="15.3292383"><ele>711.0</ele><time>2026-03-28T10:30:17.024Z</time></trkpt><trkpt lat="40.3132933" lon="15.329245"><ele>711.0</ele><time>2026-03-28T10:30:18.023Z</time></trkpt><trkpt lat="40.313165" lon="15.3292567"><ele>711.0</ele><time>2026-03-28T10:30:19.023Z</time></trkpt><trkpt lat="40.3130383" lon="15.3292633"><ele>711.0</ele><time>2026-03-28T10:30:20.024Z</time></trkpt><trkpt lat="40.3129033" lon="15.3292617"><ele>711.0</ele><time>2026-03-28T10:30:21.024Z</time></trkpt><trkpt lat="40.3127633" lon="15.3292617"><ele>711.75</ele><time>2026-03-28T10:30:22.024Z</time></trkpt><trkpt lat="40.3126317" lon="15.3292683"><ele>712.5</ele><time>2026-03-28T10:30:23.023Z</time></trkpt><trkpt lat="40.3125033" lon="15.3292817"><ele>713.25</ele><time>2026-03-28T10:30:24.024Z</time></trkpt><trkpt lat="40.312375" lon="15.3293"><ele>714.0</ele><time>2026-03-28T10:30:25.024Z</time></trkpt><trkpt lat="40.312245" lon="15.32932"><ele>715.25</ele><time>2026-03-28T10:30:26.023Z</time></trkpt><trkpt lat="40.3121117" lon="15.329335"><ele>716.5</ele><time>2026-03-28T10:30:27.024Z</time></trkpt><trkpt lat="40.3119833" lon="15.3293333"><ele>717.75</ele><time>2026-03-28T10:30:28.023Z</time></trkpt><trkpt lat="40.3118583" lon="15.329325"><ele>719.0</ele><time>2026-03-28T10:30:29.023Z</time></trkpt><trkpt lat="40.3117317" lon="15.3293133"><ele>719.0</ele><time>2026-03-28T10:30:30.023Z</time></trkpt><trkpt lat="40.3116083" lon="15.3293117"><ele>719.0</ele><time>2026-03-28T10:30:31.023Z</time></trkpt><trkpt lat="40.3114933" lon="15.3293183"><ele>719.0</ele><time>2026-03-28T10:30:32.023Z</time></trkpt><trkpt lat="40.3113867" lon="15.329325"><ele>719.0</ele><time>2026-03-28T10:30:33.023Z</time></trkpt><trkpt lat="40.3112917" lon="15.329335"><ele>719.0</ele><time>2026-03-28T10:30:34.023Z</time></trkpt><trkpt lat="40.31121" lon="15.3293467"><ele>719.6</ele><time>2026-03-28T10:30:35.023Z</time></trkpt><trkpt lat="40.31114" lon="15.3293683"><ele>720.2</ele><time>2026-03-28T10:30:36.023Z</time></trkpt><trkpt lat="40.31104" lon="15.3293683"><ele>720.8000000000001</ele><time>2026-03-28T10:30:38.024Z</time></trkpt><trkpt lat="40.3109467" lon="15.3293217"><ele>721.4000000000001</ele><time>2026-03-28T10:32:12.023Z</time></trkpt><trkpt lat="40.3108333" lon="15.3292867"><ele>722.0</ele><time>2026-03-28T10:32:14.023Z</time></trkpt><trkpt lat="40.3107717" lon="15.32926"><ele>722.0</ele><time>2026-03-28T10:32:15.023Z</time></trkpt><trkpt lat="40.3106967" lon="15.3292333"><ele>722.0</ele><time>2026-03-28T10:32:16.024Z</time></trkpt><trkpt lat="40.310615" lon="15.3292033"><ele>722.0</ele><time>2026-03-28T10:32:17.024Z</time></trkpt><trkpt lat="40.310535" lon="15.329175"><ele>722.0</ele><time>2026-03-28T10:32:18.023Z</time></trkpt><trkpt lat="40.3104533" lon="15.3291483"><ele>722.0</ele><time>2026-03-28T10:32:19.023Z</time></trkpt><trkpt lat="40.3103683" lon="15.3291183"><ele>722.0</ele><time>2026-03-28T10:32:20.023Z</time></trkpt><trkpt lat="40.3102833" lon="15.3290933"><ele>723.6</ele><time>2026-03-28T10:32:21.024Z</time></trkpt><trkpt lat="40.3101917" lon="15.3290667"><ele>725.2</ele><time>2026-03-28T10:32:22.024Z</time></trkpt><trkpt lat="40.3100983" lon="15.3290233"><ele>726.8</ele><time>2026-03-28T10:32:23.023Z</time></trkpt><trkpt lat="40.3100083" lon="15.3289667"><ele>728.4</ele><time>2026-03-28T10:32:24.023Z</time></trkpt><trkpt lat="40.3099217" lon="15.3288967"><ele>730.0</ele><time>2026-03-28T10:32:25.024Z</time></trkpt><trkpt lat="40.309835" lon="15.3288267"><ele>730.6</ele><time>2026-03-28T10:32:26.024Z</time></trkpt><trkpt lat="40.3097517" lon="15.328755"><ele>731.2</ele><time>2026-03-28T10:32:27.023Z</time></trkpt><trkpt lat="40.3096633" lon="15.3286833"><ele>731.8</ele><time>2026-03-28T10:32:28.024Z</time></trkpt><trkpt lat="40.30958" lon="15.328615"><ele>732.4</ele><time>2026-03-28T10:32:29.023Z</time></trkpt><trkpt lat="40.3094983" lon="15.328545"><ele>733.0</ele><time>2026-03-28T10:32:30.024Z</time></trkpt><trkpt lat="40.3094117" lon="15.328475"><ele>733.0</ele><time>2026-03-28T10:32:31.023Z</time></trkpt><trkpt lat="40.3093167" lon="15.3284067"><ele>733.0</ele><time>2026-03-28T10:32:32.024Z</time></trkpt><trkpt lat="40.3092267" lon="15.3283383"><ele>733.0</ele><time>2026-03-28T10:32:33.024Z</time></trkpt><trkpt lat="40.3091333" lon="15.3282667"><ele>733.0</ele><time>2026-03-28T10:32:34.023Z</time></trkpt><trkpt lat="40.30904" lon="15.3281967"><ele>733.0</ele><time>2026-03-28T10:32:35.023Z</time></trkpt><trkpt lat="40.3089467" lon="15.3281283"><ele>735.4</ele><time>2026-03-28T10:32:36.023Z</time></trkpt><trkpt lat="40.3088567" lon="15.328055"><ele>737.8</ele><time>2026-03-28T10:32:37.023Z</time></trkpt><trkpt lat="40.308765" lon="15.3279983"><ele>740.2</ele><time>2026-03-28T10:32:38.023Z</time></trkpt><trkpt lat="40.3086733" lon="15.3279383"><ele>742.6</ele><time>2026-03-28T10:32:39.023Z</time></trkpt><trkpt lat="40.3085817" lon="15.32788"><ele>745.0</ele><time>2026-03-28T10:32:40.024Z</time></trkpt><trkpt lat="40.3084867" lon="15.3278283"><ele>745.0</ele><time>2026-03-28T10:32:41.023Z</time></trkpt><trkpt lat="40.3083833" lon="15.3277867"><ele>745.0</ele><time>2026-03-28T10:32:42.024Z</time></trkpt><trkpt lat="40.3082817" lon="15.3277467"><ele>745.0</ele><time>2026-03-28T10:32:43.024Z</time></trkpt><trkpt lat="40.3081733" lon="15.3277183"><ele>745.0</ele><time>2026-03-28T10:32:44.023Z</time></trkpt><trkpt lat="40.3080633" lon="15.327695"><ele>745.0</ele><time>2026-03-28T10:32:45.024Z</time></trkpt><trkpt lat="40.3079617" lon="15.3276717"><ele>746.2</ele><time>2026-03-28T10:32:46.023Z</time></trkpt><trkpt lat="40.3078567" lon="15.3276433"><ele>747.4</ele><time>2026-03-28T10:32:47.023Z</time></trkpt><trkpt lat="40.307755" lon="15.3276167"><ele>748.5999999999999</ele><time>2026-03-28T10:32:48.023Z</time></trkpt><trkpt lat="40.3076533" lon="15.3275883"><ele>749.8</ele><time>2026-03-28T10:32:49.023Z</time></trkpt><trkpt lat="40.3075533" lon="15.3275617"><ele>751.0</ele><time>2026-03-28T10:32:50.023Z</time></trkpt><trkpt lat="40.3074417" lon="15.3275417"><ele>751.0</ele><time>2026-03-28T10:32:51.023Z</time></trkpt><trkpt lat="40.3073317" lon="15.3275233"><ele>751.0</ele><time>2026-03-28T10:32:52.023Z</time></trkpt><trkpt lat="40.3072183" lon="15.3275083"><ele>751.0</ele><time>2026-03-28T10:32:53.023Z</time></trkpt><trkpt lat="40.3070967" lon="15.3274917"><ele>751.0</ele><time>2026-03-28T10:32:54.023Z</time></trkpt><trkpt lat="40.306975" lon="15.3274767"><ele>753.5</ele><time>2026-03-28T10:32:55.024Z</time></trkpt><trkpt lat="40.3068417" lon="15.3274633"><ele>756.0</ele><time>2026-03-28T10:32:56.023Z</time></trkpt><trkpt lat="40.3067" lon="15.3274633"><ele>758.5</ele><time>2026-03-28T10:32:57.023Z</time></trkpt><trkpt lat="40.30657" lon="15.32745"><ele>761.0</ele><time>2026-03-28T10:32:58.023Z</time></trkpt><trkpt lat="40.3064333" lon="15.32744"><ele>765.5</ele><time>2026-03-28T10:32:59.023Z</time></trkpt><trkpt lat="40.3062967" lon="15.3274333"><ele>770.0</ele><time>2026-03-28T10:33:00.023Z</time></trkpt><trkpt lat="40.3061617" lon="15.3274283"><ele>774.5</ele><time>2026-03-28T10:33:01.023Z</time></trkpt><trkpt lat="40.3060333" lon="15.327425"><ele>779.0</ele><time>2026-03-28T10:33:02.023Z</time></trkpt><trkpt lat="40.3059033" lon="15.327425"><ele>779.0</ele><time>2026-03-28T10:33:03.024Z</time></trkpt><trkpt lat="40.30578" lon="15.3274117"><ele>779.0</ele><time>2026-03-28T10:33:04.023Z</time></trkpt><trkpt lat="40.3056583" lon="15.3274083"><ele>779.0</ele><time>2026-03-28T10:33:05.023Z</time></trkpt><trkpt lat="40.305535" lon="15.327415"><ele>779.0</ele><time>2026-03-28T10:33:06.024Z</time></trkpt><trkpt lat="40.3054117" lon="15.327415"><ele>783.25</ele><time>2026-03-28T10:33:07.024Z</time></trkpt><trkpt lat="40.305285" lon="15.327415"><ele>787.5</ele><time>2026-03-28T10:33:08.023Z</time></trkpt><trkpt lat="40.305155" lon="15.3274067"><ele>791.75</ele><time>2026-03-28T10:33:09.024Z</time></trkpt><trkpt lat="40.3050283" lon="15.3273933"><ele>796.0</ele><time>2026-03-28T10:33:10.023Z</time></trkpt><trkpt lat="40.304905" lon="15.32738"><ele>796.0</ele><time>2026-03-28T10:33:11.023Z</time></trkpt><trkpt lat="40.30478" lon="15.3273383"><ele>796.0</ele><time>2026-03-28T10:33:12.023Z</time></trkpt><trkpt lat="40.3046583" lon="15.327295"><ele>796.0</ele><time>2026-03-28T10:33:13.023Z</time></trkpt><trkpt lat="40.3045417" lon="15.32726"><ele>796.0</ele><time>2026-03-28T10:33:14.023Z</time></trkpt><trkpt lat="40.3044317" lon="15.3272133"><ele>800.0</ele><time>2026-03-28T10:33:15.024Z</time></trkpt><trkpt lat="40.3043133" lon="15.327155"><ele>804.0</ele><time>2026-03-28T10:33:16.023Z</time></trkpt><trkpt lat="40.3042" lon="15.3271167"><ele>808.0</ele><time>2026-03-28T10:33:17.024Z</time></trkpt><trkpt lat="40.304085" lon="15.32712"><ele>812.0</ele><time>2026-03-28T10:33:18.023Z</time></trkpt><trkpt lat="40.30397" lon="15.3271283"><ele>816.0</ele><time>2026-03-28T10:33:19.023Z</time></trkpt><trkpt lat="40.3038533" lon="15.3271383"><ele>820.0</ele><time>2026-03-28T10:33:20.024Z</time></trkpt><trkpt lat="40.3037367" lon="15.32713"><ele>824.0</ele><time>2026-03-28T10:33:21.023Z</time></trkpt><trkpt lat="40.3036167" lon="15.3270917"><ele>828.0</ele><time>2026-03-28T10:33:22.024Z</time></trkpt><trkpt lat="40.303495" lon="15.3270433"><ele>828.0</ele><time>2026-03-28T10:33:23.023Z</time></trkpt><trkpt lat="40.3033783" lon="15.3270033"><ele>828.0</ele><time>2026-03-28T10:33:24.023Z</time></trkpt><trkpt lat="40.3032667" lon="15.32696"><ele>828.0</ele><time>2026-03-28T10:33:25.024Z</time></trkpt><trkpt lat="40.30316" lon="15.3269333"><ele>828.0</ele><time>2026-03-28T10:33:26.024Z</time></trkpt><trkpt lat="40.3030617" lon="15.3269217"><ele>828.0</ele><time>2026-03-28T10:33:27.024Z</time></trkpt><trkpt lat="40.3029717" lon="15.3269283"><ele>828.5999999999999</ele><time>2026-03-28T10:33:28.024Z</time></trkpt><trkpt lat="40.302885" lon="15.326945"><ele>829.1999999999999</ele><time>2026-03-28T10:33:29.024Z</time></trkpt><trkpt lat="40.3027933" lon="15.3269683"><ele>829.8</ele><time>2026-03-28T10:33:30.023Z</time></trkpt><trkpt lat="40.3027" lon="15.3270083"><ele>830.4</ele><time>2026-03-28T10:33:31.024Z</time></trkpt><trkpt lat="40.3026" lon="15.3270467"><ele>831.0</ele><time>2026-03-28T10:33:32.023Z</time></trkpt><trkpt lat="40.3025033" lon="15.3271"><ele>831.0</ele><time>2026-03-28T10:33:33.023Z</time></trkpt><trkpt lat="40.3024067" lon="15.32716"><ele>831.0</ele><time>2026-03-28T10:33:34.024Z</time></trkpt><trkpt lat="40.3023133" lon="15.3272317"><ele>831.0</ele><time>2026-03-28T10:33:35.024Z</time></trkpt><trkpt lat="40.3022267" lon="15.3272983"><ele>831.0</ele><time>2026-03-28T10:33:36.024Z</time></trkpt><trkpt lat="40.302145" lon="15.3273583"><ele>831.0</ele><time>2026-03-28T10:33:37.024Z</time></trkpt><trkpt lat="40.3020583" lon="15.3273967"><ele>830.8</ele><time>2026-03-28T10:33:38.023Z</time></trkpt><trkpt lat="40.30196" lon="15.32741"><ele>830.5999999999999</ele><time>2026-03-28T10:33:39.024Z</time></trkpt><trkpt lat="40.3018583" lon="15.3274017"><ele>830.4</ele><time>2026-03-28T10:33:40.023Z</time></trkpt><trkpt lat="40.301755" lon="15.3273933"><ele>830.2</ele><time>2026-03-28T10:33:41.024Z</time></trkpt><trkpt lat="40.301655" lon="15.3273917"><ele>830.0</ele><time>2026-03-28T10:33:42.023Z</time></trkpt><trkpt lat="40.301545" lon="15.327405"><ele>830.0</ele><time>2026-03-28T10:33:43.023Z</time></trkpt><trkpt lat="40.30144" lon="15.3274333"><ele>830.0</ele><time>2026-03-28T10:33:44.023Z</time></trkpt><trkpt lat="40.30134" lon="15.327485"><ele>830.0</ele><time>2026-03-28T10:33:45.024Z</time></trkpt><trkpt lat="40.301235" lon="15.3275367"><ele>830.0</ele><time>2026-03-28T10:33:46.023Z</time></trkpt><trkpt lat="40.3011233" lon="15.32759"><ele>830.0</ele><time>2026-03-28T10:33:47.023Z</time></trkpt><trkpt lat="40.3010117" lon="15.3276433"><ele>829.0</ele><time>2026-03-28T10:33:48.023Z</time></trkpt><trkpt lat="40.3008983" lon="15.3276967"><ele>828.0</ele><time>2026-03-28T10:33:49.024Z</time></trkpt><trkpt lat="40.30078" lon="15.3277333"><ele>827.0</ele><time>2026-03-28T10:33:50.024Z</time></trkpt><trkpt lat="40.30066" lon="15.3277767"><ele>826.0</ele><time>2026-03-28T10:33:51.024Z</time></trkpt><trkpt lat="40.3005317" lon="15.3277983"><ele>828.5</ele><time>2026-03-28T10:33:52.023Z</time></trkpt><trkpt lat="40.3004" lon="15.32782"><ele>831.0</ele><time>2026-03-28T10:33:53.023Z</time></trkpt><trkpt lat="40.300265" lon="15.3278317"><ele>833.5</ele><time>2026-03-28T10:33:54.023Z</time></trkpt><trkpt lat="40.3001383" lon="15.3278333"><ele>836.0</ele><time>2026-03-28T10:33:55.023Z</time></trkpt><trkpt lat="40.3" lon="15.3278233"><ele>836.0</ele><time>2026-03-28T10:33:56.024Z</time></trkpt><trkpt lat="40.299865" lon="15.327825"><ele>836.0</ele><time>2026-03-28T10:33:57.023Z</time></trkpt><trkpt lat="40.2997283" lon="15.3278283"><ele>836.0</ele><time>2026-03-28T10:33:58.023Z</time></trkpt><trkpt lat="40.299595" lon="15.3278267"><ele>836.0</ele><time>2026-03-28T10:33:59.023Z</time></trkpt><trkpt lat="40.29947" lon="15.3278267"><ele>841.0</ele><time>2026-03-28T10:34:00.024Z</time></trkpt><trkpt lat="40.299345" lon="15.3278133"><ele>846.0</ele><time>2026-03-28T10:34:01.023Z</time></trkpt><trkpt lat="40.2992117" lon="15.3277733"><ele>851.0</ele><time>2026-03-28T10:34:02.024Z</time></trkpt><trkpt lat="40.2990883" lon="15.3277233"><ele>856.0</ele><time>2026-03-28T10:34:03.023Z</time></trkpt><trkpt lat="40.2989683" lon="15.3276683"><ele>858.25</ele><time>2026-03-28T10:34:04.024Z</time></trkpt><trkpt lat="40.2988533" lon="15.327605"><ele>860.5</ele><time>2026-03-28T10:34:05.024Z</time></trkpt><trkpt lat="40.2987417" lon="15.327545"><ele>862.75</ele><time>2026-03-28T10:34:06.023Z</time></trkpt><trkpt lat="40.2986333" lon="15.3274767"><ele>865.0</ele><time>2026-03-28T10:34:07.023Z</time></trkpt><trkpt lat="40.2985217" lon="15.3274233"><ele>865.0</ele><time>2026-03-28T10:34:08.023Z</time></trkpt><trkpt lat="40.2984033" lon="15.32738"><ele>865.0</ele><time>2026-03-28T10:34:09.024Z</time></trkpt><trkpt lat="40.298285" lon="15.32735"><ele>865.0</ele><time>2026-03-28T10:34:10.024Z</time></trkpt><trkpt lat="40.2981617" lon="15.32732"><ele>865.0</ele><time>2026-03-28T10:34:11.024Z</time></trkpt><trkpt lat="40.2980267" lon="15.3272883"><ele>864.25</ele><time>2026-03-28T10:34:12.023Z</time></trkpt><trkpt lat="40.2978833" lon="15.3272583"><ele>863.5</ele><time>2026-03-28T10:34:13.023Z</time></trkpt><trkpt lat="40.2977383" lon="15.3272233"><ele>862.75</ele><time>2026-03-28T10:34:14.024Z</time></trkpt><trkpt lat="40.2975917" lon="15.3271817"><ele>862.0</ele><time>2026-03-28T10:34:15.024Z</time></trkpt><trkpt lat="40.29744" lon="15.3271333"><ele>862.0</ele><time>2026-03-28T10:34:16.024Z</time></trkpt><trkpt lat="40.297295" lon="15.3270933"><ele>862.0</ele><time>2026-03-28T10:34:17.023Z</time></trkpt><trkpt lat="40.2971483" lon="15.3270483"><ele>862.0</ele><time>2026-03-28T10:34:18.023Z</time></trkpt><trkpt lat="40.2970167" lon="15.32701"><ele>862.0</ele><time>2026-03-28T10:34:19.024Z</time></trkpt><trkpt lat="40.296895" lon="15.3269883"><ele>860.6</ele><time>2026-03-28T10:34:20.023Z</time></trkpt><trkpt lat="40.2968017" lon="15.3270083"><ele>859.2</ele><time>2026-03-28T10:34:21.023Z</time></trkpt><trkpt lat="40.2967333" lon="15.3270583"><ele>857.8</ele><time>2026-03-28T10:34:22.023Z</time></trkpt><trkpt lat="40.2966833" lon="15.3271883"><ele>856.4</ele><time>2026-03-28T10:34:24.023Z</time></trkpt><trkpt lat="40.2967383" lon="15.3273067"><ele>855.0</ele><time>2026-03-28T10:34:26.024Z</time></trkpt><trkpt lat="40.296805" lon="15.32735"><ele>858.0</ele><time>2026-03-28T10:34:27.023Z</time></trkpt><trkpt lat="40.2968817" lon="15.32738"><ele>861.0</ele><time>2026-03-28T10:34:28.023Z</time></trkpt><trkpt lat="40.2969633" lon="15.327405"><ele>864.0</ele><time>2026-03-28T10:34:29.023Z</time></trkpt><trkpt lat="40.297055" lon="15.3274267"><ele>867.0</ele><time>2026-03-28T10:34:30.023Z</time></trkpt><trkpt lat="40.2971567" lon="15.3274583"><ele>870.0</ele><time>2026-03-28T10:34:31.023Z</time></trkpt><trkpt lat="40.2972583" lon="15.3275017"><ele>870.0</ele><time>2026-03-28T10:34:32.023Z</time></trkpt><trkpt lat="40.2973683" lon="15.3275517"><ele>870.0</ele><time>2026-03-28T10:34:33.023Z</time></trkpt><trkpt lat="40.297485" lon="15.3276083"><ele>870.0</ele><time>2026-03-28T10:34:34.023Z</time></trkpt><trkpt lat="40.2976083" lon="15.3276683"><ele>870.0</ele><time>2026-03-28T10:34:35.024Z</time></trkpt><trkpt lat="40.2977367" lon="15.3277267"><ele>870.0</ele><time>2026-03-28T10:34:36.023Z</time></trkpt><trkpt lat="40.297855" lon="15.3277917"><ele>870.0</ele><time>2026-03-28T10:34:37.024Z</time></trkpt><trkpt lat="40.2979617" lon="15.3278467"><ele>870.0</ele><time>2026-03-28T10:34:38.023Z</time></trkpt><trkpt lat="40.298075" lon="15.3279217"><ele>870.0</ele><time>2026-03-28T10:34:39.023Z</time></trkpt><trkpt lat="40.2981867" lon="15.32799"><ele>875.0</ele><time>2026-03-28T10:34:40.024Z</time></trkpt><trkpt lat="40.2982967" lon="15.3280733"><ele>880.0</ele><time>2026-03-28T10:34:41.024Z</time></trkpt><trkpt lat="40.2984183" lon="15.3281633"><ele>885.0</ele><time>2026-03-28T10:34:42.023Z</time></trkpt><trkpt lat="40.2985333" lon="15.32824"><ele>890.0</ele><time>2026-03-28T10:34:43.024Z</time></trkpt><trkpt lat="40.298645" lon="15.32832"><ele>890.0</ele><time>2026-03-28T10:34:44.023Z</time></trkpt><trkpt lat="40.2987433" lon="15.3283833"><ele>890.0</ele><time>2026-03-28T10:34:45.024Z</time></trkpt><trkpt lat="40.2988267" lon="15.328435"><ele>890.0</ele><time>2026-03-28T10:34:46.023Z</time></trkpt><trkpt lat="40.2988983" lon="15.3284817"><ele>890.0</ele><time>2026-03-28T10:34:47.023Z</time></trkpt><trkpt lat="40.2989883" lon="15.3285683"><ele>890.0</ele><time>2026-03-28T10:34:49.024Z</time></trkpt><trkpt lat="40.2989417" lon="15.3286467"><ele>890.0</ele><time>2026-03-28T10:34:51.024Z</time></trkpt><trkpt lat="40.2988367" lon="15.3286767"><ele>890.0</ele><time>2026-03-28T10:34:53.023Z</time></trkpt><trkpt lat="40.2987483" lon="15.32864"><ele>890.0</ele><time>2026-03-28T10:34:54.023Z</time></trkpt><trkpt lat="40.298655" lon="15.3285983"><ele>890.0</ele><time>2026-03-28T10:34:55.024Z</time></trkpt><trkpt lat="40.298545" lon="15.3285517"><ele>890.0</ele><time>2026-03-28T10:34:56.024Z</time></trkpt><trkpt lat="40.2984133" lon="15.3285"><ele>890.0</ele><time>2026-03-28T10:34:57.024Z</time></trkpt><trkpt lat="40.298265" lon="15.32844"><ele>890.0</ele><time>2026-03-28T10:34:58.023Z</time></trkpt><trkpt lat="40.2981217" lon="15.32837"><ele>890.0</ele><time>2026-03-28T10:34:59.024Z</time></trkpt><trkpt lat="40.2979917" lon="15.328295"><ele>893.25</ele><time>2026-03-28T10:35:00.023Z</time></trkpt><trkpt lat="40.2978567" lon="15.3282167"><ele>896.5</ele><time>2026-03-28T10:35:01.024Z</time></trkpt><trkpt lat="40.297735" lon="15.3281583"><ele>899.75</ele><time>2026-03-28T10:35:02.023Z</time></trkpt><trkpt lat="40.2976433" lon="15.328145"><ele>903.0</ele><time>2026-03-28T10:35:03.023Z</time></trkpt><trkpt lat="40.2975533" lon="15.32822"><ele>903.0</ele><time>2026-03-28T10:35:05.023Z</time></trkpt><trkpt lat="40.297585" lon="15.3283333"><ele>903.0</ele><time>2026-03-28T10:35:07.024Z</time></trkpt><trkpt lat="40.29764" lon="15.3283783"><ele>903.0</ele><time>2026-03-28T10:35:08.024Z</time></trkpt><trkpt lat="40.2977117" lon="15.3284183"><ele>903.0</ele><time>2026-03-28T10:35:09.023Z</time></trkpt><trkpt lat="40.2977967" lon="15.3284683"><ele>903.0</ele><time>2026-03-28T10:35:10.024Z</time></trkpt><trkpt lat="40.2978867" lon="15.3285317"><ele>903.0</ele><time>2026-03-28T10:35:11.024Z</time></trkpt><trkpt lat="40.2979833" lon="15.328605"><ele>903.0</ele><time>2026-03-28T10:35:12.023Z</time></trkpt><trkpt lat="40.2980783" lon="15.3286883"><ele>903.0</ele><time>2026-03-28T10:35:13.024Z</time></trkpt><trkpt lat="40.2981717" lon="15.328775"><ele>903.0</ele><time>2026-03-28T10:35:14.024Z</time></trkpt><trkpt lat="40.2982717" lon="15.3288617"><ele>903.0</ele><time>2026-03-28T10:35:15.023Z</time></trkpt><trkpt lat="40.298385" lon="15.3289483"><ele>910.0</ele><time>2026-03-28T10:35:16.024Z</time></trkpt><trkpt lat="40.2985033" lon="15.32903"><ele>917.0</ele><time>2026-03-28T10:35:17.023Z</time></trkpt><trkpt lat="40.2986367" lon="15.3291017"><ele>924.0</ele><time>2026-03-28T10:35:18.024Z</time></trkpt><trkpt lat="40.298775" lon="15.3291633"><ele>931.0</ele><time>2026-03-28T10:35:19.024Z</time></trkpt><trkpt lat="40.2989133" lon="15.329225"><ele>926.0</ele><time>2026-03-28T10:35:20.024Z</time></trkpt><trkpt lat="40.2990433" lon="15.3292933"><ele>921.0</ele><time>2026-03-28T10:35:21.023Z</time></trkpt><trkpt lat="40.2991567" lon="15.3293817"><ele>916.0</ele><time>2026-03-28T10:35:22.024Z</time></trkpt><trkpt lat="40.2992583" lon="15.32949"><ele>911.0</ele><time>2026-03-28T10:35:23.024Z</time></trkpt><trkpt lat="40.2993517" lon="15.329595"><ele>911.0</ele><time>2026-03-28T10:35:24.024Z</time></trkpt><trkpt lat="40.299445" lon="15.3297017"><ele>911.0</ele><time>2026-03-28T10:35:25.023Z</time></trkpt><trkpt lat="40.2995383" lon="15.32981"><ele>911.0</ele><time>2026-03-28T10:35:26.023Z</time></trkpt><trkpt lat="40.2996383" lon="15.3298867"><ele>911.0</ele><time>2026-03-28T10:35:27.024Z</time></trkpt><trkpt lat="40.2997383" lon="15.329935"><ele>919.0</ele><time>2026-03-28T10:35:28.023Z</time></trkpt><trkpt lat="40.29985" lon="15.329955"><ele>927.0</ele><time>2026-03-28T10:35:29.023Z</time></trkpt><trkpt lat="40.2999633" lon="15.3299433"><ele>935.0</ele><time>2026-03-28T10:35:30.023Z</time></trkpt><trkpt lat="40.3000883" lon="15.32991"><ele>943.0</ele><time>2026-03-28T10:35:31.023Z</time></trkpt><trkpt lat="40.3002133" lon="15.3298667"><ele>943.0</ele><time>2026-03-28T10:35:32.023Z</time></trkpt><trkpt lat="40.3003183" lon="15.3298017"><ele>943.0</ele><time>2026-03-28T10:35:33.023Z</time></trkpt><trkpt lat="40.3004133" lon="15.32975"><ele>943.0</ele><time>2026-03-28T10:35:34.023Z</time></trkpt><trkpt lat="40.300485" lon="15.3297017"><ele>943.0</ele><time>2026-03-28T10:35:35.023Z</time></trkpt><trkpt lat="40.3005667" lon="15.329685"><ele>943.0</ele><time>2026-03-28T10:35:36.023Z</time></trkpt><trkpt lat="40.30065" lon="15.3296983"><ele>942.25</ele><time>2026-03-28T10:35:37.023Z</time></trkpt><trkpt lat="40.3007367" lon="15.3297483"><ele>941.5</ele><time>2026-03-28T10:35:38.024Z</time></trkpt><trkpt lat="40.30082" lon="15.3298333"><ele>940.75</ele><time>2026-03-28T10:35:39.023Z</time></trkpt><trkpt lat="40.3009067" lon="15.3299567"><ele>940.0</ele><time>2026-03-28T10:35:40.023Z</time></trkpt><trkpt lat="40.300985" lon="15.3300883"><ele>940.0</ele><time>2026-03-28T10:35:41.024Z</time></trkpt><trkpt lat="40.301045" lon="15.3302017"><ele>940.0</ele><time>2026-03-28T10:35:42.023Z</time></trkpt><trkpt lat="40.3011017" lon="15.3303233"><ele>940.0</ele><time>2026-03-28T10:35:43.023Z</time></trkpt><trkpt lat="40.3011417" lon="15.33045"><ele>940.0</ele><time>2026-03-28T10:35:44.023Z</time></trkpt><trkpt lat="40.3011617" lon="15.330585"><ele>940.0</ele><time>2026-03-28T10:35:45.024Z</time></trkpt><trkpt lat="40.301175" lon="15.3307283"><ele>946.25</ele><time>2026-03-28T10:35:46.023Z</time></trkpt><trkpt lat="40.30119" lon="15.3308933"><ele>952.5</ele><time>2026-03-28T10:35:47.023Z</time></trkpt><trkpt lat="40.3012133" lon="15.3310567"><ele>958.75</ele><time>2026-03-28T10:35:48.024Z</time></trkpt><trkpt lat="40.301235" lon="15.3312033"><ele>965.0</ele><time>2026-03-28T10:35:49.024Z</time></trkpt><trkpt lat="40.3012483" lon="15.3313183"><ele>965.6</ele><time>2026-03-28T10:35:50.023Z</time></trkpt><trkpt lat="40.3012767" lon="15.3314333"><ele>966.2</ele><time>2026-03-28T10:35:51.023Z</time></trkpt><trkpt lat="40.301325" lon="15.3315433"><ele>966.8</ele><time>2026-03-28T10:35:52.023Z</time></trkpt><trkpt lat="40.301395" lon="15.3316467"><ele>967.4</ele><time>2026-03-28T10:35:53.023Z</time></trkpt><trkpt lat="40.30148" lon="15.3317467"><ele>968.0</ele><time>2026-03-28T10:35:54.024Z</time></trkpt><trkpt lat="40.3015533" lon="15.3318417"><ele>968.0</ele><time>2026-03-28T10:35:55.024Z</time></trkpt><trkpt lat="40.301605" lon="15.3319417"><ele>968.0</ele><time>2026-03-28T10:35:56.024Z</time></trkpt><trkpt lat="40.3016317" lon="15.332025"><ele>968.0</ele><time>2026-03-28T10:35:57.023Z</time></trkpt><trkpt lat="40.3015967" lon="15.3321483"><ele>968.0</ele><time>2026-03-28T10:35:59.023Z</time></trkpt><trkpt lat="40.3014917" lon="15.3321917"><ele>968.0</ele><time>2026-03-28T10:36:01.024Z</time></trkpt><trkpt lat="40.301405" lon="15.332185"><ele>969.5</ele><time>2026-03-28T10:36:02.023Z</time></trkpt><trkpt lat="40.30128" lon="15.3321733"><ele>971.0</ele><time>2026-03-28T10:36:03.023Z</time></trkpt><trkpt lat="40.3011383" lon="15.3321617"><ele>972.5</ele><time>2026-03-28T10:36:04.023Z</time></trkpt><trkpt lat="40.3010117" lon="15.332155"><ele>974.0</ele><time>2026-03-28T10:36:05.023Z</time></trkpt><trkpt lat="40.3008933" lon="15.3321317"><ele>974.0000000000001</ele><time>2026-03-28T10:36:06.023Z</time></trkpt><trkpt lat="40.3007883" lon="15.3321067"><ele>974.0</ele><time>2026-03-28T10:36:07.023Z</time></trkpt><trkpt lat="40.30069" lon="15.332095"><ele>974.0</ele><time>2026-03-28T10:36:08.024Z</time></trkpt><trkpt lat="40.300605" lon="15.3320883"><ele>974.0</ele><time>2026-03-28T10:36:09.024Z</time></trkpt><trkpt lat="40.300535" lon="15.3320683"><ele>974.0000000000001</ele><time>2026-03-28T10:36:10.024Z</time></trkpt><trkpt lat="40.3004767" lon="15.3320183"><ele>974.0</ele><time>2026-03-28T10:36:11.024Z</time></trkpt><trkpt lat="40.3004283" lon="15.331845"><ele>974.2</ele><time>2026-03-28T10:36:13.024Z</time></trkpt><trkpt lat="40.3004067" lon="15.3317217"><ele>974.4000000000001</ele><time>2026-03-28T10:36:14.023Z</time></trkpt><trkpt lat="40.300375" lon="15.3315967"><ele>974.6</ele><time>2026-03-28T10:36:15.023Z</time></trkpt><trkpt lat="40.3003467" lon="15.3314533"><ele>974.8</ele><time>2026-03-28T10:36:16.023Z</time></trkpt><trkpt lat="40.30034" lon="15.3313083"><ele>975.0</ele><time>2026-03-28T10:36:17.023Z</time></trkpt><trkpt lat="40.3003317" lon="15.3311683"><ele>975.0</ele><time>2026-03-28T10:36:18.024Z</time></trkpt><trkpt lat="40.300315" lon="15.3310467"><ele>975.0</ele><time>2026-03-28T10:36:19.023Z</time></trkpt><trkpt lat="40.3002867" lon="15.330945"><ele>975.0</ele><time>2026-03-28T10:36:20.024Z</time></trkpt><trkpt lat="40.3002283" lon="15.3308683"><ele>975.0</ele><time>2026-03-28T10:36:21.024Z</time></trkpt><trkpt lat="40.3001633" lon="15.3308383"><ele>975.0</ele><time>2026-03-28T10:36:22.023Z</time></trkpt><trkpt lat="40.3000967" lon="15.330845"><ele>975.0</ele><time>2026-03-28T10:36:23.024Z</time></trkpt><trkpt lat="40.300025" lon="15.33088"><ele>975.0</ele><time>2026-03-28T10:36:24.023Z</time></trkpt><trkpt lat="40.2999433" lon="15.3309433"><ele>975.0</ele><time>2026-03-28T10:36:25.023Z</time></trkpt><trkpt lat="40.29985" lon="15.3310183"><ele>975.0</ele><time>2026-03-28T10:36:26.023Z</time></trkpt><trkpt lat="40.2997467" lon="15.3311017"><ele>975.0</ele><time>2026-03-28T10:36:27.024Z</time></trkpt><trkpt lat="40.2996333" lon="15.3311817"><ele>978.5</ele><time>2026-03-28T10:36:28.024Z</time></trkpt><trkpt lat="40.29952" lon="15.3312667"><ele>982.0</ele><time>2026-03-28T10:36:29.023Z</time></trkpt><trkpt lat="40.2994167" lon="15.3313483"><ele>985.5</ele><time>2026-03-28T10:36:30.023Z</time></trkpt><trkpt lat="40.29932" lon="15.3313983"><ele>989.0</ele><time>2026-03-28T10:36:31.024Z</time></trkpt><trkpt lat="40.2992133" lon="15.3314217"><ele>992.6</ele><time>2026-03-28T10:36:32.023Z</time></trkpt><trkpt lat="40.29911" lon="15.331425"><ele>996.2</ele><time>2026-03-28T10:36:33.023Z</time></trkpt><trkpt lat="40.2989983" lon="15.33144"><ele>999.8000000000001</ele><time>2026-03-28T10:36:34.023Z</time></trkpt><trkpt lat="40.298895" lon="15.3314567"><ele>1003.4000000000001</ele><time>2026-03-28T10:36:35.023Z</time></trkpt><trkpt lat="40.2988017" lon="15.3314517"><ele>1007.0</ele><time>2026-03-28T10:36:36.024Z</time></trkpt><trkpt lat="40.29872" lon="15.3314333"><ele>1008.0</ele><time>2026-03-28T10:36:37.023Z</time></trkpt><trkpt lat="40.29865" lon="15.3313783"><ele>1009.0</ele><time>2026-03-28T10:36:38.023Z</time></trkpt><trkpt lat="40.2985817" lon="15.33129"><ele>1010.0</ele><time>2026-03-28T10:36:39.023Z</time></trkpt><trkpt lat="40.2985033" lon="15.3311617"><ele>1011.0</ele><time>2026-03-28T10:36:40.023Z</time></trkpt><trkpt lat="40.298455" lon="15.3310217"><ele>1012.0</ele><time>2026-03-28T10:36:41.023Z</time></trkpt><trkpt lat="40.2983967" lon="15.3309033"><ele>1012.0</ele><time>2026-03-28T10:36:42.023Z</time></trkpt><trkpt lat="40.298325" lon="15.3308367"><ele>1012.0</ele><time>2026-03-28T10:36:43.023Z</time></trkpt><trkpt lat="40.2982383" lon="15.3308083"><ele>1012.0</ele><time>2026-03-28T10:36:44.024Z</time></trkpt><trkpt lat="40.29814" lon="15.3308267"><ele>1012.0</ele><time>2026-03-28T10:36:45.023Z</time></trkpt><trkpt lat="40.2980317" lon="15.3308667"><ele>1012.0</ele><time>2026-03-28T10:36:46.024Z</time></trkpt><trkpt lat="40.2979133" lon="15.3309133"><ele>1013.25</ele><time>2026-03-28T10:36:47.024Z</time></trkpt><trkpt lat="40.297785" lon="15.3309667"><ele>1014.5</ele><time>2026-03-28T10:36:48.023Z</time></trkpt><trkpt lat="40.2976633" lon="15.3310417"><ele>1015.75</ele><time>2026-03-28T10:36:49.023Z</time></trkpt><trkpt lat="40.2975517" lon="15.33115"><ele>1017.0</ele><time>2026-03-28T10:36:50.023Z</time></trkpt><trkpt lat="40.29746" lon="15.3312867"><ele>1018.5</ele><time>2026-03-28T10:36:51.024Z</time></trkpt><trkpt lat="40.2973833" lon="15.3314417"><ele>1020.0</ele><time>2026-03-28T10:36:52.024Z</time></trkpt><trkpt lat="40.2973133" lon="15.3316033"><ele>1021.5</ele><time>2026-03-28T10:36:53.024Z</time></trkpt><trkpt lat="40.2972467" lon="15.331755"><ele>1023.0</ele><time>2026-03-28T10:36:54.023Z</time></trkpt><trkpt lat="40.2971683" lon="15.3318883"><ele>1023.0</ele><time>2026-03-28T10:36:55.023Z</time></trkpt><trkpt lat="40.2970733" lon="15.332005"><ele>1023.0</ele><time>2026-03-28T10:36:56.024Z</time></trkpt><trkpt lat="40.296965" lon="15.3321033"><ele>1023.0</ele><time>2026-03-28T10:36:57.024Z</time></trkpt><trkpt lat="40.2968517" lon="15.3322033"><ele>1023.0</ele><time>2026-03-28T10:36:58.023Z</time></trkpt><trkpt lat="40.296745" lon="15.3323067"><ele>1022.5</ele><time>2026-03-28T10:36:59.023Z</time></trkpt><trkpt lat="40.2966433" lon="15.3324033"><ele>1022.0</ele><time>2026-03-28T10:37:00.024Z</time></trkpt><trkpt lat="40.2965483" lon="15.3324983"><ele>1021.5</ele><time>2026-03-28T10:37:01.024Z</time></trkpt><trkpt lat="40.29647" lon="15.332595"><ele>1021.0</ele><time>2026-03-28T10:37:02.023Z</time></trkpt><trkpt lat="40.2964067" lon="15.3327017"><ele>1021.0</ele><time>2026-03-28T10:37:03.023Z</time></trkpt><trkpt lat="40.29635" lon="15.33282"><ele>1020.9999999999999</ele><time>2026-03-28T10:37:04.023Z</time></trkpt><trkpt lat="40.296305" lon="15.3329417"><ele>1020.9999999999999</ele><time>2026-03-28T10:37:05.023Z</time></trkpt><trkpt lat="40.296265" lon="15.3330617"><ele>1021.0</ele><time>2026-03-28T10:37:06.023Z</time></trkpt><trkpt lat="40.29623" lon="15.3331733"><ele>1021.0</ele><time>2026-03-28T10:37:07.023Z</time></trkpt><trkpt lat="40.2962067" lon="15.333275"><ele>1022.8571428571429</ele><time>2026-03-28T10:37:08.023Z</time></trkpt><trkpt lat="40.296175" lon="15.3333617"><ele>1024.7142857142858</ele><time>2026-03-28T10:37:09.023Z</time></trkpt><trkpt lat="40.2961383" lon="15.333435"><ele>1026.5714285714287</ele><time>2026-03-28T10:37:10.024Z</time></trkpt><trkpt lat="40.2960867" lon="15.3334917"><ele>1028.4285714285716</ele><time>2026-03-28T10:37:11.024Z</time></trkpt><trkpt lat="40.2960183" lon="15.33351"><ele>1030.2857142857144</ele><time>2026-03-28T10:37:12.023Z</time></trkpt><trkpt lat="40.2959367" lon="15.3335083"><ele>1032.142857142857</ele><time>2026-03-28T10:37:13.023Z</time></trkpt><trkpt lat="40.29586" lon="15.3335083"><ele>1034.0</ele><time>2026-03-28T10:37:14.023Z</time></trkpt><trkpt lat="40.2957817" lon="15.3335183"><ele>1034.0</ele><time>2026-03-28T10:37:15.024Z</time></trkpt><trkpt lat="40.2957117" lon="15.33357"><ele>1034.0</ele><time>2026-03-28T10:37:16.024Z</time></trkpt><trkpt lat="40.2956617" lon="15.33365"><ele>1034.0</ele><time>2026-03-28T10:37:17.023Z</time></trkpt><trkpt lat="40.2956417" lon="15.3337517"><ele>1034.0</ele><time>2026-03-28T10:37:18.024Z</time></trkpt><trkpt lat="40.2956283" lon="15.33388"><ele>1034.0</ele><time>2026-03-28T10:37:19.023Z</time></trkpt><trkpt lat="40.29562" lon="15.3340317"><ele>1032.5</ele><time>2026-03-28T10:37:20.023Z</time></trkpt><trkpt lat="40.2956017" lon="15.3341917"><ele>1031.0</ele><time>2026-03-28T10:37:21.023Z</time></trkpt><trkpt lat="40.2955633" lon="15.3343433"><ele>1029.5</ele><time>2026-03-28T10:37:22.023Z</time></trkpt><trkpt lat="40.2955267" lon="15.3344883"><ele>1028.0</ele><time>2026-03-28T10:37:23.024Z</time></trkpt><trkpt lat="40.29551" lon="15.33463"><ele>1029.8333333333335</ele><time>2026-03-28T10:37:24.024Z</time></trkpt><trkpt lat="40.2955083" lon="15.3347483"><ele>1031.6666666666667</ele><time>2026-03-28T10:37:25.023Z</time></trkpt><trkpt lat="40.2955233" lon="15.3348483"><ele>1033.5</ele><time>2026-03-28T10:37:26.023Z</time></trkpt><trkpt lat="40.2955467" lon="15.33493"><ele>1035.3333333333333</ele><time>2026-03-28T10:37:27.024Z</time></trkpt><trkpt lat="40.29564" lon="15.3350167"><ele>1037.1666666666665</ele><time>2026-03-28T10:37:29.023Z</time></trkpt><trkpt lat="40.2957017" lon="15.3350333"><ele>1039.0</ele><time>2026-03-28T10:37:30.024Z</time></trkpt><trkpt lat="40.295765" lon="15.3350433"><ele>1041.6000000000001</ele><time>2026-03-28T10:37:31.024Z</time></trkpt><trkpt lat="40.2958517" lon="15.3351167"><ele>1044.2</ele><time>2026-03-28T10:37:33.023Z</time></trkpt><trkpt lat="40.2958767" lon="15.3352633"><ele>1046.8000000000002</ele><time>2026-03-28T10:37:35.023Z</time></trkpt><trkpt lat="40.2958333" lon="15.3354233"><ele>1049.4</ele><time>2026-03-28T10:37:37.024Z</time></trkpt><trkpt lat="40.2957833" lon="15.3354967"><ele>1052.0</ele><time>2026-03-28T10:37:38.023Z</time></trkpt><trkpt lat="40.29572" lon="15.33554"><ele>1052.0</ele><time>2026-03-28T10:37:39.023Z</time></trkpt><trkpt lat="40.2956483" lon="15.33555"><ele>1052.0</ele><time>2026-03-28T10:37:40.023Z</time></trkpt><trkpt lat="40.2955767" lon="15.3354967"><ele>1052.0</ele><time>2026-03-28T10:37:41.023Z</time></trkpt><trkpt lat="40.2955183" lon="15.33544"><ele>1052.0</ele><time>2026-03-28T10:37:42.024Z</time></trkpt><trkpt lat="40.2954067" lon="15.3353883"><ele>1052.0</ele><time>2026-03-28T10:37:44.024Z</time></trkpt><trkpt lat="40.295305" lon="15.335445"><ele>1051.5</ele><time>2026-03-28T10:37:46.024Z</time></trkpt><trkpt lat="40.2952317" lon="15.3355617"><ele>1051.0</ele><time>2026-03-28T10:37:48.023Z</time></trkpt><trkpt lat="40.2951917" lon="15.335645"><ele>1050.5</ele><time>2026-03-28T10:37:49.023Z</time></trkpt><trkpt lat="40.29516" lon="15.3357317"><ele>1050.0</ele><time>2026-03-28T10:37:50.023Z</time></trkpt><trkpt lat="40.29513" lon="15.3358283"><ele>1049.5</ele><time>2026-03-28T10:37:51.023Z</time></trkpt><trkpt lat="40.2951017" lon="15.3359167"><ele>1049.0</ele><time>2026-03-28T10:37:52.023Z</time></trkpt><trkpt lat="40.2950767" lon="15.3359967"><ele>1049.0</ele><time>2026-03-28T10:37:53.023Z</time></trkpt><trkpt lat="40.2950417" lon="15.3360717"><ele>1049.0</ele><time>2026-03-28T10:37:54.024Z</time></trkpt><trkpt lat="40.2949333" lon="15.336165"><ele>1049.0</ele><time>2026-03-28T10:37:56.023Z</time></trkpt><trkpt lat="40.2948567" lon="15.3361933"><ele>1049.0</ele><time>2026-03-28T10:37:57.024Z</time></trkpt><trkpt lat="40.2947817" lon="15.3362283"><ele>1049.0</ele><time>2026-03-28T10:37:58.023Z</time></trkpt><trkpt lat="40.2947183" lon="15.3362817"><ele>1049.0</ele><time>2026-03-28T10:37:59.023Z</time></trkpt><trkpt lat="40.2946667" lon="15.336345"><ele>1050.5</ele><time>2026-03-28T10:38:00.023Z</time></trkpt><trkpt lat="40.294625" lon="15.336425"><ele>1052.0</ele><time>2026-03-28T10:38:01.023Z</time></trkpt><trkpt lat="40.294585" lon="15.3365167"><ele>1053.5</ele><time>2026-03-28T10:38:02.024Z</time></trkpt><trkpt lat="40.2945483" lon="15.336615"><ele>1055.0</ele><time>2026-03-28T10:38:03.024Z</time></trkpt><trkpt lat="40.2945117" lon="15.3367233"><ele>1056.5</ele><time>2026-03-28T10:38:04.023Z</time></trkpt><trkpt lat="40.2944717" lon="15.3368417"><ele>1058.0</ele><time>2026-03-28T10:38:05.024Z</time></trkpt><trkpt lat="40.2944317" lon="15.3369617"><ele>1058.0</ele><time>2026-03-28T10:38:06.023Z</time></trkpt><trkpt lat="40.2943967" lon="15.3370733"><ele>1058.0</ele><time>2026-03-28T10:38:07.024Z</time></trkpt><trkpt lat="40.2943633" lon="15.3371667"><ele>1058.0</ele><time>2026-03-28T10:38:08.024Z</time></trkpt><trkpt lat="40.2943317" lon="15.3372483"><ele>1058.0</ele><time>2026-03-28T10:38:09.023Z</time></trkpt><trkpt lat="40.2942633" lon="15.33737"><ele>1058.0</ele><time>2026-03-28T10:38:11.023Z</time></trkpt><trkpt lat="40.29416" lon="15.3374117"><ele>1058.0</ele><time>2026-03-28T10:38:13.023Z</time></trkpt><trkpt lat="40.2940967" lon="15.3373983"><ele>1058.0</ele><time>2026-03-28T10:38:14.024Z</time></trkpt><trkpt lat="40.294005" lon="15.3373183"><ele>1058.0</ele><time>2026-03-28T10:38:16.023Z</time></trkpt><trkpt lat="40.2939667" lon="15.3371317"><ele>1058.0</ele><time>2026-03-28T10:38:40.024Z</time></trkpt><trkpt lat="40.2939617" lon="15.337005"><ele>1058.0</ele><time>2026-03-28T10:38:42.024Z</time></trkpt><trkpt lat="40.293935" lon="15.3368967"><ele>1057.8</ele><time>2026-03-28T10:38:44.025Z</time></trkpt><trkpt lat="40.2938417" lon="15.3368233"><ele>1057.6</ele><time>2026-03-28T10:38:46.025Z</time></trkpt><trkpt lat="40.293725" lon="15.3367633"><ele>1057.4</ele><time>2026-03-28T10:38:48.024Z</time></trkpt><trkpt lat="40.293665" lon="15.33673"><ele>1057.2</ele><time>2026-03-28T10:38:49.024Z</time></trkpt><trkpt lat="40.2936083" lon="15.3366933"><ele>1057.0</ele><time>2026-03-28T10:38:50.025Z</time></trkpt><trkpt lat="40.2935067" lon="15.33665"><ele>1057.0</ele><time>2026-03-28T10:38:52.024Z</time></trkpt><trkpt lat="40.29342" lon="15.336655"><ele>1057.0</ele><time>2026-03-28T10:38:54.025Z</time></trkpt><trkpt lat="40.29336" lon="15.3366817"><ele>1057.0</ele><time>2026-03-28T10:38:56.024Z</time></trkpt><trkpt lat="40.2934283" lon="15.336695"><ele>1057.0</ele><time>2026-03-28T10:39:34.024Z</time></trkpt><trkpt lat="40.2935333" lon="15.3366733"><ele>1057.0</ele><time>2026-03-28T10:39:36.025Z</time></trkpt><trkpt lat="40.293665" lon="15.3367333"><ele>1057.0</ele><time>2026-03-28T10:39:38.024Z</time></trkpt><trkpt lat="40.2937433" lon="15.3367783"><ele>1057.0</ele><time>2026-03-28T10:39:39.024Z</time></trkpt><trkpt lat="40.29382" lon="15.3368217"><ele>1057.0</ele><time>2026-03-28T10:39:40.024Z</time></trkpt><trkpt lat="40.29388" lon="15.33687"><ele>1057.0</ele><time>2026-03-28T10:39:41.025Z</time></trkpt><trkpt lat="40.29395" lon="15.3369567"><ele>1057.0</ele><time>2026-03-28T10:39:43.024Z</time></trkpt><trkpt lat="40.293965" lon="15.337075"><ele>1057.0</ele><time>2026-03-28T10:39:45.025Z</time></trkpt><trkpt lat="40.29397" lon="15.33721"><ele>1059.4</ele><time>2026-03-28T10:39:47.025Z</time></trkpt><trkpt lat="40.2940167" lon="15.3373167"><ele>1061.8000000000002</ele><time>2026-03-28T10:39:49.024Z</time></trkpt><trkpt lat="40.2940817" lon="15.3373633"><ele>1064.2</ele><time>2026-03-28T10:39:51.024Z</time></trkpt><trkpt lat="40.29417" lon="15.3374417"><ele>1066.6000000000001</ele><time>2026-03-28T10:40:07.025Z</time></trkpt><trkpt lat="40.2941217" lon="15.3373433"><ele>1069.0</ele><time>2026-03-28T10:42:45.025Z</time></trkpt><trkpt lat="40.2940283" lon="15.337295"><ele>1066.8</ele><time>2026-03-28T10:42:47.024Z</time></trkpt><trkpt lat="40.29396" lon="15.3371917"><ele>1064.6000000000001</ele><time>2026-03-28T10:42:49.025Z</time></trkpt><trkpt lat="40.293965" lon="15.3370717"><ele>1062.4</ele><time>2026-03-28T10:42:51.024Z</time></trkpt><trkpt lat="40.2939617" lon="15.3369383"><ele>1060.2</ele><time>2026-03-28T10:42:53.024Z</time></trkpt><trkpt lat="40.2938767" lon="15.3368467"><ele>1058.0</ele><time>2026-03-28T10:42:55.024Z</time></trkpt><trkpt lat="40.2938083" lon="15.3368067"><ele>1057.857142857143</ele><time>2026-03-28T10:42:56.024Z</time></trkpt><trkpt lat="40.2937383" lon="15.3367667"><ele>1057.7142857142858</ele><time>2026-03-28T10:42:57.024Z</time></trkpt><trkpt lat="40.2936633" lon="15.336725"><ele>1057.5714285714284</ele><time>2026-03-28T10:42:58.025Z</time></trkpt><trkpt lat="40.2935917" lon="15.33668"><ele>1057.4285714285716</ele><time>2026-03-28T10:42:59.024Z</time></trkpt><trkpt lat="40.2935217" lon="15.3366583"><ele>1057.2857142857142</ele><time>2026-03-28T10:43:00.024Z</time></trkpt><trkpt lat="40.2934517" lon="15.3366617"><ele>1057.142857142857</ele><time>2026-03-28T10:43:01.024Z</time></trkpt><trkpt lat="40.2933867" lon="15.33668"><ele>1057.0</ele><time>2026-03-28T10:43:02.024Z</time></trkpt><trkpt lat="40.2932967" lon="15.336795"><ele>1057.0</ele><time>2026-03-28T10:43:04.025Z</time></trkpt><trkpt lat="40.29327" lon="15.3369617"><ele>1057.0</ele><time>2026-03-28T10:43:06.024Z</time></trkpt><trkpt lat="40.293275" lon="15.3370617"><ele>1057.0</ele><time>2026-03-28T10:43:07.024Z</time></trkpt><trkpt lat="40.2932867" lon="15.3371767"><ele>1057.0</ele><time>2026-03-28T10:43:08.025Z</time></trkpt><trkpt lat="40.29329" lon="15.3372967"><ele>1057.0</ele><time>2026-03-28T10:43:09.024Z</time></trkpt><trkpt lat="40.2932883" lon="15.3374267"><ele>1057.5</ele><time>2026-03-28T10:43:10.025Z</time></trkpt><trkpt lat="40.2932833" lon="15.3375733"><ele>1058.0</ele><time>2026-03-28T10:43:11.025Z</time></trkpt><trkpt lat="40.29327" lon="15.33773"><ele>1058.5</ele><time>2026-03-28T10:43:12.024Z</time></trkpt><trkpt lat="40.2932533" lon="15.337885"><ele>1059.0</ele><time>2026-03-28T10:43:13.024Z</time></trkpt><trkpt lat="40.2932217" lon="15.3380433"><ele>1061.25</ele><time>2026-03-28T10:43:14.024Z</time></trkpt><trkpt lat="40.2931917" lon="15.3381933"><ele>1063.5</ele><time>2026-03-28T10:43:15.025Z</time></trkpt><trkpt lat="40.2931667" lon="15.3383417"><ele>1065.75</ele><time>2026-03-28T10:43:16.025Z</time></trkpt><trkpt lat="40.2931533" lon="15.3384867"><ele>1068.0</ele><time>2026-03-28T10:43:17.025Z</time></trkpt><trkpt lat="40.2931383" lon="15.3386333"><ele>1068.0</ele><time>2026-03-28T10:43:18.024Z</time></trkpt><trkpt lat="40.2931383" lon="15.3387833"><ele>1068.0</ele><time>2026-03-28T10:43:19.025Z</time></trkpt><trkpt lat="40.2931433" lon="15.3389217"><ele>1068.0</ele><time>2026-03-28T10:43:20.024Z</time></trkpt><trkpt lat="40.2931433" lon="15.3390467"><ele>1068.0</ele><time>2026-03-28T10:43:21.024Z</time></trkpt><trkpt lat="40.29314" lon="15.3391567"><ele>1068.0</ele><time>2026-03-28T10:43:22.025Z</time></trkpt><trkpt lat="40.2931333" lon="15.3392583"><ele>1068.5</ele><time>2026-03-28T10:43:23.025Z</time></trkpt><trkpt lat="40.293125" lon="15.339355"><ele>1069.0</ele><time>2026-03-28T10:43:24.024Z</time></trkpt><trkpt lat="40.2931133" lon="15.3394483"><ele>1069.5</ele><time>2026-03-28T10:43:25.025Z</time></trkpt><trkpt lat="40.2930833" lon="15.3395417"><ele>1070.0</ele><time>2026-03-28T10:43:26.025Z</time></trkpt><trkpt lat="40.2930433" lon="15.33963"><ele>1070.5</ele><time>2026-03-28T10:43:27.024Z</time></trkpt><trkpt lat="40.2929933" lon="15.339715"><ele>1071.0</ele><time>2026-03-28T10:43:28.025Z</time></trkpt><trkpt lat="40.29293" lon="15.33979"><ele>1067.3999999999999</ele><time>2026-03-28T10:43:29.024Z</time></trkpt><trkpt lat="40.2928567" lon="15.3398583"><ele>1063.8</ele><time>2026-03-28T10:43:30.025Z</time></trkpt><trkpt lat="40.29278" lon="15.3399333"><ele>1060.1999999999998</ele><time>2026-03-28T10:43:31.024Z</time></trkpt><trkpt lat="40.2927" lon="15.3400183"><ele>1056.6</ele><time>2026-03-28T10:43:32.025Z</time></trkpt><trkpt lat="40.2926167" lon="15.3401233"><ele>1053.0</ele><time>2026-03-28T10:43:33.025Z</time></trkpt><trkpt lat="40.292535" lon="15.34022"><ele>1053.0</ele><time>2026-03-28T10:43:34.025Z</time></trkpt><trkpt lat="40.2924483" lon="15.3403"><ele>1053.0</ele><time>2026-03-28T10:43:35.024Z</time></trkpt><trkpt lat="40.2923583" lon="15.340365"><ele>1053.0</ele><time>2026-03-28T10:43:36.024Z</time></trkpt><trkpt lat="40.2922767" lon="15.34043"><ele>1053.0</ele><time>2026-03-28T10:43:37.024Z</time></trkpt><trkpt lat="40.29221" lon="15.340515"><ele>1053.0</ele><time>2026-03-28T10:43:38.024Z</time></trkpt><trkpt lat="40.29215" lon="15.3406"><ele>1051.3333333333333</ele><time>2026-03-28T10:43:39.025Z</time></trkpt><trkpt lat="40.2920983" lon="15.3406883"><ele>1049.6666666666667</ele><time>2026-03-28T10:43:40.025Z</time></trkpt><trkpt lat="40.29205" lon="15.340785"><ele>1048.0</ele><time>2026-03-28T10:43:41.025Z</time></trkpt><trkpt lat="40.2920117" lon="15.3408783"><ele>1046.3333333333335</ele><time>2026-03-28T10:43:42.025Z</time></trkpt><trkpt lat="40.2919833" lon="15.3409833"><ele>1044.6666666666667</ele><time>2026-03-28T10:43:43.024Z</time></trkpt><trkpt lat="40.2919633" lon="15.341105"><ele>1043.0</ele><time>2026-03-28T10:43:44.024Z</time></trkpt><trkpt lat="40.29194" lon="15.341235"><ele>1043.0</ele><time>2026-03-28T10:43:45.025Z</time></trkpt><trkpt lat="40.2919167" lon="15.3413583"><ele>1043.0</ele><time>2026-03-28T10:43:46.024Z</time></trkpt><trkpt lat="40.291895" lon="15.3414767"><ele>1043.0</ele><time>2026-03-28T10:43:47.024Z</time></trkpt><trkpt lat="40.29187" lon="15.341585"><ele>1043.0</ele><time>2026-03-28T10:43:48.025Z</time></trkpt><trkpt lat="40.2918417" lon="15.3416817"><ele>1043.0</ele><time>2026-03-28T10:43:49.025Z</time></trkpt><trkpt lat="40.291805" lon="15.3417617"><ele>1043.0</ele><time>2026-03-28T10:43:50.024Z</time></trkpt><trkpt lat="40.291745" lon="15.3418317"><ele>1045.6666666666667</ele><time>2026-03-28T10:43:51.025Z</time></trkpt><trkpt lat="40.2916683" lon="15.3418867"><ele>1048.3333333333335</ele><time>2026-03-28T10:43:52.024Z</time></trkpt><trkpt lat="40.2915833" lon="15.3419267"><ele>1051.0</ele><time>2026-03-28T10:43:53.025Z</time></trkpt><trkpt lat="40.2915033" lon="15.3419767"><ele>1053.6666666666667</ele><time>2026-03-28T10:43:54.024Z</time></trkpt><trkpt lat="40.2914333" lon="15.34204"><ele>1056.3333333333333</ele><time>2026-03-28T10:43:55.024Z</time></trkpt><trkpt lat="40.2913783" lon="15.3421183"><ele>1059.0</ele><time>2026-03-28T10:43:56.025Z</time></trkpt><trkpt lat="40.291345" lon="15.3422117"><ele>1055.8333333333333</ele><time>2026-03-28T10:43:57.025Z</time></trkpt><trkpt lat="40.2913317" lon="15.3423167"><ele>1052.6666666666667</ele><time>2026-03-28T10:43:58.024Z</time></trkpt><trkpt lat="40.2913283" lon="15.3424217"><ele>1049.5</ele><time>2026-03-28T10:43:59.025Z</time></trkpt><trkpt lat="40.2913217" lon="15.3425167"><ele>1046.3333333333335</ele><time>2026-03-28T10:44:00.025Z</time></trkpt><trkpt lat="40.2912983" lon="15.3426083"><ele>1043.1666666666667</ele><time>2026-03-28T10:44:01.024Z</time></trkpt><trkpt lat="40.2912583" lon="15.342695"><ele>1040.0</ele><time>2026-03-28T10:44:02.024Z</time></trkpt><trkpt lat="40.2912183" lon="15.34279"><ele>1040.0</ele><time>2026-03-28T10:44:03.024Z</time></trkpt><trkpt lat="40.2911867" lon="15.3428883"><ele>1040.0</ele><time>2026-03-28T10:44:04.024Z</time></trkpt><trkpt lat="40.2911717" lon="15.3430133"><ele>1040.0</ele><time>2026-03-28T10:44:05.025Z</time></trkpt><trkpt lat="40.2911467" lon="15.343145"><ele>1040.0</ele><time>2026-03-28T10:44:06.025Z</time></trkpt><trkpt lat="40.2911067" lon="15.343275"><ele>1040.0</ele><time>2026-03-28T10:44:07.025Z</time></trkpt><trkpt lat="40.291055" lon="15.3434033"><ele>1042.0</ele><time>2026-03-28T10:44:08.025Z</time></trkpt><trkpt lat="40.290995" lon="15.3435283"><ele>1044.0</ele><time>2026-03-28T10:44:09.025Z</time></trkpt><trkpt lat="40.290925" lon="15.3436567"><ele>1046.0</ele><time>2026-03-28T10:44:10.025Z</time></trkpt><trkpt lat="40.2908567" lon="15.34378"><ele>1048.0</ele><time>2026-03-28T10:44:11.024Z</time></trkpt><trkpt lat="40.2907883" lon="15.3439"><ele>1050.75</ele><time>2026-03-28T10:44:12.025Z</time></trkpt><trkpt lat="40.2907217" lon="15.3440183"><ele>1053.5</ele><time>2026-03-28T10:44:13.024Z</time></trkpt><trkpt lat="40.2906483" lon="15.3441317"><ele>1056.25</ele><time>2026-03-28T10:44:14.024Z</time></trkpt><trkpt lat="40.290575" lon="15.3442483"><ele>1059.0</ele><time>2026-03-28T10:44:15.025Z</time></trkpt><trkpt lat="40.2905" lon="15.3443733"><ele>1056.25</ele><time>2026-03-28T10:44:16.024Z</time></trkpt><trkpt lat="40.2904233" lon="15.3444967"><ele>1053.5</ele><time>2026-03-28T10:44:17.025Z</time></trkpt><trkpt lat="40.2903383" lon="15.3446217"><ele>1050.75</ele><time>2026-03-28T10:44:18.024Z</time></trkpt><trkpt lat="40.2902483" lon="15.3447367"><ele>1048.0</ele><time>2026-03-28T10:44:19.024Z</time></trkpt><trkpt lat="40.290155" lon="15.344845"><ele>1048.0</ele><time>2026-03-28T10:44:20.025Z</time></trkpt><trkpt lat="40.2900633" lon="15.34495"><ele>1048.0</ele><time>2026-03-28T10:44:21.025Z</time></trkpt><trkpt lat="40.2899667" lon="15.34505"><ele>1048.0</ele><time>2026-03-28T10:44:22.024Z</time></trkpt><trkpt lat="40.2898683" lon="15.3451433"><ele>1048.0</ele><time>2026-03-28T10:44:23.024Z</time></trkpt><trkpt lat="40.2897683" lon="15.3452283"><ele>1043.5</ele><time>2026-03-28T10:44:24.024Z</time></trkpt><trkpt lat="40.2896583" lon="15.3452933"><ele>1039.0</ele><time>2026-03-28T10:44:25.024Z</time></trkpt><trkpt lat="40.289545" lon="15.3453417"><ele>1034.5</ele><time>2026-03-28T10:44:26.025Z</time></trkpt><trkpt lat="40.2894367" lon="15.3454"><ele>1030.0</ele><time>2026-03-28T10:44:27.025Z</time></trkpt><trkpt lat="40.2893333" lon="15.3454483"><ele>1030.0</ele><time>2026-03-28T10:44:28.024Z</time></trkpt><trkpt lat="40.2892383" lon="15.3454933"><ele>1030.0</ele><time>2026-03-28T10:44:29.024Z</time></trkpt><trkpt lat="40.28915" lon="15.34553"><ele>1030.0</ele><time>2026-03-28T10:44:30.024Z</time></trkpt><trkpt lat="40.2890683" lon="15.3455733"><ele>1030.0</ele><time>2026-03-28T10:44:31.024Z</time></trkpt><trkpt lat="40.2889967" lon="15.3456233"><ele>1030.0</ele><time>2026-03-28T10:44:32.024Z</time></trkpt><trkpt lat="40.28892" lon="15.3456883"><ele>1027.2</ele><time>2026-03-28T10:44:33.024Z</time></trkpt><trkpt lat="40.2888433" lon="15.3457617"><ele>1024.4</ele><time>2026-03-28T10:44:34.025Z</time></trkpt><trkpt lat="40.2887617" lon="15.3458417"><ele>1021.5999999999999</ele><time>2026-03-28T10:44:35.024Z</time></trkpt><trkpt lat="40.2886817" lon="15.3459267"><ele>1018.8</ele><time>2026-03-28T10:44:36.025Z</time></trkpt><trkpt lat="40.2886083" lon="15.3460117"><ele>1016.0</ele><time>2026-03-28T10:44:37.024Z</time></trkpt><trkpt lat="40.2885333" lon="15.3461067"><ele>1016.0</ele><time>2026-03-28T10:44:38.025Z</time></trkpt><trkpt lat="40.2884617" lon="15.3462017"><ele>1015.9999999999999</ele><time>2026-03-28T10:44:39.024Z</time></trkpt><trkpt lat="40.2883917" lon="15.3463067"><ele>1015.9999999999999</ele><time>2026-03-28T10:44:40.025Z</time></trkpt><trkpt lat="40.2883183" lon="15.3464183"><ele>1016.0</ele><time>2026-03-28T10:44:41.024Z</time></trkpt><trkpt lat="40.2882533" lon="15.3465333"><ele>1016.0</ele><time>2026-03-28T10:44:42.024Z</time></trkpt><trkpt lat="40.28819" lon="15.3466483"><ele>1014.8</ele><time>2026-03-28T10:44:43.025Z</time></trkpt><trkpt lat="40.2881417" lon="15.3467717"><ele>1013.5999999999999</ele><time>2026-03-28T10:44:44.024Z</time></trkpt><trkpt lat="40.2881017" lon="15.34689"><ele>1012.4</ele><time>2026-03-28T10:44:45.025Z</time></trkpt><trkpt lat="40.2880783" lon="15.3470117"><ele>1011.2</ele><time>2026-03-28T10:44:46.025Z</time></trkpt><trkpt lat="40.288065" lon="15.3471383"><ele>1010.0</ele><time>2026-03-28T10:44:47.025Z</time></trkpt><trkpt lat="40.2880533" lon="15.347265"><ele>1010.0</ele><time>2026-03-28T10:44:48.025Z</time></trkpt><trkpt lat="40.28803" lon="15.3473833"><ele>1010.0</ele><time>2026-03-28T10:44:49.024Z</time></trkpt><trkpt lat="40.2879933" lon="15.3475167"><ele>1010.0</ele><time>2026-03-28T10:44:50.025Z</time></trkpt><trkpt lat="40.2879517" lon="15.347655"><ele>1010.0</ele><time>2026-03-28T10:44:51.024Z</time></trkpt><trkpt lat="40.28791" lon="15.34779"><ele>1010.0</ele><time>2026-03-28T10:44:52.025Z</time></trkpt><trkpt lat="40.2878667" lon="15.347935"><ele>1012.75</ele><time>2026-03-28T10:44:53.025Z</time></trkpt><trkpt lat="40.2878167" lon="15.3480667"><ele>1015.5</ele><time>2026-03-28T10:44:54.025Z</time></trkpt><trkpt lat="40.2877583" lon="15.3481933"><ele>1018.25</ele><time>2026-03-28T10:44:55.025Z</time></trkpt><trkpt lat="40.287695" lon="15.3483133"><ele>1021.0</ele><time>2026-03-28T10:44:56.024Z</time></trkpt><trkpt lat="40.2876267" lon="15.3484317"><ele>1021.0</ele><time>2026-03-28T10:44:57.024Z</time></trkpt><trkpt lat="40.2875633" lon="15.34854"><ele>1020.9999999999999</ele><time>2026-03-28T10:44:58.024Z</time></trkpt><trkpt lat="40.2875033" lon="15.3486483"><ele>1020.9999999999999</ele><time>2026-03-28T10:44:59.024Z</time></trkpt><trkpt lat="40.2874383" lon="15.3487383"><ele>1021.0</ele><time>2026-03-28T10:45:00.024Z</time></trkpt><trkpt lat="40.287385" lon="15.348825"><ele>1021.0</ele><time>2026-03-28T10:45:01.025Z</time></trkpt><trkpt lat="40.28734" lon="15.34892"><ele>1018.4999999999999</ele><time>2026-03-28T10:45:02.025Z</time></trkpt><trkpt lat="40.28729" lon="15.3490167"><ele>1016.0</ele><time>2026-03-28T10:45:03.025Z</time></trkpt><trkpt lat="40.287245" lon="15.3491117"><ele>1013.5</ele><time>2026-03-28T10:45:04.025Z</time></trkpt><trkpt lat="40.2871967" lon="15.3492033"><ele>1011.0</ele><time>2026-03-28T10:45:05.025Z</time></trkpt><trkpt lat="40.2871483" lon="15.3493033"><ele>1008.4999999999999</ele><time>2026-03-28T10:45:06.025Z</time></trkpt><trkpt lat="40.2870933" lon="15.3493967"><ele>1006.0</ele><time>2026-03-28T10:45:07.025Z</time></trkpt><trkpt lat="40.2870417" lon="15.34949"><ele>1005.9999999999999</ele><time>2026-03-28T10:45:08.024Z</time></trkpt><trkpt lat="40.286995" lon="15.3495833"><ele>1006.0</ele><time>2026-03-28T10:45:09.024Z</time></trkpt><trkpt lat="40.2869517" lon="15.349675"><ele>1006.0</ele><time>2026-03-28T10:45:10.024Z</time></trkpt><trkpt lat="40.2869083" lon="15.3497667"><ele>1006.0</ele><time>2026-03-28T10:45:11.025Z</time></trkpt><trkpt lat="40.286865" lon="15.3498467"><ele>1005.9999999999999</ele><time>2026-03-28T10:45:12.025Z</time></trkpt><trkpt lat="40.2868233" lon="15.3499317"><ele>1006.0</ele><time>2026-03-28T10:45:13.025Z</time></trkpt><trkpt lat="40.2867833" lon="15.35001"><ele>1007.4999999999999</ele><time>2026-03-28T10:45:14.024Z</time></trkpt><trkpt lat="40.2867533" lon="15.3500933"><ele>1009.0</ele><time>2026-03-28T10:45:15.024Z</time></trkpt><trkpt lat="40.286725" lon="15.350245"><ele>1010.5</ele><time>2026-03-28T10:45:17.024Z</time></trkpt><trkpt lat="40.2867233" lon="15.35033"><ele>1012.0</ele><time>2026-03-28T10:45:18.025Z</time></trkpt><trkpt lat="40.286745" lon="15.3504933"><ele>1013.4999999999999</ele><time>2026-03-28T10:45:20.025Z</time></trkpt><trkpt lat="40.2867533" lon="15.3505817"><ele>1015.0</ele><time>2026-03-28T10:45:21.025Z</time></trkpt><trkpt lat="40.2867583" lon="15.3506733"><ele>1015.8571428571429</ele><time>2026-03-28T10:45:22.024Z</time></trkpt><trkpt lat="40.28675" lon="15.35077"><ele>1016.7142857142858</ele><time>2026-03-28T10:45:23.024Z</time></trkpt><trkpt lat="40.2867283" lon="15.350855"><ele>1017.5714285714286</ele><time>2026-03-28T10:45:24.025Z</time></trkpt><trkpt lat="40.2866917" lon="15.3509317"><ele>1018.4285714285714</ele><time>2026-03-28T10:45:25.024Z</time></trkpt><trkpt lat="40.2866367" lon="15.3509933"><ele>1019.2857142857143</ele><time>2026-03-28T10:45:26.024Z</time></trkpt><trkpt lat="40.286575" lon="15.3510567"><ele>1020.1428571428571</ele><time>2026-03-28T10:45:27.025Z</time></trkpt><trkpt lat="40.2865217" lon="15.351125"><ele>1021.0</ele><time>2026-03-28T10:45:28.025Z</time></trkpt><trkpt lat="40.2864717" lon="15.3511983"><ele>1020.9999999999999</ele><time>2026-03-28T10:45:29.024Z</time></trkpt><trkpt lat="40.286435" lon="15.3512717"><ele>1021.0</ele><time>2026-03-28T10:45:30.024Z</time></trkpt><trkpt lat="40.286385" lon="15.3513883"><ele>1021.0</ele><time>2026-03-28T10:45:32.024Z</time></trkpt><trkpt lat="40.2863833" lon="15.3515417"><ele>1021.0</ele><time>2026-03-28T10:47:08.025Z</time></trkpt><trkpt lat="40.2863667" lon="15.3516367"><ele>1020.9999999999999</ele><time>2026-03-28T10:47:09.025Z</time></trkpt><trkpt lat="40.2863383" lon="15.3517267"><ele>1021.0</ele><time>2026-03-28T10:47:10.025Z</time></trkpt><trkpt lat="40.2863083" lon="15.35181"><ele>1019.1999999999999</ele><time>2026-03-28T10:47:11.024Z</time></trkpt><trkpt lat="40.28624" lon="15.3519283"><ele>1017.3999999999999</ele><time>2026-03-28T10:47:13.024Z</time></trkpt><trkpt lat="40.2861483" lon="15.3519917"><ele>1015.6</ele><time>2026-03-28T10:48:35.026Z</time></trkpt><trkpt lat="40.2860733" lon="15.3521017"><ele>1013.8</ele><time>2026-03-28T10:48:37.026Z</time></trkpt><trkpt lat="40.2860233" lon="15.3521717"><ele>1012.0</ele><time>2026-03-28T10:48:38.025Z</time></trkpt><trkpt lat="40.2859717" lon="15.3522317"><ele>1012.0</ele><time>2026-03-28T10:48:39.026Z</time></trkpt><trkpt lat="40.28592" lon="15.352285"><ele>1012.0</ele><time>2026-03-28T10:48:40.026Z</time></trkpt><trkpt lat="40.2858633" lon="15.3523233"><ele>1012.0</ele><time>2026-03-28T10:48:41.025Z</time></trkpt><trkpt lat="40.285745" lon="15.35234"><ele>1012.0</ele><time>2026-03-28T10:48:43.026Z</time></trkpt><trkpt lat="40.2856217" lon="15.3523083"><ele>1012.0</ele><time>2026-03-28T10:48:45.025Z</time></trkpt><trkpt lat="40.28555" lon="15.352275"><ele>1011.4999999999999</ele><time>2026-03-28T10:48:46.026Z</time></trkpt><trkpt lat="40.28548" lon="15.3522467"><ele>1011.0</ele><time>2026-03-28T10:48:47.025Z</time></trkpt><trkpt lat="40.2854017" lon="15.3522217"><ele>1010.5</ele><time>2026-03-28T10:48:48.025Z</time></trkpt><trkpt lat="40.28532" lon="15.352205"><ele>1010.0</ele><time>2026-03-28T10:48:49.026Z</time></trkpt><trkpt lat="40.2852417" lon="15.3521983"><ele>1009.4999999999999</ele><time>2026-03-28T10:48:50.026Z</time></trkpt><trkpt lat="40.2851633" lon="15.3522167"><ele>1009.0</ele><time>2026-03-28T10:48:51.025Z</time></trkpt><trkpt lat="40.2850967" lon="15.3522517"><ele>1008.9999999999999</ele><time>2026-03-28T10:48:52.025Z</time></trkpt><trkpt lat="40.2850483" lon="15.3523117"><ele>1009.0</ele><time>2026-03-28T10:48:53.026Z</time></trkpt><trkpt lat="40.2849883" lon="15.3524567"><ele>1009.0</ele><time>2026-03-28T10:48:55.025Z</time></trkpt><trkpt lat="40.2849717" lon="15.3525383"><ele>1009.0</ele><time>2026-03-28T10:48:56.026Z</time></trkpt><trkpt lat="40.284965" lon="15.3526217"><ele>1008.9999999999999</ele><time>2026-03-28T10:48:57.026Z</time></trkpt><trkpt lat="40.2849617" lon="15.352705"><ele>1009.0</ele><time>2026-03-28T10:48:58.026Z</time></trkpt><trkpt lat="40.2849467" lon="15.3528667"><ele>1008.9999999999999</ele><time>2026-03-28T10:49:00.026Z</time></trkpt><trkpt lat="40.2849117" lon="15.35302"><ele>1009.0</ele><time>2026-03-28T10:49:02.025Z</time></trkpt><trkpt lat="40.2848533" lon="15.3531633"><ele>1009.0</ele><time>2026-03-28T10:49:04.025Z</time></trkpt><trkpt lat="40.2848167" lon="15.3532383"><ele>1009.0</ele><time>2026-03-28T10:49:05.025Z</time></trkpt><trkpt lat="40.2847833" lon="15.35331"><ele>1008.9999999999999</ele><time>2026-03-28T10:49:06.025Z</time></trkpt><trkpt lat="40.284765" lon="15.3533967"><ele>1009.0</ele><time>2026-03-28T10:49:07.025Z</time></trkpt><trkpt lat="40.2847567" lon="15.3534867"><ele>1008.3333333333333</ele><time>2026-03-28T10:49:08.026Z</time></trkpt><trkpt lat="40.2847533" lon="15.3535733"><ele>1007.6666666666666</ele><time>2026-03-28T10:49:09.025Z</time></trkpt><trkpt lat="40.284755" lon="15.3536633"><ele>1007.0</ele><time>2026-03-28T10:49:10.025Z</time></trkpt><trkpt lat="40.2847617" lon="15.3537567"><ele>1006.3333333333333</ele><time>2026-03-28T10:49:11.025Z</time></trkpt><trkpt lat="40.2847767" lon="15.3538467"><ele>1005.6666666666666</ele><time>2026-03-28T10:49:12.026Z</time></trkpt><trkpt lat="40.2847983" lon="15.3539333"><ele>1005.0</ele><time>2026-03-28T10:49:13.025Z</time></trkpt><trkpt lat="40.28482" lon="15.3540883"><ele>1005.3333333333334</ele><time>2026-03-28T10:49:15.025Z</time></trkpt><trkpt lat="40.2847733" lon="15.3542283"><ele>1005.6666666666667</ele><time>2026-03-28T10:49:17.026Z</time></trkpt><trkpt lat="40.2847167" lon="15.3542683"><ele>1006.0</ele><time>2026-03-28T10:49:18.025Z</time></trkpt><trkpt lat="40.28464" lon="15.3542867"><ele>1006.3333333333334</ele><time>2026-03-28T10:49:19.025Z</time></trkpt><trkpt lat="40.28456" lon="15.354305"><ele>1006.6666666666667</ele><time>2026-03-28T10:49:20.025Z</time></trkpt><trkpt lat="40.2844933" lon="15.3543267"><ele>1007.0</ele><time>2026-03-28T10:49:21.025Z</time></trkpt><trkpt lat="40.28441" lon="15.3544217"><ele>1007.0</ele><time>2026-03-28T10:49:23.025Z</time></trkpt><trkpt lat="40.28444" lon="15.3545517"><ele>1007.0</ele><time>2026-03-28T10:49:25.025Z</time></trkpt><trkpt lat="40.2845" lon="15.3546067"><ele>1007.0</ele><time>2026-03-28T10:49:26.026Z</time></trkpt><trkpt lat="40.2845733" lon="15.354655"><ele>1007.0</ele><time>2026-03-28T10:49:27.026Z</time></trkpt><trkpt lat="40.2846633" lon="15.354705"><ele>1007.0</ele><time>2026-03-28T10:49:28.025Z</time></trkpt><trkpt lat="40.2847533" lon="15.3547633"><ele>1003.0</ele><time>2026-03-28T10:49:29.025Z</time></trkpt><trkpt lat="40.2848467" lon="15.35482"><ele>999.0</ele><time>2026-03-28T10:49:30.026Z</time></trkpt><trkpt lat="40.2849317" lon="15.3548783"><ele>995.0</ele><time>2026-03-28T10:49:31.025Z</time></trkpt><trkpt lat="40.2850117" lon="15.3549467"><ele>991.0</ele><time>2026-03-28T10:49:32.025Z</time></trkpt><trkpt lat="40.285085" lon="15.355025"><ele>987.0</ele><time>2026-03-28T10:49:33.026Z</time></trkpt><trkpt lat="40.2851533" lon="15.3551067"><ele>987.0</ele><time>2026-03-28T10:49:34.026Z</time></trkpt><trkpt lat="40.285205" lon="15.3552"><ele>987.0</ele><time>2026-03-28T10:49:35.025Z</time></trkpt><trkpt lat="40.2852417" lon="15.3553133"><ele>987.0</ele><time>2026-03-28T10:49:36.025Z</time></trkpt><trkpt lat="40.28526" lon="15.3554367"><ele>987.0</ele><time>2026-03-28T10:49:37.026Z</time></trkpt><trkpt lat="40.28527" lon="15.355565"><ele>987.0</ele><time>2026-03-28T10:49:38.026Z</time></trkpt><trkpt lat="40.2852817" lon="15.35568"><ele>984.8</ele><time>2026-03-28T10:49:39.025Z</time></trkpt><trkpt lat="40.285285" lon="15.3558017"><ele>982.6</ele><time>2026-03-28T10:49:40.026Z</time></trkpt><trkpt lat="40.28529" lon="15.3559267"><ele>980.3999999999999</ele><time>2026-03-28T10:49:41.026Z</time></trkpt><trkpt lat="40.285285" lon="15.3560483"><ele>978.1999999999999</ele><time>2026-03-28T10:49:42.025Z</time></trkpt><trkpt lat="40.2852817" lon="15.356165"><ele>976.0</ele><time>2026-03-28T10:49:43.026Z</time></trkpt><trkpt lat="40.2852717" lon="15.35629"><ele>975.8</ele><time>2026-03-28T10:49:44.026Z</time></trkpt><trkpt lat="40.2852467" lon="15.356415"><ele>975.5999999999999</ele><time>2026-03-28T10:49:45.025Z</time></trkpt><trkpt lat="40.2852133" lon="15.35653"><ele>975.4</ele><time>2026-03-28T10:49:46.026Z</time></trkpt><trkpt lat="40.2851583" lon="15.3566333"><ele>975.2</ele><time>2026-03-28T10:49:47.025Z</time></trkpt><trkpt lat="40.2850933" lon="15.3567267"><ele>975.0</ele><time>2026-03-28T10:49:48.025Z</time></trkpt><trkpt lat="40.2850267" lon="15.35683"><ele>975.0</ele><time>2026-03-28T10:49:49.025Z</time></trkpt><trkpt lat="40.28497" lon="15.3569433"><ele>975.0</ele><time>2026-03-28T10:49:50.026Z</time></trkpt><trkpt lat="40.284925" lon="15.357055"><ele>975.0</ele><time>2026-03-28T10:49:51.026Z</time></trkpt><trkpt lat="40.284895" lon="15.3571733"><ele>975.0</ele><time>2026-03-28T10:49:52.025Z</time></trkpt><trkpt lat="40.2848767" lon="15.3572967"><ele>975.0</ele><time>2026-03-28T10:49:53.025Z</time></trkpt><trkpt lat="40.2848767" lon="15.35742"><ele>975.2</ele><time>2026-03-28T10:49:54.025Z</time></trkpt><trkpt lat="40.284885" lon="15.3575483"><ele>975.4</ele><time>2026-03-28T10:49:55.025Z</time></trkpt><trkpt lat="40.2848983" lon="15.3576833"><ele>975.5999999999999</ele><time>2026-03-28T10:49:56.026Z</time></trkpt><trkpt lat="40.2849117" lon="15.3578183"><ele>975.8</ele><time>2026-03-28T10:49:57.026Z</time></trkpt><trkpt lat="40.2849317" lon="15.3579583"><ele>976.0</ele><time>2026-03-28T10:49:58.025Z</time></trkpt><trkpt lat="40.2849483" lon="15.3580983"><ele>974.1999999999999</ele><time>2026-03-28T10:49:59.026Z</time></trkpt><trkpt lat="40.2849683" lon="15.3582317"><ele>972.3999999999999</ele><time>2026-03-28T10:50:00.025Z</time></trkpt><trkpt lat="40.2849783" lon="15.3583667"><ele>970.6</ele><time>2026-03-28T10:50:01.026Z</time></trkpt><trkpt lat="40.2849933" lon="15.3584933"><ele>968.8</ele><time>2026-03-28T10:50:02.026Z</time></trkpt><trkpt lat="40.2850067" lon="15.358625"><ele>967.0</ele><time>2026-03-28T10:50:03.026Z</time></trkpt><trkpt lat="40.285025" lon="15.3587583"><ele>964.0</ele><time>2026-03-28T10:50:04.026Z</time></trkpt><trkpt lat="40.2850483" lon="15.3588867"><ele>961.0</ele><time>2026-03-28T10:50:05.026Z</time></trkpt><trkpt lat="40.2850733" lon="15.359005"><ele>958.0</ele><time>2026-03-28T10:50:06.025Z</time></trkpt><trkpt lat="40.28508" lon="15.359135"><ele>955.0</ele><time>2026-03-28T10:50:07.026Z</time></trkpt><trkpt lat="40.28508" lon="15.3592567"><ele>952.0</ele><time>2026-03-28T10:50:08.025Z</time></trkpt><trkpt lat="40.2850717" lon="15.3593817"><ele>952.0</ele><time>2026-03-28T10:50:09.026Z</time></trkpt><trkpt lat="40.28506" lon="15.3595017"><ele>952.0</ele><time>2026-03-28T10:50:10.025Z</time></trkpt><trkpt lat="40.2850367" lon="15.3596133"><ele>952.0</ele><time>2026-03-28T10:50:11.025Z</time></trkpt><trkpt lat="40.284995" lon="15.3597217"><ele>952.0</ele><time>2026-03-28T10:50:12.026Z</time></trkpt><trkpt lat="40.2849433" lon="15.3598217"><ele>952.0</ele><time>2026-03-28T10:50:13.025Z</time></trkpt><trkpt lat="40.28488" lon="15.359915"><ele>953.5</ele><time>2026-03-28T10:50:14.025Z</time></trkpt><trkpt lat="40.2848017" lon="15.3600167"><ele>955.0</ele><time>2026-03-28T10:50:15.025Z</time></trkpt><trkpt lat="40.2847" lon="15.360115"><ele>956.5</ele><time>2026-03-28T10:50:16.025Z</time></trkpt><trkpt lat="40.2846" lon="15.3602083"><ele>958.0</ele><time>2026-03-28T10:50:17.025Z</time></trkpt><trkpt lat="40.2845067" lon="15.3602767"><ele>957.9999999999999</ele><time>2026-03-28T10:50:18.026Z</time></trkpt><trkpt lat="40.2844167" lon="15.3603367"><ele>958.0</ele><time>2026-03-28T10:50:19.026Z</time></trkpt><trkpt lat="40.2843417" lon="15.3603867"><ele>958.0</ele><time>2026-03-28T10:50:20.025Z</time></trkpt><trkpt lat="40.2842683" lon="15.3604417"><ele>958.0</ele><time>2026-03-28T10:50:21.025Z</time></trkpt><trkpt lat="40.2842067" lon="15.360505"><ele>957.9999999999999</ele><time>2026-03-28T10:50:22.026Z</time></trkpt><trkpt lat="40.2841517" lon="15.360565"><ele>958.0</ele><time>2026-03-28T10:50:23.025Z</time></trkpt><trkpt lat="40.2841" lon="15.3606283"><ele>956.7142857142857</ele><time>2026-03-28T10:50:24.026Z</time></trkpt><trkpt lat="40.2840467" lon="15.3606917"><ele>955.4285714285716</ele><time>2026-03-28T10:50:25.025Z</time></trkpt><trkpt lat="40.284" lon="15.3607567"><ele>954.1428571428572</ele><time>2026-03-28T10:50:26.026Z</time></trkpt><trkpt lat="40.2839617" lon="15.3608267"><ele>952.8571428571429</ele><time>2026-03-28T10:50:27.025Z</time></trkpt><trkpt lat="40.2839317" lon="15.3609033"><ele>951.5714285714287</ele><time>2026-03-28T10:50:28.025Z</time></trkpt><trkpt lat="40.2839317" lon="15.36099"><ele>950.2857142857144</ele><time>2026-03-28T10:50:29.026Z</time></trkpt><trkpt lat="40.28393" lon="15.361075"><ele>949.0000000000001</ele><time>2026-03-28T10:50:30.025Z</time></trkpt><trkpt lat="40.2839317" lon="15.3611583"><ele>948.9999999999999</ele><time>2026-03-28T10:50:31.026Z</time></trkpt><trkpt lat="40.283905" lon="15.3612433"><ele>949.0</ele><time>2026-03-28T10:50:32.025Z</time></trkpt><trkpt lat="40.283865" lon="15.361335"><ele>949.0</ele><time>2026-03-28T10:50:33.025Z</time></trkpt><trkpt lat="40.2838217" lon="15.3614317"><ele>949.0</ele><time>2026-03-28T10:50:34.026Z</time></trkpt><trkpt lat="40.28379" lon="15.3615283"><ele>948.9999999999999</ele><time>2026-03-28T10:50:35.025Z</time></trkpt><trkpt lat="40.283765" lon="15.36163"><ele>949.0</ele><time>2026-03-28T10:50:36.025Z</time></trkpt><trkpt lat="40.2837417" lon="15.361725"><ele>949.3333333333333</ele><time>2026-03-28T10:50:37.026Z</time></trkpt><trkpt lat="40.2837067" lon="15.3618117"><ele>949.6666666666666</ele><time>2026-03-28T10:50:38.026Z</time></trkpt><trkpt lat="40.2836667" lon="15.361895"><ele>950.0</ele><time>2026-03-28T10:50:39.025Z</time></trkpt><trkpt lat="40.2836167" lon="15.3619683"><ele>950.3333333333333</ele><time>2026-03-28T10:50:40.025Z</time></trkpt><trkpt lat="40.28356" lon="15.36205"><ele>950.6666666666666</ele><time>2026-03-28T10:50:41.026Z</time></trkpt><trkpt lat="40.2835117" lon="15.36213"><ele>951.0</ele><time>2026-03-28T10:50:42.025Z</time></trkpt><trkpt lat="40.2834617" lon="15.3622183"><ele>952.0</ele><time>2026-03-28T10:50:43.025Z</time></trkpt><trkpt lat="40.2834017" lon="15.3623133"><ele>952.9999999999999</ele><time>2026-03-28T10:50:44.025Z</time></trkpt><trkpt lat="40.283335" lon="15.3624067"><ele>953.9999999999999</ele><time>2026-03-28T10:50:45.026Z</time></trkpt><trkpt lat="40.2832633" lon="15.362505"><ele>955.0</ele><time>2026-03-28T10:50:46.025Z</time></trkpt><trkpt lat="40.283185" lon="15.362605"><ele>956.0</ele><time>2026-03-28T10:50:47.025Z</time></trkpt><trkpt lat="40.2831" lon="15.362715"><ele>956.8</ele><time>2026-03-28T10:50:48.025Z</time></trkpt><trkpt lat="40.2830167" lon="15.36283"><ele>957.5999999999999</ele><time>2026-03-28T10:50:49.026Z</time></trkpt><trkpt lat="40.2829367" lon="15.362945"><ele>958.4</ele><time>2026-03-28T10:50:50.026Z</time></trkpt><trkpt lat="40.28287" lon="15.363045"><ele>959.2</ele><time>2026-03-28T10:50:51.026Z</time></trkpt><trkpt lat="40.28281" lon="15.36314"><ele>960.0</ele><time>2026-03-28T10:50:52.025Z</time></trkpt><trkpt lat="40.2827533" lon="15.3632333"><ele>961.6</ele><time>2026-03-28T10:50:53.025Z</time></trkpt><trkpt lat="40.2826967" lon="15.3633367"><ele>963.2</ele><time>2026-03-28T10:50:54.025Z</time></trkpt><trkpt lat="40.2826417" lon="15.3634367"><ele>964.8</ele><time>2026-03-28T10:50:55.026Z</time></trkpt><trkpt lat="40.2825917" lon="15.36355"><ele>966.4</ele><time>2026-03-28T10:50:56.026Z</time></trkpt><trkpt lat="40.28255" lon="15.3636683"><ele>968.0</ele><time>2026-03-28T10:50:57.026Z</time></trkpt><trkpt lat="40.2825217" lon="15.3638"><ele>969.3333333333334</ele><time>2026-03-28T10:50:58.025Z</time></trkpt><trkpt lat="40.282495" lon="15.36393"><ele>970.6666666666667</ele><time>2026-03-28T10:50:59.025Z</time></trkpt><trkpt lat="40.282475" lon="15.36405"><ele>972.0</ele><time>2026-03-28T10:51:00.026Z</time></trkpt><trkpt lat="40.2824583" lon="15.3641517"><ele>973.3333333333333</ele><time>2026-03-28T10:51:01.026Z</time></trkpt><trkpt lat="40.2824517" lon="15.3642433"><ele>974.6666666666666</ele><time>2026-03-28T10:51:02.025Z</time></trkpt><trkpt lat="40.2824617" lon="15.3643333"><ele>976.0</ele><time>2026-03-28T10:51:03.026Z</time></trkpt><trkpt lat="40.2824833" lon="15.364415"><ele>975.9999999999999</ele><time>2026-03-28T10:51:04.026Z</time></trkpt><trkpt lat="40.2825267" lon="15.36448"><ele>976.0</ele><time>2026-03-28T10:51:05.025Z</time></trkpt><trkpt lat="40.28258" lon="15.36454"><ele>976.0</ele><time>2026-03-28T10:51:06.026Z</time></trkpt><trkpt lat="40.2826317" lon="15.364605"><ele>976.0</ele><time>2026-03-28T10:51:07.025Z</time></trkpt><trkpt lat="40.282675" lon="15.364685"><ele>975.9999999999999</ele><time>2026-03-28T10:51:08.025Z</time></trkpt><trkpt lat="40.2827067" lon="15.3647883"><ele>976.0</ele><time>2026-03-28T10:51:09.026Z</time></trkpt><trkpt lat="40.2827283" lon="15.3648967"><ele>977.5999999999999</ele><time>2026-03-28T10:51:10.026Z</time></trkpt><trkpt lat="40.28273" lon="15.3650167"><ele>979.1999999999999</ele><time>2026-03-28T10:51:11.025Z</time></trkpt><trkpt lat="40.2827167" lon="15.3651383"><ele>980.8000000000001</ele><time>2026-03-28T10:51:12.025Z</time></trkpt><trkpt lat="40.2826867" lon="15.365255"><ele>982.4000000000001</ele><time>2026-03-28T10:51:13.026Z</time></trkpt><trkpt lat="40.2826467" lon="15.3653767"><ele>984.0</ele><time>2026-03-28T10:51:14.026Z</time></trkpt><trkpt lat="40.282615" lon="15.3655"><ele>985.75</ele><time>2026-03-28T10:51:15.025Z</time></trkpt><trkpt lat="40.28258" lon="15.3656317"><ele>987.5</ele><time>2026-03-28T10:51:16.026Z</time></trkpt><trkpt lat="40.2825483" lon="15.3657717"><ele>989.25</ele><time>2026-03-28T10:51:17.026Z</time></trkpt><trkpt lat="40.2825133" lon="15.36592"><ele>991.0</ele><time>2026-03-28T10:51:18.025Z</time></trkpt><trkpt lat="40.282485" lon="15.3660733"><ele>991.0</ele><time>2026-03-28T10:51:19.025Z</time></trkpt><trkpt lat="40.2824533" lon="15.3662367"><ele>991.0</ele><time>2026-03-28T10:51:20.025Z</time></trkpt><trkpt lat="40.282425" lon="15.3664033"><ele>991.0</ele><time>2026-03-28T10:51:21.026Z</time></trkpt><trkpt lat="40.2823983" lon="15.3665633"><ele>991.0</ele><time>2026-03-28T10:51:22.026Z</time></trkpt><trkpt lat="40.28237" lon="15.3667183"><ele>992.5999999999999</ele><time>2026-03-28T10:51:23.025Z</time></trkpt><trkpt lat="40.2823383" lon="15.3668633"><ele>994.1999999999999</ele><time>2026-03-28T10:51:24.025Z</time></trkpt><trkpt lat="40.2823083" lon="15.3669933"><ele>995.8000000000001</ele><time>2026-03-28T10:51:25.026Z</time></trkpt><trkpt lat="40.2822717" lon="15.3671017"><ele>997.4000000000001</ele><time>2026-03-28T10:51:26.025Z</time></trkpt><trkpt lat="40.2822417" lon="15.3672033"><ele>999.0</ele><time>2026-03-28T10:51:27.026Z</time></trkpt><trkpt lat="40.282225" lon="15.3673083"><ele>1005.8000000000001</ele><time>2026-03-28T10:51:28.025Z</time></trkpt><trkpt lat="40.2822183" lon="15.3674217"><ele>1012.6000000000001</ele><time>2026-03-28T10:51:29.026Z</time></trkpt><trkpt lat="40.2822283" lon="15.3675433"><ele>1019.4</ele><time>2026-03-28T10:51:30.025Z</time></trkpt><trkpt lat="40.282235" lon="15.3676667"><ele>1026.2</ele><time>2026-03-28T10:51:31.025Z</time></trkpt><trkpt lat="40.2822333" lon="15.3677883"><ele>1033.0</ele><time>2026-03-28T10:51:32.026Z</time></trkpt><trkpt lat="40.2822183" lon="15.3679083"><ele>1034.0</ele><time>2026-03-28T10:51:33.026Z</time></trkpt><trkpt lat="40.2822" lon="15.3680383"><ele>1035.0</ele><time>2026-03-28T10:51:34.025Z</time></trkpt><trkpt lat="40.2821717" lon="15.36817"><ele>1036.0</ele><time>2026-03-28T10:51:35.025Z</time></trkpt><trkpt lat="40.282135" lon="15.36829"><ele>1037.0</ele><time>2026-03-28T10:51:36.026Z</time></trkpt><trkpt lat="40.2820933" lon="15.3684067"><ele>1038.0</ele><time>2026-03-28T10:51:37.025Z</time></trkpt><trkpt lat="40.2820617" lon="15.368505"><ele>1038.0</ele><time>2026-03-28T10:51:38.026Z</time></trkpt><trkpt lat="40.2820367" lon="15.3685967"><ele>1038.0</ele><time>2026-03-28T10:51:39.026Z</time></trkpt><trkpt lat="40.2820183" lon="15.3686883"><ele>1038.0</ele><time>2026-03-28T10:51:40.025Z</time></trkpt><trkpt lat="40.28201" lon="15.36878"><ele>1038.0</ele><time>2026-03-28T10:51:41.026Z</time></trkpt><trkpt lat="40.2820067" lon="15.3688717"><ele>1038.0</ele><time>2026-03-28T10:51:42.025Z</time></trkpt><trkpt lat="40.281995" lon="15.3689667"><ele>1038.0</ele><time>2026-03-28T10:51:43.025Z</time></trkpt><trkpt lat="40.2819733" lon="15.36906"><ele>1038.0</ele><time>2026-03-28T10:51:44.026Z</time></trkpt><trkpt lat="40.2819467" lon="15.369155"><ele>1038.6666666666667</ele><time>2026-03-28T10:51:45.026Z</time></trkpt><trkpt lat="40.28193" lon="15.3692533"><ele>1039.3333333333333</ele><time>2026-03-28T10:51:46.026Z</time></trkpt><trkpt lat="40.2819117" lon="15.3693517"><ele>1040.0</ele><time>2026-03-28T10:51:47.025Z</time></trkpt><trkpt lat="40.2819017" lon="15.3694517"><ele>1040.6666666666665</ele><time>2026-03-28T10:51:48.026Z</time></trkpt><trkpt lat="40.281895" lon="15.36956"><ele>1041.3333333333333</ele><time>2026-03-28T10:51:49.026Z</time></trkpt><trkpt lat="40.2818867" lon="15.36967"><ele>1042.0</ele><time>2026-03-28T10:51:50.026Z</time></trkpt><trkpt lat="40.2818717" lon="15.3697633"><ele>1042.3333333333333</ele><time>2026-03-28T10:51:51.025Z</time></trkpt><trkpt lat="40.2818483" lon="15.3698517"><ele>1042.6666666666665</ele><time>2026-03-28T10:51:52.025Z</time></trkpt><trkpt lat="40.2818167" lon="15.36995"><ele>1043.0</ele><time>2026-03-28T10:51:53.026Z</time></trkpt><trkpt lat="40.2817817" lon="15.3700533"><ele>1043.3333333333333</ele><time>2026-03-28T10:51:54.025Z</time></trkpt><trkpt lat="40.2817533" lon="15.3701633"><ele>1043.6666666666667</ele><time>2026-03-28T10:51:55.025Z</time></trkpt><trkpt lat="40.2817417" lon="15.370275"><ele>1044.0</ele><time>2026-03-28T10:51:56.026Z</time></trkpt><trkpt lat="40.2817283" lon="15.3703933"><ele>1044.0</ele><time>2026-03-28T10:51:57.025Z</time></trkpt><trkpt lat="40.28172" lon="15.37051"><ele>1044.0</ele><time>2026-03-28T10:51:58.025Z</time></trkpt><trkpt lat="40.281725" lon="15.3706167"><ele>1044.0</ele><time>2026-03-28T10:51:59.026Z</time></trkpt><trkpt lat="40.2817433" lon="15.3707317"><ele>1044.0</ele><time>2026-03-28T10:52:00.026Z</time></trkpt><trkpt lat="40.2817717" lon="15.370845"><ele>1044.0</ele><time>2026-03-28T10:52:01.025Z</time></trkpt><trkpt lat="40.2818117" lon="15.3709583"><ele>1044.0</ele><time>2026-03-28T10:52:02.025Z</time></trkpt><trkpt lat="40.2818517" lon="15.37106"><ele>1044.8333333333333</ele><time>2026-03-28T10:52:03.026Z</time></trkpt><trkpt lat="40.28189" lon="15.3711567"><ele>1045.6666666666667</ele><time>2026-03-28T10:52:04.025Z</time></trkpt><trkpt lat="40.2819183" lon="15.3712633"><ele>1046.5</ele><time>2026-03-28T10:52:05.025Z</time></trkpt><trkpt lat="40.2819367" lon="15.371365"><ele>1047.3333333333335</ele><time>2026-03-28T10:52:06.025Z</time></trkpt><trkpt lat="40.2819533" lon="15.3714717"><ele>1048.1666666666667</ele><time>2026-03-28T10:52:07.025Z</time></trkpt><trkpt lat="40.2819583" lon="15.3715767"><ele>1049.0</ele><time>2026-03-28T10:52:08.026Z</time></trkpt><trkpt lat="40.2819583" lon="15.3716983"><ele>1050.3333333333335</ele><time>2026-03-28T10:52:09.026Z</time></trkpt><trkpt lat="40.2819617" lon="15.37183"><ele>1051.6666666666667</ele><time>2026-03-28T10:52:10.025Z</time></trkpt><trkpt lat="40.2819667" lon="15.37195"><ele>1053.0</ele><time>2026-03-28T10:52:11.025Z</time></trkpt><trkpt lat="40.281975" lon="15.372065"><ele>1054.3333333333333</ele><time>2026-03-28T10:52:12.026Z</time></trkpt><trkpt lat="40.2819833" lon="15.3721717"><ele>1055.6666666666665</ele><time>2026-03-28T10:52:13.026Z</time></trkpt><trkpt lat="40.281995" lon="15.37227"><ele>1057.0</ele><time>2026-03-28T10:52:14.025Z</time></trkpt><trkpt lat="40.2820117" lon="15.372425"><ele>1057.4</ele><time>2026-03-28T10:52:16.026Z</time></trkpt><trkpt lat="40.2820333" lon="15.372565"><ele>1057.8000000000002</ele><time>2026-03-28T10:52:18.026Z</time></trkpt><trkpt lat="40.2820383" lon="15.3726917"><ele>1058.2</ele><time>2026-03-28T10:52:20.025Z</time></trkpt><trkpt lat="40.281955" lon="15.3727933"><ele>1058.6000000000001</ele><time>2026-03-28T10:52:48.025Z</time></trkpt><trkpt lat="40.28187" lon="15.3727983"><ele>1059.0</ele><time>2026-03-28T10:52:50.025Z</time></trkpt><trkpt lat="40.2817567" lon="15.3728317"><ele>1059.0</ele><time>2026-03-28T10:52:52.026Z</time></trkpt><trkpt lat="40.281675" lon="15.37286"><ele>1059.0</ele><time>2026-03-28T10:52:53.026Z</time></trkpt><trkpt lat="40.28158" lon="15.3728833"><ele>1059.0</ele><time>2026-03-28T10:52:54.025Z</time></trkpt><trkpt lat="40.2814767" lon="15.3728967"><ele>1059.0</ele><time>2026-03-28T10:52:55.026Z</time></trkpt><trkpt lat="40.2813733" lon="15.3729083"><ele>1059.0</ele><time>2026-03-28T10:52:56.026Z</time></trkpt><trkpt lat="40.2812733" lon="15.3729217"><ele>1062.4</ele><time>2026-03-28T10:52:57.026Z</time></trkpt><trkpt lat="40.2811833" lon="15.3729467"><ele>1065.8000000000002</ele><time>2026-03-28T10:52:58.025Z</time></trkpt><trkpt lat="40.2810967" lon="15.3729733"><ele>1069.1999999999998</ele><time>2026-03-28T10:52:59.026Z</time></trkpt><trkpt lat="40.2810267" lon="15.3729983"><ele>1072.6</ele><time>2026-03-28T10:53:00.026Z</time></trkpt><trkpt lat="40.2809233" lon="15.3730133"><ele>1076.0</ele><time>2026-03-28T10:53:02.025Z</time></trkpt><trkpt lat="40.2808167" lon="15.3729767"><ele>1076.0</ele><time>2026-03-28T10:53:04.026Z</time></trkpt><trkpt lat="40.2807083" lon="15.3729267"><ele>1076.0</ele><time>2026-03-28T10:53:06.025Z</time></trkpt><trkpt lat="40.28059" lon="15.3728967"><ele>1076.0</ele><time>2026-03-28T10:53:08.026Z</time></trkpt><trkpt lat="40.2805267" lon="15.3728933"><ele>1076.0</ele><time>2026-03-28T10:53:09.025Z</time></trkpt><trkpt lat="40.280405" lon="15.3729033"><ele>1076.0</ele><time>2026-03-28T10:53:11.025Z</time></trkpt><trkpt lat="40.2802917" lon="15.3729067"><ele>1077.6</ele><time>2026-03-28T10:53:13.025Z</time></trkpt><trkpt lat="40.280225" lon="15.372915"><ele>1079.1999999999998</ele><time>2026-03-28T10:53:15.025Z</time></trkpt><trkpt lat="40.2801267" lon="15.3729333"><ele>1080.8000000000002</ele><time>2026-03-28T10:55:00.025Z</time></trkpt><trkpt lat="40.280025" lon="15.3729483"><ele>1082.4</ele><time>2026-03-28T10:55:02.026Z</time></trkpt><trkpt lat="40.2799017" lon="15.3729867"><ele>1084.0</ele><time>2026-03-28T10:55:04.026Z</time></trkpt><trkpt lat="40.2798333" lon="15.3730033"><ele>1084.0</ele><time>2026-03-28T10:55:05.025Z</time></trkpt><trkpt lat="40.279765" lon="15.3730167"><ele>1084.0</ele><time>2026-03-28T10:55:06.025Z</time></trkpt><trkpt lat="40.279695" lon="15.3730283"><ele>1084.0</ele><time>2026-03-28T10:55:07.025Z</time></trkpt><trkpt lat="40.2796267" lon="15.3730417"><ele>1084.0</ele><time>2026-03-28T10:55:08.026Z</time></trkpt><trkpt lat="40.27955" lon="15.3730583"><ele>1084.0</ele><time>2026-03-28T10:55:09.026Z</time></trkpt><trkpt lat="40.2794667" lon="15.3730767"><ele>1084.0</ele><time>2026-03-28T10:55:10.025Z</time></trkpt><trkpt lat="40.2793783" lon="15.37309"><ele>1079.3333333333333</ele><time>2026-03-28T10:55:11.026Z</time></trkpt><trkpt lat="40.27929" lon="15.3730967"><ele>1074.6666666666665</ele><time>2026-03-28T10:55:12.026Z</time></trkpt><trkpt lat="40.2791967" lon="15.373095"><ele>1070.0</ele><time>2026-03-28T10:55:13.026Z</time></trkpt><trkpt lat="40.27911" lon="15.3731"><ele>1065.3333333333333</ele><time>2026-03-28T10:55:14.026Z</time></trkpt><trkpt lat="40.2790333" lon="15.3731017"><ele>1060.6666666666667</ele><time>2026-03-28T10:55:15.026Z</time></trkpt><trkpt lat="40.2789633" lon="15.3731183"><ele>1056.0</ele><time>2026-03-28T10:55:16.026Z</time></trkpt><trkpt lat="40.278895" lon="15.3731333"><ele>1056.0</ele><time>2026-03-28T10:55:17.025Z</time></trkpt><trkpt lat="40.278825" lon="15.3731567"><ele>1056.0</ele><time>2026-03-28T10:55:18.026Z</time></trkpt><trkpt lat="40.2787467" lon="15.37318"><ele>1056.0</ele><time>2026-03-28T10:55:19.025Z</time></trkpt><trkpt lat="40.2786633" lon="15.3731983"><ele>1056.0</ele><time>2026-03-28T10:55:20.025Z</time></trkpt><trkpt lat="40.2785783" lon="15.3732183"><ele>1056.0</ele><time>2026-03-28T10:55:21.025Z</time></trkpt><trkpt lat="40.2784933" lon="15.373235"><ele>1056.0</ele><time>2026-03-28T10:55:22.025Z</time></trkpt><trkpt lat="40.2784183" lon="15.3732467"><ele>1056.0</ele><time>2026-03-28T10:55:23.025Z</time></trkpt><trkpt lat="40.27834" lon="15.3732617"><ele>1056.0</ele><time>2026-03-28T10:55:24.026Z</time></trkpt><trkpt lat="40.278265" lon="15.3732933"><ele>1056.0</ele><time>2026-03-28T10:55:25.025Z</time></trkpt><trkpt lat="40.2782" lon="15.3733283"><ele>1056.0</ele><time>2026-03-28T10:55:26.025Z</time></trkpt><trkpt lat="40.2781433" lon="15.37338"><ele>1056.0</ele><time>2026-03-28T10:55:27.026Z</time></trkpt><trkpt lat="40.2780917" lon="15.3734317"><ele>1056.0</ele><time>2026-03-28T10:55:28.026Z</time></trkpt><trkpt lat="40.2779983" lon="15.3735033"><ele>1057.8</ele><time>2026-03-28T10:55:30.025Z</time></trkpt><trkpt lat="40.2778717" lon="15.3735383"><ele>1059.6</ele><time>2026-03-28T10:55:32.025Z</time></trkpt><trkpt lat="40.2777967" lon="15.37355"><ele>1061.4</ele><time>2026-03-28T10:55:33.025Z</time></trkpt><trkpt lat="40.277715" lon="15.37357"><ele>1063.2</ele><time>2026-03-28T10:55:34.025Z</time></trkpt><trkpt lat="40.277635" lon="15.3736067"><ele>1065.0</ele><time>2026-03-28T10:55:35.025Z</time></trkpt><trkpt lat="40.2775633" lon="15.3736533"><ele>1065.0</ele><time>2026-03-28T10:55:36.026Z</time></trkpt><trkpt lat="40.2774983" lon="15.373695"><ele>1065.0</ele><time>2026-03-28T10:55:37.025Z</time></trkpt><trkpt lat="40.2774367" lon="15.3737367"><ele>1065.0</ele><time>2026-03-28T10:55:38.026Z</time></trkpt><trkpt lat="40.2773733" lon="15.373765"><ele>1065.0</ele><time>2026-03-28T10:55:39.025Z</time></trkpt><trkpt lat="40.277305" lon="15.37378"><ele>1065.0</ele><time>2026-03-28T10:55:40.025Z</time></trkpt><trkpt lat="40.27723" lon="15.373785"><ele>1065.0</ele><time>2026-03-28T10:55:41.025Z</time></trkpt><trkpt lat="40.2771467" lon="15.373775"><ele>1065.0</ele><time>2026-03-28T10:55:42.025Z</time></trkpt><trkpt lat="40.2770567" lon="15.37376"><ele>1065.8333333333333</ele><time>2026-03-28T10:55:43.025Z</time></trkpt><trkpt lat="40.2769633" lon="15.373755"><ele>1066.6666666666667</ele><time>2026-03-28T10:55:44.026Z</time></trkpt><trkpt lat="40.2768733" lon="15.3737583"><ele>1067.5</ele><time>2026-03-28T10:55:45.026Z</time></trkpt><trkpt lat="40.2767933" lon="15.3737767"><ele>1068.3333333333335</ele><time>2026-03-28T10:55:46.026Z</time></trkpt><trkpt lat="40.2767267" lon="15.3738"><ele>1069.1666666666667</ele><time>2026-03-28T10:55:47.026Z</time></trkpt><trkpt lat="40.2766683" lon="15.3738367"><ele>1070.0</ele><time>2026-03-28T10:55:48.026Z</time></trkpt><trkpt lat="40.2766167" lon="15.3738867"><ele>1070.2857142857142</ele><time>2026-03-28T10:55:49.025Z</time></trkpt><trkpt lat="40.276565" lon="15.3739467"><ele>1070.5714285714287</ele><time>2026-03-28T10:55:50.025Z</time></trkpt><trkpt lat="40.2765183" lon="15.3740083"><ele>1070.857142857143</ele><time>2026-03-28T10:55:51.025Z</time></trkpt><trkpt lat="40.27646" lon="15.3740717"><ele>1071.142857142857</ele><time>2026-03-28T10:55:52.026Z</time></trkpt><trkpt lat="40.2763917" lon="15.374125"><ele>1071.4285714285713</ele><time>2026-03-28T10:55:53.025Z</time></trkpt><trkpt lat="40.276315" lon="15.374165"><ele>1071.7142857142858</ele><time>2026-03-28T10:55:54.025Z</time></trkpt><trkpt lat="40.2762467" lon="15.3742067"><ele>1072.0</ele><time>2026-03-28T10:55:55.025Z</time></trkpt><trkpt lat="40.2761867" lon="15.3742567"><ele>1072.0</ele><time>2026-03-28T10:55:56.025Z</time></trkpt><trkpt lat="40.2761367" lon="15.3743233"><ele>1072.0</ele><time>2026-03-28T10:55:57.025Z</time></trkpt><trkpt lat="40.27608" lon="15.3743867"><ele>1072.0</ele><time>2026-03-28T10:55:58.026Z</time></trkpt><trkpt lat="40.2760167" lon="15.3744483"><ele>1072.0</ele><time>2026-03-28T10:55:59.025Z</time></trkpt><trkpt lat="40.2759567" lon="15.3745183"><ele>1072.0</ele><time>2026-03-28T10:56:00.025Z</time></trkpt><trkpt lat="40.2758967" lon="15.37459"><ele>1072.0</ele><time>2026-03-28T10:56:01.026Z</time></trkpt><trkpt lat="40.275835" lon="15.3746617"><ele>1072.8333333333333</ele><time>2026-03-28T10:56:02.025Z</time></trkpt><trkpt lat="40.275775" lon="15.3747383"><ele>1073.6666666666665</ele><time>2026-03-28T10:56:03.025Z</time></trkpt><trkpt lat="40.2757167" lon="15.37481"><ele>1074.5</ele><time>2026-03-28T10:56:04.025Z</time></trkpt><trkpt lat="40.2756533" lon="15.3748733"><ele>1075.3333333333333</ele><time>2026-03-28T10:56:05.025Z</time></trkpt><trkpt lat="40.2755833" lon="15.37494"><ele>1076.1666666666667</ele><time>2026-03-28T10:56:06.025Z</time></trkpt><trkpt lat="40.275525" lon="15.375015"><ele>1077.0</ele><time>2026-03-28T10:56:07.026Z</time></trkpt><trkpt lat="40.2754717" lon="15.3750983"><ele>1077.0</ele><time>2026-03-28T10:56:08.026Z</time></trkpt><trkpt lat="40.2754183" lon="15.3751783"><ele>1077.0</ele><time>2026-03-28T10:56:09.025Z</time></trkpt><trkpt lat="40.2753683" lon="15.375265"><ele>1077.0</ele><time>2026-03-28T10:56:10.025Z</time></trkpt><trkpt lat="40.2753133" lon="15.37535"><ele>1077.0</ele><time>2026-03-28T10:56:11.025Z</time></trkpt><trkpt lat="40.275255" lon="15.37543"><ele>1077.0</ele><time>2026-03-28T10:56:12.025Z</time></trkpt><trkpt lat="40.275195" lon="15.3755083"><ele>1077.0</ele><time>2026-03-28T10:56:13.025Z</time></trkpt><trkpt lat="40.2751383" lon="15.3755783"><ele>1074.142857142857</ele><time>2026-03-28T10:56:14.025Z</time></trkpt><trkpt lat="40.27508" lon="15.37564"><ele>1071.2857142857142</ele><time>2026-03-28T10:56:15.025Z</time></trkpt><trkpt lat="40.275025" lon="15.3756967"><ele>1068.4285714285716</ele><time>2026-03-28T10:56:16.025Z</time></trkpt><trkpt lat="40.2749633" lon="15.37576"><ele>1065.5714285714284</ele><time>2026-03-28T10:56:17.025Z</time></trkpt><trkpt lat="40.2749" lon="15.375825"><ele>1062.7142857142858</ele><time>2026-03-28T10:56:18.026Z</time></trkpt><trkpt lat="40.2748467" lon="15.3758883"><ele>1059.857142857143</ele><time>2026-03-28T10:56:19.025Z</time></trkpt><trkpt lat="40.2747983" lon="15.37596"><ele>1057.0</ele><time>2026-03-28T10:56:20.026Z</time></trkpt><trkpt lat="40.2747633" lon="15.3760383"><ele>1056.2857142857142</ele><time>2026-03-28T10:56:21.025Z</time></trkpt><trkpt lat="40.2747317" lon="15.3761167"><ele>1055.5714285714284</ele><time>2026-03-28T10:56:22.025Z</time></trkpt><trkpt lat="40.2746917" lon="15.376195"><ele>1054.857142857143</ele><time>2026-03-28T10:56:23.025Z</time></trkpt><trkpt lat="40.2746433" lon="15.3762617"><ele>1054.142857142857</ele><time>2026-03-28T10:56:24.025Z</time></trkpt><trkpt lat="40.2746" lon="15.3763267"><ele>1053.4285714285713</ele><time>2026-03-28T10:56:25.025Z</time></trkpt><trkpt lat="40.2745367" lon="15.3763733"><ele>1052.7142857142858</ele><time>2026-03-28T10:56:26.026Z</time></trkpt><trkpt lat="40.2744667" lon="15.3764"><ele>1052.0</ele><time>2026-03-28T10:56:27.026Z</time></trkpt><trkpt lat="40.2743933" lon="15.37641"><ele>1052.0</ele><time>2026-03-28T10:56:28.026Z</time></trkpt><trkpt lat="40.2743267" lon="15.376405"><ele>1052.0</ele><time>2026-03-28T10:56:29.025Z</time></trkpt><trkpt lat="40.2742267" lon="15.3763433"><ele>1052.0</ele><time>2026-03-28T10:56:31.025Z</time></trkpt><trkpt lat="40.2741533" lon="15.37622"><ele>1052.0</ele><time>2026-03-28T10:56:33.026Z</time></trkpt><trkpt lat="40.2741183" lon="15.376145"><ele>1052.0</ele><time>2026-03-28T10:56:34.025Z</time></trkpt><trkpt lat="40.2740817" lon="15.3760567"><ele>1052.0</ele><time>2026-03-28T10:56:35.026Z</time></trkpt><trkpt lat="40.27405" lon="15.3759717"><ele>1052.0</ele><time>2026-03-28T10:56:36.026Z</time></trkpt><trkpt lat="40.2740283" lon="15.3758783"><ele>1052.0</ele><time>2026-03-28T10:56:37.025Z</time></trkpt><trkpt lat="40.274015" lon="15.3757767"><ele>1052.0</ele><time>2026-03-28T10:56:38.026Z</time></trkpt><trkpt lat="40.2740117" lon="15.3756583"><ele>1052.0</ele><time>2026-03-28T10:56:39.025Z</time></trkpt><trkpt lat="40.2740133" lon="15.3755383"><ele>1052.0</ele><time>2026-03-28T10:56:40.026Z</time></trkpt><trkpt lat="40.2740083" lon="15.3754183"><ele>1052.0</ele><time>2026-03-28T10:56:41.025Z</time></trkpt><trkpt lat="40.2739983" lon="15.3752967"><ele>1053.8333333333335</ele><time>2026-03-28T10:56:42.026Z</time></trkpt><trkpt lat="40.2739767" lon="15.375185"><ele>1055.6666666666667</ele><time>2026-03-28T10:56:43.026Z</time></trkpt><trkpt lat="40.2739433" lon="15.37508"><ele>1057.5</ele><time>2026-03-28T10:56:44.025Z</time></trkpt><trkpt lat="40.2739" lon="15.3749917"><ele>1059.3333333333333</ele><time>2026-03-28T10:56:45.025Z</time></trkpt><trkpt lat="40.273855" lon="15.3749067"><ele>1061.1666666666665</ele><time>2026-03-28T10:56:46.025Z</time></trkpt><trkpt lat="40.2738017" lon="15.37482"><ele>1063.0</ele><time>2026-03-28T10:56:47.026Z</time></trkpt><trkpt lat="40.2737333" lon="15.3747517"><ele>1060.1666666666665</ele><time>2026-03-28T10:56:48.025Z</time></trkpt><trkpt lat="40.2736683" lon="15.3746867"><ele>1057.3333333333333</ele><time>2026-03-28T10:56:49.026Z</time></trkpt><trkpt lat="40.2736133" lon="15.37463"><ele>1054.5</ele><time>2026-03-28T10:56:50.026Z</time></trkpt><trkpt lat="40.27357" lon="15.37457"><ele>1051.6666666666667</ele><time>2026-03-28T10:56:51.025Z</time></trkpt><trkpt lat="40.2735533" lon="15.37442"><ele>1048.8333333333335</ele><time>2026-03-28T10:56:53.025Z</time></trkpt><trkpt lat="40.2735617" lon="15.3743283"><ele>1046.0</ele><time>2026-03-28T10:56:54.026Z</time></trkpt><trkpt lat="40.2735767" lon="15.3742283"><ele>1046.0</ele><time>2026-03-28T10:56:55.025Z</time></trkpt><trkpt lat="40.2735783" lon="15.3741267"><ele>1046.0</ele><time>2026-03-28T10:56:56.025Z</time></trkpt><trkpt lat="40.2735633" lon="15.3740217"><ele>1046.0</ele><time>2026-03-28T10:56:57.026Z</time></trkpt><trkpt lat="40.2735283" lon="15.3739233"><ele>1046.0</ele><time>2026-03-28T10:56:58.025Z</time></trkpt><trkpt lat="40.2734783" lon="15.37381"><ele>1046.0</ele><time>2026-03-28T10:56:59.026Z</time></trkpt><trkpt lat="40.2734167" lon="15.373695"><ele>1046.0</ele><time>2026-03-28T10:57:00.025Z</time></trkpt><trkpt lat="40.2733533" lon="15.3735933"><ele>1044.8333333333335</ele><time>2026-03-28T10:57:01.025Z</time></trkpt><trkpt lat="40.2733" lon="15.3735017"><ele>1043.6666666666667</ele><time>2026-03-28T10:57:02.025Z</time></trkpt><trkpt lat="40.273235" lon="15.3734383"><ele>1042.5</ele><time>2026-03-28T10:57:03.026Z</time></trkpt><trkpt lat="40.2731633" lon="15.3733983"><ele>1041.3333333333333</ele><time>2026-03-28T10:57:04.025Z</time></trkpt><trkpt lat="40.273085" lon="15.3733683"><ele>1040.1666666666665</ele><time>2026-03-28T10:57:05.026Z</time></trkpt><trkpt lat="40.273005" lon="15.37334"><ele>1039.0</ele><time>2026-03-28T10:57:06.026Z</time></trkpt><trkpt lat="40.2729117" lon="15.3733233"><ele>1039.0</ele><time>2026-03-28T10:57:07.025Z</time></trkpt><trkpt lat="40.2728183" lon="15.3733083"><ele>1039.0</ele><time>2026-03-28T10:57:08.025Z</time></trkpt><trkpt lat="40.2727317" lon="15.373285"><ele>1039.0</ele><time>2026-03-28T10:57:09.025Z</time></trkpt><trkpt lat="40.27263" lon="15.3732617"><ele>1039.0</ele><time>2026-03-28T10:57:11.026Z</time></trkpt><trkpt lat="40.27259" lon="15.3731883"><ele>1039.0</ele><time>2026-03-28T10:57:13.026Z</time></trkpt><trkpt lat="40.2725567" lon="15.3730383"><ele>1043.0</ele><time>2026-03-28T10:57:15.025Z</time></trkpt><trkpt lat="40.2725333" lon="15.3729317"><ele>1047.0</ele><time>2026-03-28T10:57:16.026Z</time></trkpt><trkpt lat="40.2725067" lon="15.372835"><ele>1051.0</ele><time>2026-03-28T10:57:17.025Z</time></trkpt><trkpt lat="40.2724733" lon="15.37275"><ele>1055.0</ele><time>2026-03-28T10:57:18.025Z</time></trkpt><trkpt lat="40.2724233" lon="15.3726683"><ele>1059.0</ele><time>2026-03-28T10:57:19.026Z</time></trkpt><trkpt lat="40.2723617" lon="15.372605"><ele>1063.0</ele><time>2026-03-28T10:57:20.025Z</time></trkpt><trkpt lat="40.2722967" lon="15.372555"><ele>1061.142857142857</ele><time>2026-03-28T10:57:21.025Z</time></trkpt><trkpt lat="40.2722317" lon="15.3725233"><ele>1059.2857142857142</ele><time>2026-03-28T10:57:22.026Z</time></trkpt><trkpt lat="40.2721517" lon="15.3725167"><ele>1057.4285714285716</ele><time>2026-03-28T10:57:23.026Z</time></trkpt><trkpt lat="40.2720783" lon="15.3725333"><ele>1055.5714285714284</ele><time>2026-03-28T10:57:24.025Z</time></trkpt><trkpt lat="40.2720067" lon="15.3725583"><ele>1053.7142857142858</ele><time>2026-03-28T10:57:25.026Z</time></trkpt><trkpt lat="40.271935" lon="15.3725883"><ele>1051.857142857143</ele><time>2026-03-28T10:57:26.025Z</time></trkpt><trkpt lat="40.2718667" lon="15.3726317"><ele>1050.0</ele><time>2026-03-28T10:57:27.025Z</time></trkpt><trkpt lat="40.2718033" lon="15.3726717"><ele>1050.0</ele><time>2026-03-28T10:57:28.026Z</time></trkpt><trkpt lat="40.271735" lon="15.3727067"><ele>1050.0</ele><time>2026-03-28T10:57:29.026Z</time></trkpt><trkpt lat="40.2716783" lon="15.3727433"><ele>1050.0</ele><time>2026-03-28T10:57:30.025Z</time></trkpt><trkpt lat="40.2715883" lon="15.3727683"><ele>1050.0</ele><time>2026-03-28T10:57:32.025Z</time></trkpt><trkpt lat="40.2714983" lon="15.3727133"><ele>1050.0</ele><time>2026-03-28T10:57:34.026Z</time></trkpt><trkpt lat="40.2714333" lon="15.3726717"><ele>1050.0</ele><time>2026-03-28T10:57:35.025Z</time></trkpt><trkpt lat="40.2713533" lon="15.3726183"><ele>1047.6</ele><time>2026-03-28T10:57:36.025Z</time></trkpt><trkpt lat="40.2712733" lon="15.3725733"><ele>1045.2</ele><time>2026-03-28T10:57:37.025Z</time></trkpt><trkpt lat="40.2711867" lon="15.3725233"><ele>1042.8</ele><time>2026-03-28T10:57:38.026Z</time></trkpt><trkpt lat="40.2711033" lon="15.372465"><ele>1040.4</ele><time>2026-03-28T10:57:39.026Z</time></trkpt><trkpt lat="40.2710317" lon="15.3724067"><ele>1038.0</ele><time>2026-03-28T10:57:40.025Z</time></trkpt><trkpt lat="40.270955" lon="15.3723433"><ele>1038.0</ele><time>2026-03-28T10:57:41.025Z</time></trkpt><trkpt lat="40.2708783" lon="15.3722817"><ele>1038.0</ele><time>2026-03-28T10:57:42.025Z</time></trkpt><trkpt lat="40.2708" lon="15.3722317"><ele>1038.0</ele><time>2026-03-28T10:57:43.026Z</time></trkpt><trkpt lat="40.2707033" lon="15.372185"><ele>1038.0</ele><time>2026-03-28T10:57:44.026Z</time></trkpt><trkpt lat="40.2706" lon="15.3721467"><ele>1038.0</ele><time>2026-03-28T10:57:45.025Z</time></trkpt><trkpt lat="40.2705017" lon="15.3721083"><ele>1040.1666666666667</ele><time>2026-03-28T10:57:46.025Z</time></trkpt><trkpt lat="40.2704133" lon="15.3720667"><ele>1042.3333333333333</ele><time>2026-03-28T10:57:47.026Z</time></trkpt><trkpt lat="40.27034" lon="15.3720167"><ele>1044.5</ele><time>2026-03-28T10:57:48.025Z</time></trkpt><trkpt lat="40.2702817" lon="15.3719583"><ele>1046.6666666666665</ele><time>2026-03-28T10:57:49.026Z</time></trkpt><trkpt lat="40.2702217" lon="15.371905"><ele>1048.8333333333333</ele><time>2026-03-28T10:57:50.026Z</time></trkpt><trkpt lat="40.2701583" lon="15.371875"><ele>1051.0</ele><time>2026-03-28T10:57:51.025Z</time></trkpt><trkpt lat="40.2700917" lon="15.371865"><ele>1051.0</ele><time>2026-03-28T10:57:52.026Z</time></trkpt><trkpt lat="40.2700183" lon="15.3718733"><ele>1051.0</ele><time>2026-03-28T10:57:53.025Z</time></trkpt><trkpt lat="40.26993" lon="15.3718883"><ele>1051.0</ele><time>2026-03-28T10:57:54.026Z</time></trkpt><trkpt lat="40.269835" lon="15.37191"><ele>1051.0</ele><time>2026-03-28T10:57:55.026Z</time></trkpt><trkpt lat="40.26974" lon="15.3719317"><ele>1051.0</ele><time>2026-03-28T10:57:56.025Z</time></trkpt><trkpt lat="40.2696367" lon="15.3719567"><ele>1051.8</ele><time>2026-03-28T10:57:57.025Z</time></trkpt><trkpt lat="40.2695317" lon="15.371995"><ele>1052.6</ele><time>2026-03-28T10:57:58.025Z</time></trkpt><trkpt lat="40.26943" lon="15.3720383"><ele>1053.4</ele><time>2026-03-28T10:57:59.026Z</time></trkpt><trkpt lat="40.2693367" lon="15.3720917"><ele>1054.2</ele><time>2026-03-28T10:58:00.026Z</time></trkpt><trkpt lat="40.2692617" lon="15.3721433"><ele>1055.0</ele><time>2026-03-28T10:58:01.025Z</time></trkpt><trkpt lat="40.2691883" lon="15.3722067"><ele>1050.8</ele><time>2026-03-28T10:58:02.026Z</time></trkpt><trkpt lat="40.2691167" lon="15.3722733"><ele>1046.6</ele><time>2026-03-28T10:58:03.026Z</time></trkpt><trkpt lat="40.2690433" lon="15.3723483"><ele>1042.4</ele><time>2026-03-28T10:58:04.025Z</time></trkpt><trkpt lat="40.2689633" lon="15.3724183"><ele>1038.2</ele><time>2026-03-28T10:58:05.025Z</time></trkpt><trkpt lat="40.26889" lon="15.3724867"><ele>1034.0</ele><time>2026-03-28T10:58:06.026Z</time></trkpt><trkpt lat="40.26882" lon="15.3725467"><ele>1034.0</ele><time>2026-03-28T10:58:07.025Z</time></trkpt><trkpt lat="40.2687533" lon="15.3725933"><ele>1034.0</ele><time>2026-03-28T10:58:08.025Z</time></trkpt><trkpt lat="40.2686917" lon="15.3726283"><ele>1034.0</ele><time>2026-03-28T10:58:09.025Z</time></trkpt><trkpt lat="40.268575" lon="15.3726467"><ele>1034.0</ele><time>2026-03-28T10:58:11.025Z</time></trkpt><trkpt lat="40.2684883" lon="15.37261"><ele>1034.0</ele><time>2026-03-28T10:58:13.026Z</time></trkpt><trkpt lat="40.26842" lon="15.3725317"><ele>1034.0</ele><time>2026-03-28T10:58:15.025Z</time></trkpt><trkpt lat="40.26833" lon="15.3723983"><ele>1034.0</ele><time>2026-03-28T10:58:17.025Z</time></trkpt><trkpt lat="40.2682733" lon="15.3723283"><ele>1034.0</ele><time>2026-03-28T10:58:18.026Z</time></trkpt><trkpt lat="40.2682067" lon="15.3722667"><ele>1034.0</ele><time>2026-03-28T10:58:19.026Z</time></trkpt><trkpt lat="40.2681317" lon="15.3722217"><ele>1034.0</ele><time>2026-03-28T10:58:20.027Z</time></trkpt><trkpt lat="40.2680533" lon="15.3721917"><ele>1034.0</ele><time>2026-03-28T10:58:21.027Z</time></trkpt><trkpt lat="40.2679733" lon="15.37218"><ele>1034.0</ele><time>2026-03-28T10:58:22.026Z</time></trkpt><trkpt lat="40.2678833" lon="15.3721867"><ele>1033.8</ele><time>2026-03-28T10:58:23.027Z</time></trkpt><trkpt lat="40.2677867" lon="15.37221"><ele>1033.6000000000001</ele><time>2026-03-28T10:58:24.027Z</time></trkpt><trkpt lat="40.26768" lon="15.3722283"><ele>1033.4</ele><time>2026-03-28T10:58:25.027Z</time></trkpt><trkpt lat="40.267585" lon="15.372255"><ele>1033.2</ele><time>2026-03-28T10:58:26.026Z</time></trkpt><trkpt lat="40.2674917" lon="15.3722833"><ele>1033.0</ele><time>2026-03-28T10:58:27.027Z</time></trkpt><trkpt lat="40.2674017" lon="15.3723217"><ele>1033.0</ele><time>2026-03-28T10:58:28.026Z</time></trkpt><trkpt lat="40.2673183" lon="15.3723783"><ele>1033.0</ele><time>2026-03-28T10:58:29.026Z</time></trkpt><trkpt lat="40.26723" lon="15.3724383"><ele>1033.0</ele><time>2026-03-28T10:58:30.026Z</time></trkpt><trkpt lat="40.2671483" lon="15.3725033"><ele>1033.0</ele><time>2026-03-28T10:58:31.026Z</time></trkpt><trkpt lat="40.26708" lon="15.372565"><ele>1033.0</ele><time>2026-03-28T10:58:32.026Z</time></trkpt><trkpt lat="40.2670083" lon="15.3726267"><ele>1035.0</ele><time>2026-03-28T10:58:33.027Z</time></trkpt><trkpt lat="40.266945" lon="15.3726967"><ele>1037.0</ele><time>2026-03-28T10:58:34.027Z</time></trkpt><trkpt lat="40.2668783" lon="15.37277"><ele>1039.0</ele><time>2026-03-28T10:58:35.026Z</time></trkpt><trkpt lat="40.2668217" lon="15.372835"><ele>1041.0</ele><time>2026-03-28T10:58:36.027Z</time></trkpt><trkpt lat="40.2667333" lon="15.3729033"><ele>1043.0</ele><time>2026-03-28T10:58:38.026Z</time></trkpt><trkpt lat="40.2666283" lon="15.37293"><ele>1043.0</ele><time>2026-03-28T10:58:40.027Z</time></trkpt><trkpt lat="40.2665617" lon="15.3729483"><ele>1043.0</ele><time>2026-03-28T10:58:41.027Z</time></trkpt><trkpt lat="40.26649" lon="15.3729767"><ele>1043.0</ele><time>2026-03-28T10:58:42.026Z</time></trkpt><trkpt lat="40.266415" lon="15.373015"><ele>1043.0</ele><time>2026-03-28T10:58:43.026Z</time></trkpt><trkpt lat="40.2663417" lon="15.3730717"><ele>1043.0</ele><time>2026-03-28T10:58:44.026Z</time></trkpt><trkpt lat="40.2662767" lon="15.37313"><ele>1043.0</ele><time>2026-03-28T10:58:45.026Z</time></trkpt><trkpt lat="40.266205" lon="15.373195"><ele>1040.6</ele><time>2026-03-28T10:58:46.026Z</time></trkpt><trkpt lat="40.2661367" lon="15.3732783"><ele>1038.1999999999998</ele><time>2026-03-28T10:58:47.026Z</time></trkpt><trkpt lat="40.2660683" lon="15.3733667"><ele>1035.8</ele><time>2026-03-28T10:58:48.026Z</time></trkpt><trkpt lat="40.266005" lon="15.3734567"><ele>1033.3999999999999</ele><time>2026-03-28T10:58:49.027Z</time></trkpt><trkpt lat="40.2659483" lon="15.3735433"><ele>1031.0</ele><time>2026-03-28T10:58:50.027Z</time></trkpt><trkpt lat="40.265885" lon="15.37362"><ele>1031.0</ele><time>2026-03-28T10:58:51.026Z</time></trkpt><trkpt lat="40.2658167" lon="15.3736833"><ele>1031.0</ele><time>2026-03-28T10:58:52.026Z</time></trkpt><trkpt lat="40.2657533" lon="15.37373"><ele>1031.0</ele><time>2026-03-28T10:58:53.026Z</time></trkpt><trkpt lat="40.2656917" lon="15.3737683"><ele>1031.0</ele><time>2026-03-28T10:58:54.027Z</time></trkpt><trkpt lat="40.265635" lon="15.3738083"><ele>1031.0</ele><time>2026-03-28T10:58:55.026Z</time></trkpt><trkpt lat="40.2655267" lon="15.3738867"><ele>1031.0</ele><time>2026-03-28T10:58:57.026Z</time></trkpt><trkpt lat="40.26547" lon="15.3739267"><ele>1028.4285714285713</ele><time>2026-03-28T10:58:58.027Z</time></trkpt><trkpt lat="40.26541" lon="15.3739667"><ele>1025.8571428571427</ele><time>2026-03-28T10:58:59.026Z</time></trkpt><trkpt lat="40.2653517" lon="15.3740083"><ele>1023.2857142857142</ele><time>2026-03-28T10:59:00.027Z</time></trkpt><trkpt lat="40.2652933" lon="15.374045"><ele>1020.7142857142858</ele><time>2026-03-28T10:59:01.027Z</time></trkpt><trkpt lat="40.2652283" lon="15.37409"><ele>1018.1428571428572</ele><time>2026-03-28T10:59:02.027Z</time></trkpt><trkpt lat="40.2651617" lon="15.3741333"><ele>1015.5714285714287</ele><time>2026-03-28T10:59:03.027Z</time></trkpt><trkpt lat="40.26509" lon="15.374175"><ele>1013.0</ele><time>2026-03-28T10:59:04.026Z</time></trkpt><trkpt lat="40.2650233" lon="15.3742217"><ele>1013.0000000000001</ele><time>2026-03-28T10:59:05.026Z</time></trkpt><trkpt lat="40.26496" lon="15.37427"><ele>1013.0</ele><time>2026-03-28T10:59:06.027Z</time></trkpt><trkpt lat="40.26489" lon="15.3743167"><ele>1013.0</ele><time>2026-03-28T10:59:07.026Z</time></trkpt><trkpt lat="40.2648217" lon="15.3743683"><ele>1013.0</ele><time>2026-03-28T10:59:08.027Z</time></trkpt><trkpt lat="40.2647483" lon="15.3744317"><ele>1013.0000000000001</ele><time>2026-03-28T10:59:09.026Z</time></trkpt><trkpt lat="40.2646733" lon="15.374525"><ele>1013.0</ele><time>2026-03-28T10:59:10.026Z</time></trkpt><trkpt lat="40.2645967" lon="15.374635"><ele>1012.25</ele><time>2026-03-28T10:59:11.027Z</time></trkpt><trkpt lat="40.2645133" lon="15.3747633"><ele>1011.5</ele><time>2026-03-28T10:59:12.027Z</time></trkpt><trkpt lat="40.26442" lon="15.3748983"><ele>1010.75</ele><time>2026-03-28T10:59:13.026Z</time></trkpt><trkpt lat="40.2643283" lon="15.375025"><ele>1010.0</ele><time>2026-03-28T10:59:14.026Z</time></trkpt><trkpt lat="40.2642483" lon="15.3751383"><ele>1010.0</ele><time>2026-03-28T10:59:15.027Z</time></trkpt><trkpt lat="40.26417" lon="15.3752433"><ele>1010.0</ele><time>2026-03-28T10:59:16.026Z</time></trkpt><trkpt lat="40.2640983" lon="15.3753483"><ele>1010.0</ele><time>2026-03-28T10:59:17.026Z</time></trkpt><trkpt lat="40.2640233" lon="15.375435"><ele>1010.0</ele><time>2026-03-28T10:59:18.026Z</time></trkpt><trkpt lat="40.2639533" lon="15.3755133"><ele>1010.0</ele><time>2026-03-28T10:59:19.027Z</time></trkpt><trkpt lat="40.2638917" lon="15.3755867"><ele>1009.8333333333334</ele><time>2026-03-28T10:59:20.027Z</time></trkpt><trkpt lat="40.263825" lon="15.3756567"><ele>1009.6666666666667</ele><time>2026-03-28T10:59:21.027Z</time></trkpt><trkpt lat="40.263755" lon="15.3757167"><ele>1009.5</ele><time>2026-03-28T10:59:22.027Z</time></trkpt><trkpt lat="40.2636783" lon="15.375775"><ele>1009.3333333333333</ele><time>2026-03-28T10:59:23.027Z</time></trkpt><trkpt lat="40.2636" lon="15.37582"><ele>1009.1666666666666</ele><time>2026-03-28T10:59:24.026Z</time></trkpt><trkpt lat="40.2635267" lon="15.375865"><ele>1009.0</ele><time>2026-03-28T10:59:25.027Z</time></trkpt><trkpt lat="40.2634467" lon="15.37592"><ele>1009.0</ele><time>2026-03-28T10:59:26.026Z</time></trkpt><trkpt lat="40.2633583" lon="15.375975"><ele>1009.0000000000001</ele><time>2026-03-28T10:59:27.027Z</time></trkpt><trkpt lat="40.26327" lon="15.376025"><ele>1009.0000000000001</ele><time>2026-03-28T10:59:28.026Z</time></trkpt><trkpt lat="40.263185" lon="15.3760767"><ele>1009.0</ele><time>2026-03-28T10:59:29.026Z</time></trkpt><trkpt lat="40.2631083" lon="15.3761317"><ele>1009.0</ele><time>2026-03-28T10:59:30.026Z</time></trkpt><trkpt lat="40.26304" lon="15.3761967"><ele>1008.1666666666666</ele><time>2026-03-28T10:59:31.026Z</time></trkpt><trkpt lat="40.26298" lon="15.3762567"><ele>1007.3333333333333</ele><time>2026-03-28T10:59:32.027Z</time></trkpt><trkpt lat="40.262925" lon="15.3763233"><ele>1006.5</ele><time>2026-03-28T10:59:33.027Z</time></trkpt><trkpt lat="40.2628683" lon="15.3763917"><ele>1005.6666666666667</ele><time>2026-03-28T10:59:34.027Z</time></trkpt><trkpt lat="40.2628067" lon="15.37647"><ele>1004.8333333333334</ele><time>2026-03-28T10:59:35.027Z</time></trkpt><trkpt lat="40.2627467" lon="15.376565"><ele>1004.0</ele><time>2026-03-28T10:59:36.026Z</time></trkpt><trkpt lat="40.2626917" lon="15.3766583"><ele>1004.0000000000001</ele><time>2026-03-28T10:59:37.026Z</time></trkpt><trkpt lat="40.2626383" lon="15.3767533"><ele>1004.0</ele><time>2026-03-28T10:59:38.026Z</time></trkpt><trkpt lat="40.26259" lon="15.3768367"><ele>1004.0</ele><time>2026-03-28T10:59:39.027Z</time></trkpt><trkpt lat="40.2625367" lon="15.37692"><ele>1004.0</ele><time>2026-03-28T10:59:40.026Z</time></trkpt><trkpt lat="40.262495" lon="15.377005"><ele>1004.0000000000001</ele><time>2026-03-28T10:59:41.026Z</time></trkpt><trkpt lat="40.262455" lon="15.3770867"><ele>1004.0</ele><time>2026-03-28T10:59:42.027Z</time></trkpt><trkpt lat="40.2624283" lon="15.3771683"><ele>1002.5000000000001</ele><time>2026-03-28T10:59:43.026Z</time></trkpt><trkpt lat="40.2624117" lon="15.37726"><ele>1001.0</ele><time>2026-03-28T10:59:44.027Z</time></trkpt><trkpt lat="40.2624033" lon="15.3773467"><ele>999.5</ele><time>2026-03-28T10:59:45.027Z</time></trkpt><trkpt lat="40.2623983" lon="15.3774883"><ele>998.0</ele><time>2026-03-28T10:59:47.027Z</time></trkpt><trkpt lat="40.2623867" lon="15.37761"><ele>996.5000000000001</ele><time>2026-03-28T10:59:49.027Z</time></trkpt><trkpt lat="40.262375" lon="15.37772"><ele>995.0</ele><time>2026-03-28T10:59:51.026Z</time></trkpt><trkpt lat="40.262325" lon="15.377815"><ele>992.3333333333334</ele><time>2026-03-28T10:59:53.026Z</time></trkpt><trkpt lat="40.26224" lon="15.3778633"><ele>989.6666666666667</ele><time>2026-03-28T10:59:55.027Z</time></trkpt><trkpt lat="40.2621467" lon="15.377845"><ele>987.0</ele><time>2026-03-28T10:59:57.026Z</time></trkpt><trkpt lat="40.2620583" lon="15.3778133"><ele>984.3333333333333</ele><time>2026-03-28T10:59:59.027Z</time></trkpt><trkpt lat="40.2619833" lon="15.377835"><ele>981.6666666666666</ele><time>2026-03-28T11:00:01.026Z</time></trkpt><trkpt lat="40.2619217" lon="15.3778883"><ele>979.0</ele><time>2026-03-28T11:00:03.027Z</time></trkpt><trkpt lat="40.2619083" lon="15.3779933"><ele>979.4000000000001</ele><time>2026-03-28T11:00:05.026Z</time></trkpt><trkpt lat="40.2619467" lon="15.3781317"><ele>979.8000000000001</ele><time>2026-03-28T11:00:07.026Z</time></trkpt><trkpt lat="40.2619817" lon="15.378205"><ele>980.1999999999999</ele><time>2026-03-28T11:00:08.026Z</time></trkpt><trkpt lat="40.2620717" lon="15.3783083"><ele>980.5999999999999</ele><time>2026-03-28T11:00:10.026Z</time></trkpt><trkpt lat="40.2621867" lon="15.3783383"><ele>981.0</ele><time>2026-03-28T11:00:12.027Z</time></trkpt><trkpt lat="40.2622983" lon="15.378325"><ele>981.0</ele><time>2026-03-28T11:00:14.027Z</time></trkpt><trkpt lat="40.26237" lon="15.3783"><ele>981.0</ele><time>2026-03-28T11:00:16.026Z</time></trkpt><trkpt lat="40.2624417" lon="15.37832"><ele>981.0</ele><time>2026-03-28T11:00:18.026Z</time></trkpt><trkpt lat="40.2624367" lon="15.37843"><ele>981.0</ele><time>2026-03-28T11:00:21.027Z</time></trkpt><trkpt lat="40.2623633" lon="15.37849"><ele>981.0</ele><time>2026-03-28T11:00:23.027Z</time></trkpt><trkpt lat="40.26226" lon="15.3785517"><ele>981.0</ele><time>2026-03-28T11:00:25.027Z</time></trkpt><trkpt lat="40.2621917" lon="15.3786"><ele>980.0</ele><time>2026-03-28T11:00:26.026Z</time></trkpt><trkpt lat="40.2621283" lon="15.3786617"><ele>979.0</ele><time>2026-03-28T11:00:27.026Z</time></trkpt><trkpt lat="40.2620617" lon="15.3787217"><ele>978.0</ele><time>2026-03-28T11:00:28.026Z</time></trkpt><trkpt lat="40.2620033" lon="15.3787783"><ele>977.0</ele><time>2026-03-28T11:00:29.027Z</time></trkpt><trkpt lat="40.2619417" lon="15.378835"><ele>976.0</ele><time>2026-03-28T11:00:30.026Z</time></trkpt><trkpt lat="40.2618817" lon="15.3788833"><ele>975.0</ele><time>2026-03-28T11:00:31.027Z</time></trkpt><trkpt lat="40.2618267" lon="15.378935"><ele>974.0</ele><time>2026-03-28T11:00:32.026Z</time></trkpt><trkpt lat="40.2617733" lon="15.3789833"><ele>972.4000000000001</ele><time>2026-03-28T11:00:33.026Z</time></trkpt><trkpt lat="40.2616683" lon="15.379075"><ele>970.8000000000001</ele><time>2026-03-28T11:00:35.027Z</time></trkpt><trkpt lat="40.2616167" lon="15.3791283"><ele>969.1999999999999</ele><time>2026-03-28T11:00:36.026Z</time></trkpt><trkpt lat="40.261515" lon="15.3792333"><ele>967.5999999999999</ele><time>2026-03-28T11:00:38.027Z</time></trkpt><trkpt lat="40.26146" lon="15.3792883"><ele>966.0</ele><time>2026-03-28T11:00:39.026Z</time></trkpt><trkpt lat="40.26141" lon="15.37934"><ele>963.4</ele><time>2026-03-28T11:00:40.026Z</time></trkpt><trkpt lat="40.2613217" lon="15.3794733"><ele>960.8</ele><time>2026-03-28T11:00:42.027Z</time></trkpt><trkpt lat="40.2612767" lon="15.37957"><ele>958.1999999999999</ele><time>2026-03-28T11:00:43.026Z</time></trkpt><trkpt lat="40.2612317" lon="15.37969"><ele>955.5999999999999</ele><time>2026-03-28T11:00:44.026Z</time></trkpt><trkpt lat="40.2611833" lon="15.379825"><ele>953.0</ele><time>2026-03-28T11:00:45.027Z</time></trkpt><trkpt lat="40.2611283" lon="15.3799567"><ele>953.0</ele><time>2026-03-28T11:00:46.027Z</time></trkpt><trkpt lat="40.26107" lon="15.3801"><ele>953.0</ele><time>2026-03-28T11:00:47.027Z</time></trkpt><trkpt lat="40.2610067" lon="15.3802467"><ele>953.0</ele><time>2026-03-28T11:00:48.027Z</time></trkpt><trkpt lat="40.2609417" lon="15.38039"><ele>953.0</ele><time>2026-03-28T11:00:49.026Z</time></trkpt><trkpt lat="40.2608767" lon="15.3805317"><ele>953.0</ele><time>2026-03-28T11:00:50.027Z</time></trkpt><trkpt lat="40.2608167" lon="15.3806567"><ele>953.0</ele><time>2026-03-28T11:00:51.026Z</time></trkpt><trkpt lat="40.26076" lon="15.38078"><ele>953.0</ele><time>2026-03-28T11:00:52.026Z</time></trkpt><trkpt lat="40.2607067" lon="15.3808867"><ele>953.0</ele><time>2026-03-28T11:00:53.027Z</time></trkpt><trkpt lat="40.2606583" lon="15.3809667"><ele>953.0</ele><time>2026-03-28T11:00:54.026Z</time></trkpt><trkpt lat="40.2605833" lon="15.3810833"><ele>953.8</ele><time>2026-03-28T11:00:56.026Z</time></trkpt><trkpt lat="40.26052" lon="15.3811967"><ele>954.5999999999999</ele><time>2026-03-28T11:00:58.026Z</time></trkpt><trkpt lat="40.260425" lon="15.3813167"><ele>955.4000000000001</ele><time>2026-03-28T11:01:00.027Z</time></trkpt><trkpt lat="40.2603683" lon="15.3813933"><ele>956.2</ele><time>2026-03-28T11:01:01.026Z</time></trkpt><trkpt lat="40.2603" lon="15.38148"><ele>957.0</ele><time>2026-03-28T11:01:02.026Z</time></trkpt><trkpt lat="40.2602233" lon="15.38157"><ele>957.0</ele><time>2026-03-28T11:01:03.026Z</time></trkpt><trkpt lat="40.2601367" lon="15.381645"><ele>957.0</ele><time>2026-03-28T11:01:04.026Z</time></trkpt><trkpt lat="40.2600583" lon="15.3817017"><ele>957.0</ele><time>2026-03-28T11:01:05.026Z</time></trkpt><trkpt lat="40.2599833" lon="15.381735"><ele>957.0</ele><time>2026-03-28T11:01:06.027Z</time></trkpt><trkpt lat="40.2599067" lon="15.3817483"><ele>957.0</ele><time>2026-03-28T11:01:07.026Z</time></trkpt><trkpt lat="40.2598183" lon="15.3817433"><ele>957.0</ele><time>2026-03-28T11:01:08.026Z</time></trkpt><trkpt lat="40.2597333" lon="15.38173"><ele>955.7142857142858</ele><time>2026-03-28T11:01:09.026Z</time></trkpt><trkpt lat="40.2596567" lon="15.3817183"><ele>954.4285714285716</ele><time>2026-03-28T11:01:10.027Z</time></trkpt><trkpt lat="40.25958" lon="15.3817217"><ele>953.1428571428571</ele><time>2026-03-28T11:01:11.026Z</time></trkpt><trkpt lat="40.25951" lon="15.381745"><ele>951.8571428571429</ele><time>2026-03-28T11:01:12.027Z</time></trkpt><trkpt lat="40.2594433" lon="15.381785"><ele>950.5714285714286</ele><time>2026-03-28T11:01:13.027Z</time></trkpt><trkpt lat="40.2593783" lon="15.3818333"><ele>949.2857142857142</ele><time>2026-03-28T11:01:14.026Z</time></trkpt><trkpt lat="40.2593183" lon="15.381885"><ele>947.9999999999999</ele><time>2026-03-28T11:01:15.027Z</time></trkpt><trkpt lat="40.259265" lon="15.3819433"><ele>948.0</ele><time>2026-03-28T11:01:16.027Z</time></trkpt><trkpt lat="40.2591833" lon="15.3820417"><ele>948.0</ele><time>2026-03-28T11:01:18.026Z</time></trkpt><trkpt lat="40.2591267" lon="15.3820933"><ele>948.0</ele><time>2026-03-28T11:01:20.027Z</time></trkpt><trkpt lat="40.2590583" lon="15.382135"><ele>948.0</ele><time>2026-03-28T11:01:22.027Z</time></trkpt><trkpt lat="40.2589433" lon="15.38217"><ele>948.0</ele><time>2026-03-28T11:01:24.027Z</time></trkpt><trkpt lat="40.2588667" lon="15.38217"><ele>947.8571428571427</ele><time>2026-03-28T11:01:25.026Z</time></trkpt><trkpt lat="40.2587883" lon="15.3821633"><ele>947.7142857142857</ele><time>2026-03-28T11:01:26.027Z</time></trkpt><trkpt lat="40.258715" lon="15.3821633"><ele>947.5714285714284</ele><time>2026-03-28T11:01:27.026Z</time></trkpt><trkpt lat="40.2586433" lon="15.3821767"><ele>947.4285714285713</ele><time>2026-03-28T11:01:28.027Z</time></trkpt><trkpt lat="40.2585733" lon="15.3822067"><ele>947.2857142857142</ele><time>2026-03-28T11:01:29.026Z</time></trkpt><trkpt lat="40.2585133" lon="15.3822467"><ele>947.1428571428571</ele><time>2026-03-28T11:01:30.026Z</time></trkpt><trkpt lat="40.25846" lon="15.382305"><ele>947.0</ele><time>2026-03-28T11:01:31.027Z</time></trkpt><trkpt lat="40.2584133" lon="15.3823767"><ele>947.0000000000001</ele><time>2026-03-28T11:01:32.026Z</time></trkpt><trkpt lat="40.258375" lon="15.3824517"><ele>947.0</ele><time>2026-03-28T11:01:33.026Z</time></trkpt><trkpt lat="40.2583383" lon="15.38253"><ele>947.0</ele><time>2026-03-28T11:01:34.026Z</time></trkpt><trkpt lat="40.2583033" lon="15.3826067"><ele>947.0</ele><time>2026-03-28T11:01:35.026Z</time></trkpt><trkpt lat="40.2582183" lon="15.3827133"><ele>947.0000000000001</ele><time>2026-03-28T11:01:37.027Z</time></trkpt><trkpt lat="40.25816" lon="15.3827483"><ele>947.0</ele><time>2026-03-28T11:01:38.026Z</time></trkpt><trkpt lat="40.2580883" lon="15.3827817"><ele>944.0000000000001</ele><time>2026-03-28T11:01:39.027Z</time></trkpt><trkpt lat="40.2580133" lon="15.3828067"><ele>941.0</ele><time>2026-03-28T11:01:40.026Z</time></trkpt><trkpt lat="40.2579367" lon="15.382825"><ele>938.0</ele><time>2026-03-28T11:01:41.027Z</time></trkpt><trkpt lat="40.2578567" lon="15.3828417"><ele>935.0</ele><time>2026-03-28T11:01:42.027Z</time></trkpt><trkpt lat="40.25777" lon="15.3828517"><ele>932.0000000000001</ele><time>2026-03-28T11:01:43.026Z</time></trkpt><trkpt lat="40.2576867" lon="15.3828633"><ele>929.0</ele><time>2026-03-28T11:01:44.026Z</time></trkpt><trkpt lat="40.2576033" lon="15.3828717"><ele>929.0000000000001</ele><time>2026-03-28T11:01:45.026Z</time></trkpt><trkpt lat="40.2575167" lon="15.3828783"><ele>929.0</ele><time>2026-03-28T11:01:46.026Z</time></trkpt><trkpt lat="40.2574283" lon="15.382895"><ele>929.0</ele><time>2026-03-28T11:01:47.026Z</time></trkpt><trkpt lat="40.25734" lon="15.3829183"><ele>929.0</ele><time>2026-03-28T11:01:48.026Z</time></trkpt><trkpt lat="40.257255" lon="15.3829417"><ele>929.0000000000001</ele><time>2026-03-28T11:01:49.027Z</time></trkpt><trkpt lat="40.2571733" lon="15.382965"><ele>929.0</ele><time>2026-03-28T11:01:50.027Z</time></trkpt><trkpt lat="40.2570933" lon="15.382985"><ele>926.5000000000001</ele><time>2026-03-28T11:01:51.027Z</time></trkpt><trkpt lat="40.2570183" lon="15.3830067"><ele>924.0</ele><time>2026-03-28T11:01:52.026Z</time></trkpt><trkpt lat="40.2569417" lon="15.3830117"><ele>921.5</ele><time>2026-03-28T11:01:53.027Z</time></trkpt><trkpt lat="40.2568583" lon="15.3830017"><ele>919.0</ele><time>2026-03-28T11:01:54.027Z</time></trkpt><trkpt lat="40.2567733" lon="15.3829917"><ele>916.5000000000001</ele><time>2026-03-28T11:01:55.026Z</time></trkpt><trkpt lat="40.2566867" lon="15.3829933"><ele>914.0</ele><time>2026-03-28T11:01:56.027Z</time></trkpt><trkpt lat="40.2566033" lon="15.3829867"><ele>914.0000000000001</ele><time>2026-03-28T11:01:57.026Z</time></trkpt><trkpt lat="40.2565217" lon="15.3829867"><ele>914.0</ele><time>2026-03-28T11:01:58.026Z</time></trkpt><trkpt lat="40.2564433" lon="15.3830017"><ele>914.0</ele><time>2026-03-28T11:01:59.026Z</time></trkpt><trkpt lat="40.25637" lon="15.38303"><ele>914.0</ele><time>2026-03-28T11:02:00.026Z</time></trkpt><trkpt lat="40.2563017" lon="15.38307"><ele>914.0000000000001</ele><time>2026-03-28T11:02:01.027Z</time></trkpt><trkpt lat="40.2562367" lon="15.38312"><ele>914.0</ele><time>2026-03-28T11:02:02.027Z</time></trkpt><trkpt lat="40.2561733" lon="15.3831717"><ele>916.0</ele><time>2026-03-28T11:02:03.026Z</time></trkpt><trkpt lat="40.2560667" lon="15.38322"><ele>918.0000000000001</ele><time>2026-03-28T11:02:05.026Z</time></trkpt><trkpt lat="40.2559333" lon="15.3832433"><ele>920.0000000000001</ele><time>2026-03-28T11:02:07.027Z</time></trkpt><trkpt lat="40.2558517" lon="15.3832383"><ele>922.0</ele><time>2026-03-28T11:02:08.027Z</time></trkpt><trkpt lat="40.2557767" lon="15.3832317"><ele>924.0</ele><time>2026-03-28T11:02:09.027Z</time></trkpt><trkpt lat="40.2556983" lon="15.3832183"><ele>924.0</ele><time>2026-03-28T11:02:10.027Z</time></trkpt><trkpt lat="40.2556233" lon="15.3832033"><ele>924.0</ele><time>2026-03-28T11:02:11.026Z</time></trkpt><trkpt lat="40.25555" lon="15.3832017"><ele>924.0</ele><time>2026-03-28T11:02:12.027Z</time></trkpt><trkpt lat="40.255465" lon="15.3832183"><ele>924.0</ele><time>2026-03-28T11:02:13.026Z</time></trkpt><trkpt lat="40.2553833" lon="15.3832517"><ele>924.0</ele><time>2026-03-28T11:02:14.027Z</time></trkpt><trkpt lat="40.2553033" lon="15.3832917"><ele>924.0</ele><time>2026-03-28T11:02:15.027Z</time></trkpt><trkpt lat="40.2552217" lon="15.38333"><ele>921.6666666666666</ele><time>2026-03-28T11:02:16.026Z</time></trkpt><trkpt lat="40.2551483" lon="15.3833483"><ele>919.3333333333333</ele><time>2026-03-28T11:02:17.027Z</time></trkpt><trkpt lat="40.25507" lon="15.3833617"><ele>917.0</ele><time>2026-03-28T11:02:18.026Z</time></trkpt><trkpt lat="40.2549933" lon="15.38339"><ele>914.6666666666666</ele><time>2026-03-28T11:02:19.026Z</time></trkpt><trkpt lat="40.254915" lon="15.3834183"><ele>912.3333333333333</ele><time>2026-03-28T11:02:20.026Z</time></trkpt><trkpt lat="40.254835" lon="15.3834233"><ele>910.0</ele><time>2026-03-28T11:02:21.026Z</time></trkpt><trkpt lat="40.254755" lon="15.38341"><ele>909.9999999999999</ele><time>2026-03-28T11:02:22.026Z</time></trkpt><trkpt lat="40.254685" lon="15.3833817"><ele>910.0</ele><time>2026-03-28T11:02:23.027Z</time></trkpt><trkpt lat="40.2546217" lon="15.3833467"><ele>910.0</ele><time>2026-03-28T11:02:24.026Z</time></trkpt><trkpt lat="40.25456" lon="15.3833117"><ele>910.0</ele><time>2026-03-28T11:02:25.026Z</time></trkpt><trkpt lat="40.2544883" lon="15.3832833"><ele>909.9999999999999</ele><time>2026-03-28T11:02:26.027Z</time></trkpt><trkpt lat="40.2544017" lon="15.3832583"><ele>910.0</ele><time>2026-03-28T11:02:27.026Z</time></trkpt><trkpt lat="40.2543167" lon="15.3832333"><ele>910.0</ele><time>2026-03-28T11:02:28.026Z</time></trkpt><trkpt lat="40.2542317" lon="15.3831983"><ele>910.0</ele><time>2026-03-28T11:02:29.026Z</time></trkpt><trkpt lat="40.2541483" lon="15.3831583"><ele>910.0</ele><time>2026-03-28T11:02:30.027Z</time></trkpt><trkpt lat="40.2540617" lon="15.3831117"><ele>910.0</ele><time>2026-03-28T11:02:31.027Z</time></trkpt><trkpt lat="40.253975" lon="15.383065"><ele>910.0</ele><time>2026-03-28T11:02:32.027Z</time></trkpt><trkpt lat="40.25389" lon="15.3830183"><ele>906.3333333333333</ele><time>2026-03-28T11:02:33.027Z</time></trkpt><trkpt lat="40.253805" lon="15.3829717"><ele>902.6666666666666</ele><time>2026-03-28T11:02:34.027Z</time></trkpt><trkpt lat="40.253725" lon="15.3829317"><ele>899.0</ele><time>2026-03-28T11:02:35.026Z</time></trkpt><trkpt lat="40.2536433" lon="15.3829033"><ele>895.3333333333333</ele><time>2026-03-28T11:02:36.027Z</time></trkpt><trkpt lat="40.2535617" lon="15.38289"><ele>891.6666666666666</ele><time>2026-03-28T11:02:37.027Z</time></trkpt><trkpt lat="40.2534867" lon="15.3828783"><ele>888.0</ele><time>2026-03-28T11:02:38.027Z</time></trkpt><trkpt lat="40.253425" lon="15.38286"><ele>888.0</ele><time>2026-03-28T11:02:39.027Z</time></trkpt><trkpt lat="40.2533283" lon="15.3827883"><ele>888.0</ele><time>2026-03-28T11:02:41.026Z</time></trkpt><trkpt lat="40.25325" lon="15.3826783"><ele>888.0</ele><time>2026-03-28T11:02:43.026Z</time></trkpt><trkpt lat="40.2532083" lon="15.3825933"><ele>888.0</ele><time>2026-03-28T11:02:44.027Z</time></trkpt><trkpt lat="40.2531717" lon="15.3824867"><ele>888.0</ele><time>2026-03-28T11:02:45.027Z</time></trkpt><trkpt lat="40.2531417" lon="15.38238"><ele>888.0</ele><time>2026-03-28T11:02:46.027Z</time></trkpt><trkpt lat="40.2531033" lon="15.3822567"><ele>888.0</ele><time>2026-03-28T11:02:47.026Z</time></trkpt><trkpt lat="40.2530683" lon="15.382125"><ele>888.0</ele><time>2026-03-28T11:02:48.027Z</time></trkpt><trkpt lat="40.2530317" lon="15.3820183"><ele>888.0</ele><time>2026-03-28T11:02:49.027Z</time></trkpt><trkpt lat="40.2530067" lon="15.3819267"><ele>888.0</ele><time>2026-03-28T11:02:50.027Z</time></trkpt><trkpt lat="40.25299" lon="15.3818033"><ele>888.0</ele><time>2026-03-28T11:02:51.026Z</time></trkpt><trkpt lat="40.2529767" lon="15.3816967"><ele>888.0</ele><time>2026-03-28T11:02:52.026Z</time></trkpt><trkpt lat="40.252955" lon="15.3815983"><ele>888.0</ele><time>2026-03-28T11:02:53.027Z</time></trkpt><trkpt lat="40.2529233" lon="15.3815"><ele>888.0</ele><time>2026-03-28T11:02:54.026Z</time></trkpt><trkpt lat="40.2528767" lon="15.3814017"><ele>888.0</ele><time>2026-03-28T11:02:55.027Z</time></trkpt><trkpt lat="40.25282" lon="15.38131"><ele>888.0</ele><time>2026-03-28T11:02:56.027Z</time></trkpt><trkpt lat="40.25275" lon="15.3812233"><ele>885.5</ele><time>2026-03-28T11:02:57.026Z</time></trkpt><trkpt lat="40.2526717" lon="15.381145"><ele>883.0</ele><time>2026-03-28T11:02:58.026Z</time></trkpt><trkpt lat="40.252595" lon="15.38109"><ele>880.5</ele><time>2026-03-28T11:02:59.026Z</time></trkpt><trkpt lat="40.2525133" lon="15.381045"><ele>878.0</ele><time>2026-03-28T11:03:00.026Z</time></trkpt><trkpt lat="40.2524333" lon="15.381025"><ele>875.5</ele><time>2026-03-28T11:03:01.026Z</time></trkpt><trkpt lat="40.25236" lon="15.3810233"><ele>873.0</ele><time>2026-03-28T11:03:02.026Z</time></trkpt><trkpt lat="40.2522833" lon="15.3810467"><ele>870.8</ele><time>2026-03-28T11:03:03.027Z</time></trkpt><trkpt lat="40.2521933" lon="15.3810867"><ele>868.5999999999999</ele><time>2026-03-28T11:03:04.026Z</time></trkpt><trkpt lat="40.2520933" lon="15.3811317"><ele>866.4000000000001</ele><time>2026-03-28T11:03:05.027Z</time></trkpt><trkpt lat="40.2519933" lon="15.3811717"><ele>864.2</ele><time>2026-03-28T11:03:06.026Z</time></trkpt><trkpt lat="40.2518917" lon="15.3812167"><ele>862.0</ele><time>2026-03-28T11:03:07.026Z</time></trkpt><trkpt lat="40.2517933" lon="15.3812633"><ele>862.0</ele><time>2026-03-28T11:03:08.026Z</time></trkpt><trkpt lat="40.2517017" lon="15.3813117"><ele>862.0</ele><time>2026-03-28T11:03:09.027Z</time></trkpt><trkpt lat="40.2516133" lon="15.3813617"><ele>862.0</ele><time>2026-03-28T11:03:10.026Z</time></trkpt><trkpt lat="40.2515217" lon="15.3814083"><ele>862.0</ele><time>2026-03-28T11:03:11.026Z</time></trkpt><trkpt lat="40.251415" lon="15.381445"><ele>862.0</ele><time>2026-03-28T11:03:12.027Z</time></trkpt><trkpt lat="40.2513067" lon="15.38148"><ele>861.4000000000001</ele><time>2026-03-28T11:03:13.027Z</time></trkpt><trkpt lat="40.2511967" lon="15.3815067"><ele>860.8000000000001</ele><time>2026-03-28T11:03:14.027Z</time></trkpt><trkpt lat="40.2510883" lon="15.3815367"><ele>860.2</ele><time>2026-03-28T11:03:15.027Z</time></trkpt><trkpt lat="40.2509783" lon="15.381565"><ele>859.6</ele><time>2026-03-28T11:03:16.026Z</time></trkpt><trkpt lat="40.250875" lon="15.3816"><ele>859.0</ele><time>2026-03-28T11:03:17.027Z</time></trkpt><trkpt lat="40.2507717" lon="15.3816433"><ele>859.0</ele><time>2026-03-28T11:03:18.026Z</time></trkpt><trkpt lat="40.2506733" lon="15.3816917"><ele>859.0000000000001</ele><time>2026-03-28T11:03:19.027Z</time></trkpt><trkpt lat="40.2505767" lon="15.381735"><ele>859.0000000000001</ele><time>2026-03-28T11:03:20.027Z</time></trkpt><trkpt lat="40.25048" lon="15.3817867"><ele>859.0</ele><time>2026-03-28T11:03:21.026Z</time></trkpt><trkpt lat="40.25039" lon="15.3818233"><ele>859.0</ele><time>2026-03-28T11:03:22.026Z</time></trkpt><trkpt lat="40.2503017" lon="15.3818483"><ele>857.0</ele><time>2026-03-28T11:03:23.026Z</time></trkpt><trkpt lat="40.250215" lon="15.3818717"><ele>855.0000000000001</ele><time>2026-03-28T11:03:24.026Z</time></trkpt><trkpt lat="40.2501267" lon="15.3818933"><ele>853.0</ele><time>2026-03-28T11:03:25.027Z</time></trkpt><trkpt lat="40.2500317" lon="15.381915"><ele>851.0</ele><time>2026-03-28T11:03:26.027Z</time></trkpt><trkpt lat="40.2499267" lon="15.3819383"><ele>849.0</ele><time>2026-03-28T11:03:27.026Z</time></trkpt><trkpt lat="40.2498233" lon="15.3819633"><ele>847.0</ele><time>2026-03-28T11:03:28.027Z</time></trkpt><trkpt lat="40.249715" lon="15.382"><ele>845.0</ele><time>2026-03-28T11:03:29.026Z</time></trkpt><trkpt lat="40.249595" lon="15.3820617"><ele>843.0</ele><time>2026-03-28T11:03:30.027Z</time></trkpt><trkpt lat="40.2494633" lon="15.3821333"><ele>841.0</ele><time>2026-03-28T11:03:31.027Z</time></trkpt><trkpt lat="40.2493367" lon="15.3822067"><ele>841.25</ele><time>2026-03-28T11:03:32.027Z</time></trkpt><trkpt lat="40.24922" lon="15.382275"><ele>841.5</ele><time>2026-03-28T11:03:33.027Z</time></trkpt><trkpt lat="40.24911" lon="15.3823433"><ele>841.75</ele><time>2026-03-28T11:03:34.026Z</time></trkpt><trkpt lat="40.249005" lon="15.3824067"><ele>842.0</ele><time>2026-03-28T11:03:35.027Z</time></trkpt><trkpt lat="40.24889" lon="15.3824717"><ele>842.0</ele><time>2026-03-28T11:03:36.026Z</time></trkpt><trkpt lat="40.248765" lon="15.3825367"><ele>842.0</ele><time>2026-03-28T11:03:37.026Z</time></trkpt><trkpt lat="40.248635" lon="15.382605"><ele>842.0</ele><time>2026-03-28T11:03:38.027Z</time></trkpt><trkpt lat="40.24851" lon="15.38267"><ele>842.0</ele><time>2026-03-28T11:03:39.026Z</time></trkpt><trkpt lat="40.2483967" lon="15.3827367"><ele>842.0</ele><time>2026-03-28T11:03:40.026Z</time></trkpt><trkpt lat="40.2482967" lon="15.3828"><ele>842.0</ele><time>2026-03-28T11:03:41.027Z</time></trkpt><trkpt lat="40.2481983" lon="15.3828667"><ele>842.0</ele><time>2026-03-28T11:03:42.026Z</time></trkpt><trkpt lat="40.2481133" lon="15.3829167"><ele>842.0</ele><time>2026-03-28T11:03:43.027Z</time></trkpt><trkpt lat="40.2480283" lon="15.3829533"><ele>842.0</ele><time>2026-03-28T11:03:44.027Z</time></trkpt><trkpt lat="40.247945" lon="15.3829617"><ele>843.3333333333334</ele><time>2026-03-28T11:03:45.027Z</time></trkpt><trkpt lat="40.2478567" lon="15.3829717"><ele>844.6666666666667</ele><time>2026-03-28T11:03:46.026Z</time></trkpt><trkpt lat="40.2477717" lon="15.38297"><ele>846.0</ele><time>2026-03-28T11:03:47.026Z</time></trkpt><trkpt lat="40.2476933" lon="15.3829733"><ele>847.3333333333333</ele><time>2026-03-28T11:03:48.026Z</time></trkpt><trkpt lat="40.247615" lon="15.3829867"><ele>848.6666666666666</ele><time>2026-03-28T11:03:49.026Z</time></trkpt><trkpt lat="40.24754" lon="15.38301"><ele>850.0</ele><time>2026-03-28T11:03:50.026Z</time></trkpt><trkpt lat="40.2474633" lon="15.3830567"><ele>850.0</ele><time>2026-03-28T11:03:51.026Z</time></trkpt><trkpt lat="40.2473733" lon="15.3831167"><ele>850.0</ele><time>2026-03-28T11:03:52.027Z</time></trkpt><trkpt lat="40.2472717" lon="15.3831833"><ele>850.0</ele><time>2026-03-28T11:03:53.026Z</time></trkpt><trkpt lat="40.2471767" lon="15.3832433"><ele>850.0</ele><time>2026-03-28T11:03:54.026Z</time></trkpt><trkpt lat="40.24708" lon="15.3833"><ele>850.0</ele><time>2026-03-28T11:03:55.026Z</time></trkpt><trkpt lat="40.2469833" lon="15.3833633"><ele>846.0</ele><time>2026-03-28T11:03:56.026Z</time></trkpt><trkpt lat="40.2468883" lon="15.38342"><ele>842.0</ele><time>2026-03-28T11:03:57.027Z</time></trkpt><trkpt lat="40.2467933" lon="15.3834667"><ele>838.0</ele><time>2026-03-28T11:03:58.026Z</time></trkpt><trkpt lat="40.2467083" lon="15.3835133"><ele>834.0</ele><time>2026-03-28T11:03:59.027Z</time></trkpt><trkpt lat="40.2466217" lon="15.38356"><ele>830.0</ele><time>2026-03-28T11:04:00.026Z</time></trkpt><trkpt lat="40.246535" lon="15.3836067"><ele>829.0</ele><time>2026-03-28T11:04:01.026Z</time></trkpt><trkpt lat="40.2464417" lon="15.3836567"><ele>828.0</ele><time>2026-03-28T11:04:02.027Z</time></trkpt><trkpt lat="40.2463583" lon="15.3837083"><ele>827.0</ele><time>2026-03-28T11:04:03.026Z</time></trkpt><trkpt lat="40.24627" lon="15.3837767"><ele>826.0</ele><time>2026-03-28T11:04:04.026Z</time></trkpt><trkpt lat="40.246195" lon="15.3838567"><ele>825.0</ele><time>2026-03-28T11:04:05.026Z</time></trkpt><trkpt lat="40.2461217" lon="15.38394"><ele>825.0</ele><time>2026-03-28T11:04:06.026Z</time></trkpt><trkpt lat="40.2460533" lon="15.384015"><ele>825.0</ele><time>2026-03-28T11:04:07.027Z</time></trkpt><trkpt lat="40.2459883" lon="15.3840917"><ele>825.0</ele><time>2026-03-28T11:04:08.026Z</time></trkpt><trkpt lat="40.2459433" lon="15.3841783"><ele>825.0</ele><time>2026-03-28T11:04:09.027Z</time></trkpt><trkpt lat="40.2459133" lon="15.3842717"><ele>825.0</ele><time>2026-03-28T11:04:10.027Z</time></trkpt><trkpt lat="40.2458867" lon="15.384385"><ele>825.0</ele><time>2026-03-28T11:04:11.026Z</time></trkpt><trkpt lat="40.24585" lon="15.3845033"><ele>825.0</ele><time>2026-03-28T11:04:12.027Z</time></trkpt><trkpt lat="40.2458067" lon="15.38461"><ele>825.0</ele><time>2026-03-28T11:04:13.026Z</time></trkpt><trkpt lat="40.245765" lon="15.384705"><ele>825.0</ele><time>2026-03-28T11:04:14.026Z</time></trkpt><trkpt lat="40.2457133" lon="15.3848017"><ele>825.0</ele><time>2026-03-28T11:04:15.026Z</time></trkpt><trkpt lat="40.24566" lon="15.3849"><ele>825.0</ele><time>2026-03-28T11:04:16.027Z</time></trkpt><trkpt lat="40.2456083" lon="15.3850017"><ele>820.8</ele><time>2026-03-28T11:04:17.027Z</time></trkpt><trkpt lat="40.2455467" lon="15.3850983"><ele>816.6</ele><time>2026-03-28T11:04:18.026Z</time></trkpt><trkpt lat="40.2454817" lon="15.3851933"><ele>812.4000000000001</ele><time>2026-03-28T11:04:19.026Z</time></trkpt><trkpt lat="40.24541" lon="15.3852683"><ele>808.2</ele><time>2026-03-28T11:04:20.026Z</time></trkpt><trkpt lat="40.2453233" lon="15.3853317"><ele>804.0</ele><time>2026-03-28T11:04:21.027Z</time></trkpt><trkpt lat="40.2452333" lon="15.3853967"><ele>804.0</ele><time>2026-03-28T11:04:22.027Z</time></trkpt><trkpt lat="40.245145" lon="15.3854617"><ele>804.0</ele><time>2026-03-28T11:04:23.027Z</time></trkpt><trkpt lat="40.2450617" lon="15.3855217"><ele>804.0</ele><time>2026-03-28T11:04:24.027Z</time></trkpt><trkpt lat="40.244965" lon="15.3855817"><ele>804.0</ele><time>2026-03-28T11:04:25.026Z</time></trkpt><trkpt lat="40.24487" lon="15.3856267"><ele>804.0</ele><time>2026-03-28T11:04:26.026Z</time></trkpt><trkpt lat="40.2447767" lon="15.38564"><ele>806.1666666666666</ele><time>2026-03-28T11:04:27.026Z</time></trkpt><trkpt lat="40.2446867" lon="15.3856383"><ele>808.3333333333333</ele><time>2026-03-28T11:04:28.026Z</time></trkpt><trkpt lat="40.2445933" lon="15.3856183"><ele>810.5</ele><time>2026-03-28T11:04:29.027Z</time></trkpt><trkpt lat="40.24451" lon="15.3856"><ele>812.6666666666666</ele><time>2026-03-28T11:04:30.026Z</time></trkpt><trkpt lat="40.2444267" lon="15.385585"><ele>814.8333333333333</ele><time>2026-03-28T11:04:31.026Z</time></trkpt><trkpt lat="40.2443383" lon="15.3855833"><ele>817.0</ele><time>2026-03-28T11:04:32.026Z</time></trkpt><trkpt lat="40.2442283" lon="15.3855883"><ele>817.0</ele><time>2026-03-28T11:04:33.027Z</time></trkpt><trkpt lat="40.244105" lon="15.3856067"><ele>817.0</ele><time>2026-03-28T11:04:34.026Z</time></trkpt><trkpt lat="40.2439733" lon="15.38563"><ele>817.0</ele><time>2026-03-28T11:04:35.026Z</time></trkpt><trkpt lat="40.243855" lon="15.38567"><ele>817.0</ele><time>2026-03-28T11:04:36.026Z</time></trkpt><trkpt lat="40.24374" lon="15.385705"><ele>813.4000000000001</ele><time>2026-03-28T11:04:37.026Z</time></trkpt><trkpt lat="40.2436283" lon="15.3857433"><ele>809.8000000000001</ele><time>2026-03-28T11:04:38.027Z</time></trkpt><trkpt lat="40.2435267" lon="15.3857767"><ele>806.2</ele><time>2026-03-28T11:04:39.027Z</time></trkpt><trkpt lat="40.2434367" lon="15.38581"><ele>802.6</ele><time>2026-03-28T11:04:40.027Z</time></trkpt><trkpt lat="40.24336" lon="15.38584"><ele>799.0</ele><time>2026-03-28T11:04:41.026Z</time></trkpt><trkpt lat="40.2432967" lon="15.3858717"><ele>799.0</ele><time>2026-03-28T11:04:42.026Z</time></trkpt><trkpt lat="40.24322" lon="15.38593"><ele>799.0</ele><time>2026-03-28T11:04:44.026Z</time></trkpt><trkpt lat="40.2431817" lon="15.3860183"><ele>799.0</ele><time>2026-03-28T11:04:46.026Z</time></trkpt><trkpt lat="40.243195" lon="15.3861383"><ele>799.0</ele><time>2026-03-28T11:04:48.027Z</time></trkpt><trkpt lat="40.2432917" lon="15.3862517"><ele>799.0</ele><time>2026-03-28T11:04:50.027Z</time></trkpt><trkpt lat="40.243375" lon="15.3863117"><ele>796.8000000000001</ele><time>2026-03-28T11:04:51.026Z</time></trkpt><trkpt lat="40.24348" lon="15.3863667"><ele>794.6</ele><time>2026-03-28T11:04:52.027Z</time></trkpt><trkpt lat="40.2435883" lon="15.38641"><ele>792.4</ele><time>2026-03-28T11:04:53.026Z</time></trkpt><trkpt lat="40.2436883" lon="15.38645"><ele>790.2</ele><time>2026-03-28T11:04:54.026Z</time></trkpt><trkpt lat="40.243785" lon="15.386505"><ele>788.0</ele><time>2026-03-28T11:04:55.027Z</time></trkpt><trkpt lat="40.2438733" lon="15.3865633"><ele>788.0</ele><time>2026-03-28T11:04:56.027Z</time></trkpt><trkpt lat="40.2439633" lon="15.3866233"><ele>788.0</ele><time>2026-03-28T11:04:57.027Z</time></trkpt><trkpt lat="40.244055" lon="15.3866883"><ele>788.0</ele><time>2026-03-28T11:04:58.027Z</time></trkpt><trkpt lat="40.2441483" lon="15.3867633"><ele>788.0</ele><time>2026-03-28T11:04:59.026Z</time></trkpt><trkpt lat="40.24424" lon="15.3868467"><ele>788.0</ele><time>2026-03-28T11:05:00.027Z</time></trkpt><trkpt lat="40.244325" lon="15.38694"><ele>784.5</ele><time>2026-03-28T11:05:01.026Z</time></trkpt><trkpt lat="40.244405" lon="15.3870383"><ele>781.0</ele><time>2026-03-28T11:05:02.027Z</time></trkpt><trkpt lat="40.2444833" lon="15.3871583"><ele>777.5</ele><time>2026-03-28T11:05:03.026Z</time></trkpt><trkpt lat="40.244565" lon="15.3872817"><ele>774.0</ele><time>2026-03-28T11:05:04.026Z</time></trkpt><trkpt lat="40.244635" lon="15.3874"><ele>774.0</ele><time>2026-03-28T11:05:05.026Z</time></trkpt><trkpt lat="40.2447083" lon="15.387545"><ele>774.0</ele><time>2026-03-28T11:05:06.026Z</time></trkpt><trkpt lat="40.2447867" lon="15.387715"><ele>774.0</ele><time>2026-03-28T11:05:07.026Z</time></trkpt><trkpt lat="40.2448583" lon="15.3878783"><ele>774.0</ele><time>2026-03-28T11:05:08.026Z</time></trkpt><trkpt lat="40.244925" lon="15.3880233"><ele>774.2</ele><time>2026-03-28T11:05:09.027Z</time></trkpt><trkpt lat="40.2449817" lon="15.38816"><ele>774.4000000000001</ele><time>2026-03-28T11:05:10.027Z</time></trkpt><trkpt lat="40.24503" lon="15.3882767"><ele>774.6</ele><time>2026-03-28T11:05:11.027Z</time></trkpt><trkpt lat="40.2450717" lon="15.3883717"><ele>774.8</ele><time>2026-03-28T11:05:12.027Z</time></trkpt><trkpt lat="40.245105" lon="15.3884483"><ele>775.0</ele><time>2026-03-28T11:05:13.026Z</time></trkpt><trkpt lat="40.2451533" lon="15.38858"><ele>775.0</ele><time>2026-03-28T11:05:15.027Z</time></trkpt><trkpt lat="40.2452067" lon="15.38872"><ele>775.0</ele><time>2026-03-28T11:05:17.027Z</time></trkpt><trkpt lat="40.2452333" lon="15.3887967"><ele>775.0</ele><time>2026-03-28T11:05:18.027Z</time></trkpt><trkpt lat="40.245265" lon="15.388895"><ele>775.0</ele><time>2026-03-28T11:05:19.026Z</time></trkpt><trkpt lat="40.245285" lon="15.3890117"><ele>775.0</ele><time>2026-03-28T11:05:20.027Z</time></trkpt><trkpt lat="40.245305" lon="15.38914"><ele>774.2</ele><time>2026-03-28T11:05:21.027Z</time></trkpt><trkpt lat="40.2453233" lon="15.38926"><ele>773.4</ele><time>2026-03-28T11:05:22.026Z</time></trkpt><trkpt lat="40.2453367" lon="15.38938"><ele>772.5999999999999</ele><time>2026-03-28T11:05:23.027Z</time></trkpt><trkpt lat="40.245355" lon="15.38951"><ele>771.8</ele><time>2026-03-28T11:05:24.027Z</time></trkpt><trkpt lat="40.245365" lon="15.3896267"><ele>771.0</ele><time>2026-03-28T11:05:25.026Z</time></trkpt><trkpt lat="40.24538" lon="15.3897417"><ele>769.4</ele><time>2026-03-28T11:05:26.027Z</time></trkpt><trkpt lat="40.245395" lon="15.3898567"><ele>767.8</ele><time>2026-03-28T11:05:27.026Z</time></trkpt><trkpt lat="40.2454117" lon="15.38995"><ele>766.1999999999999</ele><time>2026-03-28T11:05:28.026Z</time></trkpt><trkpt lat="40.2454317" lon="15.39003"><ele>764.5999999999999</ele><time>2026-03-28T11:05:29.027Z</time></trkpt><trkpt lat="40.2454517" lon="15.390155"><ele>763.0</ele><time>2026-03-28T11:05:31.026Z</time></trkpt><trkpt lat="40.2453683" lon="15.3903033"><ele>763.0</ele><time>2026-03-28T11:05:38.027Z</time></trkpt><trkpt lat="40.2452917" lon="15.390355"><ele>763.0</ele><time>2026-03-28T11:05:39.027Z</time></trkpt><trkpt lat="40.245205" lon="15.3903917"><ele>763.0</ele><time>2026-03-28T11:05:40.026Z</time></trkpt><trkpt lat="40.2451217" lon="15.3904167"><ele>763.0</ele><time>2026-03-28T11:05:41.027Z</time></trkpt><trkpt lat="40.24504" lon="15.390435"><ele>763.0</ele><time>2026-03-28T11:05:42.026Z</time></trkpt><trkpt lat="40.2449717" lon="15.39044"><ele>763.0</ele><time>2026-03-28T11:05:43.027Z</time></trkpt><trkpt lat="40.2448917" lon="15.390425"><ele>763.0</ele><time>2026-03-28T11:05:45.027Z</time></trkpt><trkpt lat="40.244845" lon="15.3903583"><ele>763.0</ele><time>2026-03-28T11:05:47.026Z</time></trkpt><trkpt lat="40.244775" lon="15.3902467"><ele>763.0</ele><time>2026-03-28T11:05:49.026Z</time></trkpt><trkpt lat="40.2447383" lon="15.3901683"><ele>763.0</ele><time>2026-03-28T11:05:50.026Z</time></trkpt><trkpt lat="40.24469" lon="15.3900883"><ele>763.0</ele><time>2026-03-28T11:05:51.026Z</time></trkpt><trkpt lat="40.2446433" lon="15.3900117"><ele>763.0</ele><time>2026-03-28T11:05:52.027Z</time></trkpt><trkpt lat="40.2445683" lon="15.3898917"><ele>758.6666666666667</ele><time>2026-03-28T11:05:54.027Z</time></trkpt><trkpt lat="40.2445" lon="15.3898267"><ele>754.3333333333334</ele><time>2026-03-28T11:05:56.026Z</time></trkpt><trkpt lat="40.2444267" lon="15.3898533"><ele>750.0</ele><time>2026-03-28T11:05:58.027Z</time></trkpt><trkpt lat="40.2444233" lon="15.3899667"><ele>745.6666666666666</ele><time>2026-03-28T11:06:00.027Z</time></trkpt><trkpt lat="40.24445" lon="15.3900567"><ele>741.3333333333333</ele><time>2026-03-28T11:06:01.027Z</time></trkpt><trkpt lat="40.2444783" lon="15.390165"><ele>737.0</ele><time>2026-03-28T11:06:02.027Z</time></trkpt><trkpt lat="40.2444967" lon="15.3902783"><ele>737.0</ele><time>2026-03-28T11:06:03.026Z</time></trkpt><trkpt lat="40.244505" lon="15.390395"><ele>737.0</ele><time>2026-03-28T11:06:04.027Z</time></trkpt><trkpt lat="40.2445017" lon="15.390515"><ele>737.0</ele><time>2026-03-28T11:06:05.026Z</time></trkpt><trkpt lat="40.2444917" lon="15.3906267"><ele>737.0</ele><time>2026-03-28T11:06:06.026Z</time></trkpt><trkpt lat="40.2444767" lon="15.3907333"><ele>737.0</ele><time>2026-03-28T11:06:07.027Z</time></trkpt><trkpt lat="40.24447" lon="15.3908267"><ele>737.0</ele><time>2026-03-28T11:06:08.026Z</time></trkpt><trkpt lat="40.2444417" lon="15.390985"><ele>735.5</ele><time>2026-03-28T11:06:10.026Z</time></trkpt><trkpt lat="40.2444267" lon="15.3911467"><ele>734.0</ele><time>2026-03-28T11:06:12.027Z</time></trkpt><trkpt lat="40.2443767" lon="15.3912733"><ele>732.5</ele><time>2026-03-28T11:06:14.027Z</time></trkpt><trkpt lat="40.2442767" lon="15.3913433"><ele>731.0</ele><time>2026-03-28T11:06:16.026Z</time></trkpt><trkpt lat="40.2441467" lon="15.3913917"><ele>730.0</ele><time>2026-03-28T11:06:18.027Z</time></trkpt><trkpt lat="40.2440733" lon="15.3914167"><ele>729.0</ele><time>2026-03-28T11:06:19.027Z</time></trkpt><trkpt lat="40.244" lon="15.39144"><ele>728.0</ele><time>2026-03-28T11:06:20.027Z</time></trkpt><trkpt lat="40.24393" lon="15.3914583"><ele>727.0</ele><time>2026-03-28T11:06:21.027Z</time></trkpt><trkpt lat="40.243855" lon="15.39148"><ele>726.0</ele><time>2026-03-28T11:06:22.027Z</time></trkpt><trkpt lat="40.2437833" lon="15.3915217"><ele>725.0</ele><time>2026-03-28T11:06:23.026Z</time></trkpt><trkpt lat="40.24371" lon="15.391575"><ele>722.3333333333333</ele><time>2026-03-28T11:06:24.026Z</time></trkpt><trkpt lat="40.2436417" lon="15.391645"><ele>719.6666666666666</ele><time>2026-03-28T11:06:25.027Z</time></trkpt><trkpt lat="40.2435783" lon="15.3917167"><ele>717.0</ele><time>2026-03-28T11:06:26.027Z</time></trkpt><trkpt lat="40.2435217" lon="15.391785"><ele>714.3333333333334</ele><time>2026-03-28T11:06:27.027Z</time></trkpt><trkpt lat="40.2434717" lon="15.391855"><ele>711.6666666666667</ele><time>2026-03-28T11:06:28.027Z</time></trkpt><trkpt lat="40.243425" lon="15.391915"><ele>709.0</ele><time>2026-03-28T11:06:29.027Z</time></trkpt><trkpt lat="40.2433833" lon="15.3920367"><ele>709.0</ele><time>2026-03-28T11:06:31.026Z</time></trkpt><trkpt lat="40.2434267" lon="15.3921483"><ele>709.0</ele><time>2026-03-28T11:06:33.027Z</time></trkpt><trkpt lat="40.2434817" lon="15.3921917"><ele>709.0</ele><time>2026-03-28T11:06:34.027Z</time></trkpt><trkpt lat="40.24355" lon="15.392225"><ele>709.0</ele><time>2026-03-28T11:06:35.026Z</time></trkpt><trkpt lat="40.243635" lon="15.3922483"><ele>709.0</ele><time>2026-03-28T11:06:36.026Z</time></trkpt><trkpt lat="40.2437183" lon="15.3922733"><ele>709.0</ele><time>2026-03-28T11:06:37.027Z</time></trkpt><trkpt lat="40.2437933" lon="15.392295"><ele>708.3333333333334</ele><time>2026-03-28T11:06:38.026Z</time></trkpt><trkpt lat="40.243865" lon="15.3923067"><ele>707.6666666666667</ele><time>2026-03-28T11:06:39.026Z</time></trkpt><trkpt lat="40.243935" lon="15.3923117"><ele>707.0</ele><time>2026-03-28T11:06:40.026Z</time></trkpt><trkpt lat="40.2439983" lon="15.3923183"><ele>706.3333333333334</ele><time>2026-03-28T11:06:41.027Z</time></trkpt><trkpt lat="40.2440883" lon="15.3923517"><ele>705.6666666666666</ele><time>2026-03-28T11:06:43.026Z</time></trkpt><trkpt lat="40.24405" lon="15.3924583"><ele>705.0</ele><time>2026-03-28T11:06:46.027Z</time></trkpt><trkpt lat="40.2439917" lon="15.3924933"><ele>704.2</ele><time>2026-03-28T11:06:47.027Z</time></trkpt><trkpt lat="40.24391" lon="15.392525"><ele>703.4</ele><time>2026-03-28T11:06:48.026Z</time></trkpt><trkpt lat="40.24382" lon="15.39257"><ele>702.5999999999999</ele><time>2026-03-28T11:06:49.026Z</time></trkpt><trkpt lat="40.243725" lon="15.3926317"><ele>701.8</ele><time>2026-03-28T11:06:50.027Z</time></trkpt><trkpt lat="40.2436367" lon="15.392705"><ele>701.0</ele><time>2026-03-28T11:06:51.027Z</time></trkpt><trkpt lat="40.2435583" lon="15.3927567"><ele>701.0</ele><time>2026-03-28T11:06:52.027Z</time></trkpt><trkpt lat="40.2434767" lon="15.392795"><ele>701.0</ele><time>2026-03-28T11:06:53.027Z</time></trkpt><trkpt lat="40.2434067" lon="15.3928233"><ele>701.0</ele><time>2026-03-28T11:06:54.026Z</time></trkpt><trkpt lat="40.243295" lon="15.3928417"><ele>701.0</ele><time>2026-03-28T11:06:56.027Z</time></trkpt><trkpt lat="40.2432067" lon="15.3927733"><ele>701.0</ele><time>2026-03-28T11:06:58.026Z</time></trkpt><trkpt lat="40.2431617" lon="15.3927117"><ele>701.0</ele><time>2026-03-28T11:06:59.027Z</time></trkpt><trkpt lat="40.2431167" lon="15.3926467"><ele>695.4</ele><time>2026-03-28T11:07:00.026Z</time></trkpt><trkpt lat="40.2430583" lon="15.3925717"><ele>689.8</ele><time>2026-03-28T11:07:01.026Z</time></trkpt><trkpt lat="40.24299" lon="15.3924933"><ele>684.1999999999999</ele><time>2026-03-28T11:07:02.027Z</time></trkpt><trkpt lat="40.2429133" lon="15.3924183"><ele>678.5999999999999</ele><time>2026-03-28T11:07:03.026Z</time></trkpt><trkpt lat="40.2428333" lon="15.3923617"><ele>673.0</ele><time>2026-03-28T11:07:04.027Z</time></trkpt><trkpt lat="40.24275" lon="15.3923133"><ele>673.0</ele><time>2026-03-28T11:07:05.026Z</time></trkpt><trkpt lat="40.242665" lon="15.39227"><ele>673.0</ele><time>2026-03-28T11:07:06.026Z</time></trkpt><trkpt lat="40.2425717" lon="15.3922267"><ele>673.0</ele><time>2026-03-28T11:07:07.026Z</time></trkpt><trkpt lat="40.2424883" lon="15.392175"><ele>673.0</ele><time>2026-03-28T11:07:08.026Z</time></trkpt><trkpt lat="40.24241" lon="15.3921217"><ele>673.0</ele><time>2026-03-28T11:07:09.026Z</time></trkpt><trkpt lat="40.24233" lon="15.3920733"><ele>668.8</ele><time>2026-03-28T11:07:10.026Z</time></trkpt><trkpt lat="40.2422467" lon="15.392035"><ele>664.5999999999999</ele><time>2026-03-28T11:07:11.027Z</time></trkpt><trkpt lat="40.2421767" lon="15.392005"><ele>660.4000000000001</ele><time>2026-03-28T11:07:12.027Z</time></trkpt><trkpt lat="40.2420983" lon="15.3918967"><ele>656.2</ele><time>2026-03-28T11:07:14.027Z</time></trkpt><trkpt lat="40.2420933" lon="15.39174"><ele>652.0</ele><time>2026-03-28T11:07:16.027Z</time></trkpt><trkpt lat="40.2421133" lon="15.3916467"><ele>652.0</ele><time>2026-03-28T11:07:17.026Z</time></trkpt><trkpt lat="40.2421383" lon="15.3915517"><ele>652.0</ele><time>2026-03-28T11:07:18.027Z</time></trkpt><trkpt lat="40.2421583" lon="15.3914617"><ele>652.0</ele><time>2026-03-28T11:07:19.026Z</time></trkpt><trkpt lat="40.242185" lon="15.3913267"><ele>652.0</ele><time>2026-03-28T11:07:21.026Z</time></trkpt><trkpt lat="40.242165" lon="15.3912283"><ele>652.0</ele><time>2026-03-28T11:07:24.026Z</time></trkpt><trkpt lat="40.2420917" lon="15.391245"><ele>652.0</ele><time>2026-03-28T11:07:31.026Z</time></trkpt><trkpt lat="40.2420417" lon="15.39131"><ele>652.0</ele><time>2026-03-28T11:07:33.027Z</time></trkpt><trkpt lat="40.24198" lon="15.3914217"><ele>652.0</ele><time>2026-03-28T11:07:35.026Z</time></trkpt><trkpt lat="40.2419083" lon="15.3915333"><ele>652.0</ele><time>2026-03-28T11:07:37.027Z</time></trkpt><trkpt lat="40.241835" lon="15.3916383"><ele>652.0</ele><time>2026-03-28T11:07:39.026Z</time></trkpt><trkpt lat="40.24178" lon="15.39175"><ele>652.0</ele><time>2026-03-28T11:07:41.026Z</time></trkpt><trkpt lat="40.2417967" lon="15.39188"><ele>652.0</ele><time>2026-03-28T11:07:43.026Z</time></trkpt><trkpt lat="40.24184" lon="15.39202"><ele>652.0</ele><time>2026-03-28T11:07:45.026Z</time></trkpt><trkpt lat="40.241895" lon="15.392145"><ele>652.0</ele><time>2026-03-28T11:07:47.026Z</time></trkpt><trkpt lat="40.2419683" lon="15.3922617"><ele>652.0</ele><time>2026-03-28T11:07:49.027Z</time></trkpt><trkpt lat="40.2420067" lon="15.392335"><ele>652.0</ele><time>2026-03-28T11:07:50.027Z</time></trkpt><trkpt lat="40.2420667" lon="15.39246"><ele>650.4000000000001</ele><time>2026-03-28T11:07:52.028Z</time></trkpt><trkpt lat="40.24211" lon="15.3925667"><ele>648.8000000000001</ele><time>2026-03-28T11:07:54.027Z</time></trkpt><trkpt lat="40.2421167" lon="15.39268"><ele>647.2</ele><time>2026-03-28T11:07:57.027Z</time></trkpt><trkpt lat="40.2421133" lon="15.3927867"><ele>645.6</ele><time>2026-03-28T11:07:59.028Z</time></trkpt><trkpt lat="40.2421283" lon="15.3929367"><ele>644.0</ele><time>2026-03-28T11:08:01.027Z</time></trkpt><trkpt lat="40.24214" lon="15.39306"><ele>641.8333333333333</ele><time>2026-03-28T11:08:03.027Z</time></trkpt><trkpt lat="40.2421267" lon="15.3931617"><ele>639.6666666666666</ele><time>2026-03-28T11:08:05.028Z</time></trkpt><trkpt lat="40.2420667" lon="15.3932783"><ele>637.5</ele><time>2026-03-28T11:08:07.028Z</time></trkpt><trkpt lat="40.2420267" lon="15.3934317"><ele>635.3333333333334</ele><time>2026-03-28T11:08:09.027Z</time></trkpt><trkpt lat="40.2420267" lon="15.393515"><ele>633.1666666666667</ele><time>2026-03-28T11:08:10.028Z</time></trkpt><trkpt lat="40.242035" lon="15.3936017"><ele>631.0</ele><time>2026-03-28T11:08:11.028Z</time></trkpt><trkpt lat="40.242045" lon="15.3936917"><ele>631.0</ele><time>2026-03-28T11:08:12.028Z</time></trkpt><trkpt lat="40.2420483" lon="15.3937817"><ele>631.0</ele><time>2026-03-28T11:08:13.028Z</time></trkpt><trkpt lat="40.24205" lon="15.393865"><ele>631.0</ele><time>2026-03-28T11:08:14.027Z</time></trkpt><trkpt lat="40.2420483" lon="15.3940233"><ele>631.0</ele><time>2026-03-28T11:08:16.027Z</time></trkpt><trkpt lat="40.2420067" lon="15.3941517"><ele>631.0</ele><time>2026-03-28T11:08:18.028Z</time></trkpt><trkpt lat="40.241955" lon="15.394205"><ele>631.0</ele><time>2026-03-28T11:08:20.027Z</time></trkpt><trkpt lat="40.2418767" lon="15.3942233"><ele>630.6</ele><time>2026-03-28T11:08:23.028Z</time></trkpt><trkpt lat="40.24179" lon="15.3942983"><ele>630.2</ele><time>2026-03-28T11:08:25.027Z</time></trkpt><trkpt lat="40.2417167" lon="15.3944117"><ele>629.8</ele><time>2026-03-28T11:08:27.027Z</time></trkpt><trkpt lat="40.241655" lon="15.3945317"><ele>629.4</ele><time>2026-03-28T11:08:29.027Z</time></trkpt><trkpt lat="40.2416067" lon="15.394665"><ele>629.0</ele><time>2026-03-28T11:08:31.027Z</time></trkpt><trkpt lat="40.241585" lon="15.3947767"><ele>630.1666666666666</ele><time>2026-03-28T11:08:33.027Z</time></trkpt><trkpt lat="40.241575" lon="15.3948617"><ele>631.3333333333333</ele><time>2026-03-28T11:08:35.028Z</time></trkpt><trkpt lat="40.2415417" lon="15.3949533"><ele>632.5</ele><time>2026-03-28T11:08:37.028Z</time></trkpt><trkpt lat="40.2414833" lon="15.3950017"><ele>633.6666666666666</ele><time>2026-03-28T11:08:40.027Z</time></trkpt><trkpt lat="40.24141" lon="15.3950783"><ele>634.8333333333334</ele><time>2026-03-28T11:08:43.027Z</time></trkpt><trkpt lat="40.241365" lon="15.3951517"><ele>636.0</ele><time>2026-03-28T11:08:45.027Z</time></trkpt><trkpt lat="40.24132" lon="15.39525"><ele>634.8333333333334</ele><time>2026-03-28T11:08:48.027Z</time></trkpt><trkpt lat="40.2412933" lon="15.3953467"><ele>633.6666666666666</ele><time>2026-03-28T11:08:51.028Z</time></trkpt><trkpt lat="40.24126" lon="15.3954517"><ele>632.5</ele><time>2026-03-28T11:08:54.027Z</time></trkpt><trkpt lat="40.2412067" lon="15.39553"><ele>631.3333333333333</ele><time>2026-03-28T11:08:59.027Z</time></trkpt><trkpt lat="40.2411217" lon="15.3955817"><ele>630.1666666666666</ele><time>2026-03-28T11:09:08.028Z</time></trkpt><trkpt lat="40.24104" lon="15.3956217"><ele>629.0</ele><time>2026-03-28T11:09:25.028Z</time></trkpt><trkpt lat="40.2409633" lon="15.3956383"><ele>629.0</ele><time>2026-03-28T11:09:28.028Z</time></trkpt><trkpt lat="40.2408517" lon="15.3956567"><ele>629.0</ele><time>2026-03-28T11:10:02.027Z</time></trkpt><trkpt lat="40.24079" lon="15.3956817"><ele>629.0</ele><time>2026-03-28T11:10:06.027Z</time></trkpt><trkpt lat="40.2407017" lon="15.39573"><ele>629.0</ele><time>2026-03-28T11:10:10.027Z</time></trkpt><trkpt lat="40.24064" lon="15.39575"><ele>629.0</ele><time>2026-03-28T11:10:12.027Z</time></trkpt><trkpt lat="40.240575" lon="15.395785"><ele>629.0</ele><time>2026-03-28T11:10:14.028Z</time></trkpt><trkpt lat="40.24052" lon="15.3958317"><ele>625.2</ele><time>2026-03-28T11:10:16.027Z</time></trkpt><trkpt lat="40.2404417" lon="15.3958917"><ele>621.4</ele><time>2026-03-28T11:10:19.027Z</time></trkpt><trkpt lat="40.2403667" lon="15.3959417"><ele>617.6</ele><time>2026-03-28T11:10:21.028Z</time></trkpt><trkpt lat="40.2402583" lon="15.3959917"><ele>613.8</ele><time>2026-03-28T11:10:23.027Z</time></trkpt><trkpt lat="40.2401533" lon="15.3960233"><ele>610.0</ele><time>2026-03-28T11:10:25.028Z</time></trkpt><trkpt lat="40.2400783" lon="15.39603"><ele>610.0</ele><time>2026-03-28T11:10:27.027Z</time></trkpt><trkpt lat="40.2400067" lon="15.396035"><ele>610.0</ele><time>2026-03-28T11:10:30.027Z</time></trkpt><trkpt lat="40.2399117" lon="15.396065"><ele>610.0</ele><time>2026-03-28T11:10:33.027Z</time></trkpt><trkpt lat="40.2398533" lon="15.396105"><ele>610.0</ele><time>2026-03-28T11:10:35.028Z</time></trkpt><trkpt lat="40.2397867" lon="15.39617"><ele>610.0</ele><time>2026-03-28T11:10:38.028Z</time></trkpt><trkpt lat="40.23974" lon="15.3962333"><ele>610.0</ele><time>2026-03-28T11:10:40.027Z</time></trkpt><trkpt lat="40.2396967" lon="15.396295"><ele>607.6666666666667</ele><time>2026-03-28T11:10:42.028Z</time></trkpt><trkpt lat="40.239645" lon="15.396355"><ele>605.3333333333334</ele><time>2026-03-28T11:10:44.027Z</time></trkpt><trkpt lat="40.2395917" lon="15.3964283"><ele>603.0</ele><time>2026-03-28T11:10:46.028Z</time></trkpt><trkpt lat="40.2395383" lon="15.3964917"><ele>600.6666666666666</ele><time>2026-03-28T11:10:48.028Z</time></trkpt><trkpt lat="40.239495" lon="15.3965567"><ele>598.3333333333333</ele><time>2026-03-28T11:10:50.027Z</time></trkpt><trkpt lat="40.239455" lon="15.3966367"><ele>596.0</ele><time>2026-03-28T11:10:52.027Z</time></trkpt><trkpt lat="40.2393917" lon="15.396745"><ele>596.0</ele><time>2026-03-28T11:11:00.028Z</time></trkpt><trkpt lat="40.2393817" lon="15.3968317"><ele>596.0</ele><time>2026-03-28T11:11:03.027Z</time></trkpt><trkpt lat="40.2393817" lon="15.3969467"><ele>596.0</ele><time>2026-03-28T11:11:06.027Z</time></trkpt><trkpt lat="40.23938" lon="15.3970517"><ele>596.0</ele><time>2026-03-28T11:11:09.028Z</time></trkpt><trkpt lat="40.2393567" lon="15.3971483"><ele>596.0</ele><time>2026-03-28T11:11:11.028Z</time></trkpt><trkpt lat="40.2393183" lon="15.3972283"><ele>596.0</ele><time>2026-03-28T11:11:16.028Z</time></trkpt><trkpt lat="40.239275" lon="15.3973233"><ele>597.4</ele><time>2026-03-28T11:11:18.027Z</time></trkpt><trkpt lat="40.2392117" lon="15.3974383"><ele>598.8</ele><time>2026-03-28T11:11:20.027Z</time></trkpt><trkpt lat="40.2391383" lon="15.3975367"><ele>600.1999999999999</ele><time>2026-03-28T11:11:22.028Z</time></trkpt><trkpt lat="40.2390683" lon="15.397625"><ele>601.6</ele><time>2026-03-28T11:11:24.027Z</time></trkpt><trkpt lat="40.2390167" lon="15.3977017"><ele>603.0</ele><time>2026-03-28T11:11:26.027Z</time></trkpt><trkpt lat="40.2389717" lon="15.3977717"><ele>603.0</ele><time>2026-03-28T11:11:28.027Z</time></trkpt><trkpt lat="40.23896" lon="15.3978567"><ele>603.0</ele><time>2026-03-28T11:11:30.028Z</time></trkpt><trkpt lat="40.238975" lon="15.39795"><ele>603.0</ele><time>2026-03-28T11:11:43.028Z</time></trkpt><trkpt lat="40.239" lon="15.3980367"><ele>603.0</ele><time>2026-03-28T11:11:45.027Z</time></trkpt><trkpt lat="40.2390517" lon="15.3981183"><ele>603.0</ele><time>2026-03-28T11:11:48.028Z</time></trkpt><trkpt lat="40.239095" lon="15.3982067"><ele>603.0</ele><time>2026-03-28T11:11:50.027Z</time></trkpt><trkpt lat="40.2391267" lon="15.39829"><ele>603.0</ele><time>2026-03-28T11:11:52.028Z</time></trkpt><trkpt lat="40.23917" lon="15.3984017"><ele>602.6666666666666</ele><time>2026-03-28T11:11:55.027Z</time></trkpt><trkpt lat="40.2392183" lon="15.3985067"><ele>602.3333333333334</ele><time>2026-03-28T11:11:58.028Z</time></trkpt><trkpt lat="40.2392567" lon="15.3985817"><ele>602.0</ele><time>2026-03-28T11:12:00.028Z</time></trkpt><trkpt lat="40.2392983" lon="15.3986633"><ele>601.6666666666667</ele><time>2026-03-28T11:12:02.028Z</time></trkpt><trkpt lat="40.2393317" lon="15.3987383"><ele>601.3333333333334</ele><time>2026-03-28T11:12:04.027Z</time></trkpt><trkpt lat="40.23938" lon="15.3988333"><ele>601.0</ele><time>2026-03-28T11:12:12.027Z</time></trkpt><trkpt lat="40.2394133" lon="15.3989067"><ele>598.1666666666667</ele><time>2026-03-28T11:12:15.027Z</time></trkpt><trkpt lat="40.23944" lon="15.3989817"><ele>595.3333333333334</ele><time>2026-03-28T11:12:17.027Z</time></trkpt><trkpt lat="40.2394717" lon="15.3990717"><ele>592.5</ele><time>2026-03-28T11:12:19.027Z</time></trkpt><trkpt lat="40.2394883" lon="15.3991533"><ele>589.6666666666666</ele><time>2026-03-28T11:12:21.027Z</time></trkpt><trkpt lat="40.23952" lon="15.3992467"><ele>586.8333333333333</ele><time>2026-03-28T11:12:25.027Z</time></trkpt><trkpt lat="40.2395433" lon="15.3993317"><ele>584.0</ele><time>2026-03-28T11:12:29.027Z</time></trkpt><trkpt lat="40.2395817" lon="15.39949"><ele>584.0</ele><time>2026-03-28T11:12:47.027Z</time></trkpt><trkpt lat="40.2396017" lon="15.3996033"><ele>584.0</ele><time>2026-03-28T11:12:51.028Z</time></trkpt><trkpt lat="40.2395967" lon="15.399715"><ele>584.0</ele><time>2026-03-28T11:12:54.028Z</time></trkpt><trkpt lat="40.239585" lon="15.399825"><ele>584.0</ele><time>2026-03-28T11:12:57.027Z</time></trkpt><trkpt lat="40.2395567" lon="15.3999067"><ele>584.0</ele><time>2026-03-28T11:12:59.028Z</time></trkpt><trkpt lat="40.2395433" lon="15.400015"><ele>584.0</ele><time>2026-03-28T11:13:01.027Z</time></trkpt><trkpt lat="40.2395317" lon="15.4001383"><ele>581.0</ele><time>2026-03-28T11:13:03.027Z</time></trkpt><trkpt lat="40.2395117" lon="15.4002483"><ele>578.0</ele><time>2026-03-28T11:13:05.028Z</time></trkpt><trkpt lat="40.2394717" lon="15.400315"><ele>575.0</ele><time>2026-03-28T11:13:07.027Z</time></trkpt><trkpt lat="40.2394217" lon="15.4003933"><ele>572.0</ele><time>2026-03-28T11:13:09.028Z</time></trkpt><trkpt lat="40.2393767" lon="15.4004817"><ele>569.0</ele><time>2026-03-28T11:13:11.027Z</time></trkpt><trkpt lat="40.2393217" lon="15.4005667"><ele>566.0</ele><time>2026-03-28T11:13:14.028Z</time></trkpt><trkpt lat="40.2392733" lon="15.40064"><ele>565.5</ele><time>2026-03-28T11:13:17.028Z</time></trkpt><trkpt lat="40.2392317" lon="15.4007333"><ele>565.0</ele><time>2026-03-28T11:13:20.027Z</time></trkpt><trkpt lat="40.239195" lon="15.4008117"><ele>564.5</ele><time>2026-03-28T11:13:22.028Z</time></trkpt><trkpt lat="40.2391783" lon="15.400895"><ele>564.0</ele><time>2026-03-28T11:13:25.027Z</time></trkpt><trkpt lat="40.2391533" lon="15.4010083"><ele>563.5</ele><time>2026-03-28T11:13:28.028Z</time></trkpt><trkpt lat="40.239135" lon="15.4010917"><ele>563.0</ele><time>2026-03-28T11:13:30.027Z</time></trkpt><trkpt lat="40.2391167" lon="15.4012017"><ele>563.0</ele><time>2026-03-28T11:13:33.028Z</time></trkpt><trkpt lat="40.2391017" lon="15.4013"><ele>563.0</ele><time>2026-03-28T11:13:38.027Z</time></trkpt><trkpt lat="40.239075" lon="15.4013917"><ele>563.0</ele><time>2026-03-28T11:13:41.027Z</time></trkpt><trkpt lat="40.239025" lon="15.4014833"><ele>563.0</ele><time>2026-03-28T11:13:43.027Z</time></trkpt><trkpt lat="40.2389633" lon="15.4015233"><ele>563.0</ele><time>2026-03-28T11:13:45.028Z</time></trkpt><trkpt lat="40.23889" lon="15.401495"><ele>563.0</ele><time>2026-03-28T11:13:47.027Z</time></trkpt><trkpt lat="40.2387967" lon="15.4014483"><ele>560.5</ele><time>2026-03-28T11:13:49.028Z</time></trkpt><trkpt lat="40.2387233" lon="15.401395"><ele>558.0</ele><time>2026-03-28T11:13:51.028Z</time></trkpt><trkpt lat="40.23866" lon="15.4013233"><ele>555.5</ele><time>2026-03-28T11:13:53.028Z</time></trkpt><trkpt lat="40.2386017" lon="15.401245"><ele>553.0</ele><time>2026-03-28T11:13:55.027Z</time></trkpt><trkpt lat="40.23854" lon="15.40116"><ele>550.5</ele><time>2026-03-28T11:13:57.027Z</time></trkpt><trkpt lat="40.2384783" lon="15.4010717"><ele>548.0</ele><time>2026-03-28T11:13:59.028Z</time></trkpt><trkpt lat="40.2384217" lon="15.401"><ele>548.0</ele><time>2026-03-28T11:14:01.028Z</time></trkpt><trkpt lat="40.2383267" lon="15.4009983"><ele>548.0</ele><time>2026-03-28T11:14:04.027Z</time></trkpt><trkpt lat="40.2382633" lon="15.401065"><ele>548.0</ele><time>2026-03-28T11:14:07.027Z</time></trkpt><trkpt lat="40.2382333" lon="15.4011517"><ele>548.0</ele><time>2026-03-28T11:14:18.027Z</time></trkpt><trkpt lat="40.2382167" lon="15.40126"><ele>548.0</ele><time>2026-03-28T11:14:20.027Z</time></trkpt><trkpt lat="40.2382" lon="15.401365"><ele>548.0</ele><time>2026-03-28T11:14:22.027Z</time></trkpt><trkpt lat="40.23818" lon="15.4014683"><ele>548.0</ele><time>2026-03-28T11:14:24.028Z</time></trkpt><trkpt lat="40.238155" lon="15.4015617"><ele>548.0</ele><time>2026-03-28T11:14:26.028Z</time></trkpt><trkpt lat="40.23813" lon="15.40167"><ele>548.0</ele><time>2026-03-28T11:14:28.027Z</time></trkpt><trkpt lat="40.238125" lon="15.4017783"><ele>548.0</ele><time>2026-03-28T11:14:30.028Z</time></trkpt><trkpt lat="40.23808" lon="15.4018683"><ele>548.0</ele><time>2026-03-28T11:14:33.028Z</time></trkpt><trkpt lat="40.2380133" lon="15.40193"><ele>548.0</ele><time>2026-03-28T11:14:36.027Z</time></trkpt><trkpt lat="40.2379533" lon="15.4019833"><ele>546.6666666666666</ele><time>2026-03-28T11:14:38.028Z</time></trkpt><trkpt lat="40.2378933" lon="15.40202"><ele>545.3333333333333</ele><time>2026-03-28T11:14:40.028Z</time></trkpt><trkpt lat="40.2378233" lon="15.402045"><ele>544.0</ele><time>2026-03-28T11:14:42.027Z</time></trkpt><trkpt lat="40.23774" lon="15.4020817"><ele>542.6666666666666</ele><time>2026-03-28T11:14:44.027Z</time></trkpt><trkpt lat="40.2376733" lon="15.4021183"><ele>541.3333333333334</ele><time>2026-03-28T11:14:46.028Z</time></trkpt><trkpt lat="40.2376017" lon="15.4021517"><ele>540.0</ele><time>2026-03-28T11:14:48.027Z</time></trkpt><trkpt lat="40.2375367" lon="15.4022083"><ele>540.0</ele><time>2026-03-28T11:14:50.027Z</time></trkpt><trkpt lat="40.237455" lon="15.402245"><ele>540.0</ele><time>2026-03-28T11:18:01.027Z</time></trkpt><trkpt lat="40.2373783" lon="15.402255"><ele>540.0</ele><time>2026-03-28T11:18:04.027Z</time></trkpt><trkpt lat="40.23729" lon="15.4022617"><ele>540.0</ele><time>2026-03-28T11:18:07.028Z</time></trkpt><trkpt lat="40.237185" lon="15.40226"><ele>540.0</ele><time>2026-03-28T11:18:09.028Z</time></trkpt><trkpt lat="40.2370767" lon="15.4022517"><ele>539.2</ele><time>2026-03-28T11:18:11.028Z</time></trkpt><trkpt lat="40.23698" lon="15.4022517"><ele>538.4</ele><time>2026-03-28T11:18:13.027Z</time></trkpt><trkpt lat="40.236895" lon="15.402255"><ele>537.6</ele><time>2026-03-28T11:18:15.027Z</time></trkpt><trkpt lat="40.2368133" lon="15.4022533"><ele>536.8</ele><time>2026-03-28T11:18:18.028Z</time></trkpt><trkpt lat="40.2366783" lon="15.4023133"><ele>536.0</ele><time>2026-03-28T11:18:52.028Z</time></trkpt><trkpt lat="40.2365983" lon="15.40236"><ele>536.0</ele><time>2026-03-28T11:18:54.027Z</time></trkpt><trkpt lat="40.2365167" lon="15.40241"><ele>536.0</ele><time>2026-03-28T11:18:56.027Z</time></trkpt><trkpt lat="40.2364467" lon="15.4024517"><ele>536.0</ele><time>2026-03-28T11:18:58.027Z</time></trkpt><trkpt lat="40.23637" lon="15.4025117"><ele>536.0</ele><time>2026-03-28T11:19:00.027Z</time></trkpt><trkpt lat="40.2362867" lon="15.40259"><ele>536.0</ele><time>2026-03-28T11:19:02.027Z</time></trkpt><trkpt lat="40.2361783" lon="15.4026833"><ele>533.5</ele><time>2026-03-28T11:19:04.027Z</time></trkpt><trkpt lat="40.23612" lon="15.402725"><ele>531.0</ele><time>2026-03-28T11:19:05.027Z</time></trkpt><trkpt lat="40.2360167" lon="15.4028067"><ele>528.5</ele><time>2026-03-28T11:19:07.028Z</time></trkpt><trkpt lat="40.235925" lon="15.4028833"><ele>526.0</ele><time>2026-03-28T11:19:09.027Z</time></trkpt><trkpt lat="40.2358633" lon="15.4029383"><ele>523.5</ele><time>2026-03-28T11:19:11.027Z</time></trkpt><trkpt lat="40.23581" lon="15.4029983"><ele>521.0</ele><time>2026-03-28T11:19:14.027Z</time></trkpt><trkpt lat="40.235715" lon="15.403065"><ele>521.0</ele><time>2026-03-28T11:19:20.028Z</time></trkpt><trkpt lat="40.2356467" lon="15.40312"><ele>521.0</ele><time>2026-03-28T11:19:24.027Z</time></trkpt><trkpt lat="40.2355867" lon="15.403165"><ele>521.0</ele><time>2026-03-28T11:19:28.028Z</time></trkpt><trkpt lat="40.235535" lon="15.4032217"><ele>521.0</ele><time>2026-03-28T11:19:31.028Z</time></trkpt><trkpt lat="40.23547" lon="15.4032817"><ele>521.0</ele><time>2026-03-28T11:19:35.027Z</time></trkpt><trkpt lat="40.2354" lon="15.40331"><ele>521.0</ele><time>2026-03-28T11:19:39.027Z</time></trkpt><trkpt lat="40.2352717" lon="15.4034017"><ele>519.6666666666666</ele><time>2026-03-28T11:20:06.027Z</time></trkpt><trkpt lat="40.23521" lon="15.4034317"><ele>518.3333333333333</ele><time>2026-03-28T11:20:09.028Z</time></trkpt><trkpt lat="40.235135" lon="15.40345"><ele>517.0</ele><time>2026-03-28T11:20:12.027Z</time></trkpt><trkpt lat="40.2350633" lon="15.40348"><ele>515.6666666666666</ele><time>2026-03-28T11:20:36.028Z</time></trkpt><trkpt lat="40.2350067" lon="15.4035167"><ele>514.3333333333334</ele><time>2026-03-28T11:20:38.028Z</time></trkpt><trkpt lat="40.2349317" lon="15.4035567"><ele>513.0</ele><time>2026-03-28T11:20:40.028Z</time></trkpt><trkpt lat="40.23484" lon="15.4036167"><ele>512.1666666666666</ele><time>2026-03-28T11:20:42.027Z</time></trkpt><trkpt lat="40.2347833" lon="15.4036533"><ele>511.33333333333337</ele><time>2026-03-28T11:20:44.027Z</time></trkpt><trkpt lat="40.2347217" lon="15.4037033"><ele>510.5</ele><time>2026-03-28T11:20:46.027Z</time></trkpt><trkpt lat="40.2346367" lon="15.4037667"><ele>509.6666666666667</ele><time>2026-03-28T11:20:48.027Z</time></trkpt><trkpt lat="40.2345683" lon="15.4038083"><ele>508.83333333333337</ele><time>2026-03-28T11:20:50.028Z</time></trkpt><trkpt lat="40.2345117" lon="15.4038533"><ele>508.0</ele><time>2026-03-28T11:20:52.027Z</time></trkpt><trkpt lat="40.2344183" lon="15.4039117"><ele>508.00000000000006</ele><time>2026-03-28T11:20:54.028Z</time></trkpt><trkpt lat="40.2343033" lon="15.4039633"><ele>508.0</ele><time>2026-03-28T11:20:56.028Z</time></trkpt><trkpt lat="40.23424" lon="15.4039917"><ele>508.0</ele><time>2026-03-28T11:20:57.027Z</time></trkpt><trkpt lat="40.2341733" lon="15.4040133"><ele>508.0</ele><time>2026-03-28T11:20:58.027Z</time></trkpt><trkpt lat="40.23411" lon="15.40403"><ele>508.00000000000006</ele><time>2026-03-28T11:20:59.028Z</time></trkpt><trkpt lat="40.233995" lon="15.4040533"><ele>508.0</ele><time>2026-03-28T11:21:01.028Z</time></trkpt><trkpt lat="40.233905" lon="15.4040683"><ele>510.0</ele><time>2026-03-28T11:21:03.028Z</time></trkpt><trkpt lat="40.233815" lon="15.4040917"><ele>511.99999999999994</ele><time>2026-03-28T11:21:06.028Z</time></trkpt><trkpt lat="40.2337217" lon="15.40413"><ele>514.0</ele><time>2026-03-28T11:21:08.027Z</time></trkpt><trkpt lat="40.233615" lon="15.40419"><ele>516.0</ele><time>2026-03-28T11:21:10.028Z</time></trkpt><trkpt lat="40.23353" lon="15.4042733"><ele>518.0</ele><time>2026-03-28T11:21:12.027Z</time></trkpt><trkpt lat="40.2334333" lon="15.404375"><ele>518.0</ele><time>2026-03-28T11:21:14.028Z</time></trkpt><trkpt lat="40.233355" lon="15.4044517"><ele>518.0</ele><time>2026-03-28T11:21:16.027Z</time></trkpt><trkpt lat="40.2333017" lon="15.40451"><ele>518.0</ele><time>2026-03-28T11:21:18.029Z</time></trkpt><trkpt lat="40.2332317" lon="15.4045733"><ele>518.0</ele><time>2026-03-28T11:21:21.029Z</time></trkpt><trkpt lat="40.2331833" lon="15.4046383"><ele>518.0</ele><time>2026-03-28T11:21:23.028Z</time></trkpt><trkpt lat="40.2331283" lon="15.4047133"><ele>518.0</ele><time>2026-03-28T11:21:25.029Z</time></trkpt><trkpt lat="40.2330683" lon="15.404785"><ele>518.1666666666666</ele><time>2026-03-28T11:21:28.029Z</time></trkpt><trkpt lat="40.23302" lon="15.404845"><ele>518.3333333333333</ele><time>2026-03-28T11:21:31.028Z</time></trkpt><trkpt lat="40.2329533" lon="15.404895"><ele>518.5</ele><time>2026-03-28T11:22:08.029Z</time></trkpt><trkpt lat="40.2328917" lon="15.4049617"><ele>518.6666666666666</ele><time>2026-03-28T11:22:12.029Z</time></trkpt><trkpt lat="40.2328267" lon="15.4050017"><ele>518.8333333333334</ele><time>2026-03-28T11:22:14.029Z</time></trkpt><trkpt lat="40.23275" lon="15.405045"><ele>519.0</ele><time>2026-03-28T11:22:16.028Z</time></trkpt><trkpt lat="40.23268" lon="15.4050933"><ele>519.0</ele><time>2026-03-28T11:22:18.029Z</time></trkpt><trkpt lat="40.2326183" lon="15.4051733"><ele>519.0</ele><time>2026-03-28T11:22:21.029Z</time></trkpt><trkpt lat="40.2325783" lon="15.4052567"><ele>519.0</ele><time>2026-03-28T11:22:24.029Z</time></trkpt><trkpt lat="40.2325233" lon="15.4053583"><ele>519.0</ele><time>2026-03-28T11:22:26.029Z</time></trkpt><trkpt lat="40.2324667" lon="15.40546"><ele>519.0</ele><time>2026-03-28T11:22:28.029Z</time></trkpt><trkpt lat="40.2323867" lon="15.4055533"><ele>516.3333333333334</ele><time>2026-03-28T11:22:30.029Z</time></trkpt><trkpt lat="40.2323033" lon="15.405605"><ele>513.6666666666666</ele><time>2026-03-28T11:22:32.028Z</time></trkpt><trkpt lat="40.232235" lon="15.4056117"><ele>511.0</ele><time>2026-03-28T11:22:34.028Z</time></trkpt><trkpt lat="40.2321417" lon="15.40561"><ele>508.3333333333333</ele><time>2026-03-28T11:22:36.029Z</time></trkpt><trkpt lat="40.2320367" lon="15.4056267"><ele>505.66666666666663</ele><time>2026-03-28T11:22:38.029Z</time></trkpt><trkpt lat="40.2319567" lon="15.4056217"><ele>503.0</ele><time>2026-03-28T11:22:40.029Z</time></trkpt><trkpt lat="40.2318917" lon="15.405595"><ele>503.0</ele><time>2026-03-28T11:22:42.028Z</time></trkpt><trkpt lat="40.23183" lon="15.4055383"><ele>503.00000000000006</ele><time>2026-03-28T11:22:44.029Z</time></trkpt><trkpt lat="40.2318033" lon="15.4054567"><ele>503.0</ele><time>2026-03-28T11:22:47.028Z</time></trkpt><trkpt lat="40.2318083" lon="15.40537"><ele>503.0</ele><time>2026-03-28T11:22:50.028Z</time></trkpt><trkpt lat="40.231815" lon="15.4052683"><ele>503.00000000000006</ele><time>2026-03-28T11:22:54.028Z</time></trkpt><trkpt lat="40.2318167" lon="15.4051783"><ele>503.0</ele><time>2026-03-28T11:22:58.029Z</time></trkpt><trkpt lat="40.23182" lon="15.40508"><ele>503.0</ele><time>2026-03-28T11:23:02.029Z</time></trkpt><trkpt lat="40.2318383" lon="15.40499"><ele>502.66666666666663</ele><time>2026-03-28T11:23:04.029Z</time></trkpt><trkpt lat="40.2318383" lon="15.4048983"><ele>502.3333333333333</ele><time>2026-03-28T11:23:06.028Z</time></trkpt><trkpt lat="40.23183" lon="15.4047983"><ele>502.0</ele><time>2026-03-28T11:23:08.029Z</time></trkpt><trkpt lat="40.2318267" lon="15.4046817"><ele>501.66666666666663</ele><time>2026-03-28T11:23:11.028Z</time></trkpt><trkpt lat="40.2318" lon="15.4045833"><ele>501.3333333333333</ele><time>2026-03-28T11:23:14.028Z</time></trkpt><trkpt lat="40.2317717" lon="15.404505"><ele>501.0</ele><time>2026-03-28T11:23:16.029Z</time></trkpt><trkpt lat="40.2317183" lon="15.404385"><ele>499.1666666666667</ele><time>2026-03-28T11:23:18.028Z</time></trkpt><trkpt lat="40.2317" lon="15.4042683"><ele>497.33333333333337</ele><time>2026-03-28T11:23:20.028Z</time></trkpt><trkpt lat="40.2317133" lon="15.4041733"><ele>495.5</ele><time>2026-03-28T11:23:22.029Z</time></trkpt><trkpt lat="40.23175" lon="15.4040917"><ele>493.6666666666667</ele><time>2026-03-28T11:23:24.029Z</time></trkpt><trkpt lat="40.2318" lon="15.4040133"><ele>491.83333333333337</ele><time>2026-03-28T11:23:26.028Z</time></trkpt><trkpt lat="40.23187" lon="15.4039233"><ele>490.0</ele><time>2026-03-28T11:23:28.029Z</time></trkpt><trkpt lat="40.2319317" lon="15.4038317"><ele>487.8</ele><time>2026-03-28T11:23:30.028Z</time></trkpt><trkpt lat="40.231995" lon="15.4037683"><ele>485.6</ele><time>2026-03-28T11:23:32.029Z</time></trkpt><trkpt lat="40.232095" lon="15.403715"><ele>483.4</ele><time>2026-03-28T11:23:34.029Z</time></trkpt><trkpt lat="40.2322033" lon="15.4036817"><ele>481.2</ele><time>2026-03-28T11:23:36.029Z</time></trkpt><trkpt lat="40.2323083" lon="15.4036817"><ele>479.0</ele><time>2026-03-28T11:23:38.028Z</time></trkpt><trkpt lat="40.232405" lon="15.4036417"><ele>479.0</ele><time>2026-03-28T11:23:40.029Z</time></trkpt><trkpt lat="40.232485" lon="15.4035617"><ele>479.0</ele><time>2026-03-28T11:23:42.028Z</time></trkpt><trkpt lat="40.23258" lon="15.4034583"><ele>479.0</ele><time>2026-03-28T11:23:44.028Z</time></trkpt><trkpt lat="40.2326333" lon="15.403395"><ele>479.0</ele><time>2026-03-28T11:23:45.028Z</time></trkpt><trkpt lat="40.2327117" lon="15.4033"><ele>479.0</ele><time>2026-03-28T11:23:47.029Z</time></trkpt><trkpt lat="40.2327983" lon="15.40322"><ele>478.99999999999994</ele><time>2026-03-28T11:23:49.029Z</time></trkpt><trkpt lat="40.23288" lon="15.4031183"><ele>479.0</ele><time>2026-03-28T11:23:51.028Z</time></trkpt><trkpt lat="40.23293" lon="15.4030533"><ele>479.0</ele><time>2026-03-28T11:23:52.028Z</time></trkpt><trkpt lat="40.2329833" lon="15.40298"><ele>479.0</ele><time>2026-03-28T11:23:53.029Z</time></trkpt><trkpt lat="40.2330333" lon="15.40291"><ele>478.99999999999994</ele><time>2026-03-28T11:23:54.028Z</time></trkpt><trkpt lat="40.233115" lon="15.4028033"><ele>479.0</ele><time>2026-03-28T11:23:56.029Z</time></trkpt><trkpt lat="40.2331967" lon="15.402725"><ele>478.16666666666663</ele><time>2026-03-28T11:23:58.028Z</time></trkpt><trkpt lat="40.2332717" lon="15.402665"><ele>477.3333333333333</ele><time>2026-03-28T11:24:00.029Z</time></trkpt><trkpt lat="40.2333317" lon="15.4026033"><ele>476.5</ele><time>2026-03-28T11:24:03.029Z</time></trkpt><trkpt lat="40.23339" lon="15.4025633"><ele>475.66666666666663</ele><time>2026-03-28T11:24:06.029Z</time></trkpt><trkpt lat="40.23345" lon="15.4025317"><ele>474.8333333333333</ele><time>2026-03-28T11:24:08.029Z</time></trkpt><trkpt lat="40.2335217" lon="15.4024983"><ele>474.0</ele><time>2026-03-28T11:24:11.029Z</time></trkpt><trkpt lat="40.233595" lon="15.40244"><ele>474.0</ele><time>2026-03-28T11:24:14.028Z</time></trkpt><trkpt lat="40.2336567" lon="15.40235"><ele>474.0</ele><time>2026-03-28T11:24:17.028Z</time></trkpt><trkpt lat="40.2336933" lon="15.402245"><ele>474.0</ele><time>2026-03-28T11:24:20.028Z</time></trkpt><trkpt lat="40.2336883" lon="15.402135"><ele>474.0</ele><time>2026-03-28T11:24:23.029Z</time></trkpt><trkpt lat="40.2336817" lon="15.4020283"><ele>474.0</ele><time>2026-03-28T11:24:25.029Z</time></trkpt><trkpt lat="40.2336733" lon="15.4019183"><ele>474.0</ele><time>2026-03-28T11:24:27.029Z</time></trkpt><trkpt lat="40.23369" lon="15.4018"><ele>472.71428571428567</ele><time>2026-03-28T11:24:29.028Z</time></trkpt><trkpt lat="40.2337067" lon="15.401715"><ele>471.42857142857144</ele><time>2026-03-28T11:24:31.029Z</time></trkpt><trkpt lat="40.233735" lon="15.401635"><ele>470.1428571428571</ele><time>2026-03-28T11:24:33.028Z</time></trkpt><trkpt lat="40.2337717" lon="15.4015283"><ele>468.85714285714283</ele><time>2026-03-28T11:24:36.029Z</time></trkpt><trkpt lat="40.233795" lon="15.4014383"><ele>467.57142857142856</ele><time>2026-03-28T11:24:38.028Z</time></trkpt><trkpt lat="40.2337767" lon="15.4013533"><ele>466.2857142857143</ele><time>2026-03-28T11:24:40.029Z</time></trkpt><trkpt lat="40.2337083" lon="15.4012967"><ele>465.0</ele><time>2026-03-28T11:25:01.028Z</time></trkpt><trkpt lat="40.2336017" lon="15.4013017"><ele>465.0</ele><time>2026-03-28T11:25:03.029Z</time></trkpt><trkpt lat="40.2334867" lon="15.401325"><ele>465.0</ele><time>2026-03-28T11:25:05.029Z</time></trkpt><trkpt lat="40.2333817" lon="15.4013633"><ele>465.0</ele><time>2026-03-28T11:25:07.028Z</time></trkpt><trkpt lat="40.2332967" lon="15.4014283"><ele>465.0</ele><time>2026-03-28T11:25:09.028Z</time></trkpt><trkpt lat="40.2332167" lon="15.40147"><ele>465.0</ele><time>2026-03-28T11:25:11.028Z</time></trkpt><trkpt lat="40.2331267" lon="15.40149"><ele>463.5</ele><time>2026-03-28T11:25:13.029Z</time></trkpt><trkpt lat="40.2330217" lon="15.401495"><ele>462.0</ele><time>2026-03-28T11:25:15.028Z</time></trkpt><trkpt lat="40.23292" lon="15.4014683"><ele>460.5</ele><time>2026-03-28T11:25:17.028Z</time></trkpt><trkpt lat="40.23283" lon="15.4014233"><ele>459.0</ele><time>2026-03-28T11:25:19.029Z</time></trkpt><trkpt lat="40.2327567" lon="15.40139"><ele>457.5</ele><time>2026-03-28T11:25:21.029Z</time></trkpt><trkpt lat="40.232695" lon="15.4013567"><ele>456.0</ele><time>2026-03-28T11:25:24.028Z</time></trkpt><trkpt lat="40.2326333" lon="15.40133"><ele>454.6666666666667</ele><time>2026-03-28T11:25:26.028Z</time></trkpt><trkpt lat="40.2325733" lon="15.4012967"><ele>453.33333333333337</ele><time>2026-03-28T11:25:28.028Z</time></trkpt><trkpt lat="40.2324933" lon="15.401275"><ele>452.0</ele><time>2026-03-28T11:25:30.028Z</time></trkpt><trkpt lat="40.2324017" lon="15.4012767"><ele>450.6666666666667</ele><time>2026-03-28T11:25:32.028Z</time></trkpt><trkpt lat="40.232305" lon="15.4013317"><ele>449.33333333333337</ele><time>2026-03-28T11:25:34.028Z</time></trkpt><trkpt lat="40.232205" lon="15.4013733"><ele>448.0</ele><time>2026-03-28T11:25:36.028Z</time></trkpt><trkpt lat="40.2321133" lon="15.401395"><ele>447.50000000000006</ele><time>2026-03-28T11:25:38.028Z</time></trkpt><trkpt lat="40.23202" lon="15.4013933"><ele>447.0</ele><time>2026-03-28T11:25:40.029Z</time></trkpt><trkpt lat="40.231925" lon="15.4014083"><ele>446.5</ele><time>2026-03-28T11:25:42.028Z</time></trkpt><trkpt lat="40.231845" lon="15.4014367"><ele>446.0</ele><time>2026-03-28T11:25:44.028Z</time></trkpt><trkpt lat="40.2317733" lon="15.4014633"><ele>445.50000000000006</ele><time>2026-03-28T11:25:46.028Z</time></trkpt><trkpt lat="40.23171" lon="15.4014833"><ele>445.0</ele><time>2026-03-28T11:25:49.028Z</time></trkpt><trkpt lat="40.231635" lon="15.4015183"><ele>445.00000000000006</ele><time>2026-03-28T11:25:52.029Z</time></trkpt><trkpt lat="40.231565" lon="15.4015433"><ele>445.0</ele><time>2026-03-28T11:25:57.029Z</time></trkpt><trkpt lat="40.231475" lon="15.4016017"><ele>445.0</ele><time>2026-03-28T11:26:00.028Z</time></trkpt><trkpt lat="40.2314017" lon="15.4016483"><ele>445.0</ele><time>2026-03-28T11:26:02.029Z</time></trkpt><trkpt lat="40.2313383" lon="15.4016633"><ele>445.00000000000006</ele><time>2026-03-28T11:26:04.028Z</time></trkpt><trkpt lat="40.2312717" lon="15.401685"><ele>445.0</ele><time>2026-03-28T11:26:06.028Z</time></trkpt><trkpt lat="40.2311983" lon="15.401715"><ele>444.1666666666667</ele><time>2026-03-28T11:26:08.028Z</time></trkpt><trkpt lat="40.2311217" lon="15.4017517"><ele>443.33333333333337</ele><time>2026-03-28T11:26:10.029Z</time></trkpt><trkpt lat="40.2310483" lon="15.4018"><ele>442.5</ele><time>2026-03-28T11:26:12.028Z</time></trkpt><trkpt lat="40.2309767" lon="15.4018217"><ele>441.66666666666663</ele><time>2026-03-28T11:26:14.029Z</time></trkpt><trkpt lat="40.230905" lon="15.4018533"><ele>440.8333333333333</ele><time>2026-03-28T11:26:16.029Z</time></trkpt><trkpt lat="40.230835" lon="15.4019117"><ele>440.0</ele><time>2026-03-28T11:26:18.028Z</time></trkpt><trkpt lat="40.2307683" lon="15.401985"><ele>439.99999999999994</ele><time>2026-03-28T11:26:20.029Z</time></trkpt><trkpt lat="40.2307033" lon="15.4020617"><ele>440.0</ele><time>2026-03-28T11:26:22.028Z</time></trkpt><trkpt lat="40.23063" lon="15.40211"><ele>440.0</ele><time>2026-03-28T11:26:24.029Z</time></trkpt><trkpt lat="40.2305667" lon="15.402145"><ele>440.0</ele><time>2026-03-28T11:26:26.029Z</time></trkpt><trkpt lat="40.2304917" lon="15.4021533"><ele>439.99999999999994</ele><time>2026-03-28T11:26:28.029Z</time></trkpt><trkpt lat="40.2304083" lon="15.402135"><ele>440.0</ele><time>2026-03-28T11:26:30.029Z</time></trkpt><trkpt lat="40.230315" lon="15.4020767"><ele>437.71428571428567</ele><time>2026-03-28T11:26:32.029Z</time></trkpt><trkpt lat="40.23026" lon="15.4020133"><ele>435.42857142857144</ele><time>2026-03-28T11:26:34.029Z</time></trkpt><trkpt lat="40.2302267" lon="15.4019133"><ele>433.1428571428571</ele><time>2026-03-28T11:26:37.028Z</time></trkpt><trkpt lat="40.2301883" lon="15.4018083"><ele>430.85714285714283</ele><time>2026-03-28T11:26:40.028Z</time></trkpt><trkpt lat="40.2301433" lon="15.4017467"><ele>428.57142857142856</ele><time>2026-03-28T11:26:42.028Z</time></trkpt><trkpt lat="40.2300867" lon="15.4017033"><ele>426.2857142857143</ele><time>2026-03-28T11:26:44.028Z</time></trkpt><trkpt lat="40.2300233" lon="15.4016583"><ele>424.0</ele><time>2026-03-28T11:26:46.028Z</time></trkpt><trkpt lat="40.2299383" lon="15.4016083"><ele>424.0</ele><time>2026-03-28T11:26:48.029Z</time></trkpt><trkpt lat="40.229855" lon="15.401565"><ele>424.0</ele><time>2026-03-28T11:26:50.028Z</time></trkpt><trkpt lat="40.2297767" lon="15.4015433"><ele>424.0</ele><time>2026-03-28T11:26:52.028Z</time></trkpt><trkpt lat="40.2297033" lon="15.401585"><ele>424.0</ele><time>2026-03-28T11:26:55.028Z</time></trkpt><trkpt lat="40.2295683" lon="15.4016617"><ele>424.0</ele><time>2026-03-28T11:28:16.028Z</time></trkpt><trkpt lat="40.2295483" lon="15.40174"><ele>424.33333333333337</ele><time>2026-03-28T11:29:41.029Z</time></trkpt><trkpt lat="40.2294917" lon="15.401795"><ele>424.6666666666667</ele><time>2026-03-28T11:29:46.029Z</time></trkpt><trkpt lat="40.2294333" lon="15.4018567"><ele>425.0</ele><time>2026-03-28T11:29:48.029Z</time></trkpt><trkpt lat="40.22938" lon="15.40198"><ele>425.33333333333337</ele><time>2026-03-28T11:29:50.029Z</time></trkpt><trkpt lat="40.2293517" lon="15.4020567"><ele>425.6666666666667</ele><time>2026-03-28T11:29:51.029Z</time></trkpt><trkpt lat="40.2292733" lon="15.4021833"><ele>426.0</ele><time>2026-03-28T11:29:53.029Z</time></trkpt><trkpt lat="40.22921" lon="15.4022733"><ele>425.3333333333333</ele><time>2026-03-28T11:29:55.028Z</time></trkpt><trkpt lat="40.2291317" lon="15.402375"><ele>424.66666666666663</ele><time>2026-03-28T11:29:57.028Z</time></trkpt><trkpt lat="40.2290467" lon="15.4024667"><ele>424.0</ele><time>2026-03-28T11:29:59.029Z</time></trkpt><trkpt lat="40.2289817" lon="15.4025217"><ele>423.3333333333333</ele><time>2026-03-28T11:30:01.028Z</time></trkpt><trkpt lat="40.228935" lon="15.40258"><ele>422.66666666666663</ele><time>2026-03-28T11:30:03.029Z</time></trkpt><trkpt lat="40.2288833" lon="15.4026467"><ele>422.0</ele><time>2026-03-28T11:30:06.029Z</time></trkpt><trkpt lat="40.22883" lon="15.4027133"><ele>421.99999999999994</ele><time>2026-03-28T11:30:08.029Z</time></trkpt><trkpt lat="40.228775" lon="15.4027917"><ele>422.0</ele><time>2026-03-28T11:30:10.028Z</time></trkpt><trkpt lat="40.2287233" lon="15.4028667"><ele>422.0</ele><time>2026-03-28T11:30:12.029Z</time></trkpt><trkpt lat="40.2286767" lon="15.4029383"><ele>422.0</ele><time>2026-03-28T11:30:15.029Z</time></trkpt><trkpt lat="40.228605" lon="15.4030067"><ele>421.99999999999994</ele><time>2026-03-28T11:30:19.029Z</time></trkpt><trkpt lat="40.22854" lon="15.4030683"><ele>422.0</ele><time>2026-03-28T11:30:23.029Z</time></trkpt><trkpt lat="40.2284117" lon="15.4031817"><ele>422.0</ele><time>2026-03-28T11:30:46.029Z</time></trkpt><trkpt lat="40.22829" lon="15.4032633"><ele>422.0</ele><time>2026-03-28T11:31:00.028Z</time></trkpt><trkpt lat="40.2282233" lon="15.4033"><ele>422.0</ele><time>2026-03-28T11:31:03.028Z</time></trkpt><trkpt lat="40.228165" lon="15.40335"><ele>422.0</ele><time>2026-03-28T11:31:06.028Z</time></trkpt><trkpt lat="40.2281033" lon="15.4034067"><ele>422.0</ele><time>2026-03-28T11:31:14.029Z</time></trkpt><trkpt lat="40.227995" lon="15.4034617"><ele>423.0</ele><time>2026-03-28T11:31:16.028Z</time></trkpt><trkpt lat="40.2279017" lon="15.4035433"><ele>424.0</ele><time>2026-03-28T11:31:18.028Z</time></trkpt><trkpt lat="40.2278533" lon="15.403655"><ele>425.00000000000006</ele><time>2026-03-28T11:31:20.028Z</time></trkpt><trkpt lat="40.2278533" lon="15.403765"><ele>426.0</ele><time>2026-03-28T11:31:22.028Z</time></trkpt><trkpt lat="40.2279" lon="15.4038633"><ele>427.0</ele><time>2026-03-28T11:31:24.029Z</time></trkpt><trkpt lat="40.2279617" lon="15.4039567"><ele>427.8</ele><time>2026-03-28T11:31:26.029Z</time></trkpt><trkpt lat="40.2280033" lon="15.4040717"><ele>428.6</ele><time>2026-03-28T11:31:28.028Z</time></trkpt><trkpt lat="40.22806" lon="15.404235"><ele>429.40000000000003</ele><time>2026-03-28T11:31:30.029Z</time></trkpt><trkpt lat="40.2280833" lon="15.4043117"><ele>430.20000000000005</ele><time>2026-03-28T11:31:31.029Z</time></trkpt><trkpt lat="40.228105" lon="15.4044517"><ele>431.0</ele><time>2026-03-28T11:31:33.028Z</time></trkpt><trkpt lat="40.2280933" lon="15.4045633"><ele>433.0</ele><time>2026-03-28T11:31:35.028Z</time></trkpt><trkpt lat="40.2280833" lon="15.4046783"><ele>435.0</ele><time>2026-03-28T11:31:37.029Z</time></trkpt><trkpt lat="40.2280383" lon="15.4048"><ele>437.0</ele><time>2026-03-28T11:31:39.028Z</time></trkpt><trkpt lat="40.2279617" lon="15.4049183"><ele>439.0</ele><time>2026-03-28T11:31:41.029Z</time></trkpt><trkpt lat="40.2279" lon="15.4050383"><ele>441.0</ele><time>2026-03-28T11:31:43.028Z</time></trkpt><trkpt lat="40.2278717" lon="15.40518"><ele>441.0</ele><time>2026-03-28T11:31:45.029Z</time></trkpt><trkpt lat="40.2278667" lon="15.405355"><ele>441.0</ele><time>2026-03-28T11:31:47.028Z</time></trkpt><trkpt lat="40.2278683" lon="15.4054533"><ele>441.0</ele><time>2026-03-28T11:31:48.028Z</time></trkpt><trkpt lat="40.22787" lon="15.4055467"><ele>441.0</ele><time>2026-03-28T11:31:49.029Z</time></trkpt><trkpt lat="40.2278617" lon="15.4056467"><ele>441.0</ele><time>2026-03-28T11:31:50.029Z</time></trkpt><trkpt lat="40.2278617" lon="15.4057467"><ele>441.0</ele><time>2026-03-28T11:31:51.028Z</time></trkpt><trkpt lat="40.2278683" lon="15.4058533"><ele>442.6666666666667</ele><time>2026-03-28T11:31:52.028Z</time></trkpt><trkpt lat="40.2278767" lon="15.40597"><ele>444.33333333333337</ele><time>2026-03-28T11:31:53.029Z</time></trkpt><trkpt lat="40.22787" lon="15.4060933"><ele>446.0</ele><time>2026-03-28T11:31:54.029Z</time></trkpt><trkpt lat="40.2278817" lon="15.40621"><ele>447.6666666666667</ele><time>2026-03-28T11:31:55.028Z</time></trkpt><trkpt lat="40.227895" lon="15.4063133"><ele>449.33333333333337</ele><time>2026-03-28T11:31:56.028Z</time></trkpt><trkpt lat="40.2278967" lon="15.406405"><ele>451.0</ele><time>2026-03-28T11:31:57.028Z</time></trkpt><trkpt lat="40.2278833" lon="15.4064917"><ele>453.20000000000005</ele><time>2026-03-28T11:31:58.028Z</time></trkpt><trkpt lat="40.2278633" lon="15.4065733"><ele>455.40000000000003</ele><time>2026-03-28T11:31:59.029Z</time></trkpt><trkpt lat="40.2278467" lon="15.4066533"><ele>457.6</ele><time>2026-03-28T11:32:00.029Z</time></trkpt><trkpt lat="40.2278683" lon="15.4068"><ele>459.8</ele><time>2026-03-28T11:32:02.028Z</time></trkpt><trkpt lat="40.2279417" lon="15.4069167"><ele>462.0</ele><time>2026-03-28T11:32:04.028Z</time></trkpt><trkpt lat="40.2280067" lon="15.4070433"><ele>462.0</ele><time>2026-03-28T11:32:06.028Z</time></trkpt><trkpt lat="40.2280333" lon="15.4071417"><ele>462.0</ele><time>2026-03-28T11:32:08.029Z</time></trkpt><trkpt lat="40.2279983" lon="15.4072817"><ele>462.0</ele><time>2026-03-28T11:32:10.029Z</time></trkpt><trkpt lat="40.2279683" lon="15.4073817"><ele>462.0</ele><time>2026-03-28T11:32:11.028Z</time></trkpt><trkpt lat="40.2279433" lon="15.4074883"><ele>462.0</ele><time>2026-03-28T11:32:12.029Z</time></trkpt><trkpt lat="40.2279167" lon="15.4075933"><ele>462.0</ele><time>2026-03-28T11:32:13.029Z</time></trkpt><trkpt lat="40.2278883" lon="15.4076783"><ele>462.5</ele><time>2026-03-28T11:32:14.028Z</time></trkpt><trkpt lat="40.2278517" lon="15.407755"><ele>463.0</ele><time>2026-03-28T11:32:15.029Z</time></trkpt><trkpt lat="40.2278133" lon="15.407835"><ele>463.5</ele><time>2026-03-28T11:32:16.028Z</time></trkpt><trkpt lat="40.22777" lon="15.4079317"><ele>464.0</ele><time>2026-03-28T11:32:17.029Z</time></trkpt><trkpt lat="40.22772" lon="15.4080467"><ele>464.5</ele><time>2026-03-28T11:32:18.028Z</time></trkpt><trkpt lat="40.2276833" lon="15.4081567"><ele>465.0</ele><time>2026-03-28T11:32:19.028Z</time></trkpt><trkpt lat="40.22766" lon="15.4082633"><ele>464.0</ele><time>2026-03-28T11:32:20.029Z</time></trkpt><trkpt lat="40.2276367" lon="15.4083583"><ele>463.0</ele><time>2026-03-28T11:32:21.029Z</time></trkpt><trkpt lat="40.2276117" lon="15.408435"><ele>462.0</ele><time>2026-03-28T11:32:22.029Z</time></trkpt><trkpt lat="40.227555" lon="15.4085367"><ele>461.0</ele><time>2026-03-28T11:32:24.028Z</time></trkpt><trkpt lat="40.227475" lon="15.4086517"><ele>460.0</ele><time>2026-03-28T11:32:26.028Z</time></trkpt><trkpt lat="40.22742" lon="15.4087183"><ele>459.0</ele><time>2026-03-28T11:32:27.029Z</time></trkpt><trkpt lat="40.2273683" lon="15.408795"><ele>460.3333333333333</ele><time>2026-03-28T11:32:28.029Z</time></trkpt><trkpt lat="40.2273217" lon="15.4088633"><ele>461.66666666666663</ele><time>2026-03-28T11:32:29.028Z</time></trkpt><trkpt lat="40.2272833" lon="15.4089333"><ele>463.0</ele><time>2026-03-28T11:32:30.028Z</time></trkpt><trkpt lat="40.2272083" lon="15.409045"><ele>464.3333333333333</ele><time>2026-03-28T11:32:32.028Z</time></trkpt><trkpt lat="40.2271367" lon="15.4091083"><ele>465.66666666666663</ele><time>2026-03-28T11:32:34.028Z</time></trkpt><trkpt lat="40.2270467" lon="15.4091833"><ele>467.0</ele><time>2026-03-28T11:32:36.028Z</time></trkpt><trkpt lat="40.2269567" lon="15.409255"><ele>466.99999999999994</ele><time>2026-03-28T11:32:38.029Z</time></trkpt><trkpt lat="40.2268767" lon="15.4092517"><ele>467.0</ele><time>2026-03-28T11:32:40.028Z</time></trkpt><trkpt lat="40.2267867" lon="15.4091967"><ele>467.0</ele><time>2026-03-28T11:32:42.029Z</time></trkpt><trkpt lat="40.2267233" lon="15.4091217"><ele>467.0</ele><time>2026-03-28T11:32:44.029Z</time></trkpt><trkpt lat="40.226755" lon="15.4090317"><ele>466.99999999999994</ele><time>2026-03-28T11:32:47.028Z</time></trkpt><trkpt lat="40.22684" lon="15.4090083"><ele>467.0</ele><time>2026-03-28T11:32:49.028Z</time></trkpt><trkpt lat="40.2269383" lon="15.408995"><ele>466.99999999999994</ele><time>2026-03-28T11:32:51.029Z</time></trkpt><trkpt lat="40.2270017" lon="15.40894"><ele>467.0</ele><time>2026-03-28T11:33:31.028Z</time></trkpt><trkpt lat="40.2270533" lon="15.4088533"><ele>467.0</ele><time>2026-03-28T11:33:33.028Z</time></trkpt><trkpt lat="40.2271267" lon="15.408725"><ele>467.0</ele><time>2026-03-28T11:33:35.028Z</time></trkpt><trkpt lat="40.2271683" lon="15.4086583"><ele>466.99999999999994</ele><time>2026-03-28T11:33:36.028Z</time></trkpt><trkpt lat="40.22721" lon="15.408595"><ele>467.0</ele><time>2026-03-28T11:33:37.028Z</time></trkpt><trkpt lat="40.2272583" lon="15.4084633"><ele>471.40000000000003</ele><time>2026-03-28T11:33:39.028Z</time></trkpt><trkpt lat="40.2272783" lon="15.408315"><ele>475.80000000000007</ele><time>2026-03-28T11:33:41.028Z</time></trkpt><trkpt lat="40.2272867" lon="15.4081583"><ele>480.2</ele><time>2026-03-28T11:33:43.028Z</time></trkpt><trkpt lat="40.22729" lon="15.4080733"><ele>484.6</ele><time>2026-03-28T11:33:44.028Z</time></trkpt><trkpt lat="40.2272783" lon="15.40792"><ele>489.0</ele><time>2026-03-28T11:33:46.028Z</time></trkpt><trkpt lat="40.2272267" lon="15.4078067"><ele>489.0</ele><time>2026-03-28T11:33:48.028Z</time></trkpt><trkpt lat="40.227185" lon="15.4077383"><ele>489.0</ele><time>2026-03-28T11:33:49.029Z</time></trkpt><trkpt lat="40.2271417" lon="15.4076617"><ele>489.0</ele><time>2026-03-28T11:33:50.029Z</time></trkpt><trkpt lat="40.2270917" lon="15.407585"><ele>489.0</ele><time>2026-03-28T11:33:51.029Z</time></trkpt><trkpt lat="40.2270333" lon="15.4074967"><ele>489.0</ele><time>2026-03-28T11:33:52.029Z</time></trkpt><trkpt lat="40.2269783" lon="15.4074117"><ele>489.0</ele><time>2026-03-28T11:33:53.029Z</time></trkpt><trkpt lat="40.226935" lon="15.4073267"><ele>489.0</ele><time>2026-03-28T11:33:54.028Z</time></trkpt><trkpt lat="40.22689" lon="15.4072283"><ele>489.0</ele><time>2026-03-28T11:33:55.029Z</time></trkpt><trkpt lat="40.2268517" lon="15.40714"><ele>489.0</ele><time>2026-03-28T11:33:56.029Z</time></trkpt><trkpt lat="40.22681" lon="15.4070567"><ele>489.0</ele><time>2026-03-28T11:33:57.029Z</time></trkpt><trkpt lat="40.2267633" lon="15.40698"><ele>489.0</ele><time>2026-03-28T11:33:58.028Z</time></trkpt><trkpt lat="40.2266667" lon="15.4068883"><ele>489.0</ele><time>2026-03-28T11:34:00.028Z</time></trkpt><trkpt lat="40.2266" lon="15.40687"><ele>490.1666666666667</ele><time>2026-03-28T11:34:01.028Z</time></trkpt><trkpt lat="40.22652" lon="15.4068583"><ele>491.33333333333337</ele><time>2026-03-28T11:34:02.029Z</time></trkpt><trkpt lat="40.2264333" lon="15.40686"><ele>492.5</ele><time>2026-03-28T11:34:03.029Z</time></trkpt><trkpt lat="40.22635" lon="15.4068617"><ele>493.6666666666667</ele><time>2026-03-28T11:34:04.029Z</time></trkpt><trkpt lat="40.226275" lon="15.4068617"><ele>494.83333333333337</ele><time>2026-03-28T11:34:05.029Z</time></trkpt><trkpt lat="40.2261583" lon="15.4068417"><ele>496.0</ele><time>2026-03-28T11:34:07.029Z</time></trkpt><trkpt lat="40.2260617" lon="15.4067533"><ele>496.0</ele><time>2026-03-28T11:34:09.029Z</time></trkpt><trkpt lat="40.2259817" lon="15.4066367"><ele>496.0</ele><time>2026-03-28T11:34:11.028Z</time></trkpt><trkpt lat="40.2259183" lon="15.40657"><ele>496.0</ele><time>2026-03-28T11:34:13.029Z</time></trkpt><trkpt lat="40.2258317" lon="15.4065933"><ele>496.0</ele><time>2026-03-28T11:34:16.028Z</time></trkpt><trkpt lat="40.2258583" lon="15.4067117"><ele>496.0</ele><time>2026-03-28T11:34:19.028Z</time></trkpt><trkpt lat="40.2259167" lon="15.406815"><ele>496.0</ele><time>2026-03-28T11:34:21.028Z</time></trkpt><trkpt lat="40.2259683" lon="15.4069283"><ele>496.0</ele><time>2026-03-28T11:34:23.028Z</time></trkpt><trkpt lat="40.2259883" lon="15.4070733"><ele>496.0</ele><time>2026-03-28T11:34:25.028Z</time></trkpt><trkpt lat="40.2259983" lon="15.4071567"><ele>496.0</ele><time>2026-03-28T11:34:26.028Z</time></trkpt><trkpt lat="40.2260383" lon="15.407315"><ele>496.0</ele><time>2026-03-28T11:34:28.029Z</time></trkpt><trkpt lat="40.2260817" lon="15.4073767"><ele>496.6</ele><time>2026-03-28T11:34:29.029Z</time></trkpt><trkpt lat="40.2261633" lon="15.407465"><ele>497.20000000000005</ele><time>2026-03-28T11:34:31.028Z</time></trkpt><trkpt lat="40.2261867" lon="15.4075733"><ele>497.79999999999995</ele><time>2026-03-28T11:34:33.028Z</time></trkpt><trkpt lat="40.2261383" lon="15.4076533"><ele>498.4</ele><time>2026-03-28T11:34:35.028Z</time></trkpt><trkpt lat="40.22604" lon="15.4077133"><ele>499.0</ele><time>2026-03-28T11:34:37.028Z</time></trkpt><trkpt lat="40.22594" lon="15.4077417"><ele>499.00000000000006</ele><time>2026-03-28T11:34:39.029Z</time></trkpt><trkpt lat="40.2258483" lon="15.40776"><ele>499.0</ele><time>2026-03-28T11:34:41.028Z</time></trkpt><trkpt lat="40.2257817" lon="15.4077983"><ele>499.0</ele><time>2026-03-28T11:34:43.029Z</time></trkpt><trkpt lat="40.2257083" lon="15.4078267"><ele>499.0</ele><time>2026-03-28T11:34:45.029Z</time></trkpt><trkpt lat="40.2256117" lon="15.40782"><ele>499.00000000000006</ele><time>2026-03-28T11:34:47.028Z</time></trkpt><trkpt lat="40.2255067" lon="15.4077967"><ele>499.0</ele><time>2026-03-28T11:34:49.029Z</time></trkpt><trkpt lat="40.2253683" lon="15.4077633"><ele>500.1666666666667</ele><time>2026-03-28T11:34:51.029Z</time></trkpt><trkpt lat="40.225285" lon="15.4077533"><ele>501.33333333333337</ele><time>2026-03-28T11:34:52.028Z</time></trkpt><trkpt lat="40.2252" lon="15.407755"><ele>502.5</ele><time>2026-03-28T11:34:53.028Z</time></trkpt><trkpt lat="40.2251183" lon="15.40777"><ele>503.66666666666663</ele><time>2026-03-28T11:34:54.029Z</time></trkpt><trkpt lat="40.2250333" lon="15.4077767"><ele>504.8333333333333</ele><time>2026-03-28T11:34:55.028Z</time></trkpt><trkpt lat="40.224945" lon="15.4077667"><ele>506.0</ele><time>2026-03-28T11:34:56.029Z</time></trkpt><trkpt lat="40.2248567" lon="15.4077483"><ele>504.8571428571429</ele><time>2026-03-28T11:34:57.029Z</time></trkpt><trkpt lat="40.22478" lon="15.4077283"><ele>503.7142857142857</ele><time>2026-03-28T11:34:58.029Z</time></trkpt><trkpt lat="40.224715" lon="15.4077"><ele>502.57142857142856</ele><time>2026-03-28T11:34:59.028Z</time></trkpt><trkpt lat="40.2246483" lon="15.407665"><ele>501.42857142857144</ele><time>2026-03-28T11:35:00.028Z</time></trkpt><trkpt lat="40.224585" lon="15.4076167"><ele>500.2857142857142</ele><time>2026-03-28T11:35:01.028Z</time></trkpt><trkpt lat="40.224525" lon="15.4075667"><ele>499.1428571428571</ele><time>2026-03-28T11:35:02.028Z</time></trkpt><trkpt lat="40.224465" lon="15.4075183"><ele>498.0</ele><time>2026-03-28T11:35:03.028Z</time></trkpt><trkpt lat="40.2244" lon="15.4074817"><ele>498.0</ele><time>2026-03-28T11:35:04.028Z</time></trkpt><trkpt lat="40.2243317" lon="15.40745"><ele>498.0</ele><time>2026-03-28T11:35:05.029Z</time></trkpt><trkpt lat="40.2242617" lon="15.4074217"><ele>498.0</ele><time>2026-03-28T11:35:06.028Z</time></trkpt><trkpt lat="40.2241883" lon="15.4073933"><ele>498.0</ele><time>2026-03-28T11:35:07.028Z</time></trkpt><trkpt lat="40.224105" lon="15.4073617"><ele>498.0</ele><time>2026-03-28T11:35:08.029Z</time></trkpt><trkpt lat="40.22403" lon="15.40733"><ele>498.0</ele><time>2026-03-28T11:35:09.029Z</time></trkpt><trkpt lat="40.22396" lon="15.4073"><ele>495.79999999999995</ele><time>2026-03-28T11:35:10.028Z</time></trkpt><trkpt lat="40.2239" lon="15.40727"><ele>493.59999999999997</ele><time>2026-03-28T11:35:11.029Z</time></trkpt><trkpt lat="40.2237883" lon="15.4072083"><ele>491.40000000000003</ele><time>2026-03-28T11:35:13.028Z</time></trkpt><trkpt lat="40.2236867" lon="15.4071617"><ele>489.20000000000005</ele><time>2026-03-28T11:35:15.028Z</time></trkpt><trkpt lat="40.223575" lon="15.4071233"><ele>487.0</ele><time>2026-03-28T11:35:17.028Z</time></trkpt><trkpt lat="40.2234667" lon="15.40709"><ele>490.50000000000006</ele><time>2026-03-28T11:35:19.029Z</time></trkpt><trkpt lat="40.22334" lon="15.4070683"><ele>494.0</ele><time>2026-03-28T11:35:21.028Z</time></trkpt><trkpt lat="40.2232733" lon="15.4070617"><ele>497.5</ele><time>2026-03-28T11:35:22.029Z</time></trkpt><trkpt lat="40.2231933" lon="15.407065"><ele>501.0</ele><time>2026-03-28T11:35:23.029Z</time></trkpt><trkpt lat="40.2231167" lon="15.40707"><ele>504.50000000000006</ele><time>2026-03-28T11:35:24.028Z</time></trkpt><trkpt lat="40.2230467" lon="15.4070683"><ele>508.0</ele><time>2026-03-28T11:35:25.028Z</time></trkpt><trkpt lat="40.2229833" lon="15.4070617"><ele>508.0</ele><time>2026-03-28T11:35:26.029Z</time></trkpt><trkpt lat="40.222875" lon="15.4070033"><ele>507.99999999999994</ele><time>2026-03-28T11:35:28.028Z</time></trkpt><trkpt lat="40.2227883" lon="15.4069033"><ele>507.99999999999994</ele><time>2026-03-28T11:35:30.029Z</time></trkpt><trkpt lat="40.2227117" lon="15.4068417"><ele>508.0</ele><time>2026-03-28T11:35:32.029Z</time></trkpt><trkpt lat="40.2226417" lon="15.406855"><ele>508.0</ele><time>2026-03-28T11:35:34.029Z</time></trkpt><trkpt lat="40.22257" lon="15.4069283"><ele>508.00000000000006</ele><time>2026-03-28T11:35:36.028Z</time></trkpt><trkpt lat="40.2225183" lon="15.4069983"><ele>508.0</ele><time>2026-03-28T11:35:37.028Z</time></trkpt><trkpt lat="40.2224583" lon="15.4070667"><ele>508.0</ele><time>2026-03-28T11:35:38.029Z</time></trkpt><trkpt lat="40.2223917" lon="15.407115"><ele>508.0</ele><time>2026-03-28T11:35:39.028Z</time></trkpt><trkpt lat="40.2223233" lon="15.4071417"><ele>508.00000000000006</ele><time>2026-03-28T11:35:40.028Z</time></trkpt><trkpt lat="40.2222567" lon="15.4071467"><ele>508.0</ele><time>2026-03-28T11:35:41.028Z</time></trkpt><trkpt lat="40.22214" lon="15.40711"><ele>512.0</ele><time>2026-03-28T11:35:43.029Z</time></trkpt><trkpt lat="40.2220317" lon="15.4070467"><ele>516.0</ele><time>2026-03-28T11:35:45.028Z</time></trkpt><trkpt lat="40.22193" lon="15.4070383"><ele>520.0</ele><time>2026-03-28T11:35:47.028Z</time></trkpt><trkpt lat="40.22181" lon="15.4071083"><ele>524.0</ele><time>2026-03-28T11:35:49.028Z</time></trkpt><trkpt lat="40.2217517" lon="15.4071583"><ele>528.0</ele><time>2026-03-28T11:35:50.028Z</time></trkpt><trkpt lat="40.2216233" lon="15.4072117"><ele>523.2857142857142</ele><time>2026-03-28T11:35:52.028Z</time></trkpt><trkpt lat="40.221545" lon="15.4072233"><ele>518.5714285714286</ele><time>2026-03-28T11:35:53.028Z</time></trkpt><trkpt lat="40.2214733" lon="15.407235"><ele>513.8571428571429</ele><time>2026-03-28T11:35:54.029Z</time></trkpt><trkpt lat="40.22141" lon="15.4072517"><ele>509.1428571428571</ele><time>2026-03-28T11:35:55.028Z</time></trkpt><trkpt lat="40.2213467" lon="15.407265"><ele>504.42857142857144</ele><time>2026-03-28T11:35:56.028Z</time></trkpt><trkpt lat="40.2212783" lon="15.4072717"><ele>499.71428571428567</ele><time>2026-03-28T11:35:57.028Z</time></trkpt><trkpt lat="40.2212017" lon="15.407275"><ele>494.99999999999994</ele><time>2026-03-28T11:35:58.028Z</time></trkpt><trkpt lat="40.2211083" lon="15.40728"><ele>495.0</ele><time>2026-03-28T11:35:59.028Z</time></trkpt><trkpt lat="40.2210167" lon="15.407275"><ele>495.0</ele><time>2026-03-28T11:36:00.028Z</time></trkpt><trkpt lat="40.2209367" lon="15.407275"><ele>495.0</ele><time>2026-03-28T11:36:01.029Z</time></trkpt><trkpt lat="40.220865" lon="15.40728"><ele>495.0</ele><time>2026-03-28T11:36:02.029Z</time></trkpt><trkpt lat="40.2207617" lon="15.4073183"><ele>495.0</ele><time>2026-03-28T11:36:04.029Z</time></trkpt><trkpt lat="40.2206967" lon="15.4074283"><ele>495.0</ele><time>2026-03-28T11:36:06.029Z</time></trkpt><trkpt lat="40.220675" lon="15.4075817"><ele>495.0</ele><time>2026-03-28T11:36:08.029Z</time></trkpt><trkpt lat="40.2206567" lon="15.4076633"><ele>495.0</ele><time>2026-03-28T11:36:09.028Z</time></trkpt><trkpt lat="40.22059" lon="15.4077667"><ele>495.0</ele><time>2026-03-28T11:36:11.028Z</time></trkpt><trkpt lat="40.2204783" lon="15.4078067"><ele>495.0</ele><time>2026-03-28T11:36:13.029Z</time></trkpt><trkpt lat="40.2204117" lon="15.4078267"><ele>495.0</ele><time>2026-03-28T11:36:14.029Z</time></trkpt><trkpt lat="40.2203433" lon="15.40786"><ele>495.0</ele><time>2026-03-28T11:36:15.028Z</time></trkpt><trkpt lat="40.2202567" lon="15.4079017"><ele>495.0</ele><time>2026-03-28T11:36:16.029Z</time></trkpt><trkpt lat="40.22016" lon="15.4079517"><ele>495.0</ele><time>2026-03-28T11:36:17.029Z</time></trkpt><trkpt lat="40.2200667" lon="15.40801"><ele>495.0</ele><time>2026-03-28T11:36:18.028Z</time></trkpt><trkpt lat="40.2199767" lon="15.4080717"><ele>495.0</ele><time>2026-03-28T11:36:19.029Z</time></trkpt><trkpt lat="40.2199083" lon="15.40813"><ele>495.0</ele><time>2026-03-28T11:36:20.028Z</time></trkpt><trkpt lat="40.219825" lon="15.4082167"><ele>495.0</ele><time>2026-03-28T11:36:22.029Z</time></trkpt><trkpt lat="40.2197767" lon="15.4083217"><ele>495.0</ele><time>2026-03-28T11:36:24.028Z</time></trkpt><trkpt lat="40.2197167" lon="15.4084717"><ele>495.0</ele><time>2026-03-28T11:36:26.029Z</time></trkpt><trkpt lat="40.2196617" lon="15.40854"><ele>497.5714285714285</ele><time>2026-03-28T11:36:27.028Z</time></trkpt><trkpt lat="40.2195967" lon="15.4085867"><ele>500.1428571428571</ele><time>2026-03-28T11:36:28.029Z</time></trkpt><trkpt lat="40.2195333" lon="15.408625"><ele>502.7142857142857</ele><time>2026-03-28T11:36:29.029Z</time></trkpt><trkpt lat="40.2194717" lon="15.4086667"><ele>505.2857142857143</ele><time>2026-03-28T11:36:30.028Z</time></trkpt><trkpt lat="40.2194183" lon="15.4087217"><ele>507.8571428571429</ele><time>2026-03-28T11:36:31.028Z</time></trkpt><trkpt lat="40.21938" lon="15.40879"><ele>510.4285714285715</ele><time>2026-03-28T11:36:32.029Z</time></trkpt><trkpt lat="40.2193533" lon="15.40887"><ele>513.0</ele><time>2026-03-28T11:36:33.028Z</time></trkpt><trkpt lat="40.219335" lon="15.4089717"><ele>513.0</ele><time>2026-03-28T11:36:34.028Z</time></trkpt><trkpt lat="40.2193267" lon="15.40908"><ele>513.0</ele><time>2026-03-28T11:36:35.028Z</time></trkpt><trkpt lat="40.2193233" lon="15.40918"><ele>513.0</ele><time>2026-03-28T11:36:36.029Z</time></trkpt><trkpt lat="40.2192983" lon="15.409325"><ele>513.0</ele><time>2026-03-28T11:36:38.028Z</time></trkpt><trkpt lat="40.2192283" lon="15.409455"><ele>513.0</ele><time>2026-03-28T11:36:40.029Z</time></trkpt><trkpt lat="40.2191833" lon="15.4095267"><ele>513.0</ele><time>2026-03-28T11:36:41.028Z</time></trkpt><trkpt lat="40.2191017" lon="15.4096283"><ele>513.0</ele><time>2026-03-28T11:36:43.028Z</time></trkpt><trkpt lat="40.2190483" lon="15.4097033"><ele>513.0</ele><time>2026-03-28T11:36:45.029Z</time></trkpt><trkpt lat="40.218985" lon="15.4097467"><ele>513.0</ele><time>2026-03-28T11:43:21.03Z</time></trkpt><trkpt lat="40.2189" lon="15.4098067"><ele>513.0</ele><time>2026-03-28T11:43:24.029Z</time></trkpt><trkpt lat="40.218855" lon="15.409865"><ele>513.0</ele><time>2026-03-28T11:43:25.029Z</time></trkpt><trkpt lat="40.2188167" lon="15.4099483"><ele>515.4</ele><time>2026-03-28T11:43:26.029Z</time></trkpt><trkpt lat="40.2187783" lon="15.4100533"><ele>517.8</ele><time>2026-03-28T11:43:27.029Z</time></trkpt><trkpt lat="40.218735" lon="15.4101717"><ele>520.2</ele><time>2026-03-28T11:43:28.029Z</time></trkpt><trkpt lat="40.2186867" lon="15.410295"><ele>522.6</ele><time>2026-03-28T11:43:29.03Z</time></trkpt><trkpt lat="40.218635" lon="15.41042"><ele>525.0</ele><time>2026-03-28T11:43:30.029Z</time></trkpt><trkpt lat="40.2185833" lon="15.4105517"><ele>525.0</ele><time>2026-03-28T11:43:31.029Z</time></trkpt><trkpt lat="40.2185383" lon="15.410695"><ele>525.0</ele><time>2026-03-28T11:43:32.029Z</time></trkpt><trkpt lat="40.2184983" lon="15.4108367"><ele>525.0</ele><time>2026-03-28T11:43:33.03Z</time></trkpt><trkpt lat="40.2184733" lon="15.410975"><ele>525.0</ele><time>2026-03-28T11:43:34.029Z</time></trkpt><trkpt lat="40.218455" lon="15.4111083"><ele>525.0</ele><time>2026-03-28T11:43:35.029Z</time></trkpt><trkpt lat="40.2184317" lon="15.41122"><ele>523.6</ele><time>2026-03-28T11:43:36.03Z</time></trkpt><trkpt lat="40.2184" lon="15.4113283"><ele>522.2</ele><time>2026-03-28T11:43:37.029Z</time></trkpt><trkpt lat="40.2183483" lon="15.4114217"><ele>520.8</ele><time>2026-03-28T11:43:38.029Z</time></trkpt><trkpt lat="40.218285" lon="15.4115083"><ele>519.4</ele><time>2026-03-28T11:43:39.029Z</time></trkpt><trkpt lat="40.2182083" lon="15.41158"><ele>518.0</ele><time>2026-03-28T11:43:40.029Z</time></trkpt><trkpt lat="40.218135" lon="15.41165"><ele>518.0</ele><time>2026-03-28T11:43:41.029Z</time></trkpt><trkpt lat="40.218065" lon="15.4117167"><ele>518.0</ele><time>2026-03-28T11:43:42.03Z</time></trkpt><trkpt lat="40.218" lon="15.411785"><ele>518.0</ele><time>2026-03-28T11:43:43.029Z</time></trkpt><trkpt lat="40.2179317" lon="15.4118433"><ele>518.0</ele><time>2026-03-28T11:43:44.029Z</time></trkpt><trkpt lat="40.2178567" lon="15.4118933"><ele>518.0</ele><time>2026-03-28T11:43:45.029Z</time></trkpt><trkpt lat="40.2177683" lon="15.4119317"><ele>518.0</ele><time>2026-03-28T11:43:46.03Z</time></trkpt><trkpt lat="40.2176717" lon="15.4119683"><ele>518.0</ele><time>2026-03-28T11:43:47.029Z</time></trkpt><trkpt lat="40.2175683" lon="15.4119883"><ele>518.0</ele><time>2026-03-28T11:43:48.03Z</time></trkpt><trkpt lat="40.2174617" lon="15.412"><ele>518.0</ele><time>2026-03-28T11:43:49.03Z</time></trkpt><trkpt lat="40.2173567" lon="15.41203"><ele>518.0</ele><time>2026-03-28T11:43:50.029Z</time></trkpt><trkpt lat="40.2172517" lon="15.4120733"><ele>518.0</ele><time>2026-03-28T11:43:51.03Z</time></trkpt><trkpt lat="40.2171483" lon="15.412145"><ele>512.6</ele><time>2026-03-28T11:43:52.029Z</time></trkpt><trkpt lat="40.2170467" lon="15.41221"><ele>507.19999999999993</ele><time>2026-03-28T11:43:53.03Z</time></trkpt><trkpt lat="40.2169583" lon="15.4122767"><ele>501.8</ele><time>2026-03-28T11:43:54.029Z</time></trkpt><trkpt lat="40.21688" lon="15.4123433"><ele>496.4</ele><time>2026-03-28T11:43:55.029Z</time></trkpt><trkpt lat="40.2168017" lon="15.4124333"><ele>491.0</ele><time>2026-03-28T11:43:56.03Z</time></trkpt><trkpt lat="40.2167333" lon="15.412525"><ele>491.0</ele><time>2026-03-28T11:43:57.029Z</time></trkpt><trkpt lat="40.21666" lon="15.4126183"><ele>491.0</ele><time>2026-03-28T11:43:58.03Z</time></trkpt><trkpt lat="40.21659" lon="15.4126983"><ele>491.0</ele><time>2026-03-28T11:43:59.03Z</time></trkpt><trkpt lat="40.2165083" lon="15.4127783"><ele>491.0</ele><time>2026-03-28T11:44:00.029Z</time></trkpt><trkpt lat="40.2164283" lon="15.41286"><ele>491.0</ele><time>2026-03-28T11:44:01.03Z</time></trkpt><trkpt lat="40.2163433" lon="15.4129383"><ele>487.0</ele><time>2026-03-28T11:44:02.03Z</time></trkpt><trkpt lat="40.21626" lon="15.413005"><ele>483.0</ele><time>2026-03-28T11:44:03.029Z</time></trkpt><trkpt lat="40.2161667" lon="15.4130667"><ele>479.0</ele><time>2026-03-28T11:44:04.03Z</time></trkpt><trkpt lat="40.21607" lon="15.4131233"><ele>475.0</ele><time>2026-03-28T11:44:05.03Z</time></trkpt><trkpt lat="40.2159717" lon="15.4131833"><ele>471.0</ele><time>2026-03-28T11:44:06.029Z</time></trkpt><trkpt lat="40.21588" lon="15.4132433"><ele>471.0</ele><time>2026-03-28T11:44:07.029Z</time></trkpt><trkpt lat="40.21579" lon="15.413295"><ele>471.0</ele><time>2026-03-28T11:44:08.029Z</time></trkpt><trkpt lat="40.215705" lon="15.4133317"><ele>471.0</ele><time>2026-03-28T11:44:09.029Z</time></trkpt><trkpt lat="40.2156117" lon="15.4133517"><ele>471.0</ele><time>2026-03-28T11:44:10.029Z</time></trkpt><trkpt lat="40.2155167" lon="15.4133367"><ele>471.0</ele><time>2026-03-28T11:44:11.03Z</time></trkpt><trkpt lat="40.21542" lon="15.4132967"><ele>470.3333333333333</ele><time>2026-03-28T11:44:12.03Z</time></trkpt><trkpt lat="40.21533" lon="15.4132767"><ele>469.66666666666663</ele><time>2026-03-28T11:44:13.029Z</time></trkpt><trkpt lat="40.21524" lon="15.4132683"><ele>469.0</ele><time>2026-03-28T11:44:14.029Z</time></trkpt><trkpt lat="40.215155" lon="15.4132933"><ele>468.3333333333333</ele><time>2026-03-28T11:44:15.029Z</time></trkpt><trkpt lat="40.215085" lon="15.4133267"><ele>467.66666666666663</ele><time>2026-03-28T11:44:16.029Z</time></trkpt><trkpt lat="40.2150217" lon="15.4133733"><ele>467.0</ele><time>2026-03-28T11:44:17.03Z</time></trkpt><trkpt lat="40.2149583" lon="15.4134317"><ele>467.0</ele><time>2026-03-28T11:44:18.029Z</time></trkpt><trkpt lat="40.21491" lon="15.41351"><ele>467.00000000000006</ele><time>2026-03-28T11:44:19.029Z</time></trkpt><trkpt lat="40.2148633" lon="15.4136133"><ele>467.00000000000006</ele><time>2026-03-28T11:44:20.029Z</time></trkpt><trkpt lat="40.2148083" lon="15.4137433"><ele>467.0</ele><time>2026-03-28T11:44:21.029Z</time></trkpt><trkpt lat="40.2147517" lon="15.4138683"><ele>467.0</ele><time>2026-03-28T11:44:22.029Z</time></trkpt><trkpt lat="40.214695" lon="15.413985"><ele>463.8333333333333</ele><time>2026-03-28T11:44:23.029Z</time></trkpt><trkpt lat="40.2146433" lon="15.4140983"><ele>460.66666666666663</ele><time>2026-03-28T11:44:24.029Z</time></trkpt><trkpt lat="40.21459" lon="15.4141817"><ele>457.5</ele><time>2026-03-28T11:44:25.03Z</time></trkpt><trkpt lat="40.2145283" lon="15.4142417"><ele>454.33333333333337</ele><time>2026-03-28T11:44:26.029Z</time></trkpt><trkpt lat="40.2144467" lon="15.4142733"><ele>451.1666666666667</ele><time>2026-03-28T11:44:27.03Z</time></trkpt><trkpt lat="40.2143667" lon="15.4142733"><ele>448.0</ele><time>2026-03-28T11:44:28.029Z</time></trkpt><trkpt lat="40.2142767" lon="15.4142533"><ele>448.0</ele><time>2026-03-28T11:44:29.029Z</time></trkpt><trkpt lat="40.2141833" lon="15.4142533"><ele>447.99999999999994</ele><time>2026-03-28T11:44:30.03Z</time></trkpt><trkpt lat="40.2140917" lon="15.4142867"><ele>447.99999999999994</ele><time>2026-03-28T11:44:31.029Z</time></trkpt><trkpt lat="40.2140033" lon="15.414345"><ele>448.0</ele><time>2026-03-28T11:44:32.03Z</time></trkpt><trkpt lat="40.213925" lon="15.4144317"><ele>448.0</ele><time>2026-03-28T11:44:33.029Z</time></trkpt><trkpt lat="40.21385" lon="15.414525"><ele>447.59999999999997</ele><time>2026-03-28T11:44:34.029Z</time></trkpt><trkpt lat="40.213775" lon="15.4146217"><ele>447.19999999999993</ele><time>2026-03-28T11:44:35.029Z</time></trkpt><trkpt lat="40.2136917" lon="15.4147133"><ele>446.8</ele><time>2026-03-28T11:44:36.03Z</time></trkpt><trkpt lat="40.2136067" lon="15.4148033"><ele>446.4</ele><time>2026-03-28T11:44:37.029Z</time></trkpt><trkpt lat="40.213525" lon="15.41488"><ele>446.0</ele><time>2026-03-28T11:44:38.029Z</time></trkpt><trkpt lat="40.2134517" lon="15.4149417"><ele>445.8333333333333</ele><time>2026-03-28T11:44:39.029Z</time></trkpt><trkpt lat="40.2133933" lon="15.41499"><ele>445.66666666666663</ele><time>2026-03-28T11:44:40.029Z</time></trkpt><trkpt lat="40.2133067" lon="15.41506"><ele>445.5</ele><time>2026-03-28T11:44:42.029Z</time></trkpt><trkpt lat="40.213235" lon="15.4151317"><ele>445.33333333333337</ele><time>2026-03-28T11:44:44.03Z</time></trkpt><trkpt lat="40.213155" lon="15.415215"><ele>445.1666666666667</ele><time>2026-03-28T11:44:46.03Z</time></trkpt><trkpt lat="40.2131083" lon="15.4152767"><ele>445.0</ele><time>2026-03-28T11:44:47.029Z</time></trkpt><trkpt lat="40.213055" lon="15.4153483"><ele>442.4</ele><time>2026-03-28T11:44:48.029Z</time></trkpt><trkpt lat="40.212985" lon="15.4154317"><ele>439.8</ele><time>2026-03-28T11:44:49.03Z</time></trkpt><trkpt lat="40.2129117" lon="15.41552"><ele>437.20000000000005</ele><time>2026-03-28T11:44:50.029Z</time></trkpt><trkpt lat="40.212845" lon="15.4156033"><ele>434.6</ele><time>2026-03-28T11:44:51.029Z</time></trkpt><trkpt lat="40.2127783" lon="15.415675"><ele>432.0</ele><time>2026-03-28T11:44:52.029Z</time></trkpt><trkpt lat="40.2127133" lon="15.41574"><ele>432.0</ele><time>2026-03-28T11:44:53.029Z</time></trkpt><trkpt lat="40.2126433" lon="15.415805"><ele>432.0</ele><time>2026-03-28T11:44:54.029Z</time></trkpt><trkpt lat="40.2125733" lon="15.4158517"><ele>432.0</ele><time>2026-03-28T11:44:55.029Z</time></trkpt><trkpt lat="40.212505" lon="15.4158867"><ele>432.0</ele><time>2026-03-28T11:44:56.029Z</time></trkpt><trkpt lat="40.2124417" lon="15.4159133"><ele>432.0</ele><time>2026-03-28T11:44:57.029Z</time></trkpt><trkpt lat="40.2123517" lon="15.41591"><ele>432.0</ele><time>2026-03-28T11:44:59.029Z</time></trkpt><trkpt lat="40.2122933" lon="15.4158167"><ele>431.8</ele><time>2026-03-28T11:45:01.029Z</time></trkpt><trkpt lat="40.2122867" lon="15.4156533"><ele>431.6</ele><time>2026-03-28T11:45:03.03Z</time></trkpt><trkpt lat="40.2122967" lon="15.4155533"><ele>431.40000000000003</ele><time>2026-03-28T11:45:04.029Z</time></trkpt><trkpt lat="40.2123167" lon="15.4154383"><ele>431.20000000000005</ele><time>2026-03-28T11:45:05.029Z</time></trkpt><trkpt lat="40.21234" lon="15.41533"><ele>431.0</ele><time>2026-03-28T11:45:06.029Z</time></trkpt><trkpt lat="40.21237" lon="15.4152083"><ele>430.99999999999994</ele><time>2026-03-28T11:45:07.03Z</time></trkpt><trkpt lat="40.2124017" lon="15.41509"><ele>431.0</ele><time>2026-03-28T11:45:08.03Z</time></trkpt><trkpt lat="40.2124267" lon="15.4149733"><ele>431.0</ele><time>2026-03-28T11:45:09.03Z</time></trkpt><trkpt lat="40.2124383" lon="15.4148567"><ele>431.0</ele><time>2026-03-28T11:45:10.03Z</time></trkpt><trkpt lat="40.21244" lon="15.4147433"><ele>430.99999999999994</ele><time>2026-03-28T11:45:11.03Z</time></trkpt><trkpt lat="40.212435" lon="15.4146433"><ele>431.0</ele><time>2026-03-28T11:45:12.03Z</time></trkpt><trkpt lat="40.2124117" lon="15.4145567"><ele>430.3333333333333</ele><time>2026-03-28T11:45:13.03Z</time></trkpt><trkpt lat="40.2123433" lon="15.414455"><ele>429.66666666666663</ele><time>2026-03-28T11:45:15.029Z</time></trkpt><trkpt lat="40.2122667" lon="15.4144467"><ele>429.0</ele><time>2026-03-28T11:45:17.03Z</time></trkpt><trkpt lat="40.2121867" lon="15.4145583"><ele>428.33333333333337</ele><time>2026-03-28T11:45:19.029Z</time></trkpt><trkpt lat="40.21215" lon="15.41464"><ele>427.6666666666667</ele><time>2026-03-28T11:45:20.029Z</time></trkpt><trkpt lat="40.2121167" lon="15.41471"><ele>427.0</ele><time>2026-03-28T11:45:21.029Z</time></trkpt><trkpt lat="40.212055" lon="15.41478"><ele>423.0</ele><time>2026-03-28T11:45:23.03Z</time></trkpt><trkpt lat="40.2119633" lon="15.4147833"><ele>419.00000000000006</ele><time>2026-03-28T11:45:25.03Z</time></trkpt><trkpt lat="40.2118333" lon="15.41473"><ele>415.0</ele><time>2026-03-28T11:45:27.029Z</time></trkpt><trkpt lat="40.21175" lon="15.4147083"><ele>411.0</ele><time>2026-03-28T11:45:28.03Z</time></trkpt><trkpt lat="40.2116467" lon="15.4146933"><ele>407.0</ele><time>2026-03-28T11:45:29.03Z</time></trkpt><trkpt lat="40.2115383" lon="15.4146733"><ele>406.8</ele><time>2026-03-28T11:45:30.03Z</time></trkpt><trkpt lat="40.2114333" lon="15.414665"><ele>406.6</ele><time>2026-03-28T11:45:31.03Z</time></trkpt><trkpt lat="40.2113383" lon="15.4146867"><ele>406.40000000000003</ele><time>2026-03-28T11:45:32.029Z</time></trkpt><trkpt lat="40.2112433" lon="15.4147317"><ele>406.20000000000005</ele><time>2026-03-28T11:45:33.029Z</time></trkpt><trkpt lat="40.2111583" lon="15.4147933"><ele>406.0</ele><time>2026-03-28T11:45:34.029Z</time></trkpt><trkpt lat="40.2110767" lon="15.4148617"><ele>406.0</ele><time>2026-03-28T11:45:35.029Z</time></trkpt><trkpt lat="40.2109967" lon="15.4149267"><ele>406.0</ele><time>2026-03-28T11:45:36.03Z</time></trkpt><trkpt lat="40.2109133" lon="15.414975"><ele>406.0</ele><time>2026-03-28T11:45:37.03Z</time></trkpt><trkpt lat="40.2108133" lon="15.4149967"><ele>406.0</ele><time>2026-03-28T11:45:38.029Z</time></trkpt><trkpt lat="40.2107" lon="15.41499"><ele>406.0</ele><time>2026-03-28T11:45:39.029Z</time></trkpt><trkpt lat="40.2105867" lon="15.4149467"><ele>406.0</ele><time>2026-03-28T11:45:40.03Z</time></trkpt><trkpt lat="40.2104783" lon="15.4148683"><ele>406.0</ele><time>2026-03-28T11:45:41.029Z</time></trkpt><trkpt lat="40.2103733" lon="15.4147717"><ele>406.0</ele><time>2026-03-28T11:45:42.03Z</time></trkpt><trkpt lat="40.2102667" lon="15.4146717"><ele>406.0</ele><time>2026-03-28T11:45:43.029Z</time></trkpt><trkpt lat="40.2101633" lon="15.4145783"><ele>410.75</ele><time>2026-03-28T11:45:44.03Z</time></trkpt><trkpt lat="40.2100533" lon="15.4145217"><ele>415.5</ele><time>2026-03-28T11:45:45.03Z</time></trkpt><trkpt lat="40.20994" lon="15.4144883"><ele>420.25</ele><time>2026-03-28T11:45:46.03Z</time></trkpt><trkpt lat="40.209805" lon="15.4144833"><ele>425.0</ele><time>2026-03-28T11:45:47.03Z</time></trkpt><trkpt lat="40.2096617" lon="15.4144933"><ele>425.25</ele><time>2026-03-28T11:45:48.029Z</time></trkpt><trkpt lat="40.20952" lon="15.4145"><ele>425.5</ele><time>2026-03-28T11:45:49.029Z</time></trkpt><trkpt lat="40.209385" lon="15.4144967"><ele>425.75</ele><time>2026-03-28T11:45:50.029Z</time></trkpt><trkpt lat="40.2092567" lon="15.4144817"><ele>426.0</ele><time>2026-03-28T11:45:51.029Z</time></trkpt><trkpt lat="40.2091367" lon="15.41444"><ele>426.0</ele><time>2026-03-28T11:45:52.03Z</time></trkpt><trkpt lat="40.2090267" lon="15.4143767"><ele>426.0</ele><time>2026-03-28T11:45:53.03Z</time></trkpt><trkpt lat="40.2089267" lon="15.4143083"><ele>426.0</ele><time>2026-03-28T11:45:54.03Z</time></trkpt><trkpt lat="40.2088417" lon="15.4142317"><ele>426.0</ele><time>2026-03-28T11:45:55.029Z</time></trkpt><trkpt lat="40.208775" lon="15.4141433"><ele>426.0</ele><time>2026-03-28T11:45:56.029Z</time></trkpt><trkpt lat="40.20873" lon="15.4140333"><ele>422.75</ele><time>2026-03-28T11:45:57.029Z</time></trkpt><trkpt lat="40.2087133" lon="15.4139067"><ele>419.5</ele><time>2026-03-28T11:45:58.03Z</time></trkpt><trkpt lat="40.20871" lon="15.4137633"><ele>416.25</ele><time>2026-03-28T11:45:59.03Z</time></trkpt><trkpt lat="40.20873" lon="15.4136017"><ele>413.0</ele><time>2026-03-28T11:46:00.03Z</time></trkpt><trkpt lat="40.20876" lon="15.4134067"><ele>412.25</ele><time>2026-03-28T11:46:01.03Z</time></trkpt><trkpt lat="40.20879" lon="15.4132167"><ele>411.5</ele><time>2026-03-28T11:46:02.03Z</time></trkpt><trkpt lat="40.20882" lon="15.4130467"><ele>410.75</ele><time>2026-03-28T11:46:03.029Z</time></trkpt><trkpt lat="40.2088517" lon="15.4128933"><ele>410.0</ele><time>2026-03-28T11:46:04.029Z</time></trkpt><trkpt lat="40.2089083" lon="15.4127517"><ele>408.5</ele><time>2026-03-28T11:46:05.03Z</time></trkpt><trkpt lat="40.208985" lon="15.4126083"><ele>407.0</ele><time>2026-03-28T11:46:06.029Z</time></trkpt><trkpt lat="40.20908" lon="15.4124917"><ele>405.5</ele><time>2026-03-28T11:46:07.029Z</time></trkpt><trkpt lat="40.209185" lon="15.4123917"><ele>404.0</ele><time>2026-03-28T11:46:08.029Z</time></trkpt><trkpt lat="40.2093" lon="15.41231"><ele>406.79999999999995</ele><time>2026-03-28T11:46:09.03Z</time></trkpt><trkpt lat="40.2094033" lon="15.4122383"><ele>409.59999999999997</ele><time>2026-03-28T11:46:10.029Z</time></trkpt><trkpt lat="40.2094817" lon="15.41215"><ele>412.4</ele><time>2026-03-28T11:46:11.03Z</time></trkpt><trkpt lat="40.2095483" lon="15.4120483"><ele>415.2</ele><time>2026-03-28T11:46:12.03Z</time></trkpt><trkpt lat="40.2095883" lon="15.4119267"><ele>418.0</ele><time>2026-03-28T11:46:13.029Z</time></trkpt><trkpt lat="40.209615" lon="15.41178"><ele>418.0</ele><time>2026-03-28T11:46:14.03Z</time></trkpt><trkpt lat="40.2096283" lon="15.41162"><ele>418.0</ele><time>2026-03-28T11:46:15.03Z</time></trkpt><trkpt lat="40.2096417" lon="15.4114483"><ele>418.0</ele><time>2026-03-28T11:46:16.029Z</time></trkpt><trkpt lat="40.2096617" lon="15.4112667"><ele>418.0</ele><time>2026-03-28T11:46:17.03Z</time></trkpt><trkpt lat="40.2096817" lon="15.4110733"><ele>418.0</ele><time>2026-03-28T11:46:18.029Z</time></trkpt><trkpt lat="40.209695" lon="15.410875"><ele>418.0</ele><time>2026-03-28T11:46:19.029Z</time></trkpt><trkpt lat="40.209705" lon="15.41069"><ele>418.0</ele><time>2026-03-28T11:46:20.029Z</time></trkpt><trkpt lat="40.20971" lon="15.41051"><ele>418.0</ele><time>2026-03-28T11:46:21.029Z</time></trkpt><trkpt lat="40.2097017" lon="15.410335"><ele>418.0</ele><time>2026-03-28T11:46:22.029Z</time></trkpt><trkpt lat="40.2096783" lon="15.41017"><ele>418.0</ele><time>2026-03-28T11:46:23.03Z</time></trkpt><trkpt lat="40.2096467" lon="15.4100117"><ele>418.0</ele><time>2026-03-28T11:46:24.029Z</time></trkpt><trkpt lat="40.209625" lon="15.4098633"><ele>418.0</ele><time>2026-03-28T11:46:25.029Z</time></trkpt><trkpt lat="40.2096133" lon="15.4097183"><ele>419.4</ele><time>2026-03-28T11:46:26.029Z</time></trkpt><trkpt lat="40.2096033" lon="15.4095767"><ele>420.79999999999995</ele><time>2026-03-28T11:46:27.029Z</time></trkpt><trkpt lat="40.2095733" lon="15.4094417"><ele>422.2</ele><time>2026-03-28T11:46:28.029Z</time></trkpt><trkpt lat="40.20953" lon="15.4093133"><ele>423.6</ele><time>2026-03-28T11:46:29.029Z</time></trkpt><trkpt lat="40.20947" lon="15.4092017"><ele>425.0</ele><time>2026-03-28T11:46:30.029Z</time></trkpt><trkpt lat="40.2094083" lon="15.4091"><ele>425.0</ele><time>2026-03-28T11:46:31.03Z</time></trkpt><trkpt lat="40.2093467" lon="15.4089983"><ele>425.0</ele><time>2026-03-28T11:46:32.029Z</time></trkpt><trkpt lat="40.209305" lon="15.4088917"><ele>425.0</ele><time>2026-03-28T11:46:33.03Z</time></trkpt><trkpt lat="40.2092783" lon="15.4087733"><ele>425.0</ele><time>2026-03-28T11:46:34.03Z</time></trkpt><trkpt lat="40.2092667" lon="15.4086267"><ele>425.0</ele><time>2026-03-28T11:46:35.03Z</time></trkpt><trkpt lat="40.2092517" lon="15.408455"><ele>426.25</ele><time>2026-03-28T11:46:36.03Z</time></trkpt><trkpt lat="40.2092267" lon="15.408295"><ele>427.5</ele><time>2026-03-28T11:46:37.029Z</time></trkpt><trkpt lat="40.2091967" lon="15.4081383"><ele>428.75</ele><time>2026-03-28T11:46:38.029Z</time></trkpt><trkpt lat="40.2091733" lon="15.4079917"><ele>430.0</ele><time>2026-03-28T11:46:39.029Z</time></trkpt><trkpt lat="40.2091517" lon="15.4078633"><ele>430.50000000000006</ele><time>2026-03-28T11:46:40.029Z</time></trkpt><trkpt lat="40.209125" lon="15.407765"><ele>431.0</ele><time>2026-03-28T11:46:41.029Z</time></trkpt><trkpt lat="40.2090817" lon="15.4076917"><ele>431.5</ele><time>2026-03-28T11:46:42.03Z</time></trkpt><trkpt lat="40.2089717" lon="15.4076867"><ele>432.0</ele><time>2026-03-28T11:46:44.029Z</time></trkpt><trkpt lat="40.2089017" lon="15.40781"><ele>432.50000000000006</ele><time>2026-03-28T11:46:46.03Z</time></trkpt><trkpt lat="40.2089" lon="15.4078967"><ele>433.0</ele><time>2026-03-28T11:46:47.029Z</time></trkpt><trkpt lat="40.2089183" lon="15.4079967"><ele>433.4</ele><time>2026-03-28T11:46:48.03Z</time></trkpt><trkpt lat="40.2089633" lon="15.40811"><ele>433.79999999999995</ele><time>2026-03-28T11:46:49.029Z</time></trkpt><trkpt lat="40.2090167" lon="15.40824"><ele>434.2</ele><time>2026-03-28T11:46:50.029Z</time></trkpt><trkpt lat="40.20906" lon="15.4083817"><ele>434.6</ele><time>2026-03-28T11:46:51.029Z</time></trkpt><trkpt lat="40.2090783" lon="15.4085167"><ele>435.0</ele><time>2026-03-28T11:46:52.029Z</time></trkpt><trkpt lat="40.20907" lon="15.408645"><ele>434.0</ele><time>2026-03-28T11:46:53.03Z</time></trkpt><trkpt lat="40.2090433" lon="15.408765"><ele>433.0</ele><time>2026-03-28T11:46:54.029Z</time></trkpt><trkpt lat="40.2089933" lon="15.4088667"><ele>432.0</ele><time>2026-03-28T11:46:55.03Z</time></trkpt><trkpt lat="40.20893" lon="15.40895"><ele>431.0</ele><time>2026-03-28T11:46:56.029Z</time></trkpt><trkpt lat="40.208855" lon="15.4089983"><ele>430.0</ele><time>2026-03-28T11:46:57.03Z</time></trkpt><trkpt lat="40.208765" lon="15.40901"><ele>429.6666666666667</ele><time>2026-03-28T11:46:58.029Z</time></trkpt><trkpt lat="40.20866" lon="15.4090133"><ele>429.33333333333337</ele><time>2026-03-28T11:46:59.029Z</time></trkpt><trkpt lat="40.2085567" lon="15.4090117"><ele>429.0</ele><time>2026-03-28T11:47:00.029Z</time></trkpt><trkpt lat="40.2084717" lon="15.4090333"><ele>428.66666666666663</ele><time>2026-03-28T11:47:01.029Z</time></trkpt><trkpt lat="40.2084" lon="15.40908"><ele>428.3333333333333</ele><time>2026-03-28T11:47:02.029Z</time></trkpt><trkpt lat="40.2083483" lon="15.4091483"><ele>428.0</ele><time>2026-03-28T11:47:03.029Z</time></trkpt><trkpt lat="40.20832" lon="15.4092467"><ele>428.0</ele><time>2026-03-28T11:47:04.029Z</time></trkpt><trkpt lat="40.20831" lon="15.40937"><ele>427.99999999999994</ele><time>2026-03-28T11:47:05.029Z</time></trkpt><trkpt lat="40.20831" lon="15.4095"><ele>427.99999999999994</ele><time>2026-03-28T11:47:06.029Z</time></trkpt><trkpt lat="40.2083" lon="15.409635"><ele>428.0</ele><time>2026-03-28T11:47:07.03Z</time></trkpt><trkpt lat="40.208275" lon="15.4097833"><ele>428.0</ele><time>2026-03-28T11:47:08.03Z</time></trkpt><trkpt lat="40.2082367" lon="15.4099583"><ele>427.5</ele><time>2026-03-28T11:47:09.029Z</time></trkpt><trkpt lat="40.2082" lon="15.4101517"><ele>427.0</ele><time>2026-03-28T11:47:10.029Z</time></trkpt><trkpt lat="40.2081683" lon="15.41033"><ele>426.5</ele><time>2026-03-28T11:47:11.03Z</time></trkpt><trkpt lat="40.2081317" lon="15.4104867"><ele>426.0</ele><time>2026-03-28T11:47:12.029Z</time></trkpt><trkpt lat="40.208085" lon="15.4106233"><ele>430.5</ele><time>2026-03-28T11:47:13.029Z</time></trkpt><trkpt lat="40.2080267" lon="15.4107417"><ele>435.0</ele><time>2026-03-28T11:47:14.029Z</time></trkpt><trkpt lat="40.2079433" lon="15.410845"><ele>439.5</ele><time>2026-03-28T11:47:15.03Z</time></trkpt><trkpt lat="40.2078483" lon="15.410935"><ele>444.0</ele><time>2026-03-28T11:47:16.03Z</time></trkpt><trkpt lat="40.2077367" lon="15.4110133"><ele>444.0</ele><time>2026-03-28T11:47:17.029Z</time></trkpt><trkpt lat="40.2076" lon="15.4111033"><ele>444.0</ele><time>2026-03-28T11:47:18.029Z</time></trkpt><trkpt lat="40.2074733" lon="15.41121"><ele>444.0</ele><time>2026-03-28T11:47:19.03Z</time></trkpt><trkpt lat="40.207365" lon="15.4113183"><ele>444.0</ele><time>2026-03-28T11:47:20.03Z</time></trkpt><trkpt lat="40.2072633" lon="15.41142"><ele>444.0</ele><time>2026-03-28T11:47:21.03Z</time></trkpt><trkpt lat="40.207155" lon="15.4115"><ele>444.0</ele><time>2026-03-28T11:47:22.03Z</time></trkpt><trkpt lat="40.2070317" lon="15.4115683"><ele>444.0</ele><time>2026-03-28T11:47:23.029Z</time></trkpt><trkpt lat="40.2068917" lon="15.4116217"><ele>444.0</ele><time>2026-03-28T11:47:24.029Z</time></trkpt><trkpt lat="40.2067417" lon="15.4116717"><ele>444.0</ele><time>2026-03-28T11:47:25.029Z</time></trkpt><trkpt lat="40.2065983" lon="15.4117133"><ele>444.0</ele><time>2026-03-28T11:47:26.029Z</time></trkpt><trkpt lat="40.206465" lon="15.4117567"><ele>444.0</ele><time>2026-03-28T11:47:27.029Z</time></trkpt><trkpt lat="40.20634" lon="15.4118117"><ele>444.0</ele><time>2026-03-28T11:47:28.029Z</time></trkpt><trkpt lat="40.2062067" lon="15.4118883"><ele>448.25</ele><time>2026-03-28T11:47:29.029Z</time></trkpt><trkpt lat="40.20607" lon="15.41197"><ele>452.5</ele><time>2026-03-28T11:47:30.029Z</time></trkpt><trkpt lat="40.20595" lon="15.412045"><ele>456.75</ele><time>2026-03-28T11:47:31.029Z</time></trkpt><trkpt lat="40.2058417" lon="15.4120967"><ele>461.0</ele><time>2026-03-28T11:47:32.029Z</time></trkpt><trkpt lat="40.2057483" lon="15.4121233"><ele>460.99999999999994</ele><time>2026-03-28T11:47:33.03Z</time></trkpt><trkpt lat="40.20567" lon="15.4121083"><ele>461.0</ele><time>2026-03-28T11:47:34.029Z</time></trkpt><trkpt lat="40.2055933" lon="15.4120717"><ele>461.0</ele><time>2026-03-28T11:47:35.03Z</time></trkpt><trkpt lat="40.205525" lon="15.41201"><ele>461.0</ele><time>2026-03-28T11:47:36.03Z</time></trkpt><trkpt lat="40.2054617" lon="15.4119483"><ele>460.99999999999994</ele><time>2026-03-28T11:47:37.029Z</time></trkpt><trkpt lat="40.2054" lon="15.41189"><ele>461.0</ele><time>2026-03-28T11:47:38.029Z</time></trkpt><trkpt lat="40.20533" lon="15.411865"><ele>460.66666666666663</ele><time>2026-03-28T11:47:39.029Z</time></trkpt><trkpt lat="40.2052433" lon="15.4118633"><ele>460.3333333333333</ele><time>2026-03-28T11:47:40.029Z</time></trkpt><trkpt lat="40.2051433" lon="15.4118767"><ele>460.0</ele><time>2026-03-28T11:47:41.029Z</time></trkpt><trkpt lat="40.2050467" lon="15.4118833"><ele>459.66666666666663</ele><time>2026-03-28T11:47:42.029Z</time></trkpt><trkpt lat="40.2049667" lon="15.4118567"><ele>459.3333333333333</ele><time>2026-03-28T11:47:43.03Z</time></trkpt><trkpt lat="40.2048967" lon="15.4118"><ele>459.0</ele><time>2026-03-28T11:47:44.029Z</time></trkpt><trkpt lat="40.2048483" lon="15.4117283"><ele>460.0</ele><time>2026-03-28T11:47:45.029Z</time></trkpt><trkpt lat="40.2048083" lon="15.41162"><ele>461.0</ele><time>2026-03-28T11:47:46.029Z</time></trkpt><trkpt lat="40.2047567" lon="15.41153"><ele>462.0</ele><time>2026-03-28T11:47:47.03Z</time></trkpt><trkpt lat="40.2046967" lon="15.411465"><ele>463.0</ele><time>2026-03-28T11:47:48.03Z</time></trkpt><trkpt lat="40.2046233" lon="15.41142"><ele>464.0</ele><time>2026-03-28T11:47:49.029Z</time></trkpt><trkpt lat="40.2045317" lon="15.4113917"><ele>465.0</ele><time>2026-03-28T11:47:50.03Z</time></trkpt><trkpt lat="40.2044317" lon="15.4113783"><ele>465.0</ele><time>2026-03-28T11:47:51.03Z</time></trkpt><trkpt lat="40.20433" lon="15.4113667"><ele>465.0</ele><time>2026-03-28T11:47:52.03Z</time></trkpt><trkpt lat="40.2042433" lon="15.4113683"><ele>465.0</ele><time>2026-03-28T11:47:53.029Z</time></trkpt><trkpt lat="40.2041667" lon="15.4113833"><ele>465.0</ele><time>2026-03-28T11:47:54.03Z</time></trkpt><trkpt lat="40.204105" lon="15.4114267"><ele>465.0</ele><time>2026-03-28T11:47:55.029Z</time></trkpt><trkpt lat="40.2040583" lon="15.4114883"><ele>465.0</ele><time>2026-03-28T11:47:56.03Z</time></trkpt><trkpt lat="40.2040433" lon="15.4115917"><ele>465.0</ele><time>2026-03-28T11:47:57.029Z</time></trkpt><trkpt lat="40.204035" lon="15.4117233"><ele>465.0</ele><time>2026-03-28T11:47:58.029Z</time></trkpt><trkpt lat="40.2040367" lon="15.411865"><ele>465.0</ele><time>2026-03-28T11:47:59.03Z</time></trkpt><trkpt lat="40.20403" lon="15.412015"><ele>465.0</ele><time>2026-03-28T11:48:00.029Z</time></trkpt><trkpt lat="40.2040033" lon="15.4121433"><ele>465.0</ele><time>2026-03-28T11:48:01.029Z</time></trkpt><trkpt lat="40.2039533" lon="15.41225"><ele>463.6</ele><time>2026-03-28T11:48:02.029Z</time></trkpt><trkpt lat="40.203905" lon="15.4123167"><ele>462.2</ele><time>2026-03-28T11:48:03.029Z</time></trkpt><trkpt lat="40.2037833" lon="15.4123567"><ele>460.79999999999995</ele><time>2026-03-28T11:48:05.029Z</time></trkpt><trkpt lat="40.2037067" lon="15.4123317"><ele>459.4</ele><time>2026-03-28T11:48:06.029Z</time></trkpt><trkpt lat="40.203605" lon="15.4122517"><ele>458.0</ele><time>2026-03-28T11:48:07.03Z</time></trkpt><trkpt lat="40.2034767" lon="15.41216"><ele>466.66666666666663</ele><time>2026-03-28T11:48:08.029Z</time></trkpt><trkpt lat="40.203325" lon="15.412065"><ele>475.33333333333337</ele><time>2026-03-28T11:48:09.03Z</time></trkpt><trkpt lat="40.2031767" lon="15.411995"><ele>484.0</ele><time>2026-03-28T11:48:10.03Z</time></trkpt><trkpt lat="40.2030467" lon="15.4119317"><ele>484.0</ele><time>2026-03-28T11:48:11.03Z</time></trkpt><trkpt lat="40.2029333" lon="15.4118633"><ele>484.0</ele><time>2026-03-28T11:48:12.029Z</time></trkpt><trkpt lat="40.20283" lon="15.4118117"><ele>484.0</ele><time>2026-03-28T11:48:13.03Z</time></trkpt><trkpt lat="40.2027267" lon="15.41179"><ele>484.0</ele><time>2026-03-28T11:48:14.029Z</time></trkpt><trkpt lat="40.20262" lon="15.4118017"><ele>484.0</ele><time>2026-03-28T11:48:15.03Z</time></trkpt><trkpt lat="40.2025117" lon="15.411845"><ele>484.0</ele><time>2026-03-28T11:48:16.03Z</time></trkpt><trkpt lat="40.20239" lon="15.4119117"><ele>484.0</ele><time>2026-03-28T11:48:17.029Z</time></trkpt><trkpt lat="40.2022817" lon="15.4120083"><ele>484.0</ele><time>2026-03-28T11:48:18.03Z</time></trkpt><trkpt lat="40.2021733" lon="15.4121217"><ele>484.0</ele><time>2026-03-28T11:48:19.03Z</time></trkpt><trkpt lat="40.2020633" lon="15.4122533"><ele>482.5</ele><time>2026-03-28T11:48:20.03Z</time></trkpt><trkpt lat="40.201955" lon="15.4123683"><ele>481.0</ele><time>2026-03-28T11:48:21.029Z</time></trkpt><trkpt lat="40.20184" lon="15.4124567"><ele>479.5</ele><time>2026-03-28T11:48:22.029Z</time></trkpt><trkpt lat="40.2017217" lon="15.4125333"><ele>478.0</ele><time>2026-03-28T11:48:23.03Z</time></trkpt><trkpt lat="40.2016" lon="15.4125917"><ele>475.79999999999995</ele><time>2026-03-28T11:48:24.029Z</time></trkpt><trkpt lat="40.2014817" lon="15.4126283"><ele>473.59999999999997</ele><time>2026-03-28T11:48:25.029Z</time></trkpt><trkpt lat="40.2013733" lon="15.4126333"><ele>471.40000000000003</ele><time>2026-03-28T11:48:26.029Z</time></trkpt><trkpt lat="40.2012767" lon="15.4126217"><ele>469.20000000000005</ele><time>2026-03-28T11:48:27.029Z</time></trkpt><trkpt lat="40.2011983" lon="15.4125867"><ele>467.0</ele><time>2026-03-28T11:48:28.03Z</time></trkpt><trkpt lat="40.2011367" lon="15.41254"><ele>466.99999999999994</ele><time>2026-03-28T11:48:29.03Z</time></trkpt><trkpt lat="40.2011" lon="15.41247"><ele>467.0</ele><time>2026-03-28T11:48:30.03Z</time></trkpt><trkpt lat="40.2010833" lon="15.4123667"><ele>467.0</ele><time>2026-03-28T11:48:31.03Z</time></trkpt><trkpt lat="40.2010733" lon="15.4122367"><ele>467.0</ele><time>2026-03-28T11:48:32.029Z</time></trkpt><trkpt lat="40.2010683" lon="15.41211"><ele>466.99999999999994</ele><time>2026-03-28T11:48:33.03Z</time></trkpt><trkpt lat="40.2010633" lon="15.4120067"><ele>467.0</ele><time>2026-03-28T11:48:34.03Z</time></trkpt><trkpt lat="40.201075" lon="15.411925"><ele>466.99999999999994</ele><time>2026-03-28T11:48:35.03Z</time></trkpt><trkpt lat="40.2011633" lon="15.41184"><ele>467.0</ele><time>2026-03-28T11:48:37.029Z</time></trkpt><trkpt lat="40.2012433" lon="15.4119483"><ele>467.0</ele><time>2026-03-28T11:48:39.029Z</time></trkpt><trkpt lat="40.201255" lon="15.41203"><ele>467.0</ele><time>2026-03-28T11:48:40.03Z</time></trkpt><trkpt lat="40.2012467" lon="15.4121317"><ele>466.99999999999994</ele><time>2026-03-28T11:48:41.03Z</time></trkpt><trkpt lat="40.2012483" lon="15.41224"><ele>467.0</ele><time>2026-03-28T11:48:42.029Z</time></trkpt><trkpt lat="40.2012783" lon="15.4123283"><ele>466.99999999999994</ele><time>2026-03-28T11:48:43.03Z</time></trkpt><trkpt lat="40.2013317" lon="15.412385"><ele>467.0</ele><time>2026-03-28T11:48:44.03Z</time></trkpt><trkpt lat="40.2014" lon="15.4124133"><ele>467.0</ele><time>2026-03-28T11:48:45.029Z</time></trkpt><trkpt lat="40.2014733" lon="15.4124017"><ele>467.0</ele><time>2026-03-28T11:48:46.03Z</time></trkpt><trkpt lat="40.2015567" lon="15.4123567"><ele>466.99999999999994</ele><time>2026-03-28T11:48:47.029Z</time></trkpt><trkpt lat="40.2016333" lon="15.412285"><ele>467.0</ele><time>2026-03-28T11:48:48.029Z</time></trkpt><trkpt lat="40.2016933" lon="15.4121933"><ele>473.0</ele><time>2026-03-28T11:48:49.029Z</time></trkpt><trkpt lat="40.2017383" lon="15.4120667"><ele>479.0</ele><time>2026-03-28T11:48:50.029Z</time></trkpt><trkpt lat="40.2017717" lon="15.4119217"><ele>485.0</ele><time>2026-03-28T11:48:51.029Z</time></trkpt><trkpt lat="40.2018133" lon="15.41177"><ele>491.0</ele><time>2026-03-28T11:48:52.03Z</time></trkpt><trkpt lat="40.2018683" lon="15.4115983"><ele>491.0</ele><time>2026-03-28T11:48:53.03Z</time></trkpt><trkpt lat="40.201945" lon="15.41144"><ele>491.0</ele><time>2026-03-28T11:48:54.029Z</time></trkpt><trkpt lat="40.2020317" lon="15.41131"><ele>491.0</ele><time>2026-03-28T11:48:55.029Z</time></trkpt><trkpt lat="40.20213" lon="15.4111983"><ele>491.0</ele><time>2026-03-28T11:48:56.03Z</time></trkpt><trkpt lat="40.2022383" lon="15.4111017"><ele>495.0</ele><time>2026-03-28T11:48:57.03Z</time></trkpt><trkpt lat="40.20236" lon="15.411015"><ele>499.0</ele><time>2026-03-28T11:48:58.03Z</time></trkpt><trkpt lat="40.2024833" lon="15.4109383"><ele>503.0</ele><time>2026-03-28T11:48:59.03Z</time></trkpt><trkpt lat="40.2025967" lon="15.4108733"><ele>507.0</ele><time>2026-03-28T11:49:00.029Z</time></trkpt><trkpt lat="40.2027017" lon="15.4108283"><ele>507.0</ele><time>2026-03-28T11:49:01.03Z</time></trkpt><trkpt lat="40.20279" lon="15.410815"><ele>507.0</ele><time>2026-03-28T11:49:02.029Z</time></trkpt><trkpt lat="40.2028717" lon="15.41083"><ele>507.0</ele><time>2026-03-28T11:49:03.029Z</time></trkpt><trkpt lat="40.202945" lon="15.4108783"><ele>507.0</ele><time>2026-03-28T11:49:04.03Z</time></trkpt><trkpt lat="40.2030067" lon="15.41095"><ele>507.0</ele><time>2026-03-28T11:49:05.029Z</time></trkpt><trkpt lat="40.20306" lon="15.4110283"><ele>507.0</ele><time>2026-03-28T11:49:06.029Z</time></trkpt><trkpt lat="40.2031217" lon="15.4110883"><ele>506.0</ele><time>2026-03-28T11:49:07.03Z</time></trkpt><trkpt lat="40.2031883" lon="15.4111183"><ele>505.0</ele><time>2026-03-28T11:49:08.029Z</time></trkpt><trkpt lat="40.20325" lon="15.41109"><ele>504.0</ele><time>2026-03-28T11:49:09.03Z</time></trkpt><trkpt lat="40.203295" lon="15.411025"><ele>503.0</ele><time>2026-03-28T11:49:10.029Z</time></trkpt><trkpt lat="40.203315" lon="15.4109383"><ele>502.0</ele><time>2026-03-28T11:49:11.029Z</time></trkpt><trkpt lat="40.20331" lon="15.41085"><ele>501.0</ele><time>2026-03-28T11:49:12.029Z</time></trkpt><trkpt lat="40.203285" lon="15.4107483"><ele>500.0</ele><time>2026-03-28T11:49:13.03Z</time></trkpt><trkpt lat="40.2032467" lon="15.41063"><ele>499.99999999999994</ele><time>2026-03-28T11:49:14.029Z</time></trkpt><trkpt lat="40.2031933" lon="15.4105283"><ele>500.0</ele><time>2026-03-28T11:49:15.03Z</time></trkpt><trkpt lat="40.2031333" lon="15.410445"><ele>500.0</ele><time>2026-03-28T11:49:16.029Z</time></trkpt><trkpt lat="40.2030717" lon="15.4104"><ele>500.0</ele><time>2026-03-28T11:49:17.03Z</time></trkpt><trkpt lat="40.20299" lon="15.410385"><ele>499.99999999999994</ele><time>2026-03-28T11:49:18.029Z</time></trkpt><trkpt lat="40.202895" lon="15.410385"><ele>500.0</ele><time>2026-03-28T11:49:19.029Z</time></trkpt><trkpt lat="40.2027667" lon="15.4104117"><ele>504.0</ele><time>2026-03-28T11:49:20.029Z</time></trkpt><trkpt lat="40.20262" lon="15.4104467"><ele>508.0</ele><time>2026-03-28T11:49:21.03Z</time></trkpt><trkpt lat="40.202455" lon="15.4104883"><ele>512.0</ele><time>2026-03-28T11:49:22.029Z</time></trkpt><trkpt lat="40.2022967" lon="15.410545"><ele>512.0</ele><time>2026-03-28T11:49:23.029Z</time></trkpt><trkpt lat="40.2021533" lon="15.410595"><ele>512.0</ele><time>2026-03-28T11:49:24.029Z</time></trkpt><trkpt lat="40.202035" lon="15.4106367"><ele>512.0</ele><time>2026-03-28T11:49:25.03Z</time></trkpt><trkpt lat="40.2019317" lon="15.41064"><ele>512.0</ele><time>2026-03-28T11:49:26.029Z</time></trkpt><trkpt lat="40.201835" lon="15.4106017"><ele>512.0</ele><time>2026-03-28T11:49:27.03Z</time></trkpt><trkpt lat="40.2017583" lon="15.4105333"><ele>512.0</ele><time>2026-03-28T11:49:28.03Z</time></trkpt><trkpt lat="40.2016867" lon="15.41044"><ele>512.0</ele><time>2026-03-28T11:49:29.029Z</time></trkpt><trkpt lat="40.20161" lon="15.41032"><ele>512.0</ele><time>2026-03-28T11:49:30.029Z</time></trkpt><trkpt lat="40.2015233" lon="15.410185"><ele>512.0</ele><time>2026-03-28T11:49:31.03Z</time></trkpt><trkpt lat="40.2014383" lon="15.41003"><ele>511.75</ele><time>2026-03-28T11:49:32.03Z</time></trkpt><trkpt lat="40.2013583" lon="15.409865"><ele>511.5</ele><time>2026-03-28T11:49:33.03Z</time></trkpt><trkpt lat="40.2012917" lon="15.4097017"><ele>511.25</ele><time>2026-03-28T11:49:34.029Z</time></trkpt><trkpt lat="40.201215" lon="15.4095483"><ele>511.0</ele><time>2026-03-28T11:49:35.029Z</time></trkpt><trkpt lat="40.201125" lon="15.4094017"><ele>513.5</ele><time>2026-03-28T11:49:36.029Z</time></trkpt><trkpt lat="40.201005" lon="15.409285"><ele>516.0</ele><time>2026-03-28T11:49:37.03Z</time></trkpt><trkpt lat="40.20088" lon="15.4091933"><ele>518.5</ele><time>2026-03-28T11:49:38.03Z</time></trkpt><trkpt lat="40.2007517" lon="15.4091133"><ele>521.0</ele><time>2026-03-28T11:49:39.03Z</time></trkpt><trkpt lat="40.20062" lon="15.4090517"><ele>521.0</ele><time>2026-03-28T11:49:40.029Z</time></trkpt><trkpt lat="40.2005083" lon="15.408985"><ele>521.0</ele><time>2026-03-28T11:49:41.029Z</time></trkpt><trkpt lat="40.2004067" lon="15.408895"><ele>521.0</ele><time>2026-03-28T11:49:42.03Z</time></trkpt><trkpt lat="40.2003033" lon="15.4088"><ele>521.0</ele><time>2026-03-28T11:49:43.03Z</time></trkpt><trkpt lat="40.2001933" lon="15.4087017"><ele>525.75</ele><time>2026-03-28T11:49:44.03Z</time></trkpt><trkpt lat="40.2000767" lon="15.4086283"><ele>530.5</ele><time>2026-03-28T11:49:45.029Z</time></trkpt><trkpt lat="40.1999517" lon="15.4085717"><ele>535.25</ele><time>2026-03-28T11:49:46.029Z</time></trkpt><trkpt lat="40.1998133" lon="15.408525"><ele>540.0</ele><time>2026-03-28T11:49:47.029Z</time></trkpt><trkpt lat="40.1996933" lon="15.4084867"><ele>540.0</ele><time>2026-03-28T11:49:48.029Z</time></trkpt><trkpt lat="40.1995867" lon="15.408445"><ele>540.0</ele><time>2026-03-28T11:49:49.029Z</time></trkpt><trkpt lat="40.1995017" lon="15.408385"><ele>540.0</ele><time>2026-03-28T11:49:50.029Z</time></trkpt><trkpt lat="40.1994333" lon="15.408305"><ele>540.0</ele><time>2026-03-28T11:49:51.029Z</time></trkpt><trkpt lat="40.199375" lon="15.4082183"><ele>540.0</ele><time>2026-03-28T11:49:52.03Z</time></trkpt><trkpt lat="40.1993067" lon="15.40816"><ele>540.0</ele><time>2026-03-28T11:49:53.03Z</time></trkpt><trkpt lat="40.1992283" lon="15.4081267"><ele>540.0</ele><time>2026-03-28T11:49:54.029Z</time></trkpt><trkpt lat="40.1991417" lon="15.4081183"><ele>540.0</ele><time>2026-03-28T11:49:55.029Z</time></trkpt><trkpt lat="40.199045" lon="15.40814"><ele>540.0</ele><time>2026-03-28T11:49:56.03Z</time></trkpt><trkpt lat="40.1989333" lon="15.408185"><ele>540.0</ele><time>2026-03-28T11:49:57.03Z</time></trkpt><trkpt lat="40.198815" lon="15.4082317"><ele>539.6</ele><time>2026-03-28T11:49:58.029Z</time></trkpt><trkpt lat="40.1987" lon="15.408265"><ele>539.2</ele><time>2026-03-28T11:49:59.029Z</time></trkpt><trkpt lat="40.1985967" lon="15.4082717"><ele>538.8</ele><time>2026-03-28T11:50:00.03Z</time></trkpt><trkpt lat="40.1985" lon="15.4082417"><ele>538.4</ele><time>2026-03-28T11:50:01.03Z</time></trkpt><trkpt lat="40.1984" lon="15.4081833"><ele>538.0</ele><time>2026-03-28T11:50:02.03Z</time></trkpt><trkpt lat="40.1983033" lon="15.4081117"><ele>538.0</ele><time>2026-03-28T11:50:03.029Z</time></trkpt><trkpt lat="40.198205" lon="15.408055"><ele>538.0</ele><time>2026-03-28T11:50:04.03Z</time></trkpt><trkpt lat="40.1980833" lon="15.408025"><ele>538.0</ele><time>2026-03-28T11:50:05.029Z</time></trkpt><trkpt lat="40.1979517" lon="15.4080217"><ele>538.0</ele><time>2026-03-28T11:50:06.029Z</time></trkpt><trkpt lat="40.1978033" lon="15.40804"><ele>538.0</ele><time>2026-03-28T11:50:07.03Z</time></trkpt><trkpt lat="40.1976533" lon="15.40807"><ele>538.0</ele><time>2026-03-28T11:50:08.029Z</time></trkpt><trkpt lat="40.19751" lon="15.4080983"><ele>538.0</ele><time>2026-03-28T11:50:09.029Z</time></trkpt><trkpt lat="40.1973817" lon="15.4081217"><ele>538.0</ele><time>2026-03-28T11:50:10.03Z</time></trkpt><trkpt lat="40.19726" lon="15.4081367"><ele>538.0</ele><time>2026-03-28T11:50:11.03Z</time></trkpt><trkpt lat="40.1971433" lon="15.40813"><ele>538.0</ele><time>2026-03-28T11:50:12.029Z</time></trkpt><trkpt lat="40.1970283" lon="15.4080917"><ele>538.0</ele><time>2026-03-28T11:50:13.03Z</time></trkpt><trkpt lat="40.1969117" lon="15.4080267"><ele>538.0</ele><time>2026-03-28T11:50:14.03Z</time></trkpt><trkpt lat="40.1967883" lon="15.4079383"><ele>545.3333333333334</ele><time>2026-03-28T11:50:15.029Z</time></trkpt><trkpt lat="40.1966533" lon="15.407835"><ele>552.6666666666666</ele><time>2026-03-28T11:50:16.03Z</time></trkpt><trkpt lat="40.1965117" lon="15.4077333"><ele>560.0</ele><time>2026-03-28T11:50:17.03Z</time></trkpt><trkpt lat="40.1963633" lon="15.40764"><ele>560.0</ele><time>2026-03-28T11:50:18.03Z</time></trkpt><trkpt lat="40.19621" lon="15.407575"><ele>560.0</ele><time>2026-03-28T11:50:19.029Z</time></trkpt><trkpt lat="40.1960683" lon="15.40753"><ele>560.0</ele><time>2026-03-28T11:50:20.03Z</time></trkpt><trkpt lat="40.1959117" lon="15.4075"><ele>560.0</ele><time>2026-03-28T11:50:21.03Z</time></trkpt><trkpt lat="40.19574" lon="15.4074983"><ele>560.0</ele><time>2026-03-28T11:50:22.03Z</time></trkpt><trkpt lat="40.1955633" lon="15.40751"><ele>560.0</ele><time>2026-03-28T11:50:23.03Z</time></trkpt><trkpt lat="40.1953767" lon="15.407525"><ele>559.6666666666666</ele><time>2026-03-28T11:50:24.031Z</time></trkpt><trkpt lat="40.1951867" lon="15.4075133"><ele>559.3333333333334</ele><time>2026-03-28T11:50:25.031Z</time></trkpt><trkpt lat="40.195005" lon="15.4074733"><ele>559.0</ele><time>2026-03-28T11:50:26.031Z</time></trkpt><trkpt lat="40.1948317" lon="15.4074433"><ele>557.25</ele><time>2026-03-28T11:50:27.03Z</time></trkpt><trkpt lat="40.1946883" lon="15.4074217"><ele>555.5</ele><time>2026-03-28T11:50:28.03Z</time></trkpt><trkpt lat="40.194545" lon="15.4073967"><ele>553.75</ele><time>2026-03-28T11:50:29.031Z</time></trkpt><trkpt lat="40.1944183" lon="15.4073617"><ele>552.0</ele><time>2026-03-28T11:50:30.031Z</time></trkpt><trkpt lat="40.1943083" lon="15.40731"><ele>552.0</ele><time>2026-03-28T11:50:31.031Z</time></trkpt><trkpt lat="40.19421" lon="15.4072483"><ele>552.0</ele><time>2026-03-28T11:50:32.031Z</time></trkpt><trkpt lat="40.194125" lon="15.407155"><ele>552.0</ele><time>2026-03-28T11:50:33.031Z</time></trkpt><trkpt lat="40.19405" lon="15.40704"><ele>552.0</ele><time>2026-03-28T11:50:34.03Z</time></trkpt><trkpt lat="40.1939883" lon="15.4069167"><ele>552.0</ele><time>2026-03-28T11:50:35.031Z</time></trkpt><trkpt lat="40.19394" lon="15.406795"><ele>551.4</ele><time>2026-03-28T11:50:36.03Z</time></trkpt><trkpt lat="40.1939133" lon="15.4066633"><ele>550.8000000000001</ele><time>2026-03-28T11:50:37.03Z</time></trkpt><trkpt lat="40.1939" lon="15.4065383"><ele>550.2</ele><time>2026-03-28T11:50:38.031Z</time></trkpt><trkpt lat="40.1938983" lon="15.40641"><ele>549.6</ele><time>2026-03-28T11:50:39.03Z</time></trkpt><trkpt lat="40.1939083" lon="15.4062767"><ele>549.0</ele><time>2026-03-28T11:50:40.031Z</time></trkpt><trkpt lat="40.1939" lon="15.4061433"><ele>553.25</ele><time>2026-03-28T11:50:41.03Z</time></trkpt><trkpt lat="40.1938683" lon="15.4060183"><ele>557.5</ele><time>2026-03-28T11:50:42.03Z</time></trkpt><trkpt lat="40.1938117" lon="15.4058917"><ele>561.75</ele><time>2026-03-28T11:50:43.03Z</time></trkpt><trkpt lat="40.1937367" lon="15.4057767"><ele>566.0</ele><time>2026-03-28T11:50:44.031Z</time></trkpt><trkpt lat="40.19365" lon="15.40565"><ele>566.0</ele><time>2026-03-28T11:50:45.031Z</time></trkpt><trkpt lat="40.19356" lon="15.4055233"><ele>566.0</ele><time>2026-03-28T11:50:46.031Z</time></trkpt><trkpt lat="40.1934817" lon="15.405415"><ele>566.0</ele><time>2026-03-28T11:50:47.03Z</time></trkpt><trkpt lat="40.1934017" lon="15.4053317"><ele>566.0</ele><time>2026-03-28T11:50:48.03Z</time></trkpt><trkpt lat="40.193325" lon="15.4052833"><ele>566.0</ele><time>2026-03-28T11:50:49.03Z</time></trkpt><trkpt lat="40.1932433" lon="15.4052483"><ele>572.8</ele><time>2026-03-28T11:50:50.03Z</time></trkpt><trkpt lat="40.1931583" lon="15.4052317"><ele>579.6</ele><time>2026-03-28T11:50:51.03Z</time></trkpt><trkpt lat="40.19307" lon="15.40525"><ele>586.4</ele><time>2026-03-28T11:50:52.031Z</time></trkpt><trkpt lat="40.1929833" lon="15.4052917"><ele>593.2</ele><time>2026-03-28T11:50:53.031Z</time></trkpt><trkpt lat="40.1929" lon="15.40536"><ele>600.0</ele><time>2026-03-28T11:50:54.031Z</time></trkpt><trkpt lat="40.1928133" lon="15.405455"><ele>594.25</ele><time>2026-03-28T11:50:55.031Z</time></trkpt><trkpt lat="40.1927333" lon="15.4055767"><ele>588.5</ele><time>2026-03-28T11:50:56.03Z</time></trkpt><trkpt lat="40.19266" lon="15.4057217"><ele>582.75</ele><time>2026-03-28T11:50:57.03Z</time></trkpt><trkpt lat="40.1925983" lon="15.4058633"><ele>577.0</ele><time>2026-03-28T11:50:58.03Z</time></trkpt><trkpt lat="40.1925433" lon="15.4059833"><ele>577.0</ele><time>2026-03-28T11:50:59.03Z</time></trkpt><trkpt lat="40.1924833" lon="15.4060883"><ele>577.0</ele><time>2026-03-28T11:51:00.031Z</time></trkpt><trkpt lat="40.1924017" lon="15.4061583"><ele>577.0</ele><time>2026-03-28T11:51:01.031Z</time></trkpt><trkpt lat="40.1922917" lon="15.406215"><ele>577.0</ele><time>2026-03-28T11:51:02.03Z</time></trkpt><trkpt lat="40.1921667" lon="15.4062567"><ele>577.0</ele><time>2026-03-28T11:51:03.03Z</time></trkpt><trkpt lat="40.1920383" lon="15.4063183"><ele>576.75</ele><time>2026-03-28T11:51:04.03Z</time></trkpt><trkpt lat="40.1919133" lon="15.4064033"><ele>576.5</ele><time>2026-03-28T11:51:05.03Z</time></trkpt><trkpt lat="40.191805" lon="15.4065033"><ele>576.25</ele><time>2026-03-28T11:51:06.03Z</time></trkpt><trkpt lat="40.1917133" lon="15.4065933"><ele>576.0</ele><time>2026-03-28T11:51:07.031Z</time></trkpt><trkpt lat="40.1916183" lon="15.4066433"><ele>576.0</ele><time>2026-03-28T11:51:08.03Z</time></trkpt><trkpt lat="40.1915267" lon="15.4066517"><ele>576.0</ele><time>2026-03-28T11:51:09.03Z</time></trkpt><trkpt lat="40.1914233" lon="15.4066267"><ele>576.0</ele><time>2026-03-28T11:51:10.03Z</time></trkpt><trkpt lat="40.191305" lon="15.4065817"><ele>576.0</ele><time>2026-03-28T11:51:11.03Z</time></trkpt><trkpt lat="40.19116" lon="15.40655"><ele>578.0</ele><time>2026-03-28T11:51:12.03Z</time></trkpt><trkpt lat="40.1909917" lon="15.4065167"><ele>580.0</ele><time>2026-03-28T11:51:13.031Z</time></trkpt><trkpt lat="40.190835" lon="15.406485"><ele>582.0</ele><time>2026-03-28T11:51:14.03Z</time></trkpt><trkpt lat="40.190695" lon="15.4064683"><ele>583.0</ele><time>2026-03-28T11:51:15.031Z</time></trkpt><trkpt lat="40.1905517" lon="15.4064833"><ele>584.0</ele><time>2026-03-28T11:51:16.031Z</time></trkpt><trkpt lat="40.1904133" lon="15.40652"><ele>585.0</ele><time>2026-03-28T11:51:17.031Z</time></trkpt><trkpt lat="40.19029" lon="15.4065617"><ele>586.0</ele><time>2026-03-28T11:51:18.031Z</time></trkpt><trkpt lat="40.1901783" lon="15.40658"><ele>586.0</ele><time>2026-03-28T11:51:19.031Z</time></trkpt><trkpt lat="40.1900817" lon="15.4065617"><ele>586.0</ele><time>2026-03-28T11:51:20.031Z</time></trkpt><trkpt lat="40.1900017" lon="15.4065017"><ele>586.0</ele><time>2026-03-28T11:51:21.03Z</time></trkpt><trkpt lat="40.1899233" lon="15.40642"><ele>586.0</ele><time>2026-03-28T11:51:22.031Z</time></trkpt><trkpt lat="40.18985" lon="15.4063533"><ele>586.0</ele><time>2026-03-28T11:51:23.03Z</time></trkpt><trkpt lat="40.1897817" lon="15.406325"><ele>589.5</ele><time>2026-03-28T11:51:24.031Z</time></trkpt><trkpt lat="40.1897167" lon="15.4063283"><ele>593.0</ele><time>2026-03-28T11:51:25.03Z</time></trkpt><trkpt lat="40.1896367" lon="15.4063617"><ele>596.5</ele><time>2026-03-28T11:51:26.03Z</time></trkpt><trkpt lat="40.1895667" lon="15.4064083"><ele>600.0</ele><time>2026-03-28T11:51:27.031Z</time></trkpt><trkpt lat="40.1894933" lon="15.40646"><ele>603.5</ele><time>2026-03-28T11:51:28.031Z</time></trkpt><trkpt lat="40.18942" lon="15.40653"><ele>607.0</ele><time>2026-03-28T11:51:29.03Z</time></trkpt><trkpt lat="40.189355" lon="15.40664"><ele>607.0</ele><time>2026-03-28T11:51:30.031Z</time></trkpt><trkpt lat="40.1893" lon="15.4067833"><ele>607.0</ele><time>2026-03-28T11:51:31.031Z</time></trkpt><trkpt lat="40.1892517" lon="15.4069533"><ele>607.0</ele><time>2026-03-28T11:51:32.03Z</time></trkpt><trkpt lat="40.1891967" lon="15.4071083"><ele>607.0</ele><time>2026-03-28T11:51:33.031Z</time></trkpt><trkpt lat="40.1891483" lon="15.4072483"><ele>609.4</ele><time>2026-03-28T11:51:34.031Z</time></trkpt><trkpt lat="40.1890933" lon="15.4073617"><ele>611.8000000000001</ele><time>2026-03-28T11:51:35.03Z</time></trkpt><trkpt lat="40.1890317" lon="15.4074567"><ele>614.2</ele><time>2026-03-28T11:51:36.03Z</time></trkpt><trkpt lat="40.18895" lon="15.4075433"><ele>616.6</ele><time>2026-03-28T11:51:37.031Z</time></trkpt><trkpt lat="40.1888633" lon="15.4076183"><ele>619.0</ele><time>2026-03-28T11:51:38.031Z</time></trkpt><trkpt lat="40.188765" lon="15.4077017"><ele>619.0</ele><time>2026-03-28T11:51:39.03Z</time></trkpt><trkpt lat="40.18865" lon="15.40777"><ele>619.0</ele><time>2026-03-28T11:51:40.031Z</time></trkpt><trkpt lat="40.1885183" lon="15.407845"><ele>619.0</ele><time>2026-03-28T11:51:41.031Z</time></trkpt><trkpt lat="40.1883817" lon="15.4079083"><ele>619.0</ele><time>2026-03-28T11:51:42.031Z</time></trkpt><trkpt lat="40.188235" lon="15.407975"><ele>611.75</ele><time>2026-03-28T11:51:43.031Z</time></trkpt><trkpt lat="40.1880983" lon="15.408035"><ele>604.5</ele><time>2026-03-28T11:51:44.03Z</time></trkpt><trkpt lat="40.1879783" lon="15.4081067"><ele>597.25</ele><time>2026-03-28T11:51:45.031Z</time></trkpt><trkpt lat="40.1878667" lon="15.408185"><ele>590.0</ele><time>2026-03-28T11:51:46.031Z</time></trkpt><trkpt lat="40.1877533" lon="15.4082517"><ele>590.0</ele><time>2026-03-28T11:51:47.03Z</time></trkpt><trkpt lat="40.187645" lon="15.4082633"><ele>590.0</ele><time>2026-03-28T11:51:48.03Z</time></trkpt><trkpt lat="40.1875217" lon="15.4082583"><ele>590.0</ele><time>2026-03-28T11:51:49.03Z</time></trkpt><trkpt lat="40.187405" lon="15.4082217"><ele>590.0</ele><time>2026-03-28T11:51:50.03Z</time></trkpt><trkpt lat="40.1872933" lon="15.4081717"><ele>592.8</ele><time>2026-03-28T11:51:51.03Z</time></trkpt><trkpt lat="40.18719" lon="15.4081067"><ele>595.6</ele><time>2026-03-28T11:51:52.03Z</time></trkpt><trkpt lat="40.1871083" lon="15.4080217"><ele>598.4</ele><time>2026-03-28T11:51:53.03Z</time></trkpt><trkpt lat="40.18704" lon="15.40791"><ele>601.2</ele><time>2026-03-28T11:51:54.03Z</time></trkpt><trkpt lat="40.1869883" lon="15.4077917"><ele>604.0</ele><time>2026-03-28T11:51:55.031Z</time></trkpt><trkpt lat="40.18695" lon="15.4076817"><ele>604.0</ele><time>2026-03-28T11:51:56.03Z</time></trkpt><trkpt lat="40.186945" lon="15.4075583"><ele>604.0</ele><time>2026-03-28T11:51:57.031Z</time></trkpt><trkpt lat="40.1869583" lon="15.4074417"><ele>604.0</ele><time>2026-03-28T11:51:58.031Z</time></trkpt><trkpt lat="40.18696" lon="15.4073383"><ele>604.0</ele><time>2026-03-28T11:51:59.03Z</time></trkpt><trkpt lat="40.1869283" lon="15.40725"><ele>604.0</ele><time>2026-03-28T11:52:00.031Z</time></trkpt><trkpt lat="40.186825" lon="15.4071717"><ele>604.0</ele><time>2026-03-28T11:52:02.031Z</time></trkpt><trkpt lat="40.186755" lon="15.407175"><ele>604.0</ele><time>2026-03-28T11:52:03.03Z</time></trkpt><trkpt lat="40.1866867" lon="15.4072167"><ele>604.0</ele><time>2026-03-28T11:52:04.03Z</time></trkpt><trkpt lat="40.1866017" lon="15.4072633"><ele>604.0</ele><time>2026-03-28T11:52:05.031Z</time></trkpt><trkpt lat="40.1864967" lon="15.4072967"><ele>604.0</ele><time>2026-03-28T11:52:06.03Z</time></trkpt><trkpt lat="40.1863717" lon="15.407325"><ele>605.0</ele><time>2026-03-28T11:52:07.03Z</time></trkpt><trkpt lat="40.1862333" lon="15.407365"><ele>606.0</ele><time>2026-03-28T11:52:08.03Z</time></trkpt><trkpt lat="40.1860867" lon="15.4074117"><ele>607.0</ele><time>2026-03-28T11:52:09.031Z</time></trkpt><trkpt lat="40.18594" lon="15.4074367"><ele>608.0</ele><time>2026-03-28T11:52:10.03Z</time></trkpt><trkpt lat="40.1858" lon="15.4074483"><ele>612.75</ele><time>2026-03-28T11:52:11.03Z</time></trkpt><trkpt lat="40.1856583" lon="15.4074667"><ele>617.5</ele><time>2026-03-28T11:52:12.03Z</time></trkpt><trkpt lat="40.18552" lon="15.40751"><ele>622.25</ele><time>2026-03-28T11:52:13.03Z</time></trkpt><trkpt lat="40.18538" lon="15.407575"><ele>627.0</ele><time>2026-03-28T11:52:14.031Z</time></trkpt><trkpt lat="40.18524" lon="15.40767"><ele>627.0</ele><time>2026-03-28T11:52:15.031Z</time></trkpt><trkpt lat="40.18511" lon="15.4077883"><ele>627.0</ele><time>2026-03-28T11:52:16.031Z</time></trkpt><trkpt lat="40.1849983" lon="15.4079283"><ele>627.0</ele><time>2026-03-28T11:52:17.031Z</time></trkpt><trkpt lat="40.1848967" lon="15.408075"><ele>627.25</ele><time>2026-03-28T11:52:18.031Z</time></trkpt><trkpt lat="40.18481" lon="15.4082117"><ele>627.5</ele><time>2026-03-28T11:52:19.03Z</time></trkpt><trkpt lat="40.1847533" lon="15.4083567"><ele>627.75</ele><time>2026-03-28T11:52:20.031Z</time></trkpt><trkpt lat="40.18471" lon="15.408515"><ele>628.0</ele><time>2026-03-28T11:52:21.03Z</time></trkpt><trkpt lat="40.1846933" lon="15.4086733"><ele>628.0</ele><time>2026-03-28T11:52:22.03Z</time></trkpt><trkpt lat="40.1846917" lon="15.40882"><ele>628.0</ele><time>2026-03-28T11:52:23.031Z</time></trkpt><trkpt lat="40.1846867" lon="15.40895"><ele>628.0</ele><time>2026-03-28T11:52:24.03Z</time></trkpt><trkpt lat="40.18466" lon="15.4090617"><ele>628.0</ele><time>2026-03-28T11:52:25.03Z</time></trkpt><trkpt lat="40.1846083" lon="15.4091567"><ele>628.0</ele><time>2026-03-28T11:52:26.03Z</time></trkpt><trkpt lat="40.1845333" lon="15.40925"><ele>623.0</ele><time>2026-03-28T11:52:27.03Z</time></trkpt><trkpt lat="40.1844217" lon="15.4093267"><ele>618.0</ele><time>2026-03-28T11:52:28.031Z</time></trkpt><trkpt lat="40.1842783" lon="15.409405"><ele>613.0</ele><time>2026-03-28T11:52:29.03Z</time></trkpt><trkpt lat="40.184135" lon="15.4094783"><ele>608.0</ele><time>2026-03-28T11:52:30.03Z</time></trkpt><trkpt lat="40.1839933" lon="15.409545"><ele>608.0</ele><time>2026-03-28T11:52:31.03Z</time></trkpt><trkpt lat="40.1838583" lon="15.4096083"><ele>608.0</ele><time>2026-03-28T11:52:32.03Z</time></trkpt><trkpt lat="40.1837217" lon="15.409655"><ele>608.0</ele><time>2026-03-28T11:52:33.031Z</time></trkpt><trkpt lat="40.1835783" lon="15.4096567"><ele>608.0</ele><time>2026-03-28T11:52:34.031Z</time></trkpt><trkpt lat="40.1834217" lon="15.409645"><ele>608.0</ele><time>2026-03-28T11:52:35.031Z</time></trkpt><trkpt lat="40.18325" lon="15.4096333"><ele>608.0</ele><time>2026-03-28T11:52:36.03Z</time></trkpt><trkpt lat="40.1830667" lon="15.4096233"><ele>608.0</ele><time>2026-03-28T11:52:37.03Z</time></trkpt><trkpt lat="40.1828883" lon="15.4096367"><ele>609.3333333333333</ele><time>2026-03-28T11:52:38.031Z</time></trkpt><trkpt lat="40.182715" lon="15.4096583"><ele>610.6666666666666</ele><time>2026-03-28T11:52:39.03Z</time></trkpt><trkpt lat="40.1825517" lon="15.4096833"><ele>612.0</ele><time>2026-03-28T11:52:40.03Z</time></trkpt><trkpt lat="40.1823983" lon="15.4097067"><ele>604.6666666666666</ele><time>2026-03-28T11:52:41.03Z</time></trkpt><trkpt lat="40.1822417" lon="15.409735"><ele>597.3333333333333</ele><time>2026-03-28T11:52:42.03Z</time></trkpt><trkpt lat="40.18209" lon="15.4097833"><ele>590.0</ele><time>2026-03-28T11:52:43.03Z</time></trkpt><trkpt lat="40.1819483" lon="15.4098367"><ele>590.0</ele><time>2026-03-28T11:52:44.031Z</time></trkpt><trkpt lat="40.18181" lon="15.4098817"><ele>590.0</ele><time>2026-03-28T11:52:45.03Z</time></trkpt><trkpt lat="40.181675" lon="15.4099"><ele>590.0</ele><time>2026-03-28T11:52:46.031Z</time></trkpt><trkpt lat="40.1815333" lon="15.40988"><ele>590.0</ele><time>2026-03-28T11:52:47.03Z</time></trkpt><trkpt lat="40.181395" lon="15.409855"><ele>588.0</ele><time>2026-03-28T11:52:48.031Z</time></trkpt><trkpt lat="40.18124" lon="15.4098467"><ele>586.0</ele><time>2026-03-28T11:52:49.03Z</time></trkpt><trkpt lat="40.1810817" lon="15.4098717"><ele>584.0</ele><time>2026-03-28T11:52:50.031Z</time></trkpt><trkpt lat="40.1809233" lon="15.4099233"><ele>584.0</ele><time>2026-03-28T11:52:51.03Z</time></trkpt><trkpt lat="40.1807617" lon="15.4099617"><ele>584.0</ele><time>2026-03-28T11:52:52.03Z</time></trkpt><trkpt lat="40.1806017" lon="15.4099783"><ele>584.0</ele><time>2026-03-28T11:52:53.031Z</time></trkpt><trkpt lat="40.18045" lon="15.4099633"><ele>583.5</ele><time>2026-03-28T11:52:54.031Z</time></trkpt><trkpt lat="40.1803083" lon="15.4099533"><ele>583.0</ele><time>2026-03-28T11:52:55.03Z</time></trkpt><trkpt lat="40.1801583" lon="15.4099683"><ele>582.5</ele><time>2026-03-28T11:52:56.031Z</time></trkpt><trkpt lat="40.1800133" lon="15.4100133"><ele>582.0</ele><time>2026-03-28T11:52:57.03Z</time></trkpt><trkpt lat="40.1798817" lon="15.4100633"><ele>582.25</ele><time>2026-03-28T11:52:58.03Z</time></trkpt><trkpt lat="40.1797717" lon="15.410125"><ele>582.5</ele><time>2026-03-28T11:52:59.03Z</time></trkpt><trkpt lat="40.1796733" lon="15.410215"><ele>582.75</ele><time>2026-03-28T11:53:00.03Z</time></trkpt><trkpt lat="40.1795967" lon="15.4103283"><ele>583.0</ele><time>2026-03-28T11:53:01.03Z</time></trkpt><trkpt lat="40.179535" lon="15.41043"><ele>583.0</ele><time>2026-03-28T11:53:02.031Z</time></trkpt><trkpt lat="40.1794717" lon="15.410515"><ele>583.0</ele><time>2026-03-28T11:53:03.03Z</time></trkpt><trkpt lat="40.1793933" lon="15.410555"><ele>583.0</ele><time>2026-03-28T11:53:04.03Z</time></trkpt><trkpt lat="40.179305" lon="15.4105567"><ele>583.0</ele><time>2026-03-28T11:53:05.031Z</time></trkpt><trkpt lat="40.1792017" lon="15.4105167"><ele>583.0</ele><time>2026-03-28T11:53:06.03Z</time></trkpt><trkpt lat="40.17908" lon="15.4104633"><ele>583.25</ele><time>2026-03-28T11:53:07.03Z</time></trkpt><trkpt lat="40.1789467" lon="15.4104133"><ele>583.5</ele><time>2026-03-28T11:53:08.03Z</time></trkpt><trkpt lat="40.17881" lon="15.4103967"><ele>583.75</ele><time>2026-03-28T11:53:09.03Z</time></trkpt><trkpt lat="40.1786633" lon="15.41041"><ele>584.0</ele><time>2026-03-28T11:53:10.03Z</time></trkpt><trkpt lat="40.1785133" lon="15.41044"><ele>584.0</ele><time>2026-03-28T11:53:11.031Z</time></trkpt><trkpt lat="40.17837" lon="15.41048"><ele>584.0</ele><time>2026-03-28T11:53:12.031Z</time></trkpt><trkpt lat="40.1782517" lon="15.410505"><ele>584.0</ele><time>2026-03-28T11:53:13.031Z</time></trkpt><trkpt lat="40.17814" lon="15.4105183"><ele>584.0</ele><time>2026-03-28T11:53:14.031Z</time></trkpt><trkpt lat="40.1780517" lon="15.410505"><ele>583.0</ele><time>2026-03-28T11:53:15.031Z</time></trkpt><trkpt lat="40.1779683" lon="15.4104433"><ele>582.0</ele><time>2026-03-28T11:53:16.03Z</time></trkpt><trkpt lat="40.17788" lon="15.4103483"><ele>581.0</ele><time>2026-03-28T11:53:17.031Z</time></trkpt><trkpt lat="40.1777767" lon="15.4102383"><ele>580.0</ele><time>2026-03-28T11:53:18.031Z</time></trkpt><trkpt lat="40.1776617" lon="15.41015"><ele>580.0</ele><time>2026-03-28T11:53:19.031Z</time></trkpt><trkpt lat="40.1775367" lon="15.4101067"><ele>580.0</ele><time>2026-03-28T11:53:20.03Z</time></trkpt><trkpt lat="40.17741" lon="15.4101033"><ele>580.0</ele><time>2026-03-28T11:53:21.031Z</time></trkpt><trkpt lat="40.177285" lon="15.4101317"><ele>580.0</ele><time>2026-03-28T11:53:22.03Z</time></trkpt><trkpt lat="40.1771517" lon="15.4102"><ele>579.0</ele><time>2026-03-28T11:53:23.03Z</time></trkpt><trkpt lat="40.1770283" lon="15.4102717"><ele>578.0</ele><time>2026-03-28T11:53:24.03Z</time></trkpt><trkpt lat="40.1769067" lon="15.4103383"><ele>577.0</ele><time>2026-03-28T11:53:25.031Z</time></trkpt><trkpt lat="40.1767867" lon="15.4103883"><ele>576.0</ele><time>2026-03-28T11:53:26.03Z</time></trkpt><trkpt lat="40.176665" lon="15.4103967"><ele>576.0</ele><time>2026-03-28T11:53:27.03Z</time></trkpt><trkpt lat="40.1765333" lon="15.41037"><ele>576.0</ele><time>2026-03-28T11:53:28.03Z</time></trkpt><trkpt lat="40.1763883" lon="15.4103167"><ele>576.0</ele><time>2026-03-28T11:53:29.03Z</time></trkpt><trkpt lat="40.176235" lon="15.4102433"><ele>576.0</ele><time>2026-03-28T11:53:30.031Z</time></trkpt><trkpt lat="40.17608" lon="15.4101617"><ele>572.3333333333334</ele><time>2026-03-28T11:53:31.031Z</time></trkpt><trkpt lat="40.17592" lon="15.4100717"><ele>568.6666666666667</ele><time>2026-03-28T11:53:32.03Z</time></trkpt><trkpt lat="40.1757667" lon="15.409995"><ele>565.0</ele><time>2026-03-28T11:53:33.03Z</time></trkpt><trkpt lat="40.1756167" lon="15.4099283"><ele>563.0</ele><time>2026-03-28T11:53:34.031Z</time></trkpt><trkpt lat="40.1754583" lon="15.40988"><ele>561.0</ele><time>2026-03-28T11:53:35.03Z</time></trkpt><trkpt lat="40.1753033" lon="15.40986"><ele>559.0</ele><time>2026-03-28T11:53:36.031Z</time></trkpt><trkpt lat="40.1751667" lon="15.4098467"><ele>559.0</ele><time>2026-03-28T11:53:37.031Z</time></trkpt><trkpt lat="40.1750567" lon="15.4098417"><ele>559.0</ele><time>2026-03-28T11:53:38.031Z</time></trkpt><trkpt lat="40.1749533" lon="15.4098567"><ele>559.0</ele><time>2026-03-28T11:53:39.03Z</time></trkpt><trkpt lat="40.1748633" lon="15.409905"><ele>559.0</ele><time>2026-03-28T11:53:40.031Z</time></trkpt><trkpt lat="40.1747717" lon="15.4099883"><ele>559.0</ele><time>2026-03-28T11:53:41.03Z</time></trkpt><trkpt lat="40.1746783" lon="15.4100967"><ele>561.0</ele><time>2026-03-28T11:53:42.031Z</time></trkpt><trkpt lat="40.1745817" lon="15.4102133"><ele>563.0</ele><time>2026-03-28T11:53:43.03Z</time></trkpt><trkpt lat="40.1744867" lon="15.410345"><ele>565.0</ele><time>2026-03-28T11:53:44.031Z</time></trkpt><trkpt lat="40.1743867" lon="15.41048"><ele>567.0</ele><time>2026-03-28T11:53:45.03Z</time></trkpt><trkpt lat="40.174285" lon="15.4105883"><ele>565.75</ele><time>2026-03-28T11:53:46.03Z</time></trkpt><trkpt lat="40.1741817" lon="15.4106667"><ele>564.5</ele><time>2026-03-28T11:53:47.03Z</time></trkpt><trkpt lat="40.1740733" lon="15.4106933"><ele>563.25</ele><time>2026-03-28T11:53:48.031Z</time></trkpt><trkpt lat="40.1739583" lon="15.4107"><ele>562.0</ele><time>2026-03-28T11:53:49.03Z</time></trkpt><trkpt lat="40.1738483" lon="15.4107067"><ele>562.0</ele><time>2026-03-28T11:53:50.031Z</time></trkpt><trkpt lat="40.17374" lon="15.4107433"><ele>562.0</ele><time>2026-03-28T11:53:51.031Z</time></trkpt><trkpt lat="40.1736467" lon="15.41083"><ele>562.0</ele><time>2026-03-28T11:53:52.03Z</time></trkpt><trkpt lat="40.173575" lon="15.4109567"><ele>562.0</ele><time>2026-03-28T11:53:53.03Z</time></trkpt><trkpt lat="40.1735167" lon="15.4111217"><ele>562.0</ele><time>2026-03-28T11:53:54.031Z</time></trkpt><trkpt lat="40.1734683" lon="15.41131"><ele>562.0</ele><time>2026-03-28T11:53:55.03Z</time></trkpt><trkpt lat="40.173415" lon="15.4115183"><ele>562.0</ele><time>2026-03-28T11:53:56.031Z</time></trkpt><trkpt lat="40.1733433" lon="15.4117167"><ele>560.6666666666667</ele><time>2026-03-28T11:53:57.03Z</time></trkpt><trkpt lat="40.1732617" lon="15.411915"><ele>559.3333333333334</ele><time>2026-03-28T11:53:58.031Z</time></trkpt><trkpt lat="40.1731633" lon="15.4121067"><ele>558.0</ele><time>2026-03-28T11:53:59.03Z</time></trkpt><trkpt lat="40.17307" lon="15.4122883"><ele>556.6666666666666</ele><time>2026-03-28T11:54:00.031Z</time></trkpt><trkpt lat="40.17298" lon="15.41246"><ele>555.3333333333333</ele><time>2026-03-28T11:54:01.03Z</time></trkpt><trkpt lat="40.1728767" lon="15.4126217"><ele>554.0</ele><time>2026-03-28T11:54:02.03Z</time></trkpt><trkpt lat="40.17276" lon="15.41276"><ele>554.0</ele><time>2026-03-28T11:54:03.031Z</time></trkpt><trkpt lat="40.17265" lon="15.4128967"><ele>554.0</ele><time>2026-03-28T11:54:04.031Z</time></trkpt><trkpt lat="40.17254" lon="15.4130267"><ele>554.0</ele><time>2026-03-28T11:54:05.031Z</time></trkpt><trkpt lat="40.1724383" lon="15.4131467"><ele>554.0</ele><time>2026-03-28T11:54:06.031Z</time></trkpt><trkpt lat="40.1723367" lon="15.4132533"><ele>549.75</ele><time>2026-03-28T11:54:07.03Z</time></trkpt><trkpt lat="40.17222" lon="15.4133383"><ele>545.5</ele><time>2026-03-28T11:54:08.03Z</time></trkpt><trkpt lat="40.1720933" lon="15.4133983"><ele>541.25</ele><time>2026-03-28T11:54:09.031Z</time></trkpt><trkpt lat="40.1719733" lon="15.4134417"><ele>537.0</ele><time>2026-03-28T11:54:10.03Z</time></trkpt><trkpt lat="40.1718583" lon="15.4134767"><ele>537.0</ele><time>2026-03-28T11:54:11.03Z</time></trkpt><trkpt lat="40.1717583" lon="15.4135033"><ele>537.0</ele><time>2026-03-28T11:54:12.03Z</time></trkpt><trkpt lat="40.1716717" lon="15.4135"><ele>537.0</ele><time>2026-03-28T11:54:13.031Z</time></trkpt><trkpt lat="40.1715883" lon="15.4134633"><ele>537.0</ele><time>2026-03-28T11:54:14.03Z</time></trkpt><trkpt lat="40.17152" lon="15.4133867"><ele>537.0</ele><time>2026-03-28T11:54:15.03Z</time></trkpt><trkpt lat="40.171455" lon="15.413275"><ele>534.75</ele><time>2026-03-28T11:54:16.031Z</time></trkpt><trkpt lat="40.1713817" lon="15.4131367"><ele>532.5</ele><time>2026-03-28T11:54:17.03Z</time></trkpt><trkpt lat="40.171285" lon="15.4129817"><ele>530.25</ele><time>2026-03-28T11:54:18.03Z</time></trkpt><trkpt lat="40.171195" lon="15.4128567"><ele>528.0</ele><time>2026-03-28T11:54:19.03Z</time></trkpt><trkpt lat="40.1711167" lon="15.412755"><ele>528.0</ele><time>2026-03-28T11:54:20.031Z</time></trkpt><trkpt lat="40.1710633" lon="15.4126583"><ele>528.0</ele><time>2026-03-28T11:54:21.03Z</time></trkpt><trkpt lat="40.171035" lon="15.4125567"><ele>528.0</ele><time>2026-03-28T11:54:22.03Z</time></trkpt><trkpt lat="40.1710333" lon="15.4124367"><ele>528.0</ele><time>2026-03-28T11:54:23.03Z</time></trkpt><trkpt lat="40.1710517" lon="15.4122783"><ele>528.0</ele><time>2026-03-28T11:54:24.03Z</time></trkpt><trkpt lat="40.17107" lon="15.41211"><ele>528.4</ele><time>2026-03-28T11:54:25.03Z</time></trkpt><trkpt lat="40.1710883" lon="15.4119533"><ele>528.8</ele><time>2026-03-28T11:54:26.031Z</time></trkpt><trkpt lat="40.171085" lon="15.4118083"><ele>529.2</ele><time>2026-03-28T11:54:27.031Z</time></trkpt><trkpt lat="40.1710617" lon="15.4116733"><ele>529.6</ele><time>2026-03-28T11:54:28.031Z</time></trkpt><trkpt lat="40.1710067" lon="15.41156"><ele>530.0</ele><time>2026-03-28T11:54:29.03Z</time></trkpt><trkpt lat="40.1709367" lon="15.41148"><ele>530.0</ele><time>2026-03-28T11:54:30.031Z</time></trkpt><trkpt lat="40.1708483" lon="15.4114433"><ele>530.0</ele><time>2026-03-28T11:54:31.031Z</time></trkpt><trkpt lat="40.1707433" lon="15.4114517"><ele>530.0</ele><time>2026-03-28T11:54:32.03Z</time></trkpt><trkpt lat="40.1706283" lon="15.4114967"><ele>530.0</ele><time>2026-03-28T11:54:33.03Z</time></trkpt><trkpt lat="40.1705067" lon="15.4115517"><ele>530.0</ele><time>2026-03-28T11:54:34.03Z</time></trkpt><trkpt lat="40.1703867" lon="15.4115817"><ele>531.2</ele><time>2026-03-28T11:54:35.031Z</time></trkpt><trkpt lat="40.17028" lon="15.41159"><ele>532.4</ele><time>2026-03-28T11:54:36.03Z</time></trkpt><trkpt lat="40.1701933" lon="15.41157"><ele>533.6</ele><time>2026-03-28T11:54:37.031Z</time></trkpt><trkpt lat="40.1701183" lon="15.4115183"><ele>534.8</ele><time>2026-03-28T11:54:38.03Z</time></trkpt><trkpt lat="40.1700417" lon="15.4114233"><ele>536.0</ele><time>2026-03-28T11:54:39.03Z</time></trkpt><trkpt lat="40.16998" lon="15.4112983"><ele>536.0</ele><time>2026-03-28T11:54:40.03Z</time></trkpt><trkpt lat="40.1699033" lon="15.4111583"><ele>536.0</ele><time>2026-03-28T11:54:41.03Z</time></trkpt><trkpt lat="40.1698033" lon="15.4110217"><ele>536.0</ele><time>2026-03-28T11:54:42.03Z</time></trkpt><trkpt lat="40.1696783" lon="15.4109"><ele>536.0</ele><time>2026-03-28T11:54:43.03Z</time></trkpt><trkpt lat="40.1695417" lon="15.4107933"><ele>532.25</ele><time>2026-03-28T11:54:44.03Z</time></trkpt><trkpt lat="40.1694117" lon="15.4106983"><ele>528.5</ele><time>2026-03-28T11:54:45.031Z</time></trkpt><trkpt lat="40.16928" lon="15.4106133"><ele>524.75</ele><time>2026-03-28T11:54:46.03Z</time></trkpt><trkpt lat="40.1691433" lon="15.41055"><ele>521.0</ele><time>2026-03-28T11:54:47.03Z</time></trkpt><trkpt lat="40.1690033" lon="15.4105017"><ele>520.5</ele><time>2026-03-28T11:54:48.03Z</time></trkpt><trkpt lat="40.1688667" lon="15.410475"><ele>520.0</ele><time>2026-03-28T11:54:49.03Z</time></trkpt><trkpt lat="40.1687383" lon="15.4104617"><ele>519.5</ele><time>2026-03-28T11:54:50.03Z</time></trkpt><trkpt lat="40.1686217" lon="15.41048"><ele>519.0</ele><time>2026-03-28T11:54:51.031Z</time></trkpt><trkpt lat="40.1685183" lon="15.4105417"><ele>519.0</ele><time>2026-03-28T11:54:52.031Z</time></trkpt><trkpt lat="40.1684167" lon="15.4106367"><ele>519.0</ele><time>2026-03-28T11:54:53.031Z</time></trkpt><trkpt lat="40.1683083" lon="15.4107583"><ele>519.0</ele><time>2026-03-28T11:54:54.03Z</time></trkpt><trkpt lat="40.1682" lon="15.4108867"><ele>519.0</ele><time>2026-03-28T11:54:55.03Z</time></trkpt><trkpt lat="40.1680967" lon="15.4110133"><ele>519.25</ele><time>2026-03-28T11:54:56.03Z</time></trkpt><trkpt lat="40.1680067" lon="15.4111233"><ele>519.5</ele><time>2026-03-28T11:54:57.03Z</time></trkpt><trkpt lat="40.16791" lon="15.411205"><ele>519.75</ele><time>2026-03-28T11:54:58.031Z</time></trkpt><trkpt lat="40.1677883" lon="15.4112667"><ele>520.0</ele><time>2026-03-28T11:54:59.03Z</time></trkpt><trkpt lat="40.167655" lon="15.411335"><ele>517.8</ele><time>2026-03-28T11:55:00.03Z</time></trkpt><trkpt lat="40.167515" lon="15.4113917"><ele>515.6</ele><time>2026-03-28T11:55:01.03Z</time></trkpt><trkpt lat="40.1673983" lon="15.4114333"><ele>513.4</ele><time>2026-03-28T11:55:02.031Z</time></trkpt><trkpt lat="40.1673033" lon="15.411465"><ele>511.2</ele><time>2026-03-28T11:55:03.03Z</time></trkpt><trkpt lat="40.1672217" lon="15.4114733"><ele>509.0</ele><time>2026-03-28T11:55:04.03Z</time></trkpt><trkpt lat="40.1671517" lon="15.41145"><ele>506.79999999999995</ele><time>2026-03-28T11:55:05.031Z</time></trkpt><trkpt lat="40.1670883" lon="15.4113917"><ele>504.59999999999997</ele><time>2026-03-28T11:55:06.03Z</time></trkpt><trkpt lat="40.1670367" lon="15.411285"><ele>502.4</ele><time>2026-03-28T11:55:07.031Z</time></trkpt><trkpt lat="40.166995" lon="15.411145"><ele>500.2</ele><time>2026-03-28T11:55:08.03Z</time></trkpt><trkpt lat="40.16697" lon="15.4109867"><ele>498.0</ele><time>2026-03-28T11:55:09.031Z</time></trkpt><trkpt lat="40.1669567" lon="15.41084"><ele>498.0</ele><time>2026-03-28T11:55:10.031Z</time></trkpt><trkpt lat="40.1669533" lon="15.4106867"><ele>498.0</ele><time>2026-03-28T11:55:11.03Z</time></trkpt><trkpt lat="40.16697" lon="15.4105167"><ele>498.0</ele><time>2026-03-28T11:55:12.031Z</time></trkpt><trkpt lat="40.1670017" lon="15.41036"><ele>498.0</ele><time>2026-03-28T11:55:13.03Z</time></trkpt><trkpt lat="40.167035" lon="15.4102117"><ele>496.5</ele><time>2026-03-28T11:55:14.031Z</time></trkpt><trkpt lat="40.1670867" lon="15.4100583"><ele>495.0</ele><time>2026-03-28T11:55:15.031Z</time></trkpt><trkpt lat="40.1671517" lon="15.4098983"><ele>493.5</ele><time>2026-03-28T11:55:16.03Z</time></trkpt><trkpt lat="40.1672167" lon="15.4097383"><ele>492.0</ele><time>2026-03-28T11:55:17.03Z</time></trkpt><trkpt lat="40.1672867" lon="15.4095883"><ele>490.0</ele><time>2026-03-28T11:55:18.031Z</time></trkpt><trkpt lat="40.167355" lon="15.4094533"><ele>488.00000000000006</ele><time>2026-03-28T11:55:19.03Z</time></trkpt><trkpt lat="40.16742" lon="15.4093283"><ele>486.00000000000006</ele><time>2026-03-28T11:55:20.03Z</time></trkpt><trkpt lat="40.1674717" lon="15.4092233"><ele>484.0</ele><time>2026-03-28T11:55:21.03Z</time></trkpt><trkpt lat="40.1675217" lon="15.40913"><ele>482.0</ele><time>2026-03-28T11:55:22.031Z</time></trkpt><trkpt lat="40.1675633" lon="15.4090433"><ele>483.8333333333333</ele><time>2026-03-28T11:55:23.031Z</time></trkpt><trkpt lat="40.1675817" lon="15.4089367"><ele>485.66666666666663</ele><time>2026-03-28T11:55:24.03Z</time></trkpt><trkpt lat="40.1675717" lon="15.4088233"><ele>487.5</ele><time>2026-03-28T11:55:25.03Z</time></trkpt><trkpt lat="40.1675483" lon="15.40871"><ele>489.33333333333337</ele><time>2026-03-28T11:55:26.031Z</time></trkpt><trkpt lat="40.16753" lon="15.4085933"><ele>491.1666666666667</ele><time>2026-03-28T11:55:27.03Z</time></trkpt><trkpt lat="40.167525" lon="15.408475"><ele>493.0</ele><time>2026-03-28T11:55:28.031Z</time></trkpt><trkpt lat="40.16755" lon="15.4083467"><ele>493.0</ele><time>2026-03-28T11:55:29.031Z</time></trkpt><trkpt lat="40.167595" lon="15.408215"><ele>493.0</ele><time>2026-03-28T11:55:30.03Z</time></trkpt><trkpt lat="40.16767" lon="15.4080567"><ele>493.0</ele><time>2026-03-28T11:55:31.031Z</time></trkpt><trkpt lat="40.1677567" lon="15.4079017"><ele>493.0</ele><time>2026-03-28T11:55:32.03Z</time></trkpt><trkpt lat="40.167835" lon="15.4077783"><ele>490.6666666666667</ele><time>2026-03-28T11:55:33.03Z</time></trkpt><trkpt lat="40.1678933" lon="15.4076817"><ele>488.33333333333337</ele><time>2026-03-28T11:55:34.03Z</time></trkpt><trkpt lat="40.1679467" lon="15.407605"><ele>486.0</ele><time>2026-03-28T11:55:35.031Z</time></trkpt><trkpt lat="40.168" lon="15.4075317"><ele>483.66666666666663</ele><time>2026-03-28T11:55:36.031Z</time></trkpt><trkpt lat="40.1680533" lon="15.40746"><ele>481.3333333333333</ele><time>2026-03-28T11:55:37.03Z</time></trkpt><trkpt lat="40.1681" lon="15.4073883"><ele>479.0</ele><time>2026-03-28T11:55:38.03Z</time></trkpt><trkpt lat="40.1681867" lon="15.40725"><ele>477.49999999999994</ele><time>2026-03-28T11:55:41.03Z</time></trkpt><trkpt lat="40.1682083" lon="15.407145"><ele>476.0</ele><time>2026-03-28T11:55:44.031Z</time></trkpt><trkpt lat="40.16817" lon="15.4070733"><ele>474.5</ele><time>2026-03-28T11:55:47.03Z</time></trkpt><trkpt lat="40.1681383" lon="15.4069633"><ele>473.0</ele><time>2026-03-28T11:55:50.031Z</time></trkpt><trkpt lat="40.168105" lon="15.4068483"><ele>471.49999999999994</ele><time>2026-03-28T11:55:52.03Z</time></trkpt><trkpt lat="40.1680833" lon="15.4067267"><ele>470.0</ele><time>2026-03-28T11:55:54.03Z</time></trkpt><trkpt lat="40.1680867" lon="15.4066033"><ele>470.0</ele><time>2026-03-28T11:55:56.03Z</time></trkpt><trkpt lat="40.1680933" lon="15.4065167"><ele>470.0</ele><time>2026-03-28T11:55:58.03Z</time></trkpt><trkpt lat="40.1680417" lon="15.4064233"><ele>470.0</ele><time>2026-03-28T11:56:24.031Z</time></trkpt><trkpt lat="40.16802" lon="15.4062983"><ele>470.0</ele><time>2026-03-28T11:56:26.031Z</time></trkpt><trkpt lat="40.1679833" lon="15.4061783"><ele>470.0</ele><time>2026-03-28T11:56:28.031Z</time></trkpt><trkpt lat="40.167975" lon="15.4060467"><ele>471.0</ele><time>2026-03-28T11:56:30.03Z</time></trkpt><trkpt lat="40.1679933" lon="15.405905"><ele>472.0</ele><time>2026-03-28T11:56:32.031Z</time></trkpt><trkpt lat="40.16801" lon="15.4057717"><ele>473.0</ele><time>2026-03-28T11:56:34.03Z</time></trkpt><trkpt lat="40.1680241" lon="15.4056796"><ele>474.0</ele><time>2026-03-28T11:56:38.043Z</time></trkpt><trkpt lat="40.1680876" lon="15.4052148"><ele>474.0</ele><time>2026-03-28T11:57:09.026Z</time></trkpt><trkpt lat="40.1681072" lon="15.4051173"><ele>474.0</ele><time>2026-03-28T11:57:10.033Z</time></trkpt><trkpt lat="40.1681518" lon="15.4050247"><ele>474.0</ele><time>2026-03-28T11:57:12.03Z</time></trkpt><trkpt lat="40.1681886" lon="15.4049576"><ele>474.0</ele><time>2026-03-28T11:57:14.101Z</time></trkpt><trkpt lat="40.1682438" lon="15.404827"><ele>474.0</ele><time>2026-03-28T11:57:18.059Z</time></trkpt><trkpt lat="40.1682791" lon="15.4047438"><ele>474.0</ele><time>2026-03-28T12:10:03.071Z</time></trkpt><trkpt lat="40.168346" lon="15.4046101"><ele>475.5</ele><time>2026-03-28T12:10:04.032Z</time></trkpt><trkpt lat="40.1683665" lon="15.404491"><ele>477.0</ele><time>2026-03-28T12:10:05.032Z</time></trkpt><trkpt lat="40.1683941" lon="15.4044077"><ele>478.5</ele><time>2026-03-28T12:10:06.032Z</time></trkpt><trkpt lat="40.1684305" lon="15.4043309"><ele>480.0</ele><time>2026-03-28T12:10:07.032Z</time></trkpt><trkpt lat="40.1684662" lon="15.4042516"><ele>481.5</ele><time>2026-03-28T12:10:08.032Z</time></trkpt><trkpt lat="40.1684944" lon="15.4041644"><ele>483.0</ele><time>2026-03-28T12:10:09.033Z</time></trkpt><trkpt lat="40.1685479" lon="15.404007"><ele>483.0</ele><time>2026-03-28T12:10:11.032Z</time></trkpt><trkpt lat="40.1685697" lon="15.403922"><ele>483.0</ele><time>2026-03-28T12:10:12.033Z</time></trkpt><trkpt lat="40.1685908" lon="15.4038337"><ele>483.0</ele><time>2026-03-28T12:10:13.033Z</time></trkpt><trkpt lat="40.1686154" lon="15.4037468"><ele>483.0</ele><time>2026-03-28T12:10:14.032Z</time></trkpt><trkpt lat="40.1686443" lon="15.4036603"><ele>483.0</ele><time>2026-03-28T12:10:15.032Z</time></trkpt><trkpt lat="40.1686716" lon="15.4035823"><ele>483.0</ele><time>2026-03-28T12:10:16.032Z</time></trkpt><trkpt lat="40.1687043" lon="15.4035119"><ele>483.0</ele><time>2026-03-28T12:10:17.032Z</time></trkpt><trkpt lat="40.1687351" lon="15.403434"><ele>481.8333333333333</ele><time>2026-03-28T12:10:18.033Z</time></trkpt><trkpt lat="40.1687632" lon="15.4033583"><ele>480.66666666666663</ele><time>2026-03-28T12:10:19.032Z</time></trkpt><trkpt lat="40.1688457" lon="15.4032356"><ele>479.5</ele><time>2026-03-28T12:10:21.032Z</time></trkpt><trkpt lat="40.1688935" lon="15.4031681"><ele>478.3333333333333</ele><time>2026-03-28T12:10:22.032Z</time></trkpt><trkpt lat="40.1689406" lon="15.4031031"><ele>477.16666666666663</ele><time>2026-03-28T12:10:23.033Z</time></trkpt><trkpt lat="40.1689719" lon="15.4030282"><ele>476.0</ele><time>2026-03-28T12:10:24.032Z</time></trkpt><trkpt lat="40.1689919" lon="15.4029421"><ele>473.6</ele><time>2026-03-28T12:10:25.033Z</time></trkpt><trkpt lat="40.1690016" lon="15.4028373"><ele>471.20000000000005</ele><time>2026-03-28T12:10:26.032Z</time></trkpt><trkpt lat="40.1690054" lon="15.4027235"><ele>468.79999999999995</ele><time>2026-03-28T12:10:27.032Z</time></trkpt><trkpt lat="40.1690016" lon="15.4026061"><ele>466.4</ele><time>2026-03-28T12:10:28.032Z</time></trkpt><trkpt lat="40.1690075" lon="15.4024648"><ele>464.0</ele><time>2026-03-28T12:10:29.032Z</time></trkpt><trkpt lat="40.1690137" lon="15.4023158"><ele>464.0</ele><time>2026-03-28T12:10:30.032Z</time></trkpt><trkpt lat="40.1690092" lon="15.4021715"><ele>464.0</ele><time>2026-03-28T12:10:31.033Z</time></trkpt><trkpt lat="40.1689817" lon="15.4020368"><ele>464.0</ele><time>2026-03-28T12:10:32.033Z</time></trkpt><trkpt lat="40.1689436" lon="15.4018953"><ele>464.0</ele><time>2026-03-28T12:10:33.033Z</time></trkpt><trkpt lat="40.1689262" lon="15.4017511"><ele>464.0</ele><time>2026-03-28T12:10:34.033Z</time></trkpt><trkpt lat="40.1689356" lon="15.4015856"><ele>458.25</ele><time>2026-03-28T12:10:35.032Z</time></trkpt><trkpt lat="40.1689501" lon="15.4014121"><ele>452.5</ele><time>2026-03-28T12:10:36.032Z</time></trkpt><trkpt lat="40.1689582" lon="15.4012503"><ele>446.75</ele><time>2026-03-28T12:10:37.032Z</time></trkpt><trkpt lat="40.1689761" lon="15.4010937"><ele>441.0</ele><time>2026-03-28T12:10:38.032Z</time></trkpt><trkpt lat="40.1690213" lon="15.4009419"><ele>446.0</ele><time>2026-03-28T12:10:39.033Z</time></trkpt><trkpt lat="40.1690973" lon="15.4007777"><ele>451.0</ele><time>2026-03-28T12:10:40.034Z</time></trkpt><trkpt lat="40.1691881" lon="15.4005857"><ele>456.0</ele><time>2026-03-28T12:10:41.033Z</time></trkpt><trkpt lat="40.1692599" lon="15.4003893"><ele>456.0</ele><time>2026-03-28T12:10:42.034Z</time></trkpt><trkpt lat="40.1693224" lon="15.4001834"><ele>456.0</ele><time>2026-03-28T12:10:43.033Z</time></trkpt><trkpt lat="40.1693837" lon="15.3999906"><ele>456.0</ele><time>2026-03-28T12:10:44.033Z</time></trkpt><trkpt lat="40.1694278" lon="15.3998189"><ele>459.5</ele><time>2026-03-28T12:10:45.034Z</time></trkpt><trkpt lat="40.1694779" lon="15.3996591"><ele>463.0</ele><time>2026-03-28T12:10:46.034Z</time></trkpt><trkpt lat="40.1695302" lon="15.39951"><ele>466.5</ele><time>2026-03-28T12:10:47.033Z</time></trkpt><trkpt lat="40.1695692" lon="15.3993745"><ele>470.0</ele><time>2026-03-28T12:10:48.034Z</time></trkpt><trkpt lat="40.1695983" lon="15.399252"><ele>470.0</ele><time>2026-03-28T12:10:49.033Z</time></trkpt><trkpt lat="40.1695934" lon="15.3991342"><ele>470.0</ele><time>2026-03-28T12:10:50.033Z</time></trkpt><trkpt lat="40.1695486" lon="15.399031"><ele>470.0</ele><time>2026-03-28T12:10:51.033Z</time></trkpt><trkpt lat="40.1694808" lon="15.3989663"><ele>470.0</ele><time>2026-03-28T12:10:52.033Z</time></trkpt><trkpt lat="40.1693982" lon="15.3989259"><ele>470.0</ele><time>2026-03-28T12:10:53.033Z</time></trkpt><trkpt lat="40.1693007" lon="15.3989447"><ele>470.0</ele><time>2026-03-28T12:10:54.034Z</time></trkpt><trkpt lat="40.1691906" lon="15.3990106"><ele>470.0</ele><time>2026-03-28T12:10:55.034Z</time></trkpt><trkpt lat="40.1690626" lon="15.3991083"><ele>470.0</ele><time>2026-03-28T12:10:56.033Z</time></trkpt><trkpt lat="40.1689239" lon="15.3992226"><ele>470.0</ele><time>2026-03-28T12:10:57.034Z</time></trkpt><trkpt lat="40.1688041" lon="15.3993264"><ele>473.5</ele><time>2026-03-28T12:10:58.033Z</time></trkpt><trkpt lat="40.1687044" lon="15.3994138"><ele>477.0</ele><time>2026-03-28T12:10:59.033Z</time></trkpt><trkpt lat="40.1685983" lon="15.399457"><ele>480.5</ele><time>2026-03-28T12:11:00.033Z</time></trkpt><trkpt lat="40.1684807" lon="15.3994549"><ele>484.0</ele><time>2026-03-28T12:11:01.033Z</time></trkpt><trkpt lat="40.1683515" lon="15.3994154"><ele>484.0</ele><time>2026-03-28T12:11:02.033Z</time></trkpt><trkpt lat="40.1682267" lon="15.3993333"><ele>484.0</ele><time>2026-03-28T12:11:03.033Z</time></trkpt><trkpt lat="40.1681217" lon="15.3992183"><ele>484.0</ele><time>2026-03-28T12:11:04.034Z</time></trkpt><trkpt lat="40.1680083" lon="15.39909"><ele>484.0</ele><time>2026-03-28T12:11:05.033Z</time></trkpt><trkpt lat="40.1678983" lon="15.3989483"><ele>487.0</ele><time>2026-03-28T12:11:06.034Z</time></trkpt><trkpt lat="40.1677833" lon="15.3987967"><ele>490.0</ele><time>2026-03-28T12:11:07.033Z</time></trkpt><trkpt lat="40.167665" lon="15.3986367"><ele>493.0</ele><time>2026-03-28T12:11:08.033Z</time></trkpt><trkpt lat="40.1675383" lon="15.39847"><ele>493.0</ele><time>2026-03-28T12:11:09.033Z</time></trkpt><trkpt lat="40.1674133" lon="15.3983233"><ele>493.0</ele><time>2026-03-28T12:11:10.033Z</time></trkpt><trkpt lat="40.167295" lon="15.3982017"><ele>493.0</ele><time>2026-03-28T12:11:11.033Z</time></trkpt><trkpt lat="40.1671883" lon="15.3980817"><ele>492.0</ele><time>2026-03-28T12:11:12.033Z</time></trkpt><trkpt lat="40.1670833" lon="15.3979583"><ele>491.0</ele><time>2026-03-28T12:11:13.033Z</time></trkpt><trkpt lat="40.16699" lon="15.3978233"><ele>490.0</ele><time>2026-03-28T12:11:14.034Z</time></trkpt><trkpt lat="40.1669183" lon="15.3976633"><ele>489.0</ele><time>2026-03-28T12:11:15.033Z</time></trkpt><trkpt lat="40.166865" lon="15.3974717"><ele>489.0</ele><time>2026-03-28T12:11:16.033Z</time></trkpt><trkpt lat="40.16681" lon="15.39725"><ele>489.0</ele><time>2026-03-28T12:11:17.033Z</time></trkpt><trkpt lat="40.1667367" lon="15.3970133"><ele>489.0</ele><time>2026-03-28T12:11:18.034Z</time></trkpt><trkpt lat="40.1666567" lon="15.3967667"><ele>487.0</ele><time>2026-03-28T12:11:19.034Z</time></trkpt><trkpt lat="40.1665783" lon="15.3965233"><ele>485.0</ele><time>2026-03-28T12:11:20.034Z</time></trkpt><trkpt lat="40.166505" lon="15.39631"><ele>483.0</ele><time>2026-03-28T12:11:21.033Z</time></trkpt><trkpt lat="40.16645" lon="15.3961217"><ele>483.0</ele><time>2026-03-28T12:11:22.033Z</time></trkpt><trkpt lat="40.1664167" lon="15.3959517"><ele>483.0</ele><time>2026-03-28T12:11:23.033Z</time></trkpt><trkpt lat="40.1664033" lon="15.3958"><ele>483.0</ele><time>2026-03-28T12:11:24.034Z</time></trkpt><trkpt lat="40.1664217" lon="15.3956333"><ele>483.0</ele><time>2026-03-28T12:11:25.033Z</time></trkpt><trkpt lat="40.166435" lon="15.3954567"><ele>485.0</ele><time>2026-03-28T12:11:26.033Z</time></trkpt><trkpt lat="40.16643" lon="15.3952683"><ele>487.0</ele><time>2026-03-28T12:11:27.033Z</time></trkpt><trkpt lat="40.1663967" lon="15.395075"><ele>489.0</ele><time>2026-03-28T12:11:28.033Z</time></trkpt><trkpt lat="40.1663417" lon="15.394875"><ele>489.0</ele><time>2026-03-28T12:11:29.033Z</time></trkpt><trkpt lat="40.1662633" lon="15.3946733"><ele>489.0</ele><time>2026-03-28T12:11:30.033Z</time></trkpt><trkpt lat="40.1662067" lon="15.394465"><ele>489.0</ele><time>2026-03-28T12:11:31.033Z</time></trkpt><trkpt lat="40.1661683" lon="15.3942467"><ele>490.33333333333337</ele><time>2026-03-28T12:11:32.033Z</time></trkpt><trkpt lat="40.1661333" lon="15.3940383"><ele>491.6666666666667</ele><time>2026-03-28T12:11:33.034Z</time></trkpt><trkpt lat="40.1660933" lon="15.3938417"><ele>493.0</ele><time>2026-03-28T12:11:34.033Z</time></trkpt><trkpt lat="40.166035" lon="15.3936617"><ele>495.75</ele><time>2026-03-28T12:11:35.034Z</time></trkpt><trkpt lat="40.1659767" lon="15.3934967"><ele>498.5</ele><time>2026-03-28T12:11:36.034Z</time></trkpt><trkpt lat="40.1659317" lon="15.3933483"><ele>501.25</ele><time>2026-03-28T12:11:37.034Z</time></trkpt><trkpt lat="40.1659117" lon="15.3931933"><ele>504.0</ele><time>2026-03-28T12:11:38.034Z</time></trkpt><trkpt lat="40.1659067" lon="15.39302"><ele>507.0</ele><time>2026-03-28T12:11:39.033Z</time></trkpt><trkpt lat="40.16589" lon="15.3928217"><ele>510.0</ele><time>2026-03-28T12:11:40.034Z</time></trkpt><trkpt lat="40.16585" lon="15.3926033"><ele>513.0</ele><time>2026-03-28T12:11:41.034Z</time></trkpt><trkpt lat="40.1657917" lon="15.39238"><ele>515.6666666666666</ele><time>2026-03-28T12:11:42.033Z</time></trkpt><trkpt lat="40.165735" lon="15.3921717"><ele>518.3333333333333</ele><time>2026-03-28T12:11:43.033Z</time></trkpt><trkpt lat="40.1656783" lon="15.3919867"><ele>521.0</ele><time>2026-03-28T12:11:44.034Z</time></trkpt><trkpt lat="40.1656383" lon="15.3917933"><ele>519.0</ele><time>2026-03-28T12:11:45.034Z</time></trkpt><trkpt lat="40.1656183" lon="15.3915917"><ele>517.0</ele><time>2026-03-28T12:11:46.033Z</time></trkpt><trkpt lat="40.1656" lon="15.3913783"><ele>515.0</ele><time>2026-03-28T12:11:47.034Z</time></trkpt><trkpt lat="40.165585" lon="15.3911517"><ele>515.0</ele><time>2026-03-28T12:11:48.033Z</time></trkpt><trkpt lat="40.1655617" lon="15.390925"><ele>515.0</ele><time>2026-03-28T12:11:49.033Z</time></trkpt><trkpt lat="40.1655483" lon="15.39071"><ele>515.0</ele><time>2026-03-28T12:11:50.033Z</time></trkpt><trkpt lat="40.1655433" lon="15.3905217"><ele>518.25</ele><time>2026-03-28T12:11:51.034Z</time></trkpt><trkpt lat="40.1655267" lon="15.3903467"><ele>521.5</ele><time>2026-03-28T12:11:52.034Z</time></trkpt><trkpt lat="40.1654917" lon="15.3901883"><ele>524.75</ele><time>2026-03-28T12:11:53.034Z</time></trkpt><trkpt lat="40.1654483" lon="15.3900467"><ele>528.0</ele><time>2026-03-28T12:11:54.034Z</time></trkpt><trkpt lat="40.1653983" lon="15.3899467"><ele>528.0</ele><time>2026-03-28T12:11:55.034Z</time></trkpt><trkpt lat="40.1653417" lon="15.38988"><ele>528.0</ele><time>2026-03-28T12:11:56.034Z</time></trkpt><trkpt lat="40.1652633" lon="15.3898667"><ele>528.0</ele><time>2026-03-28T12:11:57.033Z</time></trkpt><trkpt lat="40.1651683" lon="15.38989"><ele>528.0</ele><time>2026-03-28T12:11:58.033Z</time></trkpt><trkpt lat="40.1650583" lon="15.3899367"><ele>528.0</ele><time>2026-03-28T12:11:59.033Z</time></trkpt><trkpt lat="40.1649183" lon="15.3900067"><ele>531.3333333333334</ele><time>2026-03-28T12:12:00.034Z</time></trkpt><trkpt lat="40.16475" lon="15.3901067"><ele>534.6666666666667</ele><time>2026-03-28T12:12:01.033Z</time></trkpt><trkpt lat="40.1645683" lon="15.3902417"><ele>538.0</ele><time>2026-03-28T12:12:02.034Z</time></trkpt><trkpt lat="40.164385" lon="15.3903767"><ele>538.0</ele><time>2026-03-28T12:12:03.034Z</time></trkpt><trkpt lat="40.1642133" lon="15.3904967"><ele>538.0</ele><time>2026-03-28T12:12:04.033Z</time></trkpt><trkpt lat="40.16406" lon="15.3906167"><ele>538.0</ele><time>2026-03-28T12:12:05.034Z</time></trkpt><trkpt lat="40.1639233" lon="15.39076"><ele>537.3333333333334</ele><time>2026-03-28T12:12:06.033Z</time></trkpt><trkpt lat="40.1638033" lon="15.3909233"><ele>536.6666666666666</ele><time>2026-03-28T12:12:07.033Z</time></trkpt><trkpt lat="40.1637067" lon="15.391095"><ele>536.0</ele><time>2026-03-28T12:12:08.033Z</time></trkpt><trkpt lat="40.1636283" lon="15.39127"><ele>534.0</ele><time>2026-03-28T12:12:09.034Z</time></trkpt><trkpt lat="40.1635567" lon="15.3914167"><ele>532.0</ele><time>2026-03-28T12:12:10.033Z</time></trkpt><trkpt lat="40.1634767" lon="15.39153"><ele>530.0</ele><time>2026-03-28T12:12:11.033Z</time></trkpt><trkpt lat="40.1633783" lon="15.3915967"><ele>528.0</ele><time>2026-03-28T12:12:12.034Z</time></trkpt><trkpt lat="40.1632717" lon="15.39162"><ele>527.4</ele><time>2026-03-28T12:12:13.034Z</time></trkpt><trkpt lat="40.1631717" lon="15.3915933"><ele>526.8</ele><time>2026-03-28T12:12:14.034Z</time></trkpt><trkpt lat="40.1630983" lon="15.3915267"><ele>526.2</ele><time>2026-03-28T12:12:15.033Z</time></trkpt><trkpt lat="40.1630467" lon="15.391435"><ele>525.6</ele><time>2026-03-28T12:12:16.034Z</time></trkpt><trkpt lat="40.1630133" lon="15.39131"><ele>525.0</ele><time>2026-03-28T12:12:17.034Z</time></trkpt><trkpt lat="40.1630183" lon="15.39113"><ele>525.0</ele><time>2026-03-28T12:12:18.034Z</time></trkpt><trkpt lat="40.163035" lon="15.3909033"><ele>525.0</ele><time>2026-03-28T12:12:19.033Z</time></trkpt><trkpt lat="40.1630317" lon="15.39068"><ele>525.0</ele><time>2026-03-28T12:12:20.033Z</time></trkpt><trkpt lat="40.16301" lon="15.3904817"><ele>526.25</ele><time>2026-03-28T12:12:21.034Z</time></trkpt><trkpt lat="40.1629683" lon="15.3903167"><ele>527.5</ele><time>2026-03-28T12:12:22.034Z</time></trkpt><trkpt lat="40.1629217" lon="15.39017"><ele>528.75</ele><time>2026-03-28T12:12:23.034Z</time></trkpt><trkpt lat="40.1629067" lon="15.3900367"><ele>530.0</ele><time>2026-03-28T12:12:24.033Z</time></trkpt><trkpt lat="40.162935" lon="15.3899017"><ele>530.0</ele><time>2026-03-28T12:12:25.034Z</time></trkpt><trkpt lat="40.1630033" lon="15.3897667"><ele>530.0</ele><time>2026-03-28T12:12:26.034Z</time></trkpt><trkpt lat="40.163075" lon="15.3896333"><ele>530.0</ele><time>2026-03-28T12:12:27.033Z</time></trkpt><trkpt lat="40.16313" lon="15.3895083"><ele>530.0</ele><time>2026-03-28T12:12:28.033Z</time></trkpt><trkpt lat="40.16315" lon="15.389395"><ele>530.0</ele><time>2026-03-28T12:12:29.034Z</time></trkpt><trkpt lat="40.1631333" lon="15.3892817"><ele>531.5</ele><time>2026-03-28T12:12:30.034Z</time></trkpt><trkpt lat="40.1630767" lon="15.3891833"><ele>533.0</ele><time>2026-03-28T12:12:31.034Z</time></trkpt><trkpt lat="40.1629817" lon="15.3890767"><ele>534.5</ele><time>2026-03-28T12:12:32.034Z</time></trkpt><trkpt lat="40.16288" lon="15.3889667"><ele>536.0</ele><time>2026-03-28T12:12:33.033Z</time></trkpt><trkpt lat="40.1627917" lon="15.3888567"><ele>537.75</ele><time>2026-03-28T12:12:34.033Z</time></trkpt><trkpt lat="40.1627267" lon="15.3887417"><ele>539.5</ele><time>2026-03-28T12:12:35.033Z</time></trkpt><trkpt lat="40.1626917" lon="15.3886033"><ele>541.25</ele><time>2026-03-28T12:12:36.034Z</time></trkpt><trkpt lat="40.162695" lon="15.3884383"><ele>543.0</ele><time>2026-03-28T12:12:37.034Z</time></trkpt><trkpt lat="40.1627267" lon="15.3882533"><ele>543.0</ele><time>2026-03-28T12:12:38.033Z</time></trkpt><trkpt lat="40.1627717" lon="15.3880417"><ele>543.0</ele><time>2026-03-28T12:12:39.033Z</time></trkpt><trkpt lat="40.16282" lon="15.3878317"><ele>543.0</ele><time>2026-03-28T12:12:40.034Z</time></trkpt><trkpt lat="40.16288" lon="15.3876517"><ele>543.5</ele><time>2026-03-28T12:12:41.033Z</time></trkpt><trkpt lat="40.1629483" lon="15.3875"><ele>544.0</ele><time>2026-03-28T12:12:42.033Z</time></trkpt><trkpt lat="40.163005" lon="15.38736"><ele>544.5</ele><time>2026-03-28T12:12:43.033Z</time></trkpt><trkpt lat="40.1630517" lon="15.3872217"><ele>545.0</ele><time>2026-03-28T12:12:44.034Z</time></trkpt><trkpt lat="40.1630667" lon="15.387095"><ele>547.0</ele><time>2026-03-28T12:12:45.033Z</time></trkpt><trkpt lat="40.1630417" lon="15.386975"><ele>549.0</ele><time>2026-03-28T12:12:46.033Z</time></trkpt><trkpt lat="40.16299" lon="15.38687"><ele>551.0</ele><time>2026-03-28T12:12:47.033Z</time></trkpt><trkpt lat="40.1628967" lon="15.3867717"><ele>553.0</ele><time>2026-03-28T12:12:48.034Z</time></trkpt><trkpt lat="40.16279" lon="15.38666"><ele>555.0</ele><time>2026-03-28T12:12:49.034Z</time></trkpt><trkpt lat="40.162675" lon="15.38652"><ele>555.0</ele><time>2026-03-28T12:12:50.033Z</time></trkpt><trkpt lat="40.1625733" lon="15.38635"><ele>555.0</ele><time>2026-03-28T12:12:51.033Z</time></trkpt><trkpt lat="40.16248" lon="15.386195"><ele>555.0</ele><time>2026-03-28T12:12:52.033Z</time></trkpt><trkpt lat="40.16237" lon="15.3860583"><ele>555.25</ele><time>2026-03-28T12:12:53.033Z</time></trkpt><trkpt lat="40.162255" lon="15.38595"><ele>555.5</ele><time>2026-03-28T12:12:54.033Z</time></trkpt><trkpt lat="40.162135" lon="15.385865"><ele>555.75</ele><time>2026-03-28T12:12:55.034Z</time></trkpt><trkpt lat="40.1620183" lon="15.3857783"><ele>556.0</ele><time>2026-03-28T12:12:56.033Z</time></trkpt><trkpt lat="40.1619117" lon="15.38569"><ele>556.0</ele><time>2026-03-28T12:12:57.033Z</time></trkpt><trkpt lat="40.1618283" lon="15.3855983"><ele>556.0</ele><time>2026-03-28T12:12:58.033Z</time></trkpt><trkpt lat="40.16176" lon="15.3855083"><ele>556.0</ele><time>2026-03-28T12:12:59.034Z</time></trkpt><trkpt lat="40.1617067" lon="15.3854183"><ele>556.0</ele><time>2026-03-28T12:13:00.034Z</time></trkpt><trkpt lat="40.16166" lon="15.3853367"><ele>556.0</ele><time>2026-03-28T12:13:01.033Z</time></trkpt><trkpt lat="40.1615983" lon="15.3852483"><ele>554.75</ele><time>2026-03-28T12:13:02.033Z</time></trkpt><trkpt lat="40.16152" lon="15.38515"><ele>553.5</ele><time>2026-03-28T12:13:03.034Z</time></trkpt><trkpt lat="40.1614283" lon="15.3850267"><ele>552.25</ele><time>2026-03-28T12:13:04.033Z</time></trkpt><trkpt lat="40.161335" lon="15.3848767"><ele>551.0</ele><time>2026-03-28T12:13:05.033Z</time></trkpt><trkpt lat="40.1612317" lon="15.3846917"><ele>554.0</ele><time>2026-03-28T12:13:06.033Z</time></trkpt><trkpt lat="40.1611167" lon="15.384505"><ele>557.0</ele><time>2026-03-28T12:13:07.034Z</time></trkpt><trkpt lat="40.1610083" lon="15.3843267"><ele>560.0</ele><time>2026-03-28T12:13:08.033Z</time></trkpt><trkpt lat="40.1609133" lon="15.38413"><ele>560.0</ele><time>2026-03-28T12:13:09.034Z</time></trkpt><trkpt lat="40.1608333" lon="15.383945"><ele>560.0</ele><time>2026-03-28T12:13:10.034Z</time></trkpt><trkpt lat="40.1607683" lon="15.3837517"><ele>560.0</ele><time>2026-03-28T12:13:11.033Z</time></trkpt><trkpt lat="40.1607183" lon="15.3835467"><ele>559.6666666666666</ele><time>2026-03-28T12:13:12.033Z</time></trkpt><trkpt lat="40.1606717" lon="15.3833383"><ele>559.3333333333334</ele><time>2026-03-28T12:13:13.034Z</time></trkpt><trkpt lat="40.1606083" lon="15.38314"><ele>559.0</ele><time>2026-03-28T12:13:14.034Z</time></trkpt><trkpt lat="40.1605317" lon="15.38296"><ele>559.0</ele><time>2026-03-28T12:13:15.034Z</time></trkpt><trkpt lat="40.1604483" lon="15.3828033"><ele>559.0</ele><time>2026-03-28T12:13:16.033Z</time></trkpt><trkpt lat="40.1603417" lon="15.382655"><ele>559.0</ele><time>2026-03-28T12:13:17.033Z</time></trkpt><trkpt lat="40.1602367" lon="15.3825217"><ele>559.0</ele><time>2026-03-28T12:13:18.033Z</time></trkpt><trkpt lat="40.16013" lon="15.382385"><ele>559.0</ele><time>2026-03-28T12:13:19.033Z</time></trkpt><trkpt lat="40.16004" lon="15.3822467"><ele>559.0</ele><time>2026-03-28T12:13:20.033Z</time></trkpt><trkpt lat="40.15997" lon="15.3821133"><ele>559.0</ele><time>2026-03-28T12:13:21.034Z</time></trkpt><trkpt lat="40.15991" lon="15.3819933"><ele>559.0</ele><time>2026-03-28T12:13:22.033Z</time></trkpt><trkpt lat="40.159855" lon="15.3818617"><ele>554.25</ele><time>2026-03-28T12:13:23.033Z</time></trkpt><trkpt lat="40.1598133" lon="15.3817117"><ele>549.5</ele><time>2026-03-28T12:13:24.033Z</time></trkpt><trkpt lat="40.15979" lon="15.381545"><ele>544.75</ele><time>2026-03-28T12:13:25.033Z</time></trkpt><trkpt lat="40.1597717" lon="15.381345"><ele>540.0</ele><time>2026-03-28T12:13:26.034Z</time></trkpt><trkpt lat="40.159745" lon="15.3811533"><ele>537.6666666666666</ele><time>2026-03-28T12:13:27.033Z</time></trkpt><trkpt lat="40.1597233" lon="15.3809533"><ele>535.3333333333333</ele><time>2026-03-28T12:13:28.033Z</time></trkpt><trkpt lat="40.1596983" lon="15.3807633"><ele>533.0</ele><time>2026-03-28T12:13:29.034Z</time></trkpt><trkpt lat="40.15968" lon="15.38057"><ele>531.6666666666666</ele><time>2026-03-28T12:13:30.034Z</time></trkpt><trkpt lat="40.15969" lon="15.3803717"><ele>530.3333333333334</ele><time>2026-03-28T12:13:31.034Z</time></trkpt><trkpt lat="40.159715" lon="15.380175"><ele>529.0</ele><time>2026-03-28T12:13:32.034Z</time></trkpt><trkpt lat="40.1597383" lon="15.37997"><ele>529.0</ele><time>2026-03-28T12:13:33.033Z</time></trkpt><trkpt lat="40.15974" lon="15.379755"><ele>529.0</ele><time>2026-03-28T12:13:34.033Z</time></trkpt><trkpt lat="40.1597183" lon="15.3795283"><ele>529.0</ele><time>2026-03-28T12:13:35.033Z</time></trkpt><trkpt lat="40.1596867" lon="15.3792967"><ele>527.6666666666667</ele><time>2026-03-28T12:13:36.033Z</time></trkpt><trkpt lat="40.1596517" lon="15.3790683"><ele>526.3333333333334</ele><time>2026-03-28T12:13:37.034Z</time></trkpt><trkpt lat="40.1596167" lon="15.3788483"><ele>525.0</ele><time>2026-03-28T12:13:38.034Z</time></trkpt><trkpt lat="40.1595817" lon="15.3786383"><ele>524.25</ele><time>2026-03-28T12:13:39.034Z</time></trkpt><trkpt lat="40.1595517" lon="15.3784483"><ele>523.5</ele><time>2026-03-28T12:13:40.033Z</time></trkpt><trkpt lat="40.159525" lon="15.3782783"><ele>522.75</ele><time>2026-03-28T12:13:41.033Z</time></trkpt><trkpt lat="40.1594983" lon="15.3781167"><ele>522.0</ele><time>2026-03-28T12:13:42.034Z</time></trkpt><trkpt lat="40.15946" lon="15.3779583"><ele>521.25</ele><time>2026-03-28T12:13:43.033Z</time></trkpt><trkpt lat="40.1594017" lon="15.3778183"><ele>520.5</ele><time>2026-03-28T12:13:44.033Z</time></trkpt><trkpt lat="40.1593167" lon="15.3776933"><ele>519.75</ele><time>2026-03-28T12:13:45.033Z</time></trkpt><trkpt lat="40.1592067" lon="15.3775917"><ele>519.0</ele><time>2026-03-28T12:13:46.033Z</time></trkpt><trkpt lat="40.1590867" lon="15.3775217"><ele>516.6</ele><time>2026-03-28T12:13:47.033Z</time></trkpt><trkpt lat="40.1589767" lon="15.37746"><ele>514.2</ele><time>2026-03-28T12:13:48.033Z</time></trkpt><trkpt lat="40.1588833" lon="15.3774417"><ele>511.80000000000007</ele><time>2026-03-28T12:13:49.033Z</time></trkpt><trkpt lat="40.1587883" lon="15.3774617"><ele>509.40000000000003</ele><time>2026-03-28T12:13:50.034Z</time></trkpt><trkpt lat="40.1586933" lon="15.3775383"><ele>507.0</ele><time>2026-03-28T12:13:51.033Z</time></trkpt><trkpt lat="40.1586267" lon="15.377655"><ele>507.0</ele><time>2026-03-28T12:13:52.033Z</time></trkpt><trkpt lat="40.1585783" lon="15.3777933"><ele>507.00000000000006</ele><time>2026-03-28T12:13:53.033Z</time></trkpt><trkpt lat="40.1585333" lon="15.3779283"><ele>507.00000000000006</ele><time>2026-03-28T12:13:54.033Z</time></trkpt><trkpt lat="40.1584917" lon="15.3780483"><ele>507.0</ele><time>2026-03-28T12:13:55.033Z</time></trkpt><trkpt lat="40.15845" lon="15.3781333"><ele>507.0</ele><time>2026-03-28T12:13:56.034Z</time></trkpt><trkpt lat="40.1584017" lon="15.3781883"><ele>507.25</ele><time>2026-03-28T12:13:57.033Z</time></trkpt><trkpt lat="40.15827" lon="15.378165"><ele>507.5</ele><time>2026-03-28T12:13:59.033Z</time></trkpt><trkpt lat="40.1582033" lon="15.3780717"><ele>507.75</ele><time>2026-03-28T12:14:00.033Z</time></trkpt><trkpt lat="40.158135" lon="15.3779483"><ele>508.0</ele><time>2026-03-28T12:14:01.034Z</time></trkpt><trkpt lat="40.1580417" lon="15.3777883"><ele>503.33333333333337</ele><time>2026-03-28T12:14:02.034Z</time></trkpt><trkpt lat="40.1579433" lon="15.377625"><ele>498.66666666666663</ele><time>2026-03-28T12:14:03.033Z</time></trkpt><trkpt lat="40.1578467" lon="15.37747"><ele>494.0</ele><time>2026-03-28T12:14:04.034Z</time></trkpt><trkpt lat="40.1577517" lon="15.37733"><ele>493.99999999999994</ele><time>2026-03-28T12:14:05.033Z</time></trkpt><trkpt lat="40.1576583" lon="15.37723"><ele>494.0</ele><time>2026-03-28T12:14:06.034Z</time></trkpt><trkpt lat="40.1575733" lon="15.3771583"><ele>494.0</ele><time>2026-03-28T12:14:07.034Z</time></trkpt><trkpt lat="40.1574983" lon="15.3771133"><ele>494.0</ele><time>2026-03-28T12:14:08.033Z</time></trkpt><trkpt lat="40.1574333" lon="15.3771067"><ele>493.99999999999994</ele><time>2026-03-28T12:14:09.033Z</time></trkpt><trkpt lat="40.1573733" lon="15.3771383"><ele>494.0</ele><time>2026-03-28T12:14:10.034Z</time></trkpt><trkpt lat="40.1573333" lon="15.3772117"><ele>490.25</ele><time>2026-03-28T12:14:11.033Z</time></trkpt><trkpt lat="40.15731" lon="15.3773267"><ele>486.5</ele><time>2026-03-28T12:14:12.033Z</time></trkpt><trkpt lat="40.157295" lon="15.37749"><ele>482.75</ele><time>2026-03-28T12:14:13.034Z</time></trkpt><trkpt lat="40.1572783" lon="15.377695"><ele>479.0</ele><time>2026-03-28T12:14:14.034Z</time></trkpt><trkpt lat="40.1572633" lon="15.3779233"><ele>476.66666666666663</ele><time>2026-03-28T12:14:15.034Z</time></trkpt><trkpt lat="40.1572317" lon="15.3781733"><ele>474.33333333333337</ele><time>2026-03-28T12:14:16.033Z</time></trkpt><trkpt lat="40.1571933" lon="15.3784317"><ele>472.0</ele><time>2026-03-28T12:14:17.034Z</time></trkpt><trkpt lat="40.1571433" lon="15.3786817"><ele>472.33333333333337</ele><time>2026-03-28T12:14:18.034Z</time></trkpt><trkpt lat="40.1570833" lon="15.3789217"><ele>472.66666666666663</ele><time>2026-03-28T12:14:19.034Z</time></trkpt><trkpt lat="40.1570217" lon="15.3791483"><ele>473.0</ele><time>2026-03-28T12:14:20.033Z</time></trkpt><trkpt lat="40.1569467" lon="15.3793717"><ele>473.0</ele><time>2026-03-28T12:14:21.033Z</time></trkpt><trkpt lat="40.1568633" lon="15.3795917"><ele>473.0</ele><time>2026-03-28T12:14:22.033Z</time></trkpt><trkpt lat="40.1567767" lon="15.37982"><ele>473.0</ele><time>2026-03-28T12:14:23.033Z</time></trkpt><trkpt lat="40.156685" lon="15.3800367"><ele>471.66666666666663</ele><time>2026-03-28T12:14:24.034Z</time></trkpt><trkpt lat="40.156595" lon="15.3802383"><ele>470.33333333333337</ele><time>2026-03-28T12:14:25.033Z</time></trkpt><trkpt lat="40.156515" lon="15.3804267"><ele>469.0</ele><time>2026-03-28T12:14:26.034Z</time></trkpt><trkpt lat="40.1564433" lon="15.3805983"><ele>469.0</ele><time>2026-03-28T12:14:27.034Z</time></trkpt><trkpt lat="40.156365" lon="15.3807567"><ele>469.0</ele><time>2026-03-28T12:14:28.034Z</time></trkpt><trkpt lat="40.1562767" lon="15.3808783"><ele>469.0</ele><time>2026-03-28T12:14:29.034Z</time></trkpt><trkpt lat="40.1561733" lon="15.3809817"><ele>469.0</ele><time>2026-03-28T12:14:30.034Z</time></trkpt><trkpt lat="40.156085" lon="15.3811017"><ele>469.0</ele><time>2026-03-28T12:14:31.034Z</time></trkpt><trkpt lat="40.1560233" lon="15.3812383"><ele>469.0</ele><time>2026-03-28T12:14:32.033Z</time></trkpt><trkpt lat="40.15597" lon="15.3814117"><ele>469.0</ele><time>2026-03-28T12:14:33.033Z</time></trkpt><trkpt lat="40.1559267" lon="15.381605"><ele>469.0</ele><time>2026-03-28T12:14:34.034Z</time></trkpt><trkpt lat="40.1558867" lon="15.3818067"><ele>468.33333333333337</ele><time>2026-03-28T12:14:35.033Z</time></trkpt><trkpt lat="40.1558467" lon="15.3820067"><ele>467.66666666666663</ele><time>2026-03-28T12:14:36.034Z</time></trkpt><trkpt lat="40.1558033" lon="15.3822033"><ele>467.0</ele><time>2026-03-28T12:14:37.033Z</time></trkpt><trkpt lat="40.1557517" lon="15.382375"><ele>462.5</ele><time>2026-03-28T12:14:38.033Z</time></trkpt><trkpt lat="40.1556883" lon="15.3825083"><ele>458.0</ele><time>2026-03-28T12:14:39.033Z</time></trkpt><trkpt lat="40.1556183" lon="15.3826317"><ele>453.5</ele><time>2026-03-28T12:14:40.033Z</time></trkpt><trkpt lat="40.1555283" lon="15.3827617"><ele>449.0</ele><time>2026-03-28T12:14:41.033Z</time></trkpt><trkpt lat="40.155425" lon="15.3828783"><ele>449.0</ele><time>2026-03-28T12:14:42.033Z</time></trkpt><trkpt lat="40.1552983" lon="15.3829817"><ele>449.0</ele><time>2026-03-28T12:14:43.034Z</time></trkpt><trkpt lat="40.1551567" lon="15.38307"><ele>449.0</ele><time>2026-03-28T12:14:44.033Z</time></trkpt><trkpt lat="40.1550067" lon="15.3831383"><ele>446.3333333333333</ele><time>2026-03-28T12:14:45.033Z</time></trkpt><trkpt lat="40.1548433" lon="15.3832067"><ele>443.66666666666663</ele><time>2026-03-28T12:14:46.033Z</time></trkpt><trkpt lat="40.1546767" lon="15.3832817"><ele>441.0</ele><time>2026-03-28T12:14:47.033Z</time></trkpt><trkpt lat="40.1545167" lon="15.3833583"><ele>441.0</ele><time>2026-03-28T12:14:48.034Z</time></trkpt><trkpt lat="40.154355" lon="15.383435"><ele>441.0</ele><time>2026-03-28T12:14:49.033Z</time></trkpt><trkpt lat="40.1541917" lon="15.38352"><ele>441.0</ele><time>2026-03-28T12:14:50.034Z</time></trkpt><trkpt lat="40.15402" lon="15.3836183"><ele>438.33333333333337</ele><time>2026-03-28T12:14:51.033Z</time></trkpt><trkpt lat="40.1538467" lon="15.3837167"><ele>435.6666666666667</ele><time>2026-03-28T12:14:52.034Z</time></trkpt><trkpt lat="40.15368" lon="15.3838083"><ele>433.0</ele><time>2026-03-28T12:14:53.033Z</time></trkpt><trkpt lat="40.15352" lon="15.383895"><ele>433.0</ele><time>2026-03-28T12:14:54.033Z</time></trkpt><trkpt lat="40.1533583" lon="15.383985"><ele>433.0</ele><time>2026-03-28T12:14:55.033Z</time></trkpt><trkpt lat="40.1532067" lon="15.3840667"><ele>433.0</ele><time>2026-03-28T12:14:56.034Z</time></trkpt><trkpt lat="40.1530583" lon="15.38414"><ele>430.6666666666667</ele><time>2026-03-28T12:14:57.033Z</time></trkpt><trkpt lat="40.1529133" lon="15.3842133"><ele>428.33333333333337</ele><time>2026-03-28T12:14:58.034Z</time></trkpt><trkpt lat="40.1527717" lon="15.3842867"><ele>426.0</ele><time>2026-03-28T12:14:59.034Z</time></trkpt><trkpt lat="40.1526333" lon="15.3843533"><ele>426.0</ele><time>2026-03-28T12:15:00.033Z</time></trkpt><trkpt lat="40.1524967" lon="15.3843933"><ele>426.0</ele><time>2026-03-28T12:15:01.033Z</time></trkpt><trkpt lat="40.1523517" lon="15.3844217"><ele>426.0</ele><time>2026-03-28T12:15:02.034Z</time></trkpt><trkpt lat="40.15219" lon="15.3844283"><ele>426.0</ele><time>2026-03-28T12:15:03.034Z</time></trkpt><trkpt lat="40.1520167" lon="15.38442"><ele>423.66666666666663</ele><time>2026-03-28T12:15:04.034Z</time></trkpt><trkpt lat="40.151825" lon="15.38441"><ele>421.3333333333333</ele><time>2026-03-28T12:15:05.034Z</time></trkpt><trkpt lat="40.1516183" lon="15.3843983"><ele>419.0</ele><time>2026-03-28T12:15:06.034Z</time></trkpt><trkpt lat="40.151425" lon="15.3843817"><ele>416.3333333333333</ele><time>2026-03-28T12:15:07.034Z</time></trkpt><trkpt lat="40.15124" lon="15.3843633"><ele>413.66666666666663</ele><time>2026-03-28T12:15:08.034Z</time></trkpt><trkpt lat="40.1510667" lon="15.384345"><ele>411.0</ele><time>2026-03-28T12:15:09.033Z</time></trkpt><trkpt lat="40.1508967" lon="15.3843383"><ele>411.0</ele><time>2026-03-28T12:15:10.033Z</time></trkpt><trkpt lat="40.1507317" lon="15.3843317"><ele>411.0</ele><time>2026-03-28T12:15:11.033Z</time></trkpt><trkpt lat="40.1505683" lon="15.384335"><ele>411.0</ele><time>2026-03-28T12:15:12.033Z</time></trkpt><trkpt lat="40.1504" lon="15.3843683"><ele>408.0</ele><time>2026-03-28T12:15:13.033Z</time></trkpt><trkpt lat="40.15023" lon="15.3844233"><ele>405.0</ele><time>2026-03-28T12:15:14.034Z</time></trkpt><trkpt lat="40.1500617" lon="15.3844833"><ele>402.0</ele><time>2026-03-28T12:15:15.033Z</time></trkpt><trkpt lat="40.149905" lon="15.38454"><ele>400.25</ele><time>2026-03-28T12:15:16.034Z</time></trkpt><trkpt lat="40.1497567" lon="15.384595"><ele>398.5</ele><time>2026-03-28T12:15:17.034Z</time></trkpt><trkpt lat="40.149625" lon="15.3846417"><ele>396.75</ele><time>2026-03-28T12:15:18.033Z</time></trkpt><trkpt lat="40.149505" lon="15.3846767"><ele>395.0</ele><time>2026-03-28T12:15:19.033Z</time></trkpt><trkpt lat="40.149375" lon="15.3846733"><ele>395.0</ele><time>2026-03-28T12:15:20.034Z</time></trkpt><trkpt lat="40.1492283" lon="15.3846617"><ele>395.0</ele><time>2026-03-28T12:15:21.034Z</time></trkpt><trkpt lat="40.1490567" lon="15.3846567"><ele>395.0</ele><time>2026-03-28T12:15:22.033Z</time></trkpt><trkpt lat="40.14886" lon="15.3846617"><ele>394.0</ele><time>2026-03-28T12:15:23.034Z</time></trkpt><trkpt lat="40.1486433" lon="15.3846767"><ele>393.0</ele><time>2026-03-28T12:15:24.034Z</time></trkpt><trkpt lat="40.1484417" lon="15.3846933"><ele>392.0</ele><time>2026-03-28T12:15:25.033Z</time></trkpt><trkpt lat="40.148255" lon="15.3846983"><ele>390.0</ele><time>2026-03-28T12:15:26.034Z</time></trkpt><trkpt lat="40.1480767" lon="15.3846967"><ele>388.0</ele><time>2026-03-28T12:15:27.033Z</time></trkpt><trkpt lat="40.1478967" lon="15.38471"><ele>386.0</ele><time>2026-03-28T12:15:28.034Z</time></trkpt><trkpt lat="40.147715" lon="15.38474"><ele>386.0</ele><time>2026-03-28T12:15:29.033Z</time></trkpt><trkpt lat="40.147545" lon="15.3847867"><ele>386.0</ele><time>2026-03-28T12:15:30.034Z</time></trkpt><trkpt lat="40.14738" lon="15.38484"><ele>386.0</ele><time>2026-03-28T12:15:31.034Z</time></trkpt><trkpt lat="40.1472233" lon="15.3849"><ele>385.25</ele><time>2026-03-28T12:15:32.033Z</time></trkpt><trkpt lat="40.14708" lon="15.3849733"><ele>384.5</ele><time>2026-03-28T12:15:33.033Z</time></trkpt><trkpt lat="40.1469517" lon="15.385045"><ele>383.75</ele><time>2026-03-28T12:15:34.034Z</time></trkpt><trkpt lat="40.1468367" lon="15.3850933"><ele>383.0</ele><time>2026-03-28T12:15:35.034Z</time></trkpt><trkpt lat="40.1467267" lon="15.385115"><ele>383.0</ele><time>2026-03-28T12:15:36.033Z</time></trkpt><trkpt lat="40.146625" lon="15.3851067"><ele>383.0</ele><time>2026-03-28T12:15:37.033Z</time></trkpt><trkpt lat="40.146535" lon="15.385085"><ele>383.0</ele><time>2026-03-28T12:15:38.033Z</time></trkpt><trkpt lat="40.146455" lon="15.3850367"><ele>383.0</ele><time>2026-03-28T12:15:39.034Z</time></trkpt><trkpt lat="40.1463917" lon="15.3849583"><ele>383.0</ele><time>2026-03-28T12:15:40.034Z</time></trkpt><trkpt lat="40.1463483" lon="15.38487"><ele>383.0</ele><time>2026-03-28T12:15:41.033Z</time></trkpt><trkpt lat="40.146305" lon="15.3847867"><ele>380.25</ele><time>2026-03-28T12:15:42.033Z</time></trkpt><trkpt lat="40.1461933" lon="15.384745"><ele>377.5</ele><time>2026-03-28T12:15:44.033Z</time></trkpt><trkpt lat="40.1461317" lon="15.38481"><ele>374.75</ele><time>2026-03-28T12:15:45.034Z</time></trkpt><trkpt lat="40.1460633" lon="15.3849233"><ele>372.0</ele><time>2026-03-28T12:15:46.033Z</time></trkpt><trkpt lat="40.145975" lon="15.3850783"><ele>372.0</ele><time>2026-03-28T12:15:47.033Z</time></trkpt><trkpt lat="40.1458617" lon="15.3852517"><ele>372.0</ele><time>2026-03-28T12:15:48.034Z</time></trkpt><trkpt lat="40.1457283" lon="15.3854183"><ele>372.0</ele><time>2026-03-28T12:15:49.034Z</time></trkpt><trkpt lat="40.14559" lon="15.3855783"><ele>369.3333333333333</ele><time>2026-03-28T12:15:50.033Z</time></trkpt><trkpt lat="40.1454367" lon="15.3857217"><ele>366.66666666666663</ele><time>2026-03-28T12:15:51.034Z</time></trkpt><trkpt lat="40.1452967" lon="15.3858567"><ele>364.0</ele><time>2026-03-28T12:15:52.034Z</time></trkpt><trkpt lat="40.14517" lon="15.3859683"><ele>364.0</ele><time>2026-03-28T12:15:53.034Z</time></trkpt><trkpt lat="40.1450433" lon="15.38605"><ele>364.0</ele><time>2026-03-28T12:15:54.033Z</time></trkpt><trkpt lat="40.1449017" lon="15.386115"><ele>364.0</ele><time>2026-03-28T12:15:55.033Z</time></trkpt><trkpt lat="40.1447433" lon="15.386185"><ele>363.0</ele><time>2026-03-28T12:15:56.033Z</time></trkpt><trkpt lat="40.14456" lon="15.3862567"><ele>362.0</ele><time>2026-03-28T12:15:57.034Z</time></trkpt><trkpt lat="40.1443833" lon="15.386345"><ele>361.0</ele><time>2026-03-28T12:15:58.033Z</time></trkpt><trkpt lat="40.1442217" lon="15.386425"><ele>363.0</ele><time>2026-03-28T12:15:59.033Z</time></trkpt><trkpt lat="40.1440767" lon="15.3865033"><ele>365.0</ele><time>2026-03-28T12:16:00.033Z</time></trkpt><trkpt lat="40.1439367" lon="15.3865633"><ele>367.0</ele><time>2026-03-28T12:16:01.033Z</time></trkpt><trkpt lat="40.1437883" lon="15.3865833"><ele>369.0</ele><time>2026-03-28T12:16:02.034Z</time></trkpt><trkpt lat="40.1436267" lon="15.3866"><ele>371.0</ele><time>2026-03-28T12:16:03.033Z</time></trkpt><trkpt lat="40.1434533" lon="15.38664"><ele>373.0</ele><time>2026-03-28T12:16:04.033Z</time></trkpt><trkpt lat="40.143285" lon="15.3866933"><ele>370.66666666666663</ele><time>2026-03-28T12:16:05.033Z</time></trkpt><trkpt lat="40.143125" lon="15.386755"><ele>368.3333333333333</ele><time>2026-03-28T12:16:06.033Z</time></trkpt><trkpt lat="40.142985" lon="15.3868183"><ele>366.0</ele><time>2026-03-28T12:16:07.033Z</time></trkpt><trkpt lat="40.1428617" lon="15.3869"><ele>366.0</ele><time>2026-03-28T12:16:08.033Z</time></trkpt><trkpt lat="40.1427533" lon="15.387"><ele>366.0</ele><time>2026-03-28T12:16:09.033Z</time></trkpt><trkpt lat="40.14266" lon="15.387115"><ele>366.0</ele><time>2026-03-28T12:16:10.033Z</time></trkpt><trkpt lat="40.1425983" lon="15.3872633"><ele>366.0</ele><time>2026-03-28T12:16:11.033Z</time></trkpt><trkpt lat="40.1425467" lon="15.3874283"><ele>366.0</ele><time>2026-03-28T12:16:12.034Z</time></trkpt><trkpt lat="40.1424733" lon="15.3875767"><ele>366.0</ele><time>2026-03-28T12:16:13.033Z</time></trkpt><trkpt lat="40.1423717" lon="15.3877117"><ele>366.0</ele><time>2026-03-28T12:16:14.033Z</time></trkpt><trkpt lat="40.1422667" lon="15.38787"><ele>366.0</ele><time>2026-03-28T12:16:15.033Z</time></trkpt><trkpt lat="40.1421733" lon="15.38805"><ele>366.0</ele><time>2026-03-28T12:16:16.033Z</time></trkpt><trkpt lat="40.142095" lon="15.3882383"><ele>366.0</ele><time>2026-03-28T12:16:17.034Z</time></trkpt><trkpt lat="40.142035" lon="15.388415"><ele>366.0</ele><time>2026-03-28T12:16:18.034Z</time></trkpt><trkpt lat="40.141975" lon="15.38856"><ele>366.0</ele><time>2026-03-28T12:16:19.033Z</time></trkpt><trkpt lat="40.1419183" lon="15.3886983"><ele>366.0</ele><time>2026-03-28T12:16:20.033Z</time></trkpt><trkpt lat="40.1418567" lon="15.38881"><ele>366.0</ele><time>2026-03-28T12:16:21.033Z</time></trkpt><trkpt lat="40.14178" lon="15.3889017"><ele>366.0</ele><time>2026-03-28T12:16:22.033Z</time></trkpt><trkpt lat="40.141685" lon="15.38896"><ele>366.0</ele><time>2026-03-28T12:16:23.034Z</time></trkpt><trkpt lat="40.1415783" lon="15.3889733"><ele>366.0</ele><time>2026-03-28T12:16:24.034Z</time></trkpt><trkpt lat="40.1414567" lon="15.3889367"><ele>365.0</ele><time>2026-03-28T12:16:25.033Z</time></trkpt><trkpt lat="40.1413183" lon="15.38887"><ele>364.0</ele><time>2026-03-28T12:16:26.034Z</time></trkpt><trkpt lat="40.14115" lon="15.3887967"><ele>363.0</ele><time>2026-03-28T12:16:27.033Z</time></trkpt><trkpt lat="40.1409533" lon="15.3887333"><ele>363.0</ele><time>2026-03-28T12:16:28.034Z</time></trkpt><trkpt lat="40.1407367" lon="15.388685"><ele>363.0</ele><time>2026-03-28T12:16:29.033Z</time></trkpt><trkpt lat="40.1405117" lon="15.3886383"><ele>363.0</ele><time>2026-03-28T12:16:30.033Z</time></trkpt><trkpt lat="40.1403167" lon="15.3885817"><ele>361.5</ele><time>2026-03-28T12:16:31.033Z</time></trkpt><trkpt lat="40.1401517" lon="15.3885233"><ele>360.0</ele><time>2026-03-28T12:16:32.033Z</time></trkpt><trkpt lat="40.1400167" lon="15.3884783"><ele>358.5</ele><time>2026-03-28T12:16:33.033Z</time></trkpt><trkpt lat="40.1398833" lon="15.388485"><ele>357.0</ele><time>2026-03-28T12:16:34.033Z</time></trkpt><trkpt lat="40.1397533" lon="15.388535"><ele>357.0</ele><time>2026-03-28T12:16:35.033Z</time></trkpt><trkpt lat="40.1396383" lon="15.3886067"><ele>357.0</ele><time>2026-03-28T12:16:36.034Z</time></trkpt><trkpt lat="40.1395383" lon="15.3887017"><ele>357.0</ele><time>2026-03-28T12:16:37.033Z</time></trkpt><trkpt lat="40.1394633" lon="15.3888233"><ele>357.0</ele><time>2026-03-28T12:16:38.033Z</time></trkpt><trkpt lat="40.1393967" lon="15.3889767"><ele>360.75</ele><time>2026-03-28T12:16:39.034Z</time></trkpt><trkpt lat="40.139345" lon="15.38915"><ele>364.5</ele><time>2026-03-28T12:16:40.033Z</time></trkpt><trkpt lat="40.1392883" lon="15.3893367"><ele>368.25</ele><time>2026-03-28T12:16:41.034Z</time></trkpt><trkpt lat="40.1392333" lon="15.3895233"><ele>372.0</ele><time>2026-03-28T12:16:42.033Z</time></trkpt><trkpt lat="40.139175" lon="15.3897033"><ele>376.0</ele><time>2026-03-28T12:16:43.033Z</time></trkpt><trkpt lat="40.13909" lon="15.38987"><ele>380.0</ele><time>2026-03-28T12:16:44.034Z</time></trkpt><trkpt lat="40.1389867" lon="15.3900283"><ele>384.0</ele><time>2026-03-28T12:16:45.034Z</time></trkpt><trkpt lat="40.138865" lon="15.390175"><ele>381.0</ele><time>2026-03-28T12:16:46.034Z</time></trkpt><trkpt lat="40.13873" lon="15.3903283"><ele>378.0</ele><time>2026-03-28T12:16:47.033Z</time></trkpt><trkpt lat="40.1386033" lon="15.3904783"><ele>375.0</ele><time>2026-03-28T12:16:48.034Z</time></trkpt><trkpt lat="40.13849" lon="15.3906167"><ele>375.0</ele><time>2026-03-28T12:16:49.034Z</time></trkpt><trkpt lat="40.1383867" lon="15.390755"><ele>375.0</ele><time>2026-03-28T12:16:50.033Z</time></trkpt><trkpt lat="40.1382733" lon="15.390895"><ele>375.0</ele><time>2026-03-28T12:16:51.033Z</time></trkpt><trkpt lat="40.13815" lon="15.391025"><ele>373.0</ele><time>2026-03-28T12:16:52.034Z</time></trkpt><trkpt lat="40.138025" lon="15.3911433"><ele>371.0</ele><time>2026-03-28T12:16:53.033Z</time></trkpt><trkpt lat="40.1379067" lon="15.3912567"><ele>369.0</ele><time>2026-03-28T12:16:54.034Z</time></trkpt><trkpt lat="40.1378" lon="15.3913483"><ele>367.0</ele><time>2026-03-28T12:16:55.034Z</time></trkpt><trkpt lat="40.137705" lon="15.3914117"><ele>367.0</ele><time>2026-03-28T12:16:56.033Z</time></trkpt><trkpt lat="40.1376117" lon="15.391455"><ele>367.0</ele><time>2026-03-28T12:16:57.033Z</time></trkpt><trkpt lat="40.1375117" lon="15.39146"><ele>367.0</ele><time>2026-03-28T12:16:58.034Z</time></trkpt><trkpt lat="40.137405" lon="15.39143"><ele>367.0</ele><time>2026-03-28T12:16:59.033Z</time></trkpt><trkpt lat="40.1372933" lon="15.3913683"><ele>367.0</ele><time>2026-03-28T12:17:00.033Z</time></trkpt><trkpt lat="40.1371733" lon="15.391305"><ele>366.75</ele><time>2026-03-28T12:17:01.034Z</time></trkpt><trkpt lat="40.13704" lon="15.39126"><ele>366.5</ele><time>2026-03-28T12:17:02.033Z</time></trkpt><trkpt lat="40.1368933" lon="15.391245"><ele>366.25</ele><time>2026-03-28T12:17:03.034Z</time></trkpt><trkpt lat="40.1367467" lon="15.3912467"><ele>366.0</ele><time>2026-03-28T12:17:04.034Z</time></trkpt><trkpt lat="40.136605" lon="15.3912433"><ele>369.75</ele><time>2026-03-28T12:17:05.034Z</time></trkpt><trkpt lat="40.1364733" lon="15.391205"><ele>373.5</ele><time>2026-03-28T12:17:06.033Z</time></trkpt><trkpt lat="40.136345" lon="15.391125"><ele>377.25</ele><time>2026-03-28T12:17:07.033Z</time></trkpt><trkpt lat="40.13623" lon="15.3910167"><ele>381.0</ele><time>2026-03-28T12:17:08.034Z</time></trkpt><trkpt lat="40.1361017" lon="15.3908883"><ele>381.0</ele><time>2026-03-28T12:17:09.034Z</time></trkpt><trkpt lat="40.1359667" lon="15.3907683"><ele>381.0</ele><time>2026-03-28T12:17:10.033Z</time></trkpt><trkpt lat="40.135825" lon="15.3906717"><ele>381.0</ele><time>2026-03-28T12:17:11.033Z</time></trkpt><trkpt lat="40.1356817" lon="15.390585"><ele>378.75</ele><time>2026-03-28T12:17:12.033Z</time></trkpt><trkpt lat="40.1355633" lon="15.3904817"><ele>376.5</ele><time>2026-03-28T12:17:13.034Z</time></trkpt><trkpt lat="40.1354567" lon="15.3903883"><ele>374.25</ele><time>2026-03-28T12:17:14.034Z</time></trkpt><trkpt lat="40.1353517" lon="15.3903267"><ele>372.0</ele><time>2026-03-28T12:17:15.034Z</time></trkpt><trkpt lat="40.1352417" lon="15.3903"><ele>372.0</ele><time>2026-03-28T12:17:16.034Z</time></trkpt><trkpt lat="40.1351283" lon="15.3903233"><ele>372.0</ele><time>2026-03-28T12:17:17.035Z</time></trkpt><trkpt lat="40.13502" lon="15.3903583"><ele>372.0</ele><time>2026-03-28T12:17:18.035Z</time></trkpt><trkpt lat="40.13493" lon="15.3903533"><ele>372.0</ele><time>2026-03-28T12:17:19.034Z</time></trkpt><trkpt lat="40.1348483" lon="15.3902883"><ele>372.0</ele><time>2026-03-28T12:17:20.034Z</time></trkpt><trkpt lat="40.1347733" lon="15.3902067"><ele>374.75</ele><time>2026-03-28T12:17:21.035Z</time></trkpt><trkpt lat="40.134685" lon="15.390115"><ele>377.5</ele><time>2026-03-28T12:17:22.034Z</time></trkpt><trkpt lat="40.13459" lon="15.39005"><ele>380.25</ele><time>2026-03-28T12:17:23.034Z</time></trkpt><trkpt lat="40.1344783" lon="15.3900383"><ele>383.0</ele><time>2026-03-28T12:17:24.034Z</time></trkpt><trkpt lat="40.1343517" lon="15.3900767"><ele>383.0</ele><time>2026-03-28T12:17:25.035Z</time></trkpt><trkpt lat="40.1342067" lon="15.3901233"><ele>383.0</ele><time>2026-03-28T12:17:26.034Z</time></trkpt><trkpt lat="40.1340667" lon="15.3901233"><ele>383.0</ele><time>2026-03-28T12:17:27.034Z</time></trkpt><trkpt lat="40.1339283" lon="15.390075"><ele>383.0</ele><time>2026-03-28T12:17:28.034Z</time></trkpt><trkpt lat="40.1338017" lon="15.38998"><ele>382.5</ele><time>2026-03-28T12:17:29.034Z</time></trkpt><trkpt lat="40.13369" lon="15.389845"><ele>382.0</ele><time>2026-03-28T12:17:30.035Z</time></trkpt><trkpt lat="40.13357" lon="15.3897283"><ele>381.5</ele><time>2026-03-28T12:17:31.035Z</time></trkpt><trkpt lat="40.133445" lon="15.389635"><ele>381.0</ele><time>2026-03-28T12:17:32.034Z</time></trkpt><trkpt lat="40.1333233" lon="15.3895617"><ele>385.0</ele><time>2026-03-28T12:17:33.034Z</time></trkpt><trkpt lat="40.13322" lon="15.3894683"><ele>389.0</ele><time>2026-03-28T12:17:34.034Z</time></trkpt><trkpt lat="40.1331367" lon="15.3893467"><ele>393.0</ele><time>2026-03-28T12:17:35.034Z</time></trkpt><trkpt lat="40.1330617" lon="15.3891883"><ele>397.0</ele><time>2026-03-28T12:17:36.034Z</time></trkpt><trkpt lat="40.133005" lon="15.389"><ele>394.6666666666667</ele><time>2026-03-28T12:17:37.035Z</time></trkpt><trkpt lat="40.1329483" lon="15.3887967"><ele>392.33333333333337</ele><time>2026-03-28T12:17:38.035Z</time></trkpt><trkpt lat="40.1328767" lon="15.3886033"><ele>390.0</ele><time>2026-03-28T12:17:39.035Z</time></trkpt><trkpt lat="40.1327817" lon="15.3884367"><ele>390.0</ele><time>2026-03-28T12:17:40.034Z</time></trkpt><trkpt lat="40.132675" lon="15.3883"><ele>390.0</ele><time>2026-03-28T12:17:41.034Z</time></trkpt><trkpt lat="40.1325667" lon="15.3882017"><ele>390.0</ele><time>2026-03-28T12:17:42.034Z</time></trkpt><trkpt lat="40.132465" lon="15.3881267"><ele>390.0</ele><time>2026-03-28T12:17:43.034Z</time></trkpt><trkpt lat="40.13236" lon="15.3880883"><ele>388.25</ele><time>2026-03-28T12:17:44.035Z</time></trkpt><trkpt lat="40.1322433" lon="15.38809"><ele>386.5</ele><time>2026-03-28T12:17:45.034Z</time></trkpt><trkpt lat="40.1321167" lon="15.3881117"><ele>384.75</ele><time>2026-03-28T12:17:46.034Z</time></trkpt><trkpt lat="40.1320017" lon="15.3881167"><ele>383.0</ele><time>2026-03-28T12:17:47.035Z</time></trkpt><trkpt lat="40.13189" lon="15.38811"><ele>383.0</ele><time>2026-03-28T12:17:48.034Z</time></trkpt><trkpt lat="40.1317833" lon="15.3881433"><ele>383.0</ele><time>2026-03-28T12:17:49.034Z</time></trkpt><trkpt lat="40.13169" lon="15.38822"><ele>383.0</ele><time>2026-03-28T12:17:50.035Z</time></trkpt><trkpt lat="40.1316183" lon="15.3883383"><ele>383.0</ele><time>2026-03-28T12:17:51.035Z</time></trkpt><trkpt lat="40.13155" lon="15.3884617"><ele>380.0</ele><time>2026-03-28T12:17:52.035Z</time></trkpt><trkpt lat="40.131465" lon="15.3885683"><ele>377.0</ele><time>2026-03-28T12:17:53.034Z</time></trkpt><trkpt lat="40.1313433" lon="15.3886417"><ele>374.0</ele><time>2026-03-28T12:17:54.035Z</time></trkpt><trkpt lat="40.1311917" lon="15.3886883"><ele>371.0</ele><time>2026-03-28T12:17:55.034Z</time></trkpt><trkpt lat="40.13102" lon="15.3887333"><ele>371.0</ele><time>2026-03-28T12:17:56.035Z</time></trkpt><trkpt lat="40.13085" lon="15.3887767"><ele>371.0</ele><time>2026-03-28T12:17:57.034Z</time></trkpt><trkpt lat="40.130695" lon="15.38882"><ele>371.0</ele><time>2026-03-28T12:17:58.034Z</time></trkpt><trkpt lat="40.1305517" lon="15.388855"><ele>371.75</ele><time>2026-03-28T12:17:59.035Z</time></trkpt><trkpt lat="40.1304217" lon="15.3889117"><ele>372.5</ele><time>2026-03-28T12:18:00.035Z</time></trkpt><trkpt lat="40.1303" lon="15.3890067"><ele>373.25</ele><time>2026-03-28T12:18:01.035Z</time></trkpt><trkpt lat="40.130185" lon="15.3891217"><ele>374.0</ele><time>2026-03-28T12:18:02.034Z</time></trkpt><trkpt lat="40.1300967" lon="15.389235"><ele>374.0</ele><time>2026-03-28T12:18:03.034Z</time></trkpt><trkpt lat="40.1300067" lon="15.3893317"><ele>374.0</ele><time>2026-03-28T12:18:04.035Z</time></trkpt><trkpt lat="40.1299017" lon="15.3893833"><ele>374.0</ele><time>2026-03-28T12:18:05.034Z</time></trkpt><trkpt lat="40.1297967" lon="15.3894017"><ele>374.0</ele><time>2026-03-28T12:18:06.034Z</time></trkpt><trkpt lat="40.1296783" lon="15.389385"><ele>374.25</ele><time>2026-03-28T12:18:07.035Z</time></trkpt><trkpt lat="40.1295533" lon="15.3893333"><ele>374.5</ele><time>2026-03-28T12:18:08.035Z</time></trkpt><trkpt lat="40.1294083" lon="15.3892683"><ele>374.75</ele><time>2026-03-28T12:18:09.035Z</time></trkpt><trkpt lat="40.1292517" lon="15.389205"><ele>375.0</ele><time>2026-03-28T12:18:10.034Z</time></trkpt><trkpt lat="40.1290833" lon="15.389175"><ele>373.75</ele><time>2026-03-28T12:18:11.034Z</time></trkpt><trkpt lat="40.1289333" lon="15.3891733"><ele>372.5</ele><time>2026-03-28T12:18:12.035Z</time></trkpt><trkpt lat="40.128785" lon="15.3891717"><ele>371.25</ele><time>2026-03-28T12:18:13.035Z</time></trkpt><trkpt lat="40.1286533" lon="15.3891467"><ele>370.0</ele><time>2026-03-28T12:18:14.034Z</time></trkpt><trkpt lat="40.1285217" lon="15.38909"><ele>370.0</ele><time>2026-03-28T12:18:15.034Z</time></trkpt><trkpt lat="40.1284017" lon="15.38901"><ele>370.0</ele><time>2026-03-28T12:18:16.034Z</time></trkpt><trkpt lat="40.128295" lon="15.3889017"><ele>370.0</ele><time>2026-03-28T12:18:17.035Z</time></trkpt><trkpt lat="40.1281767" lon="15.388795"><ele>370.0</ele><time>2026-03-28T12:18:18.034Z</time></trkpt><trkpt lat="40.1280517" lon="15.3887167"><ele>369.25</ele><time>2026-03-28T12:18:19.035Z</time></trkpt><trkpt lat="40.127925" lon="15.388685"><ele>368.5</ele><time>2026-03-28T12:18:20.035Z</time></trkpt><trkpt lat="40.1277983" lon="15.3887017"><ele>367.75</ele><time>2026-03-28T12:18:21.035Z</time></trkpt><trkpt lat="40.1276833" lon="15.38876"><ele>367.0</ele><time>2026-03-28T12:18:22.034Z</time></trkpt><trkpt lat="40.1275817" lon="15.38883"><ele>367.0</ele><time>2026-03-28T12:18:23.034Z</time></trkpt><trkpt lat="40.1274817" lon="15.388885"><ele>367.0</ele><time>2026-03-28T12:18:24.034Z</time></trkpt><trkpt lat="40.1273567" lon="15.3888917"><ele>367.0</ele><time>2026-03-28T12:18:25.034Z</time></trkpt><trkpt lat="40.1272217" lon="15.38886"><ele>367.0</ele><time>2026-03-28T12:18:26.034Z</time></trkpt><trkpt lat="40.1270733" lon="15.388795"><ele>369.3333333333333</ele><time>2026-03-28T12:18:27.034Z</time></trkpt><trkpt lat="40.126905" lon="15.388715"><ele>371.6666666666667</ele><time>2026-03-28T12:18:28.034Z</time></trkpt><trkpt lat="40.12673" lon="15.3886367"><ele>374.0</ele><time>2026-03-28T12:18:29.035Z</time></trkpt><trkpt lat="40.12656" lon="15.38855"><ele>374.6666666666667</ele><time>2026-03-28T12:18:30.034Z</time></trkpt><trkpt lat="40.12641" lon="15.3884617"><ele>375.3333333333333</ele><time>2026-03-28T12:18:31.034Z</time></trkpt><trkpt lat="40.1262733" lon="15.38838"><ele>376.0</ele><time>2026-03-28T12:18:32.034Z</time></trkpt><trkpt lat="40.126135" lon="15.3883283"><ele>376.0</ele><time>2026-03-28T12:18:33.034Z</time></trkpt><trkpt lat="40.125995" lon="15.3883133"><ele>376.0</ele><time>2026-03-28T12:18:34.035Z</time></trkpt><trkpt lat="40.12586" lon="15.3883117"><ele>376.0</ele><time>2026-03-28T12:18:35.034Z</time></trkpt><trkpt lat="40.1257367" lon="15.3882917"><ele>376.0</ele><time>2026-03-28T12:18:36.034Z</time></trkpt><trkpt lat="40.1255967" lon="15.3882333"><ele>376.0</ele><time>2026-03-28T12:18:37.034Z</time></trkpt><trkpt lat="40.125465" lon="15.3881533"><ele>376.0</ele><time>2026-03-28T12:18:38.035Z</time></trkpt><trkpt lat="40.1253267" lon="15.3880517"><ele>376.0</ele><time>2026-03-28T12:18:39.034Z</time></trkpt><trkpt lat="40.1251983" lon="15.38793"><ele>376.5</ele><time>2026-03-28T12:18:40.035Z</time></trkpt><trkpt lat="40.1250883" lon="15.3878083"><ele>377.0</ele><time>2026-03-28T12:18:41.035Z</time></trkpt><trkpt lat="40.1249867" lon="15.3877033"><ele>377.5</ele><time>2026-03-28T12:18:42.034Z</time></trkpt><trkpt lat="40.12488" lon="15.3876383"><ele>378.0</ele><time>2026-03-28T12:18:43.035Z</time></trkpt><trkpt lat="40.1247517" lon="15.3876183"><ele>381.5</ele><time>2026-03-28T12:18:44.035Z</time></trkpt><trkpt lat="40.12461" lon="15.3876233"><ele>385.0</ele><time>2026-03-28T12:18:45.034Z</time></trkpt><trkpt lat="40.1244633" lon="15.3875983"><ele>388.5</ele><time>2026-03-28T12:18:46.034Z</time></trkpt><trkpt lat="40.124345" lon="15.3875167"><ele>392.0</ele><time>2026-03-28T12:18:47.034Z</time></trkpt><trkpt lat="40.1242283" lon="15.3874"><ele>392.0</ele><time>2026-03-28T12:18:48.034Z</time></trkpt><trkpt lat="40.1241183" lon="15.3872767"><ele>392.0</ele><time>2026-03-28T12:18:49.034Z</time></trkpt><trkpt lat="40.1240183" lon="15.3871717"><ele>392.0</ele><time>2026-03-28T12:18:50.034Z</time></trkpt><trkpt lat="40.1239183" lon="15.3870817"><ele>392.0</ele><time>2026-03-28T12:18:51.034Z</time></trkpt><trkpt lat="40.1238083" lon="15.38703"><ele>391.5</ele><time>2026-03-28T12:18:52.034Z</time></trkpt><trkpt lat="40.12368" lon="15.3870133"><ele>391.0</ele><time>2026-03-28T12:18:53.035Z</time></trkpt><trkpt lat="40.123545" lon="15.3870317"><ele>390.5</ele><time>2026-03-28T12:18:54.034Z</time></trkpt><trkpt lat="40.1234133" lon="15.3870817"><ele>390.0</ele><time>2026-03-28T12:18:55.035Z</time></trkpt><trkpt lat="40.1232933" lon="15.387145"><ele>391.5</ele><time>2026-03-28T12:18:56.034Z</time></trkpt><trkpt lat="40.1231783" lon="15.3871917"><ele>393.0</ele><time>2026-03-28T12:18:57.034Z</time></trkpt><trkpt lat="40.1230583" lon="15.3871867"><ele>394.5</ele><time>2026-03-28T12:18:58.034Z</time></trkpt><trkpt lat="40.1229367" lon="15.387135"><ele>396.0</ele><time>2026-03-28T12:18:59.034Z</time></trkpt><trkpt lat="40.1228183" lon="15.3870417"><ele>396.0</ele><time>2026-03-28T12:19:00.034Z</time></trkpt><trkpt lat="40.1226933" lon="15.3869433"><ele>396.0</ele><time>2026-03-28T12:19:01.034Z</time></trkpt><trkpt lat="40.122535" lon="15.3868633"><ele>396.0</ele><time>2026-03-28T12:19:02.034Z</time></trkpt><trkpt lat="40.1223617" lon="15.386785"><ele>396.0</ele><time>2026-03-28T12:19:03.034Z</time></trkpt><trkpt lat="40.1221867" lon="15.386715"><ele>396.0</ele><time>2026-03-28T12:19:04.034Z</time></trkpt><trkpt lat="40.122025" lon="15.3866567"><ele>396.0</ele><time>2026-03-28T12:19:05.034Z</time></trkpt><trkpt lat="40.12188" lon="15.386595"><ele>396.0</ele><time>2026-03-28T12:19:06.035Z</time></trkpt><trkpt lat="40.1217317" lon="15.38654"><ele>396.0</ele><time>2026-03-28T12:19:07.034Z</time></trkpt><trkpt lat="40.121575" lon="15.3864983"><ele>396.0</ele><time>2026-03-28T12:19:08.034Z</time></trkpt><trkpt lat="40.1213933" lon="15.3864883"><ele>395.66666666666663</ele><time>2026-03-28T12:19:09.034Z</time></trkpt><trkpt lat="40.1212067" lon="15.3865067"><ele>395.3333333333333</ele><time>2026-03-28T12:19:10.035Z</time></trkpt><trkpt lat="40.121035" lon="15.3865233"><ele>395.0</ele><time>2026-03-28T12:19:11.035Z</time></trkpt><trkpt lat="40.1208783" lon="15.3865467"><ele>395.0</ele><time>2026-03-28T12:19:12.035Z</time></trkpt><trkpt lat="40.1207417" lon="15.3865767"><ele>395.0</ele><time>2026-03-28T12:19:13.034Z</time></trkpt><trkpt lat="40.1206217" lon="15.386605"><ele>395.0</ele><time>2026-03-28T12:19:14.035Z</time></trkpt><trkpt lat="40.1205067" lon="15.3866"><ele>395.0</ele><time>2026-03-28T12:19:15.034Z</time></trkpt><trkpt lat="40.120395" lon="15.3865633"><ele>394.25</ele><time>2026-03-28T12:19:16.035Z</time></trkpt><trkpt lat="40.1202883" lon="15.3864733"><ele>393.5</ele><time>2026-03-28T12:19:17.034Z</time></trkpt><trkpt lat="40.120195" lon="15.386365"><ele>392.75</ele><time>2026-03-28T12:19:18.035Z</time></trkpt><trkpt lat="40.1201167" lon="15.3862183"><ele>392.0</ele><time>2026-03-28T12:19:19.035Z</time></trkpt><trkpt lat="40.1200467" lon="15.38606"><ele>388.3333333333333</ele><time>2026-03-28T12:19:20.035Z</time></trkpt><trkpt lat="40.11998" lon="15.385895"><ele>384.66666666666663</ele><time>2026-03-28T12:19:21.034Z</time></trkpt><trkpt lat="40.1199233" lon="15.3857"><ele>381.0</ele><time>2026-03-28T12:19:22.034Z</time></trkpt><trkpt lat="40.1198783" lon="15.385485"><ele>377.0</ele><time>2026-03-28T12:19:23.034Z</time></trkpt><trkpt lat="40.1198417" lon="15.3852667"><ele>373.0</ele><time>2026-03-28T12:19:24.034Z</time></trkpt><trkpt lat="40.1197983" lon="15.3850617"><ele>369.0</ele><time>2026-03-28T12:19:25.034Z</time></trkpt><trkpt lat="40.119755" lon="15.3848733"><ele>369.0</ele><time>2026-03-28T12:19:26.034Z</time></trkpt><trkpt lat="40.119705" lon="15.3847117"><ele>369.0</ele><time>2026-03-28T12:19:27.034Z</time></trkpt><trkpt lat="40.1196283" lon="15.3845667"><ele>369.0</ele><time>2026-03-28T12:19:28.034Z</time></trkpt><trkpt lat="40.1195333" lon="15.38444"><ele>369.0</ele><time>2026-03-28T12:19:29.035Z</time></trkpt><trkpt lat="40.1194267" lon="15.384345"><ele>369.0</ele><time>2026-03-28T12:19:30.035Z</time></trkpt><trkpt lat="40.11931" lon="15.3842817"><ele>369.0</ele><time>2026-03-28T12:19:31.034Z</time></trkpt><trkpt lat="40.119185" lon="15.38425"><ele>369.0</ele><time>2026-03-28T12:19:32.034Z</time></trkpt><trkpt lat="40.1190633" lon="15.3842533"><ele>369.0</ele><time>2026-03-28T12:19:33.034Z</time></trkpt><trkpt lat="40.1189467" lon="15.3843017"><ele>368.0</ele><time>2026-03-28T12:19:34.034Z</time></trkpt><trkpt lat="40.1188233" lon="15.384385"><ele>367.0</ele><time>2026-03-28T12:19:35.034Z</time></trkpt><trkpt lat="40.1186833" lon="15.3844667"><ele>366.0</ele><time>2026-03-28T12:19:36.034Z</time></trkpt><trkpt lat="40.1185417" lon="15.3845467"><ele>365.0</ele><time>2026-03-28T12:19:37.034Z</time></trkpt><trkpt lat="40.1184033" lon="15.38462"><ele>365.25</ele><time>2026-03-28T12:19:38.034Z</time></trkpt><trkpt lat="40.11827" lon="15.3846967"><ele>365.5</ele><time>2026-03-28T12:19:39.035Z</time></trkpt><trkpt lat="40.1181483" lon="15.3847783"><ele>365.75</ele><time>2026-03-28T12:19:40.034Z</time></trkpt><trkpt lat="40.1180467" lon="15.3848667"><ele>366.0</ele><time>2026-03-28T12:19:41.034Z</time></trkpt><trkpt lat="40.11796" lon="15.3849417"><ele>363.6</ele><time>2026-03-28T12:19:42.034Z</time></trkpt><trkpt lat="40.1178783" lon="15.3849733"><ele>361.20000000000005</ele><time>2026-03-28T12:19:43.034Z</time></trkpt><trkpt lat="40.11781" lon="15.384965"><ele>358.79999999999995</ele><time>2026-03-28T12:19:44.035Z</time></trkpt><trkpt lat="40.1177567" lon="15.3848867"><ele>356.4</ele><time>2026-03-28T12:19:45.035Z</time></trkpt><trkpt lat="40.1177267" lon="15.38477"><ele>354.0</ele><time>2026-03-28T12:19:46.034Z</time></trkpt><trkpt lat="40.117715" lon="15.3845783"><ele>352.6666666666667</ele><time>2026-03-28T12:19:47.034Z</time></trkpt><trkpt lat="40.117705" lon="15.384355"><ele>351.33333333333337</ele><time>2026-03-28T12:19:48.035Z</time></trkpt><trkpt lat="40.117685" lon="15.38414"><ele>350.0</ele><time>2026-03-28T12:19:49.035Z</time></trkpt><trkpt lat="40.11766" lon="15.3839433"><ele>348.0</ele><time>2026-03-28T12:19:50.034Z</time></trkpt><trkpt lat="40.117605" lon="15.3837567"><ele>346.0</ele><time>2026-03-28T12:19:51.035Z</time></trkpt><trkpt lat="40.117515" lon="15.38358"><ele>344.0</ele><time>2026-03-28T12:19:52.034Z</time></trkpt><trkpt lat="40.1174283" lon="15.3834133"><ele>341.25</ele><time>2026-03-28T12:19:53.034Z</time></trkpt><trkpt lat="40.1173533" lon="15.38327"><ele>338.5</ele><time>2026-03-28T12:19:54.035Z</time></trkpt><trkpt lat="40.1172767" lon="15.3831417"><ele>335.75</ele><time>2026-03-28T12:19:55.034Z</time></trkpt><trkpt lat="40.1171817" lon="15.38305"><ele>333.0</ele><time>2026-03-28T12:19:56.035Z</time></trkpt><trkpt lat="40.1170633" lon="15.382985"><ele>333.0</ele><time>2026-03-28T12:19:57.035Z</time></trkpt><trkpt lat="40.116925" lon="15.3829367"><ele>333.0</ele><time>2026-03-28T12:19:58.035Z</time></trkpt><trkpt lat="40.1167933" lon="15.3828933"><ele>333.0</ele><time>2026-03-28T12:19:59.034Z</time></trkpt><trkpt lat="40.1166767" lon="15.38282"><ele>333.0</ele><time>2026-03-28T12:20:00.034Z</time></trkpt><trkpt lat="40.1165617" lon="15.3827067"><ele>328.3333333333333</ele><time>2026-03-28T12:20:01.034Z</time></trkpt><trkpt lat="40.116445" lon="15.382575"><ele>323.66666666666663</ele><time>2026-03-28T12:20:02.035Z</time></trkpt><trkpt lat="40.11633" lon="15.382445"><ele>319.0</ele><time>2026-03-28T12:20:03.035Z</time></trkpt><trkpt lat="40.1162267" lon="15.3823133"><ele>318.66666666666663</ele><time>2026-03-28T12:20:04.034Z</time></trkpt><trkpt lat="40.116135" lon="15.38217"><ele>318.3333333333333</ele><time>2026-03-28T12:20:05.035Z</time></trkpt><trkpt lat="40.1160617" lon="15.3819933"><ele>318.0</ele><time>2026-03-28T12:20:06.034Z</time></trkpt><trkpt lat="40.115985" lon="15.3817833"><ele>318.0</ele><time>2026-03-28T12:20:07.035Z</time></trkpt><trkpt lat="40.1159133" lon="15.3815583"><ele>318.0</ele><time>2026-03-28T12:20:08.034Z</time></trkpt><trkpt lat="40.1158517" lon="15.381325"><ele>318.0</ele><time>2026-03-28T12:20:09.034Z</time></trkpt><trkpt lat="40.115805" lon="15.3810883"><ele>315.6666666666667</ele><time>2026-03-28T12:20:10.035Z</time></trkpt><trkpt lat="40.115765" lon="15.3808217"><ele>313.33333333333337</ele><time>2026-03-28T12:20:11.034Z</time></trkpt><trkpt lat="40.1157233" lon="15.3805483"><ele>311.0</ele><time>2026-03-28T12:20:12.034Z</time></trkpt><trkpt lat="40.1156817" lon="15.380285"><ele>304.33333333333337</ele><time>2026-03-28T12:20:13.034Z</time></trkpt><trkpt lat="40.115645" lon="15.3800383"><ele>297.6666666666667</ele><time>2026-03-28T12:20:14.034Z</time></trkpt><trkpt lat="40.11561" lon="15.3798117"><ele>291.0</ele><time>2026-03-28T12:20:15.034Z</time></trkpt><trkpt lat="40.115565" lon="15.3796"><ele>291.0</ele><time>2026-03-28T12:20:16.035Z</time></trkpt><trkpt lat="40.11551" lon="15.3794"><ele>291.0</ele><time>2026-03-28T12:20:17.034Z</time></trkpt><trkpt lat="40.115425" lon="15.37921"><ele>291.0</ele><time>2026-03-28T12:20:18.035Z</time></trkpt><trkpt lat="40.1153317" lon="15.379025"><ele>291.0</ele><time>2026-03-28T12:20:19.034Z</time></trkpt><trkpt lat="40.11525" lon="15.3788333"><ele>291.0</ele><time>2026-03-28T12:20:20.034Z</time></trkpt><trkpt lat="40.115185" lon="15.3786217"><ele>291.0</ele><time>2026-03-28T12:20:21.035Z</time></trkpt><trkpt lat="40.115115" lon="15.3783967"><ele>291.0</ele><time>2026-03-28T12:20:22.035Z</time></trkpt><trkpt lat="40.1150433" lon="15.3781667"><ele>291.0</ele><time>2026-03-28T12:20:23.034Z</time></trkpt><trkpt lat="40.11497" lon="15.3779467"><ele>291.0</ele><time>2026-03-28T12:20:24.034Z</time></trkpt><trkpt lat="40.1149033" lon="15.3777167"><ele>286.3333333333333</ele><time>2026-03-28T12:20:25.034Z</time></trkpt><trkpt lat="40.114845" lon="15.3774883"><ele>281.66666666666663</ele><time>2026-03-28T12:20:26.034Z</time></trkpt><trkpt lat="40.1148017" lon="15.377265"><ele>277.0</ele><time>2026-03-28T12:20:27.035Z</time></trkpt><trkpt lat="40.114775" lon="15.3770483"><ele>277.0</ele><time>2026-03-28T12:20:28.035Z</time></trkpt><trkpt lat="40.1147667" lon="15.37683"><ele>277.0</ele><time>2026-03-28T12:20:29.035Z</time></trkpt><trkpt lat="40.1147833" lon="15.3765983"><ele>277.0</ele><time>2026-03-28T12:20:30.035Z</time></trkpt><trkpt lat="40.1148133" lon="15.37635"><ele>277.0</ele><time>2026-03-28T12:20:31.035Z</time></trkpt><trkpt lat="40.1148467" lon="15.3760867"><ele>277.0</ele><time>2026-03-28T12:20:32.034Z</time></trkpt><trkpt lat="40.1148867" lon="15.3758333"><ele>277.0</ele><time>2026-03-28T12:20:33.035Z</time></trkpt><trkpt lat="40.1149183" lon="15.3756083"><ele>274.66666666666663</ele><time>2026-03-28T12:20:34.035Z</time></trkpt><trkpt lat="40.114945" lon="15.3754033"><ele>272.3333333333333</ele><time>2026-03-28T12:20:35.034Z</time></trkpt><trkpt lat="40.114955" lon="15.3752217"><ele>270.0</ele><time>2026-03-28T12:20:36.034Z</time></trkpt><trkpt lat="40.114935" lon="15.3750233"><ele>270.0</ele><time>2026-03-28T12:20:37.035Z</time></trkpt><trkpt lat="40.1148867" lon="15.3747967"><ele>270.0</ele><time>2026-03-28T12:20:38.035Z</time></trkpt><trkpt lat="40.1148233" lon="15.3745433"><ele>270.0</ele><time>2026-03-28T12:20:39.034Z</time></trkpt><trkpt lat="40.11477" lon="15.3742617"><ele>270.0</ele><time>2026-03-28T12:20:40.035Z</time></trkpt><trkpt lat="40.1147367" lon="15.3739817"><ele>270.0</ele><time>2026-03-28T12:20:41.034Z</time></trkpt><trkpt lat="40.1147083" lon="15.3737133"><ele>270.0</ele><time>2026-03-28T12:20:42.035Z</time></trkpt><trkpt lat="40.1146783" lon="15.37347"><ele>267.3333333333333</ele><time>2026-03-28T12:20:43.034Z</time></trkpt><trkpt lat="40.114665" lon="15.37325"><ele>264.66666666666663</ele><time>2026-03-28T12:20:44.035Z</time></trkpt><trkpt lat="40.1146533" lon="15.3730567"><ele>262.0</ele><time>2026-03-28T12:20:45.035Z</time></trkpt><trkpt lat="40.1146483" lon="15.3728817"><ele>259.8</ele><time>2026-03-28T12:20:46.035Z</time></trkpt><trkpt lat="40.1146317" lon="15.372745"><ele>257.6</ele><time>2026-03-28T12:20:47.034Z</time></trkpt><trkpt lat="40.1146" lon="15.3726283"><ele>255.40000000000003</ele><time>2026-03-28T12:20:48.034Z</time></trkpt><trkpt lat="40.1145333" lon="15.3725383"><ele>253.20000000000002</ele><time>2026-03-28T12:20:49.035Z</time></trkpt><trkpt lat="40.11443" lon="15.372485"><ele>251.0</ele><time>2026-03-28T12:20:50.035Z</time></trkpt><trkpt lat="40.114305" lon="15.3724517"><ele>251.0</ele><time>2026-03-28T12:20:51.034Z</time></trkpt><trkpt lat="40.1141917" lon="15.3724"><ele>251.00000000000003</ele><time>2026-03-28T12:20:52.034Z</time></trkpt><trkpt lat="40.1141" lon="15.372325"><ele>251.00000000000003</ele><time>2026-03-28T12:20:53.034Z</time></trkpt><trkpt lat="40.1140417" lon="15.372215"><ele>251.0</ele><time>2026-03-28T12:20:54.035Z</time></trkpt><trkpt lat="40.1140167" lon="15.37207"><ele>251.0</ele><time>2026-03-28T12:20:55.034Z</time></trkpt><trkpt lat="40.11401" lon="15.3718883"><ele>248.66666666666669</ele><time>2026-03-28T12:20:56.035Z</time></trkpt><trkpt lat="40.1140083" lon="15.371675"><ele>246.33333333333331</ele><time>2026-03-28T12:20:57.035Z</time></trkpt><trkpt lat="40.1139733" lon="15.3714583"><ele>244.0</ele><time>2026-03-28T12:20:58.034Z</time></trkpt><trkpt lat="40.1139067" lon="15.3712533"><ele>243.66666666666666</ele><time>2026-03-28T12:20:59.034Z</time></trkpt><trkpt lat="40.1138283" lon="15.37106"><ele>243.33333333333331</ele><time>2026-03-28T12:21:00.034Z</time></trkpt><trkpt lat="40.1137683" lon="15.3708767"><ele>243.0</ele><time>2026-03-28T12:21:01.034Z</time></trkpt><trkpt lat="40.113725" lon="15.3707017"><ele>241.0</ele><time>2026-03-28T12:21:02.035Z</time></trkpt><trkpt lat="40.113685" lon="15.3705233"><ele>239.0</ele><time>2026-03-28T12:21:03.034Z</time></trkpt><trkpt lat="40.1136483" lon="15.3703433"><ele>237.0</ele><time>2026-03-28T12:21:04.034Z</time></trkpt><trkpt lat="40.1136117" lon="15.3701633"><ele>235.0</ele><time>2026-03-28T12:21:05.035Z</time></trkpt><trkpt lat="40.113575" lon="15.369985"><ele>235.0</ele><time>2026-03-28T12:21:06.034Z</time></trkpt><trkpt lat="40.11354" lon="15.3698067"><ele>235.0</ele><time>2026-03-28T12:21:07.034Z</time></trkpt><trkpt lat="40.1135117" lon="15.36962"><ele>235.0</ele><time>2026-03-28T12:21:08.035Z</time></trkpt><trkpt lat="40.1134833" lon="15.369425"><ele>235.0</ele><time>2026-03-28T12:21:09.035Z</time></trkpt><trkpt lat="40.11346" lon="15.3692283"><ele>234.5</ele><time>2026-03-28T12:21:10.035Z</time></trkpt><trkpt lat="40.113435" lon="15.369045"><ele>234.0</ele><time>2026-03-28T12:21:11.034Z</time></trkpt><trkpt lat="40.1134083" lon="15.3688683"><ele>233.5</ele><time>2026-03-28T12:21:12.035Z</time></trkpt><trkpt lat="40.11338" lon="15.3686967"><ele>233.0</ele><time>2026-03-28T12:21:13.034Z</time></trkpt><trkpt lat="40.1133283" lon="15.368515"><ele>232.33333333333334</ele><time>2026-03-28T12:21:14.035Z</time></trkpt><trkpt lat="40.1132483" lon="15.3683333"><ele>231.66666666666669</ele><time>2026-03-28T12:21:15.034Z</time></trkpt><trkpt lat="40.1131633" lon="15.36816"><ele>231.0</ele><time>2026-03-28T12:21:16.034Z</time></trkpt><trkpt lat="40.1130867" lon="15.3679833"><ele>226.33333333333331</ele><time>2026-03-28T12:21:17.035Z</time></trkpt><trkpt lat="40.1130233" lon="15.36779"><ele>221.66666666666666</ele><time>2026-03-28T12:21:18.034Z</time></trkpt><trkpt lat="40.1129717" lon="15.3675933"><ele>217.0</ele><time>2026-03-28T12:21:19.035Z</time></trkpt><trkpt lat="40.112925" lon="15.36739"><ele>217.0</ele><time>2026-03-28T12:21:20.035Z</time></trkpt><trkpt lat="40.1128833" lon="15.36722"><ele>217.0</ele><time>2026-03-28T12:21:21.034Z</time></trkpt><trkpt lat="40.1128383" lon="15.3670717"><ele>217.0</ele><time>2026-03-28T12:21:22.034Z</time></trkpt><trkpt lat="40.1127717" lon="15.36694"><ele>217.0</ele><time>2026-03-28T12:21:23.034Z</time></trkpt><trkpt lat="40.1126817" lon="15.36683"><ele>218.0</ele><time>2026-03-28T12:21:24.034Z</time></trkpt><trkpt lat="40.1125633" lon="15.3667583"><ele>219.0</ele><time>2026-03-28T12:21:25.034Z</time></trkpt><trkpt lat="40.1124333" lon="15.3667183"><ele>220.0</ele><time>2026-03-28T12:21:26.034Z</time></trkpt><trkpt lat="40.1123167" lon="15.3666667"><ele>221.0</ele><time>2026-03-28T12:21:27.035Z</time></trkpt><trkpt lat="40.11221" lon="15.3665917"><ele>218.0</ele><time>2026-03-28T12:21:28.034Z</time></trkpt><trkpt lat="40.1121" lon="15.3664783"><ele>215.0</ele><time>2026-03-28T12:21:29.035Z</time></trkpt><trkpt lat="40.11198" lon="15.3663383"><ele>212.0</ele><time>2026-03-28T12:21:30.034Z</time></trkpt><trkpt lat="40.111845" lon="15.36618"><ele>212.0</ele><time>2026-03-28T12:21:31.034Z</time></trkpt><trkpt lat="40.11172" lon="15.3660267"><ele>212.0</ele><time>2026-03-28T12:21:32.035Z</time></trkpt><trkpt lat="40.111605" lon="15.36588"><ele>212.0</ele><time>2026-03-28T12:21:33.034Z</time></trkpt><trkpt lat="40.1114983" lon="15.3657517"><ele>212.0</ele><time>2026-03-28T12:21:34.035Z</time></trkpt><trkpt lat="40.1114067" lon="15.36563"><ele>212.0</ele><time>2026-03-28T12:21:35.035Z</time></trkpt><trkpt lat="40.111335" lon="15.36549"><ele>212.0</ele><time>2026-03-28T12:21:36.034Z</time></trkpt><trkpt lat="40.1112783" lon="15.3653283"><ele>212.0</ele><time>2026-03-28T12:21:37.034Z</time></trkpt><trkpt lat="40.1112383" lon="15.3651533"><ele>211.0</ele><time>2026-03-28T12:21:38.034Z</time></trkpt><trkpt lat="40.1111867" lon="15.3649917"><ele>210.0</ele><time>2026-03-28T12:21:39.035Z</time></trkpt><trkpt lat="40.1111217" lon="15.3648483"><ele>209.0</ele><time>2026-03-28T12:21:40.034Z</time></trkpt><trkpt lat="40.1110233" lon="15.364725"><ele>208.0</ele><time>2026-03-28T12:21:41.034Z</time></trkpt><trkpt lat="40.1108933" lon="15.3646133"><ele>205.33333333333331</ele><time>2026-03-28T12:21:42.035Z</time></trkpt><trkpt lat="40.110735" lon="15.3644983"><ele>202.66666666666669</ele><time>2026-03-28T12:21:43.034Z</time></trkpt><trkpt lat="40.1105833" lon="15.3643667"><ele>200.0</ele><time>2026-03-28T12:21:44.035Z</time></trkpt><trkpt lat="40.1104483" lon="15.364215"><ele>200.0</ele><time>2026-03-28T12:21:45.034Z</time></trkpt><trkpt lat="40.1103233" lon="15.3640717"><ele>200.0</ele><time>2026-03-28T12:21:46.035Z</time></trkpt><trkpt lat="40.1102133" lon="15.36394"><ele>200.0</ele><time>2026-03-28T12:21:47.034Z</time></trkpt><trkpt lat="40.1101233" lon="15.3637967"><ele>196.5</ele><time>2026-03-28T12:21:48.034Z</time></trkpt><trkpt lat="40.1100533" lon="15.3636417"><ele>193.0</ele><time>2026-03-28T12:21:49.034Z</time></trkpt><trkpt lat="40.1100133" lon="15.3634717"><ele>189.5</ele><time>2026-03-28T12:21:50.034Z</time></trkpt><trkpt lat="40.1099883" lon="15.3632933"><ele>186.0</ele><time>2026-03-28T12:21:51.034Z</time></trkpt><trkpt lat="40.1099833" lon="15.3631117"><ele>184.33333333333334</ele><time>2026-03-28T12:21:52.034Z</time></trkpt><trkpt lat="40.1099983" lon="15.36292"><ele>182.66666666666669</ele><time>2026-03-28T12:21:53.035Z</time></trkpt><trkpt lat="40.1100383" lon="15.3627133"><ele>181.0</ele><time>2026-03-28T12:21:54.034Z</time></trkpt><trkpt lat="40.1100783" lon="15.3624867"><ele>181.0</ele><time>2026-03-28T12:21:55.035Z</time></trkpt><trkpt lat="40.1101217" lon="15.3622333"><ele>181.0</ele><time>2026-03-28T12:21:56.034Z</time></trkpt><trkpt lat="40.11016" lon="15.361965"><ele>181.0</ele><time>2026-03-28T12:21:57.035Z</time></trkpt><trkpt lat="40.1101817" lon="15.3617133"><ele>179.66666666666669</ele><time>2026-03-28T12:21:58.035Z</time></trkpt><trkpt lat="40.1102117" lon="15.3614733"><ele>178.33333333333334</ele><time>2026-03-28T12:21:59.035Z</time></trkpt><trkpt lat="40.11024" lon="15.3612517"><ele>177.0</ele><time>2026-03-28T12:22:00.034Z</time></trkpt><trkpt lat="40.110265" lon="15.3610333"><ele>175.33333333333334</ele><time>2026-03-28T12:22:01.034Z</time></trkpt><trkpt lat="40.1102783" lon="15.3608217"><ele>173.66666666666669</ele><time>2026-03-28T12:22:02.034Z</time></trkpt><trkpt lat="40.11027" lon="15.360585"><ele>172.0</ele><time>2026-03-28T12:22:03.034Z</time></trkpt><trkpt lat="40.110245" lon="15.3603417"><ele>169.25</ele><time>2026-03-28T12:22:04.035Z</time></trkpt><trkpt lat="40.11022" lon="15.360125"><ele>166.5</ele><time>2026-03-28T12:22:05.035Z</time></trkpt><trkpt lat="40.110185" lon="15.359945"><ele>163.75</ele><time>2026-03-28T12:22:06.034Z</time></trkpt><trkpt lat="40.1101483" lon="15.3598"><ele>161.0</ele><time>2026-03-28T12:22:07.034Z</time></trkpt><trkpt lat="40.110105" lon="15.3596817"><ele>158.20000000000002</ele><time>2026-03-28T12:22:08.034Z</time></trkpt><trkpt lat="40.110035" lon="15.35959"><ele>155.4</ele><time>2026-03-28T12:22:09.034Z</time></trkpt><trkpt lat="40.1099467" lon="15.3595383"><ele>152.6</ele><time>2026-03-28T12:22:10.035Z</time></trkpt><trkpt lat="40.109845" lon="15.3595433"><ele>149.8</ele><time>2026-03-28T12:22:11.035Z</time></trkpt><trkpt lat="40.10973" lon="15.3595833"><ele>147.0</ele><time>2026-03-28T12:22:12.034Z</time></trkpt><trkpt lat="40.1095983" lon="15.3596767"><ele>149.0</ele><time>2026-03-28T12:22:13.034Z</time></trkpt><trkpt lat="40.10945" lon="15.3597917"><ele>151.0</ele><time>2026-03-28T12:22:14.034Z</time></trkpt><trkpt lat="40.1093017" lon="15.3599233"><ele>153.0</ele><time>2026-03-28T12:22:15.035Z</time></trkpt><trkpt lat="40.1091683" lon="15.3600617"><ele>149.25</ele><time>2026-03-28T12:22:16.035Z</time></trkpt><trkpt lat="40.1090483" lon="15.3601917"><ele>145.5</ele><time>2026-03-28T12:22:17.034Z</time></trkpt><trkpt lat="40.1089533" lon="15.3603033"><ele>141.75</ele><time>2026-03-28T12:22:18.035Z</time></trkpt><trkpt lat="40.108865" lon="15.360395"><ele>138.0</ele><time>2026-03-28T12:22:19.035Z</time></trkpt><trkpt lat="40.108765" lon="15.36044"><ele>138.0</ele><time>2026-03-28T12:22:20.035Z</time></trkpt><trkpt lat="40.1086567" lon="15.36044"><ele>138.0</ele><time>2026-03-28T12:22:21.034Z</time></trkpt><trkpt lat="40.1085283" lon="15.3603983"><ele>138.0</ele><time>2026-03-28T12:22:22.034Z</time></trkpt><trkpt lat="40.10839" lon="15.3603333"><ele>138.0</ele><time>2026-03-28T12:22:23.034Z</time></trkpt><trkpt lat="40.1082367" lon="15.360255"><ele>136.66666666666666</ele><time>2026-03-28T12:22:24.034Z</time></trkpt><trkpt lat="40.108065" lon="15.3601717"><ele>135.33333333333331</ele><time>2026-03-28T12:22:25.034Z</time></trkpt><trkpt lat="40.1078733" lon="15.3600883"><ele>134.0</ele><time>2026-03-28T12:22:26.034Z</time></trkpt><trkpt lat="40.1076733" lon="15.3600183"><ele>134.0</ele><time>2026-03-28T12:22:27.034Z</time></trkpt><trkpt lat="40.1074817" lon="15.3599633"><ele>134.0</ele><time>2026-03-28T12:22:28.034Z</time></trkpt><trkpt lat="40.1073033" lon="15.3599217"><ele>134.0</ele><time>2026-03-28T12:22:29.035Z</time></trkpt><trkpt lat="40.107145" lon="15.3598883"><ele>134.0</ele><time>2026-03-28T12:22:30.035Z</time></trkpt><trkpt lat="40.106995" lon="15.3598567"><ele>134.0</ele><time>2026-03-28T12:22:31.035Z</time></trkpt><trkpt lat="40.1068667" lon="15.3598067"><ele>134.0</ele><time>2026-03-28T12:22:32.034Z</time></trkpt><trkpt lat="40.1067483" lon="15.3597267"><ele>134.0</ele><time>2026-03-28T12:22:33.034Z</time></trkpt><trkpt lat="40.10663" lon="15.3596133"><ele>131.33333333333331</ele><time>2026-03-28T12:22:34.034Z</time></trkpt><trkpt lat="40.1065167" lon="15.3594617"><ele>128.66666666666666</ele><time>2026-03-28T12:22:35.035Z</time></trkpt><trkpt lat="40.1064083" lon="15.359295"><ele>126.0</ele><time>2026-03-28T12:22:36.034Z</time></trkpt><trkpt lat="40.106305" lon="15.3591333"><ele>126.0</ele><time>2026-03-28T12:22:37.034Z</time></trkpt><trkpt lat="40.1062067" lon="15.3589833"><ele>126.0</ele><time>2026-03-28T12:22:38.034Z</time></trkpt><trkpt lat="40.106115" lon="15.358835"><ele>126.0</ele><time>2026-03-28T12:22:39.035Z</time></trkpt><trkpt lat="40.1060417" lon="15.3586767"><ele>126.0</ele><time>2026-03-28T12:22:40.035Z</time></trkpt><trkpt lat="40.105985" lon="15.35851"><ele>123.5</ele><time>2026-03-28T12:22:41.035Z</time></trkpt><trkpt lat="40.1059383" lon="15.358355"><ele>121.0</ele><time>2026-03-28T12:22:42.034Z</time></trkpt><trkpt lat="40.1058783" lon="15.3582267"><ele>118.5</ele><time>2026-03-28T12:22:43.034Z</time></trkpt><trkpt lat="40.1057933" lon="15.3581183"><ele>116.0</ele><time>2026-03-28T12:22:44.035Z</time></trkpt><trkpt lat="40.105685" lon="15.3580417"><ele>112.25</ele><time>2026-03-28T12:22:45.034Z</time></trkpt><trkpt lat="40.1055567" lon="15.3579683"><ele>108.5</ele><time>2026-03-28T12:22:46.034Z</time></trkpt><trkpt lat="40.105425" lon="15.3578983"><ele>104.75</ele><time>2026-03-28T12:22:47.034Z</time></trkpt><trkpt lat="40.1053017" lon="15.3577933"><ele>101.0</ele><time>2026-03-28T12:22:48.035Z</time></trkpt><trkpt lat="40.1051817" lon="15.3576617"><ele>101.0</ele><time>2026-03-28T12:22:49.034Z</time></trkpt><trkpt lat="40.1050633" lon="15.3575067"><ele>101.0</ele><time>2026-03-28T12:22:50.035Z</time></trkpt><trkpt lat="40.104945" lon="15.3573583"><ele>101.0</ele><time>2026-03-28T12:22:51.035Z</time></trkpt><trkpt lat="40.10484" lon="15.35721"><ele>99.66666666666666</ele><time>2026-03-28T12:22:52.034Z</time></trkpt><trkpt lat="40.1047317" lon="15.3570667"><ele>98.33333333333334</ele><time>2026-03-28T12:22:53.035Z</time></trkpt><trkpt lat="40.1046417" lon="15.3569"><ele>97.0</ele><time>2026-03-28T12:22:54.034Z</time></trkpt><trkpt lat="40.1045683" lon="15.3567167"><ele>97.0</ele><time>2026-03-28T12:22:55.034Z</time></trkpt><trkpt lat="40.1044983" lon="15.3565383"><ele>97.0</ele><time>2026-03-28T12:22:56.034Z</time></trkpt><trkpt lat="40.1044217" lon="15.35639"><ele>97.0</ele><time>2026-03-28T12:22:57.035Z</time></trkpt><trkpt lat="40.1043217" lon="15.3562683"><ele>97.0</ele><time>2026-03-28T12:22:58.034Z</time></trkpt><trkpt lat="40.104205" lon="15.3561567"><ele>94.5</ele><time>2026-03-28T12:22:59.034Z</time></trkpt><trkpt lat="40.1040883" lon="15.3560517"><ele>92.0</ele><time>2026-03-28T12:23:00.034Z</time></trkpt><trkpt lat="40.1039783" lon="15.3559667"><ele>89.5</ele><time>2026-03-28T12:23:01.035Z</time></trkpt><trkpt lat="40.1038767" lon="15.3559017"><ele>87.0</ele><time>2026-03-28T12:23:02.035Z</time></trkpt><trkpt lat="40.103785" lon="15.35587"><ele>85.75</ele><time>2026-03-28T12:23:03.034Z</time></trkpt><trkpt lat="40.103675" lon="15.3558817"><ele>84.5</ele><time>2026-03-28T12:23:04.034Z</time></trkpt><trkpt lat="40.1035621" lon="15.3559328"><ele>83.25</ele><time>2026-03-28T12:23:05.034Z</time></trkpt><trkpt lat="40.1034425" lon="15.3560345"><ele>82.0</ele><time>2026-03-28T12:23:06.034Z</time></trkpt><trkpt lat="40.1033125" lon="15.356147"><ele>78.66666666666666</ele><time>2026-03-28T12:23:07.035Z</time></trkpt><trkpt lat="40.1031769" lon="15.3562426"><ele>75.33333333333333</ele><time>2026-03-28T12:23:08.035Z</time></trkpt><trkpt lat="40.1030268" lon="15.3563111"><ele>72.0</ele><time>2026-03-28T12:23:09.034Z</time></trkpt><trkpt lat="40.1028578" lon="15.3563615"><ele>71.0</ele><time>2026-03-28T12:23:10.034Z</time></trkpt><trkpt lat="40.1026743" lon="15.356401"><ele>70.0</ele><time>2026-03-28T12:23:11.034Z</time></trkpt><trkpt lat="40.1024875" lon="15.3564531"><ele>69.0</ele><time>2026-03-28T12:23:12.034Z</time></trkpt><trkpt lat="40.102312" lon="15.3565122"><ele>69.0</ele><time>2026-03-28T12:23:13.035Z</time></trkpt><trkpt lat="40.1021513" lon="15.3565815"><ele>69.0</ele><time>2026-03-28T12:23:14.034Z</time></trkpt><trkpt lat="40.1020006" lon="15.3566653"><ele>69.0</ele><time>2026-03-28T12:23:15.034Z</time></trkpt><trkpt lat="40.1018605" lon="15.3567608"><ele>69.0</ele><time>2026-03-28T12:23:16.035Z</time></trkpt><trkpt lat="40.1017262" lon="15.3568655"><ele>69.0</ele><time>2026-03-28T12:23:17.035Z</time></trkpt><trkpt lat="40.1016057" lon="15.3569911"><ele>69.0</ele><time>2026-03-28T12:23:18.034Z</time></trkpt><trkpt lat="40.1014973" lon="15.3571533"><ele>64.66666666666667</ele><time>2026-03-28T12:23:19.034Z</time></trkpt><trkpt lat="40.1013963" lon="15.357344"><ele>60.333333333333336</ele><time>2026-03-28T12:23:20.035Z</time></trkpt><trkpt lat="40.1012967" lon="15.3575287"><ele>56.0</ele><time>2026-03-28T12:23:21.035Z</time></trkpt><trkpt lat="40.1011806" lon="15.3576983"><ele>56.0</ele><time>2026-03-28T12:23:22.034Z</time></trkpt><trkpt lat="40.1010599" lon="15.3578496"><ele>56.0</ele><time>2026-03-28T12:23:23.035Z</time></trkpt><trkpt lat="40.1009416" lon="15.3579924"><ele>56.0</ele><time>2026-03-28T12:23:24.035Z</time></trkpt><trkpt lat="40.1008316" lon="15.3581509"><ele>50.333333333333336</ele><time>2026-03-28T12:23:25.035Z</time></trkpt><trkpt lat="40.1007367" lon="15.3583483"><ele>44.66666666666667</ele><time>2026-03-28T12:23:26.034Z</time></trkpt><trkpt lat="40.1006476" lon="15.3585748"><ele>39.0</ele><time>2026-03-28T12:23:27.035Z</time></trkpt><trkpt lat="40.1005516" lon="15.358805"><ele>40.0</ele><time>2026-03-28T12:23:28.034Z</time></trkpt><trkpt lat="40.1004475" lon="15.3590271"><ele>41.0</ele><time>2026-03-28T12:23:29.034Z</time></trkpt><trkpt lat="40.1003297" lon="15.3592332"><ele>42.0</ele><time>2026-03-28T12:23:30.035Z</time></trkpt><trkpt lat="40.1002173" lon="15.3594309"><ele>42.0</ele><time>2026-03-28T12:23:31.034Z</time></trkpt><trkpt lat="40.100119" lon="15.3596095"><ele>42.0</ele><time>2026-03-28T12:23:32.034Z</time></trkpt><trkpt lat="40.1000282" lon="15.3597575"><ele>42.0</ele><time>2026-03-28T12:23:33.035Z</time></trkpt><trkpt lat="40.0999519" lon="15.3598823"><ele>42.0</ele><time>2026-03-28T12:23:34.034Z</time></trkpt><trkpt lat="40.0998798" lon="15.3599839"><ele>42.400000000000006</ele><time>2026-03-28T12:23:35.034Z</time></trkpt><trkpt lat="40.0998035" lon="15.3600433"><ele>42.800000000000004</ele><time>2026-03-28T12:23:36.035Z</time></trkpt><trkpt lat="40.0997244" lon="15.3600609"><ele>43.2</ele><time>2026-03-28T12:23:37.034Z</time></trkpt><trkpt lat="40.0996375" lon="15.360043"><ele>43.6</ele><time>2026-03-28T12:23:38.035Z</time></trkpt><trkpt lat="40.0995471" lon="15.3599928"><ele>44.0</ele><time>2026-03-28T12:23:39.035Z</time></trkpt><trkpt lat="40.0994486" lon="15.3599124"><ele>44.0</ele><time>2026-03-28T12:23:40.036Z</time></trkpt><trkpt lat="40.0993325" lon="15.3598016"><ele>44.0</ele><time>2026-03-28T12:23:41.036Z</time></trkpt><trkpt lat="40.0992106" lon="15.3596837"><ele>44.0</ele><time>2026-03-28T12:23:42.035Z</time></trkpt><trkpt lat="40.0990841" lon="15.3595641"><ele>43.0</ele><time>2026-03-28T12:23:43.035Z</time></trkpt><trkpt lat="40.0989602" lon="15.3594539"><ele>42.0</ele><time>2026-03-28T12:23:44.036Z</time></trkpt><trkpt lat="40.0988408" lon="15.359357"><ele>41.0</ele><time>2026-03-28T12:23:45.035Z</time></trkpt><trkpt lat="40.0987158" lon="15.3592821"><ele>40.0</ele><time>2026-03-28T12:23:46.035Z</time></trkpt><trkpt lat="40.0985759" lon="15.3592301"><ele>40.0</ele><time>2026-03-28T12:23:47.036Z</time></trkpt><trkpt lat="40.0984171" lon="15.3592034"><ele>40.0</ele><time>2026-03-28T12:23:48.035Z</time></trkpt><trkpt lat="40.0982416" lon="15.359199"><ele>40.0</ele><time>2026-03-28T12:23:49.036Z</time></trkpt><trkpt lat="40.0980548" lon="15.359199"><ele>39.66666666666667</ele><time>2026-03-28T12:23:50.036Z</time></trkpt><trkpt lat="40.0978653" lon="15.3591984"><ele>39.333333333333336</ele><time>2026-03-28T12:23:51.036Z</time></trkpt><trkpt lat="40.0976746" lon="15.3591959"><ele>39.0</ele><time>2026-03-28T12:23:52.035Z</time></trkpt><trkpt lat="40.0974952" lon="15.3591953"><ele>42.33333333333333</ele><time>2026-03-28T12:23:53.036Z</time></trkpt><trkpt lat="40.0973115" lon="15.3591963"><ele>45.666666666666664</ele><time>2026-03-28T12:23:54.035Z</time></trkpt><trkpt lat="40.0971195" lon="15.3591977"><ele>49.0</ele><time>2026-03-28T12:23:55.035Z</time></trkpt><trkpt lat="40.0969183" lon="15.3591934"><ele>49.0</ele><time>2026-03-28T12:23:56.035Z</time></trkpt><trkpt lat="40.096704" lon="15.3591883"><ele>49.0</ele><time>2026-03-28T12:23:57.036Z</time></trkpt><trkpt lat="40.0964755" lon="15.3591826"><ele>49.0</ele><time>2026-03-28T12:23:58.036Z</time></trkpt><trkpt lat="40.0962502" lon="15.3591818"><ele>51.0</ele><time>2026-03-28T12:23:59.035Z</time></trkpt><trkpt lat="40.0960457" lon="15.3591794"><ele>53.0</ele><time>2026-03-28T12:24:00.036Z</time></trkpt><trkpt lat="40.0958608" lon="15.3591845"><ele>55.0</ele><time>2026-03-28T12:24:01.036Z</time></trkpt><trkpt lat="40.0956953" lon="15.3591898"><ele>56.75</ele><time>2026-03-28T12:24:02.036Z</time></trkpt><trkpt lat="40.0955471" lon="15.3592013"><ele>58.5</ele><time>2026-03-28T12:24:03.035Z</time></trkpt><trkpt lat="40.0954195" lon="15.3592178"><ele>60.25</ele><time>2026-03-28T12:24:04.036Z</time></trkpt><trkpt lat="40.0953157" lon="15.3592336"><ele>62.0</ele><time>2026-03-28T12:24:05.035Z</time></trkpt><trkpt lat="40.0952382" lon="15.3592417"><ele>62.0</ele><time>2026-03-28T12:24:06.035Z</time></trkpt><trkpt lat="40.0951744" lon="15.3592474"><ele>62.0</ele><time>2026-03-28T12:24:07.036Z</time></trkpt><trkpt lat="40.0951073" lon="15.3592375"><ele>62.0</ele><time>2026-03-28T12:24:08.036Z</time></trkpt><trkpt lat="40.0950243" lon="15.3592006"><ele>62.0</ele><time>2026-03-28T12:24:09.035Z</time></trkpt><trkpt lat="40.0949171" lon="15.3591177"><ele>62.0</ele><time>2026-03-28T12:24:10.036Z</time></trkpt><trkpt lat="40.0947797" lon="15.3590036"><ele>61.66666666666667</ele><time>2026-03-28T12:24:11.036Z</time></trkpt><trkpt lat="40.094631" lon="15.3588797"><ele>61.33333333333333</ele><time>2026-03-28T12:24:12.035Z</time></trkpt><trkpt lat="40.0944689" lon="15.3587497"><ele>61.0</ele><time>2026-03-28T12:24:13.036Z</time></trkpt><trkpt lat="40.0943006" lon="15.3586158"><ele>61.0</ele><time>2026-03-28T12:24:14.035Z</time></trkpt><trkpt lat="40.0941262" lon="15.3584807"><ele>61.0</ele><time>2026-03-28T12:24:15.036Z</time></trkpt><trkpt lat="40.0939532" lon="15.3583504"><ele>61.0</ele><time>2026-03-28T12:24:16.036Z</time></trkpt><trkpt lat="40.0937897" lon="15.358225"><ele>62.0</ele><time>2026-03-28T12:24:17.035Z</time></trkpt><trkpt lat="40.093645" lon="15.3581035"><ele>63.0</ele><time>2026-03-28T12:24:18.035Z</time></trkpt><trkpt lat="40.0935162" lon="15.3579865"><ele>64.0</ele><time>2026-03-28T12:24:19.035Z</time></trkpt><trkpt lat="40.0934108" lon="15.3578628"><ele>64.25</ele><time>2026-03-28T12:24:20.036Z</time></trkpt><trkpt lat="40.093327" lon="15.3577193"><ele>64.5</ele><time>2026-03-28T12:24:21.035Z</time></trkpt><trkpt lat="40.093265" lon="15.357556"><ele>64.75</ele><time>2026-03-28T12:24:22.035Z</time></trkpt><trkpt lat="40.0932129" lon="15.3573786"><ele>65.0</ele><time>2026-03-28T12:24:23.036Z</time></trkpt><trkpt lat="40.0931633" lon="15.3571981"><ele>63.5</ele><time>2026-03-28T12:24:24.036Z</time></trkpt><trkpt lat="40.0931054" lon="15.3570185"><ele>62.0</ele><time>2026-03-28T12:24:25.035Z</time></trkpt><trkpt lat="40.0930488" lon="15.356844"><ele>60.5</ele><time>2026-03-28T12:24:26.036Z</time></trkpt><trkpt lat="40.0929741" lon="15.3566889"><ele>59.0</ele><time>2026-03-28T12:24:27.036Z</time></trkpt><trkpt lat="40.0928828" lon="15.3565656"><ele>59.0</ele><time>2026-03-28T12:24:28.035Z</time></trkpt><trkpt lat="40.0927677" lon="15.356477"><ele>59.0</ele><time>2026-03-28T12:24:29.035Z</time></trkpt><trkpt lat="40.092644" lon="15.3564187"><ele>59.0</ele><time>2026-03-28T12:24:30.035Z</time></trkpt><trkpt lat="40.0925282" lon="15.356371"><ele>59.0</ele><time>2026-03-28T12:24:31.035Z</time></trkpt><trkpt lat="40.0924358" lon="15.3563077"><ele>60.0</ele><time>2026-03-28T12:24:32.035Z</time></trkpt><trkpt lat="40.0923013" lon="15.3560723"><ele>61.0</ele><time>2026-03-28T12:24:34.035Z</time></trkpt><trkpt lat="40.0922393" lon="15.3559187"><ele>62.0</ele><time>2026-03-28T12:24:35.035Z</time></trkpt><trkpt lat="40.0921482" lon="15.3557721"><ele>62.0</ele><time>2026-03-28T12:24:36.035Z</time></trkpt><trkpt lat="40.0920385" lon="15.35564"><ele>62.0</ele><time>2026-03-28T12:24:37.035Z</time></trkpt><trkpt lat="40.0919184" lon="15.3555349"><ele>62.0</ele><time>2026-03-28T12:24:38.036Z</time></trkpt><trkpt lat="40.091794" lon="15.355456"><ele>62.0</ele><time>2026-03-28T12:24:39.035Z</time></trkpt><trkpt lat="40.0916711" lon="15.3553978"><ele>61.0</ele><time>2026-03-28T12:24:40.035Z</time></trkpt><trkpt lat="40.0915583" lon="15.3553348"><ele>60.0</ele><time>2026-03-28T12:24:41.036Z</time></trkpt><trkpt lat="40.0914576" lon="15.3552334"><ele>59.0</ele><time>2026-03-28T12:24:42.035Z</time></trkpt><trkpt lat="40.091369" lon="15.3550857"><ele>58.0</ele><time>2026-03-28T12:24:43.036Z</time></trkpt><trkpt lat="40.091289" lon="15.3549141"><ele>58.0</ele><time>2026-03-28T12:24:44.035Z</time></trkpt><trkpt lat="40.0912277" lon="15.3547443"><ele>58.0</ele><time>2026-03-28T12:24:45.035Z</time></trkpt><trkpt lat="40.0911701" lon="15.3546022"><ele>58.0</ele><time>2026-03-28T12:24:46.035Z</time></trkpt><trkpt lat="40.0911008" lon="15.3544954"><ele>58.0</ele><time>2026-03-28T12:24:47.035Z</time></trkpt><trkpt lat="40.0910152" lon="15.3544162"><ele>55.5</ele><time>2026-03-28T12:24:48.035Z</time></trkpt><trkpt lat="40.0909182" lon="15.3543529"><ele>53.0</ele><time>2026-03-28T12:24:49.036Z</time></trkpt><trkpt lat="40.0907917" lon="15.3543183"><ele>50.5</ele><time>2026-03-28T12:24:50.035Z</time></trkpt><trkpt lat="40.0906783" lon="15.3542583"><ele>48.0</ele><time>2026-03-28T12:24:51.036Z</time></trkpt><trkpt lat="40.0905683" lon="15.3541683"><ele>48.0</ele><time>2026-03-28T12:24:52.035Z</time></trkpt><trkpt lat="40.090485" lon="15.35404"><ele>48.0</ele><time>2026-03-28T12:24:53.035Z</time></trkpt><trkpt lat="40.0904" lon="15.3538933"><ele>48.0</ele><time>2026-03-28T12:24:54.035Z</time></trkpt><trkpt lat="40.090285" lon="15.3537583"><ele>48.0</ele><time>2026-03-28T12:24:55.036Z</time></trkpt><trkpt lat="40.09015" lon="15.3536517"><ele>46.75</ele><time>2026-03-28T12:24:56.036Z</time></trkpt><trkpt lat="40.090025" lon="15.3535783"><ele>45.5</ele><time>2026-03-28T12:24:57.035Z</time></trkpt><trkpt lat="40.0899133" lon="15.3535183"><ele>44.25</ele><time>2026-03-28T12:24:58.035Z</time></trkpt><trkpt lat="40.0898133" lon="15.353485"><ele>43.0</ele><time>2026-03-28T12:24:59.035Z</time></trkpt><trkpt lat="40.0897167" lon="15.3535"><ele>43.0</ele><time>2026-03-28T12:25:00.036Z</time></trkpt><trkpt lat="40.0896183" lon="15.35356"><ele>43.0</ele><time>2026-03-28T12:25:01.036Z</time></trkpt><trkpt lat="40.0895383" lon="15.353665"><ele>43.0</ele><time>2026-03-28T12:25:02.036Z</time></trkpt><trkpt lat="40.089445" lon="15.35375"><ele>43.0</ele><time>2026-03-28T12:25:03.035Z</time></trkpt><trkpt lat="40.0893433" lon="15.3537833"><ele>43.0</ele><time>2026-03-28T12:25:04.035Z</time></trkpt><trkpt lat="40.089255" lon="15.353775"><ele>43.0</ele><time>2026-03-28T12:25:05.035Z</time></trkpt><trkpt lat="40.08917" lon="15.3537317"><ele>43.0</ele><time>2026-03-28T12:25:06.035Z</time></trkpt><trkpt lat="40.0890967" lon="15.3536367"><ele>43.0</ele><time>2026-03-28T12:25:07.036Z</time></trkpt><trkpt lat="40.0890317" lon="15.3535017"><ele>43.0</ele><time>2026-03-28T12:25:08.035Z</time></trkpt><trkpt lat="40.0889483" lon="15.353355"><ele>43.0</ele><time>2026-03-28T12:25:09.035Z</time></trkpt><trkpt lat="40.0888517" lon="15.353205"><ele>43.0</ele><time>2026-03-28T12:25:10.035Z</time></trkpt><trkpt lat="40.08874" lon="15.3530717"><ele>43.0</ele><time>2026-03-28T12:25:11.036Z</time></trkpt><trkpt lat="40.0886" lon="15.3529733"><ele>43.0</ele><time>2026-03-28T12:25:12.036Z</time></trkpt><trkpt lat="40.08844" lon="15.3528967"><ele>43.0</ele><time>2026-03-28T12:25:13.036Z</time></trkpt><trkpt lat="40.0882833" lon="15.352805"><ele>43.0</ele><time>2026-03-28T12:25:14.035Z</time></trkpt><trkpt lat="40.08812" lon="15.3526967"><ele>49.333333333333336</ele><time>2026-03-28T12:25:15.035Z</time></trkpt><trkpt lat="40.0879683" lon="15.3525683"><ele>55.66666666666667</ele><time>2026-03-28T12:25:16.036Z</time></trkpt><trkpt lat="40.0878383" lon="15.3524417"><ele>62.0</ele><time>2026-03-28T12:25:17.036Z</time></trkpt><trkpt lat="40.0877283" lon="15.352345"><ele>62.0</ele><time>2026-03-28T12:25:18.036Z</time></trkpt><trkpt lat="40.0876033" lon="15.3522467"><ele>62.0</ele><time>2026-03-28T12:25:19.035Z</time></trkpt><trkpt lat="40.0874583" lon="15.3521483"><ele>62.0</ele><time>2026-03-28T12:25:20.035Z</time></trkpt><trkpt lat="40.0873167" lon="15.3520633"><ele>65.0</ele><time>2026-03-28T12:25:21.035Z</time></trkpt><trkpt lat="40.0871817" lon="15.3519567"><ele>68.0</ele><time>2026-03-28T12:25:22.035Z</time></trkpt><trkpt lat="40.0870467" lon="15.351855"><ele>71.0</ele><time>2026-03-28T12:25:23.035Z</time></trkpt><trkpt lat="40.0869083" lon="15.3517533"><ele>71.0</ele><time>2026-03-28T12:25:24.035Z</time></trkpt><trkpt lat="40.08668" lon="15.3516517"><ele>71.0</ele><time>2026-03-28T12:25:25.036Z</time></trkpt><trkpt lat="40.08649" lon="15.3515167"><ele>81.0</ele><time>2026-03-28T12:25:26.036Z</time></trkpt><trkpt lat="40.0863" lon="15.3514217"><ele>91.0</ele><time>2026-03-28T12:25:27.036Z</time></trkpt><trkpt lat="40.086115" lon="15.3512967"><ele>101.0</ele><time>2026-03-28T12:25:28.035Z</time></trkpt><trkpt lat="40.0859617" lon="15.3511717"><ele>97.33333333333333</ele><time>2026-03-28T12:25:29.035Z</time></trkpt><trkpt lat="40.0858067" lon="15.351015"><ele>93.66666666666666</ele><time>2026-03-28T12:25:30.036Z</time></trkpt><trkpt lat="40.0856667" lon="15.350865"><ele>90.0</ele><time>2026-03-28T12:25:31.035Z</time></trkpt><trkpt lat="40.08552" lon="15.3507067"><ele>81.0</ele><time>2026-03-28T12:25:32.035Z</time></trkpt><trkpt lat="40.0854133" lon="15.3505333"><ele>72.0</ele><time>2026-03-28T12:25:33.036Z</time></trkpt><trkpt lat="40.0853083" lon="15.3503717"><ele>63.0</ele><time>2026-03-28T12:25:34.036Z</time></trkpt><trkpt lat="40.0852283" lon="15.3502117"><ele>63.0</ele><time>2026-03-28T12:25:35.036Z</time></trkpt><trkpt lat="40.0851833" lon="15.350045"><ele>63.0</ele><time>2026-03-28T12:25:36.036Z</time></trkpt><trkpt lat="40.0851467" lon="15.349875"><ele>63.0</ele><time>2026-03-28T12:25:37.035Z</time></trkpt><trkpt lat="40.085105" lon="15.3497"><ele>63.0</ele><time>2026-03-28T12:25:38.035Z</time></trkpt><trkpt lat="40.085065" lon="15.3495267"><ele>62.5</ele><time>2026-03-28T12:25:39.036Z</time></trkpt><trkpt lat="40.0850183" lon="15.3493567"><ele>62.0</ele><time>2026-03-28T12:25:40.035Z</time></trkpt><trkpt lat="40.08498" lon="15.3491883"><ele>61.5</ele><time>2026-03-28T12:25:41.035Z</time></trkpt><trkpt lat="40.08494" lon="15.34903"><ele>61.0</ele><time>2026-03-28T12:25:42.035Z</time></trkpt><trkpt lat="40.0848933" lon="15.34887"><ele>61.0</ele><time>2026-03-28T12:25:43.035Z</time></trkpt><trkpt lat="40.0848433" lon="15.3487083"><ele>61.0</ele><time>2026-03-28T12:25:44.036Z</time></trkpt><trkpt lat="40.0847733" lon="15.348555"><ele>61.0</ele><time>2026-03-28T12:25:45.035Z</time></trkpt><trkpt lat="40.0846767" lon="15.34841"><ele>61.0</ele><time>2026-03-28T12:25:46.036Z</time></trkpt><trkpt lat="40.0845567" lon="15.348265"><ele>61.0</ele><time>2026-03-28T12:25:47.035Z</time></trkpt><trkpt lat="40.0844167" lon="15.3481217"><ele>61.0</ele><time>2026-03-28T12:25:48.036Z</time></trkpt><trkpt lat="40.0842883" lon="15.3479667"><ele>61.0</ele><time>2026-03-28T12:25:49.036Z</time></trkpt><trkpt lat="40.0841667" lon="15.3477783"><ele>67.0</ele><time>2026-03-28T12:25:50.036Z</time></trkpt><trkpt lat="40.0840483" lon="15.3475833"><ele>73.0</ele><time>2026-03-28T12:25:51.036Z</time></trkpt><trkpt lat="40.0839283" lon="15.3473983"><ele>79.0</ele><time>2026-03-28T12:25:52.035Z</time></trkpt><trkpt lat="40.0838117" lon="15.347225"><ele>67.0</ele><time>2026-03-28T12:25:53.035Z</time></trkpt><trkpt lat="40.08369" lon="15.3470667"><ele>55.0</ele><time>2026-03-28T12:25:54.035Z</time></trkpt><trkpt lat="40.0835667" lon="15.3469333"><ele>43.0</ele><time>2026-03-28T12:25:55.036Z</time></trkpt><trkpt lat="40.0834517" lon="15.3467967"><ele>43.0</ele><time>2026-03-28T12:25:56.035Z</time></trkpt><trkpt lat="40.0833517" lon="15.3466667"><ele>43.0</ele><time>2026-03-28T12:25:57.036Z</time></trkpt><trkpt lat="40.083275" lon="15.3465333"><ele>43.0</ele><time>2026-03-28T12:25:58.035Z</time></trkpt><trkpt lat="40.08323" lon="15.3463933"><ele>43.0</ele><time>2026-03-28T12:25:59.036Z</time></trkpt><trkpt lat="40.083225" lon="15.34625"><ele>54.75</ele><time>2026-03-28T12:26:00.035Z</time></trkpt><trkpt lat="40.08323" lon="15.3460967"><ele>66.5</ele><time>2026-03-28T12:26:01.036Z</time></trkpt><trkpt lat="40.0832267" lon="15.34594"><ele>78.25</ele><time>2026-03-28T12:26:02.035Z</time></trkpt><trkpt lat="40.0832267" lon="15.34578"><ele>90.0</ele><time>2026-03-28T12:26:03.036Z</time></trkpt><trkpt lat="40.0832" lon="15.3456233"><ele>83.25</ele><time>2026-03-28T12:26:04.035Z</time></trkpt><trkpt lat="40.0831483" lon="15.3454633"><ele>76.5</ele><time>2026-03-28T12:26:05.035Z</time></trkpt><trkpt lat="40.083095" lon="15.34529"><ele>69.75</ele><time>2026-03-28T12:26:06.035Z</time></trkpt><trkpt lat="40.083025" lon="15.34511"><ele>63.0</ele><time>2026-03-28T12:26:07.036Z</time></trkpt><trkpt lat="40.0829533" lon="15.344925"><ele>63.0</ele><time>2026-03-28T12:26:08.036Z</time></trkpt><trkpt lat="40.082875" lon="15.344735"><ele>63.0</ele><time>2026-03-28T12:26:09.035Z</time></trkpt><trkpt lat="40.0827833" lon="15.344555"><ele>63.0</ele><time>2026-03-28T12:26:10.036Z</time></trkpt><trkpt lat="40.08268" lon="15.34438"><ele>60.66666666666667</ele><time>2026-03-28T12:26:11.036Z</time></trkpt><trkpt lat="40.0825733" lon="15.34421"><ele>58.333333333333336</ele><time>2026-03-28T12:26:12.036Z</time></trkpt><trkpt lat="40.0824717" lon="15.344035"><ele>56.0</ele><time>2026-03-28T12:26:13.035Z</time></trkpt><trkpt lat="40.0823617" lon="15.3438783"><ele>56.0</ele><time>2026-03-28T12:26:14.036Z</time></trkpt><trkpt lat="40.082255" lon="15.3437133"><ele>56.0</ele><time>2026-03-28T12:26:15.035Z</time></trkpt><trkpt lat="40.0821983" lon="15.343515"><ele>56.0</ele><time>2026-03-28T12:26:16.035Z</time></trkpt><trkpt lat="40.0821317" lon="15.3433267"><ele>56.0</ele><time>2026-03-28T12:26:17.035Z</time></trkpt><trkpt lat="40.0820433" lon="15.34318"><ele>56.0</ele><time>2026-03-28T12:26:18.035Z</time></trkpt><trkpt lat="40.0819567" lon="15.34304"><ele>56.0</ele><time>2026-03-28T12:26:19.036Z</time></trkpt><trkpt lat="40.0818083" lon="15.342985"><ele>56.0</ele><time>2026-03-28T12:26:20.036Z</time></trkpt><trkpt lat="40.0817083" lon="15.34296"><ele>58.5</ele><time>2026-03-28T12:26:21.035Z</time></trkpt><trkpt lat="40.0816067" lon="15.3429583"><ele>61.0</ele><time>2026-03-28T12:26:22.035Z</time></trkpt><trkpt lat="40.0814933" lon="15.343"><ele>63.5</ele><time>2026-03-28T12:26:23.035Z</time></trkpt><trkpt lat="40.0813517" lon="15.34306"><ele>66.0</ele><time>2026-03-28T12:26:24.035Z</time></trkpt><trkpt lat="40.08118" lon="15.3431183"><ele>66.0</ele><time>2026-03-28T12:26:25.036Z</time></trkpt><trkpt lat="40.081035" lon="15.3431533"><ele>66.0</ele><time>2026-03-28T12:26:26.035Z</time></trkpt><trkpt lat="40.0809" lon="15.3431833"><ele>66.0</ele><time>2026-03-28T12:26:27.036Z</time></trkpt><trkpt lat="40.0807983" lon="15.3432067"><ele>66.0</ele><time>2026-03-28T12:26:28.035Z</time></trkpt><trkpt lat="40.08072" lon="15.343225"><ele>63.833333333333336</ele><time>2026-03-28T12:26:29.035Z</time></trkpt><trkpt lat="40.080655" lon="15.34322"><ele>61.66666666666667</ele><time>2026-03-28T12:26:30.035Z</time></trkpt><trkpt lat="40.0805933" lon="15.3430983"><ele>59.5</ele><time>2026-03-28T12:26:32.036Z</time></trkpt><trkpt lat="40.0805833" lon="15.343"><ele>57.333333333333336</ele><time>2026-03-28T12:26:33.036Z</time></trkpt><trkpt lat="40.0805533" lon="15.3428967"><ele>55.16666666666667</ele><time>2026-03-28T12:26:34.035Z</time></trkpt><trkpt lat="40.0804983" lon="15.3428117"><ele>53.0</ele><time>2026-03-28T12:26:35.036Z</time></trkpt><trkpt lat="40.0804167" lon="15.3427733"><ele>48.5</ele><time>2026-03-28T12:26:36.035Z</time></trkpt><trkpt lat="40.0803033" lon="15.3427933"><ele>44.0</ele><time>2026-03-28T12:26:37.035Z</time></trkpt><trkpt lat="40.0801767" lon="15.3428583"><ele>39.5</ele><time>2026-03-28T12:26:38.035Z</time></trkpt><trkpt lat="40.08005" lon="15.3429267"><ele>35.0</ele><time>2026-03-28T12:26:39.035Z</time></trkpt><trkpt lat="40.07993" lon="15.3429767"><ele>33.5</ele><time>2026-03-28T12:26:40.036Z</time></trkpt><trkpt lat="40.0798133" lon="15.3429783"><ele>32.0</ele><time>2026-03-28T12:26:41.035Z</time></trkpt><trkpt lat="40.07971" lon="15.34292"><ele>30.5</ele><time>2026-03-28T12:26:42.035Z</time></trkpt><trkpt lat="40.0796233" lon="15.3428133"><ele>29.0</ele><time>2026-03-28T12:26:43.035Z</time></trkpt><trkpt lat="40.07955" lon="15.3426867"><ele>29.0</ele><time>2026-03-28T12:26:44.036Z</time></trkpt><trkpt lat="40.079455" lon="15.34256"><ele>29.0</ele><time>2026-03-28T12:26:45.035Z</time></trkpt><trkpt lat="40.0793417" lon="15.3424833"><ele>29.0</ele><time>2026-03-28T12:26:46.036Z</time></trkpt><trkpt lat="40.0792083" lon="15.3424483"><ele>29.0</ele><time>2026-03-28T12:26:47.036Z</time></trkpt><trkpt lat="40.07906" lon="15.3424417"><ele>28.333333333333332</ele><time>2026-03-28T12:26:48.036Z</time></trkpt><trkpt lat="40.0789067" lon="15.3424567"><ele>27.666666666666664</ele><time>2026-03-28T12:26:49.035Z</time></trkpt><trkpt lat="40.0787517" lon="15.3424867"><ele>27.0</ele><time>2026-03-28T12:26:50.036Z</time></trkpt><trkpt lat="40.0785933" lon="15.342515"><ele>27.0</ele><time>2026-03-28T12:26:51.035Z</time></trkpt><trkpt lat="40.0784317" lon="15.3425417"><ele>27.0</ele><time>2026-03-28T12:26:52.035Z</time></trkpt><trkpt lat="40.0782683" lon="15.3425733"><ele>27.0</ele><time>2026-03-28T12:26:53.035Z</time></trkpt><trkpt lat="40.07811" lon="15.3426067"><ele>26.0</ele><time>2026-03-28T12:26:54.035Z</time></trkpt><trkpt lat="40.07795" lon="15.3426333"><ele>25.0</ele><time>2026-03-28T12:26:55.035Z</time></trkpt><trkpt lat="40.0777917" lon="15.342665"><ele>24.0</ele><time>2026-03-28T12:26:56.035Z</time></trkpt><trkpt lat="40.0776383" lon="15.3426967"><ele>24.0</ele><time>2026-03-28T12:26:57.035Z</time></trkpt><trkpt lat="40.0774867" lon="15.3427217"><ele>24.0</ele><time>2026-03-28T12:26:58.035Z</time></trkpt><trkpt lat="40.0773333" lon="15.3427433"><ele>24.0</ele><time>2026-03-28T12:26:59.036Z</time></trkpt><trkpt lat="40.0771617" lon="15.34276"><ele>24.333333333333336</ele><time>2026-03-28T12:27:00.036Z</time></trkpt><trkpt lat="40.07698" lon="15.3427667"><ele>24.666666666666668</ele><time>2026-03-28T12:27:01.036Z</time></trkpt><trkpt lat="40.0767933" lon="15.34276"><ele>25.0</ele><time>2026-03-28T12:27:02.035Z</time></trkpt><trkpt lat="40.07661" lon="15.34274"><ele>29.0</ele><time>2026-03-28T12:27:03.035Z</time></trkpt><trkpt lat="40.076415" lon="15.3427117"><ele>33.0</ele><time>2026-03-28T12:27:04.035Z</time></trkpt><trkpt lat="40.0762167" lon="15.3426733"><ele>37.0</ele><time>2026-03-28T12:27:05.035Z</time></trkpt><trkpt lat="40.0760167" lon="15.342625"><ele>37.0</ele><time>2026-03-28T12:27:06.035Z</time></trkpt><trkpt lat="40.07581" lon="15.34256"><ele>37.0</ele><time>2026-03-28T12:27:07.036Z</time></trkpt><trkpt lat="40.0756017" lon="15.3424733"><ele>37.0</ele><time>2026-03-28T12:27:08.035Z</time></trkpt><trkpt lat="40.0753817" lon="15.3423833"><ele>40.0</ele><time>2026-03-28T12:27:09.036Z</time></trkpt><trkpt lat="40.0751517" lon="15.3423"><ele>43.0</ele><time>2026-03-28T12:27:10.035Z</time></trkpt><trkpt lat="40.074915" lon="15.3422217"><ele>36.5</ele><time>2026-03-28T12:27:11.036Z</time></trkpt><trkpt lat="40.0746783" lon="15.3421433"><ele>30.0</ele><time>2026-03-28T12:27:12.035Z</time></trkpt><trkpt lat="40.0744433" lon="15.3420533"><ele>30.0</ele><time>2026-03-28T12:27:13.035Z</time></trkpt><trkpt lat="40.07421" lon="15.3419667"><ele>30.0</ele><time>2026-03-28T12:27:14.035Z</time></trkpt><trkpt lat="40.0739883" lon="15.34188"><ele>29.666666666666664</ele><time>2026-03-28T12:27:15.036Z</time></trkpt><trkpt lat="40.0737783" lon="15.3418017"><ele>29.333333333333332</ele><time>2026-03-28T12:27:16.036Z</time></trkpt><trkpt lat="40.0735817" lon="15.3417333"><ele>29.0</ele><time>2026-03-28T12:27:17.035Z</time></trkpt><trkpt lat="40.0733917" lon="15.3416617"><ele>41.0</ele><time>2026-03-28T12:27:18.035Z</time></trkpt><trkpt lat="40.0732117" lon="15.3415883"><ele>53.0</ele><time>2026-03-28T12:27:19.036Z</time></trkpt><trkpt lat="40.0730317" lon="15.3414983"><ele>65.0</ele><time>2026-03-28T12:27:20.035Z</time></trkpt><trkpt lat="40.0728583" lon="15.3413917"><ele>66.0</ele><time>2026-03-28T12:27:21.035Z</time></trkpt><trkpt lat="40.072675" lon="15.3412667"><ele>67.0</ele><time>2026-03-28T12:27:22.035Z</time></trkpt><trkpt lat="40.072485" lon="15.34113"><ele>68.0</ele><time>2026-03-28T12:27:23.036Z</time></trkpt><trkpt lat="40.0722933" lon="15.3409883"><ele>68.0</ele><time>2026-03-28T12:27:24.035Z</time></trkpt><trkpt lat="40.0720983" lon="15.340845"><ele>68.0</ele><time>2026-03-28T12:27:25.035Z</time></trkpt><trkpt lat="40.0718967" lon="15.3407017"><ele>68.0</ele><time>2026-03-28T12:27:26.035Z</time></trkpt><trkpt lat="40.07168" lon="15.3405617"><ele>68.0</ele><time>2026-03-28T12:27:27.035Z</time></trkpt><trkpt lat="40.0714483" lon="15.3404317"><ele>59.333333333333336</ele><time>2026-03-28T12:27:28.035Z</time></trkpt><trkpt lat="40.0712217" lon="15.3403317"><ele>50.66666666666667</ele><time>2026-03-28T12:27:29.035Z</time></trkpt><trkpt lat="40.0710317" lon="15.3403117"><ele>42.0</ele><time>2026-03-28T12:27:30.035Z</time></trkpt><trkpt lat="40.07088" lon="15.3400133"><ele>36.0</ele><time>2026-03-28T12:27:31.036Z</time></trkpt><trkpt lat="40.0706767" lon="15.3398317"><ele>30.0</ele><time>2026-03-28T12:27:32.035Z</time></trkpt><trkpt lat="40.0704733" lon="15.33967"><ele>30.0</ele><time>2026-03-28T12:27:33.036Z</time></trkpt><trkpt lat="40.0702733" lon="15.33952"><ele>30.0</ele><time>2026-03-28T12:27:34.035Z</time></trkpt><trkpt lat="40.0700767" lon="15.3393817"><ele>44.5</ele><time>2026-03-28T12:27:35.035Z</time></trkpt><trkpt lat="40.0698833" lon="15.3392383"><ele>59.0</ele><time>2026-03-28T12:27:36.036Z</time></trkpt><trkpt lat="40.0696883" lon="15.3390833"><ele>59.0</ele><time>2026-03-28T12:27:37.036Z</time></trkpt><trkpt lat="40.06949" lon="15.3389417"><ele>59.0</ele><time>2026-03-28T12:27:38.036Z</time></trkpt><trkpt lat="40.0692883" lon="15.3387917"><ele>52.0</ele><time>2026-03-28T12:27:39.035Z</time></trkpt><trkpt lat="40.06908" lon="15.3386467"><ele>45.0</ele><time>2026-03-28T12:27:40.035Z</time></trkpt><trkpt lat="40.06888" lon="15.3384917"><ele>45.0</ele><time>2026-03-28T12:27:41.035Z</time></trkpt><trkpt lat="40.0686733" lon="15.33834"><ele>45.0</ele><time>2026-03-28T12:27:42.035Z</time></trkpt><trkpt lat="40.0684617" lon="15.3381733"><ele>42.5</ele><time>2026-03-28T12:27:43.036Z</time></trkpt><trkpt lat="40.06825" lon="15.3380033"><ele>40.0</ele><time>2026-03-28T12:27:44.036Z</time></trkpt><trkpt lat="40.0680567" lon="15.33781"><ele>40.0</ele><time>2026-03-28T12:27:45.035Z</time></trkpt><trkpt lat="40.0678617" lon="15.3376117"><ele>40.0</ele><time>2026-03-28T12:27:46.035Z</time></trkpt><trkpt lat="40.0676617" lon="15.3374167"><ele>40.0</ele><time>2026-03-28T12:27:47.035Z</time></trkpt><trkpt lat="40.06746" lon="15.3372217"><ele>40.0</ele><time>2026-03-28T12:27:48.036Z</time></trkpt><trkpt lat="40.06726" lon="15.3370317"><ele>38.0</ele><time>2026-03-28T12:27:49.036Z</time></trkpt><trkpt lat="40.06706" lon="15.3368383"><ele>36.0</ele><time>2026-03-28T12:27:50.036Z</time></trkpt><trkpt lat="40.0668583" lon="15.3366417"><ele>36.0</ele><time>2026-03-28T12:27:51.035Z</time></trkpt><trkpt lat="40.0666567" lon="15.3364467"><ele>36.0</ele><time>2026-03-28T12:27:52.035Z</time></trkpt><trkpt lat="40.0664533" lon="15.336255"><ele>35.5</ele><time>2026-03-28T12:27:53.035Z</time></trkpt><trkpt lat="40.06625" lon="15.3360683"><ele>35.0</ele><time>2026-03-28T12:27:54.035Z</time></trkpt><trkpt lat="40.0660467" lon="15.3358983"><ele>35.0</ele><time>2026-03-28T12:27:55.035Z</time></trkpt><trkpt lat="40.0658433" lon="15.335735"><ele>35.0</ele><time>2026-03-28T12:27:56.036Z</time></trkpt><trkpt lat="40.0656333" lon="15.3355817"><ele>31.5</ele><time>2026-03-28T12:27:57.035Z</time></trkpt><trkpt lat="40.0654233" lon="15.3354217"><ele>28.0</ele><time>2026-03-28T12:27:58.036Z</time></trkpt><trkpt lat="40.06522" lon="15.3352633"><ele>28.0</ele><time>2026-03-28T12:27:59.036Z</time></trkpt><trkpt lat="40.0650183" lon="15.3351167"><ele>28.0</ele><time>2026-03-28T12:28:00.036Z</time></trkpt><trkpt lat="40.064815" lon="15.3349817"><ele>26.333333333333336</ele><time>2026-03-28T12:28:01.036Z</time></trkpt><trkpt lat="40.064625" lon="15.3348433"><ele>24.666666666666668</ele><time>2026-03-28T12:28:02.035Z</time></trkpt><trkpt lat="40.0644417" lon="15.33472"><ele>23.0</ele><time>2026-03-28T12:28:03.035Z</time></trkpt><trkpt lat="40.0642667" lon="15.3345983"><ele>28.666666666666668</ele><time>2026-03-28T12:28:04.035Z</time></trkpt><trkpt lat="40.0640983" lon="15.33449"><ele>34.333333333333336</ele><time>2026-03-28T12:28:05.035Z</time></trkpt><trkpt lat="40.0639333" lon="15.3343833"><ele>40.0</ele><time>2026-03-28T12:28:06.035Z</time></trkpt><trkpt lat="40.0637733" lon="15.3342783"><ele>40.0</ele><time>2026-03-28T12:28:07.035Z</time></trkpt><trkpt lat="40.0636083" lon="15.3341633"><ele>40.0</ele><time>2026-03-28T12:28:08.036Z</time></trkpt><trkpt lat="40.063445" lon="15.3340517"><ele>40.0</ele><time>2026-03-28T12:28:09.035Z</time></trkpt><trkpt lat="40.063275" lon="15.3339333"><ele>36.66666666666667</ele><time>2026-03-28T12:28:10.035Z</time></trkpt><trkpt lat="40.0631117" lon="15.3338183"><ele>33.333333333333336</ele><time>2026-03-28T12:28:11.036Z</time></trkpt><trkpt lat="40.0629517" lon="15.3337133"><ele>30.0</ele><time>2026-03-28T12:28:12.036Z</time></trkpt><trkpt lat="40.0628033" lon="15.3336033"><ele>30.0</ele><time>2026-03-28T12:28:13.036Z</time></trkpt><trkpt lat="40.0626717" lon="15.3334933"><ele>30.0</ele><time>2026-03-28T12:28:14.036Z</time></trkpt><trkpt lat="40.0625467" lon="15.3333733"><ele>30.0</ele><time>2026-03-28T12:28:15.035Z</time></trkpt><trkpt lat="40.0624333" lon="15.33326"><ele>28.333333333333336</ele><time>2026-03-28T12:28:16.035Z</time></trkpt><trkpt lat="40.0623183" lon="15.3331417"><ele>26.666666666666668</ele><time>2026-03-28T12:28:17.035Z</time></trkpt><trkpt lat="40.0621967" lon="15.3330167"><ele>25.0</ele><time>2026-03-28T12:28:18.036Z</time></trkpt><trkpt lat="40.0620733" lon="15.33288"><ele>25.0</ele><time>2026-03-28T12:28:19.036Z</time></trkpt><trkpt lat="40.0619467" lon="15.33273"><ele>25.0</ele><time>2026-03-28T12:28:20.035Z</time></trkpt><trkpt lat="40.0618083" lon="15.33257"><ele>25.0</ele><time>2026-03-28T12:28:21.035Z</time></trkpt><trkpt lat="40.0616583" lon="15.3324083"><ele>28.0</ele><time>2026-03-28T12:28:22.035Z</time></trkpt><trkpt lat="40.0614933" lon="15.332235"><ele>31.0</ele><time>2026-03-28T12:28:23.035Z</time></trkpt><trkpt lat="40.06133" lon="15.33205"><ele>34.0</ele><time>2026-03-28T12:28:24.036Z</time></trkpt><trkpt lat="40.06116" lon="15.3318633"><ele>34.0</ele><time>2026-03-28T12:28:25.036Z</time></trkpt><trkpt lat="40.0609867" lon="15.3316817"><ele>34.0</ele><time>2026-03-28T12:28:26.036Z</time></trkpt><trkpt lat="40.06081" lon="15.3315017"><ele>34.0</ele><time>2026-03-28T12:28:27.036Z</time></trkpt><trkpt lat="40.06063" lon="15.3313217"><ele>35.0</ele><time>2026-03-28T12:28:28.036Z</time></trkpt><trkpt lat="40.06045" lon="15.3311417"><ele>36.0</ele><time>2026-03-28T12:28:29.035Z</time></trkpt><trkpt lat="40.0602617" lon="15.33097"><ele>36.0</ele><time>2026-03-28T12:28:30.035Z</time></trkpt><trkpt lat="40.0600717" lon="15.3308"><ele>36.0</ele><time>2026-03-28T12:28:31.035Z</time></trkpt><trkpt lat="40.0598817" lon="15.33063"><ele>34.0</ele><time>2026-03-28T12:28:32.035Z</time></trkpt><trkpt lat="40.0596917" lon="15.3304583"><ele>32.0</ele><time>2026-03-28T12:28:33.035Z</time></trkpt><trkpt lat="40.0595017" lon="15.3302817"><ele>32.0</ele><time>2026-03-28T12:28:34.036Z</time></trkpt><trkpt lat="40.0593017" lon="15.3301133"><ele>32.0</ele><time>2026-03-28T12:28:35.035Z</time></trkpt><trkpt lat="40.05909" lon="15.3299467"><ele>29.0</ele><time>2026-03-28T12:28:36.036Z</time></trkpt><trkpt lat="40.0588783" lon="15.3297783"><ele>26.0</ele><time>2026-03-28T12:28:37.036Z</time></trkpt><trkpt lat="40.0586667" lon="15.3296167"><ele>26.0</ele><time>2026-03-28T12:28:38.035Z</time></trkpt><trkpt lat="40.0584517" lon="15.32945"><ele>26.0</ele><time>2026-03-28T12:28:39.036Z</time></trkpt><trkpt lat="40.0582233" lon="15.329295"><ele>29.5</ele><time>2026-03-28T12:28:40.036Z</time></trkpt><trkpt lat="40.0579883" lon="15.3291367"><ele>33.0</ele><time>2026-03-28T12:28:41.035Z</time></trkpt><trkpt lat="40.0577517" lon="15.3289783"><ele>30.5</ele><time>2026-03-28T12:28:42.035Z</time></trkpt><trkpt lat="40.0575017" lon="15.328825"><ele>28.0</ele><time>2026-03-28T12:28:43.036Z</time></trkpt><trkpt lat="40.0572417" lon="15.32867"><ele>28.0</ele><time>2026-03-28T12:28:44.036Z</time></trkpt><trkpt lat="40.0569867" lon="15.3285117"><ele>28.0</ele><time>2026-03-28T12:28:45.035Z</time></trkpt><trkpt lat="40.0567333" lon="15.3283517"><ele>23.0</ele><time>2026-03-28T12:28:46.036Z</time></trkpt><trkpt lat="40.056485" lon="15.3281933"><ele>18.0</ele><time>2026-03-28T12:28:47.036Z</time></trkpt><trkpt lat="40.0562367" lon="15.328035"><ele>18.0</ele><time>2026-03-28T12:28:48.035Z</time></trkpt><trkpt lat="40.055995" lon="15.3278833"><ele>18.0</ele><time>2026-03-28T12:28:49.035Z</time></trkpt><trkpt lat="40.0557667" lon="15.327735"><ele>26.5</ele><time>2026-03-28T12:28:50.035Z</time></trkpt><trkpt lat="40.055535" lon="15.327595"><ele>35.0</ele><time>2026-03-28T12:28:51.035Z</time></trkpt><trkpt lat="40.0553083" lon="15.3274533"><ele>35.0</ele><time>2026-03-28T12:28:52.035Z</time></trkpt><trkpt lat="40.05508" lon="15.3273117"><ele>35.0</ele><time>2026-03-28T12:28:53.036Z</time></trkpt><trkpt lat="40.05485" lon="15.327175"><ele>27.0</ele><time>2026-03-28T12:28:54.036Z</time></trkpt><trkpt lat="40.05461" lon="15.327055"><ele>19.0</ele><time>2026-03-28T12:28:55.036Z</time></trkpt><trkpt lat="40.054365" lon="15.3269483"><ele>21.5</ele><time>2026-03-28T12:28:56.035Z</time></trkpt><trkpt lat="40.05411" lon="15.3268633"><ele>24.0</ele><time>2026-03-28T12:28:57.036Z</time></trkpt><trkpt lat="40.0538483" lon="15.3268"><ele>24.0</ele><time>2026-03-28T12:28:58.035Z</time></trkpt><trkpt lat="40.053585" lon="15.32675"><ele>24.0</ele><time>2026-03-28T12:28:59.035Z</time></trkpt><trkpt lat="40.0533267" lon="15.326715"><ele>23.0</ele><time>2026-03-28T12:29:00.035Z</time></trkpt><trkpt lat="40.0530583" lon="15.3267083"><ele>22.0</ele><time>2026-03-28T12:29:01.036Z</time></trkpt><trkpt lat="40.05278" lon="15.3267267"><ele>22.0</ele><time>2026-03-28T12:29:02.036Z</time></trkpt><trkpt lat="40.0524933" lon="15.3267667"><ele>22.0</ele><time>2026-03-28T12:29:03.035Z</time></trkpt><trkpt lat="40.052195" lon="15.3268267"><ele>18.0</ele><time>2026-03-28T12:29:04.035Z</time></trkpt><trkpt lat="40.0518933" lon="15.3269067"><ele>14.0</ele><time>2026-03-28T12:29:05.035Z</time></trkpt><trkpt lat="40.051605" lon="15.3269933"><ele>13.5</ele><time>2026-03-28T12:29:06.035Z</time></trkpt><trkpt lat="40.0513283" lon="15.3270783"><ele>13.0</ele><time>2026-03-28T12:29:07.036Z</time></trkpt><trkpt lat="40.0510667" lon="15.3271583"><ele>24.0</ele><time>2026-03-28T12:29:08.035Z</time></trkpt><trkpt lat="40.0508183" lon="15.3272333"><ele>35.0</ele><time>2026-03-28T12:29:09.035Z</time></trkpt><trkpt lat="40.0505783" lon="15.3273033"><ele>35.0</ele><time>2026-03-28T12:29:10.035Z</time></trkpt><trkpt lat="40.0503383" lon="15.3273733"><ele>35.0</ele><time>2026-03-28T12:29:11.035Z</time></trkpt><trkpt lat="40.0500983" lon="15.3274383"><ele>32.5</ele><time>2026-03-28T12:29:12.035Z</time></trkpt><trkpt lat="40.0498567" lon="15.3274867"><ele>30.0</ele><time>2026-03-28T12:29:13.035Z</time></trkpt><trkpt lat="40.0496117" lon="15.3275217"><ele>30.0</ele><time>2026-03-28T12:29:14.035Z</time></trkpt><trkpt lat="40.04936" lon="15.3275383"><ele>30.0</ele><time>2026-03-28T12:29:15.035Z</time></trkpt><trkpt lat="40.0491133" lon="15.32753"><ele>29.5</ele><time>2026-03-28T12:29:16.036Z</time></trkpt><trkpt lat="40.04887" lon="15.3274983"><ele>29.0</ele><time>2026-03-28T12:29:17.036Z</time></trkpt><trkpt lat="40.0486217" lon="15.3274433"><ele>29.0</ele><time>2026-03-28T12:29:18.035Z</time></trkpt><trkpt lat="40.0483783" lon="15.32736"><ele>29.0</ele><time>2026-03-28T12:29:19.035Z</time></trkpt><trkpt lat="40.0481367" lon="15.3272617"><ele>24.5</ele><time>2026-03-28T12:29:20.036Z</time></trkpt><trkpt lat="40.0478917" lon="15.3271433"><ele>20.0</ele><time>2026-03-28T12:29:21.036Z</time></trkpt><trkpt lat="40.0476317" lon="15.3270217"><ele>27.5</ele><time>2026-03-28T12:29:22.036Z</time></trkpt><trkpt lat="40.0473717" lon="15.3269033"><ele>35.0</ele><time>2026-03-28T12:29:23.036Z</time></trkpt><trkpt lat="40.0471183" lon="15.3267867"><ele>35.0</ele><time>2026-03-28T12:29:24.036Z</time></trkpt><trkpt lat="40.0468733" lon="15.326665"><ele>35.0</ele><time>2026-03-28T12:29:25.035Z</time></trkpt><trkpt lat="40.0466317" lon="15.3265483"><ele>26.5</ele><time>2026-03-28T12:29:26.035Z</time></trkpt><trkpt lat="40.0464033" lon="15.326435"><ele>18.0</ele><time>2026-03-28T12:29:27.036Z</time></trkpt><trkpt lat="40.0461833" lon="15.326315"><ele>18.0</ele><time>2026-03-28T12:29:28.035Z</time></trkpt><trkpt lat="40.0459833" lon="15.32619"><ele>18.0</ele><time>2026-03-28T12:29:29.036Z</time></trkpt><trkpt lat="40.0457983" lon="15.3260467"><ele>18.0</ele><time>2026-03-28T12:29:30.036Z</time></trkpt><trkpt lat="40.04562" lon="15.325885"><ele>20.0</ele><time>2026-03-28T12:29:31.036Z</time></trkpt><trkpt lat="40.045445" lon="15.3256967"><ele>22.0</ele><time>2026-03-28T12:29:32.035Z</time></trkpt><trkpt lat="40.0452817" lon="15.3255"><ele>24.0</ele><time>2026-03-28T12:29:33.036Z</time></trkpt><trkpt lat="40.045125" lon="15.3252883"><ele>15.0</ele><time>2026-03-28T12:29:34.036Z</time></trkpt><trkpt lat="40.04497" lon="15.3250533"><ele>6.0</ele><time>2026-03-28T12:29:35.036Z</time></trkpt><trkpt lat="40.04483" lon="15.324805"><ele>5.0</ele><time>2026-03-28T12:29:36.036Z</time></trkpt><trkpt lat="40.0447033" lon="15.32454"><ele>4.0</ele><time>2026-03-28T12:29:37.035Z</time></trkpt><trkpt lat="40.044575" lon="15.3242583"><ele>4.0</ele><time>2026-03-28T12:29:38.035Z</time></trkpt><trkpt lat="40.0444467" lon="15.323965"><ele>4.0</ele><time>2026-03-28T12:29:39.035Z</time></trkpt><trkpt lat="40.04432" lon="15.3236783"><ele>6.0</ele><time>2026-03-28T12:29:40.035Z</time></trkpt><trkpt lat="40.0441917" lon="15.3234083"><ele>8.0</ele><time>2026-03-28T12:29:41.035Z</time></trkpt><trkpt lat="40.0440583" lon="15.323155"><ele>10.0</ele><time>2026-03-28T12:29:42.036Z</time></trkpt><trkpt lat="40.0439133" lon="15.3229083"><ele>12.0</ele><time>2026-03-28T12:29:43.035Z</time></trkpt><trkpt lat="40.043755" lon="15.322675"><ele>12.0</ele><time>2026-03-28T12:29:44.036Z</time></trkpt><trkpt lat="40.0435917" lon="15.3224517"><ele>12.0</ele><time>2026-03-28T12:29:45.036Z</time></trkpt><trkpt lat="40.0434167" lon="15.3222367"><ele>12.5</ele><time>2026-03-28T12:29:46.036Z</time></trkpt><trkpt lat="40.0432317" lon="15.3220333"><ele>13.0</ele><time>2026-03-28T12:29:47.036Z</time></trkpt><trkpt lat="40.043035" lon="15.3218433"><ele>13.0</ele><time>2026-03-28T12:29:48.035Z</time></trkpt><trkpt lat="40.0428233" lon="15.321655"><ele>13.0</ele><time>2026-03-28T12:29:49.036Z</time></trkpt><trkpt lat="40.042595" lon="15.3214767"><ele>16.0</ele><time>2026-03-28T12:29:50.035Z</time></trkpt><trkpt lat="40.0423667" lon="15.3213117"><ele>19.0</ele><time>2026-03-28T12:29:51.036Z</time></trkpt><trkpt lat="40.042155" lon="15.321155"><ele>19.0</ele><time>2026-03-28T12:29:52.035Z</time></trkpt><trkpt lat="40.0419467" lon="15.321005"><ele>19.0</ele><time>2026-03-28T12:29:53.036Z</time></trkpt><trkpt lat="40.04175" lon="15.3208633"><ele>13.0</ele><time>2026-03-28T12:29:54.035Z</time></trkpt><trkpt lat="40.0415517" lon="15.320725"><ele>7.0</ele><time>2026-03-28T12:29:55.035Z</time></trkpt><trkpt lat="40.0413483" lon="15.3205983"><ele>7.0</ele><time>2026-03-28T12:29:56.036Z</time></trkpt><trkpt lat="40.04116" lon="15.3204567"><ele>7.0</ele><time>2026-03-28T12:29:57.035Z</time></trkpt><trkpt lat="40.0409633" lon="15.3203067"><ele>7.0</ele><time>2026-03-28T12:29:58.035Z</time></trkpt><trkpt lat="40.0407733" lon="15.32015"><ele>7.0</ele><time>2026-03-28T12:29:59.035Z</time></trkpt><trkpt lat="40.040595" lon="15.3199817"><ele>7.0</ele><time>2026-03-28T12:30:00.035Z</time></trkpt><trkpt lat="40.040425" lon="15.3198017"><ele>7.0</ele><time>2026-03-28T12:30:01.036Z</time></trkpt><trkpt lat="40.0402767" lon="15.319605"><ele>7.5</ele><time>2026-03-28T12:30:02.035Z</time></trkpt><trkpt lat="40.04012" lon="15.3193967"><ele>8.0</ele><time>2026-03-28T12:30:03.036Z</time></trkpt><trkpt lat="40.039965" lon="15.3191683"><ele>6.5</ele><time>2026-03-28T12:30:04.036Z</time></trkpt><trkpt lat="40.0398183" lon="15.318925"><ele>5.0</ele><time>2026-03-28T12:30:05.035Z</time></trkpt><trkpt lat="40.0396917" lon="15.318675"><ele>5.0</ele><time>2026-03-28T12:30:06.035Z</time></trkpt><trkpt lat="40.0395717" lon="15.3184167"><ele>5.0</ele><time>2026-03-28T12:30:07.035Z</time></trkpt><trkpt lat="40.0394567" lon="15.3181467"><ele>5.0</ele><time>2026-03-28T12:30:08.036Z</time></trkpt><trkpt lat="40.039355" lon="15.3178733"><ele>5.0</ele><time>2026-03-28T12:30:09.035Z</time></trkpt><trkpt lat="40.03927" lon="15.3176083"><ele>5.0</ele><time>2026-03-28T12:30:10.036Z</time></trkpt><trkpt lat="40.0392" lon="15.317355"><ele>5.0</ele><time>2026-03-28T12:30:11.036Z</time></trkpt><trkpt lat="40.0391467" lon="15.3171117"><ele>5.0</ele><time>2026-03-28T12:30:12.036Z</time></trkpt><trkpt lat="40.0391067" lon="15.3168783"><ele>5.0</ele><time>2026-03-28T12:30:13.036Z</time></trkpt><trkpt lat="40.0390683" lon="15.31664"><ele>5.0</ele><time>2026-03-28T12:30:14.035Z</time></trkpt><trkpt lat="40.03904" lon="15.3163833"><ele>5.0</ele><time>2026-03-28T12:30:15.036Z</time></trkpt><trkpt lat="40.0390067" lon="15.316115"><ele>5.0</ele><time>2026-03-28T12:30:16.035Z</time></trkpt><trkpt lat="40.0389867" lon="15.3158383"><ele>5.0</ele><time>2026-03-28T12:30:17.035Z</time></trkpt><trkpt lat="40.03898" lon="15.315575"><ele>5.0</ele><time>2026-03-28T12:30:18.035Z</time></trkpt><trkpt lat="40.0389817" lon="15.3153267"><ele>4.75</ele><time>2026-03-28T12:30:19.036Z</time></trkpt><trkpt lat="40.0389833" lon="15.31511"><ele>4.5</ele><time>2026-03-28T12:30:20.035Z</time></trkpt><trkpt lat="40.0389817" lon="15.3149267"><ele>4.25</ele><time>2026-03-28T12:30:21.036Z</time></trkpt><trkpt lat="40.03899" lon="15.3147533"><ele>4.0</ele><time>2026-03-28T12:30:22.036Z</time></trkpt><trkpt lat="40.039" lon="15.3145633"><ele>4.0</ele><time>2026-03-28T12:30:23.035Z</time></trkpt><trkpt lat="40.0390067" lon="15.314365"><ele>4.0</ele><time>2026-03-28T12:30:24.036Z</time></trkpt><trkpt lat="40.0390083" lon="15.314155"><ele>4.0</ele><time>2026-03-28T12:30:25.035Z</time></trkpt><trkpt lat="40.03901" lon="15.3139283"><ele>4.333333333333333</ele><time>2026-03-28T12:30:26.035Z</time></trkpt><trkpt lat="40.0390283" lon="15.313685"><ele>4.666666666666667</ele><time>2026-03-28T12:30:27.035Z</time></trkpt><trkpt lat="40.0390517" lon="15.31342"><ele>5.0</ele><time>2026-03-28T12:30:28.036Z</time></trkpt><trkpt lat="40.03907" lon="15.3131367"><ele>5.5</ele><time>2026-03-28T12:30:29.035Z</time></trkpt><trkpt lat="40.0390783" lon="15.3128483"><ele>6.0</ele><time>2026-03-28T12:30:30.035Z</time></trkpt><trkpt lat="40.0390817" lon="15.312545"><ele>6.5</ele><time>2026-03-28T12:30:31.036Z</time></trkpt><trkpt lat="40.039085" lon="15.3122317"><ele>7.0</ele><time>2026-03-28T12:30:32.035Z</time></trkpt><trkpt lat="40.0390983" lon="15.311905"><ele>7.0</ele><time>2026-03-28T12:30:33.036Z</time></trkpt><trkpt lat="40.0391083" lon="15.3115833"><ele>7.0</ele><time>2026-03-28T12:30:34.036Z</time></trkpt><trkpt lat="40.0391183" lon="15.31126"><ele>6.5</ele><time>2026-03-28T12:30:35.035Z</time></trkpt><trkpt lat="40.0391267" lon="15.3109367"><ele>6.0</ele><time>2026-03-28T12:30:36.035Z</time></trkpt><trkpt lat="40.0391333" lon="15.310615"><ele>6.0</ele><time>2026-03-28T12:30:37.035Z</time></trkpt><trkpt lat="40.039145" lon="15.3102933"><ele>6.0</ele><time>2026-03-28T12:30:38.035Z</time></trkpt><trkpt lat="40.0391517" lon="15.3099867"><ele>6.0</ele><time>2026-03-28T12:30:39.036Z</time></trkpt><trkpt lat="40.039155" lon="15.3096933"><ele>6.0</ele><time>2026-03-28T12:30:40.035Z</time></trkpt><trkpt lat="40.03916" lon="15.309405"><ele>6.0</ele><time>2026-03-28T12:30:41.036Z</time></trkpt><trkpt lat="40.0391633" lon="15.3091217"><ele>6.0</ele><time>2026-03-28T12:30:42.036Z</time></trkpt><trkpt lat="40.0391583" lon="15.3088417"><ele>6.0</ele><time>2026-03-28T12:30:43.035Z</time></trkpt><trkpt lat="40.0391367" lon="15.30856"><ele>6.0</ele><time>2026-03-28T12:30:44.035Z</time></trkpt><trkpt lat="40.039105" lon="15.3082717"><ele>5.5</ele><time>2026-03-28T12:30:45.036Z</time></trkpt><trkpt lat="40.0390583" lon="15.3079817"><ele>5.0</ele><time>2026-03-28T12:30:46.035Z</time></trkpt><trkpt lat="40.0390083" lon="15.3076917"><ele>5.0</ele><time>2026-03-28T12:30:47.036Z</time></trkpt><trkpt lat="40.038945" lon="15.3074017"><ele>5.0</ele><time>2026-03-28T12:30:48.036Z</time></trkpt><trkpt lat="40.0388717" lon="15.3071"><ele>4.5</ele><time>2026-03-28T12:30:49.035Z</time></trkpt><trkpt lat="40.0387883" lon="15.3067867"><ele>4.0</ele><time>2026-03-28T12:30:50.036Z</time></trkpt><trkpt lat="40.0387" lon="15.3064733"><ele>5.0</ele><time>2026-03-28T12:30:51.036Z</time></trkpt><trkpt lat="40.0386067" lon="15.30615"><ele>6.0</ele><time>2026-03-28T12:30:52.035Z</time></trkpt><trkpt lat="40.038515" lon="15.3058267"><ele>6.5</ele><time>2026-03-28T12:30:53.035Z</time></trkpt><trkpt lat="40.0384167" lon="15.3054983"><ele>7.0</ele><time>2026-03-28T12:30:54.036Z</time></trkpt><trkpt lat="40.0383217" lon="15.3051833"><ele>5.5</ele><time>2026-03-28T12:30:55.035Z</time></trkpt><trkpt lat="40.0382367" lon="15.3048917"><ele>4.0</ele><time>2026-03-28T12:30:56.035Z</time></trkpt><trkpt lat="40.038165" lon="15.3046133"><ele>4.0</ele><time>2026-03-28T12:30:57.035Z</time></trkpt><trkpt lat="40.038095" lon="15.3043533"><ele>4.0</ele><time>2026-03-28T12:30:58.036Z</time></trkpt><trkpt lat="40.03804" lon="15.3041"><ele>4.0</ele><time>2026-03-28T12:30:59.035Z</time></trkpt><trkpt lat="40.0379983" lon="15.3038583"><ele>5.333333333333333</ele><time>2026-03-28T12:31:00.036Z</time></trkpt><trkpt lat="40.0379817" lon="15.3036267"><ele>6.666666666666666</ele><time>2026-03-28T12:31:01.035Z</time></trkpt><trkpt lat="40.0379867" lon="15.3033917"><ele>8.0</ele><time>2026-03-28T12:31:02.035Z</time></trkpt><trkpt lat="40.038015" lon="15.3031583"><ele>9.666666666666666</ele><time>2026-03-28T12:31:03.035Z</time></trkpt><trkpt lat="40.0380667" lon="15.3029217"><ele>11.333333333333332</ele><time>2026-03-28T12:31:04.035Z</time></trkpt><trkpt lat="40.0381433" lon="15.3026833"><ele>13.0</ele><time>2026-03-28T12:31:05.035Z</time></trkpt><trkpt lat="40.03824" lon="15.302455"><ele>13.333333333333332</ele><time>2026-03-28T12:31:06.035Z</time></trkpt><trkpt lat="40.0383583" lon="15.3022483"><ele>13.666666666666668</ele><time>2026-03-28T12:31:07.035Z</time></trkpt><trkpt lat="40.0384917" lon="15.3020617"><ele>14.0</ele><time>2026-03-28T12:31:08.036Z</time></trkpt><trkpt lat="40.0386433" lon="15.301905"><ele>14.666666666666668</ele><time>2026-03-28T12:31:09.035Z</time></trkpt><trkpt lat="40.03881" lon="15.3017733"><ele>15.333333333333332</ele><time>2026-03-28T12:31:10.036Z</time></trkpt><trkpt lat="40.0389917" lon="15.301665"><ele>16.0</ele><time>2026-03-28T12:31:11.036Z</time></trkpt><trkpt lat="40.039185" lon="15.3015683"><ele>16.0</ele><time>2026-03-28T12:31:12.036Z</time></trkpt><trkpt lat="40.0394033" lon="15.3014683"><ele>16.0</ele><time>2026-03-28T12:31:13.036Z</time></trkpt><trkpt lat="40.039635" lon="15.301365"><ele>13.5</ele><time>2026-03-28T12:31:14.036Z</time></trkpt><trkpt lat="40.0398733" lon="15.3012583"><ele>11.0</ele><time>2026-03-28T12:31:15.036Z</time></trkpt><trkpt lat="40.0401233" lon="15.3011467"><ele>11.0</ele><time>2026-03-28T12:31:16.036Z</time></trkpt><trkpt lat="40.04038" lon="15.3010383"><ele>11.0</ele><time>2026-03-28T12:31:17.035Z</time></trkpt><trkpt lat="40.0406267" lon="15.3009417"><ele>12.5</ele><time>2026-03-28T12:31:18.036Z</time></trkpt><trkpt lat="40.040865" lon="15.3008367"><ele>14.0</ele><time>2026-03-28T12:31:19.035Z</time></trkpt><trkpt lat="40.0411017" lon="15.30073"><ele>14.0</ele><time>2026-03-28T12:31:20.036Z</time></trkpt><trkpt lat="40.0413433" lon="15.3006233"><ele>14.0</ele><time>2026-03-28T12:31:21.035Z</time></trkpt><trkpt lat="40.0415917" lon="15.3005167"><ele>12.5</ele><time>2026-03-28T12:31:22.035Z</time></trkpt><trkpt lat="40.0418467" lon="15.300405"><ele>11.0</ele><time>2026-03-28T12:31:23.036Z</time></trkpt><trkpt lat="40.042095" lon="15.3002967"><ele>11.0</ele><time>2026-03-28T12:31:24.036Z</time></trkpt><trkpt lat="40.042335" lon="15.3001967"><ele>11.0</ele><time>2026-03-28T12:31:25.036Z</time></trkpt><trkpt lat="40.04257" lon="15.300095"><ele>12.5</ele><time>2026-03-28T12:31:26.036Z</time></trkpt><trkpt lat="40.0428017" lon="15.3000017"><ele>14.0</ele><time>2026-03-28T12:31:27.036Z</time></trkpt><trkpt lat="40.0430317" lon="15.2999017"><ele>14.0</ele><time>2026-03-28T12:31:28.035Z</time></trkpt><trkpt lat="40.0432633" lon="15.2998067"><ele>14.0</ele><time>2026-03-28T12:31:29.035Z</time></trkpt><trkpt lat="40.0435" lon="15.2997033"><ele>14.0</ele><time>2026-03-28T12:31:30.035Z</time></trkpt><trkpt lat="40.043745" lon="15.2995917"><ele>14.0</ele><time>2026-03-28T12:31:31.036Z</time></trkpt><trkpt lat="40.0439917" lon="15.2994683"><ele>15.0</ele><time>2026-03-28T12:31:32.036Z</time></trkpt><trkpt lat="40.04423" lon="15.29933"><ele>16.0</ele><time>2026-03-28T12:31:33.035Z</time></trkpt><trkpt lat="40.0444517" lon="15.2991867"><ele>16.0</ele><time>2026-03-28T12:31:34.036Z</time></trkpt><trkpt lat="40.0446517" lon="15.2990467"><ele>16.0</ele><time>2026-03-28T12:31:35.036Z</time></trkpt><trkpt lat="40.0448367" lon="15.298905"><ele>16.0</ele><time>2026-03-28T12:31:36.035Z</time></trkpt><trkpt lat="40.0450167" lon="15.2987617"><ele>16.333333333333332</ele><time>2026-03-28T12:31:37.036Z</time></trkpt><trkpt lat="40.04519" lon="15.2986117"><ele>16.666666666666668</ele><time>2026-03-28T12:31:38.035Z</time></trkpt><trkpt lat="40.045365" lon="15.2984583"><ele>17.0</ele><time>2026-03-28T12:31:39.035Z</time></trkpt><trkpt lat="40.0455467" lon="15.2983017"><ele>17.0</ele><time>2026-03-28T12:31:40.035Z</time></trkpt><trkpt lat="40.0457333" lon="15.29815"><ele>17.0</ele><time>2026-03-28T12:31:41.037Z</time></trkpt><trkpt lat="40.0459183" lon="15.2980033"><ele>17.0</ele><time>2026-03-28T12:31:42.036Z</time></trkpt><trkpt lat="40.0460883" lon="15.297865"><ele>16.666666666666668</ele><time>2026-03-28T12:31:43.036Z</time></trkpt><trkpt lat="40.04625" lon="15.2977283"><ele>16.333333333333332</ele><time>2026-03-28T12:31:44.036Z</time></trkpt><trkpt lat="40.046405" lon="15.2975833"><ele>16.0</ele><time>2026-03-28T12:31:45.037Z</time></trkpt><trkpt lat="40.04655" lon="15.297415"><ele>15.333333333333332</ele><time>2026-03-28T12:31:46.036Z</time></trkpt><trkpt lat="40.0466817" lon="15.2972317"><ele>14.666666666666668</ele><time>2026-03-28T12:31:47.037Z</time></trkpt><trkpt lat="40.0467933" lon="15.2970283"><ele>14.0</ele><time>2026-03-28T12:31:48.036Z</time></trkpt><trkpt lat="40.04689" lon="15.2968033"><ele>14.0</ele><time>2026-03-28T12:31:49.036Z</time></trkpt><trkpt lat="40.0469667" lon="15.2965717"><ele>14.0</ele><time>2026-03-28T12:31:50.037Z</time></trkpt><trkpt lat="40.0470283" lon="15.29632"><ele>14.0</ele><time>2026-03-28T12:31:51.036Z</time></trkpt><trkpt lat="40.0470683" lon="15.2960667"><ele>13.333333333333334</ele><time>2026-03-28T12:31:52.037Z</time></trkpt><trkpt lat="40.047085" lon="15.295815"><ele>12.666666666666668</ele><time>2026-03-28T12:31:53.036Z</time></trkpt><trkpt lat="40.0470817" lon="15.295565"><ele>12.0</ele><time>2026-03-28T12:31:54.036Z</time></trkpt><trkpt lat="40.0470617" lon="15.295315"><ele>12.0</ele><time>2026-03-28T12:31:55.036Z</time></trkpt><trkpt lat="40.0470133" lon="15.29507"><ele>12.0</ele><time>2026-03-28T12:31:56.036Z</time></trkpt><trkpt lat="40.0469567" lon="15.2948283"><ele>12.0</ele><time>2026-03-28T12:31:57.036Z</time></trkpt><trkpt lat="40.0468933" lon="15.2945867"><ele>12.0</ele><time>2026-03-28T12:31:58.037Z</time></trkpt><trkpt lat="40.04683" lon="15.2943417"><ele>12.0</ele><time>2026-03-28T12:31:59.037Z</time></trkpt><trkpt lat="40.046765" lon="15.2940967"><ele>12.0</ele><time>2026-03-28T12:32:00.037Z</time></trkpt><trkpt lat="40.0466983" lon="15.2938417"><ele>12.0</ele><time>2026-03-28T12:32:01.036Z</time></trkpt><trkpt lat="40.0466267" lon="15.2935883"><ele>12.0</ele><time>2026-03-28T12:32:02.036Z</time></trkpt><trkpt lat="40.0465517" lon="15.2933233"><ele>12.0</ele><time>2026-03-28T12:32:03.036Z</time></trkpt><trkpt lat="40.0464767" lon="15.29305"><ele>12.5</ele><time>2026-03-28T12:32:04.037Z</time></trkpt><trkpt lat="40.0464067" lon="15.2927617"><ele>13.0</ele><time>2026-03-28T12:32:05.036Z</time></trkpt><trkpt lat="40.046335" lon="15.2924683"><ele>12.666666666666666</ele><time>2026-03-28T12:32:06.036Z</time></trkpt><trkpt lat="40.046275" lon="15.29219"><ele>12.333333333333332</ele><time>2026-03-28T12:32:07.036Z</time></trkpt><trkpt lat="40.0462183" lon="15.2919283"><ele>12.0</ele><time>2026-03-28T12:32:08.036Z</time></trkpt><trkpt lat="40.04616" lon="15.29167"><ele>15.0</ele><time>2026-03-28T12:32:09.036Z</time></trkpt><trkpt lat="40.0461083" lon="15.2914233"><ele>18.0</ele><time>2026-03-28T12:32:10.037Z</time></trkpt><trkpt lat="40.0460633" lon="15.2912133"><ele>21.0</ele><time>2026-03-28T12:32:11.036Z</time></trkpt><trkpt lat="40.0460167" lon="15.2910367"><ele>21.0</ele><time>2026-03-28T12:32:12.037Z</time></trkpt><trkpt lat="40.0459683" lon="15.2908933"><ele>21.0</ele><time>2026-03-28T12:32:13.036Z</time></trkpt><trkpt lat="40.0458933" lon="15.2907783"><ele>21.0</ele><time>2026-03-28T12:32:14.036Z</time></trkpt><trkpt lat="40.045795" lon="15.290715"><ele>21.0</ele><time>2026-03-28T12:32:15.036Z</time></trkpt><trkpt lat="40.0456783" lon="15.2907067"><ele>22.666666666666664</ele><time>2026-03-28T12:32:16.037Z</time></trkpt><trkpt lat="40.045545" lon="15.29073"><ele>24.333333333333332</ele><time>2026-03-28T12:32:17.036Z</time></trkpt><trkpt lat="40.0453867" lon="15.2907667"><ele>26.0</ele><time>2026-03-28T12:32:18.036Z</time></trkpt><trkpt lat="40.0452283" lon="15.2907717"><ele>26.0</ele><time>2026-03-28T12:32:19.037Z</time></trkpt><trkpt lat="40.0450567" lon="15.2907433"><ele>26.0</ele><time>2026-03-28T12:32:20.037Z</time></trkpt><trkpt lat="40.04488" lon="15.2906867"><ele>26.0</ele><time>2026-03-28T12:32:21.036Z</time></trkpt><trkpt lat="40.0447317" lon="15.290615"><ele>35.0</ele><time>2026-03-28T12:32:22.037Z</time></trkpt><trkpt lat="40.0445783" lon="15.2905733"><ele>44.0</ele><time>2026-03-28T12:32:23.036Z</time></trkpt><trkpt lat="40.04441" lon="15.29056"><ele>53.0</ele><time>2026-03-28T12:32:24.036Z</time></trkpt><trkpt lat="40.0442333" lon="15.290585"><ele>46.66666666666667</ele><time>2026-03-28T12:32:25.036Z</time></trkpt><trkpt lat="40.0440383" lon="15.2906233"><ele>40.333333333333336</ele><time>2026-03-28T12:32:26.037Z</time></trkpt><trkpt lat="40.0438367" lon="15.2906583"><ele>34.0</ele><time>2026-03-28T12:32:27.037Z</time></trkpt><trkpt lat="40.0436433" lon="15.29069"><ele>34.0</ele><time>2026-03-28T12:32:28.036Z</time></trkpt><trkpt lat="40.0434583" lon="15.290705"><ele>34.0</ele><time>2026-03-28T12:32:29.037Z</time></trkpt><trkpt lat="40.0432867" lon="15.2907067"><ele>34.0</ele><time>2026-03-28T12:32:30.036Z</time></trkpt><trkpt lat="40.0431367" lon="15.2906933"><ele>33.75</ele><time>2026-03-28T12:32:31.036Z</time></trkpt><trkpt lat="40.0429967" lon="15.2906683"><ele>33.5</ele><time>2026-03-28T12:32:32.037Z</time></trkpt><trkpt lat="40.0428767" lon="15.2906117"><ele>33.25</ele><time>2026-03-28T12:32:33.036Z</time></trkpt><trkpt lat="40.04277" lon="15.2905267"><ele>33.0</ele><time>2026-03-28T12:32:34.037Z</time></trkpt><trkpt lat="40.042665" lon="15.290415"><ele>35.75</ele><time>2026-03-28T12:32:35.037Z</time></trkpt><trkpt lat="40.0425617" lon="15.2902967"><ele>38.5</ele><time>2026-03-28T12:32:36.037Z</time></trkpt><trkpt lat="40.0424733" lon="15.2901683"><ele>41.25</ele><time>2026-03-28T12:32:37.036Z</time></trkpt><trkpt lat="40.0424183" lon="15.290055"><ele>44.0</ele><time>2026-03-28T12:32:38.037Z</time></trkpt><trkpt lat="40.04239" lon="15.2899433"><ele>43.2</ele><time>2026-03-28T12:32:39.037Z</time></trkpt><trkpt lat="40.0423933" lon="15.2898433"><ele>42.400000000000006</ele><time>2026-03-28T12:32:40.036Z</time></trkpt><trkpt lat="40.042415" lon="15.2897417"><ele>41.6</ele><time>2026-03-28T12:32:41.036Z</time></trkpt><trkpt lat="40.04246" lon="15.289655"><ele>40.8</ele><time>2026-03-28T12:32:42.037Z</time></trkpt><trkpt lat="40.04255" lon="15.2895767"><ele>40.0</ele><time>2026-03-28T12:32:43.037Z</time></trkpt><trkpt lat="40.0426733" lon="15.2894933"><ele>39.66666666666667</ele><time>2026-03-28T12:32:44.036Z</time></trkpt><trkpt lat="40.0428133" lon="15.2893883"><ele>39.333333333333336</ele><time>2026-03-28T12:32:45.037Z</time></trkpt><trkpt lat="40.0429717" lon="15.28926"><ele>39.0</ele><time>2026-03-28T12:32:46.036Z</time></trkpt><trkpt lat="40.0431283" lon="15.289125"><ele>39.0</ele><time>2026-03-28T12:32:47.037Z</time></trkpt><trkpt lat="40.0432867" lon="15.2889867"><ele>39.0</ele><time>2026-03-28T12:32:48.036Z</time></trkpt><trkpt lat="40.0434433" lon="15.2888433"><ele>39.0</ele><time>2026-03-28T12:32:49.037Z</time></trkpt><trkpt lat="40.0436033" lon="15.2887033"><ele>37.333333333333336</ele><time>2026-03-28T12:32:50.036Z</time></trkpt><trkpt lat="40.0437633" lon="15.2885683"><ele>35.66666666666667</ele><time>2026-03-28T12:32:51.036Z</time></trkpt><trkpt lat="40.0439183" lon="15.2884467"><ele>34.0</ele><time>2026-03-28T12:32:52.036Z</time></trkpt><trkpt lat="40.0440633" lon="15.288325"><ele>33.0</ele><time>2026-03-28T12:32:53.036Z</time></trkpt><trkpt lat="40.0442033" lon="15.288215"><ele>32.0</ele><time>2026-03-28T12:32:54.036Z</time></trkpt><trkpt lat="40.0443383" lon="15.288105"><ele>31.0</ele><time>2026-03-28T12:32:55.037Z</time></trkpt><trkpt lat="40.0444633" lon="15.288"><ele>31.0</ele><time>2026-03-28T12:32:56.037Z</time></trkpt><trkpt lat="40.0445867" lon="15.2879"><ele>31.0</ele><time>2026-03-28T12:32:57.036Z</time></trkpt><trkpt lat="40.044705" lon="15.2878033"><ele>31.0</ele><time>2026-03-28T12:32:58.037Z</time></trkpt><trkpt lat="40.0448133" lon="15.2877167"><ele>31.0</ele><time>2026-03-28T12:32:59.036Z</time></trkpt><trkpt lat="40.0449067" lon="15.287645"><ele>31.6</ele><time>2026-03-28T12:33:00.036Z</time></trkpt><trkpt lat="40.044995" lon="15.2875783"><ele>32.2</ele><time>2026-03-28T12:33:01.036Z</time></trkpt><trkpt lat="40.0451367" lon="15.287455"><ele>32.8</ele><time>2026-03-28T12:33:03.037Z</time></trkpt><trkpt lat="40.0452" lon="15.2873883"><ele>33.4</ele><time>2026-03-28T12:33:04.036Z</time></trkpt><trkpt lat="40.0452617" lon="15.2873333"><ele>34.0</ele><time>2026-03-28T12:33:05.036Z</time></trkpt><trkpt lat="40.04533" lon="15.2872617"><ele>32.5</ele><time>2026-03-28T12:33:06.036Z</time></trkpt><trkpt lat="40.0454033" lon="15.2871567"><ele>31.0</ele><time>2026-03-28T12:33:07.036Z</time></trkpt><trkpt lat="40.0454967" lon="15.2870167"><ele>29.5</ele><time>2026-03-28T12:33:08.036Z</time></trkpt><trkpt lat="40.0455967" lon="15.2868867"><ele>28.0</ele><time>2026-03-28T12:33:09.037Z</time></trkpt><trkpt lat="40.0456917" lon="15.2867733"><ele>28.0</ele><time>2026-03-28T12:33:10.036Z</time></trkpt><trkpt lat="40.0457767" lon="15.2866667"><ele>27.999999999999996</ele><time>2026-03-28T12:33:11.036Z</time></trkpt><trkpt lat="40.0458583" lon="15.286565"><ele>27.999999999999996</ele><time>2026-03-28T12:33:12.036Z</time></trkpt><trkpt lat="40.0459367" lon="15.2864667"><ele>28.0</ele><time>2026-03-28T12:33:13.037Z</time></trkpt><trkpt lat="40.0460083" lon="15.28638"><ele>28.0</ele><time>2026-03-28T12:33:14.037Z</time></trkpt><trkpt lat="40.0460817" lon="15.2862983"><ele>27.166666666666668</ele><time>2026-03-28T12:33:15.036Z</time></trkpt><trkpt lat="40.0461333" lon="15.2862067"><ele>26.333333333333336</ele><time>2026-03-28T12:33:16.036Z</time></trkpt><trkpt lat="40.04617" lon="15.2861033"><ele>25.5</ele><time>2026-03-28T12:33:17.036Z</time></trkpt><trkpt lat="40.0462033" lon="15.286"><ele>24.666666666666668</ele><time>2026-03-28T12:33:18.037Z</time></trkpt><trkpt lat="40.0462383" lon="15.2858967"><ele>23.833333333333336</ele><time>2026-03-28T12:33:19.037Z</time></trkpt><trkpt lat="40.046285" lon="15.2857983"><ele>23.0</ele><time>2026-03-28T12:33:20.036Z</time></trkpt><trkpt lat="40.0463383" lon="15.2856983"><ele>23.0</ele><time>2026-03-28T12:33:21.037Z</time></trkpt><trkpt lat="40.0463883" lon="15.2856033"><ele>23.0</ele><time>2026-03-28T12:33:22.037Z</time></trkpt><trkpt lat="40.0464217" lon="15.285495"><ele>23.0</ele><time>2026-03-28T12:33:23.037Z</time></trkpt><trkpt lat="40.0464617" lon="15.28539"><ele>23.0</ele><time>2026-03-28T12:33:24.036Z</time></trkpt><trkpt lat="40.0464933" lon="15.2852867"><ele>23.0</ele><time>2026-03-28T12:33:25.037Z</time></trkpt><trkpt lat="40.0465267" lon="15.28519"><ele>23.0</ele><time>2026-03-28T12:33:26.037Z</time></trkpt><trkpt lat="40.0465583" lon="15.2851"><ele>21.5</ele><time>2026-03-28T12:33:27.036Z</time></trkpt><trkpt lat="40.0465983" lon="15.2850117"><ele>20.0</ele><time>2026-03-28T12:33:28.036Z</time></trkpt><trkpt lat="40.0466483" lon="15.284925"><ele>18.5</ele><time>2026-03-28T12:33:29.037Z</time></trkpt><trkpt lat="40.0467067" lon="15.284845"><ele>17.0</ele><time>2026-03-28T12:33:30.036Z</time></trkpt><trkpt lat="40.0467767" lon="15.28477"><ele>15.500000000000002</ele><time>2026-03-28T12:33:31.036Z</time></trkpt><trkpt lat="40.046845" lon="15.2846867"><ele>14.0</ele><time>2026-03-28T12:33:32.036Z</time></trkpt><trkpt lat="40.0469033" lon="15.2846117"><ele>12.500000000000002</ele><time>2026-03-28T12:33:33.037Z</time></trkpt><trkpt lat="40.0469467" lon="15.28455"><ele>11.0</ele><time>2026-03-28T12:33:34.036Z</time></trkpt><trkpt lat="40.0470017" lon="15.284455"><ele>9.5</ele><time>2026-03-28T12:33:46.037Z</time></trkpt><trkpt lat="40.04697" lon="15.2843683"><ele>8.0</ele><time>2026-03-28T12:33:50.036Z</time></trkpt><trkpt lat="40.046895" lon="15.2843433"><ele>6.5</ele><time>2026-03-28T12:33:53.036Z</time></trkpt><trkpt lat="40.04679" lon="15.2843433"><ele>5.0</ele><time>2026-03-28T12:33:55.036Z</time></trkpt><trkpt lat="40.0467267" lon="15.2843417"><ele>5.0</ele><time>2026-03-28T12:33:56.037Z</time></trkpt><trkpt lat="40.04664" lon="15.2843333"><ele>5.0</ele><time>2026-03-28T12:33:58.037Z</time></trkpt><trkpt lat="40.046545" lon="15.2843367"><ele>5.0</ele><time>2026-03-28T12:34:10.036Z</time></trkpt><trkpt lat="40.0464267" lon="15.28435"><ele>5.0</ele><time>2026-03-28T12:34:12.037Z</time></trkpt><trkpt lat="40.0463467" lon="15.28437"><ele>5.0</ele><time>2026-03-28T12:34:13.037Z</time></trkpt><trkpt lat="40.0462567" lon="15.284395"><ele>4.6</ele><time>2026-03-28T12:34:14.037Z</time></trkpt><trkpt lat="40.0461667" lon="15.28442"><ele>4.2</ele><time>2026-03-28T12:34:15.036Z</time></trkpt><trkpt lat="40.046085" lon="15.2844417"><ele>3.8</ele><time>2026-03-28T12:34:16.036Z</time></trkpt><trkpt lat="40.0460183" lon="15.2844633"><ele>3.4</ele><time>2026-03-28T12:34:17.036Z</time></trkpt><trkpt lat="40.0459133" lon="15.2845"><ele>3.0</ele><time>2026-03-28T12:34:19.036Z</time></trkpt><trkpt lat="40.0457983" lon="15.2845283"><ele>2.714285714285714</ele><time>2026-03-28T12:34:21.036Z</time></trkpt><trkpt lat="40.04573" lon="15.2845417"><ele>2.4285714285714284</ele><time>2026-03-28T12:34:22.036Z</time></trkpt><trkpt lat="40.0456583" lon="15.2845633"><ele>2.142857142857143</ele><time>2026-03-28T12:34:23.037Z</time></trkpt><trkpt lat="40.045585" lon="15.28459"><ele>1.857142857142857</ele><time>2026-03-28T12:34:24.037Z</time></trkpt><trkpt lat="40.045515" lon="15.2846167"><ele>1.5714285714285712</ele><time>2026-03-28T12:34:25.036Z</time></trkpt><trkpt lat="40.0454433" lon="15.284645"><ele>1.2857142857142856</ele><time>2026-03-28T12:34:26.037Z</time></trkpt><trkpt lat="40.0453667" lon="15.28467"><ele>1.0</ele><time>2026-03-28T12:34:27.037Z</time></trkpt><trkpt lat="40.0453017" lon="15.28469"><ele>0.9999999999999999</ele><time>2026-03-28T12:34:28.036Z</time></trkpt><trkpt lat="40.0452383" lon="15.2847033"><ele>1.0</ele><time>2026-03-28T12:34:30.036Z</time></trkpt><trkpt lat="40.0451433" lon="15.284715"><ele>1.0</ele><time>2026-03-28T12:34:34.036Z</time></trkpt><trkpt lat="40.045045" lon="15.2847333"><ele>1.0</ele><time>2026-03-28T12:34:36.037Z</time></trkpt><trkpt lat="40.0449517" lon="15.2847483"><ele>0.9999999999999999</ele><time>2026-03-28T12:34:38.036Z</time></trkpt><trkpt lat="40.0448567" lon="15.28477"><ele>1.0</ele><time>2026-03-28T12:34:40.036Z</time></trkpt><trkpt lat="40.0447783" lon="15.2847883"><ele>2.0</ele><time>2026-03-28T12:34:42.036Z</time></trkpt><trkpt lat="40.044655" lon="15.2847667"><ele>3.0</ele><time>2026-03-28T13:10:42.039Z</time></trkpt><trkpt lat="40.0445717" lon="15.2847933"><ele>3.9999999999999996</ele><time>2026-03-28T13:10:44.04Z</time></trkpt><trkpt lat="40.044505" lon="15.2848133"><ele>5.0</ele><time>2026-03-28T13:10:45.04Z</time></trkpt><trkpt lat="40.04442" lon="15.2848383"><ele>6.0</ele><time>2026-03-28T13:10:46.039Z</time></trkpt><trkpt lat="40.0443133" lon="15.2848633"><ele>6.0</ele><time>2026-03-28T13:10:47.04Z</time></trkpt><trkpt lat="40.044205" lon="15.2848883"><ele>6.0</ele><time>2026-03-28T13:10:48.039Z</time></trkpt><trkpt lat="40.0441033" lon="15.28491"><ele>6.0</ele><time>2026-03-28T13:10:49.039Z</time></trkpt><trkpt lat="40.0440167" lon="15.2849283"><ele>6.0</ele><time>2026-03-28T13:10:50.039Z</time></trkpt><trkpt lat="40.04394" lon="15.28494"><ele>6.0</ele><time>2026-03-28T13:10:51.039Z</time></trkpt><trkpt lat="40.0438767" lon="15.2849567"><ele>6.0</ele><time>2026-03-28T13:10:52.04Z</time></trkpt><trkpt lat="40.0437817" lon="15.2849967"><ele>5.833333333333333</ele><time>2026-03-28T13:10:54.04Z</time></trkpt><trkpt lat="40.0437033" lon="15.2850667"><ele>5.666666666666667</ele><time>2026-03-28T13:10:56.039Z</time></trkpt><trkpt lat="40.0436483" lon="15.2851567"><ele>5.5</ele><time>2026-03-28T13:11:04.039Z</time></trkpt><trkpt lat="40.0435833" lon="15.285205"><ele>5.333333333333334</ele><time>2026-03-28T13:11:07.039Z</time></trkpt><trkpt lat="40.0435233" lon="15.2852533"><ele>5.166666666666667</ele><time>2026-03-28T13:11:09.04Z</time></trkpt><trkpt lat="40.0434383" lon="15.28529"><ele>5.0</ele><time>2026-03-28T13:11:11.04Z</time></trkpt><trkpt lat="40.04335" lon="15.2853033"><ele>4.333333333333334</ele><time>2026-03-28T13:11:13.039Z</time></trkpt><trkpt lat="40.0432667" lon="15.28531"><ele>3.666666666666667</ele><time>2026-03-28T13:11:15.039Z</time></trkpt><trkpt lat="40.0431833" lon="15.2853233"><ele>3.0</ele><time>2026-03-28T13:11:17.04Z</time></trkpt><trkpt lat="40.0431033" lon="15.2853333"><ele>2.3333333333333335</ele><time>2026-03-28T13:11:19.039Z</time></trkpt><trkpt lat="40.0430333" lon="15.2853217"><ele>1.6666666666666665</ele><time>2026-03-28T13:11:21.039Z</time></trkpt><trkpt lat="40.0429467" lon="15.2853083"><ele>1.0</ele><time>2026-03-28T13:11:54.039Z</time></trkpt><trkpt lat="40.042875" lon="15.2853233"><ele>0.9999999999999999</ele><time>2026-03-28T13:11:56.04Z</time></trkpt><trkpt lat="40.0427883" lon="15.2853383"><ele>1.0</ele><time>2026-03-28T13:11:58.04Z</time></trkpt><trkpt lat="40.0427183" lon="15.2853317"><ele>1.0</ele><time>2026-03-28T13:12:00.039Z</time></trkpt><trkpt lat="40.04279" lon="15.2853583"><ele>1.0</ele><time>2026-03-28T13:12:14.04Z</time></trkpt><trkpt lat="40.0428667" lon="15.2853283"><ele>0.9999999999999999</ele><time>2026-03-28T13:12:16.039Z</time></trkpt><trkpt lat="40.0429367" lon="15.2853133"><ele>1.0</ele><time>2026-03-28T13:12:18.04Z</time></trkpt><trkpt lat="40.043005" lon="15.2853017"><ele>1.0</ele><time>2026-03-28T13:12:20.04Z</time></trkpt><trkpt lat="40.0430867" lon="15.2852867"><ele>1.0</ele><time>2026-03-28T13:12:22.039Z</time></trkpt><trkpt lat="40.0431883" lon="15.285285"><ele>1.0</ele><time>2026-03-28T13:12:24.039Z</time></trkpt><trkpt lat="40.0432883" lon="15.2852967"><ele>1.0</ele><time>2026-03-28T13:12:26.04Z</time></trkpt><trkpt lat="40.043395" lon="15.2853033"><ele>1.0</ele><time>2026-03-28T13:12:28.04Z</time></trkpt><trkpt lat="40.0434883" lon="15.2852683"><ele>1.6666666666666665</ele><time>2026-03-28T13:12:30.04Z</time></trkpt><trkpt lat="40.0435633" lon="15.2852217"><ele>2.3333333333333335</ele><time>2026-03-28T13:12:32.039Z</time></trkpt><trkpt lat="40.0436333" lon="15.2851667"><ele>3.0</ele><time>2026-03-28T13:12:35.039Z</time></trkpt><trkpt lat="40.0436967" lon="15.2850767"><ele>3.666666666666667</ele><time>2026-03-28T13:12:38.039Z</time></trkpt><trkpt lat="40.0437783" lon="15.2849917"><ele>4.333333333333334</ele><time>2026-03-28T13:12:40.039Z</time></trkpt><trkpt lat="40.0438433" lon="15.2849567"><ele>5.0</ele><time>2026-03-28T13:12:42.039Z</time></trkpt><trkpt lat="40.0439517" lon="15.284945"><ele>5.0</ele><time>2026-03-28T13:13:03.039Z</time></trkpt><trkpt lat="40.0440467" lon="15.2849233"><ele>5.0</ele><time>2026-03-28T13:13:05.039Z</time></trkpt><trkpt lat="40.0441467" lon="15.284905"><ele>5.0</ele><time>2026-03-28T13:13:07.04Z</time></trkpt><trkpt lat="40.044245" lon="15.2848867"><ele>5.0</ele><time>2026-03-28T13:13:09.04Z</time></trkpt><trkpt lat="40.0443667" lon="15.2848583"><ele>5.0</ele><time>2026-03-28T13:13:11.04Z</time></trkpt><trkpt lat="40.0444333" lon="15.2848467"><ele>5.166666666666667</ele><time>2026-03-28T13:13:12.039Z</time></trkpt><trkpt lat="40.044505" lon="15.2848317"><ele>5.333333333333334</ele><time>2026-03-28T13:13:13.04Z</time></trkpt><trkpt lat="40.04457" lon="15.284815"><ele>5.5</ele><time>2026-03-28T13:13:14.04Z</time></trkpt><trkpt lat="40.0446333" lon="15.2847983"><ele>5.666666666666667</ele><time>2026-03-28T13:13:15.039Z</time></trkpt><trkpt lat="40.0446967" lon="15.2847867"><ele>5.833333333333333</ele><time>2026-03-28T13:13:16.04Z</time></trkpt><trkpt lat="40.0448017" lon="15.2847617"><ele>6.0</ele><time>2026-03-28T13:13:18.039Z</time></trkpt><trkpt lat="40.0449" lon="15.2847467"><ele>5.0</ele><time>2026-03-28T13:13:20.04Z</time></trkpt><trkpt lat="40.0449933" lon="15.2847267"><ele>3.9999999999999996</ele><time>2026-03-28T13:13:22.04Z</time></trkpt><trkpt lat="40.0450917" lon="15.2847033"><ele>3.0</ele><time>2026-03-28T13:13:24.039Z</time></trkpt><trkpt lat="40.0452" lon="15.2846783"><ele>2.0</ele><time>2026-03-28T13:13:26.039Z</time></trkpt><trkpt lat="40.0453133" lon="15.28466"><ele>1.0</ele><time>2026-03-28T13:13:28.04Z</time></trkpt><trkpt lat="40.0453767" lon="15.2846483"><ele>0.9999999999999999</ele><time>2026-03-28T13:13:29.039Z</time></trkpt><trkpt lat="40.045445" lon="15.2846383"><ele>1.0</ele><time>2026-03-28T13:13:30.04Z</time></trkpt><trkpt lat="40.0455217" lon="15.2846233"><ele>1.0</ele><time>2026-03-28T13:13:31.04Z</time></trkpt><trkpt lat="40.045595" lon="15.2845917"><ele>1.0</ele><time>2026-03-28T13:13:32.039Z</time></trkpt><trkpt lat="40.045655" lon="15.2845633"><ele>0.9999999999999999</ele><time>2026-03-28T13:13:33.04Z</time></trkpt><trkpt lat="40.0457617" lon="15.2845333"><ele>1.0</ele><time>2026-03-28T13:13:35.04Z</time></trkpt><trkpt lat="40.0458317" lon="15.2845167"><ele>1.3333333333333333</ele><time>2026-03-28T13:13:36.04Z</time></trkpt><trkpt lat="40.045915" lon="15.2844967"><ele>1.6666666666666665</ele><time>2026-03-28T13:13:37.04Z</time></trkpt><trkpt lat="40.0460033" lon="15.2844683"><ele>2.0</ele><time>2026-03-28T13:13:38.04Z</time></trkpt><trkpt lat="40.0460867" lon="15.2844417"><ele>2.3333333333333335</ele><time>2026-03-28T13:13:39.04Z</time></trkpt><trkpt lat="40.0461667" lon="15.2844267"><ele>2.6666666666666665</ele><time>2026-03-28T13:13:40.039Z</time></trkpt><trkpt lat="40.046245" lon="15.2844067"><ele>3.0</ele><time>2026-03-28T13:13:41.04Z</time></trkpt><trkpt lat="40.04632" lon="15.28439"><ele>3.0</ele><time>2026-03-28T13:13:42.04Z</time></trkpt><trkpt lat="40.046385" lon="15.2843717"><ele>3.0</ele><time>2026-03-28T13:13:43.04Z</time></trkpt><trkpt lat="40.0464983" lon="15.2843517"><ele>3.0</ele><time>2026-03-28T13:13:45.039Z</time></trkpt><trkpt lat="40.046605" lon="15.2843567"><ele>3.0</ele><time>2026-03-28T13:13:47.04Z</time></trkpt><trkpt lat="40.04672" lon="15.2843667"><ele>3.0</ele><time>2026-03-28T13:13:49.04Z</time></trkpt><trkpt lat="40.0468217" lon="15.2843683"><ele>3.3333333333333335</ele><time>2026-03-28T13:13:51.039Z</time></trkpt><trkpt lat="40.0469083" lon="15.2843717"><ele>3.666666666666667</ele><time>2026-03-28T13:13:53.04Z</time></trkpt><trkpt lat="40.0469867" lon="15.2843817"><ele>4.0</ele><time>2026-03-28T13:13:56.039Z</time></trkpt><trkpt lat="40.04698" lon="15.284475"><ele>4.333333333333334</ele><time>2026-03-28T13:14:01.039Z</time></trkpt><trkpt lat="40.0469383" lon="15.2845383"><ele>4.666666666666667</ele><time>2026-03-28T13:14:03.039Z</time></trkpt><trkpt lat="40.0468933" lon="15.2846133"><ele>5.0</ele><time>2026-03-28T13:14:27.04Z</time></trkpt><trkpt lat="40.0467967" lon="15.28473"><ele>6.2</ele><time>2026-03-28T13:14:29.039Z</time></trkpt><trkpt lat="40.04674" lon="15.2848017"><ele>7.4</ele><time>2026-03-28T13:14:30.039Z</time></trkpt><trkpt lat="40.04664" lon="15.2848817"><ele>8.600000000000001</ele><time>2026-03-28T13:14:32.04Z</time></trkpt><trkpt lat="40.04657" lon="15.2849933"><ele>9.8</ele><time>2026-03-28T13:14:34.04Z</time></trkpt><trkpt lat="40.0465433" lon="15.2850783"><ele>11.0</ele><time>2026-03-28T13:14:35.04Z</time></trkpt><trkpt lat="40.046515" lon="15.2851783"><ele>11.428571428571429</ele><time>2026-03-28T13:14:36.039Z</time></trkpt><trkpt lat="40.04648" lon="15.2852817"><ele>11.857142857142858</ele><time>2026-03-28T13:14:37.04Z</time></trkpt><trkpt lat="40.046455" lon="15.285365"><ele>12.285714285714285</ele><time>2026-03-28T13:14:38.039Z</time></trkpt><trkpt lat="40.0464317" lon="15.2854417"><ele>12.714285714285715</ele><time>2026-03-28T13:14:39.039Z</time></trkpt><trkpt lat="40.0463983" lon="15.2855217"><ele>13.142857142857142</ele><time>2026-03-28T13:14:40.039Z</time></trkpt><trkpt lat="40.0463633" lon="15.2856017"><ele>13.571428571428571</ele><time>2026-03-28T13:14:41.04Z</time></trkpt><trkpt lat="40.0463183" lon="15.285695"><ele>14.0</ele><time>2026-03-28T13:14:42.04Z</time></trkpt><trkpt lat="40.0462583" lon="15.285795"><ele>15.799999999999999</ele><time>2026-03-28T13:14:43.039Z</time></trkpt><trkpt lat="40.046205" lon="15.2859167"><ele>17.599999999999998</ele><time>2026-03-28T13:14:44.039Z</time></trkpt><trkpt lat="40.0461567" lon="15.286045"><ele>19.4</ele><time>2026-03-28T13:14:45.04Z</time></trkpt><trkpt lat="40.0461233" lon="15.2861583"><ele>21.2</ele><time>2026-03-28T13:14:46.04Z</time></trkpt><trkpt lat="40.046075" lon="15.2862517"><ele>23.0</ele><time>2026-03-28T13:14:47.04Z</time></trkpt><trkpt lat="40.0460033" lon="15.28635"><ele>24.0</ele><time>2026-03-28T13:14:48.039Z</time></trkpt><trkpt lat="40.0459133" lon="15.28647"><ele>25.0</ele><time>2026-03-28T13:14:49.04Z</time></trkpt><trkpt lat="40.0458067" lon="15.2865983"><ele>26.0</ele><time>2026-03-28T13:14:50.039Z</time></trkpt><trkpt lat="40.04572" lon="15.2867167"><ele>27.0</ele><time>2026-03-28T13:14:51.039Z</time></trkpt><trkpt lat="40.0456267" lon="15.2868133"><ele>27.25</ele><time>2026-03-28T13:14:52.04Z</time></trkpt><trkpt lat="40.045535" lon="15.2869283"><ele>27.5</ele><time>2026-03-28T13:14:53.039Z</time></trkpt><trkpt lat="40.045445" lon="15.287045"><ele>27.75</ele><time>2026-03-28T13:14:54.039Z</time></trkpt><trkpt lat="40.045375" lon="15.28715"><ele>28.0</ele><time>2026-03-28T13:14:55.04Z</time></trkpt><trkpt lat="40.045325" lon="15.2872467"><ele>29.000000000000004</ele><time>2026-03-28T13:14:56.04Z</time></trkpt><trkpt lat="40.0452683" lon="15.2873083"><ele>30.0</ele><time>2026-03-28T13:14:57.039Z</time></trkpt><trkpt lat="40.045175" lon="15.2873683"><ele>31.0</ele><time>2026-03-28T13:14:59.039Z</time></trkpt><trkpt lat="40.0451467" lon="15.2874617"><ele>32.0</ele><time>2026-03-28T13:15:02.039Z</time></trkpt><trkpt lat="40.0452083" lon="15.2874983"><ele>33.0</ele><time>2026-03-28T13:15:04.039Z</time></trkpt><trkpt lat="40.045275" lon="15.2874783"><ele>34.0</ele><time>2026-03-28T13:15:05.04Z</time></trkpt><trkpt lat="40.0453533" lon="15.2874283"><ele>34.0</ele><time>2026-03-28T13:15:06.039Z</time></trkpt><trkpt lat="40.0454633" lon="15.28738"><ele>34.0</ele><time>2026-03-28T13:15:07.039Z</time></trkpt><trkpt lat="40.0456183" lon="15.2873233"><ele>34.0</ele><time>2026-03-28T13:15:08.039Z</time></trkpt><trkpt lat="40.0458" lon="15.28724"><ele>30.5</ele><time>2026-03-28T13:15:09.04Z</time></trkpt><trkpt lat="40.04601" lon="15.287135"><ele>27.0</ele><time>2026-03-28T13:15:10.039Z</time></trkpt><trkpt lat="40.0462183" lon="15.2870167"><ele>27.0</ele><time>2026-03-28T13:15:11.04Z</time></trkpt><trkpt lat="40.0464233" lon="15.2868867"><ele>27.0</ele><time>2026-03-28T13:15:12.039Z</time></trkpt><trkpt lat="40.046615" lon="15.2867683"><ele>27.0</ele><time>2026-03-28T13:15:13.039Z</time></trkpt><trkpt lat="40.0467983" lon="15.2866483"><ele>27.333333333333336</ele><time>2026-03-28T13:15:14.039Z</time></trkpt><trkpt lat="40.046975" lon="15.286535"><ele>27.666666666666668</ele><time>2026-03-28T13:15:15.04Z</time></trkpt><trkpt lat="40.047145" lon="15.2864233"><ele>28.0</ele><time>2026-03-28T13:15:16.04Z</time></trkpt><trkpt lat="40.0473083" lon="15.2863117"><ele>26.666666666666668</ele><time>2026-03-28T13:15:17.039Z</time></trkpt><trkpt lat="40.04747" lon="15.2862017"><ele>25.333333333333336</ele><time>2026-03-28T13:15:18.04Z</time></trkpt><trkpt lat="40.0476233" lon="15.2860883"><ele>24.0</ele><time>2026-03-28T13:15:19.039Z</time></trkpt><trkpt lat="40.04778" lon="15.2859767"><ele>24.0</ele><time>2026-03-28T13:15:20.04Z</time></trkpt><trkpt lat="40.047935" lon="15.2858617"><ele>24.0</ele><time>2026-03-28T13:15:21.04Z</time></trkpt><trkpt lat="40.0481" lon="15.2857717"><ele>24.0</ele><time>2026-03-28T13:15:22.039Z</time></trkpt><trkpt lat="40.0482717" lon="15.2856767"><ele>25.333333333333336</ele><time>2026-03-28T13:15:23.04Z</time></trkpt><trkpt lat="40.04844" lon="15.2855967"><ele>26.666666666666668</ele><time>2026-03-28T13:15:24.039Z</time></trkpt><trkpt lat="40.0486083" lon="15.28551"><ele>28.0</ele><time>2026-03-28T13:15:25.04Z</time></trkpt><trkpt lat="40.0487867" lon="15.28542"><ele>24.666666666666668</ele><time>2026-03-28T13:15:26.04Z</time></trkpt><trkpt lat="40.0489667" lon="15.28533"><ele>21.333333333333336</ele><time>2026-03-28T13:15:27.04Z</time></trkpt><trkpt lat="40.0491483" lon="15.2852333"><ele>18.0</ele><time>2026-03-28T13:15:28.039Z</time></trkpt><trkpt lat="40.0493417" lon="15.2851317"><ele>18.0</ele><time>2026-03-28T13:15:29.039Z</time></trkpt><trkpt lat="40.0495383" lon="15.2850217"><ele>18.0</ele><time>2026-03-28T13:15:30.04Z</time></trkpt><trkpt lat="40.0497383" lon="15.28491"><ele>18.0</ele><time>2026-03-28T13:15:31.039Z</time></trkpt><trkpt lat="40.04994" lon="15.2847917"><ele>16.666666666666668</ele><time>2026-03-28T13:15:32.039Z</time></trkpt><trkpt lat="40.0501433" lon="15.2846783"><ele>15.333333333333334</ele><time>2026-03-28T13:15:33.039Z</time></trkpt><trkpt lat="40.05034" lon="15.284555"><ele>14.0</ele><time>2026-03-28T13:15:34.039Z</time></trkpt><trkpt lat="40.0505433" lon="15.2844417"><ele>14.0</ele><time>2026-03-28T13:15:35.04Z</time></trkpt><trkpt lat="40.0507467" lon="15.2843283"><ele>14.0</ele><time>2026-03-28T13:15:36.039Z</time></trkpt><trkpt lat="40.0509433" lon="15.2842217"><ele>14.0</ele><time>2026-03-28T13:15:37.039Z</time></trkpt><trkpt lat="40.0511317" lon="15.2841233"><ele>14.0</ele><time>2026-03-28T13:15:38.04Z</time></trkpt><trkpt lat="40.0513133" lon="15.2840233"><ele>14.0</ele><time>2026-03-28T13:15:39.039Z</time></trkpt><trkpt lat="40.0514917" lon="15.2839383"><ele>14.0</ele><time>2026-03-28T13:15:40.039Z</time></trkpt><trkpt lat="40.0516683" lon="15.2838567"><ele>12.0</ele><time>2026-03-28T13:15:41.039Z</time></trkpt><trkpt lat="40.05184" lon="15.2837767"><ele>10.0</ele><time>2026-03-28T13:15:42.04Z</time></trkpt><trkpt lat="40.052005" lon="15.2836967"><ele>8.0</ele><time>2026-03-28T13:15:43.039Z</time></trkpt><trkpt lat="40.05217" lon="15.283615"><ele>8.0</ele><time>2026-03-28T13:15:44.04Z</time></trkpt><trkpt lat="40.05233" lon="15.283545"><ele>8.0</ele><time>2026-03-28T13:15:45.04Z</time></trkpt><trkpt lat="40.0524917" lon="15.2834933"><ele>8.0</ele><time>2026-03-28T13:15:46.039Z</time></trkpt><trkpt lat="40.0526683" lon="15.28345"><ele>8.666666666666666</ele><time>2026-03-28T13:15:47.04Z</time></trkpt><trkpt lat="40.052855" lon="15.283425"><ele>9.333333333333334</ele><time>2026-03-28T13:15:48.039Z</time></trkpt><trkpt lat="40.05305" lon="15.2834017"><ele>10.0</ele><time>2026-03-28T13:15:49.039Z</time></trkpt><trkpt lat="40.05325" lon="15.2833833"><ele>9.666666666666668</ele><time>2026-03-28T13:15:50.04Z</time></trkpt><trkpt lat="40.053455" lon="15.2833567"><ele>9.333333333333334</ele><time>2026-03-28T13:15:51.039Z</time></trkpt><trkpt lat="40.05367" lon="15.2833267"><ele>9.0</ele><time>2026-03-28T13:15:52.04Z</time></trkpt><trkpt lat="40.0538867" lon="15.2832983"><ele>9.0</ele><time>2026-03-28T13:15:53.039Z</time></trkpt><trkpt lat="40.054105" lon="15.2832767"><ele>9.0</ele><time>2026-03-28T13:15:54.039Z</time></trkpt><trkpt lat="40.054325" lon="15.2832533"><ele>9.0</ele><time>2026-03-28T13:15:55.039Z</time></trkpt><trkpt lat="40.0545467" lon="15.2832233"><ele>9.5</ele><time>2026-03-28T13:15:56.04Z</time></trkpt><trkpt lat="40.0547683" lon="15.283185"><ele>10.0</ele><time>2026-03-28T13:15:57.039Z</time></trkpt><trkpt lat="40.0549933" lon="15.2831467"><ele>13.0</ele><time>2026-03-28T13:15:58.04Z</time></trkpt><trkpt lat="40.05522" lon="15.2830983"><ele>16.0</ele><time>2026-03-28T13:15:59.039Z</time></trkpt><trkpt lat="40.0554483" lon="15.2830433"><ele>10.0</ele><time>2026-03-28T13:16:00.039Z</time></trkpt><trkpt lat="40.05568" lon="15.2829783"><ele>4.0</ele><time>2026-03-28T13:16:01.039Z</time></trkpt><trkpt lat="40.0559217" lon="15.282915"><ele>4.0</ele><time>2026-03-28T13:16:02.04Z</time></trkpt><trkpt lat="40.056165" lon="15.28285"><ele>4.0</ele><time>2026-03-28T13:16:03.039Z</time></trkpt><trkpt lat="40.0564117" lon="15.2827767"><ele>6.5</ele><time>2026-03-28T13:16:04.04Z</time></trkpt><trkpt lat="40.0566517" lon="15.2827083"><ele>9.0</ele><time>2026-03-28T13:16:05.04Z</time></trkpt><trkpt lat="40.0568983" lon="15.2826367"><ele>9.0</ele><time>2026-03-28T13:16:06.039Z</time></trkpt><trkpt lat="40.0571417" lon="15.2825617"><ele>9.0</ele><time>2026-03-28T13:16:07.039Z</time></trkpt><trkpt lat="40.0573917" lon="15.2824733"><ele>11.5</ele><time>2026-03-28T13:16:08.039Z</time></trkpt><trkpt lat="40.0576533" lon="15.2823783"><ele>14.0</ele><time>2026-03-28T13:16:09.04Z</time></trkpt><trkpt lat="40.0579183" lon="15.282275"><ele>10.5</ele><time>2026-03-28T13:16:10.04Z</time></trkpt><trkpt lat="40.05819" lon="15.2821667"><ele>7.0</ele><time>2026-03-28T13:16:11.04Z</time></trkpt><trkpt lat="40.0584683" lon="15.2820533"><ele>7.0</ele><time>2026-03-28T13:16:12.04Z</time></trkpt><trkpt lat="40.0587433" lon="15.2819567"><ele>7.0</ele><time>2026-03-28T13:16:13.04Z</time></trkpt><trkpt lat="40.0590283" lon="15.2818517"><ele>9.0</ele><time>2026-03-28T13:16:14.039Z</time></trkpt><trkpt lat="40.059315" lon="15.281735"><ele>11.0</ele><time>2026-03-28T13:16:15.04Z</time></trkpt><trkpt lat="40.0595967" lon="15.2816167"><ele>11.0</ele><time>2026-03-28T13:16:16.039Z</time></trkpt><trkpt lat="40.0598817" lon="15.281495"><ele>11.0</ele><time>2026-03-28T13:16:17.039Z</time></trkpt><trkpt lat="40.0601483" lon="15.2813767"><ele>10.0</ele><time>2026-03-28T13:16:18.04Z</time></trkpt><trkpt lat="40.0603967" lon="15.2812733"><ele>9.0</ele><time>2026-03-28T13:16:19.039Z</time></trkpt><trkpt lat="40.06063" lon="15.2811783"><ele>9.5</ele><time>2026-03-28T13:16:20.039Z</time></trkpt><trkpt lat="40.06086" lon="15.2810767"><ele>10.0</ele><time>2026-03-28T13:16:21.039Z</time></trkpt><trkpt lat="40.0610817" lon="15.2809917"><ele>10.0</ele><time>2026-03-28T13:16:22.039Z</time></trkpt><trkpt lat="40.061285" lon="15.2809117"><ele>10.0</ele><time>2026-03-28T13:16:23.039Z</time></trkpt><trkpt lat="40.0614817" lon="15.2808217"><ele>10.0</ele><time>2026-03-28T13:16:24.04Z</time></trkpt><trkpt lat="40.0616683" lon="15.280715"><ele>8.666666666666668</ele><time>2026-03-28T13:16:25.04Z</time></trkpt><trkpt lat="40.0618567" lon="15.2805817"><ele>7.333333333333334</ele><time>2026-03-28T13:16:26.04Z</time></trkpt><trkpt lat="40.0620517" lon="15.2804267"><ele>6.0</ele><time>2026-03-28T13:16:27.04Z</time></trkpt><trkpt lat="40.06225" lon="15.2802583"><ele>8.5</ele><time>2026-03-28T13:16:28.04Z</time></trkpt><trkpt lat="40.0624533" lon="15.2800817"><ele>11.0</ele><time>2026-03-28T13:16:29.04Z</time></trkpt><trkpt lat="40.062655" lon="15.2799167"><ele>8.0</ele><time>2026-03-28T13:16:30.039Z</time></trkpt><trkpt lat="40.0628483" lon="15.2797583"><ele>5.0</ele><time>2026-03-28T13:16:31.039Z</time></trkpt><trkpt lat="40.06303" lon="15.2796033"><ele>2.0</ele><time>2026-03-28T13:16:32.039Z</time></trkpt><trkpt lat="40.0632017" lon="15.2794617"><ele>5.0</ele><time>2026-03-28T13:16:33.04Z</time></trkpt><trkpt lat="40.0633583" lon="15.2793267"><ele>8.0</ele><time>2026-03-28T13:16:34.039Z</time></trkpt><trkpt lat="40.06352" lon="15.2792067"><ele>11.0</ele><time>2026-03-28T13:16:35.039Z</time></trkpt><trkpt lat="40.0636833" lon="15.2791083"><ele>11.0</ele><time>2026-03-28T13:16:36.039Z</time></trkpt><trkpt lat="40.06386" lon="15.27901"><ele>11.0</ele><time>2026-03-28T13:16:37.039Z</time></trkpt><trkpt lat="40.0640467" lon="15.2789267"><ele>11.0</ele><time>2026-03-28T13:16:38.039Z</time></trkpt><trkpt lat="40.0642467" lon="15.2788367"><ele>8.0</ele><time>2026-03-28T13:16:39.039Z</time></trkpt><trkpt lat="40.0644617" lon="15.27875"><ele>5.0</ele><time>2026-03-28T13:16:40.039Z</time></trkpt><trkpt lat="40.0646867" lon="15.27865"><ele>5.0</ele><time>2026-03-28T13:16:41.04Z</time></trkpt><trkpt lat="40.064905" lon="15.2785533"><ele>5.0</ele><time>2026-03-28T13:16:42.039Z</time></trkpt><trkpt lat="40.065105" lon="15.27847"><ele>5.0</ele><time>2026-03-28T13:16:43.039Z</time></trkpt><trkpt lat="40.0652783" lon="15.27839"><ele>6.333333333333334</ele><time>2026-03-28T13:16:44.039Z</time></trkpt><trkpt lat="40.06544" lon="15.2783183"><ele>7.666666666666667</ele><time>2026-03-28T13:16:45.04Z</time></trkpt><trkpt lat="40.06559" lon="15.2782483"><ele>9.0</ele><time>2026-03-28T13:16:46.04Z</time></trkpt><trkpt lat="40.0657367" lon="15.27818"><ele>8.5</ele><time>2026-03-28T13:16:47.04Z</time></trkpt><trkpt lat="40.0658733" lon="15.2781217"><ele>8.0</ele><time>2026-03-28T13:16:48.039Z</time></trkpt><trkpt lat="40.065995" lon="15.2780683"><ele>7.5</ele><time>2026-03-28T13:16:49.04Z</time></trkpt><trkpt lat="40.0661067" lon="15.2780217"><ele>7.0</ele><time>2026-03-28T13:16:50.039Z</time></trkpt><trkpt lat="40.0662033" lon="15.277965"><ele>7.0</ele><time>2026-03-28T13:16:51.04Z</time></trkpt><trkpt lat="40.066305" lon="15.2779117"><ele>6.999999999999999</ele><time>2026-03-28T13:16:52.04Z</time></trkpt><trkpt lat="40.0663933" lon="15.27785"><ele>6.999999999999999</ele><time>2026-03-28T13:16:53.039Z</time></trkpt><trkpt lat="40.0664917" lon="15.2778"><ele>7.0</ele><time>2026-03-28T13:16:54.039Z</time></trkpt><trkpt lat="40.0665933" lon="15.2777467"><ele>7.0</ele><time>2026-03-28T13:16:55.04Z</time></trkpt><trkpt lat="40.0666967" lon="15.277695"><ele>7.25</ele><time>2026-03-28T13:16:56.039Z</time></trkpt><trkpt lat="40.066805" lon="15.2776467"><ele>7.5</ele><time>2026-03-28T13:16:57.04Z</time></trkpt><trkpt lat="40.0669167" lon="15.2775833"><ele>7.75</ele><time>2026-03-28T13:16:58.04Z</time></trkpt><trkpt lat="40.067035" lon="15.2775067"><ele>8.0</ele><time>2026-03-28T13:16:59.039Z</time></trkpt><trkpt lat="40.067145" lon="15.277435"><ele>8.0</ele><time>2026-03-28T13:17:00.039Z</time></trkpt><trkpt lat="40.06725" lon="15.277365"><ele>8.0</ele><time>2026-03-28T13:17:01.04Z</time></trkpt><trkpt lat="40.0673533" lon="15.2773067"><ele>8.0</ele><time>2026-03-28T13:17:02.039Z</time></trkpt><trkpt lat="40.0674483" lon="15.2772467"><ele>8.0</ele><time>2026-03-28T13:17:03.039Z</time></trkpt><trkpt lat="40.0675367" lon="15.27719"><ele>8.0</ele><time>2026-03-28T13:17:04.04Z</time></trkpt><trkpt lat="40.067615" lon="15.27714"><ele>7.4</ele><time>2026-03-28T13:17:05.04Z</time></trkpt><trkpt lat="40.0676883" lon="15.2770967"><ele>6.800000000000001</ele><time>2026-03-28T13:17:06.039Z</time></trkpt><trkpt lat="40.0677617" lon="15.277045"><ele>6.2</ele><time>2026-03-28T13:17:07.039Z</time></trkpt><trkpt lat="40.0678433" lon="15.2769933"><ele>5.6</ele><time>2026-03-28T13:17:08.04Z</time></trkpt><trkpt lat="40.0679333" lon="15.2769317"><ele>5.0</ele><time>2026-03-28T13:17:09.039Z</time></trkpt><trkpt lat="40.06803" lon="15.2768633"><ele>5.0</ele><time>2026-03-28T13:17:10.039Z</time></trkpt><trkpt lat="40.068155" lon="15.2767817"><ele>5.0</ele><time>2026-03-28T13:17:11.039Z</time></trkpt><trkpt lat="40.0682917" lon="15.276685"><ele>5.0</ele><time>2026-03-28T13:17:12.04Z</time></trkpt><trkpt lat="40.06844" lon="15.27659"><ele>5.333333333333334</ele><time>2026-03-28T13:17:13.039Z</time></trkpt><trkpt lat="40.06859" lon="15.2764917"><ele>5.666666666666667</ele><time>2026-03-28T13:17:14.039Z</time></trkpt><trkpt lat="40.0687417" lon="15.2763917"><ele>6.0</ele><time>2026-03-28T13:17:15.039Z</time></trkpt><trkpt lat="40.0688967" lon="15.2762883"><ele>6.0</ele><time>2026-03-28T13:17:16.039Z</time></trkpt><trkpt lat="40.0690517" lon="15.2761967"><ele>6.0</ele><time>2026-03-28T13:17:17.04Z</time></trkpt><trkpt lat="40.0692033" lon="15.276105"><ele>6.0</ele><time>2026-03-28T13:17:18.039Z</time></trkpt><trkpt lat="40.0693617" lon="15.2760167"><ele>6.666666666666666</ele><time>2026-03-28T13:17:19.04Z</time></trkpt><trkpt lat="40.0695117" lon="15.2759233"><ele>7.333333333333333</ele><time>2026-03-28T13:17:20.039Z</time></trkpt><trkpt lat="40.06967" lon="15.2758383"><ele>8.0</ele><time>2026-03-28T13:17:21.04Z</time></trkpt><trkpt lat="40.06983" lon="15.2757567"><ele>7.333333333333333</ele><time>2026-03-28T13:17:22.04Z</time></trkpt><trkpt lat="40.06998" lon="15.275675"><ele>6.666666666666666</ele><time>2026-03-28T13:17:23.039Z</time></trkpt><trkpt lat="40.070125" lon="15.2755933"><ele>6.0</ele><time>2026-03-28T13:17:24.039Z</time></trkpt><trkpt lat="40.0702767" lon="15.2755283"><ele>6.0</ele><time>2026-03-28T13:17:25.039Z</time></trkpt><trkpt lat="40.0704383" lon="15.275475"><ele>6.0</ele><time>2026-03-28T13:17:26.04Z</time></trkpt><trkpt lat="40.0705983" lon="15.275465"><ele>6.0</ele><time>2026-03-28T13:17:27.04Z</time></trkpt><trkpt lat="40.0707667" lon="15.2754667"><ele>7.0</ele><time>2026-03-28T13:17:28.04Z</time></trkpt><trkpt lat="40.0709433" lon="15.275485"><ele>8.0</ele><time>2026-03-28T13:17:29.039Z</time></trkpt><trkpt lat="40.0711217" lon="15.27549"><ele>9.0</ele><time>2026-03-28T13:17:30.039Z</time></trkpt><trkpt lat="40.07129" lon="15.275505"><ele>9.0</ele><time>2026-03-28T13:17:31.039Z</time></trkpt><trkpt lat="40.07145" lon="15.2755"><ele>9.0</ele><time>2026-03-28T13:17:32.039Z</time></trkpt><trkpt lat="40.0716017" lon="15.275485"><ele>9.0</ele><time>2026-03-28T13:17:33.04Z</time></trkpt><trkpt lat="40.0717417" lon="15.2754433"><ele>10.0</ele><time>2026-03-28T13:17:34.04Z</time></trkpt><trkpt lat="40.071855" lon="15.27538"><ele>11.0</ele><time>2026-03-28T13:17:35.04Z</time></trkpt><trkpt lat="40.0719317" lon="15.2753033"><ele>11.999999999999998</ele><time>2026-03-28T13:17:36.039Z</time></trkpt><trkpt lat="40.071985" lon="15.2752"><ele>13.0</ele><time>2026-03-28T13:17:37.039Z</time></trkpt><trkpt lat="40.0720217" lon="15.27506"><ele>14.0</ele><time>2026-03-28T13:17:38.039Z</time></trkpt><trkpt lat="40.0720367" lon="15.2748917"><ele>13.0</ele><time>2026-03-28T13:17:39.039Z</time></trkpt><trkpt lat="40.0720417" lon="15.2746917"><ele>12.0</ele><time>2026-03-28T13:17:40.039Z</time></trkpt><trkpt lat="40.07205" lon="15.2744767"><ele>11.0</ele><time>2026-03-28T13:17:41.039Z</time></trkpt><trkpt lat="40.07207" lon="15.2742817"><ele>11.0</ele><time>2026-03-28T13:17:42.04Z</time></trkpt><trkpt lat="40.0721133" lon="15.2741183"><ele>11.0</ele><time>2026-03-28T13:17:43.04Z</time></trkpt><trkpt lat="40.0721783" lon="15.2739883"><ele>11.0</ele><time>2026-03-28T13:17:44.04Z</time></trkpt><trkpt lat="40.0722683" lon="15.27389"><ele>11.0</ele><time>2026-03-28T13:17:45.039Z</time></trkpt><trkpt lat="40.0723817" lon="15.2737983"><ele>12.0</ele><time>2026-03-28T13:17:46.04Z</time></trkpt><trkpt lat="40.0725017" lon="15.27372"><ele>13.0</ele><time>2026-03-28T13:17:47.039Z</time></trkpt><trkpt lat="40.07261" lon="15.27367"><ele>14.0</ele><time>2026-03-28T13:17:48.039Z</time></trkpt><trkpt lat="40.072725" lon="15.27364"><ele>15.0</ele><time>2026-03-28T13:17:49.04Z</time></trkpt><trkpt lat="40.07283" lon="15.27364"><ele>15.0</ele><time>2026-03-28T13:17:50.04Z</time></trkpt><trkpt lat="40.07294" lon="15.2736567"><ele>15.0</ele><time>2026-03-28T13:17:51.039Z</time></trkpt><trkpt lat="40.0730533" lon="15.2736733"><ele>15.0</ele><time>2026-03-28T13:17:52.039Z</time></trkpt><trkpt lat="40.073175" lon="15.273695"><ele>15.0</ele><time>2026-03-28T13:17:53.04Z</time></trkpt><trkpt lat="40.073295" lon="15.2737217"><ele>15.5</ele><time>2026-03-28T13:17:54.039Z</time></trkpt><trkpt lat="40.0734217" lon="15.27375"><ele>16.0</ele><time>2026-03-28T13:17:55.039Z</time></trkpt><trkpt lat="40.07355" lon="15.2737733"><ele>16.5</ele><time>2026-03-28T13:17:56.039Z</time></trkpt><trkpt lat="40.073675" lon="15.2738"><ele>17.0</ele><time>2026-03-28T13:17:57.039Z</time></trkpt><trkpt lat="40.0738017" lon="15.273815"><ele>17.0</ele><time>2026-03-28T13:17:58.039Z</time></trkpt><trkpt lat="40.0739233" lon="15.2738233"><ele>17.0</ele><time>2026-03-28T13:17:59.04Z</time></trkpt><trkpt lat="40.0740467" lon="15.2737967"><ele>17.0</ele><time>2026-03-28T13:18:00.039Z</time></trkpt><trkpt lat="40.0741683" lon="15.2737483"><ele>17.0</ele><time>2026-03-28T13:18:01.04Z</time></trkpt><trkpt lat="40.0742867" lon="15.2736883"><ele>18.0</ele><time>2026-03-28T13:18:02.04Z</time></trkpt><trkpt lat="40.0743833" lon="15.273595"><ele>19.0</ele><time>2026-03-28T13:18:03.04Z</time></trkpt><trkpt lat="40.07447" lon="15.27347"><ele>20.0</ele><time>2026-03-28T13:18:04.039Z</time></trkpt><trkpt lat="40.074555" lon="15.2733383"><ele>21.0</ele><time>2026-03-28T13:18:05.039Z</time></trkpt><trkpt lat="40.074645" lon="15.273205"><ele>19.0</ele><time>2026-03-28T13:18:06.04Z</time></trkpt><trkpt lat="40.0747317" lon="15.2730767"><ele>17.0</ele><time>2026-03-28T13:18:07.04Z</time></trkpt><trkpt lat="40.0748133" lon="15.2729483"><ele>15.0</ele><time>2026-03-28T13:18:08.039Z</time></trkpt><trkpt lat="40.0748817" lon="15.2728033"><ele>13.0</ele><time>2026-03-28T13:18:09.039Z</time></trkpt><trkpt lat="40.0749517" lon="15.2726683"><ele>18.0</ele><time>2026-03-28T13:18:10.04Z</time></trkpt><trkpt lat="40.0750317" lon="15.272555"><ele>23.0</ele><time>2026-03-28T13:18:11.039Z</time></trkpt><trkpt lat="40.0751367" lon="15.2724633"><ele>28.0</ele><time>2026-03-28T13:18:12.039Z</time></trkpt><trkpt lat="40.0752683" lon="15.272405"><ele>33.0</ele><time>2026-03-28T13:18:13.039Z</time></trkpt><trkpt lat="40.07542" lon="15.2723367"><ele>31.0</ele><time>2026-03-28T13:18:14.039Z</time></trkpt><trkpt lat="40.0755917" lon="15.2722617"><ele>29.0</ele><time>2026-03-28T13:18:15.04Z</time></trkpt><trkpt lat="40.0757733" lon="15.2721633"><ele>27.0</ele><time>2026-03-28T13:18:16.039Z</time></trkpt><trkpt lat="40.0759483" lon="15.2720683"><ele>32.666666666666664</ele><time>2026-03-28T13:18:17.039Z</time></trkpt><trkpt lat="40.07612" lon="15.2719867"><ele>38.33333333333333</ele><time>2026-03-28T13:18:18.04Z</time></trkpt><trkpt lat="40.0762833" lon="15.2718967"><ele>44.0</ele><time>2026-03-28T13:18:19.039Z</time></trkpt><trkpt lat="40.076425" lon="15.2718017"><ele>44.0</ele><time>2026-03-28T13:18:20.039Z</time></trkpt><trkpt lat="40.0765483" lon="15.2717167"><ele>44.0</ele><time>2026-03-28T13:18:21.04Z</time></trkpt><trkpt lat="40.07666" lon="15.271645"><ele>44.0</ele><time>2026-03-28T13:18:22.039Z</time></trkpt><trkpt lat="40.076765" lon="15.2715933"><ele>44.0</ele><time>2026-03-28T13:18:23.04Z</time></trkpt><trkpt lat="40.0768633" lon="15.271575"><ele>44.6</ele><time>2026-03-28T13:18:24.039Z</time></trkpt><trkpt lat="40.07696" lon="15.2715833"><ele>45.2</ele><time>2026-03-28T13:18:25.04Z</time></trkpt><trkpt lat="40.0770583" lon="15.2716133"><ele>45.800000000000004</ele><time>2026-03-28T13:18:26.04Z</time></trkpt><trkpt lat="40.0771567" lon="15.271655"><ele>46.400000000000006</ele><time>2026-03-28T13:18:27.039Z</time></trkpt><trkpt lat="40.0772467" lon="15.2716967"><ele>47.0</ele><time>2026-03-28T13:18:28.039Z</time></trkpt><trkpt lat="40.0773217" lon="15.2717283"><ele>47.0</ele><time>2026-03-28T13:18:29.04Z</time></trkpt><trkpt lat="40.07739" lon="15.2717417"><ele>47.0</ele><time>2026-03-28T13:18:30.04Z</time></trkpt><trkpt lat="40.077465" lon="15.27172"><ele>47.0</ele><time>2026-03-28T13:18:31.039Z</time></trkpt><trkpt lat="40.0775617" lon="15.271665"><ele>47.0</ele><time>2026-03-28T13:18:32.039Z</time></trkpt><trkpt lat="40.0776783" lon="15.27159"><ele>47.0</ele><time>2026-03-28T13:18:33.039Z</time></trkpt><trkpt lat="40.0778233" lon="15.2715117"><ele>45.33333333333333</ele><time>2026-03-28T13:18:34.04Z</time></trkpt><trkpt lat="40.0779817" lon="15.2714233"><ele>43.666666666666664</ele><time>2026-03-28T13:18:35.039Z</time></trkpt><trkpt lat="40.07813" lon="15.2713383"><ele>42.0</ele><time>2026-03-28T13:18:36.04Z</time></trkpt><trkpt lat="40.0782667" lon="15.271275"><ele>44.0</ele><time>2026-03-28T13:18:37.04Z</time></trkpt><trkpt lat="40.0783933" lon="15.2712383"><ele>46.0</ele><time>2026-03-28T13:18:38.039Z</time></trkpt><trkpt lat="40.0785183" lon="15.2712317"><ele>48.0</ele><time>2026-03-28T13:18:39.039Z</time></trkpt><trkpt lat="40.0786333" lon="15.2712267"><ele>50.0</ele><time>2026-03-28T13:18:40.04Z</time></trkpt><trkpt lat="40.0787417" lon="15.2711933"><ele>50.0</ele><time>2026-03-28T13:18:41.04Z</time></trkpt><trkpt lat="40.07883" lon="15.2711317"><ele>50.0</ele><time>2026-03-28T13:18:42.039Z</time></trkpt><trkpt lat="40.078885" lon="15.2710433"><ele>50.0</ele><time>2026-03-28T13:18:43.039Z</time></trkpt><trkpt lat="40.0789067" lon="15.270925"><ele>50.0</ele><time>2026-03-28T13:18:44.039Z</time></trkpt><trkpt lat="40.078895" lon="15.270795"><ele>50.0</ele><time>2026-03-28T13:18:45.039Z</time></trkpt><trkpt lat="40.0788517" lon="15.2706567"><ele>51.25</ele><time>2026-03-28T13:18:46.039Z</time></trkpt><trkpt lat="40.0787933" lon="15.2705117"><ele>52.5</ele><time>2026-03-28T13:18:47.039Z</time></trkpt><trkpt lat="40.0787383" lon="15.2703783"><ele>53.75</ele><time>2026-03-28T13:18:48.039Z</time></trkpt><trkpt lat="40.0787083" lon="15.2702433"><ele>55.0</ele><time>2026-03-28T13:18:49.04Z</time></trkpt><trkpt lat="40.07872" lon="15.270105"><ele>55.0</ele><time>2026-03-28T13:18:50.039Z</time></trkpt><trkpt lat="40.0787633" lon="15.2700033"><ele>55.0</ele><time>2026-03-28T13:18:51.039Z</time></trkpt><trkpt lat="40.078835" lon="15.2699333"><ele>55.0</ele><time>2026-03-28T13:18:52.039Z</time></trkpt><trkpt lat="40.0789267" lon="15.2698883"><ele>55.0</ele><time>2026-03-28T13:18:53.039Z</time></trkpt><trkpt lat="40.0790483" lon="15.269865"><ele>55.0</ele><time>2026-03-28T13:18:54.039Z</time></trkpt><trkpt lat="40.0792083" lon="15.2698533"><ele>55.0</ele><time>2026-03-28T13:18:55.039Z</time></trkpt><trkpt lat="40.07938" lon="15.2698283"><ele>55.0</ele><time>2026-03-28T13:18:56.04Z</time></trkpt><trkpt lat="40.0795283" lon="15.2697733"><ele>55.0</ele><time>2026-03-28T13:18:57.04Z</time></trkpt><trkpt lat="40.0796583" lon="15.2696933"><ele>55.0</ele><time>2026-03-28T13:18:58.04Z</time></trkpt><trkpt lat="40.079765" lon="15.26958"><ele>55.0</ele><time>2026-03-28T13:18:59.04Z</time></trkpt><trkpt lat="40.0798583" lon="15.26943"><ele>55.0</ele><time>2026-03-28T13:19:00.04Z</time></trkpt><trkpt lat="40.0799467" lon="15.26927"><ele>55.0</ele><time>2026-03-28T13:19:01.04Z</time></trkpt><trkpt lat="40.080025" lon="15.2691317"><ele>56.75</ele><time>2026-03-28T13:19:02.039Z</time></trkpt><trkpt lat="40.0801217" lon="15.2690267"><ele>58.5</ele><time>2026-03-28T13:19:03.039Z</time></trkpt><trkpt lat="40.0802283" lon="15.268955"><ele>60.25</ele><time>2026-03-28T13:19:04.039Z</time></trkpt><trkpt lat="40.0803467" lon="15.26893"><ele>62.0</ele><time>2026-03-28T13:19:05.04Z</time></trkpt><trkpt lat="40.0804817" lon="15.2689317"><ele>64.33333333333334</ele><time>2026-03-28T13:19:06.039Z</time></trkpt><trkpt lat="40.08064" lon="15.2689433"><ele>66.66666666666667</ele><time>2026-03-28T13:19:07.039Z</time></trkpt><trkpt lat="40.080825" lon="15.2689483"><ele>69.0</ele><time>2026-03-28T13:19:08.039Z</time></trkpt><trkpt lat="40.0810217" lon="15.26892"><ele>70.0</ele><time>2026-03-28T13:19:09.04Z</time></trkpt><trkpt lat="40.0812183" lon="15.268865"><ele>71.0</ele><time>2026-03-28T13:19:10.039Z</time></trkpt><trkpt lat="40.0814133" lon="15.2687967"><ele>72.0</ele><time>2026-03-28T13:19:11.04Z</time></trkpt><trkpt lat="40.0816117" lon="15.2687267"><ele>72.66666666666667</ele><time>2026-03-28T13:19:12.039Z</time></trkpt><trkpt lat="40.081805" lon="15.26867"><ele>73.33333333333334</ele><time>2026-03-28T13:19:13.039Z</time></trkpt><trkpt lat="40.0819833" lon="15.268625"><ele>74.0</ele><time>2026-03-28T13:19:14.039Z</time></trkpt><trkpt lat="40.0821583" lon="15.26858"><ele>74.0</ele><time>2026-03-28T13:19:15.039Z</time></trkpt><trkpt lat="40.082315" lon="15.2685217"><ele>74.0</ele><time>2026-03-28T13:19:16.039Z</time></trkpt><trkpt lat="40.0824567" lon="15.268435"><ele>74.0</ele><time>2026-03-28T13:19:17.04Z</time></trkpt><trkpt lat="40.082585" lon="15.2683167"><ele>72.33333333333334</ele><time>2026-03-28T13:19:18.039Z</time></trkpt><trkpt lat="40.082705" lon="15.2681517"><ele>70.66666666666667</ele><time>2026-03-28T13:19:19.039Z</time></trkpt><trkpt lat="40.0828083" lon="15.2679517"><ele>69.0</ele><time>2026-03-28T13:19:20.039Z</time></trkpt><trkpt lat="40.0829033" lon="15.2677133"><ele>69.0</ele><time>2026-03-28T13:19:21.04Z</time></trkpt><trkpt lat="40.0829883" lon="15.2674567"><ele>69.0</ele><time>2026-03-28T13:19:22.039Z</time></trkpt><trkpt lat="40.0830683" lon="15.267225"><ele>69.0</ele><time>2026-03-28T13:19:23.04Z</time></trkpt><trkpt lat="40.0831533" lon="15.2670167"><ele>67.66666666666667</ele><time>2026-03-28T13:19:24.039Z</time></trkpt><trkpt lat="40.083245" lon="15.2668317"><ele>66.33333333333334</ele><time>2026-03-28T13:19:25.04Z</time></trkpt><trkpt lat="40.083335" lon="15.2666683"><ele>65.0</ele><time>2026-03-28T13:19:26.04Z</time></trkpt><trkpt lat="40.0834233" lon="15.266515"><ele>67.0</ele><time>2026-03-28T13:19:27.039Z</time></trkpt><trkpt lat="40.0835217" lon="15.2663817"><ele>69.0</ele><time>2026-03-28T13:19:28.039Z</time></trkpt><trkpt lat="40.0836233" lon="15.2662467"><ele>71.0</ele><time>2026-03-28T13:19:29.04Z</time></trkpt><trkpt lat="40.0837333" lon="15.2661133"><ele>73.0</ele><time>2026-03-28T13:19:30.039Z</time></trkpt><trkpt lat="40.0838367" lon="15.265975"><ele>73.0</ele><time>2026-03-28T13:19:31.039Z</time></trkpt><trkpt lat="40.083945" lon="15.26584"><ele>73.0</ele><time>2026-03-28T13:19:32.039Z</time></trkpt><trkpt lat="40.0840517" lon="15.2657117"><ele>73.0</ele><time>2026-03-28T13:19:33.04Z</time></trkpt><trkpt lat="40.084155" lon="15.2655783"><ele>73.0</ele><time>2026-03-28T13:19:34.04Z</time></trkpt><trkpt lat="40.0842633" lon="15.26545"><ele>72.66666666666666</ele><time>2026-03-28T13:19:35.04Z</time></trkpt><trkpt lat="40.0843767" lon="15.2653183"><ele>72.33333333333333</ele><time>2026-03-28T13:19:36.04Z</time></trkpt><trkpt lat="40.0845" lon="15.2651817"><ele>72.0</ele><time>2026-03-28T13:19:37.04Z</time></trkpt><trkpt lat="40.08462" lon="15.26505"><ele>72.0</ele><time>2026-03-28T13:19:38.039Z</time></trkpt><trkpt lat="40.0847367" lon="15.26491"><ele>72.0</ele><time>2026-03-28T13:19:39.04Z</time></trkpt><trkpt lat="40.084855" lon="15.26476"><ele>72.0</ele><time>2026-03-28T13:19:40.04Z</time></trkpt><trkpt lat="40.0849833" lon="15.2646067"><ele>67.33333333333333</ele><time>2026-03-28T13:19:41.039Z</time></trkpt><trkpt lat="40.0851117" lon="15.2644467"><ele>62.666666666666664</ele><time>2026-03-28T13:19:42.039Z</time></trkpt><trkpt lat="40.0852317" lon="15.2642767"><ele>58.0</ele><time>2026-03-28T13:19:43.04Z</time></trkpt><trkpt lat="40.085345" lon="15.2641"><ele>53.666666666666664</ele><time>2026-03-28T13:19:44.04Z</time></trkpt><trkpt lat="40.085455" lon="15.2639183"><ele>49.33333333333333</ele><time>2026-03-28T13:19:45.04Z</time></trkpt><trkpt lat="40.0855633" lon="15.263735"><ele>45.0</ele><time>2026-03-28T13:19:46.039Z</time></trkpt><trkpt lat="40.08567" lon="15.2635483"><ele>52.0</ele><time>2026-03-28T13:19:47.039Z</time></trkpt><trkpt lat="40.0857733" lon="15.263355"><ele>59.0</ele><time>2026-03-28T13:19:48.04Z</time></trkpt><trkpt lat="40.0858667" lon="15.263155"><ele>66.0</ele><time>2026-03-28T13:19:49.039Z</time></trkpt><trkpt lat="40.0859433" lon="15.26295"><ele>66.66666666666667</ele><time>2026-03-28T13:19:50.039Z</time></trkpt><trkpt lat="40.0860083" lon="15.2627283"><ele>67.33333333333334</ele><time>2026-03-28T13:19:51.04Z</time></trkpt><trkpt lat="40.0860433" lon="15.2625033"><ele>68.0</ele><time>2026-03-28T13:19:52.039Z</time></trkpt><trkpt lat="40.0860567" lon="15.2622833"><ele>67.66666666666667</ele><time>2026-03-28T13:19:53.039Z</time></trkpt><trkpt lat="40.08606" lon="15.2620817"><ele>67.33333333333333</ele><time>2026-03-28T13:19:54.04Z</time></trkpt><trkpt lat="40.08608" lon="15.2618817"><ele>67.0</ele><time>2026-03-28T13:19:55.04Z</time></trkpt><trkpt lat="40.0861283" lon="15.2616817"><ele>67.0</ele><time>2026-03-28T13:19:56.04Z</time></trkpt><trkpt lat="40.0861867" lon="15.2614733"><ele>67.0</ele><time>2026-03-28T13:19:57.039Z</time></trkpt><trkpt lat="40.086255" lon="15.261245"><ele>67.0</ele><time>2026-03-28T13:19:58.039Z</time></trkpt><trkpt lat="40.086325" lon="15.26101"><ele>69.33333333333333</ele><time>2026-03-28T13:19:59.039Z</time></trkpt><trkpt lat="40.08639" lon="15.260775"><ele>71.66666666666667</ele><time>2026-03-28T13:20:00.04Z</time></trkpt><trkpt lat="40.086455" lon="15.260545"><ele>74.0</ele><time>2026-03-28T13:20:01.039Z</time></trkpt><trkpt lat="40.0865117" lon="15.2603167"><ele>76.0</ele><time>2026-03-28T13:20:02.04Z</time></trkpt><trkpt lat="40.0865617" lon="15.2600933"><ele>78.0</ele><time>2026-03-28T13:20:03.039Z</time></trkpt><trkpt lat="40.0866217" lon="15.259875"><ele>80.0</ele><time>2026-03-28T13:20:04.039Z</time></trkpt><trkpt lat="40.086675" lon="15.2596617"><ele>83.66666666666667</ele><time>2026-03-28T13:20:05.04Z</time></trkpt><trkpt lat="40.08673" lon="15.259445"><ele>87.33333333333333</ele><time>2026-03-28T13:20:06.039Z</time></trkpt><trkpt lat="40.08678" lon="15.25923"><ele>91.0</ele><time>2026-03-28T13:20:07.039Z</time></trkpt><trkpt lat="40.0868383" lon="15.2590167"><ele>90.0</ele><time>2026-03-28T13:20:08.04Z</time></trkpt><trkpt lat="40.0868883" lon="15.2587967"><ele>89.0</ele><time>2026-03-28T13:20:09.039Z</time></trkpt><trkpt lat="40.0869383" lon="15.258575"><ele>88.0</ele><time>2026-03-28T13:20:10.039Z</time></trkpt><trkpt lat="40.0869883" lon="15.258355"><ele>88.0</ele><time>2026-03-28T13:20:11.039Z</time></trkpt><trkpt lat="40.0870283" lon="15.25815"><ele>88.0</ele><time>2026-03-28T13:20:12.04Z</time></trkpt><trkpt lat="40.0870817" lon="15.25797"><ele>88.0</ele><time>2026-03-28T13:20:13.039Z</time></trkpt><trkpt lat="40.0871483" lon="15.25782"><ele>88.0</ele><time>2026-03-28T13:20:14.039Z</time></trkpt><trkpt lat="40.087225" lon="15.2577017"><ele>88.75</ele><time>2026-03-28T13:20:15.039Z</time></trkpt><trkpt lat="40.08732" lon="15.25761"><ele>89.5</ele><time>2026-03-28T13:20:16.04Z</time></trkpt><trkpt lat="40.08743" lon="15.25755"><ele>90.25</ele><time>2026-03-28T13:20:17.04Z</time></trkpt><trkpt lat="40.0875483" lon="15.25752"><ele>91.0</ele><time>2026-03-28T13:20:18.039Z</time></trkpt><trkpt lat="40.0876733" lon="15.2575233"><ele>91.0</ele><time>2026-03-28T13:20:19.039Z</time></trkpt><trkpt lat="40.08781" lon="15.257545"><ele>91.0</ele><time>2026-03-28T13:20:20.039Z</time></trkpt><trkpt lat="40.0879517" lon="15.2575567"><ele>91.0</ele><time>2026-03-28T13:20:21.04Z</time></trkpt><trkpt lat="40.0880983" lon="15.2575383"><ele>91.0</ele><time>2026-03-28T13:20:22.04Z</time></trkpt><trkpt lat="40.0882533" lon="15.2575017"><ele>97.0</ele><time>2026-03-28T13:20:23.039Z</time></trkpt><trkpt lat="40.0884183" lon="15.2574533"><ele>103.0</ele><time>2026-03-28T13:20:24.039Z</time></trkpt><trkpt lat="40.08858" lon="15.2573933"><ele>109.0</ele><time>2026-03-28T13:20:25.04Z</time></trkpt><trkpt lat="40.0887333" lon="15.2572967"><ele>100.33333333333334</ele><time>2026-03-28T13:20:26.04Z</time></trkpt><trkpt lat="40.0888583" lon="15.2571583"><ele>91.66666666666667</ele><time>2026-03-28T13:20:27.04Z</time></trkpt><trkpt lat="40.0889667" lon="15.2569967"><ele>83.0</ele><time>2026-03-28T13:20:28.039Z</time></trkpt><trkpt lat="40.0890733" lon="15.25684"><ele>90.0</ele><time>2026-03-28T13:20:29.039Z</time></trkpt><trkpt lat="40.0891867" lon="15.256715"><ele>97.0</ele><time>2026-03-28T13:20:30.039Z</time></trkpt><trkpt lat="40.08932" lon="15.256635"><ele>104.0</ele><time>2026-03-28T13:20:31.039Z</time></trkpt><trkpt lat="40.089465" lon="15.256595"><ele>111.0</ele><time>2026-03-28T13:20:32.039Z</time></trkpt><trkpt lat="40.0896333" lon="15.2565967"><ele>111.0</ele><time>2026-03-28T13:20:33.04Z</time></trkpt><trkpt lat="40.089805" lon="15.2565783"><ele>111.0</ele><time>2026-03-28T13:20:34.039Z</time></trkpt><trkpt lat="40.0899667" lon="15.2565333"><ele>111.0</ele><time>2026-03-28T13:20:35.04Z</time></trkpt><trkpt lat="40.0901167" lon="15.2564583"><ele>111.0</ele><time>2026-03-28T13:20:36.04Z</time></trkpt><trkpt lat="40.0902367" lon="15.2563483"><ele>111.0</ele><time>2026-03-28T13:20:37.039Z</time></trkpt><trkpt lat="40.090325" lon="15.256195"><ele>111.0</ele><time>2026-03-28T13:20:38.039Z</time></trkpt><trkpt lat="40.090385" lon="15.2560017"><ele>111.0</ele><time>2026-03-28T13:20:39.039Z</time></trkpt><trkpt lat="40.0904217" lon="15.2557667"><ele>111.0</ele><time>2026-03-28T13:20:40.039Z</time></trkpt><trkpt lat="40.0904533" lon="15.2555133"><ele>111.0</ele><time>2026-03-28T13:20:41.039Z</time></trkpt><trkpt lat="40.0904883" lon="15.2552583"><ele>109.33333333333334</ele><time>2026-03-28T13:20:42.04Z</time></trkpt><trkpt lat="40.0905283" lon="15.2550033"><ele>107.66666666666667</ele><time>2026-03-28T13:20:43.039Z</time></trkpt><trkpt lat="40.0905733" lon="15.254745"><ele>106.0</ele><time>2026-03-28T13:20:44.04Z</time></trkpt><trkpt lat="40.0906183" lon="15.25449"><ele>105.0</ele><time>2026-03-28T13:20:45.039Z</time></trkpt><trkpt lat="40.090655" lon="15.2542317"><ele>104.0</ele><time>2026-03-28T13:20:46.04Z</time></trkpt><trkpt lat="40.090685" lon="15.253965"><ele>103.0</ele><time>2026-03-28T13:20:47.039Z</time></trkpt><trkpt lat="40.0907" lon="15.2536883"><ele>100.66666666666667</ele><time>2026-03-28T13:20:48.04Z</time></trkpt><trkpt lat="40.0907117" lon="15.2534133"><ele>98.33333333333334</ele><time>2026-03-28T13:20:49.04Z</time></trkpt><trkpt lat="40.0907133" lon="15.25316"><ele>96.0</ele><time>2026-03-28T13:20:50.04Z</time></trkpt><trkpt lat="40.090725" lon="15.252925"><ele>93.66666666666667</ele><time>2026-03-28T13:20:51.039Z</time></trkpt><trkpt lat="40.09075" lon="15.2527017"><ele>91.33333333333334</ele><time>2026-03-28T13:20:52.04Z</time></trkpt><trkpt lat="40.090795" lon="15.2525"><ele>89.0</ele><time>2026-03-28T13:20:53.039Z</time></trkpt><trkpt lat="40.0908517" lon="15.2523233"><ele>96.5</ele><time>2026-03-28T13:20:54.04Z</time></trkpt><trkpt lat="40.09092" lon="15.2521583"><ele>104.0</ele><time>2026-03-28T13:20:55.039Z</time></trkpt><trkpt lat="40.0909983" lon="15.251995"><ele>111.5</ele><time>2026-03-28T13:20:56.039Z</time></trkpt><trkpt lat="40.0910933" lon="15.2518333"><ele>119.0</ele><time>2026-03-28T13:20:57.039Z</time></trkpt><trkpt lat="40.0911867" lon="15.25166"><ele>119.0</ele><time>2026-03-28T13:20:58.039Z</time></trkpt><trkpt lat="40.0912667" lon="15.2514733"><ele>119.0</ele><time>2026-03-28T13:20:59.04Z</time></trkpt><trkpt lat="40.0913367" lon="15.2512783"><ele>119.0</ele><time>2026-03-28T13:21:00.039Z</time></trkpt><trkpt lat="40.0914083" lon="15.2510817"><ele>122.66666666666666</ele><time>2026-03-28T13:21:01.039Z</time></trkpt><trkpt lat="40.0914883" lon="15.2508767"><ele>126.33333333333334</ele><time>2026-03-28T13:21:02.04Z</time></trkpt><trkpt lat="40.0915783" lon="15.2506667"><ele>130.0</ele><time>2026-03-28T13:21:03.04Z</time></trkpt><trkpt lat="40.091675" lon="15.2504667"><ele>130.0</ele><time>2026-03-28T13:21:04.039Z</time></trkpt><trkpt lat="40.09178" lon="15.250265"><ele>130.0</ele><time>2026-03-28T13:21:05.04Z</time></trkpt><trkpt lat="40.0918833" lon="15.25006"><ele>130.0</ele><time>2026-03-28T13:21:06.04Z</time></trkpt><trkpt lat="40.0919967" lon="15.24985"><ele>123.33333333333334</ele><time>2026-03-28T13:21:07.039Z</time></trkpt><trkpt lat="40.09211" lon="15.2496417"><ele>116.66666666666666</ele><time>2026-03-28T13:21:08.039Z</time></trkpt><trkpt lat="40.092215" lon="15.2494267"><ele>110.0</ele><time>2026-03-28T13:21:09.04Z</time></trkpt><trkpt lat="40.09232" lon="15.24921"><ele>121.66666666666666</ele><time>2026-03-28T13:21:10.04Z</time></trkpt><trkpt lat="40.09243" lon="15.2490033"><ele>133.33333333333334</ele><time>2026-03-28T13:21:11.04Z</time></trkpt><trkpt lat="40.0925267" lon="15.2488133"><ele>145.0</ele><time>2026-03-28T13:21:12.04Z</time></trkpt><trkpt lat="40.092595" lon="15.24863"><ele>145.0</ele><time>2026-03-28T13:21:13.039Z</time></trkpt><trkpt lat="40.0926283" lon="15.24844"><ele>145.0</ele><time>2026-03-28T13:21:14.039Z</time></trkpt><trkpt lat="40.0926267" lon="15.2482333"><ele>145.0</ele><time>2026-03-28T13:21:15.039Z</time></trkpt><trkpt lat="40.0926133" lon="15.2480183"><ele>144.33333333333334</ele><time>2026-03-28T13:21:16.04Z</time></trkpt><trkpt lat="40.092615" lon="15.247785"><ele>143.66666666666666</ele><time>2026-03-28T13:21:17.039Z</time></trkpt><trkpt lat="40.09265" lon="15.2475317"><ele>143.0</ele><time>2026-03-28T13:21:18.04Z</time></trkpt><trkpt lat="40.0927017" lon="15.247275"><ele>138.66666666666666</ele><time>2026-03-28T13:21:19.04Z</time></trkpt><trkpt lat="40.0927483" lon="15.247035"><ele>134.33333333333334</ele><time>2026-03-28T13:21:20.039Z</time></trkpt><trkpt lat="40.0927983" lon="15.2468133"><ele>130.0</ele><time>2026-03-28T13:21:21.04Z</time></trkpt><trkpt lat="40.0928617" lon="15.2466117"><ele>124.33333333333334</ele><time>2026-03-28T13:21:22.039Z</time></trkpt><trkpt lat="40.0929433" lon="15.246425"><ele>118.66666666666666</ele><time>2026-03-28T13:21:23.039Z</time></trkpt><trkpt lat="40.09304" lon="15.24625"><ele>113.0</ele><time>2026-03-28T13:21:24.039Z</time></trkpt><trkpt lat="40.0931433" lon="15.2461033"><ele>113.0</ele><time>2026-03-28T13:21:25.039Z</time></trkpt><trkpt lat="40.09325" lon="15.24598"><ele>113.0</ele><time>2026-03-28T13:21:26.039Z</time></trkpt><trkpt lat="40.09336" lon="15.245885"><ele>113.0</ele><time>2026-03-28T13:21:27.039Z</time></trkpt><trkpt lat="40.093475" lon="15.24582"><ele>113.0</ele><time>2026-03-28T13:21:28.039Z</time></trkpt><trkpt lat="40.093595" lon="15.2457967"><ele>116.60000000000001</ele><time>2026-03-28T13:21:29.04Z</time></trkpt><trkpt lat="40.093715" lon="15.2457917"><ele>120.20000000000002</ele><time>2026-03-28T13:21:30.04Z</time></trkpt><trkpt lat="40.09382" lon="15.2457717"><ele>123.8</ele><time>2026-03-28T13:21:31.039Z</time></trkpt><trkpt lat="40.0939067" lon="15.24572"><ele>127.4</ele><time>2026-03-28T13:21:32.039Z</time></trkpt><trkpt lat="40.09397" lon="15.2456317"><ele>131.0</ele><time>2026-03-28T13:21:33.04Z</time></trkpt><trkpt lat="40.093995" lon="15.2455233"><ele>131.0</ele><time>2026-03-28T13:21:34.039Z</time></trkpt><trkpt lat="40.0939867" lon="15.24539"><ele>131.0</ele><time>2026-03-28T13:21:35.04Z</time></trkpt><trkpt lat="40.093975" lon="15.2452417"><ele>131.0</ele><time>2026-03-28T13:21:36.039Z</time></trkpt><trkpt lat="40.0939817" lon="15.2450983"><ele>131.0</ele><time>2026-03-28T13:21:37.04Z</time></trkpt><trkpt lat="40.094025" lon="15.2449167"><ele>139.66666666666666</ele><time>2026-03-28T13:21:38.039Z</time></trkpt><trkpt lat="40.0941" lon="15.2447333"><ele>148.33333333333334</ele><time>2026-03-28T13:21:39.04Z</time></trkpt><trkpt lat="40.0941917" lon="15.2445617"><ele>157.0</ele><time>2026-03-28T13:21:40.04Z</time></trkpt><trkpt lat="40.094305" lon="15.24439"><ele>157.0</ele><time>2026-03-28T13:21:41.04Z</time></trkpt><trkpt lat="40.0944367" lon="15.2442183"><ele>157.0</ele><time>2026-03-28T13:21:42.039Z</time></trkpt><trkpt lat="40.0945717" lon="15.2440533"><ele>157.0</ele><time>2026-03-28T13:21:43.04Z</time></trkpt><trkpt lat="40.0947083" lon="15.243885"><ele>152.66666666666669</ele><time>2026-03-28T13:21:44.04Z</time></trkpt><trkpt lat="40.09485" lon="15.2437133"><ele>148.33333333333334</ele><time>2026-03-28T13:21:45.039Z</time></trkpt><trkpt lat="40.095" lon="15.2435367"><ele>144.0</ele><time>2026-03-28T13:21:46.039Z</time></trkpt><trkpt lat="40.0951517" lon="15.2433417"><ele>149.0</ele><time>2026-03-28T13:21:47.039Z</time></trkpt><trkpt lat="40.0953117" lon="15.24314"><ele>154.0</ele><time>2026-03-28T13:21:48.039Z</time></trkpt><trkpt lat="40.0954783" lon="15.24293"><ele>154.0</ele><time>2026-03-28T13:21:49.039Z</time></trkpt><trkpt lat="40.0956517" lon="15.2427367"><ele>154.0</ele><time>2026-03-28T13:21:50.039Z</time></trkpt><trkpt lat="40.095835" lon="15.2425467"><ele>156.5</ele><time>2026-03-28T13:21:51.039Z</time></trkpt><trkpt lat="40.09603" lon="15.242355"><ele>159.0</ele><time>2026-03-28T13:21:52.039Z</time></trkpt><trkpt lat="40.0962167" lon="15.2421617"><ele>159.0</ele><time>2026-03-28T13:21:53.039Z</time></trkpt><trkpt lat="40.0963883" lon="15.241965"><ele>159.0</ele><time>2026-03-28T13:21:54.039Z</time></trkpt><trkpt lat="40.0965517" lon="15.2417767"><ele>159.0</ele><time>2026-03-28T13:21:55.039Z</time></trkpt><trkpt lat="40.0967" lon="15.2415983"><ele>159.0</ele><time>2026-03-28T13:21:56.039Z</time></trkpt><trkpt lat="40.09684" lon="15.2414367"><ele>159.0</ele><time>2026-03-28T13:21:57.039Z</time></trkpt><trkpt lat="40.0969683" lon="15.241285"><ele>159.0</ele><time>2026-03-28T13:21:58.04Z</time></trkpt><trkpt lat="40.0970983" lon="15.2411583"><ele>159.0</ele><time>2026-03-28T13:21:59.039Z</time></trkpt><trkpt lat="40.0972317" lon="15.24104"><ele>159.0</ele><time>2026-03-28T13:22:00.039Z</time></trkpt><trkpt lat="40.0973683" lon="15.2409267"><ele>159.0</ele><time>2026-03-28T13:22:01.04Z</time></trkpt><trkpt lat="40.0975117" lon="15.24081"><ele>157.66666666666666</ele><time>2026-03-28T13:22:02.04Z</time></trkpt><trkpt lat="40.0976667" lon="15.2406967"><ele>156.33333333333331</ele><time>2026-03-28T13:22:03.039Z</time></trkpt><trkpt lat="40.0978183" lon="15.2405867"><ele>155.0</ele><time>2026-03-28T13:22:04.039Z</time></trkpt><trkpt lat="40.0979633" lon="15.2405083"><ele>155.0</ele><time>2026-03-28T13:22:05.04Z</time></trkpt><trkpt lat="40.098095" lon="15.2404483"><ele>155.0</ele><time>2026-03-28T13:22:06.039Z</time></trkpt><trkpt lat="40.098215" lon="15.2404367"><ele>155.0</ele><time>2026-03-28T13:22:07.04Z</time></trkpt><trkpt lat="40.09834" lon="15.2404617"><ele>155.0</ele><time>2026-03-28T13:22:08.04Z</time></trkpt><trkpt lat="40.09846" lon="15.2404867"><ele>159.8</ele><time>2026-03-28T13:22:09.039Z</time></trkpt><trkpt lat="40.098565" lon="15.2405017"><ele>164.6</ele><time>2026-03-28T13:22:10.039Z</time></trkpt><trkpt lat="40.0986583" lon="15.2404567"><ele>169.39999999999998</ele><time>2026-03-28T13:22:11.039Z</time></trkpt><trkpt lat="40.09874" lon="15.2403583"><ele>174.2</ele><time>2026-03-28T13:22:12.04Z</time></trkpt><trkpt lat="40.09881" lon="15.2402117"><ele>179.0</ele><time>2026-03-28T13:22:13.039Z</time></trkpt><trkpt lat="40.0988667" lon="15.2400367"><ele>179.0</ele><time>2026-03-28T13:22:14.04Z</time></trkpt><trkpt lat="40.0989467" lon="15.239835"><ele>179.0</ele><time>2026-03-28T13:22:15.039Z</time></trkpt><trkpt lat="40.09904" lon="15.2396483"><ele>179.0</ele><time>2026-03-28T13:22:16.039Z</time></trkpt><trkpt lat="40.0991617" lon="15.2394683"><ele>181.33333333333331</ele><time>2026-03-28T13:22:17.04Z</time></trkpt><trkpt lat="40.09929" lon="15.239295"><ele>183.66666666666666</ele><time>2026-03-28T13:22:18.04Z</time></trkpt><trkpt lat="40.0994117" lon="15.23913"><ele>186.0</ele><time>2026-03-28T13:22:19.039Z</time></trkpt><trkpt lat="40.0995233" lon="15.2389917"><ele>183.0</ele><time>2026-03-28T13:22:20.04Z</time></trkpt><trkpt lat="40.099645" lon="15.2388783"><ele>180.0</ele><time>2026-03-28T13:22:21.039Z</time></trkpt><trkpt lat="40.099775" lon="15.2387883"><ele>177.0</ele><time>2026-03-28T13:22:22.039Z</time></trkpt><trkpt lat="40.099915" lon="15.2387183"><ele>174.0</ele><time>2026-03-28T13:22:23.039Z</time></trkpt><trkpt lat="40.100055" lon="15.23866"><ele>174.0</ele><time>2026-03-28T13:22:24.04Z</time></trkpt><trkpt lat="40.1001867" lon="15.2386283"><ele>174.0</ele><time>2026-03-28T13:22:25.039Z</time></trkpt><trkpt lat="40.1002983" lon="15.2386"><ele>174.0</ele><time>2026-03-28T13:22:26.039Z</time></trkpt><trkpt lat="40.100405" lon="15.23862"><ele>174.0</ele><time>2026-03-28T13:22:27.04Z</time></trkpt><trkpt lat="40.1005117" lon="15.2386667"><ele>174.0</ele><time>2026-03-28T13:22:28.04Z</time></trkpt><trkpt lat="40.10062" lon="15.238735"><ele>174.0</ele><time>2026-03-28T13:22:29.039Z</time></trkpt><trkpt lat="40.100715" lon="15.2388283"><ele>174.0</ele><time>2026-03-28T13:22:30.039Z</time></trkpt><trkpt lat="40.100795" lon="15.2389433"><ele>174.0</ele><time>2026-03-28T13:22:31.04Z</time></trkpt><trkpt lat="40.1008583" lon="15.23907"><ele>179.0</ele><time>2026-03-28T13:22:32.04Z</time></trkpt><trkpt lat="40.1009" lon="15.2392183"><ele>184.0</ele><time>2026-03-28T13:22:33.039Z</time></trkpt><trkpt lat="40.1009183" lon="15.2393767"><ele>189.0</ele><time>2026-03-28T13:22:34.039Z</time></trkpt><trkpt lat="40.1009283" lon="15.2395483"><ele>194.0</ele><time>2026-03-28T13:22:35.039Z</time></trkpt><trkpt lat="40.1009117" lon="15.239715"><ele>196.2</ele><time>2026-03-28T13:22:36.039Z</time></trkpt><trkpt lat="40.1008917" lon="15.2398667"><ele>198.39999999999998</ele><time>2026-03-28T13:22:37.039Z</time></trkpt><trkpt lat="40.1008733" lon="15.24001"><ele>200.6</ele><time>2026-03-28T13:22:38.04Z</time></trkpt><trkpt lat="40.10086" lon="15.2401517"><ele>202.8</ele><time>2026-03-28T13:22:39.039Z</time></trkpt><trkpt lat="40.10085" lon="15.240285"><ele>205.0</ele><time>2026-03-28T13:22:40.04Z</time></trkpt><trkpt lat="40.1008883" lon="15.2403817"><ele>204.99999999999997</ele><time>2026-03-28T13:22:41.039Z</time></trkpt><trkpt lat="40.1009533" lon="15.2404517"><ele>205.0</ele><time>2026-03-28T13:22:42.04Z</time></trkpt><trkpt lat="40.10103" lon="15.2404917"><ele>205.0</ele><time>2026-03-28T13:22:43.04Z</time></trkpt><trkpt lat="40.101115" lon="15.240495"><ele>205.0</ele><time>2026-03-28T13:22:44.04Z</time></trkpt><trkpt lat="40.1012017" lon="15.2404533"><ele>204.99999999999997</ele><time>2026-03-28T13:22:45.04Z</time></trkpt><trkpt lat="40.101275" lon="15.2403617"><ele>205.0</ele><time>2026-03-28T13:22:46.039Z</time></trkpt><trkpt lat="40.1013367" lon="15.24024"><ele>205.0</ele><time>2026-03-28T13:22:47.039Z</time></trkpt><trkpt lat="40.1013867" lon="15.240085"><ele>205.0</ele><time>2026-03-28T13:22:48.039Z</time></trkpt><trkpt lat="40.1014383" lon="15.2398983"><ele>205.0</ele><time>2026-03-28T13:22:49.04Z</time></trkpt><trkpt lat="40.101505" lon="15.2396933"><ele>202.33333333333331</ele><time>2026-03-28T13:22:50.04Z</time></trkpt><trkpt lat="40.101585" lon="15.2394667"><ele>199.66666666666669</ele><time>2026-03-28T13:22:51.04Z</time></trkpt><trkpt lat="40.1016583" lon="15.2392417"><ele>197.0</ele><time>2026-03-28T13:22:52.04Z</time></trkpt><trkpt lat="40.101715" lon="15.239035"><ele>192.5</ele><time>2026-03-28T13:22:53.039Z</time></trkpt><trkpt lat="40.1017733" lon="15.238845"><ele>188.0</ele><time>2026-03-28T13:22:54.039Z</time></trkpt><trkpt lat="40.101815" lon="15.23866"><ele>183.5</ele><time>2026-03-28T13:22:55.04Z</time></trkpt><trkpt lat="40.1018333" lon="15.238485"><ele>179.0</ele><time>2026-03-28T13:22:56.04Z</time></trkpt><trkpt lat="40.1018317" lon="15.2383183"><ele>179.0</ele><time>2026-03-28T13:22:57.039Z</time></trkpt><trkpt lat="40.1018283" lon="15.2381717"><ele>179.0</ele><time>2026-03-28T13:22:58.04Z</time></trkpt><trkpt lat="40.1018433" lon="15.23803"><ele>179.0</ele><time>2026-03-28T13:22:59.04Z</time></trkpt><trkpt lat="40.1018933" lon="15.2379133"><ele>179.0</ele><time>2026-03-28T13:23:00.04Z</time></trkpt><trkpt lat="40.101965" lon="15.23784"><ele>179.0</ele><time>2026-03-28T13:23:01.04Z</time></trkpt><trkpt lat="40.10204" lon="15.2377917"><ele>178.25</ele><time>2026-03-28T13:23:02.041Z</time></trkpt><trkpt lat="40.1021383" lon="15.2377667"><ele>177.5</ele><time>2026-03-28T13:23:03.04Z</time></trkpt><trkpt lat="40.1022617" lon="15.237765"><ele>176.75</ele><time>2026-03-28T13:23:04.04Z</time></trkpt><trkpt lat="40.1023833" lon="15.2377683"><ele>176.0</ele><time>2026-03-28T13:23:05.04Z</time></trkpt><trkpt lat="40.1025" lon="15.23772"><ele>176.0</ele><time>2026-03-28T13:23:06.04Z</time></trkpt><trkpt lat="40.1026067" lon="15.2376417"><ele>176.0</ele><time>2026-03-28T13:23:07.04Z</time></trkpt><trkpt lat="40.1027167" lon="15.2375367"><ele>176.0</ele><time>2026-03-28T13:23:08.041Z</time></trkpt><trkpt lat="40.1028433" lon="15.23741"><ele>176.0</ele><time>2026-03-28T13:23:09.04Z</time></trkpt><trkpt lat="40.102975" lon="15.237305"><ele>174.33333333333331</ele><time>2026-03-28T13:23:10.041Z</time></trkpt><trkpt lat="40.103115" lon="15.23721"><ele>172.66666666666666</ele><time>2026-03-28T13:23:11.04Z</time></trkpt><trkpt lat="40.1032533" lon="15.2371233"><ele>171.0</ele><time>2026-03-28T13:23:12.041Z</time></trkpt><trkpt lat="40.103385" lon="15.23701"><ele>171.0</ele><time>2026-03-28T13:23:13.041Z</time></trkpt><trkpt lat="40.10351" lon="15.2368817"><ele>171.0</ele><time>2026-03-28T13:23:14.04Z</time></trkpt><trkpt lat="40.103615" lon="15.23674"><ele>171.0</ele><time>2026-03-28T13:23:15.04Z</time></trkpt><trkpt lat="40.1037083" lon="15.236595"><ele>171.0</ele><time>2026-03-28T13:23:16.041Z</time></trkpt><trkpt lat="40.1037883" lon="15.23647"><ele>171.0</ele><time>2026-03-28T13:23:17.041Z</time></trkpt><trkpt lat="40.10386" lon="15.23636"><ele>171.0</ele><time>2026-03-28T13:23:18.04Z</time></trkpt><trkpt lat="40.103925" lon="15.2362767"><ele>171.0</ele><time>2026-03-28T13:23:19.041Z</time></trkpt><trkpt lat="40.1039883" lon="15.2362167"><ele>171.0</ele><time>2026-03-28T13:23:20.041Z</time></trkpt><trkpt lat="40.1041117" lon="15.2361967"><ele>168.8</ele><time>2026-03-28T13:23:22.04Z</time></trkpt><trkpt lat="40.104195" lon="15.2362317"><ele>166.60000000000002</ele><time>2026-03-28T13:23:23.04Z</time></trkpt><trkpt lat="40.1042917" lon="15.2362767"><ele>164.4</ele><time>2026-03-28T13:23:24.041Z</time></trkpt><trkpt lat="40.1044017" lon="15.2363"><ele>162.2</ele><time>2026-03-28T13:23:25.04Z</time></trkpt><trkpt lat="40.10452" lon="15.236305"><ele>160.0</ele><time>2026-03-28T13:23:26.041Z</time></trkpt><trkpt lat="40.1046367" lon="15.236295"><ele>160.0</ele><time>2026-03-28T13:23:27.041Z</time></trkpt><trkpt lat="40.1047467" lon="15.2363067"><ele>160.0</ele><time>2026-03-28T13:23:28.041Z</time></trkpt><trkpt lat="40.1048733" lon="15.2363467"><ele>160.0</ele><time>2026-03-28T13:23:29.041Z</time></trkpt><trkpt lat="40.105005" lon="15.2364067"><ele>160.0</ele><time>2026-03-28T13:23:30.04Z</time></trkpt><trkpt lat="40.1051367" lon="15.2364683"><ele>162.5</ele><time>2026-03-28T13:23:31.041Z</time></trkpt><trkpt lat="40.1052733" lon="15.2365333"><ele>165.0</ele><time>2026-03-28T13:23:32.04Z</time></trkpt><trkpt lat="40.1054033" lon="15.2365933"><ele>167.5</ele><time>2026-03-28T13:23:33.041Z</time></trkpt><trkpt lat="40.105525" lon="15.2366517"><ele>170.0</ele><time>2026-03-28T13:23:34.04Z</time></trkpt><trkpt lat="40.10564" lon="15.2367033"><ele>166.75</ele><time>2026-03-28T13:23:35.04Z</time></trkpt><trkpt lat="40.1057567" lon="15.2367733"><ele>163.5</ele><time>2026-03-28T13:23:36.041Z</time></trkpt><trkpt lat="40.10588" lon="15.2368433"><ele>160.25</ele><time>2026-03-28T13:23:37.041Z</time></trkpt><trkpt lat="40.10601" lon="15.2369133"><ele>157.0</ele><time>2026-03-28T13:23:38.041Z</time></trkpt><trkpt lat="40.1061333" lon="15.2369733"><ele>157.0</ele><time>2026-03-28T13:23:39.04Z</time></trkpt><trkpt lat="40.1062617" lon="15.2370333"><ele>157.0</ele><time>2026-03-28T13:23:40.041Z</time></trkpt><trkpt lat="40.1063833" lon="15.2371117"><ele>157.0</ele><time>2026-03-28T13:23:41.04Z</time></trkpt><trkpt lat="40.1065167" lon="15.23719"><ele>157.0</ele><time>2026-03-28T13:23:42.041Z</time></trkpt><trkpt lat="40.10665" lon="15.2372617"><ele>162.0</ele><time>2026-03-28T13:23:43.04Z</time></trkpt><trkpt lat="40.1067917" lon="15.23733"><ele>167.0</ele><time>2026-03-28T13:23:44.04Z</time></trkpt><trkpt lat="40.106935" lon="15.2373983"><ele>172.0</ele><time>2026-03-28T13:23:45.041Z</time></trkpt><trkpt lat="40.1070783" lon="15.237465"><ele>172.0</ele><time>2026-03-28T13:23:46.041Z</time></trkpt><trkpt lat="40.1072267" lon="15.2375417"><ele>172.0</ele><time>2026-03-28T13:23:47.04Z</time></trkpt><trkpt lat="40.1073717" lon="15.2376133"><ele>172.0</ele><time>2026-03-28T13:23:48.04Z</time></trkpt><trkpt lat="40.1075017" lon="15.23768"><ele>170.6</ele><time>2026-03-28T13:23:49.04Z</time></trkpt><trkpt lat="40.1076017" lon="15.2377067"><ele>169.2</ele><time>2026-03-28T13:23:50.04Z</time></trkpt><trkpt lat="40.1077033" lon="15.2377133"><ele>167.8</ele><time>2026-03-28T13:23:51.041Z</time></trkpt><trkpt lat="40.1078" lon="15.2376567"><ele>166.4</ele><time>2026-03-28T13:23:52.04Z</time></trkpt><trkpt lat="40.107895" lon="15.2375833"><ele>165.0</ele><time>2026-03-28T13:23:53.041Z</time></trkpt><trkpt lat="40.1079867" lon="15.2375233"><ele>165.0</ele><time>2026-03-28T13:23:54.041Z</time></trkpt><trkpt lat="40.1080583" lon="15.2374483"><ele>165.0</ele><time>2026-03-28T13:23:55.04Z</time></trkpt><trkpt lat="40.1081117" lon="15.2373667"><ele>165.0</ele><time>2026-03-28T13:23:56.041Z</time></trkpt><trkpt lat="40.1081183" lon="15.2372417"><ele>165.0</ele><time>2026-03-28T13:23:57.04Z</time></trkpt><trkpt lat="40.1081" lon="15.2371017"><ele>165.0</ele><time>2026-03-28T13:23:58.041Z</time></trkpt><trkpt lat="40.10809" lon="15.2369617"><ele>165.0</ele><time>2026-03-28T13:23:59.04Z</time></trkpt><trkpt lat="40.1081233" lon="15.2368533"><ele>165.0</ele><time>2026-03-28T13:24:00.04Z</time></trkpt><trkpt lat="40.1081833" lon="15.2367483"><ele>165.0</ele><time>2026-03-28T13:24:01.041Z</time></trkpt><trkpt lat="40.1082583" lon="15.2366467"><ele>165.0</ele><time>2026-03-28T13:24:02.04Z</time></trkpt><trkpt lat="40.10833" lon="15.236545"><ele>165.0</ele><time>2026-03-28T13:24:03.04Z</time></trkpt><trkpt lat="40.1083933" lon="15.236435"><ele>165.0</ele><time>2026-03-28T13:24:04.041Z</time></trkpt><trkpt lat="40.108455" lon="15.2363417"><ele>165.0</ele><time>2026-03-28T13:24:05.04Z</time></trkpt><trkpt lat="40.1085183" lon="15.23626"><ele>165.0</ele><time>2026-03-28T13:24:06.04Z</time></trkpt><trkpt lat="40.108575" lon="15.2361883"><ele>165.0</ele><time>2026-03-28T13:24:07.04Z</time></trkpt><trkpt lat="40.1086317" lon="15.2361217"><ele>165.0</ele><time>2026-03-28T13:24:08.041Z</time></trkpt><trkpt lat="40.1086817" lon="15.23607"><ele>165.0</ele><time>2026-03-28T13:24:09.041Z</time></trkpt><trkpt lat="40.1087767" lon="15.2359783"><ele>165.0</ele><time>2026-03-28T13:24:11.04Z</time></trkpt><trkpt lat="40.108845" lon="15.2358467"><ele>165.0</ele><time>2026-03-28T13:24:13.041Z</time></trkpt><trkpt lat="40.1088733" lon="15.2357717"><ele>165.0</ele><time>2026-03-28T13:24:14.041Z</time></trkpt><trkpt lat="40.1089" lon="15.235695"><ele>165.0</ele><time>2026-03-28T13:24:15.04Z</time></trkpt><trkpt lat="40.1089183" lon="15.23561"><ele>165.0</ele><time>2026-03-28T13:24:16.04Z</time></trkpt><trkpt lat="40.1089317" lon="15.235525"><ele>165.0</ele><time>2026-03-28T13:24:17.04Z</time></trkpt><trkpt lat="40.109" lon="15.2353817"><ele>164.85714285714286</ele><time>2026-03-28T13:24:19.04Z</time></trkpt><trkpt lat="40.10905" lon="15.2353283"><ele>164.71428571428572</ele><time>2026-03-28T13:24:20.041Z</time></trkpt><trkpt lat="40.1091133" lon="15.235275"><ele>164.57142857142856</ele><time>2026-03-28T13:24:21.04Z</time></trkpt><trkpt lat="40.109175" lon="15.2352183"><ele>164.42857142857144</ele><time>2026-03-28T13:24:22.04Z</time></trkpt><trkpt lat="40.1092267" lon="15.2351517"><ele>164.28571428571428</ele><time>2026-03-28T13:24:23.04Z</time></trkpt><trkpt lat="40.1092733" lon="15.23508"><ele>164.14285714285714</ele><time>2026-03-28T13:24:24.041Z</time></trkpt><trkpt lat="40.1092933" lon="15.2349867"><ele>164.0</ele><time>2026-03-28T13:24:25.041Z</time></trkpt><trkpt lat="40.1093" lon="15.2349033"><ele>166.99999999999997</ele><time>2026-03-28T13:24:26.04Z</time></trkpt><trkpt lat="40.1092817" lon="15.2348183"><ele>170.0</ele><time>2026-03-28T13:24:27.04Z</time></trkpt><trkpt lat="40.109255" lon="15.2347383"><ele>173.0</ele><time>2026-03-28T13:24:28.04Z</time></trkpt><trkpt lat="40.109215" lon="15.2346633"><ele>176.0</ele><time>2026-03-28T13:24:29.041Z</time></trkpt><trkpt lat="40.10917" lon="15.2345867"><ele>179.0</ele><time>2026-03-28T13:24:30.04Z</time></trkpt><trkpt lat="40.1091317" lon="15.2345183"><ele>181.99999999999997</ele><time>2026-03-28T13:24:31.041Z</time></trkpt><trkpt lat="40.109105" lon="15.2344367"><ele>185.0</ele><time>2026-03-28T13:24:32.04Z</time></trkpt><trkpt lat="40.1090833" lon="15.234285"><ele>185.83333333333331</ele><time>2026-03-28T13:24:34.041Z</time></trkpt><trkpt lat="40.1090483" lon="15.2341367"><ele>186.66666666666666</ele><time>2026-03-28T13:24:36.041Z</time></trkpt><trkpt lat="40.1090133" lon="15.2340233"><ele>187.5</ele><time>2026-03-28T13:24:38.04Z</time></trkpt><trkpt lat="40.1089933" lon="15.233935"><ele>188.33333333333334</ele><time>2026-03-28T13:24:40.04Z</time></trkpt><trkpt lat="40.1089717" lon="15.2338567"><ele>189.16666666666669</ele><time>2026-03-28T13:24:42.041Z</time></trkpt><trkpt lat="40.10898" lon="15.2337483"><ele>190.0</ele><time>2026-03-28T13:24:45.041Z</time></trkpt><trkpt lat="40.108945" lon="15.2336683"><ele>190.0</ele><time>2026-03-28T13:24:48.04Z</time></trkpt><trkpt lat="40.1088417" lon="15.23364"><ele>190.0</ele><time>2026-03-28T13:24:51.041Z</time></trkpt><trkpt lat="40.108735" lon="15.2336333"><ele>190.0</ele><time>2026-03-28T13:24:53.04Z</time></trkpt><trkpt lat="40.1086467" lon="15.2336283"><ele>190.0</ele><time>2026-03-28T13:24:55.04Z</time></trkpt><trkpt lat="40.108575" lon="15.2336583"><ele>190.0</ele><time>2026-03-28T13:24:58.04Z</time></trkpt><trkpt lat="40.1085117" lon="15.23366"><ele>190.0</ele><time>2026-03-28T13:25:02.041Z</time></trkpt><trkpt lat="40.1085467" lon="15.23375"><ele>190.0</ele><time>2026-03-28T13:41:41.042Z</time></trkpt><trkpt lat="40.1086233" lon="15.233745"><ele>190.0</ele><time>2026-03-28T13:41:58.042Z</time></trkpt><trkpt lat="40.1086683" lon="15.2336867"><ele>190.0</ele><time>2026-03-28T13:42:04.041Z</time></trkpt><trkpt lat="40.1087333" lon="15.2336433"><ele>190.0</ele><time>2026-03-28T13:42:09.041Z</time></trkpt><trkpt lat="40.1088117" lon="15.2336717"><ele>190.0</ele><time>2026-03-28T13:42:12.042Z</time></trkpt><trkpt lat="40.108895" lon="15.2336767"><ele>190.0</ele><time>2026-03-28T13:42:15.041Z</time></trkpt><trkpt lat="40.1089633" lon="15.2336783"><ele>190.0</ele><time>2026-03-28T13:42:17.042Z</time></trkpt><trkpt lat="40.1090617" lon="15.2336333"><ele>188.4</ele><time>2026-03-28T13:42:19.042Z</time></trkpt><trkpt lat="40.10918" lon="15.2335767"><ele>186.8</ele><time>2026-03-28T13:42:21.041Z</time></trkpt><trkpt lat="40.10925" lon="15.2335533"><ele>185.2</ele><time>2026-03-28T13:42:22.042Z</time></trkpt><trkpt lat="40.109325" lon="15.2335167"><ele>183.6</ele><time>2026-03-28T13:42:23.041Z</time></trkpt><trkpt lat="40.1094" lon="15.233475"><ele>182.0</ele><time>2026-03-28T13:42:24.041Z</time></trkpt><trkpt lat="40.1094867" lon="15.23342"><ele>182.0</ele><time>2026-03-28T13:42:25.041Z</time></trkpt><trkpt lat="40.10957" lon="15.233365"><ele>182.0</ele><time>2026-03-28T13:42:26.041Z</time></trkpt><trkpt lat="40.10965" lon="15.2333233"><ele>182.0</ele><time>2026-03-28T13:42:27.041Z</time></trkpt><trkpt lat="40.10974" lon="15.2332867"><ele>182.0</ele><time>2026-03-28T13:42:28.041Z</time></trkpt><trkpt lat="40.1098367" lon="15.2332633"><ele>182.0</ele><time>2026-03-28T13:42:29.042Z</time></trkpt><trkpt lat="40.1099317" lon="15.2332383"><ele>183.33333333333331</ele><time>2026-03-28T13:42:30.042Z</time></trkpt><trkpt lat="40.110025" lon="15.233215"><ele>184.66666666666666</ele><time>2026-03-28T13:42:31.042Z</time></trkpt><trkpt lat="40.1101117" lon="15.233195"><ele>186.0</ele><time>2026-03-28T13:42:32.041Z</time></trkpt><trkpt lat="40.11019" lon="15.23319"><ele>187.33333333333334</ele><time>2026-03-28T13:42:33.041Z</time></trkpt><trkpt lat="40.110275" lon="15.2332017"><ele>188.66666666666669</ele><time>2026-03-28T13:42:34.041Z</time></trkpt><trkpt lat="40.11036" lon="15.233245"><ele>190.0</ele><time>2026-03-28T13:42:35.042Z</time></trkpt><trkpt lat="40.1104867" lon="15.2333217"><ele>190.0</ele><time>2026-03-28T13:42:37.041Z</time></trkpt><trkpt lat="40.110555" lon="15.2333517"><ele>190.0</ele><time>2026-03-28T13:42:38.042Z</time></trkpt><trkpt lat="40.1106267" lon="15.2333567"><ele>190.0</ele><time>2026-03-28T13:42:39.041Z</time></trkpt><trkpt lat="40.1106967" lon="15.23332"><ele>190.0</ele><time>2026-03-28T13:42:40.041Z</time></trkpt><trkpt lat="40.1107733" lon="15.2332767"><ele>190.0</ele><time>2026-03-28T13:42:41.041Z</time></trkpt><trkpt lat="40.1108567" lon="15.2332267"><ele>190.0</ele><time>2026-03-28T13:42:42.042Z</time></trkpt><trkpt lat="40.110925" lon="15.2331483"><ele>188.33333333333334</ele><time>2026-03-28T13:42:43.041Z</time></trkpt><trkpt lat="40.1109967" lon="15.2330733"><ele>186.66666666666669</ele><time>2026-03-28T13:42:44.041Z</time></trkpt><trkpt lat="40.1110717" lon="15.2330083"><ele>185.0</ele><time>2026-03-28T13:42:45.041Z</time></trkpt><trkpt lat="40.11114" lon="15.2329383"><ele>183.33333333333334</ele><time>2026-03-28T13:42:46.042Z</time></trkpt><trkpt lat="40.111185" lon="15.2328533"><ele>181.66666666666666</ele><time>2026-03-28T13:42:47.042Z</time></trkpt><trkpt lat="40.111215" lon="15.2327667"><ele>180.0</ele><time>2026-03-28T13:42:48.042Z</time></trkpt><trkpt lat="40.1112133" lon="15.2326783"><ele>180.0</ele><time>2026-03-28T13:42:49.041Z</time></trkpt><trkpt lat="40.111185" lon="15.2326033"><ele>180.0</ele><time>2026-03-28T13:42:50.042Z</time></trkpt><trkpt lat="40.1111333" lon="15.2325383"><ele>180.0</ele><time>2026-03-28T13:42:51.042Z</time></trkpt><trkpt lat="40.1110683" lon="15.2324733"><ele>180.0</ele><time>2026-03-28T13:42:52.042Z</time></trkpt><trkpt lat="40.1109917" lon="15.2324"><ele>180.0</ele><time>2026-03-28T13:42:53.041Z</time></trkpt><trkpt lat="40.1109117" lon="15.2323133"><ele>180.0</ele><time>2026-03-28T13:42:54.042Z</time></trkpt><trkpt lat="40.11082" lon="15.2322317"><ele>179.2</ele><time>2026-03-28T13:42:55.041Z</time></trkpt><trkpt lat="40.11072" lon="15.2321767"><ele>178.4</ele><time>2026-03-28T13:42:56.042Z</time></trkpt><trkpt lat="40.1106133" lon="15.2321333"><ele>177.60000000000002</ele><time>2026-03-28T13:42:57.042Z</time></trkpt><trkpt lat="40.1105183" lon="15.2320633"><ele>176.8</ele><time>2026-03-28T13:42:58.042Z</time></trkpt><trkpt lat="40.1104483" lon="15.2319817"><ele>176.0</ele><time>2026-03-28T13:42:59.041Z</time></trkpt><trkpt lat="40.1103983" lon="15.2318717"><ele>176.0</ele><time>2026-03-28T13:43:00.041Z</time></trkpt><trkpt lat="40.1103583" lon="15.2317433"><ele>176.0</ele><time>2026-03-28T13:43:01.042Z</time></trkpt><trkpt lat="40.1103" lon="15.23161"><ele>176.0</ele><time>2026-03-28T13:43:02.041Z</time></trkpt><trkpt lat="40.1102233" lon="15.2314933"><ele>176.0</ele><time>2026-03-28T13:43:03.042Z</time></trkpt><trkpt lat="40.11013" lon="15.2313867"><ele>176.25</ele><time>2026-03-28T13:43:04.041Z</time></trkpt><trkpt lat="40.11003" lon="15.2312967"><ele>176.5</ele><time>2026-03-28T13:43:05.041Z</time></trkpt><trkpt lat="40.10992" lon="15.2312083"><ele>176.75</ele><time>2026-03-28T13:43:06.041Z</time></trkpt><trkpt lat="40.1098167" lon="15.2311233"><ele>177.0</ele><time>2026-03-28T13:43:07.042Z</time></trkpt><trkpt lat="40.1097217" lon="15.23104"><ele>177.0</ele><time>2026-03-28T13:43:08.042Z</time></trkpt><trkpt lat="40.1096183" lon="15.230965"><ele>177.0</ele><time>2026-03-28T13:43:09.041Z</time></trkpt><trkpt lat="40.1095233" lon="15.2308817"><ele>177.0</ele><time>2026-03-28T13:43:10.041Z</time></trkpt><trkpt lat="40.1094317" lon="15.2307833"><ele>177.0</ele><time>2026-03-28T13:43:11.041Z</time></trkpt><trkpt lat="40.109355" lon="15.2307"><ele>180.39999999999998</ele><time>2026-03-28T13:43:12.041Z</time></trkpt><trkpt lat="40.1093" lon="15.2306067"><ele>183.79999999999998</ele><time>2026-03-28T13:43:13.042Z</time></trkpt><trkpt lat="40.10927" lon="15.2304783"><ele>187.2</ele><time>2026-03-28T13:43:14.041Z</time></trkpt><trkpt lat="40.1092467" lon="15.2303333"><ele>190.6</ele><time>2026-03-28T13:43:15.042Z</time></trkpt><trkpt lat="40.1092217" lon="15.2301833"><ele>194.0</ele><time>2026-03-28T13:43:16.042Z</time></trkpt><trkpt lat="40.1091817" lon="15.2300333"><ele>194.0</ele><time>2026-03-28T13:43:17.042Z</time></trkpt><trkpt lat="40.109125" lon="15.2298917"><ele>194.0</ele><time>2026-03-28T13:43:18.041Z</time></trkpt><trkpt lat="40.109045" lon="15.2297583"><ele>194.0</ele><time>2026-03-28T13:43:19.041Z</time></trkpt><trkpt lat="40.108945" lon="15.2296367"><ele>194.0</ele><time>2026-03-28T13:43:20.042Z</time></trkpt><trkpt lat="40.1088517" lon="15.22952"><ele>189.39999999999998</ele><time>2026-03-28T13:43:21.042Z</time></trkpt><trkpt lat="40.1087717" lon="15.2294067"><ele>184.8</ele><time>2026-03-28T13:43:22.042Z</time></trkpt><trkpt lat="40.1087267" lon="15.22932"><ele>180.2</ele><time>2026-03-28T13:43:23.041Z</time></trkpt><trkpt lat="40.10871" lon="15.2292367"><ele>175.60000000000002</ele><time>2026-03-28T13:43:24.041Z</time></trkpt><trkpt lat="40.108805" lon="15.2291"><ele>171.0</ele><time>2026-03-28T13:43:26.041Z</time></trkpt><trkpt lat="40.1088883" lon="15.2290617"><ele>171.0</ele><time>2026-03-28T13:43:27.041Z</time></trkpt><trkpt lat="40.1089783" lon="15.229025"><ele>171.0</ele><time>2026-03-28T13:43:28.041Z</time></trkpt><trkpt lat="40.1090767" lon="15.2289867"><ele>171.0</ele><time>2026-03-28T13:43:29.041Z</time></trkpt><trkpt lat="40.1091883" lon="15.2289383"><ele>171.0</ele><time>2026-03-28T13:43:30.041Z</time></trkpt><trkpt lat="40.1093017" lon="15.2288733"><ele>171.0</ele><time>2026-03-28T13:43:31.041Z</time></trkpt><trkpt lat="40.1094167" lon="15.2288033"><ele>172.25</ele><time>2026-03-28T13:43:32.042Z</time></trkpt><trkpt lat="40.1095283" lon="15.2287133"><ele>173.5</ele><time>2026-03-28T13:43:33.041Z</time></trkpt><trkpt lat="40.1096117" lon="15.2285883"><ele>174.75</ele><time>2026-03-28T13:43:34.041Z</time></trkpt><trkpt lat="40.109685" lon="15.228435"><ele>176.0</ele><time>2026-03-28T13:43:35.042Z</time></trkpt><trkpt lat="40.109735" lon="15.228275"><ele>179.0</ele><time>2026-03-28T13:43:36.041Z</time></trkpt><trkpt lat="40.1097933" lon="15.2281333"><ele>182.0</ele><time>2026-03-28T13:43:37.042Z</time></trkpt><trkpt lat="40.1098817" lon="15.228025"><ele>185.0</ele><time>2026-03-28T13:43:38.041Z</time></trkpt><trkpt lat="40.10999" lon="15.227945"><ele>188.0</ele><time>2026-03-28T13:43:39.041Z</time></trkpt><trkpt lat="40.11011" lon="15.2278683"><ele>188.0</ele><time>2026-03-28T13:43:40.042Z</time></trkpt><trkpt lat="40.1102217" lon="15.2277617"><ele>188.0</ele><time>2026-03-28T13:43:41.041Z</time></trkpt><trkpt lat="40.1103217" lon="15.2276433"><ele>188.0</ele><time>2026-03-28T13:43:42.041Z</time></trkpt><trkpt lat="40.1104317" lon="15.227535"><ele>188.0</ele><time>2026-03-28T13:43:43.042Z</time></trkpt><trkpt lat="40.11056" lon="15.2274533"><ele>188.0</ele><time>2026-03-28T13:43:44.041Z</time></trkpt><trkpt lat="40.1107067" lon="15.2273983"><ele>188.0</ele><time>2026-03-28T13:43:45.042Z</time></trkpt><trkpt lat="40.1108617" lon="15.22734"><ele>188.0</ele><time>2026-03-28T13:43:46.041Z</time></trkpt><trkpt lat="40.1110183" lon="15.2272733"><ele>184.75</ele><time>2026-03-28T13:43:47.042Z</time></trkpt><trkpt lat="40.1111717" lon="15.2272117"><ele>181.5</ele><time>2026-03-28T13:43:48.042Z</time></trkpt><trkpt lat="40.1113117" lon="15.2271583"><ele>178.25</ele><time>2026-03-28T13:43:49.041Z</time></trkpt><trkpt lat="40.1114283" lon="15.2271067"><ele>175.0</ele><time>2026-03-28T13:43:50.042Z</time></trkpt><trkpt lat="40.1115283" lon="15.2270383"><ele>179.8</ele><time>2026-03-28T13:43:51.041Z</time></trkpt><trkpt lat="40.1116117" lon="15.2269467"><ele>184.6</ele><time>2026-03-28T13:43:52.041Z</time></trkpt><trkpt lat="40.1116533" lon="15.2268217"><ele>189.39999999999998</ele><time>2026-03-28T13:43:53.041Z</time></trkpt><trkpt lat="40.1116583" lon="15.2266767"><ele>194.2</ele><time>2026-03-28T13:43:54.042Z</time></trkpt><trkpt lat="40.111635" lon="15.2265183"><ele>199.0</ele><time>2026-03-28T13:43:55.041Z</time></trkpt><trkpt lat="40.11161" lon="15.22635"><ele>199.0</ele><time>2026-03-28T13:43:56.042Z</time></trkpt><trkpt lat="40.1115833" lon="15.226185"><ele>199.0</ele><time>2026-03-28T13:43:57.041Z</time></trkpt><trkpt lat="40.1115467" lon="15.2260317"><ele>199.0</ele><time>2026-03-28T13:43:58.041Z</time></trkpt><trkpt lat="40.111515" lon="15.22589"><ele>199.0</ele><time>2026-03-28T13:43:59.041Z</time></trkpt><trkpt lat="40.1114917" lon="15.225765"><ele>197.28571428571428</ele><time>2026-03-28T13:44:00.042Z</time></trkpt><trkpt lat="40.1114867" lon="15.225655"><ele>195.57142857142856</ele><time>2026-03-28T13:44:01.041Z</time></trkpt><trkpt lat="40.1114933" lon="15.2255583"><ele>193.85714285714283</ele><time>2026-03-28T13:44:02.042Z</time></trkpt><trkpt lat="40.111515" lon="15.225475"><ele>192.14285714285714</ele><time>2026-03-28T13:44:03.041Z</time></trkpt><trkpt lat="40.1115567" lon="15.2254033"><ele>190.42857142857144</ele><time>2026-03-28T13:44:04.041Z</time></trkpt><trkpt lat="40.1116183" lon="15.2253717"><ele>188.7142857142857</ele><time>2026-03-28T13:44:05.042Z</time></trkpt><trkpt lat="40.111685" lon="15.2253733"><ele>187.0</ele><time>2026-03-28T13:44:06.042Z</time></trkpt><trkpt lat="40.11176" lon="15.225415"><ele>187.0</ele><time>2026-03-28T13:44:07.041Z</time></trkpt><trkpt lat="40.1118383" lon="15.2254717"><ele>187.0</ele><time>2026-03-28T13:44:08.041Z</time></trkpt><trkpt lat="40.1119167" lon="15.2255367"><ele>187.0</ele><time>2026-03-28T13:44:09.042Z</time></trkpt><trkpt lat="40.11199" lon="15.22561"><ele>187.0</ele><time>2026-03-28T13:44:10.041Z</time></trkpt><trkpt lat="40.1120733" lon="15.225675"><ele>187.0</ele><time>2026-03-28T13:44:11.041Z</time></trkpt><trkpt lat="40.1121717" lon="15.2257383"><ele>190.0</ele><time>2026-03-28T13:44:12.041Z</time></trkpt><trkpt lat="40.11228" lon="15.2257883"><ele>193.0</ele><time>2026-03-28T13:44:13.042Z</time></trkpt><trkpt lat="40.112395" lon="15.2258333"><ele>196.0</ele><time>2026-03-28T13:44:14.042Z</time></trkpt><trkpt lat="40.1125167" lon="15.225865"><ele>199.0</ele><time>2026-03-28T13:44:15.041Z</time></trkpt><trkpt lat="40.1126467" lon="15.2259033"><ele>199.5</ele><time>2026-03-28T13:44:16.041Z</time></trkpt><trkpt lat="40.1127767" lon="15.2259367"><ele>200.0</ele><time>2026-03-28T13:44:17.041Z</time></trkpt><trkpt lat="40.1129067" lon="15.22597"><ele>200.5</ele><time>2026-03-28T13:44:18.041Z</time></trkpt><trkpt lat="40.11303" lon="15.2259833"><ele>201.0</ele><time>2026-03-28T13:44:19.042Z</time></trkpt><trkpt lat="40.1131517" lon="15.2259867"><ele>200.0</ele><time>2026-03-28T13:44:20.041Z</time></trkpt><trkpt lat="40.1132667" lon="15.22596"><ele>199.0</ele><time>2026-03-28T13:44:21.041Z</time></trkpt><trkpt lat="40.1133733" lon="15.2259233"><ele>198.0</ele><time>2026-03-28T13:44:22.041Z</time></trkpt><trkpt lat="40.113485" lon="15.2258617"><ele>197.0</ele><time>2026-03-28T13:44:23.042Z</time></trkpt><trkpt lat="40.1135933" lon="15.2257633"><ele>190.0</ele><time>2026-03-28T13:44:24.042Z</time></trkpt><trkpt lat="40.11369" lon="15.2256333"><ele>183.0</ele><time>2026-03-28T13:44:25.041Z</time></trkpt><trkpt lat="40.1137883" lon="15.22548"><ele>176.0</ele><time>2026-03-28T13:44:26.041Z</time></trkpt><trkpt lat="40.113885" lon="15.2252983"><ele>176.0</ele><time>2026-03-28T13:44:27.041Z</time></trkpt><trkpt lat="40.1139683" lon="15.2250967"><ele>176.0</ele><time>2026-03-28T13:44:28.041Z</time></trkpt><trkpt lat="40.1140433" lon="15.2248883"><ele>176.0</ele><time>2026-03-28T13:44:29.041Z</time></trkpt><trkpt lat="40.1141217" lon="15.2247017"><ele>178.66666666666666</ele><time>2026-03-28T13:44:30.042Z</time></trkpt><trkpt lat="40.11421" lon="15.2245233"><ele>181.33333333333334</ele><time>2026-03-28T13:44:31.041Z</time></trkpt><trkpt lat="40.11431" lon="15.224355"><ele>184.0</ele><time>2026-03-28T13:44:32.042Z</time></trkpt><trkpt lat="40.11442" lon="15.2241867"><ele>184.0</ele><time>2026-03-28T13:44:33.041Z</time></trkpt><trkpt lat="40.11453" lon="15.2240067"><ele>184.0</ele><time>2026-03-28T13:44:34.042Z</time></trkpt><trkpt lat="40.114635" lon="15.22381"><ele>184.0</ele><time>2026-03-28T13:44:35.041Z</time></trkpt><trkpt lat="40.1147383" lon="15.22362"><ele>182.66666666666669</ele><time>2026-03-28T13:44:36.042Z</time></trkpt><trkpt lat="40.114845" lon="15.2234417"><ele>181.33333333333334</ele><time>2026-03-28T13:44:37.041Z</time></trkpt><trkpt lat="40.1149617" lon="15.2232733"><ele>180.0</ele><time>2026-03-28T13:44:38.041Z</time></trkpt><trkpt lat="40.11508" lon="15.2231067"><ele>180.0</ele><time>2026-03-28T13:44:39.042Z</time></trkpt><trkpt lat="40.1151917" lon="15.2229183"><ele>180.0</ele><time>2026-03-28T13:44:40.042Z</time></trkpt><trkpt lat="40.1152883" lon="15.2227333"><ele>180.0</ele><time>2026-03-28T13:44:41.042Z</time></trkpt><trkpt lat="40.1153783" lon="15.2225483"><ele>180.0</ele><time>2026-03-28T13:44:42.041Z</time></trkpt><trkpt lat="40.11546" lon="15.22237"><ele>180.0</ele><time>2026-03-28T13:44:43.041Z</time></trkpt><trkpt lat="40.1155267" lon="15.222195"><ele>180.0</ele><time>2026-03-28T13:44:44.042Z</time></trkpt><trkpt lat="40.115585" lon="15.2220417"><ele>180.0</ele><time>2026-03-28T13:44:45.041Z</time></trkpt><trkpt lat="40.1156517" lon="15.22192"><ele>180.4</ele><time>2026-03-28T13:44:46.041Z</time></trkpt><trkpt lat="40.115735" lon="15.221845"><ele>180.8</ele><time>2026-03-28T13:44:47.042Z</time></trkpt><trkpt lat="40.1158333" lon="15.22183"><ele>181.2</ele><time>2026-03-28T13:44:48.042Z</time></trkpt><trkpt lat="40.1159433" lon="15.2218517"><ele>181.6</ele><time>2026-03-28T13:44:49.041Z</time></trkpt><trkpt lat="40.1160783" lon="15.2218883"><ele>182.0</ele><time>2026-03-28T13:44:50.042Z</time></trkpt><trkpt lat="40.1162117" lon="15.2219167"><ele>182.0</ele><time>2026-03-28T13:44:51.041Z</time></trkpt><trkpt lat="40.11634" lon="15.22194"><ele>182.0</ele><time>2026-03-28T13:44:52.041Z</time></trkpt><trkpt lat="40.116465" lon="15.221965"><ele>182.0</ele><time>2026-03-28T13:44:53.042Z</time></trkpt><trkpt lat="40.11658" lon="15.2219783"><ele>182.0</ele><time>2026-03-28T13:44:54.042Z</time></trkpt><trkpt lat="40.116685" lon="15.2219467"><ele>183.0</ele><time>2026-03-28T13:44:55.042Z</time></trkpt><trkpt lat="40.116775" lon="15.2218667"><ele>184.0</ele><time>2026-03-28T13:44:56.041Z</time></trkpt><trkpt lat="40.1168483" lon="15.2217533"><ele>185.0</ele><time>2026-03-28T13:44:57.041Z</time></trkpt><trkpt lat="40.1169183" lon="15.2216283"><ele>186.0</ele><time>2026-03-28T13:44:58.041Z</time></trkpt><trkpt lat="40.116975" lon="15.221505"><ele>182.33333333333334</ele><time>2026-03-28T13:44:59.042Z</time></trkpt><trkpt lat="40.117065" lon="15.2214083"><ele>178.66666666666669</ele><time>2026-03-28T13:45:00.041Z</time></trkpt><trkpt lat="40.1172767" lon="15.221235"><ele>175.0</ele><time>2026-03-28T13:45:02.041Z</time></trkpt><trkpt lat="40.1173933" lon="15.2211367"><ele>174.75</ele><time>2026-03-28T13:45:03.042Z</time></trkpt><trkpt lat="40.1175067" lon="15.2210167"><ele>174.5</ele><time>2026-03-28T13:45:04.042Z</time></trkpt><trkpt lat="40.1176167" lon="15.2208867"><ele>174.25</ele><time>2026-03-28T13:45:05.041Z</time></trkpt><trkpt lat="40.11773" lon="15.22075"><ele>174.0</ele><time>2026-03-28T13:45:06.041Z</time></trkpt><trkpt lat="40.117835" lon="15.220605"><ele>174.0</ele><time>2026-03-28T13:45:07.042Z</time></trkpt><trkpt lat="40.11793" lon="15.2204533"><ele>174.0</ele><time>2026-03-28T13:45:08.042Z</time></trkpt><trkpt lat="40.1180133" lon="15.2203033"><ele>174.0</ele><time>2026-03-28T13:45:09.042Z</time></trkpt><trkpt lat="40.1180783" lon="15.22015"><ele>174.0</ele><time>2026-03-28T13:45:10.042Z</time></trkpt><trkpt lat="40.118135" lon="15.2200017"><ele>174.0</ele><time>2026-03-28T13:45:11.042Z</time></trkpt><trkpt lat="40.1182133" lon="15.219865"><ele>174.0</ele><time>2026-03-28T13:45:12.042Z</time></trkpt><trkpt lat="40.118315" lon="15.2197383"><ele>174.0</ele><time>2026-03-28T13:45:13.041Z</time></trkpt><trkpt lat="40.1184383" lon="15.2196183"><ele>174.0</ele><time>2026-03-28T13:45:14.041Z</time></trkpt><trkpt lat="40.1185683" lon="15.2195067"><ele>174.66666666666666</ele><time>2026-03-28T13:45:15.042Z</time></trkpt><trkpt lat="40.11869" lon="15.219405"><ele>175.33333333333331</ele><time>2026-03-28T13:45:16.041Z</time></trkpt><trkpt lat="40.1188283" lon="15.2193133"><ele>176.0</ele><time>2026-03-28T13:45:17.041Z</time></trkpt><trkpt lat="40.1189733" lon="15.2192317"><ele>174.0</ele><time>2026-03-28T13:45:18.041Z</time></trkpt><trkpt lat="40.1191167" lon="15.2191433"><ele>172.0</ele><time>2026-03-28T13:45:19.042Z</time></trkpt><trkpt lat="40.119265" lon="15.2190667"><ele>170.0</ele><time>2026-03-28T13:45:20.041Z</time></trkpt><trkpt lat="40.1194017" lon="15.21897"><ele>170.0</ele><time>2026-03-28T13:45:21.042Z</time></trkpt><trkpt lat="40.11953" lon="15.2188617"><ele>170.0</ele><time>2026-03-28T13:45:22.041Z</time></trkpt><trkpt lat="40.1196567" lon="15.2187467"><ele>170.0</ele><time>2026-03-28T13:45:23.042Z</time></trkpt><trkpt lat="40.1197767" lon="15.218605"><ele>169.33333333333331</ele><time>2026-03-28T13:45:24.042Z</time></trkpt><trkpt lat="40.1199017" lon="15.2184483"><ele>168.66666666666666</ele><time>2026-03-28T13:45:25.042Z</time></trkpt><trkpt lat="40.12003" lon="15.218285"><ele>168.0</ele><time>2026-03-28T13:45:26.041Z</time></trkpt><trkpt lat="40.1201633" lon="15.2181233"><ele>168.0</ele><time>2026-03-28T13:45:27.041Z</time></trkpt><trkpt lat="40.120315" lon="15.21798"><ele>168.0</ele><time>2026-03-28T13:45:28.041Z</time></trkpt><trkpt lat="40.12047" lon="15.2178383"><ele>168.0</ele><time>2026-03-28T13:45:29.041Z</time></trkpt><trkpt lat="40.1206317" lon="15.2176833"><ele>168.66666666666666</ele><time>2026-03-28T13:45:30.042Z</time></trkpt><trkpt lat="40.120775" lon="15.21752"><ele>169.33333333333331</ele><time>2026-03-28T13:45:31.042Z</time></trkpt><trkpt lat="40.1209" lon="15.217355"><ele>170.0</ele><time>2026-03-28T13:45:32.042Z</time></trkpt><trkpt lat="40.121" lon="15.2171783"><ele>170.0</ele><time>2026-03-28T13:45:33.041Z</time></trkpt><trkpt lat="40.1210917" lon="15.2169983"><ele>170.0</ele><time>2026-03-28T13:45:34.042Z</time></trkpt><trkpt lat="40.12118" lon="15.21681"><ele>170.0</ele><time>2026-03-28T13:45:35.041Z</time></trkpt><trkpt lat="40.1212683" lon="15.2166317"><ele>174.66666666666666</ele><time>2026-03-28T13:45:36.041Z</time></trkpt><trkpt lat="40.1213583" lon="15.2164567"><ele>179.33333333333334</ele><time>2026-03-28T13:45:37.041Z</time></trkpt><trkpt lat="40.1214567" lon="15.2162883"><ele>184.0</ele><time>2026-03-28T13:45:38.041Z</time></trkpt><trkpt lat="40.1215717" lon="15.2161467"><ele>184.0</ele><time>2026-03-28T13:45:39.042Z</time></trkpt><trkpt lat="40.121685" lon="15.21601"><ele>184.0</ele><time>2026-03-28T13:45:40.042Z</time></trkpt><trkpt lat="40.1217783" lon="15.2158417"><ele>184.0</ele><time>2026-03-28T13:45:41.041Z</time></trkpt><trkpt lat="40.1218533" lon="15.2156433"><ele>176.33333333333334</ele><time>2026-03-28T13:45:42.041Z</time></trkpt><trkpt lat="40.121935" lon="15.2154567"><ele>168.66666666666666</ele><time>2026-03-28T13:45:43.042Z</time></trkpt><trkpt lat="40.1220317" lon="15.2153"><ele>161.0</ele><time>2026-03-28T13:45:44.041Z</time></trkpt><trkpt lat="40.122155" lon="15.2151583"><ele>161.0</ele><time>2026-03-28T13:45:45.042Z</time></trkpt><trkpt lat="40.1222867" lon="15.2150367"><ele>161.0</ele><time>2026-03-28T13:45:46.042Z</time></trkpt><trkpt lat="40.1224317" lon="15.2149233"><ele>161.0</ele><time>2026-03-28T13:45:47.042Z</time></trkpt><trkpt lat="40.122575" lon="15.2148"><ele>164.0</ele><time>2026-03-28T13:45:48.042Z</time></trkpt><trkpt lat="40.12272" lon="15.214675"><ele>167.0</ele><time>2026-03-28T13:45:49.041Z</time></trkpt><trkpt lat="40.1228733" lon="15.214545"><ele>170.0</ele><time>2026-03-28T13:45:50.042Z</time></trkpt><trkpt lat="40.123015" lon="15.2144"><ele>170.0</ele><time>2026-03-28T13:45:51.041Z</time></trkpt><trkpt lat="40.1231467" lon="15.2142417"><ele>170.0</ele><time>2026-03-28T13:45:52.041Z</time></trkpt><trkpt lat="40.1232683" lon="15.2140717"><ele>170.0</ele><time>2026-03-28T13:45:53.041Z</time></trkpt><trkpt lat="40.1233983" lon="15.2139117"><ele>171.25</ele><time>2026-03-28T13:45:54.042Z</time></trkpt><trkpt lat="40.1235167" lon="15.2137633"><ele>172.5</ele><time>2026-03-28T13:45:55.042Z</time></trkpt><trkpt lat="40.12362" lon="15.21362"><ele>173.75</ele><time>2026-03-28T13:45:56.041Z</time></trkpt><trkpt lat="40.12371" lon="15.2135033"><ele>175.0</ele><time>2026-03-28T13:45:57.041Z</time></trkpt><trkpt lat="40.12379" lon="15.2134117"><ele>175.0</ele><time>2026-03-28T13:45:58.042Z</time></trkpt><trkpt lat="40.1238717" lon="15.2133433"><ele>175.0</ele><time>2026-03-28T13:45:59.041Z</time></trkpt><trkpt lat="40.123935" lon="15.2133017"><ele>175.0</ele><time>2026-03-28T13:46:00.041Z</time></trkpt><trkpt lat="40.12408" lon="15.213325"><ele>175.0</ele><time>2026-03-28T13:46:02.041Z</time></trkpt><trkpt lat="40.124175" lon="15.2133883"><ele>175.0</ele><time>2026-03-28T13:46:03.041Z</time></trkpt><trkpt lat="40.1242767" lon="15.2134583"><ele>176.8</ele><time>2026-03-28T13:46:04.041Z</time></trkpt><trkpt lat="40.1243733" lon="15.21351"><ele>178.6</ele><time>2026-03-28T13:46:05.041Z</time></trkpt><trkpt lat="40.12447" lon="15.2135117"><ele>180.39999999999998</ele><time>2026-03-28T13:46:06.042Z</time></trkpt><trkpt lat="40.1245633" lon="15.2134567"><ele>182.2</ele><time>2026-03-28T13:46:07.041Z</time></trkpt><trkpt lat="40.1246533" lon="15.2133367"><ele>184.0</ele><time>2026-03-28T13:46:08.041Z</time></trkpt><trkpt lat="40.1247333" lon="15.2131733"><ele>180.0</ele><time>2026-03-28T13:46:09.041Z</time></trkpt><trkpt lat="40.124785" lon="15.2129867"><ele>176.0</ele><time>2026-03-28T13:46:10.042Z</time></trkpt><trkpt lat="40.1248067" lon="15.2127883"><ele>172.0</ele><time>2026-03-28T13:46:11.041Z</time></trkpt><trkpt lat="40.12481" lon="15.2125767"><ele>172.0</ele><time>2026-03-28T13:46:12.042Z</time></trkpt><trkpt lat="40.124815" lon="15.2123867"><ele>172.0</ele><time>2026-03-28T13:46:13.041Z</time></trkpt><trkpt lat="40.1248133" lon="15.2122117"><ele>172.0</ele><time>2026-03-28T13:46:14.042Z</time></trkpt><trkpt lat="40.1248383" lon="15.212075"><ele>172.0</ele><time>2026-03-28T13:46:15.041Z</time></trkpt><trkpt lat="40.12488" lon="15.2119567"><ele>173.5</ele><time>2026-03-28T13:46:16.042Z</time></trkpt><trkpt lat="40.1249433" lon="15.21184"><ele>175.0</ele><time>2026-03-28T13:46:17.041Z</time></trkpt><trkpt lat="40.1250233" lon="15.2117167"><ele>176.5</ele><time>2026-03-28T13:46:18.041Z</time></trkpt><trkpt lat="40.1251117" lon="15.2115817"><ele>178.0</ele><time>2026-03-28T13:46:19.042Z</time></trkpt><trkpt lat="40.1251983" lon="15.21143"><ele>170.0</ele><time>2026-03-28T13:46:20.042Z</time></trkpt><trkpt lat="40.1252883" lon="15.2112733"><ele>162.0</ele><time>2026-03-28T13:46:21.041Z</time></trkpt><trkpt lat="40.1253917" lon="15.2111083"><ele>154.0</ele><time>2026-03-28T13:46:22.041Z</time></trkpt><trkpt lat="40.1254867" lon="15.21093"><ele>154.0</ele><time>2026-03-28T13:46:23.041Z</time></trkpt><trkpt lat="40.12557" lon="15.2107267"><ele>154.0</ele><time>2026-03-28T13:46:24.041Z</time></trkpt><trkpt lat="40.1256433" lon="15.2105267"><ele>154.0</ele><time>2026-03-28T13:46:25.042Z</time></trkpt><trkpt lat="40.1256983" lon="15.210315"><ele>160.66666666666669</ele><time>2026-03-28T13:46:26.041Z</time></trkpt><trkpt lat="40.1257433" lon="15.2101033"><ele>167.33333333333334</ele><time>2026-03-28T13:46:27.041Z</time></trkpt><trkpt lat="40.12579" lon="15.20989"><ele>174.0</ele><time>2026-03-28T13:46:28.042Z</time></trkpt><trkpt lat="40.12582" lon="15.2096833"><ele>174.0</ele><time>2026-03-28T13:46:29.042Z</time></trkpt><trkpt lat="40.1258417" lon="15.2094717"><ele>174.0</ele><time>2026-03-28T13:46:30.041Z</time></trkpt><trkpt lat="40.125865" lon="15.2092683"><ele>174.0</ele><time>2026-03-28T13:46:31.041Z</time></trkpt><trkpt lat="40.12589" lon="15.2090817"><ele>169.75</ele><time>2026-03-28T13:46:32.042Z</time></trkpt><trkpt lat="40.1259233" lon="15.208905"><ele>165.5</ele><time>2026-03-28T13:46:33.042Z</time></trkpt><trkpt lat="40.1259483" lon="15.20874"><ele>161.25</ele><time>2026-03-28T13:46:34.042Z</time></trkpt><trkpt lat="40.1259867" lon="15.2085983"><ele>157.0</ele><time>2026-03-28T13:46:35.041Z</time></trkpt><trkpt lat="40.1260383" lon="15.2084633"><ele>157.0</ele><time>2026-03-28T13:46:36.041Z</time></trkpt><trkpt lat="40.12611" lon="15.20834"><ele>157.0</ele><time>2026-03-28T13:46:37.041Z</time></trkpt><trkpt lat="40.1262017" lon="15.208235"><ele>157.0</ele><time>2026-03-28T13:46:38.042Z</time></trkpt><trkpt lat="40.1263083" lon="15.2081317"><ele>157.0</ele><time>2026-03-28T13:46:39.041Z</time></trkpt><trkpt lat="40.1264033" lon="15.2079967"><ele>152.25</ele><time>2026-03-28T13:46:40.042Z</time></trkpt><trkpt lat="40.1264817" lon="15.207845"><ele>147.5</ele><time>2026-03-28T13:46:41.041Z</time></trkpt><trkpt lat="40.1265467" lon="15.20769"><ele>142.75</ele><time>2026-03-28T13:46:42.042Z</time></trkpt><trkpt lat="40.126615" lon="15.207545"><ele>138.0</ele><time>2026-03-28T13:46:43.042Z</time></trkpt><trkpt lat="40.1266833" lon="15.2074"><ele>144.0</ele><time>2026-03-28T13:46:44.041Z</time></trkpt><trkpt lat="40.1267483" lon="15.2072467"><ele>150.0</ele><time>2026-03-28T13:46:45.041Z</time></trkpt><trkpt lat="40.1268033" lon="15.2070767"><ele>156.0</ele><time>2026-03-28T13:46:46.042Z</time></trkpt><trkpt lat="40.126845" lon="15.206875"><ele>162.0</ele><time>2026-03-28T13:46:47.042Z</time></trkpt><trkpt lat="40.12688" lon="15.20665"><ele>159.0</ele><time>2026-03-28T13:46:48.042Z</time></trkpt><trkpt lat="40.12691" lon="15.2064167"><ele>156.0</ele><time>2026-03-28T13:46:49.041Z</time></trkpt><trkpt lat="40.1269417" lon="15.2061683"><ele>153.0</ele><time>2026-03-28T13:46:50.041Z</time></trkpt><trkpt lat="40.1269867" lon="15.2059267"><ele>153.0</ele><time>2026-03-28T13:46:51.042Z</time></trkpt><trkpt lat="40.127015" lon="15.20569"><ele>153.0</ele><time>2026-03-28T13:46:52.041Z</time></trkpt><trkpt lat="40.1270367" lon="15.2054783"><ele>153.0</ele><time>2026-03-28T13:46:53.042Z</time></trkpt><trkpt lat="40.1270583" lon="15.2052683"><ele>153.0</ele><time>2026-03-28T13:46:54.041Z</time></trkpt><trkpt lat="40.12705" lon="15.20505"><ele>153.0</ele><time>2026-03-28T13:46:55.041Z</time></trkpt><trkpt lat="40.12702" lon="15.2048333"><ele>153.0</ele><time>2026-03-28T13:46:56.041Z</time></trkpt><trkpt lat="40.12699" lon="15.20463"><ele>151.5</ele><time>2026-03-28T13:46:57.041Z</time></trkpt><trkpt lat="40.1269767" lon="15.2044517"><ele>150.0</ele><time>2026-03-28T13:46:58.041Z</time></trkpt><trkpt lat="40.1269933" lon="15.204275"><ele>148.5</ele><time>2026-03-28T13:46:59.041Z</time></trkpt><trkpt lat="40.1270183" lon="15.204095"><ele>147.0</ele><time>2026-03-28T13:47:00.041Z</time></trkpt><trkpt lat="40.1270417" lon="15.20392"><ele>146.75</ele><time>2026-03-28T13:47:01.042Z</time></trkpt><trkpt lat="40.1270533" lon="15.2037517"><ele>146.5</ele><time>2026-03-28T13:47:02.041Z</time></trkpt><trkpt lat="40.127055" lon="15.2035817"><ele>146.25</ele><time>2026-03-28T13:47:03.042Z</time></trkpt><trkpt lat="40.12705" lon="15.2034083"><ele>146.0</ele><time>2026-03-28T13:47:04.042Z</time></trkpt><trkpt lat="40.127025" lon="15.20324"><ele>146.75</ele><time>2026-03-28T13:47:05.042Z</time></trkpt><trkpt lat="40.1269833" lon="15.203075"><ele>147.5</ele><time>2026-03-28T13:47:06.041Z</time></trkpt><trkpt lat="40.1269467" lon="15.2028933"><ele>148.25</ele><time>2026-03-28T13:47:07.042Z</time></trkpt><trkpt lat="40.126945" lon="15.2027167"><ele>149.0</ele><time>2026-03-28T13:47:08.041Z</time></trkpt><trkpt lat="40.1269617" lon="15.2025233"><ele>147.33333333333331</ele><time>2026-03-28T13:47:09.041Z</time></trkpt><trkpt lat="40.1269867" lon="15.202305"><ele>145.66666666666666</ele><time>2026-03-28T13:47:10.041Z</time></trkpt><trkpt lat="40.127005" lon="15.2020767"><ele>144.0</ele><time>2026-03-28T13:47:11.041Z</time></trkpt><trkpt lat="40.1270167" lon="15.2018217"><ele>144.0</ele><time>2026-03-28T13:47:12.042Z</time></trkpt><trkpt lat="40.12701" lon="15.2015767"><ele>144.0</ele><time>2026-03-28T13:47:13.041Z</time></trkpt><trkpt lat="40.127" lon="15.201345"><ele>144.0</ele><time>2026-03-28T13:47:14.041Z</time></trkpt><trkpt lat="40.12699" lon="15.2011383"><ele>144.0</ele><time>2026-03-28T13:47:15.042Z</time></trkpt><trkpt lat="40.12699" lon="15.20094"><ele>144.0</ele><time>2026-03-28T13:47:16.041Z</time></trkpt><trkpt lat="40.1269883" lon="15.2007483"><ele>144.0</ele><time>2026-03-28T13:47:17.041Z</time></trkpt><trkpt lat="40.1269933" lon="15.20055"><ele>142.33333333333334</ele><time>2026-03-28T13:47:18.042Z</time></trkpt><trkpt lat="40.1270083" lon="15.200345"><ele>140.66666666666669</ele><time>2026-03-28T13:47:19.041Z</time></trkpt><trkpt lat="40.127025" lon="15.2001283"><ele>139.0</ele><time>2026-03-28T13:47:20.042Z</time></trkpt><trkpt lat="40.1270333" lon="15.1999033"><ele>137.33333333333334</ele><time>2026-03-28T13:47:21.041Z</time></trkpt><trkpt lat="40.12704" lon="15.19969"><ele>135.66666666666666</ele><time>2026-03-28T13:47:22.041Z</time></trkpt><trkpt lat="40.1270467" lon="15.19948"><ele>134.0</ele><time>2026-03-28T13:47:23.042Z</time></trkpt><trkpt lat="40.1270517" lon="15.19929"><ele>134.0</ele><time>2026-03-28T13:47:24.041Z</time></trkpt><trkpt lat="40.1270483" lon="15.1991133"><ele>134.0</ele><time>2026-03-28T13:47:25.041Z</time></trkpt><trkpt lat="40.1270383" lon="15.19895"><ele>134.0</ele><time>2026-03-28T13:47:26.042Z</time></trkpt><trkpt lat="40.127015" lon="15.1988167"><ele>134.0</ele><time>2026-03-28T13:47:27.041Z</time></trkpt><trkpt lat="40.127" lon="15.19869"><ele>134.2</ele><time>2026-03-28T13:47:28.042Z</time></trkpt><trkpt lat="40.1269867" lon="15.19856"><ele>134.4</ele><time>2026-03-28T13:47:29.042Z</time></trkpt><trkpt lat="40.12698" lon="15.198425"><ele>134.6</ele><time>2026-03-28T13:47:30.041Z</time></trkpt><trkpt lat="40.1269783" lon="15.1983067"><ele>134.8</ele><time>2026-03-28T13:47:31.041Z</time></trkpt><trkpt lat="40.1269717" lon="15.19819"><ele>135.0</ele><time>2026-03-28T13:47:32.041Z</time></trkpt><trkpt lat="40.1269633" lon="15.1980583"><ele>135.2</ele><time>2026-03-28T13:47:33.041Z</time></trkpt><trkpt lat="40.1269667" lon="15.1979167"><ele>135.4</ele><time>2026-03-28T13:47:34.041Z</time></trkpt><trkpt lat="40.126965" lon="15.19778"><ele>135.6</ele><time>2026-03-28T13:47:35.041Z</time></trkpt><trkpt lat="40.12696" lon="15.19764"><ele>135.8</ele><time>2026-03-28T13:47:36.041Z</time></trkpt><trkpt lat="40.1269467" lon="15.1974967"><ele>136.0</ele><time>2026-03-28T13:47:37.042Z</time></trkpt><trkpt lat="40.1269367" lon="15.1973483"><ele>134.6</ele><time>2026-03-28T13:47:38.042Z</time></trkpt><trkpt lat="40.1269267" lon="15.1972133"><ele>133.2</ele><time>2026-03-28T13:47:39.042Z</time></trkpt><trkpt lat="40.1269133" lon="15.1970833"><ele>131.8</ele><time>2026-03-28T13:47:40.041Z</time></trkpt><trkpt lat="40.126895" lon="15.1969567"><ele>130.4</ele><time>2026-03-28T13:47:41.041Z</time></trkpt><trkpt lat="40.1268783" lon="15.1968233"><ele>129.0</ele><time>2026-03-28T13:47:42.042Z</time></trkpt><trkpt lat="40.1268683" lon="15.1967"><ele>129.0</ele><time>2026-03-28T13:47:43.041Z</time></trkpt><trkpt lat="40.12687" lon="15.1965867"><ele>129.0</ele><time>2026-03-28T13:47:44.041Z</time></trkpt><trkpt lat="40.1268867" lon="15.1964767"><ele>129.0</ele><time>2026-03-28T13:47:45.041Z</time></trkpt><trkpt lat="40.1269233" lon="15.1963767"><ele>129.0</ele><time>2026-03-28T13:47:46.042Z</time></trkpt><trkpt lat="40.1269833" lon="15.1962767"><ele>129.0</ele><time>2026-03-28T13:47:47.042Z</time></trkpt><trkpt lat="40.1270733" lon="15.1961717"><ele>123.80000000000001</ele><time>2026-03-28T13:47:48.041Z</time></trkpt><trkpt lat="40.1271717" lon="15.1960967"><ele>118.60000000000001</ele><time>2026-03-28T13:47:49.042Z</time></trkpt><trkpt lat="40.1272667" lon="15.1960467"><ele>113.4</ele><time>2026-03-28T13:47:50.041Z</time></trkpt><trkpt lat="40.12735" lon="15.1960417"><ele>108.2</ele><time>2026-03-28T13:47:51.041Z</time></trkpt><trkpt lat="40.1274317" lon="15.1960783"><ele>103.0</ele><time>2026-03-28T13:47:52.042Z</time></trkpt><trkpt lat="40.1275117" lon="15.19614"><ele>103.00000000000001</ele><time>2026-03-28T13:47:53.041Z</time></trkpt><trkpt lat="40.1275817" lon="15.1962233"><ele>103.0</ele><time>2026-03-28T13:47:54.041Z</time></trkpt><trkpt lat="40.1276467" lon="15.196315"><ele>103.0</ele><time>2026-03-28T13:47:55.041Z</time></trkpt><trkpt lat="40.127705" lon="15.1963933"><ele>103.0</ele><time>2026-03-28T13:47:56.041Z</time></trkpt><trkpt lat="40.1277617" lon="15.1964567"><ele>103.00000000000001</ele><time>2026-03-28T13:47:57.042Z</time></trkpt><trkpt lat="40.1278267" lon="15.1965067"><ele>103.0</ele><time>2026-03-28T13:47:58.041Z</time></trkpt><trkpt lat="40.1279" lon="15.196535"><ele>106.83333333333334</ele><time>2026-03-28T13:47:59.041Z</time></trkpt><trkpt lat="40.127985" lon="15.1965467"><ele>110.66666666666667</ele><time>2026-03-28T13:48:00.042Z</time></trkpt><trkpt lat="40.1280667" lon="15.1965433"><ele>114.5</ele><time>2026-03-28T13:48:01.041Z</time></trkpt><trkpt lat="40.12815" lon="15.19653"><ele>118.33333333333334</ele><time>2026-03-28T13:48:02.041Z</time></trkpt><trkpt lat="40.1282317" lon="15.196525"><ele>122.16666666666667</ele><time>2026-03-28T13:48:03.041Z</time></trkpt><trkpt lat="40.1283083" lon="15.19651"><ele>126.0</ele><time>2026-03-28T13:48:04.042Z</time></trkpt><trkpt lat="40.1283883" lon="15.1965067"><ele>126.0</ele><time>2026-03-28T13:48:05.042Z</time></trkpt><trkpt lat="40.128475" lon="15.196485"><ele>126.0</ele><time>2026-03-28T13:48:06.042Z</time></trkpt><trkpt lat="40.128565" lon="15.1964717"><ele>126.0</ele><time>2026-03-28T13:48:07.042Z</time></trkpt><trkpt lat="40.1286567" lon="15.1964667"><ele>126.0</ele><time>2026-03-28T13:48:08.041Z</time></trkpt><trkpt lat="40.1287267" lon="15.1964733"><ele>126.0</ele><time>2026-03-28T13:48:09.042Z</time></trkpt><trkpt lat="40.1287967" lon="15.1965083"><ele>126.0</ele><time>2026-03-28T13:48:10.042Z</time></trkpt><trkpt lat="40.1288717" lon="15.196565"><ele>126.0</ele><time>2026-03-28T13:48:11.042Z</time></trkpt><trkpt lat="40.128935" lon="15.196635"><ele>126.0</ele><time>2026-03-28T13:48:12.041Z</time></trkpt><trkpt lat="40.128985" lon="15.1967233"><ele>126.0</ele><time>2026-03-28T13:48:13.041Z</time></trkpt><trkpt lat="40.1290183" lon="15.1968283"><ele>126.0</ele><time>2026-03-28T13:48:14.041Z</time></trkpt><trkpt lat="40.12904" lon="15.1969417"><ele>126.0</ele><time>2026-03-28T13:48:15.042Z</time></trkpt><trkpt lat="40.12906" lon="15.1970417"><ele>126.0</ele><time>2026-03-28T13:48:16.042Z</time></trkpt><trkpt lat="40.129075" lon="15.1971333"><ele>126.4</ele><time>2026-03-28T13:48:17.041Z</time></trkpt><trkpt lat="40.129105" lon="15.197225"><ele>126.8</ele><time>2026-03-28T13:48:18.041Z</time></trkpt><trkpt lat="40.1291483" lon="15.197325"><ele>127.20000000000002</ele><time>2026-03-28T13:48:19.041Z</time></trkpt><trkpt lat="40.12921" lon="15.1974283"><ele>127.60000000000001</ele><time>2026-03-28T13:48:20.042Z</time></trkpt><trkpt lat="40.1292917" lon="15.1975333"><ele>128.0</ele><time>2026-03-28T13:48:21.041Z</time></trkpt><trkpt lat="40.1293867" lon="15.197655"><ele>128.0</ele><time>2026-03-28T13:48:22.041Z</time></trkpt><trkpt lat="40.1294633" lon="15.1977683"><ele>128.0</ele><time>2026-03-28T13:48:23.041Z</time></trkpt><trkpt lat="40.1295417" lon="15.19786"><ele>128.0</ele><time>2026-03-28T13:48:24.041Z</time></trkpt><trkpt lat="40.12962" lon="15.1979267"><ele>128.0</ele><time>2026-03-28T13:48:25.041Z</time></trkpt><trkpt lat="40.1297033" lon="15.1979667"><ele>128.0</ele><time>2026-03-28T13:48:26.041Z</time></trkpt><trkpt lat="40.1297833" lon="15.1979883"><ele>128.0</ele><time>2026-03-28T13:48:27.042Z</time></trkpt><trkpt lat="40.12988" lon="15.198"><ele>128.0</ele><time>2026-03-28T13:48:28.041Z</time></trkpt><trkpt lat="40.12998" lon="15.1980167"><ele>128.0</ele><time>2026-03-28T13:48:29.042Z</time></trkpt><trkpt lat="40.1300717" lon="15.1980283"><ele>128.0</ele><time>2026-03-28T13:48:30.041Z</time></trkpt><trkpt lat="40.1301767" lon="15.1980183"><ele>128.0</ele><time>2026-03-28T13:48:31.041Z</time></trkpt><trkpt lat="40.130305" lon="15.1980133"><ele>126.25</ele><time>2026-03-28T13:48:32.041Z</time></trkpt><trkpt lat="40.13043" lon="15.19803"><ele>124.5</ele><time>2026-03-28T13:48:33.041Z</time></trkpt><trkpt lat="40.13055" lon="15.198055"><ele>122.75</ele><time>2026-03-28T13:48:34.042Z</time></trkpt><trkpt lat="40.1306783" lon="15.198105"><ele>121.0</ele><time>2026-03-28T13:48:35.042Z</time></trkpt><trkpt lat="40.1308217" lon="15.1982"><ele>121.0</ele><time>2026-03-28T13:48:36.041Z</time></trkpt><trkpt lat="40.1309717" lon="15.198305"><ele>121.0</ele><time>2026-03-28T13:48:37.041Z</time></trkpt><trkpt lat="40.1311167" lon="15.1984117"><ele>121.0</ele><time>2026-03-28T13:48:38.042Z</time></trkpt><trkpt lat="40.1312533" lon="15.19851"><ele>121.0</ele><time>2026-03-28T13:48:39.042Z</time></trkpt><trkpt lat="40.1313717" lon="15.1985917"><ele>121.0</ele><time>2026-03-28T13:48:40.042Z</time></trkpt><trkpt lat="40.1314917" lon="15.1986433"><ele>121.0</ele><time>2026-03-28T13:48:41.041Z</time></trkpt><trkpt lat="40.1316283" lon="15.1986667"><ele>121.0</ele><time>2026-03-28T13:48:42.041Z</time></trkpt><trkpt lat="40.1317933" lon="15.1986817"><ele>113.33333333333334</ele><time>2026-03-28T13:48:43.042Z</time></trkpt><trkpt lat="40.13196" lon="15.1986883"><ele>105.66666666666666</ele><time>2026-03-28T13:48:44.042Z</time></trkpt><trkpt lat="40.1321167" lon="15.1986967"><ele>98.0</ele><time>2026-03-28T13:48:45.041Z</time></trkpt><trkpt lat="40.1322617" lon="15.1987033"><ele>93.80000000000001</ele><time>2026-03-28T13:48:46.042Z</time></trkpt><trkpt lat="40.132395" lon="15.198715"><ele>89.60000000000001</ele><time>2026-03-28T13:48:47.041Z</time></trkpt><trkpt lat="40.1325083" lon="15.19873"><ele>85.4</ele><time>2026-03-28T13:48:48.042Z</time></trkpt><trkpt lat="40.1325967" lon="15.198765"><ele>81.2</ele><time>2026-03-28T13:48:49.042Z</time></trkpt><trkpt lat="40.13267" lon="15.1988267"><ele>77.0</ele><time>2026-03-28T13:48:50.043Z</time></trkpt><trkpt lat="40.1327217" lon="15.1989117"><ele>81.5</ele><time>2026-03-28T13:48:51.042Z</time></trkpt><trkpt lat="40.13275" lon="15.1990133"><ele>86.0</ele><time>2026-03-28T13:48:52.043Z</time></trkpt><trkpt lat="40.1327417" lon="15.19913"><ele>90.5</ele><time>2026-03-28T13:48:53.042Z</time></trkpt><trkpt lat="40.1326633" lon="15.19929"><ele>95.0</ele><time>2026-03-28T13:48:54.043Z</time></trkpt><trkpt lat="40.1325683" lon="15.1994583"><ele>95.0</ele><time>2026-03-28T13:48:55.042Z</time></trkpt><trkpt lat="40.132465" lon="15.1996333"><ele>95.0</ele><time>2026-03-28T13:48:56.042Z</time></trkpt><trkpt lat="40.1323733" lon="15.1998033"><ele>95.0</ele><time>2026-03-28T13:48:57.043Z</time></trkpt><trkpt lat="40.1322933" lon="15.199965"><ele>103.25</ele><time>2026-03-28T13:48:58.042Z</time></trkpt><trkpt lat="40.1322183" lon="15.200115"><ele>111.5</ele><time>2026-03-28T13:48:59.042Z</time></trkpt><trkpt lat="40.1321667" lon="15.200275"><ele>119.75</ele><time>2026-03-28T13:49:00.042Z</time></trkpt><trkpt lat="40.1321517" lon="15.2004383"><ele>128.0</ele><time>2026-03-28T13:49:01.043Z</time></trkpt><trkpt lat="40.132155" lon="15.2005717"><ele>126.4</ele><time>2026-03-28T13:49:02.043Z</time></trkpt><trkpt lat="40.1321617" lon="15.20068"><ele>124.80000000000001</ele><time>2026-03-28T13:49:03.043Z</time></trkpt><trkpt lat="40.1321733" lon="15.20077"><ele>123.2</ele><time>2026-03-28T13:49:04.043Z</time></trkpt><trkpt lat="40.132215" lon="15.200895"><ele>121.6</ele><time>2026-03-28T13:49:06.043Z</time></trkpt><trkpt lat="40.132325" lon="15.2009233"><ele>120.0</ele><time>2026-03-28T13:50:30.043Z</time></trkpt><trkpt lat="40.1324433" lon="15.200875"><ele>112.4</ele><time>2026-03-28T13:50:32.042Z</time></trkpt><trkpt lat="40.1325333" lon="15.2008317"><ele>104.8</ele><time>2026-03-28T13:50:33.043Z</time></trkpt><trkpt lat="40.132635" lon="15.20078"><ele>97.19999999999999</ele><time>2026-03-28T13:50:34.043Z</time></trkpt><trkpt lat="40.132745" lon="15.2007233"><ele>89.6</ele><time>2026-03-28T13:50:35.043Z</time></trkpt><trkpt lat="40.1328617" lon="15.20067"><ele>82.0</ele><time>2026-03-28T13:50:36.042Z</time></trkpt><trkpt lat="40.13298" lon="15.2006167"><ele>82.0</ele><time>2026-03-28T13:50:37.042Z</time></trkpt><trkpt lat="40.1330933" lon="15.2005617"><ele>82.0</ele><time>2026-03-28T13:50:38.042Z</time></trkpt><trkpt lat="40.1331967" lon="15.200515"><ele>82.0</ele><time>2026-03-28T13:50:39.042Z</time></trkpt><trkpt lat="40.1332867" lon="15.2004633"><ele>82.0</ele><time>2026-03-28T13:50:40.042Z</time></trkpt><trkpt lat="40.1333867" lon="15.2003867"><ele>82.0</ele><time>2026-03-28T13:50:41.042Z</time></trkpt><trkpt lat="40.1334817" lon="15.2002783"><ele>80.0</ele><time>2026-03-28T13:50:42.042Z</time></trkpt><trkpt lat="40.1335767" lon="15.2001417"><ele>78.0</ele><time>2026-03-28T13:50:43.042Z</time></trkpt><trkpt lat="40.1336767" lon="15.1999783"><ele>76.0</ele><time>2026-03-28T13:50:44.043Z</time></trkpt><trkpt lat="40.13378" lon="15.199805"><ele>74.25</ele><time>2026-03-28T13:50:45.042Z</time></trkpt><trkpt lat="40.1338733" lon="15.1996517"><ele>72.5</ele><time>2026-03-28T13:50:46.042Z</time></trkpt><trkpt lat="40.1339433" lon="15.1995067"><ele>70.75</ele><time>2026-03-28T13:50:47.043Z</time></trkpt><trkpt lat="40.133995" lon="15.1993783"><ele>69.0</ele><time>2026-03-28T13:50:48.042Z</time></trkpt><trkpt lat="40.1340617" lon="15.199265"><ele>73.6</ele><time>2026-03-28T13:50:49.043Z</time></trkpt><trkpt lat="40.1341517" lon="15.199185"><ele>78.2</ele><time>2026-03-28T13:50:50.043Z</time></trkpt><trkpt lat="40.1342667" lon="15.199145"><ele>82.8</ele><time>2026-03-28T13:50:51.043Z</time></trkpt><trkpt lat="40.1343767" lon="15.1991317"><ele>87.39999999999999</ele><time>2026-03-28T13:50:52.043Z</time></trkpt><trkpt lat="40.1344633" lon="15.199115"><ele>92.0</ele><time>2026-03-28T13:50:53.042Z</time></trkpt><trkpt lat="40.1345433" lon="15.19907"><ele>92.0</ele><time>2026-03-28T13:50:54.043Z</time></trkpt><trkpt lat="40.134575" lon="15.1989867"><ele>92.0</ele><time>2026-03-28T13:50:55.043Z</time></trkpt><trkpt lat="40.1345567" lon="15.1988683"><ele>92.0</ele><time>2026-03-28T13:50:56.042Z</time></trkpt><trkpt lat="40.1344967" lon="15.1987633"><ele>92.0</ele><time>2026-03-28T13:50:57.043Z</time></trkpt><trkpt lat="40.1344033" lon="15.198675"><ele>92.0</ele><time>2026-03-28T13:50:58.042Z</time></trkpt><trkpt lat="40.1343" lon="15.1986017"><ele>92.0</ele><time>2026-03-28T13:50:59.042Z</time></trkpt><trkpt lat="40.1342133" lon="15.1985017"><ele>92.0</ele><time>2026-03-28T13:51:00.042Z</time></trkpt><trkpt lat="40.1341667" lon="15.1983817"><ele>92.0</ele><time>2026-03-28T13:51:01.042Z</time></trkpt><trkpt lat="40.1341533" lon="15.198245"><ele>92.0</ele><time>2026-03-28T13:51:02.043Z</time></trkpt><trkpt lat="40.1341733" lon="15.1980917"><ele>92.0</ele><time>2026-03-28T13:51:03.043Z</time></trkpt><trkpt lat="40.1342283" lon="15.1979583"><ele>91.66666666666667</ele><time>2026-03-28T13:51:04.042Z</time></trkpt><trkpt lat="40.1343183" lon="15.1978117"><ele>91.33333333333333</ele><time>2026-03-28T13:51:05.043Z</time></trkpt><trkpt lat="40.1344467" lon="15.1976633"><ele>91.0</ele><time>2026-03-28T13:51:06.043Z</time></trkpt><trkpt lat="40.1345867" lon="15.19749"><ele>94.66666666666666</ele><time>2026-03-28T13:51:07.042Z</time></trkpt><trkpt lat="40.1347317" lon="15.1972983"><ele>98.33333333333333</ele><time>2026-03-28T13:51:08.043Z</time></trkpt><trkpt lat="40.1348783" lon="15.1971117"><ele>102.0</ele><time>2026-03-28T13:51:09.042Z</time></trkpt><trkpt lat="40.1350067" lon="15.1969283"><ele>103.0</ele><time>2026-03-28T13:51:10.042Z</time></trkpt><trkpt lat="40.1351183" lon="15.1967683"><ele>104.0</ele><time>2026-03-28T13:51:11.042Z</time></trkpt><trkpt lat="40.1352067" lon="15.1966283"><ele>105.0</ele><time>2026-03-28T13:51:12.043Z</time></trkpt><trkpt lat="40.1352767" lon="15.196515"><ele>106.0</ele><time>2026-03-28T13:51:13.043Z</time></trkpt><trkpt lat="40.1353083" lon="15.19641"><ele>110.0</ele><time>2026-03-28T13:51:14.043Z</time></trkpt><trkpt lat="40.1352983" lon="15.1962983"><ele>114.0</ele><time>2026-03-28T13:51:15.042Z</time></trkpt><trkpt lat="40.135255" lon="15.1962083"><ele>118.0</ele><time>2026-03-28T13:51:16.042Z</time></trkpt><trkpt lat="40.1351833" lon="15.196155"><ele>122.0</ele><time>2026-03-28T13:51:17.043Z</time></trkpt><trkpt lat="40.1350967" lon="15.19617"><ele>126.0</ele><time>2026-03-28T13:51:18.043Z</time></trkpt><trkpt lat="40.1349883" lon="15.1962333"><ele>127.25</ele><time>2026-03-28T13:51:19.042Z</time></trkpt><trkpt lat="40.1348833" lon="15.196325"><ele>128.5</ele><time>2026-03-28T13:51:20.042Z</time></trkpt><trkpt lat="40.134755" lon="15.1964017"><ele>129.75</ele><time>2026-03-28T13:51:21.042Z</time></trkpt><trkpt lat="40.1346183" lon="15.19645"><ele>131.0</ele><time>2026-03-28T13:51:22.043Z</time></trkpt><trkpt lat="40.134465" lon="15.1964717"><ele>131.0</ele><time>2026-03-28T13:51:23.042Z</time></trkpt><trkpt lat="40.1343067" lon="15.1964933"><ele>131.0</ele><time>2026-03-28T13:51:24.042Z</time></trkpt><trkpt lat="40.1341583" lon="15.1964817"><ele>131.0</ele><time>2026-03-28T13:51:25.042Z</time></trkpt><trkpt lat="40.134025" lon="15.1964367"><ele>131.0</ele><time>2026-03-28T13:51:26.043Z</time></trkpt><trkpt lat="40.1339283" lon="15.1963783"><ele>128.8</ele><time>2026-03-28T13:51:27.042Z</time></trkpt><trkpt lat="40.1338717" lon="15.19629"><ele>126.6</ele><time>2026-03-28T13:51:28.042Z</time></trkpt><trkpt lat="40.1338367" lon="15.1961783"><ele>124.4</ele><time>2026-03-28T13:51:29.043Z</time></trkpt><trkpt lat="40.1338217" lon="15.19605"><ele>122.2</ele><time>2026-03-28T13:51:30.042Z</time></trkpt><trkpt lat="40.1337883" lon="15.195935"><ele>120.0</ele><time>2026-03-28T13:51:31.042Z</time></trkpt><trkpt lat="40.1337317" lon="15.19586"><ele>120.0</ele><time>2026-03-28T13:51:32.042Z</time></trkpt><trkpt lat="40.1336533" lon="15.195845"><ele>120.0</ele><time>2026-03-28T13:51:33.043Z</time></trkpt><trkpt lat="40.1335567" lon="15.1958833"><ele>120.0</ele><time>2026-03-28T13:51:34.043Z</time></trkpt><trkpt lat="40.1334467" lon="15.195965"><ele>120.0</ele><time>2026-03-28T13:51:35.042Z</time></trkpt><trkpt lat="40.133325" lon="15.1960583"><ele>120.0</ele><time>2026-03-28T13:51:36.042Z</time></trkpt><trkpt lat="40.133205" lon="15.196095"><ele>117.4</ele><time>2026-03-28T13:51:37.043Z</time></trkpt><trkpt lat="40.133085" lon="15.1960733"><ele>114.8</ele><time>2026-03-28T13:51:38.042Z</time></trkpt><trkpt lat="40.1329817" lon="15.1960167"><ele>112.19999999999999</ele><time>2026-03-28T13:51:39.043Z</time></trkpt><trkpt lat="40.13291" lon="15.1959267"><ele>109.6</ele><time>2026-03-28T13:51:40.042Z</time></trkpt><trkpt lat="40.1328567" lon="15.1958033"><ele>107.0</ele><time>2026-03-28T13:51:41.042Z</time></trkpt><trkpt lat="40.13284" lon="15.1956467"><ele>113.6</ele><time>2026-03-28T13:51:42.043Z</time></trkpt><trkpt lat="40.1328333" lon="15.1954933"><ele>120.19999999999999</ele><time>2026-03-28T13:51:43.042Z</time></trkpt><trkpt lat="40.13281" lon="15.195375"><ele>126.8</ele><time>2026-03-28T13:51:44.043Z</time></trkpt><trkpt lat="40.1327517" lon="15.1952867"><ele>133.4</ele><time>2026-03-28T13:51:45.042Z</time></trkpt><trkpt lat="40.1326617" lon="15.195215"><ele>140.0</ele><time>2026-03-28T13:51:46.042Z</time></trkpt><trkpt lat="40.132515" lon="15.195155"><ele>131.33333333333331</ele><time>2026-03-28T13:51:47.042Z</time></trkpt><trkpt lat="40.1323367" lon="15.1951033"><ele>122.66666666666666</ele><time>2026-03-28T13:51:48.042Z</time></trkpt><trkpt lat="40.1321683" lon="15.195055"><ele>114.0</ele><time>2026-03-28T13:51:49.042Z</time></trkpt><trkpt lat="40.1320317" lon="15.1949717"><ele>114.0</ele><time>2026-03-28T13:51:50.043Z</time></trkpt><trkpt lat="40.1319067" lon="15.1948483"><ele>114.0</ele><time>2026-03-28T13:51:51.042Z</time></trkpt><trkpt lat="40.1317767" lon="15.1946783"><ele>114.0</ele><time>2026-03-28T13:51:52.042Z</time></trkpt><trkpt lat="40.1316333" lon="15.194485"><ele>110.0</ele><time>2026-03-28T13:51:53.043Z</time></trkpt><trkpt lat="40.1315167" lon="15.19432"><ele>106.0</ele><time>2026-03-28T13:51:54.042Z</time></trkpt><trkpt lat="40.1314317" lon="15.1941733"><ele>102.0</ele><time>2026-03-28T13:51:55.043Z</time></trkpt><trkpt lat="40.1313817" lon="15.19402"><ele>98.0</ele><time>2026-03-28T13:51:56.042Z</time></trkpt><trkpt lat="40.131355" lon="15.1938517"><ele>109.0</ele><time>2026-03-28T13:51:57.042Z</time></trkpt><trkpt lat="40.1313333" lon="15.1937067"><ele>120.0</ele><time>2026-03-28T13:51:58.042Z</time></trkpt><trkpt lat="40.1312933" lon="15.1935783"><ele>131.0</ele><time>2026-03-28T13:51:59.043Z</time></trkpt><trkpt lat="40.1312033" lon="15.1934833"><ele>142.0</ele><time>2026-03-28T13:52:00.042Z</time></trkpt><trkpt lat="40.1310733" lon="15.1934267"><ele>142.0</ele><time>2026-03-28T13:52:01.042Z</time></trkpt><trkpt lat="40.1309117" lon="15.1933817"><ele>142.0</ele><time>2026-03-28T13:52:02.042Z</time></trkpt><trkpt lat="40.1307267" lon="15.1932983"><ele>142.0</ele><time>2026-03-28T13:52:03.043Z</time></trkpt><trkpt lat="40.13055" lon="15.1931683"><ele>149.33333333333334</ele><time>2026-03-28T13:52:04.042Z</time></trkpt><trkpt lat="40.1303883" lon="15.1930267"><ele>156.66666666666666</ele><time>2026-03-28T13:52:05.043Z</time></trkpt><trkpt lat="40.1302267" lon="15.1929117"><ele>164.0</ele><time>2026-03-28T13:52:06.042Z</time></trkpt><trkpt lat="40.1300717" lon="15.19282"><ele>164.0</ele><time>2026-03-28T13:52:07.042Z</time></trkpt><trkpt lat="40.1299183" lon="15.192765"><ele>164.0</ele><time>2026-03-28T13:52:08.043Z</time></trkpt><trkpt lat="40.1297683" lon="15.1926767"><ele>164.0</ele><time>2026-03-28T13:52:09.042Z</time></trkpt><trkpt lat="40.1296217" lon="15.1925633"><ele>166.66666666666666</ele><time>2026-03-28T13:52:10.043Z</time></trkpt><trkpt lat="40.1294667" lon="15.1924117"><ele>169.33333333333334</ele><time>2026-03-28T13:52:11.043Z</time></trkpt><trkpt lat="40.12929" lon="15.192245"><ele>172.0</ele><time>2026-03-28T13:52:12.043Z</time></trkpt><trkpt lat="40.1291267" lon="15.1921017"><ele>169.25</ele><time>2026-03-28T13:52:13.043Z</time></trkpt><trkpt lat="40.128985" lon="15.1919933"><ele>166.5</ele><time>2026-03-28T13:52:14.043Z</time></trkpt><trkpt lat="40.1288567" lon="15.1919333"><ele>163.75</ele><time>2026-03-28T13:52:15.042Z</time></trkpt><trkpt lat="40.1287167" lon="15.1919217"><ele>161.0</ele><time>2026-03-28T13:52:16.042Z</time></trkpt><trkpt lat="40.128575" lon="15.1919417"><ele>161.0</ele><time>2026-03-28T13:52:17.042Z</time></trkpt><trkpt lat="40.128415" lon="15.1919167"><ele>161.0</ele><time>2026-03-28T13:52:18.043Z</time></trkpt><trkpt lat="40.12824" lon="15.191855"><ele>161.0</ele><time>2026-03-28T13:52:19.043Z</time></trkpt><trkpt lat="40.12806" lon="15.1917967"><ele>156.25</ele><time>2026-03-28T13:52:20.042Z</time></trkpt><trkpt lat="40.1278917" lon="15.1917467"><ele>151.5</ele><time>2026-03-28T13:52:21.042Z</time></trkpt><trkpt lat="40.1277567" lon="15.1916817"><ele>146.75</ele><time>2026-03-28T13:52:22.042Z</time></trkpt><trkpt lat="40.1276583" lon="15.1916083"><ele>142.0</ele><time>2026-03-28T13:52:23.042Z</time></trkpt><trkpt lat="40.127605" lon="15.19152"><ele>142.0</ele><time>2026-03-28T13:52:24.043Z</time></trkpt><trkpt lat="40.1275783" lon="15.1914133"><ele>142.0</ele><time>2026-03-28T13:52:25.042Z</time></trkpt><trkpt lat="40.1276017" lon="15.1913067"><ele>142.0</ele><time>2026-03-28T13:52:26.042Z</time></trkpt><trkpt lat="40.12766" lon="15.1912017"><ele>142.0</ele><time>2026-03-28T13:52:27.042Z</time></trkpt><trkpt lat="40.127755" lon="15.191095"><ele>142.0</ele><time>2026-03-28T13:52:28.042Z</time></trkpt><trkpt lat="40.1278883" lon="15.1910267"><ele>142.0</ele><time>2026-03-28T13:52:29.042Z</time></trkpt><trkpt lat="40.128055" lon="15.19098"><ele>142.0</ele><time>2026-03-28T13:52:30.042Z</time></trkpt><trkpt lat="40.12825" lon="15.1909383"><ele>142.0</ele><time>2026-03-28T13:52:31.042Z</time></trkpt><trkpt lat="40.1284417" lon="15.1908917"><ele>145.66666666666669</ele><time>2026-03-28T13:52:32.042Z</time></trkpt><trkpt lat="40.128635" lon="15.19081"><ele>149.33333333333334</ele><time>2026-03-28T13:52:33.042Z</time></trkpt><trkpt lat="40.1287933" lon="15.190805"><ele>153.0</ele><time>2026-03-28T13:52:34.042Z</time></trkpt><trkpt lat="40.1289717" lon="15.190835"><ele>156.33333333333334</ele><time>2026-03-28T13:52:35.043Z</time></trkpt><trkpt lat="40.1291583" lon="15.19086"><ele>159.66666666666669</ele><time>2026-03-28T13:52:36.042Z</time></trkpt><trkpt lat="40.1293433" lon="15.1908667"><ele>163.0</ele><time>2026-03-28T13:52:37.043Z</time></trkpt><trkpt lat="40.1295317" lon="15.190855"><ele>163.0</ele><time>2026-03-28T13:52:38.043Z</time></trkpt><trkpt lat="40.1297217" lon="15.1908733"><ele>163.0</ele><time>2026-03-28T13:52:39.043Z</time></trkpt><trkpt lat="40.1299133" lon="15.19092"><ele>163.0</ele><time>2026-03-28T13:52:40.043Z</time></trkpt><trkpt lat="40.1301133" lon="15.1909733"><ele>163.33333333333334</ele><time>2026-03-28T13:52:41.043Z</time></trkpt><trkpt lat="40.1303267" lon="15.1910433"><ele>163.66666666666666</ele><time>2026-03-28T13:52:42.043Z</time></trkpt><trkpt lat="40.1305233" lon="15.1911367"><ele>164.0</ele><time>2026-03-28T13:52:43.043Z</time></trkpt><trkpt lat="40.1307" lon="15.1912133"><ele>166.75</ele><time>2026-03-28T13:52:44.042Z</time></trkpt><trkpt lat="40.1308483" lon="15.1912783"><ele>169.5</ele><time>2026-03-28T13:52:45.043Z</time></trkpt><trkpt lat="40.13098" lon="15.1912983"><ele>172.25</ele><time>2026-03-28T13:52:46.043Z</time></trkpt><trkpt lat="40.13112" lon="15.1912917"><ele>175.0</ele><time>2026-03-28T13:52:47.042Z</time></trkpt><trkpt lat="40.131285" lon="15.1912317"><ele>175.0</ele><time>2026-03-28T13:52:48.043Z</time></trkpt><trkpt lat="40.1314667" lon="15.19115"><ele>175.0</ele><time>2026-03-28T13:52:49.042Z</time></trkpt><trkpt lat="40.1316417" lon="15.19108"><ele>175.0</ele><time>2026-03-28T13:52:50.042Z</time></trkpt><trkpt lat="40.1317833" lon="15.19103"><ele>177.2</ele><time>2026-03-28T13:52:51.042Z</time></trkpt><trkpt lat="40.13188" lon="15.1909733"><ele>179.4</ele><time>2026-03-28T13:52:52.043Z</time></trkpt><trkpt lat="40.131945" lon="15.1909117"><ele>181.60000000000002</ele><time>2026-03-28T13:52:53.043Z</time></trkpt><trkpt lat="40.1319667" lon="15.190805"><ele>183.8</ele><time>2026-03-28T13:52:54.043Z</time></trkpt><trkpt lat="40.1319483" lon="15.1906833"><ele>186.0</ele><time>2026-03-28T13:52:55.043Z</time></trkpt><trkpt lat="40.1319117" lon="15.190565"><ele>185.0</ele><time>2026-03-28T13:52:56.042Z</time></trkpt><trkpt lat="40.1318367" lon="15.190495"><ele>184.0</ele><time>2026-03-28T13:52:57.042Z</time></trkpt><trkpt lat="40.13172" lon="15.1904717"><ele>183.0</ele><time>2026-03-28T13:52:58.042Z</time></trkpt><trkpt lat="40.1315733" lon="15.1904683"><ele>182.0</ele><time>2026-03-28T13:52:59.043Z</time></trkpt><trkpt lat="40.131415" lon="15.190455"><ele>182.0</ele><time>2026-03-28T13:53:00.042Z</time></trkpt><trkpt lat="40.13127" lon="15.1904033"><ele>182.0</ele><time>2026-03-28T13:53:01.043Z</time></trkpt><trkpt lat="40.1311183" lon="15.19032"><ele>182.0</ele><time>2026-03-28T13:53:02.043Z</time></trkpt><trkpt lat="40.1309817" lon="15.1901967"><ele>182.0</ele><time>2026-03-28T13:53:03.042Z</time></trkpt><trkpt lat="40.1308483" lon="15.1900267"><ele>182.0</ele><time>2026-03-28T13:53:04.043Z</time></trkpt><trkpt lat="40.13069" lon="15.1898467"><ele>182.0</ele><time>2026-03-28T13:53:05.042Z</time></trkpt><trkpt lat="40.1305433" lon="15.1896883"><ele>181.0</ele><time>2026-03-28T13:53:06.042Z</time></trkpt><trkpt lat="40.1304267" lon="15.1895617"><ele>180.0</ele><time>2026-03-28T13:53:07.042Z</time></trkpt><trkpt lat="40.1303433" lon="15.1894683"><ele>179.0</ele><time>2026-03-28T13:53:08.043Z</time></trkpt><trkpt lat="40.1303" lon="15.189375"><ele>178.0</ele><time>2026-03-28T13:53:09.043Z</time></trkpt><trkpt lat="40.1302917" lon="15.1892683"><ele>177.0</ele><time>2026-03-28T13:53:10.043Z</time></trkpt><trkpt lat="40.130335" lon="15.18915"><ele>176.66666666666666</ele><time>2026-03-28T13:53:11.042Z</time></trkpt><trkpt lat="40.1304067" lon="15.1890083"><ele>176.33333333333331</ele><time>2026-03-28T13:53:12.042Z</time></trkpt><trkpt lat="40.1305133" lon="15.1888167"><ele>176.0</ele><time>2026-03-28T13:53:13.042Z</time></trkpt><trkpt lat="40.13063" lon="15.1885817"><ele>176.66666666666666</ele><time>2026-03-28T13:53:14.042Z</time></trkpt><trkpt lat="40.1307267" lon="15.1883333"><ele>177.33333333333334</ele><time>2026-03-28T13:53:15.042Z</time></trkpt><trkpt lat="40.1308083" lon="15.1881333"><ele>178.0</ele><time>2026-03-28T13:53:16.043Z</time></trkpt><trkpt lat="40.1308867" lon="15.1879717"><ele>178.0</ele><time>2026-03-28T13:53:17.042Z</time></trkpt><trkpt lat="40.1310117" lon="15.18782"><ele>178.0</ele><time>2026-03-28T13:53:18.043Z</time></trkpt><trkpt lat="40.1311667" lon="15.1876667"><ele>178.0</ele><time>2026-03-28T13:53:19.043Z</time></trkpt><trkpt lat="40.1313267" lon="15.1875167"><ele>178.0</ele><time>2026-03-28T13:53:20.042Z</time></trkpt><trkpt lat="40.1314617" lon="15.1873633"><ele>178.0</ele><time>2026-03-28T13:53:21.043Z</time></trkpt><trkpt lat="40.1315783" lon="15.1872417"><ele>178.0</ele><time>2026-03-28T13:53:22.043Z</time></trkpt><trkpt lat="40.131675" lon="15.187145"><ele>176.2</ele><time>2026-03-28T13:53:23.042Z</time></trkpt><trkpt lat="40.1317583" lon="15.18708"><ele>174.4</ele><time>2026-03-28T13:53:24.043Z</time></trkpt><trkpt lat="40.1318567" lon="15.187065"><ele>172.6</ele><time>2026-03-28T13:53:25.042Z</time></trkpt><trkpt lat="40.1319633" lon="15.18708"><ele>170.79999999999998</ele><time>2026-03-28T13:53:26.042Z</time></trkpt><trkpt lat="40.1320717" lon="15.18711"><ele>169.0</ele><time>2026-03-28T13:53:27.042Z</time></trkpt><trkpt lat="40.1321767" lon="15.187135"><ele>169.0</ele><time>2026-03-28T13:53:28.042Z</time></trkpt><trkpt lat="40.132285" lon="15.187155"><ele>169.0</ele><time>2026-03-28T13:53:29.043Z</time></trkpt><trkpt lat="40.1324017" lon="15.1871867"><ele>169.0</ele><time>2026-03-28T13:53:30.043Z</time></trkpt><trkpt lat="40.13252" lon="15.187215"><ele>169.0</ele><time>2026-03-28T13:53:31.042Z</time></trkpt><trkpt lat="40.1326517" lon="15.1872417"><ele>171.5</ele><time>2026-03-28T13:53:32.043Z</time></trkpt><trkpt lat="40.132775" lon="15.1872733"><ele>174.0</ele><time>2026-03-28T13:53:33.043Z</time></trkpt><trkpt lat="40.1328983" lon="15.18732"><ele>176.5</ele><time>2026-03-28T13:53:34.043Z</time></trkpt><trkpt lat="40.13302" lon="15.1873717"><ele>179.0</ele><time>2026-03-28T13:53:35.042Z</time></trkpt><trkpt lat="40.1331433" lon="15.1874167"><ele>185.75</ele><time>2026-03-28T13:53:36.042Z</time></trkpt><trkpt lat="40.1332717" lon="15.1874917"><ele>192.5</ele><time>2026-03-28T13:53:37.042Z</time></trkpt><trkpt lat="40.13339" lon="15.187555"><ele>199.25</ele><time>2026-03-28T13:53:38.042Z</time></trkpt><trkpt lat="40.133515" lon="15.18759"><ele>206.0</ele><time>2026-03-28T13:53:39.042Z</time></trkpt><trkpt lat="40.1336333" lon="15.1875967"><ele>206.0</ele><time>2026-03-28T13:53:40.042Z</time></trkpt><trkpt lat="40.13376" lon="15.1875633"><ele>206.0</ele><time>2026-03-28T13:53:41.043Z</time></trkpt><trkpt lat="40.1338967" lon="15.18751"><ele>206.0</ele><time>2026-03-28T13:53:42.043Z</time></trkpt><trkpt lat="40.1340283" lon="15.1874883"><ele>206.0</ele><time>2026-03-28T13:53:43.042Z</time></trkpt><trkpt lat="40.13415" lon="15.1874883"><ele>205.75</ele><time>2026-03-28T13:53:44.043Z</time></trkpt><trkpt lat="40.134275" lon="15.1875033"><ele>205.5</ele><time>2026-03-28T13:53:45.043Z</time></trkpt><trkpt lat="40.1343983" lon="15.18752"><ele>205.25</ele><time>2026-03-28T13:53:46.043Z</time></trkpt><trkpt lat="40.13452" lon="15.1875733"><ele>205.0</ele><time>2026-03-28T13:53:47.043Z</time></trkpt><trkpt lat="40.134655" lon="15.1876533"><ele>205.0</ele><time>2026-03-28T13:53:48.042Z</time></trkpt><trkpt lat="40.1347883" lon="15.1877517"><ele>205.0</ele><time>2026-03-28T13:53:49.042Z</time></trkpt><trkpt lat="40.1349167" lon="15.1878633"><ele>205.0</ele><time>2026-03-28T13:53:50.042Z</time></trkpt><trkpt lat="40.13503" lon="15.18796"><ele>205.0</ele><time>2026-03-28T13:53:51.043Z</time></trkpt><trkpt lat="40.1351333" lon="15.18803"><ele>203.8</ele><time>2026-03-28T13:53:52.043Z</time></trkpt><trkpt lat="40.1352283" lon="15.188075"><ele>202.6</ele><time>2026-03-28T13:53:53.042Z</time></trkpt><trkpt lat="40.1353083" lon="15.1881083"><ele>201.39999999999998</ele><time>2026-03-28T13:53:54.042Z</time></trkpt><trkpt lat="40.135395" lon="15.1881317"><ele>200.2</ele><time>2026-03-28T13:53:55.043Z</time></trkpt><trkpt lat="40.135485" lon="15.1881483"><ele>199.0</ele><time>2026-03-28T13:53:56.042Z</time></trkpt><trkpt lat="40.13558" lon="15.18817"><ele>200.2</ele><time>2026-03-28T13:53:57.042Z</time></trkpt><trkpt lat="40.1356817" lon="15.188195"><ele>201.39999999999998</ele><time>2026-03-28T13:53:58.042Z</time></trkpt><trkpt lat="40.135785" lon="15.18822"><ele>202.6</ele><time>2026-03-28T13:53:59.042Z</time></trkpt><trkpt lat="40.1358983" lon="15.18823"><ele>203.8</ele><time>2026-03-28T13:54:00.042Z</time></trkpt><trkpt lat="40.1360133" lon="15.1882617"><ele>205.0</ele><time>2026-03-28T13:54:01.042Z</time></trkpt><trkpt lat="40.136145" lon="15.1883133"><ele>205.0</ele><time>2026-03-28T13:54:02.043Z</time></trkpt><trkpt lat="40.1363033" lon="15.188365"><ele>205.0</ele><time>2026-03-28T13:54:03.042Z</time></trkpt><trkpt lat="40.1364583" lon="15.1884117"><ele>205.0</ele><time>2026-03-28T13:54:04.042Z</time></trkpt><trkpt lat="40.1366117" lon="15.1884517"><ele>205.33333333333331</ele><time>2026-03-28T13:54:05.043Z</time></trkpt><trkpt lat="40.1367667" lon="15.18849"><ele>205.66666666666669</ele><time>2026-03-28T13:54:06.043Z</time></trkpt><trkpt lat="40.136915" lon="15.1885183"><ele>206.0</ele><time>2026-03-28T13:54:07.043Z</time></trkpt><trkpt lat="40.1370683" lon="15.1885567"><ele>206.0</ele><time>2026-03-28T13:54:08.043Z</time></trkpt><trkpt lat="40.137205" lon="15.1885867"><ele>206.0</ele><time>2026-03-28T13:54:09.042Z</time></trkpt><trkpt lat="40.13734" lon="15.188605"><ele>206.0</ele><time>2026-03-28T13:54:10.042Z</time></trkpt><trkpt lat="40.13748" lon="15.18859"><ele>206.0</ele><time>2026-03-28T13:54:11.042Z</time></trkpt><trkpt lat="40.13764" lon="15.188575"><ele>207.0</ele><time>2026-03-28T13:54:12.043Z</time></trkpt><trkpt lat="40.1377917" lon="15.1885767"><ele>208.0</ele><time>2026-03-28T13:54:13.042Z</time></trkpt><trkpt lat="40.137925" lon="15.18859"><ele>209.0</ele><time>2026-03-28T13:54:14.043Z</time></trkpt><trkpt lat="40.1380467" lon="15.188595"><ele>210.0</ele><time>2026-03-28T13:54:15.043Z</time></trkpt><trkpt lat="40.1381367" lon="15.188585"><ele>210.0</ele><time>2026-03-28T13:54:16.043Z</time></trkpt><trkpt lat="40.1382067" lon="15.1885217"><ele>210.0</ele><time>2026-03-28T13:54:17.042Z</time></trkpt><trkpt lat="40.13825" lon="15.188425"><ele>210.0</ele><time>2026-03-28T13:54:18.043Z</time></trkpt><trkpt lat="40.1382667" lon="15.1882967"><ele>210.0</ele><time>2026-03-28T13:54:19.042Z</time></trkpt><trkpt lat="40.1382533" lon="15.18815"><ele>210.0</ele><time>2026-03-28T13:54:20.043Z</time></trkpt><trkpt lat="40.1382367" lon="15.1879883"><ele>208.4</ele><time>2026-03-28T13:54:21.043Z</time></trkpt><trkpt lat="40.1382167" lon="15.1878283"><ele>206.8</ele><time>2026-03-28T13:54:22.043Z</time></trkpt><trkpt lat="40.13821" lon="15.1876833"><ele>205.2</ele><time>2026-03-28T13:54:23.043Z</time></trkpt><trkpt lat="40.1382317" lon="15.1875717"><ele>203.6</ele><time>2026-03-28T13:54:24.043Z</time></trkpt><trkpt lat="40.1382867" lon="15.18748"><ele>202.0</ele><time>2026-03-28T13:54:25.043Z</time></trkpt><trkpt lat="40.1383567" lon="15.1873917"><ele>203.0</ele><time>2026-03-28T13:54:26.043Z</time></trkpt><trkpt lat="40.1384383" lon="15.1873283"><ele>204.0</ele><time>2026-03-28T13:54:27.043Z</time></trkpt><trkpt lat="40.1385283" lon="15.18728"><ele>205.0</ele><time>2026-03-28T13:54:28.042Z</time></trkpt><trkpt lat="40.1386133" lon="15.1872317"><ele>206.0</ele><time>2026-03-28T13:54:29.042Z</time></trkpt><trkpt lat="40.1386967" lon="15.187175"><ele>207.0</ele><time>2026-03-28T13:54:30.043Z</time></trkpt><trkpt lat="40.1387883" lon="15.187115"><ele>207.0</ele><time>2026-03-28T13:54:31.043Z</time></trkpt><trkpt lat="40.1388717" lon="15.1870583"><ele>207.0</ele><time>2026-03-28T13:54:32.043Z</time></trkpt><trkpt lat="40.138955" lon="15.1870067"><ele>207.0</ele><time>2026-03-28T13:54:33.043Z</time></trkpt><trkpt lat="40.1390383" lon="15.1869583"><ele>207.0</ele><time>2026-03-28T13:54:34.043Z</time></trkpt><trkpt lat="40.1391217" lon="15.1869183"><ele>207.0</ele><time>2026-03-28T13:54:35.043Z</time></trkpt><trkpt lat="40.139215" lon="15.186865"><ele>210.6</ele><time>2026-03-28T13:54:36.043Z</time></trkpt><trkpt lat="40.1392883" lon="15.18678"><ele>214.2</ele><time>2026-03-28T13:54:37.042Z</time></trkpt><trkpt lat="40.1393717" lon="15.1867217"><ele>217.8</ele><time>2026-03-28T13:54:38.042Z</time></trkpt><trkpt lat="40.1394567" lon="15.18666"><ele>221.4</ele><time>2026-03-28T13:54:39.043Z</time></trkpt><trkpt lat="40.1395283" lon="15.1866067"><ele>225.0</ele><time>2026-03-28T13:54:40.043Z</time></trkpt><trkpt lat="40.139595" lon="15.18654"><ele>223.2</ele><time>2026-03-28T13:54:41.042Z</time></trkpt><trkpt lat="40.1396533" lon="15.1864667"><ele>221.4</ele><time>2026-03-28T13:54:42.042Z</time></trkpt><trkpt lat="40.1397083" lon="15.1863833"><ele>219.60000000000002</ele><time>2026-03-28T13:54:43.043Z</time></trkpt><trkpt lat="40.13977" lon="15.1862883"><ele>217.8</ele><time>2026-03-28T13:54:44.042Z</time></trkpt><trkpt lat="40.1398233" lon="15.1861817"><ele>216.0</ele><time>2026-03-28T13:54:45.042Z</time></trkpt><trkpt lat="40.139875" lon="15.186065"><ele>216.16666666666666</ele><time>2026-03-28T13:54:46.043Z</time></trkpt><trkpt lat="40.1399183" lon="15.1859483"><ele>216.33333333333331</ele><time>2026-03-28T13:54:47.043Z</time></trkpt><trkpt lat="40.1399667" lon="15.1858367"><ele>216.5</ele><time>2026-03-28T13:54:48.042Z</time></trkpt><trkpt lat="40.1400017" lon="15.1857217"><ele>216.66666666666666</ele><time>2026-03-28T13:54:49.043Z</time></trkpt><trkpt lat="40.1400317" lon="15.185625"><ele>216.83333333333331</ele><time>2026-03-28T13:54:50.043Z</time></trkpt><trkpt lat="40.1400683" lon="15.185545"><ele>217.0</ele><time>2026-03-28T13:54:51.043Z</time></trkpt><trkpt lat="40.14016" lon="15.1854533"><ele>217.0</ele><time>2026-03-28T13:54:53.042Z</time></trkpt><trkpt lat="40.1402617" lon="15.1854517"><ele>217.0</ele><time>2026-03-28T13:54:54.042Z</time></trkpt><trkpt lat="40.140385" lon="15.1854567"><ele>217.0</ele><time>2026-03-28T13:54:55.042Z</time></trkpt><trkpt lat="40.14052" lon="15.1854467"><ele>217.0</ele><time>2026-03-28T13:54:56.043Z</time></trkpt><trkpt lat="40.1406483" lon="15.18543"><ele>216.5</ele><time>2026-03-28T13:54:57.042Z</time></trkpt><trkpt lat="40.14077" lon="15.1854017"><ele>216.0</ele><time>2026-03-28T13:54:58.042Z</time></trkpt><trkpt lat="40.140875" lon="15.1853383"><ele>215.5</ele><time>2026-03-28T13:54:59.043Z</time></trkpt><trkpt lat="40.140975" lon="15.1852517"><ele>215.0</ele><time>2026-03-28T13:55:00.042Z</time></trkpt><trkpt lat="40.14107" lon="15.1851433"><ele>215.0</ele><time>2026-03-28T13:55:01.042Z</time></trkpt><trkpt lat="40.1411583" lon="15.1850167"><ele>215.0</ele><time>2026-03-28T13:55:02.042Z</time></trkpt><trkpt lat="40.1412517" lon="15.184895"><ele>215.0</ele><time>2026-03-28T13:55:03.042Z</time></trkpt><trkpt lat="40.1413633" lon="15.1847683"><ele>215.0</ele><time>2026-03-28T13:55:04.043Z</time></trkpt><trkpt lat="40.14148" lon="15.1846617"><ele>214.25</ele><time>2026-03-28T13:55:05.042Z</time></trkpt><trkpt lat="40.14159" lon="15.1845583"><ele>213.5</ele><time>2026-03-28T13:55:06.042Z</time></trkpt><trkpt lat="40.1416933" lon="15.1844217"><ele>212.75</ele><time>2026-03-28T13:55:07.043Z</time></trkpt><trkpt lat="40.1417867" lon="15.184275"><ele>212.0</ele><time>2026-03-28T13:55:08.042Z</time></trkpt><trkpt lat="40.141845" lon="15.18411"><ele>209.2</ele><time>2026-03-28T13:55:09.042Z</time></trkpt><trkpt lat="40.1419083" lon="15.1839733"><ele>206.39999999999998</ele><time>2026-03-28T13:55:10.042Z</time></trkpt><trkpt lat="40.14197" lon="15.1838517"><ele>203.60000000000002</ele><time>2026-03-28T13:55:11.042Z</time></trkpt><trkpt lat="40.14203" lon="15.1837567"><ele>200.8</ele><time>2026-03-28T13:55:12.043Z</time></trkpt><trkpt lat="40.1420917" lon="15.1837017"><ele>198.0</ele><time>2026-03-28T13:55:13.043Z</time></trkpt><trkpt lat="40.1421567" lon="15.1836883"><ele>198.0</ele><time>2026-03-28T13:55:14.043Z</time></trkpt><trkpt lat="40.1422467" lon="15.18371"><ele>198.0</ele><time>2026-03-28T13:55:15.042Z</time></trkpt><trkpt lat="40.1423417" lon="15.1837683"><ele>198.0</ele><time>2026-03-28T13:55:16.042Z</time></trkpt><trkpt lat="40.14242" lon="15.18381"><ele>198.0</ele><time>2026-03-28T13:55:17.042Z</time></trkpt><trkpt lat="40.1425033" lon="15.1838117"><ele>198.0</ele><time>2026-03-28T13:55:18.042Z</time></trkpt><trkpt lat="40.142585" lon="15.1837617"><ele>199.25</ele><time>2026-03-28T13:55:19.042Z</time></trkpt><trkpt lat="40.1426633" lon="15.1836583"><ele>200.5</ele><time>2026-03-28T13:55:20.042Z</time></trkpt><trkpt lat="40.142725" lon="15.1835033"><ele>201.75</ele><time>2026-03-28T13:55:21.042Z</time></trkpt><trkpt lat="40.14278" lon="15.1833167"><ele>203.0</ele><time>2026-03-28T13:55:22.043Z</time></trkpt><trkpt lat="40.14283" lon="15.18312"><ele>199.75</ele><time>2026-03-28T13:55:23.042Z</time></trkpt><trkpt lat="40.142875" lon="15.1829267"><ele>196.5</ele><time>2026-03-28T13:55:24.042Z</time></trkpt><trkpt lat="40.1429083" lon="15.18276"><ele>193.25</ele><time>2026-03-28T13:55:25.042Z</time></trkpt><trkpt lat="40.1429417" lon="15.18261"><ele>190.0</ele><time>2026-03-28T13:55:26.043Z</time></trkpt><trkpt lat="40.14299" lon="15.1824833"><ele>190.0</ele><time>2026-03-28T13:55:27.043Z</time></trkpt><trkpt lat="40.143045" lon="15.1823717"><ele>190.0</ele><time>2026-03-28T13:55:28.042Z</time></trkpt><trkpt lat="40.1431133" lon="15.1823033"><ele>190.0</ele><time>2026-03-28T13:55:29.043Z</time></trkpt><trkpt lat="40.1431767" lon="15.1822683"><ele>190.0</ele><time>2026-03-28T13:55:30.042Z</time></trkpt><trkpt lat="40.143255" lon="15.1822717"><ele>190.0</ele><time>2026-03-28T13:55:31.043Z</time></trkpt><trkpt lat="40.14336" lon="15.1823417"><ele>192.4</ele><time>2026-03-28T13:55:32.042Z</time></trkpt><trkpt lat="40.1434633" lon="15.1824233"><ele>194.8</ele><time>2026-03-28T13:55:33.042Z</time></trkpt><trkpt lat="40.1435733" lon="15.18247"><ele>197.2</ele><time>2026-03-28T13:55:34.042Z</time></trkpt><trkpt lat="40.143675" lon="15.1824833"><ele>199.6</ele><time>2026-03-28T13:55:35.043Z</time></trkpt><trkpt lat="40.1437767" lon="15.18246"><ele>202.0</ele><time>2026-03-28T13:55:36.042Z</time></trkpt><trkpt lat="40.1438733" lon="15.1823867"><ele>197.5</ele><time>2026-03-28T13:55:37.043Z</time></trkpt><trkpt lat="40.1439617" lon="15.1822783"><ele>193.0</ele><time>2026-03-28T13:55:38.043Z</time></trkpt><trkpt lat="40.1440533" lon="15.1821567"><ele>188.5</ele><time>2026-03-28T13:55:39.043Z</time></trkpt><trkpt lat="40.1441617" lon="15.18204"><ele>184.0</ele><time>2026-03-28T13:55:40.043Z</time></trkpt><trkpt lat="40.1442817" lon="15.18196"><ele>183.75</ele><time>2026-03-28T13:55:41.042Z</time></trkpt><trkpt lat="40.1444167" lon="15.1819183"><ele>183.5</ele><time>2026-03-28T13:55:42.043Z</time></trkpt><trkpt lat="40.14457" lon="15.181915"><ele>183.25</ele><time>2026-03-28T13:55:43.042Z</time></trkpt><trkpt lat="40.1447267" lon="15.1819067"><ele>183.0</ele><time>2026-03-28T13:55:44.042Z</time></trkpt><trkpt lat="40.1448683" lon="15.181905"><ele>183.5</ele><time>2026-03-28T13:55:45.042Z</time></trkpt><trkpt lat="40.1450017" lon="15.1818767"><ele>184.0</ele><time>2026-03-28T13:55:46.043Z</time></trkpt><trkpt lat="40.1451417" lon="15.1818033"><ele>184.5</ele><time>2026-03-28T13:55:47.042Z</time></trkpt><trkpt lat="40.1452767" lon="15.1816967"><ele>185.0</ele><time>2026-03-28T13:55:48.042Z</time></trkpt><trkpt lat="40.14542" lon="15.1815733"><ele>183.66666666666666</ele><time>2026-03-28T13:55:49.043Z</time></trkpt><trkpt lat="40.1455633" lon="15.181455"><ele>182.33333333333334</ele><time>2026-03-28T13:55:50.042Z</time></trkpt><trkpt lat="40.1456967" lon="15.18133"><ele>181.0</ele><time>2026-03-28T13:55:51.042Z</time></trkpt><trkpt lat="40.145815" lon="15.1811983"><ele>181.0</ele><time>2026-03-28T13:55:52.043Z</time></trkpt><trkpt lat="40.1459167" lon="15.1810583"><ele>181.0</ele><time>2026-03-28T13:55:53.042Z</time></trkpt><trkpt lat="40.1460033" lon="15.1809167"><ele>181.0</ele><time>2026-03-28T13:55:54.042Z</time></trkpt><trkpt lat="40.1460733" lon="15.1807667"><ele>181.0</ele><time>2026-03-28T13:55:55.042Z</time></trkpt><trkpt lat="40.1461283" lon="15.1806133"><ele>177.25</ele><time>2026-03-28T13:55:56.042Z</time></trkpt><trkpt lat="40.1461767" lon="15.1804617"><ele>173.5</ele><time>2026-03-28T13:55:57.042Z</time></trkpt><trkpt lat="40.14622" lon="15.180315"><ele>169.75</ele><time>2026-03-28T13:55:58.043Z</time></trkpt><trkpt lat="40.1462667" lon="15.1801817"><ele>166.0</ele><time>2026-03-28T13:55:59.043Z</time></trkpt><trkpt lat="40.146335" lon="15.1800683"><ele>166.0</ele><time>2026-03-28T13:56:00.043Z</time></trkpt><trkpt lat="40.146425" lon="15.1799683"><ele>166.0</ele><time>2026-03-28T13:56:01.043Z</time></trkpt><trkpt lat="40.1465267" lon="15.1798983"><ele>166.0</ele><time>2026-03-28T13:56:02.043Z</time></trkpt><trkpt lat="40.1466233" lon="15.179825"><ele>166.0</ele><time>2026-03-28T13:56:03.043Z</time></trkpt><trkpt lat="40.14672" lon="15.1797533"><ele>165.75</ele><time>2026-03-28T13:56:04.042Z</time></trkpt><trkpt lat="40.1468183" lon="15.1796733"><ele>165.5</ele><time>2026-03-28T13:56:05.042Z</time></trkpt><trkpt lat="40.1469017" lon="15.179565"><ele>165.25</ele><time>2026-03-28T13:56:06.042Z</time></trkpt><trkpt lat="40.1469667" lon="15.1794417"><ele>165.0</ele><time>2026-03-28T13:56:07.042Z</time></trkpt><trkpt lat="40.147025" lon="15.1793117"><ele>165.0</ele><time>2026-03-28T13:56:08.042Z</time></trkpt><trkpt lat="40.147055" lon="15.1791717"><ele>165.0</ele><time>2026-03-28T13:56:09.042Z</time></trkpt><trkpt lat="40.1470733" lon="15.1790367"><ele>165.0</ele><time>2026-03-28T13:56:10.042Z</time></trkpt><trkpt lat="40.1470817" lon="15.1788983"><ele>165.0</ele><time>2026-03-28T13:56:11.042Z</time></trkpt><trkpt lat="40.1470817" lon="15.1787717"><ele>165.0</ele><time>2026-03-28T13:56:12.042Z</time></trkpt><trkpt lat="40.1470817" lon="15.1786367"><ele>163.8</ele><time>2026-03-28T13:56:13.043Z</time></trkpt><trkpt lat="40.1470967" lon="15.1785083"><ele>162.6</ele><time>2026-03-28T13:56:14.042Z</time></trkpt><trkpt lat="40.1471167" lon="15.1783867"><ele>161.4</ele><time>2026-03-28T13:56:15.043Z</time></trkpt><trkpt lat="40.1471583" lon="15.1782767"><ele>160.2</ele><time>2026-03-28T13:56:16.043Z</time></trkpt><trkpt lat="40.1472133" lon="15.1781833"><ele>159.0</ele><time>2026-03-28T13:56:17.043Z</time></trkpt><trkpt lat="40.1472817" lon="15.17809"><ele>158.0</ele><time>2026-03-28T13:56:18.043Z</time></trkpt><trkpt lat="40.147365" lon="15.1780067"><ele>157.0</ele><time>2026-03-28T13:56:19.043Z</time></trkpt><trkpt lat="40.147455" lon="15.1779283"><ele>156.0</ele><time>2026-03-28T13:56:20.043Z</time></trkpt><trkpt lat="40.1475483" lon="15.1778983"><ele>155.0</ele><time>2026-03-28T13:56:21.042Z</time></trkpt><trkpt lat="40.14764" lon="15.1778967"><ele>154.0</ele><time>2026-03-28T13:56:22.043Z</time></trkpt><trkpt lat="40.1477333" lon="15.1779217"><ele>154.0</ele><time>2026-03-28T13:56:23.042Z</time></trkpt><trkpt lat="40.1478267" lon="15.1779767"><ele>154.0</ele><time>2026-03-28T13:56:24.043Z</time></trkpt><trkpt lat="40.147915" lon="15.1780467"><ele>154.0</ele><time>2026-03-28T13:56:25.042Z</time></trkpt><trkpt lat="40.1479817" lon="15.1781417"><ele>154.0</ele><time>2026-03-28T13:56:26.043Z</time></trkpt><trkpt lat="40.1480333" lon="15.178255"><ele>154.0</ele><time>2026-03-28T13:56:27.043Z</time></trkpt><trkpt lat="40.148075" lon="15.1783767"><ele>153.66666666666669</ele><time>2026-03-28T13:56:28.042Z</time></trkpt><trkpt lat="40.1481033" lon="15.1785033"><ele>153.33333333333334</ele><time>2026-03-28T13:56:29.042Z</time></trkpt><trkpt lat="40.148125" lon="15.1786083"><ele>153.0</ele><time>2026-03-28T13:56:30.042Z</time></trkpt><trkpt lat="40.1481483" lon="15.1787117"><ele>152.66666666666666</ele><time>2026-03-28T13:56:31.043Z</time></trkpt><trkpt lat="40.14817" lon="15.178795"><ele>152.33333333333331</ele><time>2026-03-28T13:56:32.043Z</time></trkpt><trkpt lat="40.1482267" lon="15.1789067"><ele>152.0</ele><time>2026-03-28T13:56:34.042Z</time></trkpt><trkpt lat="40.1482967" lon="15.1789283"><ele>152.0</ele><time>2026-03-28T13:56:36.043Z</time></trkpt><trkpt lat="40.1483667" lon="15.1788417"><ele>152.0</ele><time>2026-03-28T13:56:38.042Z</time></trkpt><trkpt lat="40.148365" lon="15.1786883"><ele>152.0</ele><time>2026-03-28T13:56:40.042Z</time></trkpt><trkpt lat="40.1483417" lon="15.1785883"><ele>152.0</ele><time>2026-03-28T13:56:41.043Z</time></trkpt><trkpt lat="40.148315" lon="15.1784783"><ele>152.0</ele><time>2026-03-28T13:56:42.043Z</time></trkpt><trkpt lat="40.1482883" lon="15.17836"><ele>152.0</ele><time>2026-03-28T13:56:43.042Z</time></trkpt><trkpt lat="40.14826" lon="15.178235"><ele>152.0</ele><time>2026-03-28T13:56:44.043Z</time></trkpt><trkpt lat="40.1482233" lon="15.178115"><ele>152.0</ele><time>2026-03-28T13:56:45.042Z</time></trkpt><trkpt lat="40.148185" lon="15.178005"><ele>152.0</ele><time>2026-03-28T13:56:46.043Z</time></trkpt><trkpt lat="40.14815" lon="15.17791"><ele>152.0</ele><time>2026-03-28T13:56:47.043Z</time></trkpt><trkpt lat="40.1481083" lon="15.1778117"><ele>152.33333333333331</ele><time>2026-03-28T13:56:48.042Z</time></trkpt><trkpt lat="40.1480667" lon="15.177725"><ele>152.66666666666666</ele><time>2026-03-28T13:56:49.042Z</time></trkpt><trkpt lat="40.148025" lon="15.1776533"><ele>153.0</ele><time>2026-03-28T13:56:50.042Z</time></trkpt><trkpt lat="40.147955" lon="15.1775383"><ele>153.33333333333334</ele><time>2026-03-28T13:56:52.043Z</time></trkpt><trkpt lat="40.1479367" lon="15.177435"><ele>153.66666666666669</ele><time>2026-03-28T13:56:54.042Z</time></trkpt><trkpt lat="40.148" lon="15.177375"><ele>154.0</ele><time>2026-03-28T13:56:56.043Z</time></trkpt><trkpt lat="40.1481117" lon="15.17745"><ele>154.0</ele><time>2026-03-28T13:56:58.042Z</time></trkpt><trkpt lat="40.1481617" lon="15.17754"><ele>154.0</ele><time>2026-03-28T13:56:59.043Z</time></trkpt><trkpt lat="40.1482133" lon="15.177655"><ele>154.0</ele><time>2026-03-28T13:57:00.043Z</time></trkpt><trkpt lat="40.148275" lon="15.17782"><ele>154.0</ele><time>2026-03-28T13:57:01.042Z</time></trkpt><trkpt lat="40.1483333" lon="15.1780133"><ele>153.5</ele><time>2026-03-28T13:57:02.042Z</time></trkpt><trkpt lat="40.1483983" lon="15.178195"><ele>153.0</ele><time>2026-03-28T13:57:03.042Z</time></trkpt><trkpt lat="40.14846" lon="15.1783533"><ele>152.5</ele><time>2026-03-28T13:57:04.043Z</time></trkpt><trkpt lat="40.1485383" lon="15.1785017"><ele>152.0</ele><time>2026-03-28T13:57:05.042Z</time></trkpt><trkpt lat="40.1486417" lon="15.1786467"><ele>152.0</ele><time>2026-03-28T13:57:06.042Z</time></trkpt><trkpt lat="40.1487583" lon="15.178775"><ele>152.0</ele><time>2026-03-28T13:57:07.043Z</time></trkpt><trkpt lat="40.14887" lon="15.1788833"><ele>152.0</ele><time>2026-03-28T13:57:08.042Z</time></trkpt><trkpt lat="40.1489667" lon="15.1789833"><ele>152.0</ele><time>2026-03-28T13:57:09.043Z</time></trkpt><trkpt lat="40.1490283" lon="15.17909"><ele>148.75</ele><time>2026-03-28T13:57:10.043Z</time></trkpt><trkpt lat="40.149075" lon="15.17922"><ele>145.5</ele><time>2026-03-28T13:57:11.043Z</time></trkpt><trkpt lat="40.1490933" lon="15.1793633"><ele>142.25</ele><time>2026-03-28T13:57:12.043Z</time></trkpt><trkpt lat="40.1490883" lon="15.17955"><ele>139.0</ele><time>2026-03-28T13:57:13.042Z</time></trkpt><trkpt lat="40.1490883" lon="15.17974"><ele>139.5</ele><time>2026-03-28T13:57:14.043Z</time></trkpt><trkpt lat="40.1491017" lon="15.179925"><ele>140.0</ele><time>2026-03-28T13:57:15.042Z</time></trkpt><trkpt lat="40.1491217" lon="15.1800883"><ele>140.5</ele><time>2026-03-28T13:57:16.042Z</time></trkpt><trkpt lat="40.1491667" lon="15.1802367"><ele>141.0</ele><time>2026-03-28T13:57:17.042Z</time></trkpt><trkpt lat="40.1492183" lon="15.1803617"><ele>141.0</ele><time>2026-03-28T13:57:18.043Z</time></trkpt><trkpt lat="40.149245" lon="15.18048"><ele>141.0</ele><time>2026-03-28T13:57:19.043Z</time></trkpt><trkpt lat="40.14926" lon="15.180585"><ele>141.0</ele><time>2026-03-28T13:57:20.042Z</time></trkpt><trkpt lat="40.1492567" lon="15.180695"><ele>141.0</ele><time>2026-03-28T13:57:21.043Z</time></trkpt><trkpt lat="40.1492367" lon="15.1808133"><ele>141.0</ele><time>2026-03-28T13:57:22.042Z</time></trkpt><trkpt lat="40.1491967" lon="15.18094"><ele>140.0</ele><time>2026-03-28T13:57:23.043Z</time></trkpt><trkpt lat="40.14915" lon="15.1810517"><ele>139.0</ele><time>2026-03-28T13:57:24.043Z</time></trkpt><trkpt lat="40.1491117" lon="15.1811467"><ele>138.0</ele><time>2026-03-28T13:57:25.042Z</time></trkpt><trkpt lat="40.1490817" lon="15.1812233"><ele>137.0</ele><time>2026-03-28T13:57:26.043Z</time></trkpt><trkpt lat="40.14903" lon="15.1813533"><ele>136.0</ele><time>2026-03-28T13:57:28.042Z</time></trkpt><trkpt lat="40.1490217" lon="15.1815033"><ele>135.83333333333334</ele><time>2026-03-28T13:57:30.042Z</time></trkpt><trkpt lat="40.1491117" lon="15.1816233"><ele>135.66666666666669</ele><time>2026-03-28T13:57:32.042Z</time></trkpt><trkpt lat="40.1491767" lon="15.1816567"><ele>135.5</ele><time>2026-03-28T13:57:33.043Z</time></trkpt><trkpt lat="40.14925" lon="15.1816783"><ele>135.33333333333334</ele><time>2026-03-28T13:57:34.042Z</time></trkpt><trkpt lat="40.14933" lon="15.18169"><ele>135.16666666666666</ele><time>2026-03-28T13:57:35.042Z</time></trkpt><trkpt lat="40.1494117" lon="15.1816883"><ele>135.0</ele><time>2026-03-28T13:57:36.042Z</time></trkpt><trkpt lat="40.1494967" lon="15.1816667"><ele>135.0</ele><time>2026-03-28T13:57:37.042Z</time></trkpt><trkpt lat="40.149595" lon="15.181625"><ele>135.0</ele><time>2026-03-28T13:57:38.043Z</time></trkpt><trkpt lat="40.149705" lon="15.18157"><ele>135.0</ele><time>2026-03-28T13:57:39.043Z</time></trkpt><trkpt lat="40.1498267" lon="15.1815067"><ele>135.0</ele><time>2026-03-28T13:57:40.042Z</time></trkpt><trkpt lat="40.149935" lon="15.1814467"><ele>132.83333333333334</ele><time>2026-03-28T13:57:41.042Z</time></trkpt><trkpt lat="40.1500267" lon="15.181415"><ele>130.66666666666666</ele><time>2026-03-28T13:57:42.043Z</time></trkpt><trkpt lat="40.1500967" lon="15.1814067"><ele>128.5</ele><time>2026-03-28T13:57:43.043Z</time></trkpt><trkpt lat="40.15017" lon="15.1814333"><ele>126.33333333333333</ele><time>2026-03-28T13:57:44.042Z</time></trkpt><trkpt lat="40.1502183" lon="15.1814917"><ele>124.16666666666666</ele><time>2026-03-28T13:57:45.043Z</time></trkpt><trkpt lat="40.1502367" lon="15.1816033"><ele>122.0</ele><time>2026-03-28T13:57:46.043Z</time></trkpt><trkpt lat="40.150205" lon="15.181775"><ele>122.0</ele><time>2026-03-28T13:57:47.042Z</time></trkpt><trkpt lat="40.1502033" lon="15.1819483"><ele>122.0</ele><time>2026-03-28T13:57:48.043Z</time></trkpt><trkpt lat="40.15023" lon="15.1821033"><ele>122.0</ele><time>2026-03-28T13:57:49.042Z</time></trkpt><trkpt lat="40.1502867" lon="15.18222"><ele>122.0</ele><time>2026-03-28T13:57:50.042Z</time></trkpt><trkpt lat="40.1503733" lon="15.1823017"><ele>120.6</ele><time>2026-03-28T13:57:51.043Z</time></trkpt><trkpt lat="40.15048" lon="15.18235"><ele>119.19999999999999</ele><time>2026-03-28T13:57:52.042Z</time></trkpt><trkpt lat="40.1505817" lon="15.18239"><ele>117.8</ele><time>2026-03-28T13:57:53.042Z</time></trkpt><trkpt lat="40.1506767" lon="15.1824583"><ele>116.4</ele><time>2026-03-28T13:57:54.042Z</time></trkpt><trkpt lat="40.1507467" lon="15.1825733"><ele>115.0</ele><time>2026-03-28T13:57:55.043Z</time></trkpt><trkpt lat="40.1508067" lon="15.18271"><ele>115.0</ele><time>2026-03-28T13:57:56.042Z</time></trkpt><trkpt lat="40.15085" lon="15.1828817"><ele>115.0</ele><time>2026-03-28T13:57:57.042Z</time></trkpt><trkpt lat="40.150895" lon="15.18307"><ele>115.0</ele><time>2026-03-28T13:57:58.042Z</time></trkpt><trkpt lat="40.15095" lon="15.1832533"><ele>115.0</ele><time>2026-03-28T13:57:59.043Z</time></trkpt><trkpt lat="40.1510267" lon="15.1834117"><ele>116.25</ele><time>2026-03-28T13:58:00.043Z</time></trkpt><trkpt lat="40.1511117" lon="15.1835483"><ele>117.5</ele><time>2026-03-28T13:58:01.043Z</time></trkpt><trkpt lat="40.1512083" lon="15.18366"><ele>118.75</ele><time>2026-03-28T13:58:02.042Z</time></trkpt><trkpt lat="40.151325" lon="15.18375"><ele>120.0</ele><time>2026-03-28T13:58:03.043Z</time></trkpt><trkpt lat="40.1514617" lon="15.1838"><ele>115.0</ele><time>2026-03-28T13:58:04.043Z</time></trkpt><trkpt lat="40.1516067" lon="15.1838283"><ele>110.0</ele><time>2026-03-28T13:58:05.042Z</time></trkpt><trkpt lat="40.15175" lon="15.18386"><ele>105.0</ele><time>2026-03-28T13:58:06.043Z</time></trkpt><trkpt lat="40.151885" lon="15.1839133"><ele>100.0</ele><time>2026-03-28T13:58:07.042Z</time></trkpt><trkpt lat="40.1520017" lon="15.184"><ele>103.66666666666667</ele><time>2026-03-28T13:58:08.042Z</time></trkpt><trkpt lat="40.1520967" lon="15.1841283"><ele>107.33333333333334</ele><time>2026-03-28T13:58:09.043Z</time></trkpt><trkpt lat="40.1521883" lon="15.18429"><ele>111.0</ele><time>2026-03-28T13:58:10.043Z</time></trkpt><trkpt lat="40.1523017" lon="15.18445"><ele>104.33333333333333</ele><time>2026-03-28T13:58:11.043Z</time></trkpt><trkpt lat="40.1524367" lon="15.1845883"><ele>97.66666666666666</ele><time>2026-03-28T13:58:12.043Z</time></trkpt><trkpt lat="40.1525867" lon="15.184695"><ele>91.0</ele><time>2026-03-28T13:58:13.042Z</time></trkpt><trkpt lat="40.15274" lon="15.1847917"><ele>91.5</ele><time>2026-03-28T13:58:14.042Z</time></trkpt><trkpt lat="40.15288" lon="15.1848667"><ele>92.0</ele><time>2026-03-28T13:58:15.042Z</time></trkpt><trkpt lat="40.1530067" lon="15.184925"><ele>92.5</ele><time>2026-03-28T13:58:16.043Z</time></trkpt><trkpt lat="40.153115" lon="15.1849633"><ele>93.0</ele><time>2026-03-28T13:58:17.042Z</time></trkpt><trkpt lat="40.1532267" lon="15.1849817"><ele>93.0</ele><time>2026-03-28T13:58:18.042Z</time></trkpt><trkpt lat="40.1533367" lon="15.1849717"><ele>93.0</ele><time>2026-03-28T13:58:19.043Z</time></trkpt><trkpt lat="40.1534517" lon="15.1849417"><ele>93.0</ele><time>2026-03-28T13:58:20.043Z</time></trkpt><trkpt lat="40.1535383" lon="15.1848867"><ele>93.0</ele><time>2026-03-28T13:58:21.043Z</time></trkpt><trkpt lat="40.153605" lon="15.1848167"><ele>93.0</ele><time>2026-03-28T13:58:22.043Z</time></trkpt><trkpt lat="40.15364" lon="15.184725"><ele>90.4</ele><time>2026-03-28T13:58:23.042Z</time></trkpt><trkpt lat="40.153635" lon="15.1846367"><ele>87.80000000000001</ele><time>2026-03-28T13:58:24.042Z</time></trkpt><trkpt lat="40.1535717" lon="15.184565"><ele>85.2</ele><time>2026-03-28T13:58:25.042Z</time></trkpt><trkpt lat="40.1534767" lon="15.1845183"><ele>82.6</ele><time>2026-03-28T13:58:26.042Z</time></trkpt><trkpt lat="40.15336" lon="15.1845"><ele>80.0</ele><time>2026-03-28T13:58:27.043Z</time></trkpt><trkpt lat="40.15323" lon="15.1845133"><ele>82.75</ele><time>2026-03-28T13:58:28.042Z</time></trkpt><trkpt lat="40.1530967" lon="15.18453"><ele>85.5</ele><time>2026-03-28T13:58:29.042Z</time></trkpt><trkpt lat="40.1529683" lon="15.184525"><ele>88.25</ele><time>2026-03-28T13:58:30.043Z</time></trkpt><trkpt lat="40.1528483" lon="15.1844833"><ele>91.0</ele><time>2026-03-28T13:58:31.042Z</time></trkpt><trkpt lat="40.152745" lon="15.184405"><ele>91.0</ele><time>2026-03-28T13:58:32.042Z</time></trkpt><trkpt lat="40.1526567" lon="15.18427"><ele>91.0</ele><time>2026-03-28T13:58:33.042Z</time></trkpt><trkpt lat="40.152585" lon="15.1840933"><ele>91.0</ele><time>2026-03-28T13:58:34.042Z</time></trkpt><trkpt lat="40.152515" lon="15.1838967"><ele>94.0</ele><time>2026-03-28T13:58:35.042Z</time></trkpt><trkpt lat="40.1524333" lon="15.1836983"><ele>97.0</ele><time>2026-03-28T13:58:36.042Z</time></trkpt><trkpt lat="40.15234" lon="15.1835233"><ele>100.0</ele><time>2026-03-28T13:58:37.042Z</time></trkpt><trkpt lat="40.1522417" lon="15.183375"><ele>100.0</ele><time>2026-03-28T13:58:38.043Z</time></trkpt><trkpt lat="40.1521633" lon="15.183255"><ele>100.0</ele><time>2026-03-28T13:58:39.042Z</time></trkpt><trkpt lat="40.152105" lon="15.1831367"><ele>100.0</ele><time>2026-03-28T13:58:40.042Z</time></trkpt><trkpt lat="40.1520917" lon="15.1829967"><ele>100.0</ele><time>2026-03-28T13:58:41.042Z</time></trkpt><trkpt lat="40.1521133" lon="15.1828367"><ele>100.0</ele><time>2026-03-28T13:58:42.042Z</time></trkpt><trkpt lat="40.1521567" lon="15.18266"><ele>100.0</ele><time>2026-03-28T13:58:43.043Z</time></trkpt><trkpt lat="40.1522283" lon="15.1824733"><ele>100.0</ele><time>2026-03-28T13:58:44.042Z</time></trkpt><trkpt lat="40.1523167" lon="15.1822667"><ele>90.33333333333334</ele><time>2026-03-28T13:58:45.043Z</time></trkpt><trkpt lat="40.1524183" lon="15.18205"><ele>80.66666666666667</ele><time>2026-03-28T13:58:46.043Z</time></trkpt><trkpt lat="40.1525283" lon="15.1818317"><ele>71.0</ele><time>2026-03-28T13:58:47.042Z</time></trkpt><trkpt lat="40.1526317" lon="15.1816283"><ele>71.66666666666667</ele><time>2026-03-28T13:58:48.043Z</time></trkpt><trkpt lat="40.15273" lon="15.1814383"><ele>72.33333333333333</ele><time>2026-03-28T13:58:49.042Z</time></trkpt><trkpt lat="40.1528117" lon="15.1812633"><ele>73.0</ele><time>2026-03-28T13:58:50.043Z</time></trkpt><trkpt lat="40.1528733" lon="15.1810833"><ele>73.0</ele><time>2026-03-28T13:58:51.042Z</time></trkpt><trkpt lat="40.1529" lon="15.1808717"><ele>73.0</ele><time>2026-03-28T13:58:52.044Z</time></trkpt><trkpt lat="40.1529033" lon="15.1806483"><ele>73.0</ele><time>2026-03-28T13:58:53.043Z</time></trkpt><trkpt lat="40.1529067" lon="15.1804317"><ele>72.25</ele><time>2026-03-28T13:58:54.044Z</time></trkpt><trkpt lat="40.1529217" lon="15.18023"><ele>71.5</ele><time>2026-03-28T13:58:55.043Z</time></trkpt><trkpt lat="40.1529367" lon="15.1800317"><ele>70.75</ele><time>2026-03-28T13:58:56.044Z</time></trkpt><trkpt lat="40.1529367" lon="15.17985"><ele>70.0</ele><time>2026-03-28T13:58:57.043Z</time></trkpt><trkpt lat="40.1529317" lon="15.1797033"><ele>70.0</ele><time>2026-03-28T13:58:58.044Z</time></trkpt><trkpt lat="40.1529617" lon="15.179585"><ele>70.0</ele><time>2026-03-28T13:58:59.043Z</time></trkpt><trkpt lat="40.1530267" lon="15.1794983"><ele>70.0</ele><time>2026-03-28T13:59:00.044Z</time></trkpt><trkpt lat="40.1531267" lon="15.17945"><ele>70.0</ele><time>2026-03-28T13:59:01.043Z</time></trkpt><trkpt lat="40.1532417" lon="15.1794267"><ele>70.0</ele><time>2026-03-28T13:59:02.044Z</time></trkpt><trkpt lat="40.1533517" lon="15.1793733"><ele>65.5</ele><time>2026-03-28T13:59:03.044Z</time></trkpt><trkpt lat="40.1534433" lon="15.1792833"><ele>61.0</ele><time>2026-03-28T13:59:04.044Z</time></trkpt><trkpt lat="40.1535017" lon="15.1791683"><ele>56.5</ele><time>2026-03-28T13:59:05.043Z</time></trkpt><trkpt lat="40.1535317" lon="15.1790233"><ele>52.0</ele><time>2026-03-28T13:59:06.044Z</time></trkpt><trkpt lat="40.1535217" lon="15.1788467"><ele>52.0</ele><time>2026-03-28T13:59:07.044Z</time></trkpt><trkpt lat="40.153495" lon="15.1786467"><ele>52.0</ele><time>2026-03-28T13:59:08.043Z</time></trkpt><trkpt lat="40.1534567" lon="15.178425"><ele>52.0</ele><time>2026-03-28T13:59:09.043Z</time></trkpt><trkpt lat="40.1534283" lon="15.1782067"><ele>50.33333333333333</ele><time>2026-03-28T13:59:10.044Z</time></trkpt><trkpt lat="40.1534067" lon="15.1780033"><ele>48.666666666666664</ele><time>2026-03-28T13:59:11.044Z</time></trkpt><trkpt lat="40.1534017" lon="15.1778067"><ele>47.0</ele><time>2026-03-28T13:59:12.043Z</time></trkpt><trkpt lat="40.15341" lon="15.1776117"><ele>47.0</ele><time>2026-03-28T13:59:13.044Z</time></trkpt><trkpt lat="40.1534483" lon="15.177445"><ele>47.0</ele><time>2026-03-28T13:59:14.044Z</time></trkpt><trkpt lat="40.1534967" lon="15.1773017"><ele>47.0</ele><time>2026-03-28T13:59:15.044Z</time></trkpt><trkpt lat="40.1535267" lon="15.1771733"><ele>47.0</ele><time>2026-03-28T13:59:16.043Z</time></trkpt><trkpt lat="40.1535233" lon="15.1770367"><ele>45.4</ele><time>2026-03-28T13:59:17.043Z</time></trkpt><trkpt lat="40.15348" lon="15.1769033"><ele>43.800000000000004</ele><time>2026-03-28T13:59:18.044Z</time></trkpt><trkpt lat="40.1534" lon="15.17679"><ele>42.2</ele><time>2026-03-28T13:59:19.043Z</time></trkpt><trkpt lat="40.1533133" lon="15.1767033"><ele>40.6</ele><time>2026-03-28T13:59:20.044Z</time></trkpt><trkpt lat="40.1532383" lon="15.17662"><ele>39.0</ele><time>2026-03-28T13:59:21.044Z</time></trkpt><trkpt lat="40.1531883" lon="15.1765283"><ele>38.8</ele><time>2026-03-28T13:59:22.043Z</time></trkpt><trkpt lat="40.15318" lon="15.1764383"><ele>38.599999999999994</ele><time>2026-03-28T13:59:23.043Z</time></trkpt><trkpt lat="40.1532533" lon="15.1763633"><ele>38.4</ele><time>2026-03-28T13:59:24.044Z</time></trkpt><trkpt lat="40.1533517" lon="15.1762983"><ele>38.199999999999996</ele><time>2026-03-28T13:59:25.044Z</time></trkpt><trkpt lat="40.1534417" lon="15.1762283"><ele>38.0</ele><time>2026-03-28T13:59:26.044Z</time></trkpt><trkpt lat="40.153515" lon="15.1761217"><ele>38.0</ele><time>2026-03-28T13:59:27.043Z</time></trkpt><trkpt lat="40.1535567" lon="15.1759867"><ele>38.0</ele><time>2026-03-28T13:59:28.043Z</time></trkpt><trkpt lat="40.1535617" lon="15.1758183"><ele>38.0</ele><time>2026-03-28T13:59:29.044Z</time></trkpt><trkpt lat="40.1535217" lon="15.1756233"><ele>38.0</ele><time>2026-03-28T13:59:30.044Z</time></trkpt><trkpt lat="40.1534817" lon="15.17541"><ele>35.0</ele><time>2026-03-28T13:59:31.043Z</time></trkpt><trkpt lat="40.1534183" lon="15.1751967"><ele>32.0</ele><time>2026-03-28T13:59:32.043Z</time></trkpt><trkpt lat="40.1533383" lon="15.175005"><ele>29.0</ele><time>2026-03-28T13:59:33.044Z</time></trkpt><trkpt lat="40.15325" lon="15.174835"><ele>32.666666666666664</ele><time>2026-03-28T13:59:34.044Z</time></trkpt><trkpt lat="40.1531667" lon="15.1746767"><ele>36.333333333333336</ele><time>2026-03-28T13:59:35.043Z</time></trkpt><trkpt lat="40.1530867" lon="15.1744983"><ele>40.0</ele><time>2026-03-28T13:59:36.043Z</time></trkpt><trkpt lat="40.1530317" lon="15.1742917"><ele>40.0</ele><time>2026-03-28T13:59:37.043Z</time></trkpt><trkpt lat="40.1529833" lon="15.1740783"><ele>40.0</ele><time>2026-03-28T13:59:38.044Z</time></trkpt><trkpt lat="40.152925" lon="15.1738733"><ele>40.0</ele><time>2026-03-28T13:59:39.043Z</time></trkpt><trkpt lat="40.1528683" lon="15.1736783"><ele>38.25</ele><time>2026-03-28T13:59:40.043Z</time></trkpt><trkpt lat="40.1528283" lon="15.1734933"><ele>36.5</ele><time>2026-03-28T13:59:41.044Z</time></trkpt><trkpt lat="40.152825" lon="15.1733067"><ele>34.75</ele><time>2026-03-28T13:59:42.044Z</time></trkpt><trkpt lat="40.1528383" lon="15.1731"><ele>33.0</ele><time>2026-03-28T13:59:43.043Z</time></trkpt><trkpt lat="40.1528367" lon="15.172865"><ele>32.333333333333336</ele><time>2026-03-28T13:59:44.044Z</time></trkpt><trkpt lat="40.152835" lon="15.1726283"><ele>31.666666666666668</ele><time>2026-03-28T13:59:45.044Z</time></trkpt><trkpt lat="40.152825" lon="15.1723983"><ele>31.0</ele><time>2026-03-28T13:59:46.044Z</time></trkpt><trkpt lat="40.1528067" lon="15.172175"><ele>27.333333333333336</ele><time>2026-03-28T13:59:47.043Z</time></trkpt><trkpt lat="40.1527817" lon="15.171945"><ele>23.666666666666668</ele><time>2026-03-28T13:59:48.044Z</time></trkpt><trkpt lat="40.152735" lon="15.1717183"><ele>20.0</ele><time>2026-03-28T13:59:49.043Z</time></trkpt><trkpt lat="40.1526833" lon="15.1714733"><ele>17.666666666666668</ele><time>2026-03-28T13:59:50.044Z</time></trkpt><trkpt lat="40.1526283" lon="15.1712183"><ele>15.333333333333332</ele><time>2026-03-28T13:59:51.043Z</time></trkpt><trkpt lat="40.15256" lon="15.1709633"><ele>13.0</ele><time>2026-03-28T13:59:52.043Z</time></trkpt><trkpt lat="40.1525" lon="15.1707067"><ele>12.333333333333332</ele><time>2026-03-28T13:59:53.043Z</time></trkpt><trkpt lat="40.15245" lon="15.1704467"><ele>11.666666666666666</ele><time>2026-03-28T13:59:54.043Z</time></trkpt><trkpt lat="40.1523983" lon="15.1702067"><ele>11.0</ele><time>2026-03-28T13:59:55.043Z</time></trkpt><trkpt lat="40.1523533" lon="15.1699783"><ele>13.666666666666666</ele><time>2026-03-28T13:59:56.043Z</time></trkpt><trkpt lat="40.1523033" lon="15.1697583"><ele>16.333333333333332</ele><time>2026-03-28T13:59:57.044Z</time></trkpt><trkpt lat="40.15226" lon="15.16954"><ele>19.0</ele><time>2026-03-28T13:59:58.044Z</time></trkpt><trkpt lat="40.1522217" lon="15.1693183"><ele>19.0</ele><time>2026-03-28T13:59:59.043Z</time></trkpt><trkpt lat="40.15218" lon="15.1690967"><ele>19.0</ele><time>2026-03-28T14:00:00.043Z</time></trkpt><trkpt lat="40.1521367" lon="15.1688717"><ele>19.0</ele><time>2026-03-28T14:00:01.044Z</time></trkpt><trkpt lat="40.1520917" lon="15.1686367"><ele>17.333333333333332</ele><time>2026-03-28T14:00:02.043Z</time></trkpt><trkpt lat="40.15206" lon="15.16841"><ele>15.666666666666668</ele><time>2026-03-28T14:00:03.044Z</time></trkpt><trkpt lat="40.1520283" lon="15.1682067"><ele>14.0</ele><time>2026-03-28T14:00:04.043Z</time></trkpt><trkpt lat="40.151995" lon="15.168005"><ele>12.5</ele><time>2026-03-28T14:00:05.043Z</time></trkpt><trkpt lat="40.1519433" lon="15.1678067"><ele>11.0</ele><time>2026-03-28T14:00:06.043Z</time></trkpt><trkpt lat="40.1518883" lon="15.1676367"><ele>9.5</ele><time>2026-03-28T14:00:07.043Z</time></trkpt><trkpt lat="40.15182" lon="15.1674867"><ele>8.0</ele><time>2026-03-28T14:00:08.043Z</time></trkpt><trkpt lat="40.15173" lon="15.167355"><ele>7.666666666666666</ele><time>2026-03-28T14:00:09.044Z</time></trkpt><trkpt lat="40.15161" lon="15.1672233"><ele>7.333333333333334</ele><time>2026-03-28T14:00:10.043Z</time></trkpt><trkpt lat="40.1514633" lon="15.1671067"><ele>7.0</ele><time>2026-03-28T14:00:11.044Z</time></trkpt><trkpt lat="40.151315" lon="15.1670267"><ele>6.333333333333334</ele><time>2026-03-28T14:00:12.044Z</time></trkpt><trkpt lat="40.15117" lon="15.1669733"><ele>5.666666666666667</ele><time>2026-03-28T14:00:13.043Z</time></trkpt><trkpt lat="40.1510317" lon="15.166905"><ele>5.0</ele><time>2026-03-28T14:00:14.044Z</time></trkpt><trkpt lat="40.1507933" lon="15.16668"><ele>4.75</ele><time>2026-03-28T14:00:16.044Z</time></trkpt><trkpt lat="40.1507183" lon="15.166525"><ele>4.5</ele><time>2026-03-28T14:00:17.043Z</time></trkpt><trkpt lat="40.1506667" lon="15.1663833"><ele>4.25</ele><time>2026-03-28T14:00:18.044Z</time></trkpt><trkpt lat="40.150635" lon="15.16625"><ele>4.0</ele><time>2026-03-28T14:00:19.043Z</time></trkpt><trkpt lat="40.1506083" lon="15.1661183"><ele>3.9999999999999996</ele><time>2026-03-28T14:00:20.043Z</time></trkpt><trkpt lat="40.1506017" lon="15.1659983"><ele>4.0</ele><time>2026-03-28T14:00:21.043Z</time></trkpt><trkpt lat="40.1506" lon="15.1658917"><ele>4.0</ele><time>2026-03-28T14:00:22.043Z</time></trkpt><trkpt lat="40.1506283" lon="15.165795"><ele>4.0</ele><time>2026-03-28T14:00:23.043Z</time></trkpt><trkpt lat="40.150685" lon="15.1657083"><ele>3.9999999999999996</ele><time>2026-03-28T14:00:24.043Z</time></trkpt><trkpt lat="40.1507517" lon="15.1656117"><ele>4.0</ele><time>2026-03-28T14:00:25.043Z</time></trkpt><trkpt lat="40.1508483" lon="15.1655317"><ele>4.666666666666666</ele><time>2026-03-28T14:00:26.043Z</time></trkpt><trkpt lat="40.1509667" lon="15.1654517"><ele>5.333333333333333</ele><time>2026-03-28T14:00:27.043Z</time></trkpt><trkpt lat="40.1511083" lon="15.165355"><ele>6.0</ele><time>2026-03-28T14:00:28.044Z</time></trkpt><trkpt lat="40.1512517" lon="15.1652483"><ele>6.0</ele><time>2026-03-28T14:00:29.043Z</time></trkpt><trkpt lat="40.151395" lon="15.1651583"><ele>6.0</ele><time>2026-03-28T14:00:30.044Z</time></trkpt><trkpt lat="40.15153" lon="15.1650767"><ele>6.0</ele><time>2026-03-28T14:00:31.043Z</time></trkpt><trkpt lat="40.15165" lon="15.164995"><ele>6.0</ele><time>2026-03-28T14:00:32.044Z</time></trkpt><trkpt lat="40.1517633" lon="15.1649183"><ele>5.5</ele><time>2026-03-28T14:00:33.043Z</time></trkpt><trkpt lat="40.151875" lon="15.164845"><ele>5.0</ele><time>2026-03-28T14:00:34.043Z</time></trkpt><trkpt lat="40.151985" lon="15.1647717"><ele>4.5</ele><time>2026-03-28T14:00:35.043Z</time></trkpt><trkpt lat="40.152095" lon="15.1646983"><ele>4.0</ele><time>2026-03-28T14:00:36.043Z</time></trkpt><trkpt lat="40.15221" lon="15.1646217"><ele>4.0</ele><time>2026-03-28T14:00:37.043Z</time></trkpt><trkpt lat="40.15233" lon="15.164535"><ele>4.0</ele><time>2026-03-28T14:00:38.043Z</time></trkpt><trkpt lat="40.1524567" lon="15.164435"><ele>4.0</ele><time>2026-03-28T14:00:39.044Z</time></trkpt><trkpt lat="40.152605" lon="15.164315"><ele>4.666666666666666</ele><time>2026-03-28T14:00:40.043Z</time></trkpt><trkpt lat="40.1527633" lon="15.164195"><ele>5.333333333333333</ele><time>2026-03-28T14:00:41.044Z</time></trkpt><trkpt lat="40.1529283" lon="15.1640683"><ele>6.0</ele><time>2026-03-28T14:00:42.044Z</time></trkpt><trkpt lat="40.1530867" lon="15.1639433"><ele>5.666666666666667</ele><time>2026-03-28T14:00:43.044Z</time></trkpt><trkpt lat="40.1532467" lon="15.1638017"><ele>5.333333333333334</ele><time>2026-03-28T14:00:44.043Z</time></trkpt><trkpt lat="40.1534117" lon="15.1636633"><ele>5.0</ele><time>2026-03-28T14:00:45.043Z</time></trkpt><trkpt lat="40.153565" lon="15.163515"><ele>5.0</ele><time>2026-03-28T14:00:46.044Z</time></trkpt><trkpt lat="40.1537017" lon="15.163385"><ele>5.0</ele><time>2026-03-28T14:00:47.043Z</time></trkpt><trkpt lat="40.1538317" lon="15.1632533"><ele>5.0</ele><time>2026-03-28T14:00:48.043Z</time></trkpt><trkpt lat="40.15396" lon="15.1631283"><ele>5.333333333333334</ele><time>2026-03-28T14:00:49.043Z</time></trkpt><trkpt lat="40.154095" lon="15.1629933"><ele>5.666666666666667</ele><time>2026-03-28T14:00:50.043Z</time></trkpt><trkpt lat="40.15423" lon="15.1628467"><ele>6.0</ele><time>2026-03-28T14:00:51.044Z</time></trkpt><trkpt lat="40.1543683" lon="15.16271"><ele>6.0</ele><time>2026-03-28T14:00:52.043Z</time></trkpt><trkpt lat="40.1544883" lon="15.16256"><ele>6.0</ele><time>2026-03-28T14:00:53.043Z</time></trkpt><trkpt lat="40.1546" lon="15.162425"><ele>6.0</ele><time>2026-03-28T14:00:54.043Z</time></trkpt><trkpt lat="40.15471" lon="15.16229"><ele>5.75</ele><time>2026-03-28T14:00:55.043Z</time></trkpt><trkpt lat="40.1548" lon="15.162155"><ele>5.5</ele><time>2026-03-28T14:00:56.044Z</time></trkpt><trkpt lat="40.1548917" lon="15.1620267"><ele>5.25</ele><time>2026-03-28T14:00:57.043Z</time></trkpt><trkpt lat="40.15498" lon="15.1619017"><ele>5.0</ele><time>2026-03-28T14:00:58.043Z</time></trkpt><trkpt lat="40.1550633" lon="15.1617783"><ele>5.0</ele><time>2026-03-28T14:00:59.043Z</time></trkpt><trkpt lat="40.15515" lon="15.1616583"><ele>5.0</ele><time>2026-03-28T14:01:00.044Z</time></trkpt><trkpt lat="40.1552383" lon="15.1615383"><ele>5.0</ele><time>2026-03-28T14:01:01.043Z</time></trkpt><trkpt lat="40.155335" lon="15.1614"><ele>5.0</ele><time>2026-03-28T14:01:02.044Z</time></trkpt><trkpt lat="40.1554383" lon="15.1612583"><ele>5.0</ele><time>2026-03-28T14:01:03.044Z</time></trkpt><trkpt lat="40.1555567" lon="15.1611033"><ele>5.0</ele><time>2026-03-28T14:01:04.043Z</time></trkpt><trkpt lat="40.1556633" lon="15.16095"><ele>5.0</ele><time>2026-03-28T14:01:05.044Z</time></trkpt><trkpt lat="40.155775" lon="15.1607967"><ele>4.666666666666667</ele><time>2026-03-28T14:01:06.044Z</time></trkpt><trkpt lat="40.1558833" lon="15.1606467"><ele>4.333333333333333</ele><time>2026-03-28T14:01:07.044Z</time></trkpt><trkpt lat="40.15599" lon="15.1604883"><ele>4.0</ele><time>2026-03-28T14:01:08.044Z</time></trkpt><trkpt lat="40.1560867" lon="15.16032"><ele>4.0</ele><time>2026-03-28T14:01:09.044Z</time></trkpt><trkpt lat="40.1561717" lon="15.1601467"><ele>4.0</ele><time>2026-03-28T14:01:10.044Z</time></trkpt><trkpt lat="40.1562467" lon="15.159945"><ele>4.0</ele><time>2026-03-28T14:01:11.044Z</time></trkpt><trkpt lat="40.156315" lon="15.1597167"><ele>3.333333333333333</ele><time>2026-03-28T14:01:12.044Z</time></trkpt><trkpt lat="40.1563883" lon="15.15948"><ele>2.6666666666666665</ele><time>2026-03-28T14:01:13.043Z</time></trkpt><trkpt lat="40.1564517" lon="15.15924"><ele>2.0</ele><time>2026-03-28T14:01:14.043Z</time></trkpt><trkpt lat="40.156535" lon="15.1589883"><ele>2.333333333333333</ele><time>2026-03-28T14:01:15.044Z</time></trkpt><trkpt lat="40.1566267" lon="15.158735"><ele>2.6666666666666665</ele><time>2026-03-28T14:01:16.043Z</time></trkpt><trkpt lat="40.1567117" lon="15.15848"><ele>3.0</ele><time>2026-03-28T14:01:17.044Z</time></trkpt><trkpt lat="40.1568067" lon="15.1582267"><ele>3.0</ele><time>2026-03-28T14:01:18.043Z</time></trkpt><trkpt lat="40.1569033" lon="15.15798"><ele>3.0</ele><time>2026-03-28T14:01:19.043Z</time></trkpt><trkpt lat="40.157005" lon="15.1577533"><ele>3.0</ele><time>2026-03-28T14:01:20.043Z</time></trkpt><trkpt lat="40.157105" lon="15.1575317"><ele>3.0</ele><time>2026-03-28T14:01:21.044Z</time></trkpt><trkpt lat="40.1572083" lon="15.1573133"><ele>3.0</ele><time>2026-03-28T14:01:22.044Z</time></trkpt><trkpt lat="40.1573183" lon="15.1570933"><ele>3.0</ele><time>2026-03-28T14:01:23.043Z</time></trkpt><trkpt lat="40.157435" lon="15.1568767"><ele>3.333333333333333</ele><time>2026-03-28T14:01:24.043Z</time></trkpt><trkpt lat="40.1575483" lon="15.1566717"><ele>3.6666666666666665</ele><time>2026-03-28T14:01:25.044Z</time></trkpt><trkpt lat="40.1576583" lon="15.1564717"><ele>4.0</ele><time>2026-03-28T14:01:26.044Z</time></trkpt><trkpt lat="40.1577633" lon="15.156265"><ele>4.0</ele><time>2026-03-28T14:01:27.044Z</time></trkpt><trkpt lat="40.157865" lon="15.156065"><ele>4.0</ele><time>2026-03-28T14:01:28.044Z</time></trkpt><trkpt lat="40.1579667" lon="15.1558767"><ele>4.0</ele><time>2026-03-28T14:01:29.043Z</time></trkpt><trkpt lat="40.15806" lon="15.1556967"><ele>4.0</ele><time>2026-03-28T14:01:30.043Z</time></trkpt><trkpt lat="40.1581467" lon="15.1555233"><ele>4.0</ele><time>2026-03-28T14:01:31.044Z</time></trkpt><trkpt lat="40.1582417" lon="15.15535"><ele>4.0</ele><time>2026-03-28T14:01:32.044Z</time></trkpt><trkpt lat="40.15833" lon="15.1551783"><ele>4.0</ele><time>2026-03-28T14:01:33.044Z</time></trkpt><trkpt lat="40.1584167" lon="15.1550067"><ele>4.0</ele><time>2026-03-28T14:01:34.043Z</time></trkpt><trkpt lat="40.1584917" lon="15.1548433"><ele>4.0</ele><time>2026-03-28T14:01:35.043Z</time></trkpt><trkpt lat="40.1585467" lon="15.1546733"><ele>4.0</ele><time>2026-03-28T14:01:36.044Z</time></trkpt><trkpt lat="40.1585617" lon="15.1544967"><ele>4.0</ele><time>2026-03-28T14:01:37.043Z</time></trkpt><trkpt lat="40.1585367" lon="15.1543133"><ele>4.0</ele><time>2026-03-28T14:01:38.043Z</time></trkpt><trkpt lat="40.1584983" lon="15.1541283"><ele>4.0</ele><time>2026-03-28T14:01:39.044Z</time></trkpt><trkpt lat="40.1584783" lon="15.153935"><ele>4.0</ele><time>2026-03-28T14:01:40.044Z</time></trkpt><trkpt lat="40.1584717" lon="15.1537283"><ele>4.0</ele><time>2026-03-28T14:01:41.044Z</time></trkpt><trkpt lat="40.1584817" lon="15.1535217"><ele>4.0</ele><time>2026-03-28T14:01:42.044Z</time></trkpt><trkpt lat="40.1585017" lon="15.1533117"><ele>4.0</ele><time>2026-03-28T14:01:43.044Z</time></trkpt><trkpt lat="40.1585333" lon="15.1531167"><ele>4.0</ele><time>2026-03-28T14:01:44.044Z</time></trkpt><trkpt lat="40.1585783" lon="15.1529383"><ele>4.0</ele><time>2026-03-28T14:01:45.043Z</time></trkpt><trkpt lat="40.1586367" lon="15.1527817"><ele>4.0</ele><time>2026-03-28T14:01:46.043Z</time></trkpt><trkpt lat="40.1587" lon="15.152635"><ele>4.0</ele><time>2026-03-28T14:01:47.043Z</time></trkpt><trkpt lat="40.158765" lon="15.152505"><ele>4.0</ele><time>2026-03-28T14:01:48.043Z</time></trkpt><trkpt lat="40.1588367" lon="15.152395"><ele>4.0</ele><time>2026-03-28T14:01:49.043Z</time></trkpt><trkpt lat="40.1589067" lon="15.1522983"><ele>4.0</ele><time>2026-03-28T14:01:50.043Z</time></trkpt><trkpt lat="40.1589817" lon="15.152225"><ele>4.0</ele><time>2026-03-28T14:01:51.044Z</time></trkpt><trkpt lat="40.1590533" lon="15.1521717"><ele>4.0</ele><time>2026-03-28T14:01:52.044Z</time></trkpt><trkpt lat="40.1591183" lon="15.1521317"><ele>4.2</ele><time>2026-03-28T14:01:53.044Z</time></trkpt><trkpt lat="40.15923" lon="15.1520767"><ele>4.4</ele><time>2026-03-28T14:01:55.043Z</time></trkpt><trkpt lat="40.15935" lon="15.15205"><ele>4.6</ele><time>2026-03-28T14:01:57.043Z</time></trkpt><trkpt lat="40.1594367" lon="15.1520017"><ele>4.8</ele><time>2026-03-28T14:01:59.043Z</time></trkpt><trkpt lat="40.159485" lon="15.1518867"><ele>5.0</ele><time>2026-03-28T14:02:01.044Z</time></trkpt><trkpt lat="40.1595267" lon="15.1518"><ele>5.0</ele><time>2026-03-28T14:02:02.043Z</time></trkpt><trkpt lat="40.159585" lon="15.15171"><ele>5.0</ele><time>2026-03-28T14:02:03.043Z</time></trkpt><trkpt lat="40.1596783" lon="15.15161"><ele>5.0</ele><time>2026-03-28T14:02:04.043Z</time></trkpt><trkpt lat="40.1597933" lon="15.1515133"><ele>5.0</ele><time>2026-03-28T14:02:05.043Z</time></trkpt><trkpt lat="40.1599217" lon="15.1514167"><ele>4.0</ele><time>2026-03-28T14:02:06.044Z</time></trkpt><trkpt lat="40.1600617" lon="15.1513283"><ele>3.0</ele><time>2026-03-28T14:02:07.043Z</time></trkpt><trkpt lat="40.1602167" lon="15.15123"><ele>2.0</ele><time>2026-03-28T14:02:08.043Z</time></trkpt><trkpt lat="40.1603667" lon="15.1511183"><ele>2.0</ele><time>2026-03-28T14:02:09.044Z</time></trkpt><trkpt lat="40.1605167" lon="15.151005"><ele>2.0</ele><time>2026-03-28T14:02:10.044Z</time></trkpt><trkpt lat="40.160675" lon="15.1508817"><ele>2.0</ele><time>2026-03-28T14:02:11.043Z</time></trkpt><trkpt lat="40.16084" lon="15.1507567"><ele>2.0</ele><time>2026-03-28T14:02:12.044Z</time></trkpt><trkpt lat="40.1610117" lon="15.15063"><ele>2.0</ele><time>2026-03-28T14:02:13.043Z</time></trkpt><trkpt lat="40.1611783" lon="15.15051"><ele>2.0</ele><time>2026-03-28T14:02:14.044Z</time></trkpt><trkpt lat="40.1613467" lon="15.1503883"><ele>2.0</ele><time>2026-03-28T14:02:15.044Z</time></trkpt><trkpt lat="40.161525" lon="15.15026"><ele>2.0</ele><time>2026-03-28T14:02:16.043Z</time></trkpt><trkpt lat="40.1616983" lon="15.1501367"><ele>2.0</ele><time>2026-03-28T14:02:17.044Z</time></trkpt><trkpt lat="40.16187" lon="15.15"><ele>2.0</ele><time>2026-03-28T14:02:18.044Z</time></trkpt><trkpt lat="40.1620433" lon="15.14987"><ele>2.0</ele><time>2026-03-28T14:02:19.043Z</time></trkpt><trkpt lat="40.1622183" lon="15.1497333"><ele>2.0</ele><time>2026-03-28T14:02:20.043Z</time></trkpt><trkpt lat="40.1623917" lon="15.1496017"><ele>1.6666666666666665</ele><time>2026-03-28T14:02:21.044Z</time></trkpt><trkpt lat="40.1625667" lon="15.1494733"><ele>1.3333333333333333</ele><time>2026-03-28T14:02:22.044Z</time></trkpt><trkpt lat="40.1627433" lon="15.1493367"><ele>1.0</ele><time>2026-03-28T14:02:23.043Z</time></trkpt><trkpt lat="40.162915" lon="15.1492083"><ele>1.0</ele><time>2026-03-28T14:02:24.043Z</time></trkpt><trkpt lat="40.1630967" lon="15.14908"><ele>1.0</ele><time>2026-03-28T14:02:25.043Z</time></trkpt><trkpt lat="40.16328" lon="15.1489483"><ele>1.0</ele><time>2026-03-28T14:02:26.043Z</time></trkpt><trkpt lat="40.1634583" lon="15.148815"><ele>0.6666666666666666</ele><time>2026-03-28T14:02:27.043Z</time></trkpt><trkpt lat="40.16364" lon="15.14868"><ele>0.3333333333333333</ele><time>2026-03-28T14:02:28.043Z</time></trkpt><trkpt lat="40.1638183" lon="15.1485367"><ele>0.0</ele><time>2026-03-28T14:02:29.043Z</time></trkpt><trkpt lat="40.1640033" lon="15.1484083"><ele>0.0</ele><time>2026-03-28T14:02:30.043Z</time></trkpt><trkpt lat="40.16418" lon="15.148275"><ele>0.0</ele><time>2026-03-28T14:02:31.043Z</time></trkpt><trkpt lat="40.164365" lon="15.1481317"><ele>0.0</ele><time>2026-03-28T14:02:32.043Z</time></trkpt><trkpt lat="40.1645417" lon="15.1480017"><ele>0.6666666666666666</ele><time>2026-03-28T14:02:33.044Z</time></trkpt><trkpt lat="40.1647233" lon="15.14786"><ele>1.3333333333333333</ele><time>2026-03-28T14:02:34.043Z</time></trkpt><trkpt lat="40.1649083" lon="15.1477283"><ele>2.0</ele><time>2026-03-28T14:02:35.043Z</time></trkpt><trkpt lat="40.1650917" lon="15.1475917"><ele>2.0</ele><time>2026-03-28T14:02:36.044Z</time></trkpt><trkpt lat="40.1652733" lon="15.1474583"><ele>2.0</ele><time>2026-03-28T14:02:37.044Z</time></trkpt><trkpt lat="40.1654583" lon="15.14732"><ele>2.0</ele><time>2026-03-28T14:02:38.043Z</time></trkpt><trkpt lat="40.1656433" lon="15.1471883"><ele>2.0</ele><time>2026-03-28T14:02:39.043Z</time></trkpt><trkpt lat="40.1658233" lon="15.1470483"><ele>2.0</ele><time>2026-03-28T14:02:40.044Z</time></trkpt><trkpt lat="40.1660017" lon="15.146915"><ele>2.0</ele><time>2026-03-28T14:02:41.044Z</time></trkpt><trkpt lat="40.16619" lon="15.1467767"><ele>2.0</ele><time>2026-03-28T14:02:42.044Z</time></trkpt><trkpt lat="40.1663717" lon="15.1466467"><ele>2.0</ele><time>2026-03-28T14:02:43.043Z</time></trkpt><trkpt lat="40.16655" lon="15.14651"><ele>2.0</ele><time>2026-03-28T14:02:44.043Z</time></trkpt><trkpt lat="40.16672" lon="15.1463783"><ele>1.6666666666666665</ele><time>2026-03-28T14:02:45.044Z</time></trkpt><trkpt lat="40.1668817" lon="15.14625"><ele>1.3333333333333333</ele><time>2026-03-28T14:02:46.044Z</time></trkpt><trkpt lat="40.1670433" lon="15.1461233"><ele>1.0</ele><time>2026-03-28T14:02:47.043Z</time></trkpt><trkpt lat="40.1672067" lon="15.1460067"><ele>1.3333333333333333</ele><time>2026-03-28T14:02:48.043Z</time></trkpt><trkpt lat="40.1673667" lon="15.1458817"><ele>1.6666666666666665</ele><time>2026-03-28T14:02:49.043Z</time></trkpt><trkpt lat="40.1675267" lon="15.1457633"><ele>2.0</ele><time>2026-03-28T14:02:50.044Z</time></trkpt><trkpt lat="40.167685" lon="15.1456417"><ele>2.0</ele><time>2026-03-28T14:02:51.044Z</time></trkpt><trkpt lat="40.167845" lon="15.1455233"><ele>2.0</ele><time>2026-03-28T14:02:52.043Z</time></trkpt><trkpt lat="40.1680033" lon="15.145405"><ele>2.0</ele><time>2026-03-28T14:02:53.044Z</time></trkpt><trkpt lat="40.1681583" lon="15.1452917"><ele>1.6666666666666665</ele><time>2026-03-28T14:02:54.044Z</time></trkpt><trkpt lat="40.168315" lon="15.1451767"><ele>1.3333333333333333</ele><time>2026-03-28T14:02:55.044Z</time></trkpt><trkpt lat="40.1684733" lon="15.1450617"><ele>1.0</ele><time>2026-03-28T14:02:56.044Z</time></trkpt><trkpt lat="40.168625" lon="15.144945"><ele>1.0</ele><time>2026-03-28T14:02:57.043Z</time></trkpt><trkpt lat="40.1687883" lon="15.14483"><ele>1.0</ele><time>2026-03-28T14:02:58.043Z</time></trkpt><trkpt lat="40.1689433" lon="15.1447133"><ele>1.0</ele><time>2026-03-28T14:02:59.043Z</time></trkpt><trkpt lat="40.16909" lon="15.1446017"><ele>1.3333333333333333</ele><time>2026-03-28T14:03:00.043Z</time></trkpt><trkpt lat="40.1692333" lon="15.1445"><ele>1.6666666666666665</ele><time>2026-03-28T14:03:01.044Z</time></trkpt><trkpt lat="40.1693667" lon="15.1443983"><ele>2.0</ele><time>2026-03-28T14:03:02.044Z</time></trkpt><trkpt lat="40.16951" lon="15.1442933"><ele>2.0</ele><time>2026-03-28T14:03:03.044Z</time></trkpt><trkpt lat="40.1696633" lon="15.1441867"><ele>2.0</ele><time>2026-03-28T14:03:04.044Z</time></trkpt><trkpt lat="40.169815" lon="15.1440717"><ele>2.0</ele><time>2026-03-28T14:03:05.044Z</time></trkpt><trkpt lat="40.1699717" lon="15.143955"><ele>2.333333333333333</ele><time>2026-03-28T14:03:06.043Z</time></trkpt><trkpt lat="40.1701267" lon="15.1438367"><ele>2.6666666666666665</ele><time>2026-03-28T14:03:07.044Z</time></trkpt><trkpt lat="40.1702817" lon="15.1437217"><ele>3.0</ele><time>2026-03-28T14:03:08.044Z</time></trkpt><trkpt lat="40.170435" lon="15.1435983"><ele>3.0</ele><time>2026-03-28T14:03:09.044Z</time></trkpt><trkpt lat="40.1705917" lon="15.143485"><ele>3.0</ele><time>2026-03-28T14:03:10.044Z</time></trkpt><trkpt lat="40.1707467" lon="15.14337"><ele>3.0</ele><time>2026-03-28T14:03:11.044Z</time></trkpt><trkpt lat="40.1709067" lon="15.143255"><ele>2.3333333333333335</ele><time>2026-03-28T14:03:12.043Z</time></trkpt><trkpt lat="40.171065" lon="15.1431417"><ele>1.6666666666666665</ele><time>2026-03-28T14:03:13.043Z</time></trkpt><trkpt lat="40.17122" lon="15.1430283"><ele>1.0</ele><time>2026-03-28T14:03:14.043Z</time></trkpt><trkpt lat="40.1713767" lon="15.1428983"><ele>1.0</ele><time>2026-03-28T14:03:15.043Z</time></trkpt><trkpt lat="40.17153" lon="15.1427667"><ele>1.0</ele><time>2026-03-28T14:03:16.043Z</time></trkpt><trkpt lat="40.1716717" lon="15.1426117"><ele>1.0</ele><time>2026-03-28T14:03:17.043Z</time></trkpt><trkpt lat="40.1717983" lon="15.1424467"><ele>1.3333333333333333</ele><time>2026-03-28T14:03:18.044Z</time></trkpt><trkpt lat="40.171915" lon="15.1422817"><ele>1.6666666666666665</ele><time>2026-03-28T14:03:19.044Z</time></trkpt><trkpt lat="40.172015" lon="15.1421167"><ele>2.0</ele><time>2026-03-28T14:03:20.043Z</time></trkpt><trkpt lat="40.1721" lon="15.141955"><ele>2.0</ele><time>2026-03-28T14:03:21.044Z</time></trkpt><trkpt lat="40.172175" lon="15.141785"><ele>2.0</ele><time>2026-03-28T14:03:22.044Z</time></trkpt><trkpt lat="40.1722433" lon="15.1416017"><ele>2.0</ele><time>2026-03-28T14:03:23.043Z</time></trkpt><trkpt lat="40.1723117" lon="15.1414"><ele>2.333333333333333</ele><time>2026-03-28T14:03:24.043Z</time></trkpt><trkpt lat="40.1723717" lon="15.1411683"><ele>2.6666666666666665</ele><time>2026-03-28T14:03:25.044Z</time></trkpt><trkpt lat="40.17243" lon="15.1409233"><ele>3.0</ele><time>2026-03-28T14:03:26.043Z</time></trkpt><trkpt lat="40.1724933" lon="15.140665"><ele>3.0</ele><time>2026-03-28T14:03:27.043Z</time></trkpt><trkpt lat="40.1725617" lon="15.140405"><ele>3.0</ele><time>2026-03-28T14:03:28.043Z</time></trkpt><trkpt lat="40.17263" lon="15.140145"><ele>3.0</ele><time>2026-03-28T14:03:29.044Z</time></trkpt><trkpt lat="40.1726967" lon="15.139885"><ele>3.0</ele><time>2026-03-28T14:03:30.043Z</time></trkpt><trkpt lat="40.1727667" lon="15.139625"><ele>3.0</ele><time>2026-03-28T14:03:31.043Z</time></trkpt><trkpt lat="40.1728317" lon="15.13936"><ele>3.0</ele><time>2026-03-28T14:03:32.043Z</time></trkpt><trkpt lat="40.1729" lon="15.139095"><ele>3.0</ele><time>2026-03-28T14:03:33.043Z</time></trkpt><trkpt lat="40.1729717" lon="15.1388283"><ele>3.0</ele><time>2026-03-28T14:03:34.044Z</time></trkpt><trkpt lat="40.173035" lon="15.1385583"><ele>3.0</ele><time>2026-03-28T14:03:35.043Z</time></trkpt><trkpt lat="40.1730983" lon="15.13829"><ele>3.0</ele><time>2026-03-28T14:03:36.043Z</time></trkpt><trkpt lat="40.1731633" lon="15.1380217"><ele>3.0</ele><time>2026-03-28T14:03:37.043Z</time></trkpt><trkpt lat="40.17323" lon="15.1377517"><ele>3.0</ele><time>2026-03-28T14:03:38.044Z</time></trkpt><trkpt lat="40.1732967" lon="15.1374783"><ele>2.3333333333333335</ele><time>2026-03-28T14:03:39.044Z</time></trkpt><trkpt lat="40.173365" lon="15.1372067"><ele>1.6666666666666665</ele><time>2026-03-28T14:03:40.043Z</time></trkpt><trkpt lat="40.1734333" lon="15.1369267"><ele>1.0</ele><time>2026-03-28T14:03:41.043Z</time></trkpt><trkpt lat="40.1735" lon="15.1366533"><ele>1.0</ele><time>2026-03-28T14:03:42.043Z</time></trkpt><trkpt lat="40.173565" lon="15.1363767"><ele>1.0</ele><time>2026-03-28T14:03:43.043Z</time></trkpt><trkpt lat="40.1736333" lon="15.1361"><ele>1.0</ele><time>2026-03-28T14:03:44.043Z</time></trkpt><trkpt lat="40.1737" lon="15.1358283"><ele>1.3333333333333333</ele><time>2026-03-28T14:03:45.044Z</time></trkpt><trkpt lat="40.17377" lon="15.1355533"><ele>1.6666666666666665</ele><time>2026-03-28T14:03:46.044Z</time></trkpt><trkpt lat="40.17384" lon="15.135275"><ele>2.0</ele><time>2026-03-28T14:03:47.043Z</time></trkpt><trkpt lat="40.1739033" lon="15.1349967"><ele>2.0</ele><time>2026-03-28T14:03:48.043Z</time></trkpt><trkpt lat="40.1739667" lon="15.134725"><ele>2.0</ele><time>2026-03-28T14:03:49.043Z</time></trkpt><trkpt lat="40.1740317" lon="15.13446"><ele>2.0</ele><time>2026-03-28T14:03:50.043Z</time></trkpt><trkpt lat="40.174095" lon="15.13419"><ele>2.333333333333333</ele><time>2026-03-28T14:03:51.043Z</time></trkpt><trkpt lat="40.17416" lon="15.1339383"><ele>2.6666666666666665</ele><time>2026-03-28T14:03:52.043Z</time></trkpt><trkpt lat="40.1742217" lon="15.1337083"><ele>3.0</ele><time>2026-03-28T14:03:53.043Z</time></trkpt><trkpt lat="40.17427" lon="15.1334867"><ele>3.0</ele><time>2026-03-28T14:03:54.044Z</time></trkpt><trkpt lat="40.1743217" lon="15.1332767"><ele>3.0</ele><time>2026-03-28T14:03:55.043Z</time></trkpt><trkpt lat="40.1743767" lon="15.133075"><ele>3.0</ele><time>2026-03-28T14:03:56.043Z</time></trkpt><trkpt lat="40.1744267" lon="15.1328783"><ele>3.0</ele><time>2026-03-28T14:03:57.043Z</time></trkpt><trkpt lat="40.174495" lon="15.132685"><ele>3.0</ele><time>2026-03-28T14:03:58.044Z</time></trkpt><trkpt lat="40.17457" lon="15.13248"><ele>3.0</ele><time>2026-03-28T14:03:59.044Z</time></trkpt><trkpt lat="40.1746483" lon="15.1322683"><ele>3.0</ele><time>2026-03-28T14:04:00.044Z</time></trkpt><trkpt lat="40.17473" lon="15.1320517"><ele>3.0</ele><time>2026-03-28T14:04:01.043Z</time></trkpt><trkpt lat="40.1748117" lon="15.1318283"><ele>3.0</ele><time>2026-03-28T14:04:02.043Z</time></trkpt><trkpt lat="40.1748883" lon="15.1316117"><ele>3.0</ele><time>2026-03-28T14:04:03.043Z</time></trkpt><trkpt lat="40.174965" lon="15.1314"><ele>3.0</ele><time>2026-03-28T14:04:04.043Z</time></trkpt><trkpt lat="40.175045" lon="15.1312"><ele>3.0</ele><time>2026-03-28T14:04:05.044Z</time></trkpt><trkpt lat="40.17512" lon="15.131005"><ele>3.0</ele><time>2026-03-28T14:04:06.044Z</time></trkpt><trkpt lat="40.17519" lon="15.1308117"><ele>3.0</ele><time>2026-03-28T14:04:07.044Z</time></trkpt><trkpt lat="40.1752667" lon="15.1306233"><ele>3.0</ele><time>2026-03-28T14:04:08.043Z</time></trkpt><trkpt lat="40.1753317" lon="15.1304317"><ele>3.333333333333333</ele><time>2026-03-28T14:04:09.043Z</time></trkpt><trkpt lat="40.1754033" lon="15.1302433"><ele>3.6666666666666665</ele><time>2026-03-28T14:04:10.044Z</time></trkpt><trkpt lat="40.1754717" lon="15.130065"><ele>4.0</ele><time>2026-03-28T14:04:11.043Z</time></trkpt><trkpt lat="40.1755383" lon="15.1298983"><ele>4.0</ele><time>2026-03-28T14:04:12.043Z</time></trkpt><trkpt lat="40.1755933" lon="15.1297267"><ele>4.0</ele><time>2026-03-28T14:04:13.043Z</time></trkpt><trkpt lat="40.17565" lon="15.1295667"><ele>4.0</ele><time>2026-03-28T14:04:14.043Z</time></trkpt><trkpt lat="40.1757017" lon="15.1294117"><ele>4.0</ele><time>2026-03-28T14:04:15.044Z</time></trkpt><trkpt lat="40.1757583" lon="15.129265"><ele>4.0</ele><time>2026-03-28T14:04:16.044Z</time></trkpt><trkpt lat="40.1757967" lon="15.129135"><ele>4.0</ele><time>2026-03-28T14:04:17.043Z</time></trkpt><trkpt lat="40.175835" lon="15.1290367"><ele>4.0</ele><time>2026-03-28T14:04:18.044Z</time></trkpt><trkpt lat="40.1758683" lon="15.1289533"><ele>4.0</ele><time>2026-03-28T14:04:19.044Z</time></trkpt><trkpt lat="40.1759283" lon="15.128815"><ele>4.0</ele><time>2026-03-28T14:04:21.043Z</time></trkpt><trkpt lat="40.17598" lon="15.12868"><ele>4.0</ele><time>2026-03-28T14:04:23.044Z</time></trkpt><trkpt lat="40.1760083" lon="15.128605"><ele>4.0</ele><time>2026-03-28T14:04:24.043Z</time></trkpt><trkpt lat="40.1760417" lon="15.1285117"><ele>4.0</ele><time>2026-03-28T14:04:25.044Z</time></trkpt><trkpt lat="40.1760883" lon="15.1283933"><ele>4.0</ele><time>2026-03-28T14:04:26.043Z</time></trkpt><trkpt lat="40.1761317" lon="15.12825"><ele>4.0</ele><time>2026-03-28T14:04:27.044Z</time></trkpt><trkpt lat="40.1762" lon="15.12809"><ele>4.0</ele><time>2026-03-28T14:04:28.044Z</time></trkpt><trkpt lat="40.1762717" lon="15.1279217"><ele>4.0</ele><time>2026-03-28T14:04:29.043Z</time></trkpt><trkpt lat="40.1763433" lon="15.1277433"><ele>4.0</ele><time>2026-03-28T14:04:30.043Z</time></trkpt><trkpt lat="40.1764183" lon="15.1275567"><ele>4.0</ele><time>2026-03-28T14:04:31.043Z</time></trkpt><trkpt lat="40.1764917" lon="15.1273633"><ele>4.0</ele><time>2026-03-28T14:04:32.043Z</time></trkpt><trkpt lat="40.1765667" lon="15.1271633"><ele>4.0</ele><time>2026-03-28T14:04:33.044Z</time></trkpt><trkpt lat="40.1766417" lon="15.1269617"><ele>4.0</ele><time>2026-03-28T14:04:34.043Z</time></trkpt><trkpt lat="40.1767217" lon="15.1267567"><ele>4.0</ele><time>2026-03-28T14:04:35.043Z</time></trkpt><trkpt lat="40.176795" lon="15.1265533"><ele>4.0</ele><time>2026-03-28T14:04:36.043Z</time></trkpt><trkpt lat="40.1768717" lon="15.126355"><ele>4.0</ele><time>2026-03-28T14:04:37.043Z</time></trkpt><trkpt lat="40.1769467" lon="15.1261533"><ele>4.0</ele><time>2026-03-28T14:04:38.043Z</time></trkpt><trkpt lat="40.17702" lon="15.1259567"><ele>4.0</ele><time>2026-03-28T14:04:39.043Z</time></trkpt><trkpt lat="40.1770867" lon="15.125765"><ele>4.0</ele><time>2026-03-28T14:04:40.043Z</time></trkpt><trkpt lat="40.1771533" lon="15.1255917"><ele>4.0</ele><time>2026-03-28T14:04:41.043Z</time></trkpt><trkpt lat="40.1772233" lon="15.1254217"><ele>4.0</ele><time>2026-03-28T14:04:42.043Z</time></trkpt><trkpt lat="40.1772817" lon="15.1252467"><ele>4.0</ele><time>2026-03-28T14:04:43.044Z</time></trkpt><trkpt lat="40.1773467" lon="15.1250883"><ele>4.25</ele><time>2026-03-28T14:04:44.043Z</time></trkpt><trkpt lat="40.1774067" lon="15.12494"><ele>4.5</ele><time>2026-03-28T14:04:45.043Z</time></trkpt><trkpt lat="40.177455" lon="15.1247917"><ele>4.75</ele><time>2026-03-28T14:04:46.043Z</time></trkpt><trkpt lat="40.177505" lon="15.1246617"><ele>5.0</ele><time>2026-03-28T14:04:47.043Z</time></trkpt><trkpt lat="40.1775483" lon="15.1245467"><ele>5.0</ele><time>2026-03-28T14:04:48.043Z</time></trkpt><trkpt lat="40.1775833" lon="15.12444"><ele>5.0</ele><time>2026-03-28T14:04:49.044Z</time></trkpt><trkpt lat="40.1776283" lon="15.1243233"><ele>5.0</ele><time>2026-03-28T14:04:50.044Z</time></trkpt><trkpt lat="40.1776833" lon="15.12421"><ele>5.0</ele><time>2026-03-28T14:04:51.044Z</time></trkpt><trkpt lat="40.177745" lon="15.1240883"><ele>5.0</ele><time>2026-03-28T14:04:52.044Z</time></trkpt><trkpt lat="40.1777883" lon="15.123945"><ele>5.2</ele><time>2026-03-28T14:04:53.044Z</time></trkpt><trkpt lat="40.1778433" lon="15.1238133"><ele>5.4</ele><time>2026-03-28T14:04:54.044Z</time></trkpt><trkpt lat="40.177885" lon="15.12368"><ele>5.6</ele><time>2026-03-28T14:04:55.044Z</time></trkpt><trkpt lat="40.1779217" lon="15.123555"><ele>5.8</ele><time>2026-03-28T14:04:56.044Z</time></trkpt><trkpt lat="40.1779667" lon="15.123455"><ele>6.0</ele><time>2026-03-28T14:04:57.043Z</time></trkpt><trkpt lat="40.1780033" lon="15.123345"><ele>6.0</ele><time>2026-03-28T14:04:58.044Z</time></trkpt><trkpt lat="40.17804" lon="15.1232583"><ele>6.0</ele><time>2026-03-28T14:04:59.044Z</time></trkpt><trkpt lat="40.1780983" lon="15.123175"><ele>6.0</ele><time>2026-03-28T14:05:00.043Z</time></trkpt><trkpt lat="40.1781567" lon="15.12309"><ele>6.0</ele><time>2026-03-28T14:05:01.043Z</time></trkpt><trkpt lat="40.1782233" lon="15.1230283"><ele>6.0</ele><time>2026-03-28T14:05:02.043Z</time></trkpt><trkpt lat="40.178285" lon="15.1229833"><ele>6.0</ele><time>2026-03-28T14:05:03.044Z</time></trkpt><trkpt lat="40.17834" lon="15.122915"><ele>7.0</ele><time>2026-03-28T14:05:04.044Z</time></trkpt><trkpt lat="40.1783767" lon="15.12283"><ele>8.0</ele><time>2026-03-28T14:05:05.044Z</time></trkpt><trkpt lat="40.178395" lon="15.1227417"><ele>9.0</ele><time>2026-03-28T14:05:06.043Z</time></trkpt><trkpt lat="40.1784217" lon="15.122665"><ele>10.0</ele><time>2026-03-28T14:05:07.043Z</time></trkpt><trkpt lat="40.1784783" lon="15.1226183"><ele>11.0</ele><time>2026-03-28T14:05:08.043Z</time></trkpt><trkpt lat="40.1785567" lon="15.1225867"><ele>12.0</ele><time>2026-03-28T14:05:09.044Z</time></trkpt><trkpt lat="40.1786533" lon="15.12253"><ele>12.0</ele><time>2026-03-28T14:05:10.043Z</time></trkpt><trkpt lat="40.1787483" lon="15.12244"><ele>12.0</ele><time>2026-03-28T14:05:11.044Z</time></trkpt><trkpt lat="40.1788133" lon="15.1223233"><ele>12.0</ele><time>2026-03-28T14:05:12.043Z</time></trkpt><trkpt lat="40.1788417" lon="15.122175"><ele>12.0</ele><time>2026-03-28T14:05:13.043Z</time></trkpt><trkpt lat="40.1788567" lon="15.12201"><ele>14.0</ele><time>2026-03-28T14:05:14.044Z</time></trkpt><trkpt lat="40.17884" lon="15.1218233"><ele>16.0</ele><time>2026-03-28T14:05:15.043Z</time></trkpt><trkpt lat="40.1788217" lon="15.1216267"><ele>18.0</ele><time>2026-03-28T14:05:16.044Z</time></trkpt><trkpt lat="40.1787817" lon="15.1214417"><ele>20.0</ele><time>2026-03-28T14:05:17.044Z</time></trkpt><trkpt lat="40.17872" lon="15.1212567"><ele>20.0</ele><time>2026-03-28T14:05:18.044Z</time></trkpt><trkpt lat="40.17863" lon="15.1210667"><ele>20.0</ele><time>2026-03-28T14:05:19.044Z</time></trkpt><trkpt lat="40.178515" lon="15.120875"><ele>20.0</ele><time>2026-03-28T14:05:20.043Z</time></trkpt><trkpt lat="40.17839" lon="15.1206733"><ele>19.333333333333336</ele><time>2026-03-28T14:05:21.043Z</time></trkpt><trkpt lat="40.1782617" lon="15.1204733"><ele>18.666666666666668</ele><time>2026-03-28T14:05:22.043Z</time></trkpt><trkpt lat="40.178165" lon="15.1202933"><ele>18.0</ele><time>2026-03-28T14:05:23.044Z</time></trkpt><trkpt lat="40.178075" lon="15.1201317"><ele>18.833333333333332</ele><time>2026-03-28T14:05:24.043Z</time></trkpt><trkpt lat="40.17802" lon="15.12001"><ele>19.666666666666668</ele><time>2026-03-28T14:05:25.043Z</time></trkpt><trkpt lat="40.1779817" lon="15.1199067"><ele>20.5</ele><time>2026-03-28T14:05:26.043Z</time></trkpt><trkpt lat="40.177985" lon="15.1198117"><ele>21.333333333333336</ele><time>2026-03-28T14:05:27.043Z</time></trkpt><trkpt lat="40.17803" lon="15.119735"><ele>22.166666666666668</ele><time>2026-03-28T14:05:28.043Z</time></trkpt><trkpt lat="40.1781233" lon="15.1196683"><ele>23.0</ele><time>2026-03-28T14:05:29.043Z</time></trkpt><trkpt lat="40.178235" lon="15.1195883"><ele>23.75</ele><time>2026-03-28T14:05:30.043Z</time></trkpt><trkpt lat="40.1783333" lon="15.119485"><ele>24.5</ele><time>2026-03-28T14:05:31.044Z</time></trkpt><trkpt lat="40.1783883" lon="15.1193467"><ele>25.25</ele><time>2026-03-28T14:05:32.043Z</time></trkpt><trkpt lat="40.178395" lon="15.1191683"><ele>26.0</ele><time>2026-03-28T14:05:33.044Z</time></trkpt><trkpt lat="40.1783683" lon="15.11896"><ele>26.333333333333332</ele><time>2026-03-28T14:05:34.044Z</time></trkpt><trkpt lat="40.1783317" lon="15.118715"><ele>26.666666666666664</ele><time>2026-03-28T14:05:35.044Z</time></trkpt><trkpt lat="40.1782917" lon="15.1184483"><ele>27.0</ele><time>2026-03-28T14:05:36.044Z</time></trkpt><trkpt lat="40.1782517" lon="15.1181717"><ele>25.333333333333332</ele><time>2026-03-28T14:05:37.044Z</time></trkpt><trkpt lat="40.1782133" lon="15.1179183"><ele>23.666666666666664</ele><time>2026-03-28T14:05:38.043Z</time></trkpt><trkpt lat="40.17818" lon="15.1176983"><ele>22.0</ele><time>2026-03-28T14:05:39.043Z</time></trkpt><trkpt lat="40.1781533" lon="15.11753"><ele>22.0</ele><time>2026-03-28T14:05:40.043Z</time></trkpt><trkpt lat="40.178135" lon="15.117405"><ele>22.0</ele><time>2026-03-28T14:05:41.043Z</time></trkpt><trkpt lat="40.1781267" lon="15.1173133"><ele>22.0</ele><time>2026-03-28T14:05:42.043Z</time></trkpt><trkpt lat="40.1781183" lon="15.1171783"><ele>22.0</ele><time>2026-03-28T14:05:44.044Z</time></trkpt><trkpt lat="40.178115" lon="15.1170933"><ele>22.0</ele><time>2026-03-28T14:05:45.044Z</time></trkpt><trkpt lat="40.17811" lon="15.1169917"><ele>22.0</ele><time>2026-03-28T14:05:46.043Z</time></trkpt><trkpt lat="40.1780983" lon="15.1168717"><ele>22.200000000000003</ele><time>2026-03-28T14:05:47.043Z</time></trkpt><trkpt lat="40.1781033" lon="15.116745"><ele>22.4</ele><time>2026-03-28T14:05:48.043Z</time></trkpt><trkpt lat="40.1781183" lon="15.1166267"><ele>22.6</ele><time>2026-03-28T14:05:49.043Z</time></trkpt><trkpt lat="40.17815" lon="15.11652"><ele>22.799999999999997</ele><time>2026-03-28T14:05:50.044Z</time></trkpt><trkpt lat="40.1782167" lon="15.1164017"><ele>23.0</ele><time>2026-03-28T14:05:51.044Z</time></trkpt><trkpt lat="40.1783017" lon="15.116255"><ele>28.25</ele><time>2026-03-28T14:05:52.044Z</time></trkpt><trkpt lat="40.1784033" lon="15.1161"><ele>33.5</ele><time>2026-03-28T14:05:53.043Z</time></trkpt><trkpt lat="40.178505" lon="15.1159667"><ele>38.75</ele><time>2026-03-28T14:05:54.043Z</time></trkpt><trkpt lat="40.178605" lon="15.11584"><ele>44.0</ele><time>2026-03-28T14:05:55.043Z</time></trkpt><trkpt lat="40.1786867" lon="15.1157117"><ele>44.5</ele><time>2026-03-28T14:05:56.044Z</time></trkpt><trkpt lat="40.1787667" lon="15.1155883"><ele>45.0</ele><time>2026-03-28T14:05:57.043Z</time></trkpt><trkpt lat="40.178845" lon="15.1154683"><ele>45.5</ele><time>2026-03-28T14:05:58.043Z</time></trkpt><trkpt lat="40.1789133" lon="15.1153433"><ele>46.0</ele><time>2026-03-28T14:05:59.043Z</time></trkpt><trkpt lat="40.1789717" lon="15.115215"><ele>50.0</ele><time>2026-03-28T14:06:00.044Z</time></trkpt><trkpt lat="40.1790267" lon="15.115065"><ele>54.0</ele><time>2026-03-28T14:06:01.044Z</time></trkpt><trkpt lat="40.179065" lon="15.1149"><ele>58.0</ele><time>2026-03-28T14:06:02.043Z</time></trkpt><trkpt lat="40.1791" lon="15.1147283"><ele>62.0</ele><time>2026-03-28T14:06:03.043Z</time></trkpt><trkpt lat="40.1791267" lon="15.1145683"><ele>63.0</ele><time>2026-03-28T14:06:04.043Z</time></trkpt><trkpt lat="40.1791383" lon="15.11441"><ele>64.0</ele><time>2026-03-28T14:06:05.044Z</time></trkpt><trkpt lat="40.1791583" lon="15.1142383"><ele>65.0</ele><time>2026-03-28T14:06:06.043Z</time></trkpt><trkpt lat="40.17916" lon="15.1140417"><ele>66.0</ele><time>2026-03-28T14:06:07.044Z</time></trkpt><trkpt lat="40.1791567" lon="15.1138417"><ele>66.75</ele><time>2026-03-28T14:06:08.043Z</time></trkpt><trkpt lat="40.1791533" lon="15.1136567"><ele>67.5</ele><time>2026-03-28T14:06:09.044Z</time></trkpt><trkpt lat="40.1791533" lon="15.1134867"><ele>68.25</ele><time>2026-03-28T14:06:10.044Z</time></trkpt><trkpt lat="40.1791483" lon="15.1133233"><ele>69.0</ele><time>2026-03-28T14:06:11.043Z</time></trkpt><trkpt lat="40.1791283" lon="15.1131683"><ele>67.25</ele><time>2026-03-28T14:06:12.044Z</time></trkpt><trkpt lat="40.17909" lon="15.1130133"><ele>65.5</ele><time>2026-03-28T14:06:13.044Z</time></trkpt><trkpt lat="40.1790517" lon="15.11285"><ele>63.75</ele><time>2026-03-28T14:06:14.043Z</time></trkpt><trkpt lat="40.1790133" lon="15.1126917"><ele>62.0</ele><time>2026-03-28T14:06:15.043Z</time></trkpt><trkpt lat="40.1789883" lon="15.112545"><ele>63.25</ele><time>2026-03-28T14:06:16.043Z</time></trkpt><trkpt lat="40.178975" lon="15.1124033"><ele>64.5</ele><time>2026-03-28T14:06:17.043Z</time></trkpt><trkpt lat="40.1789767" lon="15.1122583"><ele>65.75</ele><time>2026-03-28T14:06:18.044Z</time></trkpt><trkpt lat="40.1789933" lon="15.112095"><ele>67.0</ele><time>2026-03-28T14:06:19.044Z</time></trkpt><trkpt lat="40.1790117" lon="15.111925"><ele>70.8</ele><time>2026-03-28T14:06:20.044Z</time></trkpt><trkpt lat="40.17903" lon="15.1117633"><ele>74.6</ele><time>2026-03-28T14:06:21.043Z</time></trkpt><trkpt lat="40.1790483" lon="15.1116183"><ele>78.39999999999999</ele><time>2026-03-28T14:06:22.043Z</time></trkpt><trkpt lat="40.179085" lon="15.1114983"><ele>82.2</ele><time>2026-03-28T14:06:23.043Z</time></trkpt><trkpt lat="40.179135" lon="15.1113983"><ele>86.0</ele><time>2026-03-28T14:06:24.044Z</time></trkpt><trkpt lat="40.1791883" lon="15.1112933"><ele>87.0</ele><time>2026-03-28T14:06:25.044Z</time></trkpt><trkpt lat="40.1792533" lon="15.1111933"><ele>88.0</ele><time>2026-03-28T14:06:26.043Z</time></trkpt><trkpt lat="40.17931" lon="15.1110817"><ele>89.0</ele><time>2026-03-28T14:06:27.043Z</time></trkpt><trkpt lat="40.17936" lon="15.11097"><ele>90.0</ele><time>2026-03-28T14:06:28.043Z</time></trkpt><trkpt lat="40.1793867" lon="15.1108583"><ele>91.0</ele><time>2026-03-28T14:06:29.043Z</time></trkpt><trkpt lat="40.179395" lon="15.1107433"><ele>93.0</ele><time>2026-03-28T14:06:30.044Z</time></trkpt><trkpt lat="40.17939" lon="15.1106283"><ele>95.0</ele><time>2026-03-28T14:06:31.044Z</time></trkpt><trkpt lat="40.1793767" lon="15.1105233"><ele>97.0</ele><time>2026-03-28T14:06:32.044Z</time></trkpt><trkpt lat="40.1793517" lon="15.110425"><ele>99.0</ele><time>2026-03-28T14:06:33.044Z</time></trkpt><trkpt lat="40.17932" lon="15.1103333"><ele>101.00000000000001</ele><time>2026-03-28T14:06:34.043Z</time></trkpt><trkpt lat="40.179295" lon="15.1102433"><ele>103.0</ele><time>2026-03-28T14:06:35.043Z</time></trkpt><trkpt lat="40.1792717" lon="15.11015"><ele>103.00000000000001</ele><time>2026-03-28T14:06:36.044Z</time></trkpt><trkpt lat="40.1792483" lon="15.1100533"><ele>103.0</ele><time>2026-03-28T14:06:37.044Z</time></trkpt><trkpt lat="40.17923" lon="15.1099567"><ele>103.0</ele><time>2026-03-28T14:06:38.043Z</time></trkpt><trkpt lat="40.1792067" lon="15.1098683"><ele>103.0</ele><time>2026-03-28T14:06:39.043Z</time></trkpt><trkpt lat="40.1791867" lon="15.10978"><ele>103.00000000000001</ele><time>2026-03-28T14:06:40.044Z</time></trkpt><trkpt lat="40.1791533" lon="15.1096417"><ele>103.0</ele><time>2026-03-28T14:06:42.043Z</time></trkpt><trkpt lat="40.1791183" lon="15.1095583"><ele>103.00000000000001</ele><time>2026-03-28T14:06:44.044Z</time></trkpt><trkpt lat="40.1791533" lon="15.10968"><ele>103.0</ele><time>2026-03-28T14:07:28.044Z</time></trkpt><trkpt lat="40.17917" lon="15.1097633"><ele>103.0</ele><time>2026-03-28T14:07:29.044Z</time></trkpt><trkpt lat="40.17919" lon="15.109865"><ele>103.0</ele><time>2026-03-28T14:07:30.043Z</time></trkpt><trkpt lat="40.1792067" lon="15.109975"><ele>103.00000000000001</ele><time>2026-03-28T14:07:31.044Z</time></trkpt><trkpt lat="40.1792333" lon="15.11008"><ele>103.0</ele><time>2026-03-28T14:07:32.043Z</time></trkpt><trkpt lat="40.179265" lon="15.11019"><ele>103.00000000000001</ele><time>2026-03-28T14:07:33.043Z</time></trkpt><trkpt lat="40.1793" lon="15.1103017"><ele>103.0</ele><time>2026-03-28T14:07:34.043Z</time></trkpt><trkpt lat="40.1793333" lon="15.1104067"><ele>103.0</ele><time>2026-03-28T14:07:35.043Z</time></trkpt><trkpt lat="40.1793583" lon="15.1105117"><ele>103.0</ele><time>2026-03-28T14:07:36.043Z</time></trkpt><trkpt lat="40.1793833" lon="15.1106183"><ele>103.00000000000001</ele><time>2026-03-28T14:07:37.043Z</time></trkpt><trkpt lat="40.1793933" lon="15.1107117"><ele>103.0</ele><time>2026-03-28T14:07:38.044Z</time></trkpt><trkpt lat="40.17939" lon="15.1108117"><ele>101.00000000000001</ele><time>2026-03-28T14:07:39.043Z</time></trkpt><trkpt lat="40.179375" lon="15.1109133"><ele>99.0</ele><time>2026-03-28T14:07:40.043Z</time></trkpt><trkpt lat="40.179345" lon="15.1110133"><ele>97.0</ele><time>2026-03-28T14:07:41.043Z</time></trkpt><trkpt lat="40.1793033" lon="15.1111083"><ele>95.0</ele><time>2026-03-28T14:07:42.043Z</time></trkpt><trkpt lat="40.1792533" lon="15.1112033"><ele>93.0</ele><time>2026-03-28T14:07:43.043Z</time></trkpt><trkpt lat="40.1791933" lon="15.1112883"><ele>91.0</ele><time>2026-03-28T14:07:44.044Z</time></trkpt><trkpt lat="40.179145" lon="15.1113717"><ele>91.0</ele><time>2026-03-28T14:07:45.044Z</time></trkpt><trkpt lat="40.1791017" lon="15.1114683"><ele>91.0</ele><time>2026-03-28T14:07:46.043Z</time></trkpt><trkpt lat="40.179065" lon="15.1115883"><ele>91.0</ele><time>2026-03-28T14:07:47.043Z</time></trkpt><trkpt lat="40.1790383" lon="15.1117283"><ele>91.0</ele><time>2026-03-28T14:07:48.043Z</time></trkpt><trkpt lat="40.1790217" lon="15.1118717"><ele>91.0</ele><time>2026-03-28T14:07:49.043Z</time></trkpt><trkpt lat="40.1789983" lon="15.11201"><ele>86.2</ele><time>2026-03-28T14:07:50.043Z</time></trkpt><trkpt lat="40.1789833" lon="15.1121467"><ele>81.39999999999999</ele><time>2026-03-28T14:07:51.043Z</time></trkpt><trkpt lat="40.17897" lon="15.1122733"><ele>76.6</ele><time>2026-03-28T14:07:52.043Z</time></trkpt><trkpt lat="40.17897" lon="15.1124067"><ele>71.8</ele><time>2026-03-28T14:07:53.044Z</time></trkpt><trkpt lat="40.17898" lon="15.1125383"><ele>67.0</ele><time>2026-03-28T14:07:54.043Z</time></trkpt><trkpt lat="40.1790017" lon="15.11268"><ele>67.4</ele><time>2026-03-28T14:07:55.043Z</time></trkpt><trkpt lat="40.179035" lon="15.11282"><ele>67.80000000000001</ele><time>2026-03-28T14:07:56.044Z</time></trkpt><trkpt lat="40.1790667" lon="15.1129567"><ele>68.2</ele><time>2026-03-28T14:07:57.044Z</time></trkpt><trkpt lat="40.1790967" lon="15.113085"><ele>68.60000000000001</ele><time>2026-03-28T14:07:58.044Z</time></trkpt><trkpt lat="40.1791133" lon="15.1132"><ele>69.0</ele><time>2026-03-28T14:07:59.044Z</time></trkpt><trkpt lat="40.17912" lon="15.1133283"><ele>69.0</ele><time>2026-03-28T14:08:00.043Z</time></trkpt><trkpt lat="40.17913" lon="15.11348"><ele>69.0</ele><time>2026-03-28T14:08:01.043Z</time></trkpt><trkpt lat="40.1791317" lon="15.1136417"><ele>69.0</ele><time>2026-03-28T14:08:02.043Z</time></trkpt><trkpt lat="40.179135" lon="15.1138017"><ele>69.0</ele><time>2026-03-28T14:08:03.043Z</time></trkpt><trkpt lat="40.1791383" lon="15.1139433"><ele>68.4</ele><time>2026-03-28T14:08:04.044Z</time></trkpt><trkpt lat="40.1791383" lon="15.1140817"><ele>67.80000000000001</ele><time>2026-03-28T14:08:05.043Z</time></trkpt><trkpt lat="40.17914" lon="15.1142133"><ele>67.19999999999999</ele><time>2026-03-28T14:08:06.043Z</time></trkpt><trkpt lat="40.1791333" lon="15.1143417"><ele>66.6</ele><time>2026-03-28T14:08:07.044Z</time></trkpt><trkpt lat="40.1791167" lon="15.11446"><ele>66.0</ele><time>2026-03-28T14:08:08.044Z</time></trkpt><trkpt lat="40.179105" lon="15.1145917"><ele>66.0</ele><time>2026-03-28T14:08:09.043Z</time></trkpt><trkpt lat="40.1790883" lon="15.1147217"><ele>66.0</ele><time>2026-03-28T14:08:10.043Z</time></trkpt><trkpt lat="40.1790733" lon="15.1148483"><ele>66.0</ele><time>2026-03-28T14:08:11.043Z</time></trkpt><trkpt lat="40.17905" lon="15.114975"><ele>66.0</ele><time>2026-03-28T14:08:12.044Z</time></trkpt><trkpt lat="40.17902" lon="15.1150917"><ele>66.0</ele><time>2026-03-28T14:08:13.044Z</time></trkpt><trkpt lat="40.1789833" lon="15.1152117"><ele>62.0</ele><time>2026-03-28T14:08:14.044Z</time></trkpt><trkpt lat="40.1789467" lon="15.1153217"><ele>57.99999999999999</ele><time>2026-03-28T14:08:15.043Z</time></trkpt><trkpt lat="40.1788883" lon="15.1154183"><ele>54.0</ele><time>2026-03-28T14:08:16.044Z</time></trkpt><trkpt lat="40.1788167" lon="15.1155117"><ele>50.0</ele><time>2026-03-28T14:08:17.043Z</time></trkpt><trkpt lat="40.1787417" lon="15.1156117"><ele>46.0</ele><time>2026-03-28T14:08:18.043Z</time></trkpt><trkpt lat="40.1786717" lon="15.1157167"><ele>45.599999999999994</ele><time>2026-03-28T14:08:19.044Z</time></trkpt><trkpt lat="40.178605" lon="15.1158267"><ele>45.2</ele><time>2026-03-28T14:08:20.043Z</time></trkpt><trkpt lat="40.1785283" lon="15.1159283"><ele>44.8</ele><time>2026-03-28T14:08:21.043Z</time></trkpt><trkpt lat="40.1784583" lon="15.11602"><ele>44.400000000000006</ele><time>2026-03-28T14:08:22.044Z</time></trkpt><trkpt lat="40.1783917" lon="15.11611"><ele>44.0</ele><time>2026-03-28T14:08:23.043Z</time></trkpt><trkpt lat="40.1783317" lon="15.11621"><ele>44.0</ele><time>2026-03-28T14:08:24.044Z</time></trkpt><trkpt lat="40.1782717" lon="15.11632"><ele>44.0</ele><time>2026-03-28T14:08:25.043Z</time></trkpt><trkpt lat="40.1782117" lon="15.1164283"><ele>44.0</ele><time>2026-03-28T14:08:26.044Z</time></trkpt><trkpt lat="40.1781633" lon="15.1165283"><ele>44.0</ele><time>2026-03-28T14:08:27.044Z</time></trkpt><trkpt lat="40.1781283" lon="15.1166267"><ele>44.0</ele><time>2026-03-28T14:08:28.043Z</time></trkpt><trkpt lat="40.1781167" lon="15.1167317"><ele>40.666666666666664</ele><time>2026-03-28T14:08:29.044Z</time></trkpt><trkpt lat="40.1780933" lon="15.116845"><ele>37.33333333333333</ele><time>2026-03-28T14:08:30.044Z</time></trkpt><trkpt lat="40.1780933" lon="15.11696"><ele>34.0</ele><time>2026-03-28T14:08:31.043Z</time></trkpt><trkpt lat="40.1781067" lon="15.1170717"><ele>30.666666666666664</ele><time>2026-03-28T14:08:32.043Z</time></trkpt><trkpt lat="40.1781183" lon="15.117165"><ele>27.333333333333332</ele><time>2026-03-28T14:08:33.043Z</time></trkpt><trkpt lat="40.1781217" lon="15.1172733"><ele>24.0</ele><time>2026-03-28T14:08:35.044Z</time></trkpt><trkpt lat="40.178035" lon="15.1172767"><ele>24.0</ele><time>2026-03-28T14:08:38.043Z</time></trkpt><trkpt lat="40.177925" lon="15.11716"><ele>24.0</ele><time>2026-03-28T14:08:40.044Z</time></trkpt><trkpt lat="40.1778667" lon="15.1170667"><ele>24.0</ele><time>2026-03-28T14:08:41.043Z</time></trkpt><trkpt lat="40.1778367" lon="15.11695"><ele>24.0</ele><time>2026-03-28T14:08:42.043Z</time></trkpt><trkpt lat="40.17783" lon="15.1168383"><ele>24.0</ele><time>2026-03-28T14:08:43.043Z</time></trkpt><trkpt lat="40.1778683" lon="15.1167317"><ele>24.0</ele><time>2026-03-28T14:08:44.044Z</time></trkpt><trkpt lat="40.177935" lon="15.1166233"><ele>24.0</ele><time>2026-03-28T14:08:45.044Z</time></trkpt><trkpt lat="40.1780167" lon="15.1165"><ele>24.0</ele><time>2026-03-28T14:08:46.043Z</time></trkpt><trkpt lat="40.17809" lon="15.1163667"><ele>24.0</ele><time>2026-03-28T14:08:47.043Z</time></trkpt><trkpt lat="40.1781433" lon="15.1162133"><ele>29.0</ele><time>2026-03-28T14:08:48.043Z</time></trkpt><trkpt lat="40.178185" lon="15.1160417"><ele>34.0</ele><time>2026-03-28T14:08:49.043Z</time></trkpt><trkpt lat="40.178215" lon="15.1158667"><ele>39.0</ele><time>2026-03-28T14:08:50.043Z</time></trkpt><trkpt lat="40.1782283" lon="15.1156817"><ele>44.0</ele><time>2026-03-28T14:08:51.043Z</time></trkpt><trkpt lat="40.17823" lon="15.1154883"><ele>44.666666666666664</ele><time>2026-03-28T14:08:52.044Z</time></trkpt><trkpt lat="40.1782183" lon="15.115285"><ele>45.333333333333336</ele><time>2026-03-28T14:08:53.043Z</time></trkpt><trkpt lat="40.1781917" lon="15.115085"><ele>46.0</ele><time>2026-03-28T14:08:54.044Z</time></trkpt><trkpt lat="40.1781733" lon="15.11488"><ele>37.333333333333336</ele><time>2026-03-28T14:08:55.043Z</time></trkpt><trkpt lat="40.1781667" lon="15.114675"><ele>28.666666666666668</ele><time>2026-03-28T14:08:56.043Z</time></trkpt><trkpt lat="40.1781633" lon="15.1144733"><ele>20.0</ele><time>2026-03-28T14:08:57.043Z</time></trkpt><trkpt lat="40.1781767" lon="15.114275"><ele>26.75</ele><time>2026-03-28T14:08:58.043Z</time></trkpt><trkpt lat="40.178195" lon="15.1141017"><ele>33.5</ele><time>2026-03-28T14:08:59.043Z</time></trkpt><trkpt lat="40.17822" lon="15.1139417"><ele>40.25</ele><time>2026-03-28T14:09:00.043Z</time></trkpt><trkpt lat="40.1782167" lon="15.1137833"><ele>47.0</ele><time>2026-03-28T14:09:01.044Z</time></trkpt><trkpt lat="40.178185" lon="15.1136367"><ele>42.75</ele><time>2026-03-28T14:09:02.043Z</time></trkpt><trkpt lat="40.17813" lon="15.1134883"><ele>38.5</ele><time>2026-03-28T14:09:03.044Z</time></trkpt><trkpt lat="40.1780633" lon="15.1133533"><ele>34.25</ele><time>2026-03-28T14:09:04.043Z</time></trkpt><trkpt lat="40.1779683" lon="15.113195"><ele>30.0</ele><time>2026-03-28T14:09:05.044Z</time></trkpt><trkpt lat="40.177865" lon="15.113045"><ele>30.0</ele><time>2026-03-28T14:09:06.043Z</time></trkpt><trkpt lat="40.1777833" lon="15.11289"><ele>30.0</ele><time>2026-03-28T14:09:07.043Z</time></trkpt><trkpt lat="40.177715" lon="15.1127217"><ele>30.0</ele><time>2026-03-28T14:09:08.043Z</time></trkpt><trkpt lat="40.1776633" lon="15.11254"><ele>30.0</ele><time>2026-03-28T14:09:09.043Z</time></trkpt><trkpt lat="40.1776317" lon="15.1123483"><ele>32.333333333333336</ele><time>2026-03-28T14:09:10.043Z</time></trkpt><trkpt lat="40.17761" lon="15.1121417"><ele>34.66666666666667</ele><time>2026-03-28T14:09:11.043Z</time></trkpt><trkpt lat="40.177595" lon="15.1119317"><ele>37.0</ele><time>2026-03-28T14:09:12.043Z</time></trkpt><trkpt lat="40.17758" lon="15.1117283"><ele>40.75</ele><time>2026-03-28T14:09:13.044Z</time></trkpt><trkpt lat="40.1775617" lon="15.1115417"><ele>44.5</ele><time>2026-03-28T14:09:14.043Z</time></trkpt><trkpt lat="40.17753" lon="15.1113733"><ele>48.25</ele><time>2026-03-28T14:09:15.043Z</time></trkpt><trkpt lat="40.1774933" lon="15.1112483"><ele>52.0</ele><time>2026-03-28T14:09:16.043Z</time></trkpt><trkpt lat="40.1774283" lon="15.1111517"><ele>45.4</ele><time>2026-03-28T14:09:17.043Z</time></trkpt><trkpt lat="40.17734" lon="15.1110917"><ele>38.800000000000004</ele><time>2026-03-28T14:09:18.043Z</time></trkpt><trkpt lat="40.1772367" lon="15.1110583"><ele>32.2</ele><time>2026-03-28T14:09:19.043Z</time></trkpt><trkpt lat="40.17715" lon="15.1110317"><ele>25.6</ele><time>2026-03-28T14:09:20.043Z</time></trkpt><trkpt lat="40.1770633" lon="15.1109567"><ele>19.0</ele><time>2026-03-28T14:09:21.043Z</time></trkpt><trkpt lat="40.1770167" lon="15.11085"><ele>24.0</ele><time>2026-03-28T14:09:22.043Z</time></trkpt><trkpt lat="40.1769933" lon="15.1107083"><ele>29.0</ele><time>2026-03-28T14:09:23.044Z</time></trkpt><trkpt lat="40.1769667" lon="15.1105383"><ele>34.0</ele><time>2026-03-28T14:09:24.044Z</time></trkpt><trkpt lat="40.1768983" lon="15.1103517"><ele>39.0</ele><time>2026-03-28T14:09:25.043Z</time></trkpt><trkpt lat="40.176815" lon="15.110165"><ele>39.0</ele><time>2026-03-28T14:09:26.044Z</time></trkpt><trkpt lat="40.1767183" lon="15.1099983"><ele>39.0</ele><time>2026-03-28T14:09:27.044Z</time></trkpt><trkpt lat="40.1766267" lon="15.1098617"><ele>39.0</ele><time>2026-03-28T14:09:28.043Z</time></trkpt><trkpt lat="40.1765067" lon="15.1097467"><ele>39.0</ele><time>2026-03-28T14:09:29.043Z</time></trkpt><trkpt lat="40.176365" lon="15.109665"><ele>34.333333333333336</ele><time>2026-03-28T14:09:30.043Z</time></trkpt><trkpt lat="40.17621" lon="15.1095983"><ele>29.666666666666668</ele><time>2026-03-28T14:09:31.043Z</time></trkpt><trkpt lat="40.1760683" lon="15.1095117"><ele>25.0</ele><time>2026-03-28T14:09:32.043Z</time></trkpt><trkpt lat="40.17595" lon="15.1094"><ele>25.0</ele><time>2026-03-28T14:09:33.043Z</time></trkpt><trkpt lat="40.1758583" lon="15.1092717"><ele>25.0</ele><time>2026-03-28T14:09:34.044Z</time></trkpt><trkpt lat="40.1757983" lon="15.10914"><ele>25.0</ele><time>2026-03-28T14:09:35.043Z</time></trkpt><trkpt lat="40.1757533" lon="15.1089667"><ele>25.0</ele><time>2026-03-28T14:09:36.043Z</time></trkpt><trkpt lat="40.1757467" lon="15.1087833"><ele>26.666666666666668</ele><time>2026-03-28T14:09:37.043Z</time></trkpt><trkpt lat="40.1757367" lon="15.1085767"><ele>28.333333333333336</ele><time>2026-03-28T14:09:38.043Z</time></trkpt><trkpt lat="40.1757267" lon="15.1083733"><ele>30.0</ele><time>2026-03-28T14:09:39.043Z</time></trkpt><trkpt lat="40.1757267" lon="15.1081717"><ele>30.333333333333336</ele><time>2026-03-28T14:09:40.043Z</time></trkpt><trkpt lat="40.17574" lon="15.1079583"><ele>30.666666666666668</ele><time>2026-03-28T14:09:41.044Z</time></trkpt><trkpt lat="40.1757617" lon="15.1077583"><ele>31.0</ele><time>2026-03-28T14:09:42.043Z</time></trkpt><trkpt lat="40.1757883" lon="15.1075583"><ele>28.5</ele><time>2026-03-28T14:09:43.044Z</time></trkpt><trkpt lat="40.1758267" lon="15.1073683"><ele>26.0</ele><time>2026-03-28T14:09:44.043Z</time></trkpt><trkpt lat="40.1758683" lon="15.1071967"><ele>23.5</ele><time>2026-03-28T14:09:45.043Z</time></trkpt><trkpt lat="40.17595" lon="15.1070417"><ele>21.0</ele><time>2026-03-28T14:09:46.043Z</time></trkpt><trkpt lat="40.1760417" lon="15.1068967"><ele>21.0</ele><time>2026-03-28T14:09:47.044Z</time></trkpt><trkpt lat="40.1761433" lon="15.1067633"><ele>21.0</ele><time>2026-03-28T14:09:48.043Z</time></trkpt><trkpt lat="40.1762283" lon="15.106635"><ele>21.0</ele><time>2026-03-28T14:09:49.044Z</time></trkpt><trkpt lat="40.1762783" lon="15.1065083"><ele>21.0</ele><time>2026-03-28T14:09:50.043Z</time></trkpt><trkpt lat="40.1762933" lon="15.10639"><ele>22.200000000000003</ele><time>2026-03-28T14:09:51.044Z</time></trkpt><trkpt lat="40.1762633" lon="15.1062767"><ele>23.400000000000002</ele><time>2026-03-28T14:09:52.043Z</time></trkpt><trkpt lat="40.176195" lon="15.106185"><ele>24.6</ele><time>2026-03-28T14:09:53.044Z</time></trkpt><trkpt lat="40.1761033" lon="15.10611"><ele>25.8</ele><time>2026-03-28T14:09:54.044Z</time></trkpt><trkpt lat="40.1759967" lon="15.1060317"><ele>27.0</ele><time>2026-03-28T14:09:55.043Z</time></trkpt><trkpt lat="40.17589" lon="15.1059317"><ele>27.0</ele><time>2026-03-28T14:09:56.043Z</time></trkpt><trkpt lat="40.1758017" lon="15.1057917"><ele>27.0</ele><time>2026-03-28T14:09:57.044Z</time></trkpt><trkpt lat="40.1757283" lon="15.105625"><ele>27.0</ele><time>2026-03-28T14:09:58.044Z</time></trkpt><trkpt lat="40.1756667" lon="15.1054267"><ele>27.0</ele><time>2026-03-28T14:09:59.043Z</time></trkpt><trkpt lat="40.1756017" lon="15.1052117"><ele>24.333333333333332</ele><time>2026-03-28T14:10:00.043Z</time></trkpt><trkpt lat="40.1755267" lon="15.10498"><ele>21.666666666666664</ele><time>2026-03-28T14:10:01.043Z</time></trkpt><trkpt lat="40.175445" lon="15.1047533"><ele>19.0</ele><time>2026-03-28T14:10:02.044Z</time></trkpt><trkpt lat="40.1753617" lon="15.1045433"><ele>19.0</ele><time>2026-03-28T14:10:03.043Z</time></trkpt><trkpt lat="40.17529" lon="15.1043183"><ele>19.0</ele><time>2026-03-28T14:10:04.043Z</time></trkpt><trkpt lat="40.1752533" lon="15.1041017"><ele>19.0</ele><time>2026-03-28T14:10:05.044Z</time></trkpt><trkpt lat="40.175215" lon="15.1038783"><ele>21.333333333333332</ele><time>2026-03-28T14:10:06.044Z</time></trkpt><trkpt lat="40.1751433" lon="15.1036483"><ele>23.666666666666664</ele><time>2026-03-28T14:10:07.043Z</time></trkpt><trkpt lat="40.175045" lon="15.1034233"><ele>26.0</ele><time>2026-03-28T14:10:08.043Z</time></trkpt><trkpt lat="40.1749467" lon="15.1032067"><ele>28.0</ele><time>2026-03-28T14:10:09.044Z</time></trkpt><trkpt lat="40.1748567" lon="15.1029883"><ele>30.0</ele><time>2026-03-28T14:10:10.043Z</time></trkpt><trkpt lat="40.1747833" lon="15.102765"><ele>32.0</ele><time>2026-03-28T14:10:11.043Z</time></trkpt><trkpt lat="40.1747083" lon="15.10255"><ele>27.25</ele><time>2026-03-28T14:10:12.043Z</time></trkpt><trkpt lat="40.174645" lon="15.102355"><ele>22.5</ele><time>2026-03-28T14:10:13.043Z</time></trkpt><trkpt lat="40.17459" lon="15.1021917"><ele>17.75</ele><time>2026-03-28T14:10:14.043Z</time></trkpt><trkpt lat="40.1745217" lon="15.102065"><ele>13.0</ele><time>2026-03-28T14:10:15.044Z</time></trkpt><trkpt lat="40.1744417" lon="15.10196"><ele>13.0</ele><time>2026-03-28T14:10:16.043Z</time></trkpt><trkpt lat="40.1743667" lon="15.101855"><ele>13.0</ele><time>2026-03-28T14:10:17.044Z</time></trkpt><trkpt lat="40.1743117" lon="15.1017133"><ele>13.0</ele><time>2026-03-28T14:10:18.043Z</time></trkpt><trkpt lat="40.174295" lon="15.1015683"><ele>13.0</ele><time>2026-03-28T14:10:19.044Z</time></trkpt><trkpt lat="40.1743117" lon="15.101415"><ele>15.0</ele><time>2026-03-28T14:10:20.043Z</time></trkpt><trkpt lat="40.174325" lon="15.1012667"><ele>17.0</ele><time>2026-03-28T14:10:21.044Z</time></trkpt><trkpt lat="40.1742933" lon="15.1011317"><ele>19.0</ele><time>2026-03-28T14:10:22.044Z</time></trkpt><trkpt lat="40.1742233" lon="15.101015"><ele>21.0</ele><time>2026-03-28T14:10:23.044Z</time></trkpt><trkpt lat="40.1741183" lon="15.1009267"><ele>17.666666666666668</ele><time>2026-03-28T14:10:24.044Z</time></trkpt><trkpt lat="40.1739917" lon="15.1008283"><ele>14.333333333333332</ele><time>2026-03-28T14:10:25.043Z</time></trkpt><trkpt lat="40.1738617" lon="15.100705"><ele>11.0</ele><time>2026-03-28T14:10:26.043Z</time></trkpt><trkpt lat="40.1737367" lon="15.1005367"><ele>11.0</ele><time>2026-03-28T14:10:27.044Z</time></trkpt><trkpt lat="40.1736167" lon="15.1003667"><ele>11.0</ele><time>2026-03-28T14:10:28.043Z</time></trkpt><trkpt lat="40.17351" lon="15.1002067"><ele>11.0</ele><time>2026-03-28T14:10:29.044Z</time></trkpt><trkpt lat="40.1734333" lon="15.1000633"><ele>11.75</ele><time>2026-03-28T14:10:30.043Z</time></trkpt><trkpt lat="40.1733767" lon="15.0999"><ele>12.5</ele><time>2026-03-28T14:10:31.043Z</time></trkpt><trkpt lat="40.17336" lon="15.0997133"><ele>13.25</ele><time>2026-03-28T14:10:32.043Z</time></trkpt><trkpt lat="40.1733567" lon="15.0995067"><ele>14.0</ele><time>2026-03-28T14:10:33.043Z</time></trkpt><trkpt lat="40.1733517" lon="15.0992867"><ele>13.666666666666668</ele><time>2026-03-28T14:10:34.044Z</time></trkpt><trkpt lat="40.173345" lon="15.099055"><ele>13.333333333333332</ele><time>2026-03-28T14:10:35.043Z</time></trkpt><trkpt lat="40.17333" lon="15.0988133"><ele>13.0</ele><time>2026-03-28T14:10:36.044Z</time></trkpt><trkpt lat="40.1733183" lon="15.0985817"><ele>13.0</ele><time>2026-03-28T14:10:37.044Z</time></trkpt><trkpt lat="40.1733083" lon="15.0983567"><ele>13.0</ele><time>2026-03-28T14:10:38.043Z</time></trkpt><trkpt lat="40.1733183" lon="15.0981517"><ele>13.0</ele><time>2026-03-28T14:10:39.044Z</time></trkpt><trkpt lat="40.1733433" lon="15.0979667"><ele>12.75</ele><time>2026-03-28T14:10:40.043Z</time></trkpt><trkpt lat="40.17339" lon="15.097785"><ele>12.5</ele><time>2026-03-28T14:10:41.043Z</time></trkpt><trkpt lat="40.1734483" lon="15.09761"><ele>12.25</ele><time>2026-03-28T14:10:42.043Z</time></trkpt><trkpt lat="40.1735" lon="15.0974283"><ele>12.0</ele><time>2026-03-28T14:10:43.044Z</time></trkpt><trkpt lat="40.173535" lon="15.0972217"><ele>11.0</ele><time>2026-03-28T14:10:44.044Z</time></trkpt><trkpt lat="40.17357" lon="15.097"><ele>10.0</ele><time>2026-03-28T14:10:45.043Z</time></trkpt><trkpt lat="40.173615" lon="15.0968117"><ele>9.0</ele><time>2026-03-28T14:10:46.043Z</time></trkpt><trkpt lat="40.1736533" lon="15.096635"><ele>8.5</ele><time>2026-03-28T14:10:47.044Z</time></trkpt><trkpt lat="40.1736767" lon="15.0964583"><ele>8.0</ele><time>2026-03-28T14:10:48.044Z</time></trkpt><trkpt lat="40.173665" lon="15.09627"><ele>7.5</ele><time>2026-03-28T14:10:49.043Z</time></trkpt><trkpt lat="40.1736433" lon="15.0960883"><ele>7.0</ele><time>2026-03-28T14:10:50.044Z</time></trkpt><trkpt lat="40.1736317" lon="15.0959283"><ele>7.0</ele><time>2026-03-28T14:10:51.043Z</time></trkpt><trkpt lat="40.1736283" lon="15.0957667"><ele>7.0</ele><time>2026-03-28T14:10:52.044Z</time></trkpt><trkpt lat="40.17364" lon="15.0956067"><ele>7.0</ele><time>2026-03-28T14:10:53.043Z</time></trkpt><trkpt lat="40.1736583" lon="15.09545"><ele>7.0</ele><time>2026-03-28T14:10:54.044Z</time></trkpt><trkpt lat="40.173685" lon="15.0953117"><ele>6.199999999999999</ele><time>2026-03-28T14:10:55.043Z</time></trkpt><trkpt lat="40.1737233" lon="15.0951867"><ele>5.3999999999999995</ele><time>2026-03-28T14:10:56.044Z</time></trkpt><trkpt lat="40.1737767" lon="15.0950883"><ele>4.6</ele><time>2026-03-28T14:10:57.043Z</time></trkpt><trkpt lat="40.1738667" lon="15.0950083"><ele>3.8</ele><time>2026-03-28T14:10:58.043Z</time></trkpt><trkpt lat="40.1739533" lon="15.0949433"><ele>3.0</ele><time>2026-03-28T14:10:59.044Z</time></trkpt><trkpt lat="40.17404" lon="15.094865"><ele>5.25</ele><time>2026-03-28T14:11:00.043Z</time></trkpt><trkpt lat="40.1740967" lon="15.0947683"><ele>7.5</ele><time>2026-03-28T14:11:01.043Z</time></trkpt><trkpt lat="40.1741417" lon="15.0946367"><ele>9.75</ele><time>2026-03-28T14:11:02.045Z</time></trkpt><trkpt lat="40.1741717" lon="15.0944533"><ele>12.0</ele><time>2026-03-28T14:11:03.044Z</time></trkpt><trkpt lat="40.1742183" lon="15.094235"><ele>11.333333333333334</ele><time>2026-03-28T14:11:04.045Z</time></trkpt><trkpt lat="40.1742783" lon="15.093985"><ele>10.666666666666668</ele><time>2026-03-28T14:11:05.045Z</time></trkpt><trkpt lat="40.174345" lon="15.0937467"><ele>10.0</ele><time>2026-03-28T14:11:06.045Z</time></trkpt><trkpt lat="40.1743967" lon="15.0935233"><ele>10.0</ele><time>2026-03-28T14:11:07.045Z</time></trkpt><trkpt lat="40.1744383" lon="15.0933033"><ele>10.0</ele><time>2026-03-28T14:11:08.044Z</time></trkpt><trkpt lat="40.1744683" lon="15.0930917"><ele>10.0</ele><time>2026-03-28T14:11:09.045Z</time></trkpt><trkpt lat="40.17448" lon="15.0928867"><ele>9.0</ele><time>2026-03-28T14:11:10.044Z</time></trkpt><trkpt lat="40.1744767" lon="15.0926833"><ele>8.0</ele><time>2026-03-28T14:11:11.045Z</time></trkpt><trkpt lat="40.1744517" lon="15.0924783"><ele>7.0</ele><time>2026-03-28T14:11:12.045Z</time></trkpt><trkpt lat="40.1744267" lon="15.092275"><ele>7.0</ele><time>2026-03-28T14:11:13.045Z</time></trkpt><trkpt lat="40.1743983" lon="15.0920717"><ele>7.0</ele><time>2026-03-28T14:11:14.045Z</time></trkpt><trkpt lat="40.1744083" lon="15.0918633"><ele>7.0</ele><time>2026-03-28T14:11:15.044Z</time></trkpt><trkpt lat="40.1744083" lon="15.0916583"><ele>7.666666666666667</ele><time>2026-03-28T14:11:16.044Z</time></trkpt><trkpt lat="40.174405" lon="15.0914533"><ele>8.333333333333334</ele><time>2026-03-28T14:11:17.044Z</time></trkpt><trkpt lat="40.17439" lon="15.091255"><ele>9.0</ele><time>2026-03-28T14:11:18.044Z</time></trkpt><trkpt lat="40.1743883" lon="15.09105"><ele>9.0</ele><time>2026-03-28T14:11:19.044Z</time></trkpt><trkpt lat="40.17439" lon="15.0908433"><ele>9.0</ele><time>2026-03-28T14:11:20.045Z</time></trkpt><trkpt lat="40.1743883" lon="15.09064"><ele>9.0</ele><time>2026-03-28T14:11:21.044Z</time></trkpt><trkpt lat="40.17438" lon="15.0904367"><ele>8.333333333333334</ele><time>2026-03-28T14:11:22.045Z</time></trkpt><trkpt lat="40.17439" lon="15.0902317"><ele>7.666666666666667</ele><time>2026-03-28T14:11:23.045Z</time></trkpt><trkpt lat="40.1744017" lon="15.09003"><ele>7.0</ele><time>2026-03-28T14:11:24.044Z</time></trkpt><trkpt lat="40.17441" lon="15.089815"><ele>6.666666666666667</ele><time>2026-03-28T14:11:25.044Z</time></trkpt><trkpt lat="40.1744017" lon="15.0895983"><ele>6.333333333333334</ele><time>2026-03-28T14:11:26.045Z</time></trkpt><trkpt lat="40.174395" lon="15.0893917"><ele>6.0</ele><time>2026-03-28T14:11:27.044Z</time></trkpt><trkpt lat="40.17439" lon="15.0891833"><ele>6.666666666666666</ele><time>2026-03-28T14:11:28.045Z</time></trkpt><trkpt lat="40.1743833" lon="15.088965"><ele>7.333333333333333</ele><time>2026-03-28T14:11:29.045Z</time></trkpt><trkpt lat="40.1743967" lon="15.0887533"><ele>8.0</ele><time>2026-03-28T14:11:30.045Z</time></trkpt><trkpt lat="40.1744067" lon="15.0885433"><ele>8.0</ele><time>2026-03-28T14:11:31.044Z</time></trkpt><trkpt lat="40.17441" lon="15.0883467"><ele>8.0</ele><time>2026-03-28T14:11:32.045Z</time></trkpt><trkpt lat="40.1744133" lon="15.0881617"><ele>8.0</ele><time>2026-03-28T14:11:33.045Z</time></trkpt><trkpt lat="40.17442" lon="15.087985"><ele>8.0</ele><time>2026-03-28T14:11:34.045Z</time></trkpt><trkpt lat="40.1743983" lon="15.0878083"><ele>8.666666666666666</ele><time>2026-03-28T14:11:35.044Z</time></trkpt><trkpt lat="40.1743567" lon="15.0876183"><ele>9.333333333333334</ele><time>2026-03-28T14:11:36.045Z</time></trkpt><trkpt lat="40.1743017" lon="15.0874233"><ele>10.0</ele><time>2026-03-28T14:11:37.045Z</time></trkpt><trkpt lat="40.17425" lon="15.08721"><ele>12.333333333333334</ele><time>2026-03-28T14:11:38.045Z</time></trkpt><trkpt lat="40.174205" lon="15.0869983"><ele>14.666666666666668</ele><time>2026-03-28T14:11:39.044Z</time></trkpt><trkpt lat="40.1741617" lon="15.086775"><ele>17.0</ele><time>2026-03-28T14:11:40.045Z</time></trkpt><trkpt lat="40.17414" lon="15.0865433"><ele>18.666666666666668</ele><time>2026-03-28T14:11:41.044Z</time></trkpt><trkpt lat="40.1741133" lon="15.086315"><ele>20.333333333333332</ele><time>2026-03-28T14:11:42.045Z</time></trkpt><trkpt lat="40.174095" lon="15.0860883"><ele>22.0</ele><time>2026-03-28T14:11:43.044Z</time></trkpt><trkpt lat="40.1740633" lon="15.08587"><ele>25.0</ele><time>2026-03-28T14:11:44.044Z</time></trkpt><trkpt lat="40.1740367" lon="15.0856633"><ele>28.0</ele><time>2026-03-28T14:11:45.045Z</time></trkpt><trkpt lat="40.17399" lon="15.085465"><ele>31.0</ele><time>2026-03-28T14:11:46.044Z</time></trkpt><trkpt lat="40.1739267" lon="15.0852667"><ele>25.333333333333336</ele><time>2026-03-28T14:11:47.045Z</time></trkpt><trkpt lat="40.1738383" lon="15.0850783"><ele>19.666666666666668</ele><time>2026-03-28T14:11:48.045Z</time></trkpt><trkpt lat="40.1737283" lon="15.0849033"><ele>14.0</ele><time>2026-03-28T14:11:49.045Z</time></trkpt><trkpt lat="40.1736" lon="15.0847367"><ele>14.0</ele><time>2026-03-28T14:11:50.044Z</time></trkpt><trkpt lat="40.17348" lon="15.08458"><ele>14.0</ele><time>2026-03-28T14:11:51.044Z</time></trkpt><trkpt lat="40.1733767" lon="15.08444"><ele>14.0</ele><time>2026-03-28T14:11:52.045Z</time></trkpt><trkpt lat="40.1733017" lon="15.0843117"><ele>14.0</ele><time>2026-03-28T14:11:53.045Z</time></trkpt><trkpt lat="40.1732633" lon="15.0841833"><ele>12.6</ele><time>2026-03-28T14:11:54.045Z</time></trkpt><trkpt lat="40.17327" lon="15.084075"><ele>11.2</ele><time>2026-03-28T14:11:55.045Z</time></trkpt><trkpt lat="40.1733133" lon="15.0839767"><ele>9.799999999999999</ele><time>2026-03-28T14:11:56.045Z</time></trkpt><trkpt lat="40.1733883" lon="15.083895"><ele>8.399999999999999</ele><time>2026-03-28T14:11:57.045Z</time></trkpt><trkpt lat="40.17349" lon="15.0838217"><ele>7.0</ele><time>2026-03-28T14:11:58.045Z</time></trkpt><trkpt lat="40.1736067" lon="15.0837283"><ele>7.0</ele><time>2026-03-28T14:11:59.044Z</time></trkpt><trkpt lat="40.17371" lon="15.0836083"><ele>7.0</ele><time>2026-03-28T14:12:00.045Z</time></trkpt><trkpt lat="40.17378" lon="15.083485"><ele>7.0</ele><time>2026-03-28T14:12:01.044Z</time></trkpt><trkpt lat="40.173865" lon="15.083385"><ele>7.0</ele><time>2026-03-28T14:12:02.044Z</time></trkpt><trkpt lat="40.1739583" lon="15.0833433"><ele>9.0</ele><time>2026-03-28T14:12:03.045Z</time></trkpt><trkpt lat="40.174065" lon="15.083345"><ele>11.0</ele><time>2026-03-28T14:12:04.044Z</time></trkpt><trkpt lat="40.1741717" lon="15.0833733"><ele>13.0</ele><time>2026-03-28T14:12:05.044Z</time></trkpt><trkpt lat="40.1742617" lon="15.08342"><ele>15.0</ele><time>2026-03-28T14:12:06.045Z</time></trkpt><trkpt lat="40.1743467" lon="15.083455"><ele>17.0</ele><time>2026-03-28T14:12:07.044Z</time></trkpt><trkpt lat="40.1744467" lon="15.0834817"><ele>17.0</ele><time>2026-03-28T14:12:08.045Z</time></trkpt><trkpt lat="40.1745633" lon="15.08349"><ele>17.0</ele><time>2026-03-28T14:12:09.044Z</time></trkpt><trkpt lat="40.1746917" lon="15.0834817"><ele>17.0</ele><time>2026-03-28T14:12:10.044Z</time></trkpt><trkpt lat="40.1748267" lon="15.0834533"><ele>17.0</ele><time>2026-03-28T14:12:11.044Z</time></trkpt><trkpt lat="40.17495" lon="15.0833883"><ele>18.25</ele><time>2026-03-28T14:12:12.044Z</time></trkpt><trkpt lat="40.1750683" lon="15.0833"><ele>19.5</ele><time>2026-03-28T14:12:13.045Z</time></trkpt><trkpt lat="40.17517" lon="15.083175"><ele>20.75</ele><time>2026-03-28T14:12:14.044Z</time></trkpt><trkpt lat="40.1752617" lon="15.0830333"><ele>22.0</ele><time>2026-03-28T14:12:15.045Z</time></trkpt><trkpt lat="40.175365" lon="15.0829033"><ele>22.333333333333332</ele><time>2026-03-28T14:12:16.045Z</time></trkpt><trkpt lat="40.1754783" lon="15.0827867"><ele>22.666666666666668</ele><time>2026-03-28T14:12:17.044Z</time></trkpt><trkpt lat="40.1756067" lon="15.0826783"><ele>23.0</ele><time>2026-03-28T14:12:18.044Z</time></trkpt><trkpt lat="40.175755" lon="15.0825783"><ele>23.0</ele><time>2026-03-28T14:12:19.045Z</time></trkpt><trkpt lat="40.1759183" lon="15.08247"><ele>23.0</ele><time>2026-03-28T14:12:20.045Z</time></trkpt><trkpt lat="40.17609" lon="15.08235"><ele>23.0</ele><time>2026-03-28T14:12:21.045Z</time></trkpt><trkpt lat="40.176265" lon="15.0822217"><ele>22.0</ele><time>2026-03-28T14:12:22.045Z</time></trkpt><trkpt lat="40.176435" lon="15.0821167"><ele>21.0</ele><time>2026-03-28T14:12:23.045Z</time></trkpt><trkpt lat="40.1766" lon="15.0820333"><ele>20.0</ele><time>2026-03-28T14:12:24.044Z</time></trkpt><trkpt lat="40.1767483" lon="15.0819667"><ele>20.0</ele><time>2026-03-28T14:12:25.044Z</time></trkpt><trkpt lat="40.1768833" lon="15.0819"><ele>20.0</ele><time>2026-03-28T14:12:26.044Z</time></trkpt><trkpt lat="40.1770017" lon="15.0818217"><ele>20.0</ele><time>2026-03-28T14:12:27.044Z</time></trkpt><trkpt lat="40.1770983" lon="15.08173"><ele>20.0</ele><time>2026-03-28T14:12:28.045Z</time></trkpt><trkpt lat="40.1771583" lon="15.081625"><ele>18.0</ele><time>2026-03-28T14:12:29.044Z</time></trkpt><trkpt lat="40.1771917" lon="15.0815033"><ele>16.0</ele><time>2026-03-28T14:12:30.044Z</time></trkpt><trkpt lat="40.17719" lon="15.0813717"><ele>14.0</ele><time>2026-03-28T14:12:31.045Z</time></trkpt><trkpt lat="40.17716" lon="15.081225"><ele>12.0</ele><time>2026-03-28T14:12:32.044Z</time></trkpt><trkpt lat="40.177105" lon="15.081055"><ele>12.0</ele><time>2026-03-28T14:12:33.044Z</time></trkpt><trkpt lat="40.1770517" lon="15.0808633"><ele>12.0</ele><time>2026-03-28T14:12:34.045Z</time></trkpt><trkpt lat="40.1769883" lon="15.08066"><ele>12.0</ele><time>2026-03-28T14:12:35.045Z</time></trkpt><trkpt lat="40.17692" lon="15.0804517"><ele>13.0</ele><time>2026-03-28T14:12:36.045Z</time></trkpt><trkpt lat="40.176855" lon="15.0802433"><ele>14.0</ele><time>2026-03-28T14:12:37.045Z</time></trkpt><trkpt lat="40.1767933" lon="15.08005"><ele>15.0</ele><time>2026-03-28T14:12:38.045Z</time></trkpt><trkpt lat="40.176735" lon="15.07987"><ele>19.0</ele><time>2026-03-28T14:12:39.045Z</time></trkpt><trkpt lat="40.176675" lon="15.07972"><ele>23.0</ele><time>2026-03-28T14:12:40.044Z</time></trkpt><trkpt lat="40.1765917" lon="15.0796083"><ele>27.0</ele><time>2026-03-28T14:12:41.045Z</time></trkpt><trkpt lat="40.1764967" lon="15.079545"><ele>31.0</ele><time>2026-03-28T14:12:42.045Z</time></trkpt><trkpt lat="40.1763783" lon="15.079535"><ele>32.75</ele><time>2026-03-28T14:12:43.044Z</time></trkpt><trkpt lat="40.1762633" lon="15.079565"><ele>34.5</ele><time>2026-03-28T14:12:44.044Z</time></trkpt><trkpt lat="40.1761417" lon="15.0796117"><ele>36.25</ele><time>2026-03-28T14:12:45.044Z</time></trkpt><trkpt lat="40.176005" lon="15.0796467"><ele>38.0</ele><time>2026-03-28T14:12:46.045Z</time></trkpt><trkpt lat="40.1758617" lon="15.0796433"><ele>38.0</ele><time>2026-03-28T14:12:47.044Z</time></trkpt><trkpt lat="40.17571" lon="15.0795967"><ele>38.0</ele><time>2026-03-28T14:12:48.044Z</time></trkpt><trkpt lat="40.1755667" lon="15.0795517"><ele>38.0</ele><time>2026-03-28T14:12:49.045Z</time></trkpt><trkpt lat="40.1754383" lon="15.079495"><ele>38.0</ele><time>2026-03-28T14:12:50.044Z</time></trkpt><trkpt lat="40.1753317" lon="15.0794217"><ele>38.4</ele><time>2026-03-28T14:12:51.044Z</time></trkpt><trkpt lat="40.1752467" lon="15.07933"><ele>38.8</ele><time>2026-03-28T14:12:52.044Z</time></trkpt><trkpt lat="40.175165" lon="15.0792733"><ele>39.2</ele><time>2026-03-28T14:12:53.044Z</time></trkpt><trkpt lat="40.175075" lon="15.079255"><ele>39.6</ele><time>2026-03-28T14:12:54.044Z</time></trkpt><trkpt lat="40.1749967" lon="15.0792917"><ele>40.0</ele><time>2026-03-28T14:12:55.044Z</time></trkpt><trkpt lat="40.1749283" lon="15.0793983"><ele>40.0</ele><time>2026-03-28T14:12:56.044Z</time></trkpt><trkpt lat="40.1748883" lon="15.0795367"><ele>40.0</ele><time>2026-03-28T14:12:57.044Z</time></trkpt><trkpt lat="40.17488" lon="15.0796833"><ele>40.0</ele><time>2026-03-28T14:12:58.044Z</time></trkpt><trkpt lat="40.1748917" lon="15.0798333"><ele>40.0</ele><time>2026-03-28T14:12:59.045Z</time></trkpt><trkpt lat="40.1748783" lon="15.0799517"><ele>40.0</ele><time>2026-03-28T14:13:00.045Z</time></trkpt><trkpt lat="40.1748283" lon="15.0800483"><ele>41.75</ele><time>2026-03-28T14:13:01.045Z</time></trkpt><trkpt lat="40.1747467" lon="15.0801317"><ele>43.5</ele><time>2026-03-28T14:13:02.045Z</time></trkpt><trkpt lat="40.17464" lon="15.0802233"><ele>45.25</ele><time>2026-03-28T14:13:03.044Z</time></trkpt><trkpt lat="40.17454" lon="15.080355"><ele>47.0</ele><time>2026-03-28T14:13:04.044Z</time></trkpt><trkpt lat="40.174445" lon="15.0805083"><ele>47.0</ele><time>2026-03-28T14:13:05.045Z</time></trkpt><trkpt lat="40.1743417" lon="15.0806467"><ele>47.0</ele><time>2026-03-28T14:13:06.045Z</time></trkpt><trkpt lat="40.174235" lon="15.0807583"><ele>47.0</ele><time>2026-03-28T14:13:07.044Z</time></trkpt><trkpt lat="40.1741367" lon="15.0808383"><ele>47.0</ele><time>2026-03-28T14:13:08.045Z</time></trkpt><trkpt lat="40.1740533" lon="15.0808917"><ele>48.8</ele><time>2026-03-28T14:13:09.045Z</time></trkpt><trkpt lat="40.1739733" lon="15.0809183"><ele>50.6</ele><time>2026-03-28T14:13:10.045Z</time></trkpt><trkpt lat="40.1739017" lon="15.0808767"><ele>52.39999999999999</ele><time>2026-03-28T14:13:11.044Z</time></trkpt><trkpt lat="40.1738383" lon="15.0807617"><ele>54.199999999999996</ele><time>2026-03-28T14:13:12.044Z</time></trkpt><trkpt lat="40.173755" lon="15.08061"><ele>56.0</ele><time>2026-03-28T14:13:13.044Z</time></trkpt><trkpt lat="40.173635" lon="15.080475"><ele>56.0</ele><time>2026-03-28T14:13:14.045Z</time></trkpt><trkpt lat="40.1735083" lon="15.08035"><ele>56.0</ele><time>2026-03-28T14:13:15.044Z</time></trkpt><trkpt lat="40.1733867" lon="15.0802417"><ele>56.0</ele><time>2026-03-28T14:13:16.044Z</time></trkpt><trkpt lat="40.1732717" lon="15.0801533"><ele>56.0</ele><time>2026-03-28T14:13:17.044Z</time></trkpt><trkpt lat="40.1731633" lon="15.080115"><ele>59.75</ele><time>2026-03-28T14:13:18.044Z</time></trkpt><trkpt lat="40.1730583" lon="15.080125"><ele>63.5</ele><time>2026-03-28T14:13:19.044Z</time></trkpt><trkpt lat="40.1729733" lon="15.0801967"><ele>67.25</ele><time>2026-03-28T14:13:20.044Z</time></trkpt><trkpt lat="40.1728967" lon="15.0803267"><ele>71.0</ele><time>2026-03-28T14:13:21.044Z</time></trkpt><trkpt lat="40.17283" lon="15.080475"><ele>71.0</ele><time>2026-03-28T14:13:22.045Z</time></trkpt><trkpt lat="40.1727567" lon="15.080615"><ele>71.0</ele><time>2026-03-28T14:13:23.045Z</time></trkpt><trkpt lat="40.1726483" lon="15.08071"><ele>71.0</ele><time>2026-03-28T14:13:24.044Z</time></trkpt><trkpt lat="40.1725267" lon="15.0807683"><ele>71.0</ele><time>2026-03-28T14:13:25.044Z</time></trkpt><trkpt lat="40.1723767" lon="15.080795"><ele>69.0</ele><time>2026-03-28T14:13:26.045Z</time></trkpt><trkpt lat="40.1722183" lon="15.0808067"><ele>67.0</ele><time>2026-03-28T14:13:27.044Z</time></trkpt><trkpt lat="40.1720683" lon="15.0808067"><ele>65.0</ele><time>2026-03-28T14:13:28.045Z</time></trkpt><trkpt lat="40.17193" lon="15.0807733"><ele>63.0</ele><time>2026-03-28T14:13:29.044Z</time></trkpt><trkpt lat="40.17182" lon="15.0807083"><ele>63.0</ele><time>2026-03-28T14:13:30.044Z</time></trkpt><trkpt lat="40.171725" lon="15.080605"><ele>63.0</ele><time>2026-03-28T14:13:31.044Z</time></trkpt><trkpt lat="40.1716783" lon="15.08045"><ele>63.0</ele><time>2026-03-28T14:13:32.045Z</time></trkpt><trkpt lat="40.17168" lon="15.080275"><ele>63.0</ele><time>2026-03-28T14:13:33.045Z</time></trkpt><trkpt lat="40.1716983" lon="15.08008"><ele>68.33333333333333</ele><time>2026-03-28T14:13:34.044Z</time></trkpt><trkpt lat="40.1716933" lon="15.079875"><ele>73.66666666666666</ele><time>2026-03-28T14:13:35.045Z</time></trkpt><trkpt lat="40.17165" lon="15.0796817"><ele>79.0</ele><time>2026-03-28T14:13:36.044Z</time></trkpt><trkpt lat="40.1715767" lon="15.079485"><ele>76.66666666666666</ele><time>2026-03-28T14:13:37.044Z</time></trkpt><trkpt lat="40.1714817" lon="15.0793"><ele>74.33333333333333</ele><time>2026-03-28T14:13:38.044Z</time></trkpt><trkpt lat="40.1713717" lon="15.0791433"><ele>72.0</ele><time>2026-03-28T14:13:39.045Z</time></trkpt><trkpt lat="40.1712383" lon="15.07901"><ele>72.0</ele><time>2026-03-28T14:13:40.044Z</time></trkpt><trkpt lat="40.17109" lon="15.07889"><ele>72.0</ele><time>2026-03-28T14:13:41.044Z</time></trkpt><trkpt lat="40.170955" lon="15.07875"><ele>72.0</ele><time>2026-03-28T14:13:42.044Z</time></trkpt><trkpt lat="40.1708367" lon="15.078605"><ele>72.0</ele><time>2026-03-28T14:13:43.044Z</time></trkpt><trkpt lat="40.17073" lon="15.07844"><ele>72.0</ele><time>2026-03-28T14:13:44.045Z</time></trkpt><trkpt lat="40.17064" lon="15.0782417"><ele>72.0</ele><time>2026-03-28T14:13:45.045Z</time></trkpt><trkpt lat="40.1705567" lon="15.0780317"><ele>73.0</ele><time>2026-03-28T14:13:46.044Z</time></trkpt><trkpt lat="40.1704583" lon="15.0778183"><ele>74.0</ele><time>2026-03-28T14:13:47.044Z</time></trkpt><trkpt lat="40.17034" lon="15.07761"><ele>75.0</ele><time>2026-03-28T14:13:48.045Z</time></trkpt><trkpt lat="40.1702133" lon="15.0774117"><ele>75.0</ele><time>2026-03-28T14:13:49.045Z</time></trkpt><trkpt lat="40.1701033" lon="15.0772383"><ele>75.0</ele><time>2026-03-28T14:13:50.044Z</time></trkpt><trkpt lat="40.170015" lon="15.0770517"><ele>75.0</ele><time>2026-03-28T14:13:51.045Z</time></trkpt><trkpt lat="40.16994" lon="15.0768433"><ele>75.0</ele><time>2026-03-28T14:13:52.045Z</time></trkpt><trkpt lat="40.169885" lon="15.07662"><ele>75.0</ele><time>2026-03-28T14:13:53.045Z</time></trkpt><trkpt lat="40.16982" lon="15.0763783"><ele>75.0</ele><time>2026-03-28T14:13:54.044Z</time></trkpt><trkpt lat="40.1697383" lon="15.0761267"><ele>71.33333333333333</ele><time>2026-03-28T14:13:55.045Z</time></trkpt><trkpt lat="40.169635" lon="15.075875"><ele>67.66666666666666</ele><time>2026-03-28T14:13:56.045Z</time></trkpt><trkpt lat="40.1695367" lon="15.0756283"><ele>64.0</ele><time>2026-03-28T14:13:57.045Z</time></trkpt><trkpt lat="40.1694483" lon="15.0753783"><ele>64.0</ele><time>2026-03-28T14:13:58.045Z</time></trkpt><trkpt lat="40.169385" lon="15.0751367"><ele>64.0</ele><time>2026-03-28T14:13:59.045Z</time></trkpt><trkpt lat="40.1693167" lon="15.074905"><ele>64.0</ele><time>2026-03-28T14:14:00.045Z</time></trkpt><trkpt lat="40.1692433" lon="15.0747017"><ele>66.0</ele><time>2026-03-28T14:14:01.044Z</time></trkpt><trkpt lat="40.1691733" lon="15.0745283"><ele>68.0</ele><time>2026-03-28T14:14:02.045Z</time></trkpt><trkpt lat="40.16913" lon="15.0743617"><ele>70.0</ele><time>2026-03-28T14:14:03.044Z</time></trkpt><trkpt lat="40.1691283" lon="15.074195"><ele>72.0</ele><time>2026-03-28T14:14:04.044Z</time></trkpt><trkpt lat="40.16916" lon="15.074025"><ele>73.66666666666667</ele><time>2026-03-28T14:14:05.044Z</time></trkpt><trkpt lat="40.1691817" lon="15.0738267"><ele>75.33333333333334</ele><time>2026-03-28T14:14:06.045Z</time></trkpt><trkpt lat="40.1691633" lon="15.0736233"><ele>77.0</ele><time>2026-03-28T14:14:07.045Z</time></trkpt><trkpt lat="40.1690883" lon="15.0734183"><ele>71.66666666666667</ele><time>2026-03-28T14:14:08.044Z</time></trkpt><trkpt lat="40.1689783" lon="15.0732333"><ele>66.33333333333333</ele><time>2026-03-28T14:14:09.044Z</time></trkpt><trkpt lat="40.1688717" lon="15.07305"><ele>61.0</ele><time>2026-03-28T14:14:10.044Z</time></trkpt><trkpt lat="40.168775" lon="15.07288"><ele>61.0</ele><time>2026-03-28T14:14:11.044Z</time></trkpt><trkpt lat="40.1687033" lon="15.07273"><ele>61.0</ele><time>2026-03-28T14:14:12.044Z</time></trkpt><trkpt lat="40.16869" lon="15.0725783"><ele>61.0</ele><time>2026-03-28T14:14:13.045Z</time></trkpt><trkpt lat="40.168705" lon="15.0724333"><ele>61.0</ele><time>2026-03-28T14:14:14.045Z</time></trkpt><trkpt lat="40.1687833" lon="15.0722867"><ele>59.33333333333333</ele><time>2026-03-28T14:14:15.045Z</time></trkpt><trkpt lat="40.1688917" lon="15.0721217"><ele>57.66666666666667</ele><time>2026-03-28T14:14:16.044Z</time></trkpt><trkpt lat="40.1690333" lon="15.0719533"><ele>56.0</ele><time>2026-03-28T14:14:17.044Z</time></trkpt><trkpt lat="40.1691683" lon="15.071765"><ele>62.0</ele><time>2026-03-28T14:14:18.045Z</time></trkpt><trkpt lat="40.1692733" lon="15.0715883"><ele>68.0</ele><time>2026-03-28T14:14:19.045Z</time></trkpt><trkpt lat="40.1693533" lon="15.0714233"><ele>74.0</ele><time>2026-03-28T14:14:20.044Z</time></trkpt><trkpt lat="40.1693967" lon="15.0712717"><ele>80.0</ele><time>2026-03-28T14:14:21.044Z</time></trkpt><trkpt lat="40.1693983" lon="15.0711167"><ele>80.0</ele><time>2026-03-28T14:14:22.044Z</time></trkpt><trkpt lat="40.1693633" lon="15.070955"><ele>80.0</ele><time>2026-03-28T14:14:23.045Z</time></trkpt><trkpt lat="40.169305" lon="15.0708133"><ele>80.0</ele><time>2026-03-28T14:14:24.045Z</time></trkpt><trkpt lat="40.1692283" lon="15.0707067"><ele>80.0</ele><time>2026-03-28T14:14:25.045Z</time></trkpt><trkpt lat="40.169145" lon="15.070635"><ele>81.5</ele><time>2026-03-28T14:14:26.045Z</time></trkpt><trkpt lat="40.169065" lon="15.07059"><ele>83.0</ele><time>2026-03-28T14:14:27.045Z</time></trkpt><trkpt lat="40.16899" lon="15.0705433"><ele>84.5</ele><time>2026-03-28T14:14:28.044Z</time></trkpt><trkpt lat="40.1689167" lon="15.070475"><ele>86.0</ele><time>2026-03-28T14:14:29.045Z</time></trkpt><trkpt lat="40.16886" lon="15.0703917"><ele>87.5</ele><time>2026-03-28T14:14:30.045Z</time></trkpt><trkpt lat="40.1688217" lon="15.0703"><ele>89.0</ele><time>2026-03-28T14:14:31.044Z</time></trkpt><trkpt lat="40.1688017" lon="15.0701967"><ele>84.2</ele><time>2026-03-28T14:14:32.045Z</time></trkpt><trkpt lat="40.1688117" lon="15.0700933"><ele>79.4</ele><time>2026-03-28T14:14:33.044Z</time></trkpt><trkpt lat="40.1688383" lon="15.0699817"><ele>74.6</ele><time>2026-03-28T14:14:34.045Z</time></trkpt><trkpt lat="40.16887" lon="15.06985"><ele>69.8</ele><time>2026-03-28T14:14:35.045Z</time></trkpt><trkpt lat="40.16892" lon="15.0696867"><ele>65.0</ele><time>2026-03-28T14:14:36.045Z</time></trkpt><trkpt lat="40.1689867" lon="15.06951"><ele>71.0</ele><time>2026-03-28T14:14:37.044Z</time></trkpt><trkpt lat="40.1690617" lon="15.0693433"><ele>77.0</ele><time>2026-03-28T14:14:38.044Z</time></trkpt><trkpt lat="40.1691217" lon="15.0691767"><ele>83.0</ele><time>2026-03-28T14:14:39.044Z</time></trkpt><trkpt lat="40.1691433" lon="15.0689817"><ele>89.0</ele><time>2026-03-28T14:14:40.045Z</time></trkpt><trkpt lat="40.1691317" lon="15.06878"><ele>90.0</ele><time>2026-03-28T14:14:41.045Z</time></trkpt><trkpt lat="40.169095" lon="15.0685967"><ele>91.0</ele><time>2026-03-28T14:14:42.045Z</time></trkpt><trkpt lat="40.169035" lon="15.0684417"><ele>92.0</ele><time>2026-03-28T14:14:43.044Z</time></trkpt><trkpt lat="40.1689533" lon="15.068315"><ele>93.0</ele><time>2026-03-28T14:14:44.045Z</time></trkpt><trkpt lat="40.168845" lon="15.0682117"><ele>93.66666666666667</ele><time>2026-03-28T14:14:45.045Z</time></trkpt><trkpt lat="40.1687083" lon="15.0681083"><ele>94.33333333333334</ele><time>2026-03-28T14:14:46.044Z</time></trkpt><trkpt lat="40.168555" lon="15.0680083"><ele>95.0</ele><time>2026-03-28T14:14:47.044Z</time></trkpt><trkpt lat="40.1683833" lon="15.0679067"><ele>95.0</ele><time>2026-03-28T14:14:48.045Z</time></trkpt><trkpt lat="40.16821" lon="15.06779"><ele>95.0</ele><time>2026-03-28T14:14:49.045Z</time></trkpt><trkpt lat="40.1680317" lon="15.067645"><ele>95.0</ele><time>2026-03-28T14:14:50.044Z</time></trkpt><trkpt lat="40.1678533" lon="15.0674983"><ele>95.33333333333334</ele><time>2026-03-28T14:14:51.044Z</time></trkpt><trkpt lat="40.1676783" lon="15.0673467"><ele>95.66666666666667</ele><time>2026-03-28T14:14:52.045Z</time></trkpt><trkpt lat="40.167525" lon="15.0672067"><ele>96.0</ele><time>2026-03-28T14:14:53.044Z</time></trkpt><trkpt lat="40.1674017" lon="15.0670817"><ele>89.5</ele><time>2026-03-28T14:14:54.045Z</time></trkpt><trkpt lat="40.1673067" lon="15.066965"><ele>83.0</ele><time>2026-03-28T14:14:55.044Z</time></trkpt><trkpt lat="40.1672467" lon="15.0668433"><ele>76.5</ele><time>2026-03-28T14:14:56.045Z</time></trkpt><trkpt lat="40.167225" lon="15.0667083"><ele>70.0</ele><time>2026-03-28T14:14:57.045Z</time></trkpt><trkpt lat="40.1672383" lon="15.0665617"><ele>67.5</ele><time>2026-03-28T14:14:58.044Z</time></trkpt><trkpt lat="40.16728" lon="15.0664017"><ele>65.0</ele><time>2026-03-28T14:14:59.044Z</time></trkpt><trkpt lat="40.167355" lon="15.066235"><ele>62.5</ele><time>2026-03-28T14:15:00.044Z</time></trkpt><trkpt lat="40.1674517" lon="15.06606"><ele>60.0</ele><time>2026-03-28T14:15:01.044Z</time></trkpt><trkpt lat="40.16757" lon="15.065895"><ele>65.33333333333333</ele><time>2026-03-28T14:15:02.044Z</time></trkpt><trkpt lat="40.167705" lon="15.06574"><ele>70.66666666666666</ele><time>2026-03-28T14:15:03.044Z</time></trkpt><trkpt lat="40.1678317" lon="15.0655783"><ele>76.0</ele><time>2026-03-28T14:15:04.044Z</time></trkpt><trkpt lat="40.167935" lon="15.0654283"><ele>76.0</ele><time>2026-03-28T14:15:05.044Z</time></trkpt><trkpt lat="40.168035" lon="15.06532"><ele>76.0</ele><time>2026-03-28T14:15:06.044Z</time></trkpt><trkpt lat="40.1681417" lon="15.065255"><ele>76.0</ele><time>2026-03-28T14:15:07.045Z</time></trkpt><trkpt lat="40.1682717" lon="15.065245"><ele>76.0</ele><time>2026-03-28T14:15:08.044Z</time></trkpt><trkpt lat="40.1684183" lon="15.0652817"><ele>78.66666666666666</ele><time>2026-03-28T14:15:09.044Z</time></trkpt><trkpt lat="40.1685767" lon="15.0653433"><ele>81.33333333333333</ele><time>2026-03-28T14:15:10.044Z</time></trkpt><trkpt lat="40.1687467" lon="15.0654083"><ele>84.0</ele><time>2026-03-28T14:15:11.044Z</time></trkpt><trkpt lat="40.1689333" lon="15.0654633"><ele>84.33333333333333</ele><time>2026-03-28T14:15:12.044Z</time></trkpt><trkpt lat="40.16911" lon="15.065505"><ele>84.66666666666666</ele><time>2026-03-28T14:15:13.045Z</time></trkpt><trkpt lat="40.1692583" lon="15.065545"><ele>85.0</ele><time>2026-03-28T14:15:14.044Z</time></trkpt><trkpt lat="40.1693833" lon="15.0655767"><ele>85.0</ele><time>2026-03-28T14:15:15.045Z</time></trkpt><trkpt lat="40.169495" lon="15.0655767"><ele>85.0</ele><time>2026-03-28T14:15:16.045Z</time></trkpt><trkpt lat="40.1695983" lon="15.0655367"><ele>85.0</ele><time>2026-03-28T14:15:17.044Z</time></trkpt><trkpt lat="40.16968" lon="15.06546"><ele>85.0</ele><time>2026-03-28T14:15:18.044Z</time></trkpt><trkpt lat="40.1697317" lon="15.0653483"><ele>85.0</ele><time>2026-03-28T14:15:19.044Z</time></trkpt><trkpt lat="40.16978" lon="15.0652033"><ele>85.0</ele><time>2026-03-28T14:15:20.044Z</time></trkpt><trkpt lat="40.1698167" lon="15.0650383"><ele>85.0</ele><time>2026-03-28T14:15:21.044Z</time></trkpt><trkpt lat="40.169825" lon="15.064885"><ele>85.0</ele><time>2026-03-28T14:15:22.044Z</time></trkpt><trkpt lat="40.1698083" lon="15.06475"><ele>85.0</ele><time>2026-03-28T14:15:23.045Z</time></trkpt><trkpt lat="40.169765" lon="15.0646267"><ele>83.6</ele><time>2026-03-28T14:15:24.044Z</time></trkpt><trkpt lat="40.1697067" lon="15.0645183"><ele>82.2</ele><time>2026-03-28T14:15:25.044Z</time></trkpt><trkpt lat="40.1696533" lon="15.0643983"><ele>80.8</ele><time>2026-03-28T14:15:26.044Z</time></trkpt><trkpt lat="40.16964" lon="15.0642717"><ele>79.4</ele><time>2026-03-28T14:15:27.045Z</time></trkpt><trkpt lat="40.169665" lon="15.0641617"><ele>78.0</ele><time>2026-03-28T14:15:28.045Z</time></trkpt><trkpt lat="40.1697233" lon="15.0640633"><ele>79.0</ele><time>2026-03-28T14:15:29.045Z</time></trkpt><trkpt lat="40.169805" lon="15.0639817"><ele>80.0</ele><time>2026-03-28T14:15:30.044Z</time></trkpt><trkpt lat="40.1699283" lon="15.0638933"><ele>81.0</ele><time>2026-03-28T14:15:31.044Z</time></trkpt><trkpt lat="40.170095" lon="15.0637983"><ele>82.0</ele><time>2026-03-28T14:15:32.044Z</time></trkpt><trkpt lat="40.1702717" lon="15.063695"><ele>82.0</ele><time>2026-03-28T14:15:33.045Z</time></trkpt><trkpt lat="40.1704367" lon="15.0635833"><ele>82.0</ele><time>2026-03-28T14:15:34.044Z</time></trkpt><trkpt lat="40.1705917" lon="15.0634733"><ele>82.0</ele><time>2026-03-28T14:15:35.045Z</time></trkpt><trkpt lat="40.17073" lon="15.0633733"><ele>83.0</ele><time>2026-03-28T14:15:36.044Z</time></trkpt><trkpt lat="40.1708533" lon="15.0632783"><ele>84.0</ele><time>2026-03-28T14:15:37.044Z</time></trkpt><trkpt lat="40.1709617" lon="15.0631733"><ele>85.0</ele><time>2026-03-28T14:15:38.045Z</time></trkpt><trkpt lat="40.171035" lon="15.0630483"><ele>86.0</ele><time>2026-03-28T14:15:39.045Z</time></trkpt><trkpt lat="40.171075" lon="15.0628983"><ele>86.0</ele><time>2026-03-28T14:15:40.044Z</time></trkpt><trkpt lat="40.1710883" lon="15.06272"><ele>86.0</ele><time>2026-03-28T14:15:41.044Z</time></trkpt><trkpt lat="40.1710583" lon="15.0625233"><ele>86.0</ele><time>2026-03-28T14:15:42.045Z</time></trkpt><trkpt lat="40.17102" lon="15.0623217"><ele>86.0</ele><time>2026-03-28T14:15:43.045Z</time></trkpt><trkpt lat="40.1710017" lon="15.0621317"><ele>85.5</ele><time>2026-03-28T14:15:44.045Z</time></trkpt><trkpt lat="40.171" lon="15.0619417"><ele>85.0</ele><time>2026-03-28T14:15:45.045Z</time></trkpt><trkpt lat="40.1710017" lon="15.0617467"><ele>84.5</ele><time>2026-03-28T14:15:46.045Z</time></trkpt><trkpt lat="40.17098" lon="15.0615717"><ele>84.0</ele><time>2026-03-28T14:15:47.044Z</time></trkpt><trkpt lat="40.1709267" lon="15.0614167"><ele>87.0</ele><time>2026-03-28T14:15:48.044Z</time></trkpt><trkpt lat="40.1708433" lon="15.0612667"><ele>90.0</ele><time>2026-03-28T14:15:49.045Z</time></trkpt><trkpt lat="40.17072" lon="15.0611267"><ele>93.0</ele><time>2026-03-28T14:15:50.044Z</time></trkpt><trkpt lat="40.170575" lon="15.0609983"><ele>87.33333333333333</ele><time>2026-03-28T14:15:51.044Z</time></trkpt><trkpt lat="40.170415" lon="15.0608633"><ele>81.66666666666666</ele><time>2026-03-28T14:15:52.045Z</time></trkpt><trkpt lat="40.1702633" lon="15.060735"><ele>76.0</ele><time>2026-03-28T14:15:53.044Z</time></trkpt><trkpt lat="40.1701317" lon="15.0606133"><ele>76.0</ele><time>2026-03-28T14:15:54.045Z</time></trkpt><trkpt lat="40.1700017" lon="15.0604883"><ele>76.0</ele><time>2026-03-28T14:15:55.045Z</time></trkpt><trkpt lat="40.16989" lon="15.0603617"><ele>76.0</ele><time>2026-03-28T14:15:56.045Z</time></trkpt><trkpt lat="40.1697917" lon="15.06022"><ele>71.0</ele><time>2026-03-28T14:15:57.045Z</time></trkpt><trkpt lat="40.1697017" lon="15.060065"><ele>66.0</ele><time>2026-03-28T14:15:58.044Z</time></trkpt><trkpt lat="40.1696267" lon="15.0599067"><ele>61.0</ele><time>2026-03-28T14:15:59.044Z</time></trkpt><trkpt lat="40.1695733" lon="15.059755"><ele>56.0</ele><time>2026-03-28T14:16:00.044Z</time></trkpt><trkpt lat="40.1695583" lon="15.059625"><ele>54.599999999999994</ele><time>2026-03-28T14:16:01.045Z</time></trkpt><trkpt lat="40.169575" lon="15.0595133"><ele>53.199999999999996</ele><time>2026-03-28T14:16:02.045Z</time></trkpt><trkpt lat="40.1696233" lon="15.0594283"><ele>51.8</ele><time>2026-03-28T14:16:03.045Z</time></trkpt><trkpt lat="40.1696817" lon="15.0593533"><ele>50.400000000000006</ele><time>2026-03-28T14:16:04.044Z</time></trkpt><trkpt lat="40.16978" lon="15.0593067"><ele>49.0</ele><time>2026-03-28T14:16:05.044Z</time></trkpt><trkpt lat="40.1699217" lon="15.0592917"><ele>50.25</ele><time>2026-03-28T14:16:06.045Z</time></trkpt><trkpt lat="40.170065" lon="15.0592733"><ele>51.5</ele><time>2026-03-28T14:16:07.044Z</time></trkpt><trkpt lat="40.1701767" lon="15.0592167"><ele>52.75</ele><time>2026-03-28T14:16:08.044Z</time></trkpt><trkpt lat="40.1702383" lon="15.0591217"><ele>54.0</ele><time>2026-03-28T14:16:09.045Z</time></trkpt><trkpt lat="40.1702667" lon="15.0589883"><ele>54.0</ele><time>2026-03-28T14:16:10.045Z</time></trkpt><trkpt lat="40.17028" lon="15.0588267"><ele>54.00000000000001</ele><time>2026-03-28T14:16:11.045Z</time></trkpt><trkpt lat="40.1702867" lon="15.058665"><ele>54.00000000000001</ele><time>2026-03-28T14:16:12.044Z</time></trkpt><trkpt lat="40.1703033" lon="15.0585267"><ele>54.0</ele><time>2026-03-28T14:16:13.045Z</time></trkpt><trkpt lat="40.17033" lon="15.0584283"><ele>54.0</ele><time>2026-03-28T14:16:14.045Z</time></trkpt><trkpt lat="40.1703867" lon="15.0583533"><ele>54.0</ele><time>2026-03-28T14:16:15.045Z</time></trkpt><trkpt lat="40.170475" lon="15.05832"><ele>54.00000000000001</ele><time>2026-03-28T14:16:16.045Z</time></trkpt><trkpt lat="40.1705817" lon="15.0583067"><ele>54.00000000000001</ele><time>2026-03-28T14:16:17.045Z</time></trkpt><trkpt lat="40.17068" lon="15.058275"><ele>54.0</ele><time>2026-03-28T14:16:18.045Z</time></trkpt><trkpt lat="40.17076" lon="15.058205"><ele>54.0</ele><time>2026-03-28T14:16:19.045Z</time></trkpt><trkpt lat="40.17081" lon="15.0580783"><ele>58.0</ele><time>2026-03-28T14:16:20.045Z</time></trkpt><trkpt lat="40.1708133" lon="15.0579267"><ele>62.0</ele><time>2026-03-28T14:16:21.045Z</time></trkpt><trkpt lat="40.1707883" lon="15.057775"><ele>66.0</ele><time>2026-03-28T14:16:22.045Z</time></trkpt><trkpt lat="40.1707517" lon="15.0576283"><ele>70.0</ele><time>2026-03-28T14:16:23.044Z</time></trkpt><trkpt lat="40.170755" lon="15.057475"><ele>64.66666666666666</ele><time>2026-03-28T14:16:24.044Z</time></trkpt><trkpt lat="40.1708" lon="15.057315"><ele>59.33333333333333</ele><time>2026-03-28T14:16:25.044Z</time></trkpt><trkpt lat="40.1708683" lon="15.057125"><ele>54.0</ele><time>2026-03-28T14:16:26.045Z</time></trkpt><trkpt lat="40.1709367" lon="15.056935"><ele>54.0</ele><time>2026-03-28T14:16:27.045Z</time></trkpt><trkpt lat="40.1710033" lon="15.05676"><ele>54.0</ele><time>2026-03-28T14:16:28.045Z</time></trkpt><trkpt lat="40.1711033" lon="15.0565833"><ele>54.0</ele><time>2026-03-28T14:16:29.045Z</time></trkpt><trkpt lat="40.1712367" lon="15.0564217"><ele>57.0</ele><time>2026-03-28T14:16:30.045Z</time></trkpt><trkpt lat="40.1713717" lon="15.0562633"><ele>60.0</ele><time>2026-03-28T14:16:31.045Z</time></trkpt><trkpt lat="40.1714967" lon="15.05611"><ele>63.0</ele><time>2026-03-28T14:16:32.044Z</time></trkpt><trkpt lat="40.1716017" lon="15.0559617"><ele>63.0</ele><time>2026-03-28T14:16:33.044Z</time></trkpt><trkpt lat="40.1716967" lon="15.05581"><ele>63.0</ele><time>2026-03-28T14:16:34.044Z</time></trkpt><trkpt lat="40.1717667" lon="15.0556317"><ele>63.0</ele><time>2026-03-28T14:16:35.045Z</time></trkpt><trkpt lat="40.1718167" lon="15.05545"><ele>61.0</ele><time>2026-03-28T14:16:36.044Z</time></trkpt><trkpt lat="40.1718533" lon="15.0552733"><ele>59.0</ele><time>2026-03-28T14:16:37.045Z</time></trkpt><trkpt lat="40.1718533" lon="15.0551017"><ele>57.0</ele><time>2026-03-28T14:16:38.045Z</time></trkpt><trkpt lat="40.1718267" lon="15.0549117"><ele>55.0</ele><time>2026-03-28T14:16:39.044Z</time></trkpt><trkpt lat="40.1717733" lon="15.05468"><ele>53.666666666666664</ele><time>2026-03-28T14:16:40.044Z</time></trkpt><trkpt lat="40.171745" lon="15.05443"><ele>52.33333333333333</ele><time>2026-03-28T14:16:41.044Z</time></trkpt><trkpt lat="40.171715" lon="15.054205"><ele>51.0</ele><time>2026-03-28T14:16:42.045Z</time></trkpt><trkpt lat="40.171705" lon="15.053995"><ele>50.33333333333333</ele><time>2026-03-28T14:16:43.044Z</time></trkpt><trkpt lat="40.1717167" lon="15.0537833"><ele>49.666666666666664</ele><time>2026-03-28T14:16:44.045Z</time></trkpt><trkpt lat="40.171705" lon="15.0535783"><ele>49.0</ele><time>2026-03-28T14:16:45.045Z</time></trkpt><trkpt lat="40.1716767" lon="15.0533717"><ele>49.0</ele><time>2026-03-28T14:16:46.044Z</time></trkpt><trkpt lat="40.1716617" lon="15.0531717"><ele>49.0</ele><time>2026-03-28T14:16:47.044Z</time></trkpt><trkpt lat="40.1716683" lon="15.0529583"><ele>49.0</ele><time>2026-03-28T14:16:48.045Z</time></trkpt><trkpt lat="40.1716767" lon="15.0527433"><ele>49.0</ele><time>2026-03-28T14:16:49.045Z</time></trkpt><trkpt lat="40.1716867" lon="15.0525433"><ele>49.0</ele><time>2026-03-28T14:16:50.044Z</time></trkpt><trkpt lat="40.1716983" lon="15.0523583"><ele>49.0</ele><time>2026-03-28T14:16:51.044Z</time></trkpt><trkpt lat="40.171725" lon="15.0521883"><ele>49.0</ele><time>2026-03-28T14:16:52.044Z</time></trkpt><trkpt lat="40.1717833" lon="15.0520233"><ele>47.5</ele><time>2026-03-28T14:16:53.045Z</time></trkpt><trkpt lat="40.1718483" lon="15.05186"><ele>46.0</ele><time>2026-03-28T14:16:54.045Z</time></trkpt><trkpt lat="40.1718933" lon="15.0516783"><ele>44.5</ele><time>2026-03-28T14:16:55.044Z</time></trkpt><trkpt lat="40.1718933" lon="15.051505"><ele>43.0</ele><time>2026-03-28T14:16:56.045Z</time></trkpt><trkpt lat="40.1718683" lon="15.0513233"><ele>43.0</ele><time>2026-03-28T14:16:57.044Z</time></trkpt><trkpt lat="40.1718067" lon="15.05112"><ele>43.0</ele><time>2026-03-28T14:16:58.044Z</time></trkpt><trkpt lat="40.1717717" lon="15.0508967"><ele>43.0</ele><time>2026-03-28T14:16:59.044Z</time></trkpt><trkpt lat="40.171735" lon="15.0506633"><ele>46.0</ele><time>2026-03-28T14:17:00.044Z</time></trkpt><trkpt lat="40.1716667" lon="15.050415"><ele>49.0</ele><time>2026-03-28T14:17:01.045Z</time></trkpt><trkpt lat="40.1715883" lon="15.050155"><ele>52.0</ele><time>2026-03-28T14:17:02.044Z</time></trkpt><trkpt lat="40.1715083" lon="15.0498983"><ele>40.666666666666664</ele><time>2026-03-28T14:17:03.044Z</time></trkpt><trkpt lat="40.1714333" lon="15.0496567"><ele>29.333333333333332</ele><time>2026-03-28T14:17:04.045Z</time></trkpt><trkpt lat="40.1713617" lon="15.049425"><ele>18.0</ele><time>2026-03-28T14:17:05.044Z</time></trkpt><trkpt lat="40.1712917" lon="15.049195"><ele>20.333333333333336</ele><time>2026-03-28T14:17:06.045Z</time></trkpt><trkpt lat="40.17124" lon="15.0489733"><ele>22.666666666666668</ele><time>2026-03-28T14:17:07.044Z</time></trkpt><trkpt lat="40.171215" lon="15.0487517"><ele>25.0</ele><time>2026-03-28T14:17:08.044Z</time></trkpt><trkpt lat="40.17121" lon="15.04854"><ele>25.0</ele><time>2026-03-28T14:17:09.044Z</time></trkpt><trkpt lat="40.1711983" lon="15.0483383"><ele>25.0</ele><time>2026-03-28T14:17:10.044Z</time></trkpt><trkpt lat="40.17115" lon="15.04817"><ele>25.0</ele><time>2026-03-28T14:17:11.045Z</time></trkpt><trkpt lat="40.17108" lon="15.048025"><ele>25.0</ele><time>2026-03-28T14:17:12.044Z</time></trkpt><trkpt lat="40.170985" lon="15.04788"><ele>22.0</ele><time>2026-03-28T14:17:13.044Z</time></trkpt><trkpt lat="40.17088" lon="15.0477417"><ele>19.0</ele><time>2026-03-28T14:17:14.044Z</time></trkpt><trkpt lat="40.17078" lon="15.047585"><ele>16.0</ele><time>2026-03-28T14:17:15.045Z</time></trkpt><trkpt lat="40.17069" lon="15.0474133"><ele>16.0</ele><time>2026-03-28T14:17:16.045Z</time></trkpt><trkpt lat="40.1705983" lon="15.047235"><ele>16.0</ele><time>2026-03-28T14:17:17.044Z</time></trkpt><trkpt lat="40.1705167" lon="15.04706"><ele>16.0</ele><time>2026-03-28T14:17:18.045Z</time></trkpt><trkpt lat="40.17044" lon="15.0468917"><ele>16.0</ele><time>2026-03-28T14:17:19.045Z</time></trkpt><trkpt lat="40.1703683" lon="15.046735"><ele>16.0</ele><time>2026-03-28T14:17:20.045Z</time></trkpt><trkpt lat="40.1702967" lon="15.04658"><ele>16.0</ele><time>2026-03-28T14:17:21.045Z</time></trkpt><trkpt lat="40.1702217" lon="15.0464333"><ele>16.0</ele><time>2026-03-28T14:17:22.044Z</time></trkpt><trkpt lat="40.1701533" lon="15.0462767"><ele>16.5</ele><time>2026-03-28T14:17:23.044Z</time></trkpt><trkpt lat="40.1701183" lon="15.0461117"><ele>17.0</ele><time>2026-03-28T14:17:24.044Z</time></trkpt><trkpt lat="40.1701033" lon="15.0459367"><ele>17.5</ele><time>2026-03-28T14:17:25.045Z</time></trkpt><trkpt lat="40.1701" lon="15.04577"><ele>18.0</ele><time>2026-03-28T14:17:26.045Z</time></trkpt><trkpt lat="40.1701217" lon="15.045595"><ele>16.333333333333332</ele><time>2026-03-28T14:17:27.044Z</time></trkpt><trkpt lat="40.17017" lon="15.045415"><ele>14.666666666666666</ele><time>2026-03-28T14:17:28.044Z</time></trkpt><trkpt lat="40.1702367" lon="15.0452217"><ele>13.0</ele><time>2026-03-28T14:17:29.044Z</time></trkpt><trkpt lat="40.1703117" lon="15.045035"><ele>13.5</ele><time>2026-03-28T14:17:30.045Z</time></trkpt><trkpt lat="40.1703917" lon="15.04487"><ele>14.0</ele><time>2026-03-28T14:17:31.044Z</time></trkpt><trkpt lat="40.17048" lon="15.044735"><ele>14.5</ele><time>2026-03-28T14:17:32.045Z</time></trkpt><trkpt lat="40.1705867" lon="15.0446467"><ele>15.0</ele><time>2026-03-28T14:17:33.045Z</time></trkpt><trkpt lat="40.1706983" lon="15.04458"><ele>15.0</ele><time>2026-03-28T14:17:34.045Z</time></trkpt><trkpt lat="40.1708267" lon="15.044515"><ele>15.0</ele><time>2026-03-28T14:17:35.044Z</time></trkpt><trkpt lat="40.1709633" lon="15.0444317"><ele>15.0</ele><time>2026-03-28T14:17:36.044Z</time></trkpt><trkpt lat="40.1711" lon="15.0443433"><ele>15.0</ele><time>2026-03-28T14:17:37.045Z</time></trkpt><trkpt lat="40.1712367" lon="15.04427"><ele>15.0</ele><time>2026-03-28T14:17:38.044Z</time></trkpt><trkpt lat="40.171355" lon="15.0442067"><ele>15.0</ele><time>2026-03-28T14:17:39.044Z</time></trkpt><trkpt lat="40.171455" lon="15.044135"><ele>15.0</ele><time>2026-03-28T14:17:40.045Z</time></trkpt><trkpt lat="40.1715233" lon="15.0440367"><ele>15.0</ele><time>2026-03-28T14:17:41.044Z</time></trkpt><trkpt lat="40.1715617" lon="15.0439083"><ele>15.0</ele><time>2026-03-28T14:17:42.045Z</time></trkpt><trkpt lat="40.171555" lon="15.0437583"><ele>14.0</ele><time>2026-03-28T14:17:43.045Z</time></trkpt><trkpt lat="40.1715167" lon="15.043605"><ele>13.0</ele><time>2026-03-28T14:17:44.044Z</time></trkpt><trkpt lat="40.1714467" lon="15.0434433"><ele>12.0</ele><time>2026-03-28T14:17:45.045Z</time></trkpt><trkpt lat="40.17136" lon="15.0432733"><ele>11.0</ele><time>2026-03-28T14:17:46.045Z</time></trkpt><trkpt lat="40.1712817" lon="15.04308"><ele>10.666666666666666</ele><time>2026-03-28T14:17:47.044Z</time></trkpt><trkpt lat="40.1712317" lon="15.042875"><ele>10.333333333333334</ele><time>2026-03-28T14:17:48.044Z</time></trkpt><trkpt lat="40.1711933" lon="15.04268"><ele>10.0</ele><time>2026-03-28T14:17:49.045Z</time></trkpt><trkpt lat="40.1711917" lon="15.0424933"><ele>9.666666666666668</ele><time>2026-03-28T14:17:50.044Z</time></trkpt><trkpt lat="40.1712217" lon="15.0423183"><ele>9.333333333333334</ele><time>2026-03-28T14:17:51.044Z</time></trkpt><trkpt lat="40.1712883" lon="15.0421317"><ele>9.0</ele><time>2026-03-28T14:17:52.044Z</time></trkpt><trkpt lat="40.1713617" lon="15.0419167"><ele>9.0</ele><time>2026-03-28T14:17:53.044Z</time></trkpt><trkpt lat="40.1714367" lon="15.041685"><ele>9.0</ele><time>2026-03-28T14:17:54.045Z</time></trkpt><trkpt lat="40.1715167" lon="15.0414583"><ele>9.0</ele><time>2026-03-28T14:17:55.044Z</time></trkpt><trkpt lat="40.171595" lon="15.0412217"><ele>9.666666666666666</ele><time>2026-03-28T14:17:56.044Z</time></trkpt><trkpt lat="40.1716733" lon="15.0409833"><ele>10.333333333333332</ele><time>2026-03-28T14:17:57.045Z</time></trkpt><trkpt lat="40.17175" lon="15.0407483"><ele>11.0</ele><time>2026-03-28T14:17:58.045Z</time></trkpt><trkpt lat="40.1718283" lon="15.0405183"><ele>11.0</ele><time>2026-03-28T14:17:59.044Z</time></trkpt><trkpt lat="40.1719133" lon="15.040285"><ele>11.0</ele><time>2026-03-28T14:18:00.044Z</time></trkpt><trkpt lat="40.1719917" lon="15.0400617"><ele>11.0</ele><time>2026-03-28T14:18:01.044Z</time></trkpt><trkpt lat="40.17207" lon="15.0398367"><ele>9.333333333333332</ele><time>2026-03-28T14:18:02.044Z</time></trkpt><trkpt lat="40.1721583" lon="15.0396167"><ele>7.666666666666666</ele><time>2026-03-28T14:18:03.044Z</time></trkpt><trkpt lat="40.1722533" lon="15.0394017"><ele>6.0</ele><time>2026-03-28T14:18:04.044Z</time></trkpt><trkpt lat="40.1723467" lon="15.039185"><ele>8.333333333333332</ele><time>2026-03-28T14:18:05.044Z</time></trkpt><trkpt lat="40.172435" lon="15.0389717"><ele>10.666666666666666</ele><time>2026-03-28T14:18:06.044Z</time></trkpt><trkpt lat="40.17253" lon="15.0387617"><ele>13.0</ele><time>2026-03-28T14:18:07.045Z</time></trkpt><trkpt lat="40.1726283" lon="15.0385517"><ele>13.0</ele><time>2026-03-28T14:18:08.044Z</time></trkpt><trkpt lat="40.1727217" lon="15.0383317"><ele>13.0</ele><time>2026-03-28T14:18:09.045Z</time></trkpt><trkpt lat="40.1728233" lon="15.0381167"><ele>13.0</ele><time>2026-03-28T14:18:10.045Z</time></trkpt><trkpt lat="40.1729267" lon="15.0378983"><ele>12.333333333333332</ele><time>2026-03-28T14:18:11.045Z</time></trkpt><trkpt lat="40.1730267" lon="15.0376767"><ele>11.666666666666666</ele><time>2026-03-28T14:18:12.044Z</time></trkpt><trkpt lat="40.1731317" lon="15.0374583"><ele>11.0</ele><time>2026-03-28T14:18:13.045Z</time></trkpt><trkpt lat="40.1732233" lon="15.0372483"><ele>13.666666666666666</ele><time>2026-03-28T14:18:14.044Z</time></trkpt><trkpt lat="40.1733167" lon="15.03704"><ele>16.333333333333332</ele><time>2026-03-28T14:18:15.044Z</time></trkpt><trkpt lat="40.1734083" lon="15.036835"><ele>19.0</ele><time>2026-03-28T14:18:16.044Z</time></trkpt><trkpt lat="40.17351" lon="15.0366433"><ele>17.666666666666664</ele><time>2026-03-28T14:18:17.045Z</time></trkpt><trkpt lat="40.1736283" lon="15.0364633"><ele>16.333333333333332</ele><time>2026-03-28T14:18:18.044Z</time></trkpt><trkpt lat="40.1737583" lon="15.0362883"><ele>15.0</ele><time>2026-03-28T14:18:19.045Z</time></trkpt><trkpt lat="40.1738967" lon="15.0361167"><ele>14.666666666666668</ele><time>2026-03-28T14:18:20.045Z</time></trkpt><trkpt lat="40.1740367" lon="15.035945"><ele>14.333333333333334</ele><time>2026-03-28T14:18:21.045Z</time></trkpt><trkpt lat="40.1741767" lon="15.0357717"><ele>14.0</ele><time>2026-03-28T14:18:22.045Z</time></trkpt><trkpt lat="40.1743217" lon="15.0355983"><ele>14.0</ele><time>2026-03-28T14:18:23.045Z</time></trkpt><trkpt lat="40.1744617" lon="15.035415"><ele>14.0</ele><time>2026-03-28T14:18:24.044Z</time></trkpt><trkpt lat="40.174605" lon="15.0352267"><ele>14.0</ele><time>2026-03-28T14:18:25.044Z</time></trkpt><trkpt lat="40.1747467" lon="15.0350333"><ele>14.0</ele><time>2026-03-28T14:18:26.044Z</time></trkpt><trkpt lat="40.1748917" lon="15.0348467"><ele>14.0</ele><time>2026-03-28T14:18:27.044Z</time></trkpt><trkpt lat="40.17504" lon="15.034665"><ele>14.0</ele><time>2026-03-28T14:18:28.044Z</time></trkpt><trkpt lat="40.1751817" lon="15.034475"><ele>14.0</ele><time>2026-03-28T14:18:29.044Z</time></trkpt><trkpt lat="40.1753233" lon="15.0342833"><ele>14.0</ele><time>2026-03-28T14:18:30.044Z</time></trkpt><trkpt lat="40.175465" lon="15.0340983"><ele>14.0</ele><time>2026-03-28T14:18:31.044Z</time></trkpt><trkpt lat="40.1756133" lon="15.033915"><ele>15.0</ele><time>2026-03-28T14:18:32.045Z</time></trkpt><trkpt lat="40.1757617" lon="15.0337283"><ele>16.0</ele><time>2026-03-28T14:18:33.044Z</time></trkpt><trkpt lat="40.1759083" lon="15.03354"><ele>17.0</ele><time>2026-03-28T14:18:34.044Z</time></trkpt><trkpt lat="40.17605" lon="15.0333517"><ele>15.0</ele><time>2026-03-28T14:18:35.045Z</time></trkpt><trkpt lat="40.1761967" lon="15.0331683"><ele>13.0</ele><time>2026-03-28T14:18:36.045Z</time></trkpt><trkpt lat="40.1763367" lon="15.03298"><ele>11.0</ele><time>2026-03-28T14:18:37.044Z</time></trkpt><trkpt lat="40.176485" lon="15.0328033"><ele>11.666666666666666</ele><time>2026-03-28T14:18:38.045Z</time></trkpt><trkpt lat="40.1766183" lon="15.0326133"><ele>12.333333333333332</ele><time>2026-03-28T14:18:39.044Z</time></trkpt><trkpt lat="40.176755" lon="15.0324267"><ele>13.0</ele><time>2026-03-28T14:18:40.044Z</time></trkpt><trkpt lat="40.1769033" lon="15.03224"><ele>10.333333333333332</ele><time>2026-03-28T14:18:41.045Z</time></trkpt><trkpt lat="40.1770467" lon="15.0320567"><ele>7.666666666666666</ele><time>2026-03-28T14:18:42.045Z</time></trkpt><trkpt lat="40.1771917" lon="15.031875"><ele>5.0</ele><time>2026-03-28T14:18:43.045Z</time></trkpt><trkpt lat="40.1773333" lon="15.0316933"><ele>8.0</ele><time>2026-03-28T14:18:44.044Z</time></trkpt><trkpt lat="40.1774767" lon="15.0315133"><ele>11.0</ele><time>2026-03-28T14:18:45.044Z</time></trkpt><trkpt lat="40.1776333" lon="15.031335"><ele>14.0</ele><time>2026-03-28T14:18:46.044Z</time></trkpt><trkpt lat="40.1777783" lon="15.0311483"><ele>14.0</ele><time>2026-03-28T14:18:47.045Z</time></trkpt><trkpt lat="40.1779183" lon="15.030975"><ele>14.0</ele><time>2026-03-28T14:18:48.044Z</time></trkpt><trkpt lat="40.1780517" lon="15.0307967"><ele>14.0</ele><time>2026-03-28T14:18:49.045Z</time></trkpt><trkpt lat="40.1781783" lon="15.0306367"><ele>15.333333333333334</ele><time>2026-03-28T14:18:50.045Z</time></trkpt><trkpt lat="40.1783117" lon="15.0304883"><ele>16.666666666666668</ele><time>2026-03-28T14:18:51.045Z</time></trkpt><trkpt lat="40.1784533" lon="15.03035"><ele>18.0</ele><time>2026-03-28T14:18:52.044Z</time></trkpt><trkpt lat="40.1785983" lon="15.0302183"><ele>18.0</ele><time>2026-03-28T14:18:53.044Z</time></trkpt><trkpt lat="40.178755" lon="15.0301017"><ele>18.0</ele><time>2026-03-28T14:18:54.045Z</time></trkpt><trkpt lat="40.1789167" lon="15.0299983"><ele>18.0</ele><time>2026-03-28T14:18:55.044Z</time></trkpt><trkpt lat="40.17909" lon="15.0299033"><ele>17.333333333333332</ele><time>2026-03-28T14:18:56.044Z</time></trkpt><trkpt lat="40.1792683" lon="15.0298017"><ele>16.666666666666664</ele><time>2026-03-28T14:18:57.044Z</time></trkpt><trkpt lat="40.1794383" lon="15.0297"><ele>16.0</ele><time>2026-03-28T14:18:58.044Z</time></trkpt><trkpt lat="40.1796133" lon="15.029605"><ele>16.0</ele><time>2026-03-28T14:18:59.045Z</time></trkpt><trkpt lat="40.17978" lon="15.0295067"><ele>16.0</ele><time>2026-03-28T14:19:00.045Z</time></trkpt><trkpt lat="40.179945" lon="15.029415"><ele>16.0</ele><time>2026-03-28T14:19:01.045Z</time></trkpt><trkpt lat="40.1801067" lon="15.0293217"><ele>15.0</ele><time>2026-03-28T14:19:02.045Z</time></trkpt><trkpt lat="40.18026" lon="15.0292167"><ele>14.0</ele><time>2026-03-28T14:19:03.044Z</time></trkpt><trkpt lat="40.18041" lon="15.0291083"><ele>13.0</ele><time>2026-03-28T14:19:04.044Z</time></trkpt><trkpt lat="40.1805533" lon="15.0290067"><ele>14.666666666666666</ele><time>2026-03-28T14:19:05.045Z</time></trkpt><trkpt lat="40.1806917" lon="15.028895"><ele>16.333333333333332</ele><time>2026-03-28T14:19:06.045Z</time></trkpt><trkpt lat="40.1808317" lon="15.02878"><ele>18.0</ele><time>2026-03-28T14:19:07.045Z</time></trkpt><trkpt lat="40.1809733" lon="15.028665"><ele>18.0</ele><time>2026-03-28T14:19:08.045Z</time></trkpt><trkpt lat="40.181115" lon="15.0285467"><ele>18.0</ele><time>2026-03-28T14:19:09.045Z</time></trkpt><trkpt lat="40.1812617" lon="15.0284317"><ele>18.0</ele><time>2026-03-28T14:19:10.044Z</time></trkpt><trkpt lat="40.1814083" lon="15.0283117"><ele>16.666666666666668</ele><time>2026-03-28T14:19:11.044Z</time></trkpt><trkpt lat="40.1815567" lon="15.0281883"><ele>15.333333333333334</ele><time>2026-03-28T14:19:12.045Z</time></trkpt><trkpt lat="40.1817133" lon="15.0280683"><ele>14.0</ele><time>2026-03-28T14:19:13.044Z</time></trkpt><trkpt lat="40.18188" lon="15.0279533"><ele>14.0</ele><time>2026-03-28T14:19:14.044Z</time></trkpt><trkpt lat="40.1820533" lon="15.02786"><ele>14.0</ele><time>2026-03-28T14:19:15.044Z</time></trkpt><trkpt lat="40.18223" lon="15.02777"><ele>14.0</ele><time>2026-03-28T14:19:16.044Z</time></trkpt><trkpt lat="40.182415" lon="15.0276917"><ele>14.666666666666668</ele><time>2026-03-28T14:19:17.044Z</time></trkpt><trkpt lat="40.1826033" lon="15.0276117"><ele>15.333333333333332</ele><time>2026-03-28T14:19:18.044Z</time></trkpt><trkpt lat="40.1827983" lon="15.0275333"><ele>16.0</ele><time>2026-03-28T14:19:19.044Z</time></trkpt><trkpt lat="40.182995" lon="15.0274467"><ele>15.0</ele><time>2026-03-28T14:19:20.045Z</time></trkpt><trkpt lat="40.1831867" lon="15.027355"><ele>14.0</ele><time>2026-03-28T14:19:21.044Z</time></trkpt><trkpt lat="40.183385" lon="15.02726"><ele>13.0</ele><time>2026-03-28T14:19:22.044Z</time></trkpt><trkpt lat="40.183585" lon="15.0271633"><ele>13.0</ele><time>2026-03-28T14:19:23.044Z</time></trkpt><trkpt lat="40.18379" lon="15.0270767"><ele>13.0</ele><time>2026-03-28T14:19:24.045Z</time></trkpt><trkpt lat="40.18399" lon="15.0269917"><ele>13.0</ele><time>2026-03-28T14:19:25.045Z</time></trkpt><trkpt lat="40.1841883" lon="15.0269"><ele>14.0</ele><time>2026-03-28T14:19:26.044Z</time></trkpt><trkpt lat="40.184395" lon="15.026815"><ele>15.0</ele><time>2026-03-28T14:19:27.044Z</time></trkpt><trkpt lat="40.1845983" lon="15.026725"><ele>16.0</ele><time>2026-03-28T14:19:28.044Z</time></trkpt><trkpt lat="40.1847917" lon="15.0266267"><ele>13.666666666666666</ele><time>2026-03-28T14:19:29.045Z</time></trkpt><trkpt lat="40.1849883" lon="15.026535"><ele>11.333333333333332</ele><time>2026-03-28T14:19:30.045Z</time></trkpt><trkpt lat="40.1851817" lon="15.02644"><ele>9.0</ele><time>2026-03-28T14:19:31.045Z</time></trkpt><trkpt lat="40.18537" lon="15.0263417"><ele>9.0</ele><time>2026-03-28T14:19:32.045Z</time></trkpt><trkpt lat="40.185555" lon="15.0262317"><ele>9.0</ele><time>2026-03-28T14:19:33.044Z</time></trkpt><trkpt lat="40.1857317" lon="15.02611"><ele>9.0</ele><time>2026-03-28T14:19:34.044Z</time></trkpt><trkpt lat="40.1859017" lon="15.025985"><ele>9.0</ele><time>2026-03-28T14:19:35.045Z</time></trkpt><trkpt lat="40.1860767" lon="15.0258483"><ele>9.0</ele><time>2026-03-28T14:19:36.044Z</time></trkpt><trkpt lat="40.1862417" lon="15.0257067"><ele>9.0</ele><time>2026-03-28T14:19:37.044Z</time></trkpt><trkpt lat="40.1864117" lon="15.0255633"><ele>10.333333333333332</ele><time>2026-03-28T14:19:38.045Z</time></trkpt><trkpt lat="40.1865867" lon="15.0254267"><ele>11.666666666666666</ele><time>2026-03-28T14:19:39.044Z</time></trkpt><trkpt lat="40.186765" lon="15.0252933"><ele>13.0</ele><time>2026-03-28T14:19:40.045Z</time></trkpt><trkpt lat="40.1869467" lon="15.0251567"><ele>13.0</ele><time>2026-03-28T14:19:41.044Z</time></trkpt><trkpt lat="40.1871267" lon="15.0250233"><ele>13.0</ele><time>2026-03-28T14:19:42.045Z</time></trkpt><trkpt lat="40.1873067" lon="15.0248883"><ele>13.0</ele><time>2026-03-28T14:19:43.044Z</time></trkpt><trkpt lat="40.18748" lon="15.0247583"><ele>13.0</ele><time>2026-03-28T14:19:44.045Z</time></trkpt><trkpt lat="40.1876533" lon="15.0246217"><ele>13.0</ele><time>2026-03-28T14:19:45.044Z</time></trkpt><trkpt lat="40.1878233" lon="15.0244917"><ele>13.0</ele><time>2026-03-28T14:19:46.044Z</time></trkpt><trkpt lat="40.188" lon="15.0243567"><ele>12.666666666666666</ele><time>2026-03-28T14:19:47.045Z</time></trkpt><trkpt lat="40.1881817" lon="15.0242133"><ele>12.333333333333332</ele><time>2026-03-28T14:19:48.044Z</time></trkpt><trkpt lat="40.18836" lon="15.024075"><ele>12.0</ele><time>2026-03-28T14:19:49.045Z</time></trkpt><trkpt lat="40.1885433" lon="15.0239317"><ele>12.0</ele><time>2026-03-28T14:19:50.044Z</time></trkpt><trkpt lat="40.188715" lon="15.023805"><ele>12.0</ele><time>2026-03-28T14:19:51.044Z</time></trkpt><trkpt lat="40.18889" lon="15.0236933"><ele>12.0</ele><time>2026-03-28T14:19:52.045Z</time></trkpt><trkpt lat="40.1890683" lon="15.0235917"><ele>12.666666666666668</ele><time>2026-03-28T14:19:53.045Z</time></trkpt><trkpt lat="40.1892417" lon="15.02349"><ele>13.333333333333334</ele><time>2026-03-28T14:19:54.044Z</time></trkpt><trkpt lat="40.18941" lon="15.0234017"><ele>14.0</ele><time>2026-03-28T14:19:55.044Z</time></trkpt><trkpt lat="40.1895633" lon="15.0233133"><ele>14.666666666666668</ele><time>2026-03-28T14:19:56.045Z</time></trkpt><trkpt lat="40.18972" lon="15.0232233"><ele>15.333333333333332</ele><time>2026-03-28T14:19:57.045Z</time></trkpt><trkpt lat="40.1898817" lon="15.0231317"><ele>16.0</ele><time>2026-03-28T14:19:58.044Z</time></trkpt><trkpt lat="40.1900517" lon="15.023045"><ele>16.0</ele><time>2026-03-28T14:19:59.044Z</time></trkpt><trkpt lat="40.1902333" lon="15.0229583"><ele>16.0</ele><time>2026-03-28T14:20:00.044Z</time></trkpt><trkpt lat="40.190415" lon="15.0228567"><ele>16.0</ele><time>2026-03-28T14:20:01.045Z</time></trkpt><trkpt lat="40.1905917" lon="15.0227467"><ele>19.333333333333332</ele><time>2026-03-28T14:20:02.045Z</time></trkpt><trkpt lat="40.1907483" lon="15.022645"><ele>22.666666666666664</ele><time>2026-03-28T14:20:03.044Z</time></trkpt><trkpt lat="40.1908983" lon="15.02256"><ele>26.0</ele><time>2026-03-28T14:20:04.045Z</time></trkpt><trkpt lat="40.1910383" lon="15.0224867"><ele>26.5</ele><time>2026-03-28T14:20:05.045Z</time></trkpt><trkpt lat="40.1911733" lon="15.0224483"><ele>27.0</ele><time>2026-03-28T14:20:06.045Z</time></trkpt><trkpt lat="40.1913067" lon="15.022445"><ele>27.5</ele><time>2026-03-28T14:20:07.045Z</time></trkpt><trkpt lat="40.191425" lon="15.0224483"><ele>28.0</ele><time>2026-03-28T14:20:08.044Z</time></trkpt><trkpt lat="40.19154" lon="15.0224833"><ele>28.0</ele><time>2026-03-28T14:20:09.044Z</time></trkpt><trkpt lat="40.1916717" lon="15.0225233"><ele>28.0</ele><time>2026-03-28T14:20:10.045Z</time></trkpt><trkpt lat="40.1918067" lon="15.0225767"><ele>28.0</ele><time>2026-03-28T14:20:11.044Z</time></trkpt><trkpt lat="40.19195" lon="15.0226233"><ele>28.0</ele><time>2026-03-28T14:20:12.045Z</time></trkpt><trkpt lat="40.192085" lon="15.022665"><ele>28.0</ele><time>2026-03-28T14:20:13.045Z</time></trkpt><trkpt lat="40.1922083" lon="15.0226867"><ele>28.0</ele><time>2026-03-28T14:20:14.045Z</time></trkpt><trkpt lat="40.1923333" lon="15.0226617"><ele>28.0</ele><time>2026-03-28T14:20:15.045Z</time></trkpt><trkpt lat="40.1924533" lon="15.0225983"><ele>28.0</ele><time>2026-03-28T14:20:16.045Z</time></trkpt><trkpt lat="40.192575" lon="15.0225"><ele>25.333333333333336</ele><time>2026-03-28T14:20:17.045Z</time></trkpt><trkpt lat="40.192695" lon="15.0223867"><ele>22.666666666666668</ele><time>2026-03-28T14:20:18.044Z</time></trkpt><trkpt lat="40.1928283" lon="15.0222683"><ele>20.0</ele><time>2026-03-28T14:20:19.044Z</time></trkpt><trkpt lat="40.192965" lon="15.0221533"><ele>20.0</ele><time>2026-03-28T14:20:20.044Z</time></trkpt><trkpt lat="40.1930983" lon="15.0220317"><ele>20.0</ele><time>2026-03-28T14:20:21.045Z</time></trkpt><trkpt lat="40.19323" lon="15.0219133"><ele>20.0</ele><time>2026-03-28T14:20:22.045Z</time></trkpt><trkpt lat="40.1933667" lon="15.0217933"><ele>20.666666666666668</ele><time>2026-03-28T14:20:23.045Z</time></trkpt><trkpt lat="40.1934983" lon="15.0216733"><ele>21.333333333333332</ele><time>2026-03-28T14:20:24.044Z</time></trkpt><trkpt lat="40.1936333" lon="15.02155"><ele>22.0</ele><time>2026-03-28T14:20:25.045Z</time></trkpt><trkpt lat="40.193765" lon="15.0214333"><ele>22.0</ele><time>2026-03-28T14:20:26.044Z</time></trkpt><trkpt lat="40.193875" lon="15.0213033"><ele>22.0</ele><time>2026-03-28T14:20:27.044Z</time></trkpt><trkpt lat="40.19397" lon="15.0211817"><ele>22.0</ele><time>2026-03-28T14:20:28.045Z</time></trkpt><trkpt lat="40.19407" lon="15.0210717"><ele>22.0</ele><time>2026-03-28T14:20:29.045Z</time></trkpt><trkpt lat="40.1941817" lon="15.0209833"><ele>21.75</ele><time>2026-03-28T14:20:30.044Z</time></trkpt><trkpt lat="40.1942933" lon="15.0209083"><ele>21.5</ele><time>2026-03-28T14:20:31.044Z</time></trkpt><trkpt lat="40.1944417" lon="15.0208533"><ele>21.25</ele><time>2026-03-28T14:20:32.044Z</time></trkpt><trkpt lat="40.1945817" lon="15.0208133"><ele>21.0</ele><time>2026-03-28T14:20:33.045Z</time></trkpt><trkpt lat="40.1947233" lon="15.020755"><ele>23.0</ele><time>2026-03-28T14:20:34.044Z</time></trkpt><trkpt lat="40.194855" lon="15.0206633"><ele>25.0</ele><time>2026-03-28T14:20:35.044Z</time></trkpt><trkpt lat="40.1949833" lon="15.0205567"><ele>27.0</ele><time>2026-03-28T14:20:36.044Z</time></trkpt><trkpt lat="40.19511" lon="15.020445"><ele>27.0</ele><time>2026-03-28T14:20:37.044Z</time></trkpt><trkpt lat="40.1952333" lon="15.0203367"><ele>27.0</ele><time>2026-03-28T14:20:38.044Z</time></trkpt><trkpt lat="40.1953683" lon="15.020245"><ele>27.0</ele><time>2026-03-28T14:20:39.044Z</time></trkpt><trkpt lat="40.195515" lon="15.0201583"><ele>25.333333333333332</ele><time>2026-03-28T14:20:40.045Z</time></trkpt><trkpt lat="40.195675" lon="15.02007"><ele>23.666666666666664</ele><time>2026-03-28T14:20:41.044Z</time></trkpt><trkpt lat="40.1958283" lon="15.0199867"><ele>22.0</ele><time>2026-03-28T14:20:42.045Z</time></trkpt><trkpt lat="40.195985" lon="15.0198933"><ele>22.0</ele><time>2026-03-28T14:20:43.044Z</time></trkpt><trkpt lat="40.1961417" lon="15.0197933"><ele>22.0</ele><time>2026-03-28T14:20:44.044Z</time></trkpt><trkpt lat="40.196295" lon="15.01968"><ele>22.0</ele><time>2026-03-28T14:20:45.045Z</time></trkpt><trkpt lat="40.1964417" lon="15.01957"><ele>22.0</ele><time>2026-03-28T14:20:46.044Z</time></trkpt><trkpt lat="40.196575" lon="15.0194483"><ele>22.0</ele><time>2026-03-28T14:20:47.045Z</time></trkpt><trkpt lat="40.19669" lon="15.019345"><ele>22.0</ele><time>2026-03-28T14:20:48.044Z</time></trkpt><trkpt lat="40.1967983" lon="15.019235"><ele>22.0</ele><time>2026-03-28T14:20:49.045Z</time></trkpt><trkpt lat="40.1969117" lon="15.0191467"><ele>22.0</ele><time>2026-03-28T14:20:50.045Z</time></trkpt><trkpt lat="40.1970367" lon="15.0190783"><ele>22.0</ele><time>2026-03-28T14:20:51.044Z</time></trkpt><trkpt lat="40.1971683" lon="15.0190167"><ele>22.0</ele><time>2026-03-28T14:20:52.045Z</time></trkpt><trkpt lat="40.197315" lon="15.0189683"><ele>22.0</ele><time>2026-03-28T14:20:53.045Z</time></trkpt><trkpt lat="40.1974617" lon="15.01892"><ele>23.666666666666664</ele><time>2026-03-28T14:20:54.045Z</time></trkpt><trkpt lat="40.1976117" lon="15.0188617"><ele>25.333333333333332</ele><time>2026-03-28T14:20:55.044Z</time></trkpt><trkpt lat="40.1977617" lon="15.0187883"><ele>27.0</ele><time>2026-03-28T14:20:56.044Z</time></trkpt><trkpt lat="40.197905" lon="15.0186983"><ele>27.0</ele><time>2026-03-28T14:20:57.045Z</time></trkpt><trkpt lat="40.19806" lon="15.0186067"><ele>27.0</ele><time>2026-03-28T14:20:58.044Z</time></trkpt><trkpt lat="40.1982167" lon="15.0185217"><ele>27.0</ele><time>2026-03-28T14:20:59.044Z</time></trkpt><trkpt lat="40.19838" lon="15.0184367"><ele>26.666666666666664</ele><time>2026-03-28T14:21:00.045Z</time></trkpt><trkpt lat="40.19854" lon="15.018345"><ele>26.333333333333332</ele><time>2026-03-28T14:21:01.044Z</time></trkpt><trkpt lat="40.1986867" lon="15.0182517"><ele>26.0</ele><time>2026-03-28T14:21:02.044Z</time></trkpt><trkpt lat="40.19883" lon="15.01815"><ele>26.0</ele><time>2026-03-28T14:21:03.044Z</time></trkpt><trkpt lat="40.1989867" lon="15.0180633"><ele>26.0</ele><time>2026-03-28T14:21:04.044Z</time></trkpt><trkpt lat="40.19915" lon="15.0179717"><ele>26.0</ele><time>2026-03-28T14:21:05.045Z</time></trkpt><trkpt lat="40.19932" lon="15.0178917"><ele>28.666666666666664</ele><time>2026-03-28T14:21:06.044Z</time></trkpt><trkpt lat="40.1994817" lon="15.0177933"><ele>31.333333333333336</ele><time>2026-03-28T14:21:07.044Z</time></trkpt><trkpt lat="40.1996367" lon="15.0177017"><ele>34.0</ele><time>2026-03-28T14:21:08.045Z</time></trkpt><trkpt lat="40.1997883" lon="15.0176033"><ele>33.0</ele><time>2026-03-28T14:21:09.044Z</time></trkpt><trkpt lat="40.1999417" lon="15.0175117"><ele>32.0</ele><time>2026-03-28T14:21:10.045Z</time></trkpt><trkpt lat="40.2000983" lon="15.0174117"><ele>31.0</ele><time>2026-03-28T14:21:11.045Z</time></trkpt><trkpt lat="40.200245" lon="15.0173267"><ele>31.0</ele><time>2026-03-28T14:21:12.044Z</time></trkpt><trkpt lat="40.2003733" lon="15.0172433"><ele>31.0</ele><time>2026-03-28T14:21:13.044Z</time></trkpt><trkpt lat="40.200495" lon="15.01718"><ele>31.0</ele><time>2026-03-28T14:21:14.044Z</time></trkpt><trkpt lat="40.2006083" lon="15.0171333"><ele>31.0</ele><time>2026-03-28T14:21:15.044Z</time></trkpt><trkpt lat="40.2007167" lon="15.0171317"><ele>31.75</ele><time>2026-03-28T14:21:16.044Z</time></trkpt><trkpt lat="40.2008217" lon="15.017175"><ele>32.5</ele><time>2026-03-28T14:21:17.044Z</time></trkpt><trkpt lat="40.2009217" lon="15.01725"><ele>33.25</ele><time>2026-03-28T14:21:18.045Z</time></trkpt><trkpt lat="40.2010133" lon="15.0173533"><ele>34.0</ele><time>2026-03-28T14:21:19.044Z</time></trkpt><trkpt lat="40.201105" lon="15.0174467"><ele>34.0</ele><time>2026-03-28T14:21:20.045Z</time></trkpt><trkpt lat="40.2012017" lon="15.0175067"><ele>34.0</ele><time>2026-03-28T14:21:21.045Z</time></trkpt><trkpt lat="40.2012983" lon="15.017525"><ele>34.0</ele><time>2026-03-28T14:21:22.044Z</time></trkpt><trkpt lat="40.201385" lon="15.0174933"><ele>34.0</ele><time>2026-03-28T14:21:23.044Z</time></trkpt><trkpt lat="40.20147" lon="15.0174183"><ele>34.0</ele><time>2026-03-28T14:21:24.045Z</time></trkpt><trkpt lat="40.2015567" lon="15.01733"><ele>37.6</ele><time>2026-03-28T14:21:25.044Z</time></trkpt><trkpt lat="40.201645" lon="15.01723"><ele>41.2</ele><time>2026-03-28T14:21:26.044Z</time></trkpt><trkpt lat="40.201735" lon="15.017135"><ele>44.800000000000004</ele><time>2026-03-28T14:21:27.044Z</time></trkpt><trkpt lat="40.2018033" lon="15.0170383"><ele>48.4</ele><time>2026-03-28T14:21:28.045Z</time></trkpt><trkpt lat="40.2018333" lon="15.0169333"><ele>52.0</ele><time>2026-03-28T14:21:29.044Z</time></trkpt><trkpt lat="40.2018267" lon="15.0168183"><ele>52.0</ele><time>2026-03-28T14:21:30.045Z</time></trkpt><trkpt lat="40.2017983" lon="15.016695"><ele>52.0</ele><time>2026-03-28T14:21:31.044Z</time></trkpt><trkpt lat="40.2017533" lon="15.0165467"><ele>52.0</ele><time>2026-03-28T14:21:32.044Z</time></trkpt><trkpt lat="40.2016783" lon="15.0163817"><ele>52.0</ele><time>2026-03-28T14:21:33.045Z</time></trkpt><trkpt lat="40.201635" lon="15.0162233"><ele>51.25</ele><time>2026-03-28T14:21:34.044Z</time></trkpt><trkpt lat="40.2016383" lon="15.0160717"><ele>50.5</ele><time>2026-03-28T14:21:35.044Z</time></trkpt><trkpt lat="40.2016683" lon="15.015915"><ele>49.75</ele><time>2026-03-28T14:21:36.045Z</time></trkpt><trkpt lat="40.201725" lon="15.015765"><ele>49.0</ele><time>2026-03-28T14:21:37.045Z</time></trkpt><trkpt lat="40.2017933" lon="15.0156067"><ele>47.25</ele><time>2026-03-28T14:21:38.044Z</time></trkpt><trkpt lat="40.20186" lon="15.0154383"><ele>45.5</ele><time>2026-03-28T14:21:39.044Z</time></trkpt><trkpt lat="40.201925" lon="15.0152633"><ele>43.75</ele><time>2026-03-28T14:21:40.045Z</time></trkpt><trkpt lat="40.2020033" lon="15.0150883"><ele>42.0</ele><time>2026-03-28T14:21:41.044Z</time></trkpt><trkpt lat="40.2020917" lon="15.01492"><ele>39.0</ele><time>2026-03-28T14:21:42.044Z</time></trkpt><trkpt lat="40.2021983" lon="15.0147683"><ele>36.0</ele><time>2026-03-28T14:21:43.045Z</time></trkpt><trkpt lat="40.2023033" lon="15.0146033"><ele>33.0</ele><time>2026-03-28T14:21:44.044Z</time></trkpt><trkpt lat="40.2024017" lon="15.01444"><ele>37.0</ele><time>2026-03-28T14:21:45.045Z</time></trkpt><trkpt lat="40.202475" lon="15.014275"><ele>41.0</ele><time>2026-03-28T14:21:46.044Z</time></trkpt><trkpt lat="40.2025283" lon="15.0140983"><ele>45.0</ele><time>2026-03-28T14:21:47.044Z</time></trkpt><trkpt lat="40.2025683" lon="15.013905"><ele>49.0</ele><time>2026-03-28T14:21:48.044Z</time></trkpt><trkpt lat="40.2025917" lon="15.01371"><ele>49.0</ele><time>2026-03-28T14:21:49.044Z</time></trkpt><trkpt lat="40.2026367" lon="15.0135283"><ele>49.0</ele><time>2026-03-28T14:21:50.044Z</time></trkpt><trkpt lat="40.20272" lon="15.013365"><ele>49.0</ele><time>2026-03-28T14:21:51.044Z</time></trkpt><trkpt lat="40.2028167" lon="15.0132033"><ele>41.666666666666664</ele><time>2026-03-28T14:21:52.045Z</time></trkpt><trkpt lat="40.2029333" lon="15.01303"><ele>34.33333333333333</ele><time>2026-03-28T14:21:53.045Z</time></trkpt><trkpt lat="40.2030567" lon="15.0128283"><ele>27.0</ele><time>2026-03-28T14:21:54.045Z</time></trkpt><trkpt lat="40.2031567" lon="15.01261"><ele>31.0</ele><time>2026-03-28T14:21:55.044Z</time></trkpt><trkpt lat="40.203245" lon="15.0124183"><ele>35.0</ele><time>2026-03-28T14:21:56.045Z</time></trkpt><trkpt lat="40.20331" lon="15.01227"><ele>39.0</ele><time>2026-03-28T14:21:57.045Z</time></trkpt><trkpt lat="40.2033883" lon="15.012165"><ele>43.0</ele><time>2026-03-28T14:21:58.044Z</time></trkpt><trkpt lat="40.2034683" lon="15.0121017"><ele>43.0</ele><time>2026-03-28T14:21:59.045Z</time></trkpt><trkpt lat="40.203545" lon="15.0120817"><ele>43.0</ele><time>2026-03-28T14:22:00.044Z</time></trkpt><trkpt lat="40.2036267" lon="15.012105"><ele>43.0</ele><time>2026-03-28T14:22:01.044Z</time></trkpt><trkpt lat="40.2037067" lon="15.0121567"><ele>43.0</ele><time>2026-03-28T14:22:02.045Z</time></trkpt><trkpt lat="40.20378" lon="15.012225"><ele>43.0</ele><time>2026-03-28T14:22:03.045Z</time></trkpt><trkpt lat="40.20386" lon="15.012275"><ele>43.0</ele><time>2026-03-28T14:22:04.045Z</time></trkpt><trkpt lat="40.2039383" lon="15.0122833"><ele>50.8</ele><time>2026-03-28T14:22:05.044Z</time></trkpt><trkpt lat="40.2040167" lon="15.0122333"><ele>58.599999999999994</ele><time>2026-03-28T14:22:06.044Z</time></trkpt><trkpt lat="40.2040867" lon="15.012145"><ele>66.39999999999999</ele><time>2026-03-28T14:22:07.045Z</time></trkpt><trkpt lat="40.2041317" lon="15.0120083"><ele>74.19999999999999</ele><time>2026-03-28T14:22:08.045Z</time></trkpt><trkpt lat="40.2041633" lon="15.0118583"><ele>82.0</ele><time>2026-03-28T14:22:09.045Z</time></trkpt><trkpt lat="40.204185" lon="15.0117033"><ele>73.75</ele><time>2026-03-28T14:22:10.045Z</time></trkpt><trkpt lat="40.2042117" lon="15.0115533"><ele>65.5</ele><time>2026-03-28T14:22:11.044Z</time></trkpt><trkpt lat="40.2042533" lon="15.01142"><ele>57.25</ele><time>2026-03-28T14:22:12.045Z</time></trkpt><trkpt lat="40.2043283" lon="15.0113083"><ele>49.0</ele><time>2026-03-28T14:22:13.045Z</time></trkpt><trkpt lat="40.2044133" lon="15.0112133"><ele>48.99999999999999</ele><time>2026-03-28T14:22:14.044Z</time></trkpt><trkpt lat="40.2044883" lon="15.0111333"><ele>49.0</ele><time>2026-03-28T14:22:15.044Z</time></trkpt><trkpt lat="40.2045483" lon="15.0110683"><ele>49.0</ele><time>2026-03-28T14:22:16.044Z</time></trkpt><trkpt lat="40.2045983" lon="15.0109783"><ele>49.0</ele><time>2026-03-28T14:22:18.044Z</time></trkpt><trkpt lat="40.2046967" lon="15.0109"><ele>48.99999999999999</ele><time>2026-03-28T14:22:27.044Z</time></trkpt><trkpt lat="40.2047533" lon="15.0108583"><ele>49.0</ele><time>2026-03-28T14:22:28.045Z</time></trkpt><trkpt lat="40.20481" lon="15.0108"><ele>48.99999999999999</ele><time>2026-03-28T14:22:29.045Z</time></trkpt><trkpt lat="40.204865" lon="15.01075"><ele>49.0</ele><time>2026-03-28T14:22:30.045Z</time></trkpt><trkpt lat="40.204915" lon="15.0106967"><ele>49.0</ele><time>2026-03-28T14:22:32.044Z</time></trkpt><trkpt lat="40.2049667" lon="15.0106483"><ele>49.0</ele><time>2026-03-28T14:22:35.045Z</time></trkpt><trkpt lat="40.205065" lon="15.010605"><ele>48.99999999999999</ele><time>2026-03-28T14:22:37.044Z</time></trkpt><trkpt lat="40.2051383" lon="15.0105817"><ele>49.0</ele><time>2026-03-28T14:22:38.045Z</time></trkpt><trkpt lat="40.2052267" lon="15.010565"><ele>49.0</ele><time>2026-03-28T14:22:39.045Z</time></trkpt><trkpt lat="40.2053117" lon="15.0105417"><ele>49.0</ele><time>2026-03-28T14:22:40.044Z</time></trkpt><trkpt lat="40.2054117" lon="15.01051"><ele>49.0</ele><time>2026-03-28T14:22:41.045Z</time></trkpt><trkpt lat="40.205515" lon="15.0104583"><ele>49.0</ele><time>2026-03-28T14:22:42.045Z</time></trkpt><trkpt lat="40.2056183" lon="15.0103867"><ele>49.0</ele><time>2026-03-28T14:22:43.045Z</time></trkpt><trkpt lat="40.2057067" lon="15.0103083"><ele>52.0</ele><time>2026-03-28T14:22:44.044Z</time></trkpt><trkpt lat="40.2057867" lon="15.010205"><ele>55.0</ele><time>2026-03-28T14:22:45.044Z</time></trkpt><trkpt lat="40.205865" lon="15.010085"><ele>58.0</ele><time>2026-03-28T14:22:46.045Z</time></trkpt><trkpt lat="40.20594" lon="15.0099533"><ele>61.0</ele><time>2026-03-28T14:22:47.045Z</time></trkpt><trkpt lat="40.2060067" lon="15.009825"><ele>61.0</ele><time>2026-03-28T14:22:48.044Z</time></trkpt><trkpt lat="40.2060883" lon="15.0097133"><ele>61.0</ele><time>2026-03-28T14:22:49.044Z</time></trkpt><trkpt lat="40.2061767" lon="15.0096183"><ele>61.0</ele><time>2026-03-28T14:22:50.045Z</time></trkpt><trkpt lat="40.2062817" lon="15.0095483"><ele>61.0</ele><time>2026-03-28T14:22:51.045Z</time></trkpt><trkpt lat="40.2063917" lon="15.0094817"><ele>59.0</ele><time>2026-03-28T14:22:52.045Z</time></trkpt><trkpt lat="40.2064983" lon="15.0094033"><ele>57.0</ele><time>2026-03-28T14:22:53.045Z</time></trkpt><trkpt lat="40.2065933" lon="15.0093133"><ele>55.0</ele><time>2026-03-28T14:22:54.045Z</time></trkpt><trkpt lat="40.2066883" lon="15.0092117"><ele>53.0</ele><time>2026-03-28T14:22:55.045Z</time></trkpt><trkpt lat="40.206785" lon="15.0091167"><ele>53.0</ele><time>2026-03-28T14:22:56.045Z</time></trkpt><trkpt lat="40.2068867" lon="15.009025"><ele>53.0</ele><time>2026-03-28T14:22:57.044Z</time></trkpt><trkpt lat="40.2070033" lon="15.008945"><ele>53.0</ele><time>2026-03-28T14:22:58.044Z</time></trkpt><trkpt lat="40.207135" lon="15.0088683"><ele>53.0</ele><time>2026-03-28T14:22:59.044Z</time></trkpt><trkpt lat="40.20727" lon="15.0088267"><ele>57.75</ele><time>2026-03-28T14:23:00.045Z</time></trkpt><trkpt lat="40.2074033" lon="15.0087883"><ele>62.5</ele><time>2026-03-28T14:23:01.045Z</time></trkpt><trkpt lat="40.2075417" lon="15.0087533"><ele>67.25</ele><time>2026-03-28T14:23:02.044Z</time></trkpt><trkpt lat="40.20766" lon="15.0087133"><ele>72.0</ele><time>2026-03-28T14:23:03.044Z</time></trkpt><trkpt lat="40.2077733" lon="15.0086667"><ele>72.0</ele><time>2026-03-28T14:23:04.044Z</time></trkpt><trkpt lat="40.2078783" lon="15.0086"><ele>72.0</ele><time>2026-03-28T14:23:05.044Z</time></trkpt><trkpt lat="40.2079683" lon="15.008515"><ele>72.0</ele><time>2026-03-28T14:23:06.045Z</time></trkpt><trkpt lat="40.2080467" lon="15.008405"><ele>72.0</ele><time>2026-03-28T14:23:07.045Z</time></trkpt><trkpt lat="40.2081283" lon="15.008275"><ele>74.75</ele><time>2026-03-28T14:23:08.044Z</time></trkpt><trkpt lat="40.2081967" lon="15.0081333"><ele>77.5</ele><time>2026-03-28T14:23:09.045Z</time></trkpt><trkpt lat="40.20827" lon="15.0079833"><ele>80.25</ele><time>2026-03-28T14:23:10.044Z</time></trkpt><trkpt lat="40.2083433" lon="15.0078233"><ele>83.0</ele><time>2026-03-28T14:23:11.045Z</time></trkpt><trkpt lat="40.20842" lon="15.0076583"><ele>75.0</ele><time>2026-03-28T14:23:12.045Z</time></trkpt><trkpt lat="40.2084983" lon="15.0074783"><ele>67.0</ele><time>2026-03-28T14:23:13.045Z</time></trkpt><trkpt lat="40.2085783" lon="15.007295"><ele>59.0</ele><time>2026-03-28T14:23:14.044Z</time></trkpt><trkpt lat="40.2086567" lon="15.00711"><ele>59.0</ele><time>2026-03-28T14:23:15.044Z</time></trkpt><trkpt lat="40.2087233" lon="15.0069217"><ele>59.0</ele><time>2026-03-28T14:23:16.044Z</time></trkpt><trkpt lat="40.2087883" lon="15.0067317"><ele>59.0</ele><time>2026-03-28T14:23:17.045Z</time></trkpt><trkpt lat="40.2088517" lon="15.0065467"><ele>53.0</ele><time>2026-03-28T14:23:18.044Z</time></trkpt><trkpt lat="40.208915" lon="15.006365"><ele>47.0</ele><time>2026-03-28T14:23:19.045Z</time></trkpt><trkpt lat="40.208985" lon="15.0061883"><ele>41.0</ele><time>2026-03-28T14:23:20.044Z</time></trkpt><trkpt lat="40.209035" lon="15.0060067"><ele>49.0</ele><time>2026-03-28T14:23:21.044Z</time></trkpt><trkpt lat="40.2090917" lon="15.00582"><ele>57.0</ele><time>2026-03-28T14:23:22.044Z</time></trkpt><trkpt lat="40.2091467" lon="15.005635"><ele>65.0</ele><time>2026-03-28T14:23:23.045Z</time></trkpt><trkpt lat="40.2092067" lon="15.0054433"><ele>65.0</ele><time>2026-03-28T14:23:24.045Z</time></trkpt><trkpt lat="40.2092783" lon="15.0052617"><ele>65.0</ele><time>2026-03-28T14:23:25.045Z</time></trkpt><trkpt lat="40.2093617" lon="15.00508"><ele>65.0</ele><time>2026-03-28T14:23:26.045Z</time></trkpt><trkpt lat="40.2094483" lon="15.0048983"><ele>59.5</ele><time>2026-03-28T14:23:27.044Z</time></trkpt><trkpt lat="40.209535" lon="15.0047317"><ele>54.0</ele><time>2026-03-28T14:23:28.044Z</time></trkpt><trkpt lat="40.2096083" lon="15.0045683"><ele>48.5</ele><time>2026-03-28T14:23:29.045Z</time></trkpt><trkpt lat="40.2096733" lon="15.004415"><ele>43.0</ele><time>2026-03-28T14:23:30.045Z</time></trkpt><trkpt lat="40.2097483" lon="15.0042633"><ele>45.75</ele><time>2026-03-28T14:23:31.044Z</time></trkpt><trkpt lat="40.209815" lon="15.00411"><ele>48.5</ele><time>2026-03-28T14:23:32.044Z</time></trkpt><trkpt lat="40.2098767" lon="15.0039517"><ele>51.25</ele><time>2026-03-28T14:23:33.044Z</time></trkpt><trkpt lat="40.2099467" lon="15.003795"><ele>54.0</ele><time>2026-03-28T14:23:34.044Z</time></trkpt><trkpt lat="40.210025" lon="15.00364"><ele>54.0</ele><time>2026-03-28T14:23:35.045Z</time></trkpt><trkpt lat="40.210105" lon="15.0034983"><ele>54.0</ele><time>2026-03-28T14:23:36.045Z</time></trkpt><trkpt lat="40.2101967" lon="15.0033733"><ele>54.0</ele><time>2026-03-28T14:23:37.044Z</time></trkpt><trkpt lat="40.2102983" lon="15.0032483"><ele>54.0</ele><time>2026-03-28T14:23:38.045Z</time></trkpt><trkpt lat="40.2104" lon="15.0031183"><ele>53.75</ele><time>2026-03-28T14:23:39.045Z</time></trkpt><trkpt lat="40.2105" lon="15.00299"><ele>53.5</ele><time>2026-03-28T14:23:40.045Z</time></trkpt><trkpt lat="40.2105983" lon="15.00287"><ele>53.25</ele><time>2026-03-28T14:23:41.045Z</time></trkpt><trkpt lat="40.2106967" lon="15.002755"><ele>53.0</ele><time>2026-03-28T14:23:42.045Z</time></trkpt><trkpt lat="40.2107883" lon="15.0026317"><ele>53.0</ele><time>2026-03-28T14:23:43.045Z</time></trkpt><trkpt lat="40.2108817" lon="15.0025117"><ele>53.0</ele><time>2026-03-28T14:23:44.045Z</time></trkpt><trkpt lat="40.21097" lon="15.002405"><ele>53.0</ele><time>2026-03-28T14:23:45.044Z</time></trkpt><trkpt lat="40.21105" lon="15.0023117"><ele>53.0</ele><time>2026-03-28T14:23:46.044Z</time></trkpt><trkpt lat="40.211125" lon="15.0022333"><ele>50.50000000000001</ele><time>2026-03-28T14:23:47.044Z</time></trkpt><trkpt lat="40.2111917" lon="15.0021783"><ele>48.0</ele><time>2026-03-28T14:23:48.045Z</time></trkpt><trkpt lat="40.2112667" lon="15.0021283"><ele>45.5</ele><time>2026-03-28T14:23:49.045Z</time></trkpt><trkpt lat="40.2113383" lon="15.0020833"><ele>43.0</ele><time>2026-03-28T14:23:50.044Z</time></trkpt><trkpt lat="40.211415" lon="15.0020317"><ele>40.5</ele><time>2026-03-28T14:23:51.044Z</time></trkpt><trkpt lat="40.2114933" lon="15.0019933"><ele>38.0</ele><time>2026-03-28T14:23:52.045Z</time></trkpt><trkpt lat="40.2115733" lon="15.001965"><ele>38.0</ele><time>2026-03-28T14:23:53.044Z</time></trkpt><trkpt lat="40.2116483" lon="15.0019367"><ele>38.0</ele><time>2026-03-28T14:23:54.045Z</time></trkpt><trkpt lat="40.2117317" lon="15.001915"><ele>38.0</ele><time>2026-03-28T14:23:55.045Z</time></trkpt><trkpt lat="40.211805" lon="15.0018983"><ele>38.0</ele><time>2026-03-28T14:23:56.044Z</time></trkpt><trkpt lat="40.211885" lon="15.0018767"><ele>38.0</ele><time>2026-03-28T14:23:57.044Z</time></trkpt><trkpt lat="40.2119717" lon="15.0018433"><ele>38.0</ele><time>2026-03-28T14:23:58.044Z</time></trkpt><trkpt lat="40.2120633" lon="15.00181"><ele>38.0</ele><time>2026-03-28T14:23:59.044Z</time></trkpt><trkpt lat="40.212155" lon="15.0017733"><ele>38.0</ele><time>2026-03-28T14:24:00.045Z</time></trkpt><trkpt lat="40.2122483" lon="15.001735"><ele>38.0</ele><time>2026-03-28T14:24:01.044Z</time></trkpt><trkpt lat="40.2123467" lon="15.0016883"><ele>38.0</ele><time>2026-03-28T14:24:02.044Z</time></trkpt><trkpt lat="40.212445" lon="15.0016367"><ele>38.0</ele><time>2026-03-28T14:24:03.044Z</time></trkpt><trkpt lat="40.2125367" lon="15.0015833"><ele>35.199999999999996</ele><time>2026-03-28T14:24:04.045Z</time></trkpt><trkpt lat="40.2126167" lon="15.00154"><ele>32.4</ele><time>2026-03-28T14:24:05.044Z</time></trkpt><trkpt lat="40.2126783" lon="15.0015033"><ele>29.599999999999998</ele><time>2026-03-28T14:24:06.045Z</time></trkpt><trkpt lat="40.2127817" lon="15.0014217"><ele>26.799999999999997</ele><time>2026-03-28T14:24:08.044Z</time></trkpt><trkpt lat="40.21289" lon="15.0013517"><ele>24.0</ele><time>2026-03-28T14:24:10.044Z</time></trkpt><trkpt lat="40.21295" lon="15.0013167"><ele>24.0</ele><time>2026-03-28T14:24:11.045Z</time></trkpt><trkpt lat="40.2130167" lon="15.00128"><ele>24.0</ele><time>2026-03-28T14:24:12.045Z</time></trkpt><trkpt lat="40.2130817" lon="15.0012383"><ele>24.0</ele><time>2026-03-28T14:24:13.045Z</time></trkpt><trkpt lat="40.21316" lon="15.0011967"><ele>24.0</ele><time>2026-03-28T14:24:14.045Z</time></trkpt><trkpt lat="40.2132417" lon="15.0011533"><ele>24.0</ele><time>2026-03-28T14:24:15.045Z</time></trkpt><trkpt lat="40.2133333" lon="15.0011117"><ele>24.0</ele><time>2026-03-28T14:24:16.044Z</time></trkpt><trkpt lat="40.213425" lon="15.0010683"><ele>27.0</ele><time>2026-03-28T14:24:17.044Z</time></trkpt><trkpt lat="40.2135283" lon="15.001025"><ele>30.0</ele><time>2026-03-28T14:24:18.044Z</time></trkpt><trkpt lat="40.213645" lon="15.0009717"><ele>33.0</ele><time>2026-03-28T14:24:19.044Z</time></trkpt><trkpt lat="40.21377" lon="15.0009217"><ele>36.0</ele><time>2026-03-28T14:24:20.044Z</time></trkpt><trkpt lat="40.213885" lon="15.0008683"><ele>33.8</ele><time>2026-03-28T14:24:21.044Z</time></trkpt><trkpt lat="40.2139983" lon="15.000825"><ele>31.6</ele><time>2026-03-28T14:24:22.045Z</time></trkpt><trkpt lat="40.2141" lon="15.0007817"><ele>29.4</ele><time>2026-03-28T14:24:23.045Z</time></trkpt><trkpt lat="40.2141883" lon="15.000745"><ele>27.2</ele><time>2026-03-28T14:24:24.045Z</time></trkpt><trkpt lat="40.21426" lon="15.0007133"><ele>25.0</ele><time>2026-03-28T14:24:25.044Z</time></trkpt><trkpt lat="40.21434" lon="15.0006783"><ele>25.000000000000004</ele><time>2026-03-28T14:24:27.045Z</time></trkpt><trkpt lat="40.2144367" lon="15.00067"><ele>25.0</ele><time>2026-03-28T14:24:29.045Z</time></trkpt><trkpt lat="40.2145283" lon="15.0006683"><ele>25.0</ele><time>2026-03-28T14:24:31.045Z</time></trkpt><trkpt lat="40.2144567" lon="15.00069"><ele>25.0</ele><time>2026-03-28T14:29:52.046Z</time></trkpt><trkpt lat="40.2143867" lon="15.00067"><ele>25.000000000000004</ele><time>2026-03-28T14:29:56.045Z</time></trkpt><trkpt lat="40.2143683" lon="15.0005667"><ele>25.0</ele><time>2026-03-28T14:32:42.045Z</time></trkpt><trkpt lat="40.2144633" lon="15.0004733"><ele>25.0</ele><time>2026-03-28T14:32:44.045Z</time></trkpt><trkpt lat="40.21453" lon="15.0004067"><ele>25.0</ele><time>2026-03-28T14:32:45.046Z</time></trkpt><trkpt lat="40.2146117" lon="15.00034"><ele>25.0</ele><time>2026-03-28T14:32:46.046Z</time></trkpt><trkpt lat="40.2146967" lon="15.00026"><ele>25.0</ele><time>2026-03-28T14:32:47.046Z</time></trkpt><trkpt lat="40.2147933" lon="15.0001717"><ele>25.0</ele><time>2026-03-28T14:32:48.046Z</time></trkpt><trkpt lat="40.2148883" lon="15.0000683"><ele>27.0</ele><time>2026-03-28T14:32:49.045Z</time></trkpt><trkpt lat="40.2149783" lon="14.9999483"><ele>29.0</ele><time>2026-03-28T14:32:50.046Z</time></trkpt><trkpt lat="40.2150617" lon="14.9998117"><ele>31.0</ele><time>2026-03-28T14:32:51.046Z</time></trkpt><trkpt lat="40.2151433" lon="14.9996717"><ele>33.0</ele><time>2026-03-28T14:32:52.046Z</time></trkpt><trkpt lat="40.2152383" lon="14.9995517"><ele>33.0</ele><time>2026-03-28T14:32:53.045Z</time></trkpt><trkpt lat="40.2153467" lon="14.9994533"><ele>33.0</ele><time>2026-03-28T14:32:54.046Z</time></trkpt><trkpt lat="40.2154567" lon="14.9993867"><ele>33.0</ele><time>2026-03-28T14:32:55.045Z</time></trkpt><trkpt lat="40.2155683" lon="14.9993517"><ele>33.0</ele><time>2026-03-28T14:32:56.046Z</time></trkpt><trkpt lat="40.2156683" lon="14.9993417"><ele>32.4</ele><time>2026-03-28T14:32:57.045Z</time></trkpt><trkpt lat="40.21575" lon="14.9993517"><ele>31.799999999999997</ele><time>2026-03-28T14:32:58.045Z</time></trkpt><trkpt lat="40.215825" lon="14.9994017"><ele>31.2</ele><time>2026-03-28T14:32:59.046Z</time></trkpt><trkpt lat="40.215905" lon="14.9994983"><ele>30.6</ele><time>2026-03-28T14:33:00.045Z</time></trkpt><trkpt lat="40.2160017" lon="14.9996033"><ele>30.0</ele><time>2026-03-28T14:33:01.045Z</time></trkpt><trkpt lat="40.2161017" lon="14.999725"><ele>30.0</ele><time>2026-03-28T14:33:02.046Z</time></trkpt><trkpt lat="40.2161967" lon="14.9998667"><ele>30.0</ele><time>2026-03-28T14:33:03.045Z</time></trkpt><trkpt lat="40.216285" lon="15.0000133"><ele>30.0</ele><time>2026-03-28T14:33:04.045Z</time></trkpt><trkpt lat="40.2163783" lon="15.00015"><ele>30.0</ele><time>2026-03-28T14:33:05.045Z</time></trkpt><trkpt lat="40.21648" lon="15.00027"><ele>27.5</ele><time>2026-03-28T14:33:06.046Z</time></trkpt><trkpt lat="40.2165867" lon="15.000375"><ele>25.0</ele><time>2026-03-28T14:33:07.045Z</time></trkpt><trkpt lat="40.2167083" lon="15.000455"><ele>22.5</ele><time>2026-03-28T14:33:08.046Z</time></trkpt><trkpt lat="40.21684" lon="15.0005267"><ele>20.0</ele><time>2026-03-28T14:33:09.046Z</time></trkpt><trkpt lat="40.216965" lon="15.0005683"><ele>20.0</ele><time>2026-03-28T14:33:10.046Z</time></trkpt><trkpt lat="40.2170867" lon="15.0005567"><ele>20.0</ele><time>2026-03-28T14:33:11.046Z</time></trkpt><trkpt lat="40.2172133" lon="15.0005033"><ele>20.0</ele><time>2026-03-28T14:33:12.046Z</time></trkpt><trkpt lat="40.2173317" lon="15.000405"><ele>20.0</ele><time>2026-03-28T14:33:13.046Z</time></trkpt><trkpt lat="40.217435" lon="15.0002617"><ele>19.666666666666668</ele><time>2026-03-28T14:33:14.046Z</time></trkpt><trkpt lat="40.21756" lon="15.0001283"><ele>19.333333333333332</ele><time>2026-03-28T14:33:15.045Z</time></trkpt><trkpt lat="40.2176867" lon="14.9999967"><ele>19.0</ele><time>2026-03-28T14:33:16.046Z</time></trkpt><trkpt lat="40.2178217" lon="14.9998517"><ele>19.0</ele><time>2026-03-28T14:33:17.045Z</time></trkpt><trkpt lat="40.2179517" lon="14.9997067"><ele>19.0</ele><time>2026-03-28T14:33:18.046Z</time></trkpt><trkpt lat="40.218075" lon="14.9995733"><ele>19.0</ele><time>2026-03-28T14:33:19.045Z</time></trkpt><trkpt lat="40.2181917" lon="14.9994383"><ele>18.0</ele><time>2026-03-28T14:33:20.046Z</time></trkpt><trkpt lat="40.21831" lon="14.999305"><ele>17.0</ele><time>2026-03-28T14:33:21.045Z</time></trkpt><trkpt lat="40.2184283" lon="14.9991767"><ele>16.0</ele><time>2026-03-28T14:33:22.045Z</time></trkpt><trkpt lat="40.2185467" lon="14.9990483"><ele>16.0</ele><time>2026-03-28T14:33:23.046Z</time></trkpt><trkpt lat="40.2186583" lon="14.9989333"><ele>16.0</ele><time>2026-03-28T14:33:24.045Z</time></trkpt><trkpt lat="40.21876" lon="14.9988167"><ele>16.0</ele><time>2026-03-28T14:33:25.045Z</time></trkpt><trkpt lat="40.2188333" lon="14.9986817"><ele>16.0</ele><time>2026-03-28T14:33:26.045Z</time></trkpt><trkpt lat="40.218875" lon="14.9985333"><ele>16.0</ele><time>2026-03-28T14:33:27.045Z</time></trkpt><trkpt lat="40.21887" lon="14.99838"><ele>16.0</ele><time>2026-03-28T14:33:28.046Z</time></trkpt><trkpt lat="40.2188317" lon="14.9982267"><ele>16.0</ele><time>2026-03-28T14:33:29.045Z</time></trkpt><trkpt lat="40.218765" lon="14.9980667"><ele>16.0</ele><time>2026-03-28T14:33:30.045Z</time></trkpt><trkpt lat="40.21869" lon="14.9978883"><ele>16.666666666666664</ele><time>2026-03-28T14:33:31.045Z</time></trkpt><trkpt lat="40.2185983" lon="14.9976867"><ele>17.333333333333332</ele><time>2026-03-28T14:33:32.046Z</time></trkpt><trkpt lat="40.2185" lon="14.9974733"><ele>18.0</ele><time>2026-03-28T14:33:33.045Z</time></trkpt><trkpt lat="40.2184167" lon="14.9972483"><ele>18.666666666666668</ele><time>2026-03-28T14:33:34.045Z</time></trkpt><trkpt lat="40.2183333" lon="14.9970383"><ele>19.333333333333336</ele><time>2026-03-28T14:33:35.046Z</time></trkpt><trkpt lat="40.218245" lon="14.9968267"><ele>20.0</ele><time>2026-03-28T14:33:36.045Z</time></trkpt><trkpt lat="40.2181817" lon="14.996615"><ele>17.333333333333336</ele><time>2026-03-28T14:33:37.045Z</time></trkpt><trkpt lat="40.218145" lon="14.9963967"><ele>14.666666666666668</ele><time>2026-03-28T14:33:38.046Z</time></trkpt><trkpt lat="40.2181283" lon="14.99619"><ele>12.0</ele><time>2026-03-28T14:33:39.046Z</time></trkpt><trkpt lat="40.2181167" lon="14.99599"><ele>11.75</ele><time>2026-03-28T14:33:40.045Z</time></trkpt><trkpt lat="40.2181217" lon="14.9958017"><ele>11.5</ele><time>2026-03-28T14:33:41.045Z</time></trkpt><trkpt lat="40.2181383" lon="14.9956083"><ele>11.25</ele><time>2026-03-28T14:33:42.046Z</time></trkpt><trkpt lat="40.2181567" lon="14.9954067"><ele>11.0</ele><time>2026-03-28T14:33:43.045Z</time></trkpt><trkpt lat="40.2181483" lon="14.9951933"><ele>10.75</ele><time>2026-03-28T14:33:44.045Z</time></trkpt><trkpt lat="40.2181267" lon="14.9950017"><ele>10.5</ele><time>2026-03-28T14:33:45.046Z</time></trkpt><trkpt lat="40.2180967" lon="14.99482"><ele>10.25</ele><time>2026-03-28T14:33:46.045Z</time></trkpt><trkpt lat="40.218075" lon="14.9946533"><ele>10.0</ele><time>2026-03-28T14:33:47.045Z</time></trkpt><trkpt lat="40.2180783" lon="14.9944883"><ele>10.0</ele><time>2026-03-28T14:33:48.046Z</time></trkpt><trkpt lat="40.2180917" lon="14.9943267"><ele>10.0</ele><time>2026-03-28T14:33:49.046Z</time></trkpt><trkpt lat="40.21814" lon="14.99418"><ele>10.0</ele><time>2026-03-28T14:33:50.046Z</time></trkpt><trkpt lat="40.218215" lon="14.9940317"><ele>10.0</ele><time>2026-03-28T14:33:51.046Z</time></trkpt><trkpt lat="40.218305" lon="14.99387"><ele>11.333333333333334</ele><time>2026-03-28T14:33:52.045Z</time></trkpt><trkpt lat="40.218395" lon="14.9937033"><ele>12.666666666666668</ele><time>2026-03-28T14:33:53.045Z</time></trkpt><trkpt lat="40.21848" lon="14.9935267"><ele>14.0</ele><time>2026-03-28T14:33:54.045Z</time></trkpt><trkpt lat="40.218565" lon="14.99333"><ele>14.0</ele><time>2026-03-28T14:33:55.046Z</time></trkpt><trkpt lat="40.2186267" lon="14.9931117"><ele>14.0</ele><time>2026-03-28T14:33:56.046Z</time></trkpt><trkpt lat="40.21869" lon="14.9928767"><ele>14.0</ele><time>2026-03-28T14:33:57.046Z</time></trkpt><trkpt lat="40.2187517" lon="14.9926333"><ele>11.666666666666668</ele><time>2026-03-28T14:33:58.046Z</time></trkpt><trkpt lat="40.21883" lon="14.992405"><ele>9.333333333333334</ele><time>2026-03-28T14:33:59.045Z</time></trkpt><trkpt lat="40.218905" lon="14.99219"><ele>7.0</ele><time>2026-03-28T14:34:00.045Z</time></trkpt><trkpt lat="40.2189817" lon="14.9919583"><ele>11.666666666666668</ele><time>2026-03-28T14:34:01.046Z</time></trkpt><trkpt lat="40.219055" lon="14.9917283"><ele>16.333333333333332</ele><time>2026-03-28T14:34:02.045Z</time></trkpt><trkpt lat="40.2191117" lon="14.991495"><ele>21.0</ele><time>2026-03-28T14:34:03.045Z</time></trkpt><trkpt lat="40.2191733" lon="14.991275"><ele>21.0</ele><time>2026-03-28T14:34:04.045Z</time></trkpt><trkpt lat="40.2192567" lon="14.9910533"><ele>21.0</ele><time>2026-03-28T14:34:05.045Z</time></trkpt><trkpt lat="40.219355" lon="14.990825"><ele>21.0</ele><time>2026-03-28T14:34:06.045Z</time></trkpt><trkpt lat="40.219455" lon="14.990575"><ele>18.0</ele><time>2026-03-28T14:34:07.046Z</time></trkpt><trkpt lat="40.2195483" lon="14.9903083"><ele>15.0</ele><time>2026-03-28T14:34:08.046Z</time></trkpt><trkpt lat="40.21962" lon="14.990055"><ele>12.0</ele><time>2026-03-28T14:34:09.046Z</time></trkpt><trkpt lat="40.2196833" lon="14.9898217"><ele>10.333333333333334</ele><time>2026-03-28T14:34:10.046Z</time></trkpt><trkpt lat="40.2197417" lon="14.98961"><ele>8.666666666666668</ele><time>2026-03-28T14:34:11.046Z</time></trkpt><trkpt lat="40.2198033" lon="14.9894083"><ele>7.0</ele><time>2026-03-28T14:34:12.045Z</time></trkpt><trkpt lat="40.2198733" lon="14.989215"><ele>16.333333333333332</ele><time>2026-03-28T14:34:13.046Z</time></trkpt><trkpt lat="40.2199483" lon="14.9890283"><ele>25.666666666666664</ele><time>2026-03-28T14:34:14.045Z</time></trkpt><trkpt lat="40.2200267" lon="14.988845"><ele>35.0</ele><time>2026-03-28T14:34:15.045Z</time></trkpt><trkpt lat="40.2201067" lon="14.9886717"><ele>35.0</ele><time>2026-03-28T14:34:16.046Z</time></trkpt><trkpt lat="40.2201867" lon="14.9885267"><ele>35.0</ele><time>2026-03-28T14:34:17.046Z</time></trkpt><trkpt lat="40.2202617" lon="14.9884067"><ele>35.0</ele><time>2026-03-28T14:34:18.045Z</time></trkpt><trkpt lat="40.2203283" lon="14.9882933"><ele>35.0</ele><time>2026-03-28T14:34:19.045Z</time></trkpt><trkpt lat="40.2203883" lon="14.9881733"><ele>28.666666666666664</ele><time>2026-03-28T14:34:20.045Z</time></trkpt><trkpt lat="40.2204467" lon="14.9880233"><ele>22.333333333333332</ele><time>2026-03-28T14:34:21.045Z</time></trkpt><trkpt lat="40.2205017" lon="14.9878333"><ele>16.0</ele><time>2026-03-28T14:34:22.045Z</time></trkpt><trkpt lat="40.2205583" lon="14.987625"><ele>12.333333333333332</ele><time>2026-03-28T14:34:23.045Z</time></trkpt><trkpt lat="40.220615" lon="14.9874083"><ele>8.666666666666666</ele><time>2026-03-28T14:34:24.045Z</time></trkpt><trkpt lat="40.2206817" lon="14.9871933"><ele>5.0</ele><time>2026-03-28T14:34:25.046Z</time></trkpt><trkpt lat="40.2207567" lon="14.9869767"><ele>14.666666666666668</ele><time>2026-03-28T14:34:26.045Z</time></trkpt><trkpt lat="40.22083" lon="14.9867683"><ele>24.333333333333336</ele><time>2026-03-28T14:34:27.045Z</time></trkpt><trkpt lat="40.2208867" lon="14.9865817"><ele>34.0</ele><time>2026-03-28T14:34:28.045Z</time></trkpt><trkpt lat="40.2209417" lon="14.986425"><ele>34.0</ele><time>2026-03-28T14:34:29.046Z</time></trkpt><trkpt lat="40.2209967" lon="14.986305"><ele>34.0</ele><time>2026-03-28T14:34:30.046Z</time></trkpt><trkpt lat="40.2210633" lon="14.9862267"><ele>34.0</ele><time>2026-03-28T14:34:31.045Z</time></trkpt><trkpt lat="40.221145" lon="14.9861833"><ele>34.0</ele><time>2026-03-28T14:34:32.046Z</time></trkpt><trkpt lat="40.221245" lon="14.98618"><ele>34.0</ele><time>2026-03-28T14:34:33.046Z</time></trkpt><trkpt lat="40.22135" lon="14.98622"><ele>36.66666666666667</ele><time>2026-03-28T14:34:34.045Z</time></trkpt><trkpt lat="40.2214933" lon="14.9863133"><ele>39.333333333333336</ele><time>2026-03-28T14:34:35.046Z</time></trkpt><trkpt lat="40.2216467" lon="14.9864083"><ele>42.0</ele><time>2026-03-28T14:34:36.045Z</time></trkpt><trkpt lat="40.221795" lon="14.9865017"><ele>42.0</ele><time>2026-03-28T14:34:37.045Z</time></trkpt><trkpt lat="40.22194" lon="14.986575"><ele>42.0</ele><time>2026-03-28T14:34:38.045Z</time></trkpt><trkpt lat="40.2220833" lon="14.98662"><ele>42.0</ele><time>2026-03-28T14:34:39.046Z</time></trkpt><trkpt lat="40.2222267" lon="14.9866417"><ele>42.0</ele><time>2026-03-28T14:34:40.045Z</time></trkpt><trkpt lat="40.22236" lon="14.98665"><ele>41.5</ele><time>2026-03-28T14:34:41.046Z</time></trkpt><trkpt lat="40.2224883" lon="14.9866233"><ele>41.0</ele><time>2026-03-28T14:34:42.046Z</time></trkpt><trkpt lat="40.22261" lon="14.9865633"><ele>40.5</ele><time>2026-03-28T14:34:43.045Z</time></trkpt><trkpt lat="40.2227167" lon="14.98649"><ele>40.0</ele><time>2026-03-28T14:34:44.045Z</time></trkpt><trkpt lat="40.2228217" lon="14.9864067"><ele>40.0</ele><time>2026-03-28T14:34:45.045Z</time></trkpt><trkpt lat="40.222925" lon="14.986325"><ele>40.0</ele><time>2026-03-28T14:34:46.046Z</time></trkpt><trkpt lat="40.223015" lon="14.9862617"><ele>40.0</ele><time>2026-03-28T14:34:47.045Z</time></trkpt><trkpt lat="40.2231167" lon="14.986215"><ele>40.0</ele><time>2026-03-28T14:34:48.045Z</time></trkpt><trkpt lat="40.2232367" lon="14.9861717"><ele>42.5</ele><time>2026-03-28T14:34:49.045Z</time></trkpt><trkpt lat="40.2233683" lon="14.98615"><ele>45.0</ele><time>2026-03-28T14:34:50.046Z</time></trkpt><trkpt lat="40.2235" lon="14.986145"><ele>47.5</ele><time>2026-03-28T14:34:51.045Z</time></trkpt><trkpt lat="40.223625" lon="14.9861567"><ele>50.0</ele><time>2026-03-28T14:34:52.045Z</time></trkpt><trkpt lat="40.2237533" lon="14.9862083"><ele>50.0</ele><time>2026-03-28T14:34:53.045Z</time></trkpt><trkpt lat="40.2238683" lon="14.9862883"><ele>50.0</ele><time>2026-03-28T14:34:54.046Z</time></trkpt><trkpt lat="40.223975" lon="14.98639"><ele>50.0</ele><time>2026-03-28T14:34:55.045Z</time></trkpt><trkpt lat="40.2240833" lon="14.9865083"><ele>50.0</ele><time>2026-03-28T14:34:56.046Z</time></trkpt><trkpt lat="40.2242017" lon="14.9866067"><ele>45.66666666666667</ele><time>2026-03-28T14:34:57.045Z</time></trkpt><trkpt lat="40.224345" lon="14.9866483"><ele>41.333333333333336</ele><time>2026-03-28T14:34:58.045Z</time></trkpt><trkpt lat="40.2245" lon="14.986645"><ele>37.0</ele><time>2026-03-28T14:34:59.046Z</time></trkpt><trkpt lat="40.2246683" lon="14.9865983"><ele>37.0</ele><time>2026-03-28T14:35:00.046Z</time></trkpt><trkpt lat="40.2248433" lon="14.9865533"><ele>37.0</ele><time>2026-03-28T14:35:01.046Z</time></trkpt><trkpt lat="40.22501" lon="14.98653"><ele>37.0</ele><time>2026-03-28T14:35:02.045Z</time></trkpt><trkpt lat="40.22519" lon="14.98653"><ele>37.0</ele><time>2026-03-28T14:35:03.045Z</time></trkpt><trkpt lat="40.22538" lon="14.9865533"><ele>37.0</ele><time>2026-03-28T14:35:04.045Z</time></trkpt><trkpt lat="40.2255733" lon="14.9865817"><ele>37.0</ele><time>2026-03-28T14:35:05.046Z</time></trkpt><trkpt lat="40.2257783" lon="14.986615"><ele>34.333333333333336</ele><time>2026-03-28T14:35:06.046Z</time></trkpt><trkpt lat="40.22598" lon="14.986645"><ele>31.666666666666664</ele><time>2026-03-28T14:35:07.046Z</time></trkpt><trkpt lat="40.2261717" lon="14.9866717"><ele>29.0</ele><time>2026-03-28T14:35:08.046Z</time></trkpt><trkpt lat="40.2263717" lon="14.986705"><ele>38.0</ele><time>2026-03-28T14:35:09.045Z</time></trkpt><trkpt lat="40.2265667" lon="14.9867267"><ele>47.0</ele><time>2026-03-28T14:35:10.045Z</time></trkpt><trkpt lat="40.2267433" lon="14.98674"><ele>56.0</ele><time>2026-03-28T14:35:11.045Z</time></trkpt><trkpt lat="40.2269233" lon="14.9867483"><ele>56.0</ele><time>2026-03-28T14:35:12.045Z</time></trkpt><trkpt lat="40.227085" lon="14.986735"><ele>56.0</ele><time>2026-03-28T14:35:13.045Z</time></trkpt><trkpt lat="40.2272317" lon="14.98671"><ele>56.0</ele><time>2026-03-28T14:35:14.045Z</time></trkpt><trkpt lat="40.2273633" lon="14.9866767"><ele>56.0</ele><time>2026-03-28T14:35:15.045Z</time></trkpt><trkpt lat="40.2274783" lon="14.9866017"><ele>49.0</ele><time>2026-03-28T14:35:16.046Z</time></trkpt><trkpt lat="40.227565" lon="14.9864983"><ele>42.0</ele><time>2026-03-28T14:35:17.045Z</time></trkpt><trkpt lat="40.227615" lon="14.9863567"><ele>35.0</ele><time>2026-03-28T14:35:18.045Z</time></trkpt><trkpt lat="40.2276517" lon="14.9861933"><ele>28.0</ele><time>2026-03-28T14:35:19.046Z</time></trkpt><trkpt lat="40.227685" lon="14.9860083"><ele>24.666666666666668</ele><time>2026-03-28T14:35:20.046Z</time></trkpt><trkpt lat="40.2277183" lon="14.9857933"><ele>21.333333333333336</ele><time>2026-03-28T14:35:21.045Z</time></trkpt><trkpt lat="40.2277617" lon="14.9855683"><ele>18.0</ele><time>2026-03-28T14:35:22.045Z</time></trkpt><trkpt lat="40.2278017" lon="14.985365"><ele>18.0</ele><time>2026-03-28T14:35:23.046Z</time></trkpt><trkpt lat="40.2278417" lon="14.9851883"><ele>18.0</ele><time>2026-03-28T14:35:24.045Z</time></trkpt><trkpt lat="40.2278883" lon="14.9850267"><ele>18.0</ele><time>2026-03-28T14:35:25.045Z</time></trkpt><trkpt lat="40.2279383" lon="14.98489"><ele>18.0</ele><time>2026-03-28T14:35:26.045Z</time></trkpt><trkpt lat="40.22799" lon="14.98478"><ele>18.0</ele><time>2026-03-28T14:35:27.045Z</time></trkpt><trkpt lat="40.2280233" lon="14.9846833"><ele>18.0</ele><time>2026-03-28T14:35:28.046Z</time></trkpt><trkpt lat="40.2280117" lon="14.9846"><ele>18.0</ele><time>2026-03-28T14:35:29.046Z</time></trkpt><trkpt lat="40.227975" lon="14.9845117"><ele>18.0</ele><time>2026-03-28T14:35:30.046Z</time></trkpt><trkpt lat="40.2279067" lon="14.984405"><ele>18.0</ele><time>2026-03-28T14:35:31.045Z</time></trkpt><trkpt lat="40.2278167" lon="14.9842883"><ele>21.333333333333336</ele><time>2026-03-28T14:35:32.045Z</time></trkpt><trkpt lat="40.2277017" lon="14.9841567"><ele>24.666666666666668</ele><time>2026-03-28T14:35:33.045Z</time></trkpt><trkpt lat="40.2275783" lon="14.9840067"><ele>28.0</ele><time>2026-03-28T14:35:34.046Z</time></trkpt><trkpt lat="40.2274467" lon="14.98385"><ele>25.333333333333336</ele><time>2026-03-28T14:35:35.045Z</time></trkpt><trkpt lat="40.2273017" lon="14.9837083"><ele>22.666666666666668</ele><time>2026-03-28T14:35:36.045Z</time></trkpt><trkpt lat="40.2271533" lon="14.983575"><ele>20.0</ele><time>2026-03-28T14:35:37.045Z</time></trkpt><trkpt lat="40.22701" lon="14.98346"><ele>20.0</ele><time>2026-03-28T14:35:38.045Z</time></trkpt><trkpt lat="40.22687" lon="14.9833567"><ele>20.0</ele><time>2026-03-28T14:35:39.045Z</time></trkpt><trkpt lat="40.22672" lon="14.98327"><ele>20.0</ele><time>2026-03-28T14:35:40.045Z</time></trkpt><trkpt lat="40.2265567" lon="14.9832233"><ele>23.333333333333336</ele><time>2026-03-28T14:35:41.046Z</time></trkpt><trkpt lat="40.22638" lon="14.9831783"><ele>26.666666666666668</ele><time>2026-03-28T14:35:42.045Z</time></trkpt><trkpt lat="40.2261917" lon="14.9831617"><ele>30.0</ele><time>2026-03-28T14:35:43.045Z</time></trkpt><trkpt lat="40.2260017" lon="14.9831433"><ele>30.0</ele><time>2026-03-28T14:35:44.045Z</time></trkpt><trkpt lat="40.2258" lon="14.9831117"><ele>30.0</ele><time>2026-03-28T14:35:45.045Z</time></trkpt><trkpt lat="40.2256167" lon="14.98307"><ele>30.0</ele><time>2026-03-28T14:35:46.046Z</time></trkpt><trkpt lat="40.2254383" lon="14.983035"><ele>28.25</ele><time>2026-03-28T14:35:47.046Z</time></trkpt><trkpt lat="40.2252833" lon="14.98299"><ele>26.5</ele><time>2026-03-28T14:35:48.045Z</time></trkpt><trkpt lat="40.22514" lon="14.9829533"><ele>24.75</ele><time>2026-03-28T14:35:49.045Z</time></trkpt><trkpt lat="40.2250217" lon="14.982915"><ele>23.0</ele><time>2026-03-28T14:35:50.045Z</time></trkpt><trkpt lat="40.22492" lon="14.9828483"><ele>23.0</ele><time>2026-03-28T14:35:51.045Z</time></trkpt><trkpt lat="40.2248233" lon="14.9827217"><ele>23.0</ele><time>2026-03-28T14:35:52.045Z</time></trkpt><trkpt lat="40.22473" lon="14.9825667"><ele>23.0</ele><time>2026-03-28T14:35:53.046Z</time></trkpt><trkpt lat="40.224645" lon="14.9823767"><ele>22.666666666666668</ele><time>2026-03-28T14:35:54.045Z</time></trkpt><trkpt lat="40.2245783" lon="14.9821783"><ele>22.333333333333332</ele><time>2026-03-28T14:35:55.046Z</time></trkpt><trkpt lat="40.22454" lon="14.9819717"><ele>22.0</ele><time>2026-03-28T14:35:56.045Z</time></trkpt><trkpt lat="40.2245233" lon="14.9817517"><ele>24.666666666666664</ele><time>2026-03-28T14:35:57.046Z</time></trkpt><trkpt lat="40.2245217" lon="14.981525"><ele>27.333333333333332</ele><time>2026-03-28T14:35:58.046Z</time></trkpt><trkpt lat="40.2245467" lon="14.9812883"><ele>30.0</ele><time>2026-03-28T14:35:59.046Z</time></trkpt><trkpt lat="40.2245867" lon="14.9810467"><ele>30.666666666666664</ele><time>2026-03-28T14:36:00.045Z</time></trkpt><trkpt lat="40.22464" lon="14.9807967"><ele>31.333333333333332</ele><time>2026-03-28T14:36:01.045Z</time></trkpt><trkpt lat="40.2247" lon="14.9805517"><ele>32.0</ele><time>2026-03-28T14:36:02.046Z</time></trkpt><trkpt lat="40.2247583" lon="14.9803083"><ele>41.0</ele><time>2026-03-28T14:36:03.046Z</time></trkpt><trkpt lat="40.22482" lon="14.9800517"><ele>50.0</ele><time>2026-03-28T14:36:04.045Z</time></trkpt><trkpt lat="40.224885" lon="14.9798067"><ele>59.0</ele><time>2026-03-28T14:36:05.046Z</time></trkpt><trkpt lat="40.2249433" lon="14.9795633"><ele>59.0</ele><time>2026-03-28T14:36:06.046Z</time></trkpt><trkpt lat="40.2249933" lon="14.97931"><ele>59.0</ele><time>2026-03-28T14:36:07.045Z</time></trkpt><trkpt lat="40.2250317" lon="14.97904"><ele>59.0</ele><time>2026-03-28T14:36:08.046Z</time></trkpt><trkpt lat="40.2250583" lon="14.97875"><ele>57.0</ele><time>2026-03-28T14:36:09.046Z</time></trkpt><trkpt lat="40.22508" lon="14.9784533"><ele>55.0</ele><time>2026-03-28T14:36:10.045Z</time></trkpt><trkpt lat="40.2251017" lon="14.9781583"><ele>55.0</ele><time>2026-03-28T14:36:11.045Z</time></trkpt><trkpt lat="40.22512" lon="14.97788"><ele>55.0</ele><time>2026-03-28T14:36:12.046Z</time></trkpt><trkpt lat="40.2251467" lon="14.9776133"><ele>55.0</ele><time>2026-03-28T14:36:13.045Z</time></trkpt><trkpt lat="40.2251783" lon="14.9773567"><ele>55.33333333333333</ele><time>2026-03-28T14:36:14.045Z</time></trkpt><trkpt lat="40.22522" lon="14.9771"><ele>55.66666666666667</ele><time>2026-03-28T14:36:15.045Z</time></trkpt><trkpt lat="40.2252733" lon="14.976855"><ele>56.0</ele><time>2026-03-28T14:36:16.045Z</time></trkpt><trkpt lat="40.2253283" lon="14.9766267"><ele>56.0</ele><time>2026-03-28T14:36:17.046Z</time></trkpt><trkpt lat="40.22539" lon="14.97641"><ele>56.0</ele><time>2026-03-28T14:36:18.046Z</time></trkpt><trkpt lat="40.2254583" lon="14.976195"><ele>56.0</ele><time>2026-03-28T14:36:19.045Z</time></trkpt><trkpt lat="40.2255433" lon="14.975995"><ele>56.75</ele><time>2026-03-28T14:36:20.046Z</time></trkpt><trkpt lat="40.2256317" lon="14.9758167"><ele>57.5</ele><time>2026-03-28T14:36:21.046Z</time></trkpt><trkpt lat="40.2257033" lon="14.9756467"><ele>58.25</ele><time>2026-03-28T14:36:22.045Z</time></trkpt><trkpt lat="40.2257567" lon="14.9754817"><ele>59.0</ele><time>2026-03-28T14:36:23.046Z</time></trkpt><trkpt lat="40.22578" lon="14.9753283"><ele>62.400000000000006</ele><time>2026-03-28T14:36:24.045Z</time></trkpt><trkpt lat="40.2257633" lon="14.975195"><ele>65.80000000000001</ele><time>2026-03-28T14:36:25.046Z</time></trkpt><trkpt lat="40.2257167" lon="14.9750933"><ele>69.19999999999999</ele><time>2026-03-28T14:36:26.045Z</time></trkpt><trkpt lat="40.2256333" lon="14.9750183"><ele>72.6</ele><time>2026-03-28T14:36:27.045Z</time></trkpt><trkpt lat="40.2255167" lon="14.9749867"><ele>76.0</ele><time>2026-03-28T14:36:28.045Z</time></trkpt><trkpt lat="40.2253767" lon="14.9749717"><ele>76.0</ele><time>2026-03-28T14:36:29.045Z</time></trkpt><trkpt lat="40.22522" lon="14.9749683"><ele>76.0</ele><time>2026-03-28T14:36:30.045Z</time></trkpt><trkpt lat="40.2250483" lon="14.97496"><ele>76.0</ele><time>2026-03-28T14:36:31.045Z</time></trkpt><trkpt lat="40.2248833" lon="14.9749383"><ele>75.66666666666666</ele><time>2026-03-28T14:36:32.045Z</time></trkpt><trkpt lat="40.2247233" lon="14.974915"><ele>75.33333333333333</ele><time>2026-03-28T14:36:33.046Z</time></trkpt><trkpt lat="40.22457" lon="14.9748883"><ele>75.0</ele><time>2026-03-28T14:36:34.045Z</time></trkpt><trkpt lat="40.2244317" lon="14.974855"><ele>75.0</ele><time>2026-03-28T14:36:35.045Z</time></trkpt><trkpt lat="40.2243067" lon="14.9747833"><ele>75.0</ele><time>2026-03-28T14:36:36.046Z</time></trkpt><trkpt lat="40.2241933" lon="14.9746983"><ele>75.0</ele><time>2026-03-28T14:36:37.046Z</time></trkpt><trkpt lat="40.2240817" lon="14.9746283"><ele>75.0</ele><time>2026-03-28T14:36:38.045Z</time></trkpt><trkpt lat="40.2239717" lon="14.9746167"><ele>79.0</ele><time>2026-03-28T14:36:39.045Z</time></trkpt><trkpt lat="40.2238667" lon="14.97467"><ele>83.0</ele><time>2026-03-28T14:36:40.046Z</time></trkpt><trkpt lat="40.223765" lon="14.974765"><ele>87.0</ele><time>2026-03-28T14:36:41.045Z</time></trkpt><trkpt lat="40.2236517" lon="14.9748833"><ele>91.0</ele><time>2026-03-28T14:36:42.045Z</time></trkpt><trkpt lat="40.2235283" lon="14.9750133"><ele>92.0</ele><time>2026-03-28T14:36:43.045Z</time></trkpt><trkpt lat="40.2233967" lon="14.9751517"><ele>93.0</ele><time>2026-03-28T14:36:44.045Z</time></trkpt><trkpt lat="40.2232583" lon="14.9752867"><ele>94.0</ele><time>2026-03-28T14:36:45.046Z</time></trkpt><trkpt lat="40.2231183" lon="14.975425"><ele>94.0</ele><time>2026-03-28T14:36:46.046Z</time></trkpt><trkpt lat="40.2229783" lon="14.9755567"><ele>94.0</ele><time>2026-03-28T14:36:47.045Z</time></trkpt><trkpt lat="40.2228183" lon="14.9756733"><ele>94.0</ele><time>2026-03-28T14:36:48.045Z</time></trkpt><trkpt lat="40.22264" lon="14.97579"><ele>93.33333333333333</ele><time>2026-03-28T14:36:49.046Z</time></trkpt><trkpt lat="40.2224717" lon="14.975905"><ele>92.66666666666667</ele><time>2026-03-28T14:36:50.045Z</time></trkpt><trkpt lat="40.2223133" lon="14.9760433"><ele>92.0</ele><time>2026-03-28T14:36:51.045Z</time></trkpt><trkpt lat="40.2221883" lon="14.9761983"><ele>92.0</ele><time>2026-03-28T14:36:52.046Z</time></trkpt><trkpt lat="40.2220817" lon="14.97635"><ele>92.0</ele><time>2026-03-28T14:36:53.045Z</time></trkpt><trkpt lat="40.221975" lon="14.9764467"><ele>92.0</ele><time>2026-03-28T14:36:54.046Z</time></trkpt><trkpt lat="40.2218633" lon="14.9764967"><ele>92.0</ele><time>2026-03-28T14:36:55.045Z</time></trkpt><trkpt lat="40.2217383" lon="14.9765033"><ele>92.0</ele><time>2026-03-28T14:36:56.046Z</time></trkpt><trkpt lat="40.221615" lon="14.9764533"><ele>92.0</ele><time>2026-03-28T14:36:57.045Z</time></trkpt><trkpt lat="40.2214883" lon="14.9763983"><ele>92.0</ele><time>2026-03-28T14:36:58.046Z</time></trkpt><trkpt lat="40.2213417" lon="14.9763833"><ele>92.0</ele><time>2026-03-28T14:36:59.045Z</time></trkpt><trkpt lat="40.2212133" lon="14.9764317"><ele>87.8</ele><time>2026-03-28T14:37:00.046Z</time></trkpt><trkpt lat="40.2210867" lon="14.9765"><ele>83.6</ele><time>2026-03-28T14:37:01.046Z</time></trkpt><trkpt lat="40.2209733" lon="14.9765617"><ele>79.39999999999999</ele><time>2026-03-28T14:37:02.046Z</time></trkpt><trkpt lat="40.2208833" lon="14.9765983"><ele>75.19999999999999</ele><time>2026-03-28T14:37:03.045Z</time></trkpt><trkpt lat="40.2208133" lon="14.97657"><ele>71.0</ele><time>2026-03-28T14:37:04.045Z</time></trkpt><trkpt lat="40.2207683" lon="14.9765067"><ele>71.0</ele><time>2026-03-28T14:37:05.045Z</time></trkpt><trkpt lat="40.220835" lon="14.976415"><ele>71.0</ele><time>2026-03-28T14:37:07.045Z</time></trkpt><trkpt lat="40.2209133" lon="14.9764"><ele>71.0</ele><time>2026-03-28T14:37:08.045Z</time></trkpt><trkpt lat="40.2210183" lon="14.9763783"><ele>71.0</ele><time>2026-03-28T14:37:09.045Z</time></trkpt><trkpt lat="40.2211317" lon="14.9763167"><ele>71.0</ele><time>2026-03-28T14:37:10.046Z</time></trkpt><trkpt lat="40.2212483" lon="14.9762183"><ele>71.0</ele><time>2026-03-28T14:37:11.046Z</time></trkpt><trkpt lat="40.2213683" lon="14.9761367"><ele>71.0</ele><time>2026-03-28T14:37:12.046Z</time></trkpt><trkpt lat="40.22149" lon="14.9760667"><ele>71.0</ele><time>2026-03-28T14:37:13.045Z</time></trkpt><trkpt lat="40.221625" lon="14.97603"><ele>71.0</ele><time>2026-03-28T14:37:14.045Z</time></trkpt><trkpt lat="40.2217483" lon="14.9759767"><ele>76.25</ele><time>2026-03-28T14:37:15.046Z</time></trkpt><trkpt lat="40.2218633" lon="14.9758733"><ele>81.5</ele><time>2026-03-28T14:37:16.045Z</time></trkpt><trkpt lat="40.2219667" lon="14.9757633"><ele>86.75</ele><time>2026-03-28T14:37:17.045Z</time></trkpt><trkpt lat="40.2220533" lon="14.9756633"><ele>92.0</ele><time>2026-03-28T14:37:18.046Z</time></trkpt><trkpt lat="40.22211" lon="14.97558"><ele>95.5</ele><time>2026-03-28T14:37:19.045Z</time></trkpt><trkpt lat="40.2221417" lon="14.9755"><ele>99.0</ele><time>2026-03-28T14:37:20.045Z</time></trkpt><trkpt lat="40.2220883" lon="14.9753833"><ele>102.5</ele><time>2026-03-28T14:37:22.045Z</time></trkpt><trkpt lat="40.2220233" lon="14.975355"><ele>106.0</ele><time>2026-03-28T14:37:23.045Z</time></trkpt><trkpt lat="40.22196" lon="14.975325"><ele>109.49999999999999</ele><time>2026-03-28T14:37:24.046Z</time></trkpt><trkpt lat="40.2219" lon="14.9752967"><ele>113.0</ele><time>2026-03-28T14:37:25.045Z</time></trkpt><trkpt lat="40.221815" lon="14.9752333"><ele>113.0</ele><time>2026-03-28T14:37:27.045Z</time></trkpt><trkpt lat="40.2217367" lon="14.975185"><ele>113.00000000000001</ele><time>2026-03-28T14:37:29.045Z</time></trkpt><trkpt lat="40.2216433" lon="14.9751317"><ele>113.00000000000001</ele><time>2026-03-28T14:37:31.046Z</time></trkpt><trkpt lat="40.22156" lon="14.97506"><ele>113.0</ele><time>2026-03-28T14:37:33.046Z</time></trkpt><trkpt lat="40.2214817" lon="14.9749733"><ele>113.0</ele><time>2026-03-28T14:37:35.046Z</time></trkpt><trkpt lat="40.22141" lon="14.9748517"><ele>107.80000000000001</ele><time>2026-03-28T14:37:37.045Z</time></trkpt><trkpt lat="40.22139" lon="14.9747467"><ele>102.60000000000001</ele><time>2026-03-28T14:37:38.045Z</time></trkpt><trkpt lat="40.2213667" lon="14.9746067"><ele>97.4</ele><time>2026-03-28T14:37:39.045Z</time></trkpt><trkpt lat="40.2213367" lon="14.9744433"><ele>92.19999999999999</ele><time>2026-03-28T14:37:40.045Z</time></trkpt><trkpt lat="40.2213167" lon="14.9742783"><ele>87.0</ele><time>2026-03-28T14:37:41.046Z</time></trkpt><trkpt lat="40.2213133" lon="14.974115"><ele>82.5</ele><time>2026-03-28T14:37:42.046Z</time></trkpt><trkpt lat="40.2213283" lon="14.973955"><ele>78.0</ele><time>2026-03-28T14:37:43.045Z</time></trkpt><trkpt lat="40.2213583" lon="14.973805"><ele>73.5</ele><time>2026-03-28T14:37:44.046Z</time></trkpt><trkpt lat="40.2214067" lon="14.9736517"><ele>69.0</ele><time>2026-03-28T14:37:45.045Z</time></trkpt><trkpt lat="40.2214517" lon="14.9735"><ele>82.5</ele><time>2026-03-28T14:37:46.046Z</time></trkpt><trkpt lat="40.221495" lon="14.9733617"><ele>96.0</ele><time>2026-03-28T14:37:47.045Z</time></trkpt><trkpt lat="40.2215383" lon="14.9732283"><ele>109.5</ele><time>2026-03-28T14:37:48.045Z</time></trkpt><trkpt lat="40.2215833" lon="14.9730867"><ele>123.0</ele><time>2026-03-28T14:37:49.045Z</time></trkpt><trkpt lat="40.22164" lon="14.972955"><ele>123.0</ele><time>2026-03-28T14:37:50.045Z</time></trkpt><trkpt lat="40.2217" lon="14.9728217"><ele>123.0</ele><time>2026-03-28T14:37:51.045Z</time></trkpt><trkpt lat="40.2217617" lon="14.972685"><ele>123.0</ele><time>2026-03-28T14:37:52.046Z</time></trkpt><trkpt lat="40.221825" lon="14.9725417"><ele>123.0</ele><time>2026-03-28T14:37:53.046Z</time></trkpt><trkpt lat="40.22189" lon="14.9723967"><ele>114.0</ele><time>2026-03-28T14:37:54.045Z</time></trkpt><trkpt lat="40.2219567" lon="14.9722467"><ele>105.0</ele><time>2026-03-28T14:37:55.045Z</time></trkpt><trkpt lat="40.222025" lon="14.9720867"><ele>96.0</ele><time>2026-03-28T14:37:56.045Z</time></trkpt><trkpt lat="40.222095" lon="14.97192"><ele>87.0</ele><time>2026-03-28T14:37:57.045Z</time></trkpt><trkpt lat="40.2221617" lon="14.9717583"><ele>80.0</ele><time>2026-03-28T14:37:58.045Z</time></trkpt><trkpt lat="40.2222267" lon="14.971585"><ele>73.0</ele><time>2026-03-28T14:37:59.045Z</time></trkpt><trkpt lat="40.2222867" lon="14.9714167"><ele>66.0</ele><time>2026-03-28T14:38:00.045Z</time></trkpt><trkpt lat="40.2223433" lon="14.97124"><ele>59.0</ele><time>2026-03-28T14:38:01.045Z</time></trkpt><trkpt lat="40.222405" lon="14.9710617"><ele>77.33333333333334</ele><time>2026-03-28T14:38:02.045Z</time></trkpt><trkpt lat="40.2224667" lon="14.9708783"><ele>95.66666666666667</ele><time>2026-03-28T14:38:03.045Z</time></trkpt><trkpt lat="40.2225333" lon="14.970695"><ele>114.0</ele><time>2026-03-28T14:38:04.046Z</time></trkpt><trkpt lat="40.2226133" lon="14.9705167"><ele>114.0</ele><time>2026-03-28T14:38:05.045Z</time></trkpt><trkpt lat="40.2227" lon="14.970335"><ele>114.0</ele><time>2026-03-28T14:38:06.046Z</time></trkpt><trkpt lat="40.222795" lon="14.9701533"><ele>114.0</ele><time>2026-03-28T14:38:07.046Z</time></trkpt><trkpt lat="40.2229083" lon="14.96997"><ele>103.66666666666667</ele><time>2026-03-28T14:38:08.045Z</time></trkpt><trkpt lat="40.2230283" lon="14.9697867"><ele>93.33333333333334</ele><time>2026-03-28T14:38:09.045Z</time></trkpt><trkpt lat="40.2231467" lon="14.9696167"><ele>83.0</ele><time>2026-03-28T14:38:10.046Z</time></trkpt><trkpt lat="40.2232583" lon="14.96946"><ele>93.33333333333334</ele><time>2026-03-28T14:38:11.046Z</time></trkpt><trkpt lat="40.22338" lon="14.9693183"><ele>103.66666666666667</ele><time>2026-03-28T14:38:12.046Z</time></trkpt><trkpt lat="40.2235083" lon="14.96919"><ele>114.0</ele><time>2026-03-28T14:38:13.046Z</time></trkpt><trkpt lat="40.22365" lon="14.9690767"><ele>114.0</ele><time>2026-03-28T14:38:14.045Z</time></trkpt><trkpt lat="40.2237867" lon="14.9689767"><ele>114.0</ele><time>2026-03-28T14:38:15.045Z</time></trkpt><trkpt lat="40.2239233" lon="14.9688983"><ele>114.0</ele><time>2026-03-28T14:38:16.045Z</time></trkpt><trkpt lat="40.2240567" lon="14.9688417"><ele>114.0</ele><time>2026-03-28T14:38:17.046Z</time></trkpt><trkpt lat="40.2242" lon="14.96881"><ele>124.0</ele><time>2026-03-28T14:38:18.045Z</time></trkpt><trkpt lat="40.224335" lon="14.968785"><ele>134.0</ele><time>2026-03-28T14:38:19.046Z</time></trkpt><trkpt lat="40.2244817" lon="14.9687683"><ele>144.0</ele><time>2026-03-28T14:38:20.045Z</time></trkpt><trkpt lat="40.2246183" lon="14.9687217"><ele>154.0</ele><time>2026-03-28T14:38:21.046Z</time></trkpt><trkpt lat="40.22475" lon="14.9686367"><ele>157.66666666666669</ele><time>2026-03-28T14:38:22.045Z</time></trkpt><trkpt lat="40.2248867" lon="14.9685167"><ele>161.33333333333334</ele><time>2026-03-28T14:38:23.045Z</time></trkpt><trkpt lat="40.22501" lon="14.9683767"><ele>165.0</ele><time>2026-03-28T14:38:24.045Z</time></trkpt><trkpt lat="40.225115" lon="14.9682283"><ele>150.33333333333334</ele><time>2026-03-28T14:38:25.046Z</time></trkpt><trkpt lat="40.2251983" lon="14.9680617"><ele>135.66666666666669</ele><time>2026-03-28T14:38:26.045Z</time></trkpt><trkpt lat="40.2252717" lon="14.967885"><ele>121.0</ele><time>2026-03-28T14:38:27.046Z</time></trkpt><trkpt lat="40.2253633" lon="14.967735"><ele>121.0</ele><time>2026-03-28T14:38:28.046Z</time></trkpt><trkpt lat="40.2254767" lon="14.9675917"><ele>121.0</ele><time>2026-03-28T14:38:29.045Z</time></trkpt><trkpt lat="40.2256" lon="14.9674483"><ele>121.0</ele><time>2026-03-28T14:38:30.045Z</time></trkpt><trkpt lat="40.2257217" lon="14.9672867"><ele>125.66666666666667</ele><time>2026-03-28T14:38:31.046Z</time></trkpt><trkpt lat="40.2258333" lon="14.9671233"><ele>130.33333333333334</ele><time>2026-03-28T14:38:32.046Z</time></trkpt><trkpt lat="40.2259517" lon="14.9669567"><ele>135.0</ele><time>2026-03-28T14:38:33.046Z</time></trkpt><trkpt lat="40.226075" lon="14.9667917"><ele>134.0</ele><time>2026-03-28T14:38:34.046Z</time></trkpt><trkpt lat="40.22622" lon="14.966625"><ele>133.0</ele><time>2026-03-28T14:38:35.045Z</time></trkpt><trkpt lat="40.2263717" lon="14.9664733"><ele>132.0</ele><time>2026-03-28T14:38:36.046Z</time></trkpt><trkpt lat="40.2265217" lon="14.9663017"><ele>132.0</ele><time>2026-03-28T14:38:37.046Z</time></trkpt><trkpt lat="40.22666" lon="14.9661133"><ele>132.0</ele><time>2026-03-28T14:38:38.045Z</time></trkpt><trkpt lat="40.22679" lon="14.9659083"><ele>132.0</ele><time>2026-03-28T14:38:39.046Z</time></trkpt><trkpt lat="40.2269117" lon="14.9657067"><ele>136.0</ele><time>2026-03-28T14:38:40.045Z</time></trkpt><trkpt lat="40.2270367" lon="14.9655233"><ele>140.0</ele><time>2026-03-28T14:38:41.046Z</time></trkpt><trkpt lat="40.2271683" lon="14.96536"><ele>144.0</ele><time>2026-03-28T14:38:42.045Z</time></trkpt><trkpt lat="40.2273167" lon="14.9652167"><ele>144.0</ele><time>2026-03-28T14:38:43.046Z</time></trkpt><trkpt lat="40.2274883" lon="14.9650767"><ele>144.0</ele><time>2026-03-28T14:38:44.046Z</time></trkpt><trkpt lat="40.2276633" lon="14.96495"><ele>144.0</ele><time>2026-03-28T14:38:45.045Z</time></trkpt><trkpt lat="40.2278267" lon="14.9648283"><ele>136.33333333333334</ele><time>2026-03-28T14:38:46.045Z</time></trkpt><trkpt lat="40.2279833" lon="14.9646967"><ele>128.66666666666669</ele><time>2026-03-28T14:38:47.045Z</time></trkpt><trkpt lat="40.2281233" lon="14.96455"><ele>121.0</ele><time>2026-03-28T14:38:48.046Z</time></trkpt><trkpt lat="40.228245" lon="14.9643767"><ele>108.0</ele><time>2026-03-28T14:38:49.046Z</time></trkpt><trkpt lat="40.228355" lon="14.964195"><ele>95.0</ele><time>2026-03-28T14:38:50.045Z</time></trkpt><trkpt lat="40.2284683" lon="14.9640333"><ele>82.0</ele><time>2026-03-28T14:38:51.046Z</time></trkpt><trkpt lat="40.2285967" lon="14.96389"><ele>82.0</ele><time>2026-03-28T14:38:52.045Z</time></trkpt><trkpt lat="40.2287433" lon="14.9637567"><ele>82.0</ele><time>2026-03-28T14:38:53.045Z</time></trkpt><trkpt lat="40.228895" lon="14.963645"><ele>82.0</ele><time>2026-03-28T14:38:54.045Z</time></trkpt><trkpt lat="40.2290633" lon="14.963535"><ele>80.33333333333333</ele><time>2026-03-28T14:38:55.045Z</time></trkpt><trkpt lat="40.2292333" lon="14.96343"><ele>78.66666666666667</ele><time>2026-03-28T14:38:56.045Z</time></trkpt><trkpt lat="40.2294033" lon="14.9633083"><ele>77.0</ele><time>2026-03-28T14:38:57.046Z</time></trkpt><trkpt lat="40.2295633" lon="14.9631667"><ele>77.0</ele><time>2026-03-28T14:38:58.046Z</time></trkpt><trkpt lat="40.2297367" lon="14.9630333"><ele>77.0</ele><time>2026-03-28T14:38:59.045Z</time></trkpt><trkpt lat="40.2299133" lon="14.9629217"><ele>77.0</ele><time>2026-03-28T14:39:00.046Z</time></trkpt><trkpt lat="40.2300917" lon="14.962815"><ele>88.0</ele><time>2026-03-28T14:39:01.045Z</time></trkpt><trkpt lat="40.2302783" lon="14.9627317"><ele>99.0</ele><time>2026-03-28T14:39:02.045Z</time></trkpt><trkpt lat="40.2304617" lon="14.9626667"><ele>110.0</ele><time>2026-03-28T14:39:03.045Z</time></trkpt><trkpt lat="40.23064" lon="14.9626067"><ele>112.0</ele><time>2026-03-28T14:39:04.045Z</time></trkpt><trkpt lat="40.230815" lon="14.9625467"><ele>114.0</ele><time>2026-03-28T14:39:05.045Z</time></trkpt><trkpt lat="40.2309783" lon="14.9624683"><ele>116.0</ele><time>2026-03-28T14:39:06.045Z</time></trkpt><trkpt lat="40.231135" lon="14.96235"><ele>111.0</ele><time>2026-03-28T14:39:07.045Z</time></trkpt><trkpt lat="40.2312733" lon="14.962185"><ele>106.0</ele><time>2026-03-28T14:39:08.045Z</time></trkpt><trkpt lat="40.2313933" lon="14.9620083"><ele>101.0</ele><time>2026-03-28T14:39:09.045Z</time></trkpt><trkpt lat="40.2315067" lon="14.9618383"><ele>89.66666666666666</ele><time>2026-03-28T14:39:10.046Z</time></trkpt><trkpt lat="40.2316367" lon="14.96169"><ele>78.33333333333333</ele><time>2026-03-28T14:39:11.046Z</time></trkpt><trkpt lat="40.2317817" lon="14.9615733"><ele>67.0</ele><time>2026-03-28T14:39:12.045Z</time></trkpt><trkpt lat="40.2319383" lon="14.9614583"><ele>67.0</ele><time>2026-03-28T14:39:13.046Z</time></trkpt><trkpt lat="40.2321067" lon="14.9613783"><ele>67.0</ele><time>2026-03-28T14:39:14.045Z</time></trkpt><trkpt lat="40.2322867" lon="14.9613217"><ele>67.0</ele><time>2026-03-28T14:39:15.046Z</time></trkpt><trkpt lat="40.2324617" lon="14.9612767"><ele>72.33333333333333</ele><time>2026-03-28T14:39:16.045Z</time></trkpt><trkpt lat="40.23263" lon="14.961235"><ele>77.66666666666667</ele><time>2026-03-28T14:39:17.045Z</time></trkpt><trkpt lat="40.23279" lon="14.9612167"><ele>83.0</ele><time>2026-03-28T14:39:18.045Z</time></trkpt><trkpt lat="40.2329467" lon="14.9612333"><ele>83.0</ele><time>2026-03-28T14:39:19.046Z</time></trkpt><trkpt lat="40.2331233" lon="14.9612717"><ele>83.0</ele><time>2026-03-28T14:39:20.046Z</time></trkpt><trkpt lat="40.233305" lon="14.9612733"><ele>83.0</ele><time>2026-03-28T14:39:21.045Z</time></trkpt><trkpt lat="40.2334833" lon="14.9612567"><ele>80.0</ele><time>2026-03-28T14:39:22.046Z</time></trkpt><trkpt lat="40.2336617" lon="14.961235"><ele>77.0</ele><time>2026-03-28T14:39:23.045Z</time></trkpt><trkpt lat="40.2338283" lon="14.961215"><ele>74.0</ele><time>2026-03-28T14:39:24.046Z</time></trkpt><trkpt lat="40.2339883" lon="14.9612433"><ele>70.0</ele><time>2026-03-28T14:39:25.045Z</time></trkpt><trkpt lat="40.2341317" lon="14.9613083"><ele>66.0</ele><time>2026-03-28T14:39:26.045Z</time></trkpt><trkpt lat="40.2342617" lon="14.9614017"><ele>62.0</ele><time>2026-03-28T14:39:27.045Z</time></trkpt><trkpt lat="40.2343783" lon="14.9615417"><ele>66.33333333333334</ele><time>2026-03-28T14:39:28.046Z</time></trkpt><trkpt lat="40.2344767" lon="14.9617117"><ele>70.66666666666667</ele><time>2026-03-28T14:39:29.045Z</time></trkpt><trkpt lat="40.234565" lon="14.9619017"><ele>75.0</ele><time>2026-03-28T14:39:30.046Z</time></trkpt><trkpt lat="40.234635" lon="14.9621117"><ele>75.0</ele><time>2026-03-28T14:39:31.045Z</time></trkpt><trkpt lat="40.23469" lon="14.9623317"><ele>75.0</ele><time>2026-03-28T14:39:32.045Z</time></trkpt><trkpt lat="40.2347383" lon="14.96253"><ele>75.0</ele><time>2026-03-28T14:39:33.046Z</time></trkpt><trkpt lat="40.23477" lon="14.9627233"><ele>71.33333333333333</ele><time>2026-03-28T14:39:34.046Z</time></trkpt><trkpt lat="40.234765" lon="14.962935"><ele>67.66666666666666</ele><time>2026-03-28T14:39:35.045Z</time></trkpt><trkpt lat="40.23473" lon="14.9631517"><ele>64.0</ele><time>2026-03-28T14:39:36.045Z</time></trkpt><trkpt lat="40.2346883" lon="14.9633783"><ele>58.0</ele><time>2026-03-28T14:39:37.046Z</time></trkpt><trkpt lat="40.2346333" lon="14.9635983"><ele>52.0</ele><time>2026-03-28T14:39:38.045Z</time></trkpt><trkpt lat="40.234575" lon="14.963805"><ele>46.0</ele><time>2026-03-28T14:39:39.046Z</time></trkpt><trkpt lat="40.2345" lon="14.96399"><ele>46.0</ele><time>2026-03-28T14:39:40.046Z</time></trkpt><trkpt lat="40.2344233" lon="14.964135"><ele>46.0</ele><time>2026-03-28T14:39:41.045Z</time></trkpt><trkpt lat="40.2343317" lon="14.9642433"><ele>46.0</ele><time>2026-03-28T14:39:42.046Z</time></trkpt><trkpt lat="40.2342083" lon="14.9643133"><ele>46.0</ele><time>2026-03-28T14:39:43.046Z</time></trkpt><trkpt lat="40.2340817" lon="14.96436"><ele>46.4</ele><time>2026-03-28T14:39:44.046Z</time></trkpt><trkpt lat="40.2339833" lon="14.9644117"><ele>46.8</ele><time>2026-03-28T14:39:45.045Z</time></trkpt><trkpt lat="40.23391" lon="14.9644933"><ele>47.199999999999996</ele><time>2026-03-28T14:39:46.045Z</time></trkpt><trkpt lat="40.2338783" lon="14.964605"><ele>47.599999999999994</ele><time>2026-03-28T14:39:47.046Z</time></trkpt><trkpt lat="40.2338883" lon="14.9647267"><ele>48.0</ele><time>2026-03-28T14:39:48.045Z</time></trkpt><trkpt lat="40.233935" lon="14.9648517"><ele>46.8</ele><time>2026-03-28T14:39:49.045Z</time></trkpt><trkpt lat="40.233995" lon="14.9649783"><ele>45.599999999999994</ele><time>2026-03-28T14:39:50.045Z</time></trkpt><trkpt lat="40.2340633" lon="14.9650917"><ele>44.400000000000006</ele><time>2026-03-28T14:39:51.045Z</time></trkpt><trkpt lat="40.2341533" lon="14.9651683"><ele>43.2</ele><time>2026-03-28T14:39:52.045Z</time></trkpt><trkpt lat="40.2342617" lon="14.9651917"><ele>42.0</ele><time>2026-03-28T14:39:53.045Z</time></trkpt><trkpt lat="40.2343867" lon="14.965185"><ele>42.333333333333336</ele><time>2026-03-28T14:39:54.046Z</time></trkpt><trkpt lat="40.2345267" lon="14.965155"><ele>42.66666666666667</ele><time>2026-03-28T14:39:55.045Z</time></trkpt><trkpt lat="40.2346717" lon="14.9650967"><ele>43.0</ele><time>2026-03-28T14:39:56.045Z</time></trkpt><trkpt lat="40.2348183" lon="14.965"><ele>43.0</ele><time>2026-03-28T14:39:57.045Z</time></trkpt><trkpt lat="40.2349633" lon="14.9648817"><ele>43.0</ele><time>2026-03-28T14:39:58.045Z</time></trkpt><trkpt lat="40.2351217" lon="14.964755"><ele>43.0</ele><time>2026-03-28T14:39:59.046Z</time></trkpt><trkpt lat="40.2352733" lon="14.9646267"><ele>43.0</ele><time>2026-03-28T14:40:00.046Z</time></trkpt><trkpt lat="40.2354217" lon="14.9644683"><ele>43.0</ele><time>2026-03-28T14:40:01.045Z</time></trkpt><trkpt lat="40.23558" lon="14.9643117"><ele>43.0</ele><time>2026-03-28T14:40:02.046Z</time></trkpt><trkpt lat="40.2357333" lon="14.9641517"><ele>41.0</ele><time>2026-03-28T14:40:03.046Z</time></trkpt><trkpt lat="40.2358833" lon="14.964"><ele>39.0</ele><time>2026-03-28T14:40:04.045Z</time></trkpt><trkpt lat="40.23602" lon="14.9638533"><ele>37.0</ele><time>2026-03-28T14:40:05.046Z</time></trkpt><trkpt lat="40.23614" lon="14.9637233"><ele>37.0</ele><time>2026-03-28T14:40:06.045Z</time></trkpt><trkpt lat="40.2362517" lon="14.9636217"><ele>37.0</ele><time>2026-03-28T14:40:07.045Z</time></trkpt><trkpt lat="40.2363417" lon="14.963545"><ele>37.0</ele><time>2026-03-28T14:40:08.046Z</time></trkpt><trkpt lat="40.23643" lon="14.9635"><ele>37.0</ele><time>2026-03-28T14:40:09.046Z</time></trkpt><trkpt lat="40.2365083" lon="14.96348"><ele>37.0</ele><time>2026-03-28T14:40:10.046Z</time></trkpt><trkpt lat="40.2365733" lon="14.9635217"><ele>36.5</ele><time>2026-03-28T14:40:11.045Z</time></trkpt><trkpt lat="40.236635" lon="14.9636517"><ele>36.0</ele><time>2026-03-28T14:40:12.046Z</time></trkpt><trkpt lat="40.2366917" lon="14.9638367"><ele>35.5</ele><time>2026-03-28T14:40:13.046Z</time></trkpt><trkpt lat="40.236745" lon="14.96404"><ele>35.0</ele><time>2026-03-28T14:40:14.045Z</time></trkpt><trkpt lat="40.2368283" lon="14.9642367"><ele>35.0</ele><time>2026-03-28T14:40:15.046Z</time></trkpt><trkpt lat="40.2369183" lon="14.9644367"><ele>35.0</ele><time>2026-03-28T14:40:16.045Z</time></trkpt><trkpt lat="40.2369983" lon="14.9646267"><ele>35.0</ele><time>2026-03-28T14:40:17.046Z</time></trkpt><trkpt lat="40.2370633" lon="14.9648083"><ele>35.0</ele><time>2026-03-28T14:40:18.046Z</time></trkpt><trkpt lat="40.2371267" lon="14.9649733"><ele>35.0</ele><time>2026-03-28T14:40:19.046Z</time></trkpt><trkpt lat="40.23719" lon="14.965115"><ele>35.0</ele><time>2026-03-28T14:40:20.045Z</time></trkpt><trkpt lat="40.23725" lon="14.96522"><ele>35.0</ele><time>2026-03-28T14:40:21.046Z</time></trkpt><trkpt lat="40.2373333" lon="14.96528"><ele>36.25</ele><time>2026-03-28T14:40:22.045Z</time></trkpt><trkpt lat="40.2374317" lon="14.9652967"><ele>37.5</ele><time>2026-03-28T14:40:23.046Z</time></trkpt><trkpt lat="40.2375417" lon="14.9652417"><ele>38.75</ele><time>2026-03-28T14:40:24.045Z</time></trkpt><trkpt lat="40.2376517" lon="14.9651467"><ele>40.0</ele><time>2026-03-28T14:40:25.045Z</time></trkpt><trkpt lat="40.2377767" lon="14.965035"><ele>39.333333333333336</ele><time>2026-03-28T14:40:26.046Z</time></trkpt><trkpt lat="40.237915" lon="14.9649133"><ele>38.666666666666664</ele><time>2026-03-28T14:40:27.046Z</time></trkpt><trkpt lat="40.2380533" lon="14.9647733"><ele>38.0</ele><time>2026-03-28T14:40:28.046Z</time></trkpt><trkpt lat="40.2381867" lon="14.96461"><ele>38.0</ele><time>2026-03-28T14:40:29.045Z</time></trkpt><trkpt lat="40.2383133" lon="14.9644533"><ele>38.0</ele><time>2026-03-28T14:40:30.046Z</time></trkpt><trkpt lat="40.2384317" lon="14.9643167"><ele>38.0</ele><time>2026-03-28T14:40:31.045Z</time></trkpt><trkpt lat="40.2385617" lon="14.964205"><ele>39.0</ele><time>2026-03-28T14:40:32.046Z</time></trkpt><trkpt lat="40.2386933" lon="14.96414"><ele>40.0</ele><time>2026-03-28T14:40:33.046Z</time></trkpt><trkpt lat="40.23883" lon="14.96412"><ele>41.0</ele><time>2026-03-28T14:40:34.045Z</time></trkpt><trkpt lat="40.23896" lon="14.9641483"><ele>42.0</ele><time>2026-03-28T14:40:35.045Z</time></trkpt><trkpt lat="40.2391017" lon="14.96423"><ele>42.0</ele><time>2026-03-28T14:40:36.046Z</time></trkpt><trkpt lat="40.239255" lon="14.964345"><ele>42.0</ele><time>2026-03-28T14:40:37.045Z</time></trkpt><trkpt lat="40.2394067" lon="14.9644567"><ele>42.0</ele><time>2026-03-28T14:40:38.046Z</time></trkpt><trkpt lat="40.239545" lon="14.964555"><ele>42.0</ele><time>2026-03-28T14:40:39.045Z</time></trkpt><trkpt lat="40.2396683" lon="14.9646367"><ele>42.0</ele><time>2026-03-28T14:40:40.045Z</time></trkpt><trkpt lat="40.2397733" lon="14.9647033"><ele>42.0</ele><time>2026-03-28T14:40:41.045Z</time></trkpt><trkpt lat="40.2398783" lon="14.9647333"><ele>42.0</ele><time>2026-03-28T14:40:42.046Z</time></trkpt><trkpt lat="40.239995" lon="14.9647067"><ele>36.666666666666664</ele><time>2026-03-28T14:40:43.046Z</time></trkpt><trkpt lat="40.240115" lon="14.9646333"><ele>31.333333333333332</ele><time>2026-03-28T14:40:44.045Z</time></trkpt><trkpt lat="40.2402317" lon="14.9645233"><ele>26.0</ele><time>2026-03-28T14:40:45.046Z</time></trkpt><trkpt lat="40.24037" lon="14.96438"><ele>26.0</ele><time>2026-03-28T14:40:46.045Z</time></trkpt><trkpt lat="40.2405033" lon="14.9642233"><ele>26.0</ele><time>2026-03-28T14:40:47.045Z</time></trkpt><trkpt lat="40.240645" lon="14.9640683"><ele>26.0</ele><time>2026-03-28T14:40:48.045Z</time></trkpt><trkpt lat="40.2407933" lon="14.9639033"><ele>21.666666666666664</ele><time>2026-03-28T14:40:49.045Z</time></trkpt><trkpt lat="40.2409433" lon="14.9637217"><ele>17.333333333333332</ele><time>2026-03-28T14:40:50.046Z</time></trkpt><trkpt lat="40.2411" lon="14.9635433"><ele>13.0</ele><time>2026-03-28T14:40:51.045Z</time></trkpt><trkpt lat="40.2412533" lon="14.9633633"><ele>13.0</ele><time>2026-03-28T14:40:52.045Z</time></trkpt><trkpt lat="40.241405" lon="14.9631883"><ele>13.0</ele><time>2026-03-28T14:40:53.046Z</time></trkpt><trkpt lat="40.241555" lon="14.9630233"><ele>13.0</ele><time>2026-03-28T14:40:54.046Z</time></trkpt><trkpt lat="40.2417017" lon="14.96286"><ele>13.0</ele><time>2026-03-28T14:40:55.046Z</time></trkpt><trkpt lat="40.2418467" lon="14.9627"><ele>13.0</ele><time>2026-03-28T14:40:56.045Z</time></trkpt><trkpt lat="40.2419883" lon="14.9625467"><ele>13.0</ele><time>2026-03-28T14:40:57.045Z</time></trkpt><trkpt lat="40.242115" lon="14.9624017"><ele>12.5</ele><time>2026-03-28T14:40:58.046Z</time></trkpt><trkpt lat="40.2422317" lon="14.96227"><ele>12.0</ele><time>2026-03-28T14:40:59.045Z</time></trkpt><trkpt lat="40.2423417" lon="14.9621483"><ele>11.5</ele><time>2026-03-28T14:41:00.045Z</time></trkpt><trkpt lat="40.2424433" lon="14.9620267"><ele>11.0</ele><time>2026-03-28T14:41:01.045Z</time></trkpt><trkpt lat="40.2425433" lon="14.9619117"><ele>11.0</ele><time>2026-03-28T14:41:02.045Z</time></trkpt><trkpt lat="40.2426383" lon="14.9617983"><ele>11.0</ele><time>2026-03-28T14:41:03.046Z</time></trkpt><trkpt lat="40.24274" lon="14.961685"><ele>11.0</ele><time>2026-03-28T14:41:04.046Z</time></trkpt><trkpt lat="40.2428367" lon="14.9615817"><ele>11.0</ele><time>2026-03-28T14:41:05.046Z</time></trkpt><trkpt lat="40.2429317" lon="14.9614817"><ele>11.75</ele><time>2026-03-28T14:41:06.046Z</time></trkpt><trkpt lat="40.2430233" lon="14.96138"><ele>12.5</ele><time>2026-03-28T14:41:07.045Z</time></trkpt><trkpt lat="40.24312" lon="14.9612717"><ele>13.25</ele><time>2026-03-28T14:41:08.045Z</time></trkpt><trkpt lat="40.2432183" lon="14.9611517"><ele>14.0</ele><time>2026-03-28T14:41:09.046Z</time></trkpt><trkpt lat="40.24332" lon="14.9610233"><ele>14.333333333333334</ele><time>2026-03-28T14:41:10.045Z</time></trkpt><trkpt lat="40.2434267" lon="14.9608917"><ele>14.666666666666668</ele><time>2026-03-28T14:41:11.045Z</time></trkpt><trkpt lat="40.243545" lon="14.960755"><ele>15.0</ele><time>2026-03-28T14:41:12.046Z</time></trkpt><trkpt lat="40.243675" lon="14.9606117"><ele>15.666666666666668</ele><time>2026-03-28T14:41:13.046Z</time></trkpt><trkpt lat="40.2438033" lon="14.9604683"><ele>16.333333333333336</ele><time>2026-03-28T14:41:14.046Z</time></trkpt><trkpt lat="40.2439317" lon="14.9603233"><ele>17.0</ele><time>2026-03-28T14:41:15.045Z</time></trkpt><trkpt lat="40.2440583" lon="14.9601783"><ele>17.0</ele><time>2026-03-28T14:41:16.045Z</time></trkpt><trkpt lat="40.2441883" lon="14.96004"><ele>17.0</ele><time>2026-03-28T14:41:17.045Z</time></trkpt><trkpt lat="40.2443133" lon="14.9599017"><ele>17.0</ele><time>2026-03-28T14:41:18.045Z</time></trkpt><trkpt lat="40.24445" lon="14.959765"><ele>17.0</ele><time>2026-03-28T14:41:19.045Z</time></trkpt><trkpt lat="40.2445833" lon="14.9596333"><ele>17.0</ele><time>2026-03-28T14:41:20.046Z</time></trkpt><trkpt lat="40.24472" lon="14.9595017"><ele>17.0</ele><time>2026-03-28T14:41:21.045Z</time></trkpt><trkpt lat="40.2448583" lon="14.959375"><ele>17.0</ele><time>2026-03-28T14:41:22.045Z</time></trkpt><trkpt lat="40.2449883" lon="14.959245"><ele>17.0</ele><time>2026-03-28T14:41:23.045Z</time></trkpt><trkpt lat="40.2451167" lon="14.9591133"><ele>17.0</ele><time>2026-03-28T14:41:24.045Z</time></trkpt><trkpt lat="40.2452467" lon="14.9589833"><ele>17.666666666666668</ele><time>2026-03-28T14:41:25.046Z</time></trkpt><trkpt lat="40.245375" lon="14.9588583"><ele>18.333333333333332</ele><time>2026-03-28T14:41:26.045Z</time></trkpt><trkpt lat="40.2454917" lon="14.9587367"><ele>19.0</ele><time>2026-03-28T14:41:27.046Z</time></trkpt><trkpt lat="40.2456067" lon="14.9586167"><ele>19.5</ele><time>2026-03-28T14:41:28.045Z</time></trkpt><trkpt lat="40.2457167" lon="14.9585017"><ele>20.0</ele><time>2026-03-28T14:41:29.045Z</time></trkpt><trkpt lat="40.2458267" lon="14.9583917"><ele>20.5</ele><time>2026-03-28T14:41:30.045Z</time></trkpt><trkpt lat="40.2459333" lon="14.95829"><ele>21.0</ele><time>2026-03-28T14:41:31.045Z</time></trkpt><trkpt lat="40.246035" lon="14.958185"><ele>21.0</ele><time>2026-03-28T14:41:32.045Z</time></trkpt><trkpt lat="40.2461317" lon="14.9580867"><ele>21.0</ele><time>2026-03-28T14:41:33.045Z</time></trkpt><trkpt lat="40.24622" lon="14.9579967"><ele>21.0</ele><time>2026-03-28T14:41:34.046Z</time></trkpt><trkpt lat="40.2463017" lon="14.9579333"><ele>21.0</ele><time>2026-03-28T14:41:35.045Z</time></trkpt><trkpt lat="40.2463667" lon="14.9579"><ele>21.0</ele><time>2026-03-28T14:41:36.045Z</time></trkpt><trkpt lat="40.2464667" lon="14.9578967"><ele>21.333333333333332</ele><time>2026-03-28T14:41:38.045Z</time></trkpt><trkpt lat="40.246545" lon="14.957915"><ele>21.666666666666668</ele><time>2026-03-28T14:41:40.045Z</time></trkpt><trkpt lat="40.24664" lon="14.9578367"><ele>22.0</ele><time>2026-03-28T14:44:44.046Z</time></trkpt><trkpt lat="40.2466917" lon="14.957755"><ele>22.333333333333336</ele><time>2026-03-28T14:44:45.046Z</time></trkpt><trkpt lat="40.246735" lon="14.9576683"><ele>22.666666666666668</ele><time>2026-03-28T14:44:46.046Z</time></trkpt><trkpt lat="40.246765" lon="14.9575917"><ele>23.0</ele><time>2026-03-28T14:44:47.047Z</time></trkpt><trkpt lat="40.246795" lon="14.9575167"><ele>23.0</ele><time>2026-03-28T14:44:49.046Z</time></trkpt><trkpt lat="40.2468433" lon="14.9574167"><ele>23.0</ele><time>2026-03-28T14:45:08.047Z</time></trkpt><trkpt lat="40.246895" lon="14.957355"><ele>23.0</ele><time>2026-03-28T14:45:09.046Z</time></trkpt><trkpt lat="40.246965" lon="14.9572817"><ele>23.0</ele><time>2026-03-28T14:45:10.046Z</time></trkpt><trkpt lat="40.2470517" lon="14.957195"><ele>23.0</ele><time>2026-03-28T14:45:11.046Z</time></trkpt><trkpt lat="40.247155" lon="14.9570883"><ele>23.0</ele><time>2026-03-28T14:45:12.047Z</time></trkpt><trkpt lat="40.247275" lon="14.9569633"><ele>23.0</ele><time>2026-03-28T14:45:13.046Z</time></trkpt><trkpt lat="40.2474133" lon="14.956835"><ele>23.0</ele><time>2026-03-28T14:45:14.046Z</time></trkpt><trkpt lat="40.247555" lon="14.9566917"><ele>22.666666666666668</ele><time>2026-03-28T14:45:15.046Z</time></trkpt><trkpt lat="40.247695" lon="14.956555"><ele>22.333333333333332</ele><time>2026-03-28T14:45:16.047Z</time></trkpt><trkpt lat="40.2478383" lon="14.9564183"><ele>22.0</ele><time>2026-03-28T14:45:17.047Z</time></trkpt><trkpt lat="40.2479933" lon="14.9562883"><ele>20.666666666666664</ele><time>2026-03-28T14:45:18.047Z</time></trkpt><trkpt lat="40.2481517" lon="14.9561683"><ele>19.333333333333332</ele><time>2026-03-28T14:45:19.047Z</time></trkpt><trkpt lat="40.248315" lon="14.956055"><ele>18.0</ele><time>2026-03-28T14:45:20.047Z</time></trkpt><trkpt lat="40.2484817" lon="14.9559633"><ele>19.0</ele><time>2026-03-28T14:45:21.047Z</time></trkpt><trkpt lat="40.248655" lon="14.9558617"><ele>20.0</ele><time>2026-03-28T14:45:22.047Z</time></trkpt><trkpt lat="40.2488267" lon="14.955755"><ele>21.0</ele><time>2026-03-28T14:45:23.046Z</time></trkpt><trkpt lat="40.249005" lon="14.9556467"><ele>21.0</ele><time>2026-03-28T14:45:24.047Z</time></trkpt><trkpt lat="40.2491817" lon="14.95554"><ele>21.0</ele><time>2026-03-28T14:45:25.047Z</time></trkpt><trkpt lat="40.2493667" lon="14.955435"><ele>21.0</ele><time>2026-03-28T14:45:26.047Z</time></trkpt><trkpt lat="40.249555" lon="14.9553333"><ele>21.0</ele><time>2026-03-28T14:45:27.046Z</time></trkpt><trkpt lat="40.24974" lon="14.9552283"><ele>21.0</ele><time>2026-03-28T14:45:28.047Z</time></trkpt><trkpt lat="40.249925" lon="14.9551333"><ele>21.0</ele><time>2026-03-28T14:45:29.047Z</time></trkpt><trkpt lat="40.2501033" lon="14.955035"><ele>21.333333333333332</ele><time>2026-03-28T14:45:30.046Z</time></trkpt><trkpt lat="40.25028" lon="14.9549317"><ele>21.666666666666664</ele><time>2026-03-28T14:45:31.047Z</time></trkpt><trkpt lat="40.2504617" lon="14.95483"><ele>22.0</ele><time>2026-03-28T14:45:32.046Z</time></trkpt><trkpt lat="40.2506367" lon="14.954735"><ele>22.0</ele><time>2026-03-28T14:45:33.046Z</time></trkpt><trkpt lat="40.2508167" lon="14.9546367"><ele>22.0</ele><time>2026-03-28T14:45:34.047Z</time></trkpt><trkpt lat="40.251" lon="14.9545333"><ele>22.0</ele><time>2026-03-28T14:45:35.046Z</time></trkpt><trkpt lat="40.251185" lon="14.9544283"><ele>22.0</ele><time>2026-03-28T14:45:36.046Z</time></trkpt><trkpt lat="40.25136" lon="14.9543167"><ele>22.0</ele><time>2026-03-28T14:45:37.047Z</time></trkpt><trkpt lat="40.2515433" lon="14.954215"><ele>22.0</ele><time>2026-03-28T14:45:38.047Z</time></trkpt><trkpt lat="40.251735" lon="14.954095"><ele>23.0</ele><time>2026-03-28T14:45:39.046Z</time></trkpt><trkpt lat="40.2519083" lon="14.9539583"><ele>24.0</ele><time>2026-03-28T14:45:40.047Z</time></trkpt><trkpt lat="40.2520833" lon="14.9538167"><ele>25.0</ele><time>2026-03-28T14:45:41.047Z</time></trkpt><trkpt lat="40.2522483" lon="14.95366"><ele>25.0</ele><time>2026-03-28T14:45:42.047Z</time></trkpt><trkpt lat="40.25242" lon="14.953505"><ele>25.0</ele><time>2026-03-28T14:45:43.047Z</time></trkpt><trkpt lat="40.2525917" lon="14.953345"><ele>25.0</ele><time>2026-03-28T14:45:44.046Z</time></trkpt><trkpt lat="40.2527783" lon="14.95318"><ele>25.0</ele><time>2026-03-28T14:45:45.047Z</time></trkpt><trkpt lat="40.25296" lon="14.95301"><ele>25.0</ele><time>2026-03-28T14:45:46.046Z</time></trkpt><trkpt lat="40.253145" lon="14.9528467"><ele>25.0</ele><time>2026-03-28T14:45:47.046Z</time></trkpt><trkpt lat="40.25332" lon="14.9526767"><ele>26.333333333333336</ele><time>2026-03-28T14:45:48.047Z</time></trkpt><trkpt lat="40.2534867" lon="14.952505"><ele>27.666666666666664</ele><time>2026-03-28T14:45:49.046Z</time></trkpt><trkpt lat="40.2536483" lon="14.952315"><ele>29.0</ele><time>2026-03-28T14:45:50.046Z</time></trkpt><trkpt lat="40.25381" lon="14.9521217"><ele>28.666666666666664</ele><time>2026-03-28T14:45:51.046Z</time></trkpt><trkpt lat="40.2539683" lon="14.9519333"><ele>28.333333333333336</ele><time>2026-03-28T14:45:52.047Z</time></trkpt><trkpt lat="40.2541317" lon="14.9517467"><ele>28.0</ele><time>2026-03-28T14:45:53.047Z</time></trkpt><trkpt lat="40.254305" lon="14.9515683"><ele>28.0</ele><time>2026-03-28T14:45:54.046Z</time></trkpt><trkpt lat="40.254495" lon="14.9513983"><ele>28.0</ele><time>2026-03-28T14:45:55.047Z</time></trkpt><trkpt lat="40.2547067" lon="14.9512367"><ele>27.0</ele><time>2026-03-28T14:45:56.047Z</time></trkpt><trkpt lat="40.2549317" lon="14.9510733"><ele>26.0</ele><time>2026-03-28T14:45:57.046Z</time></trkpt><trkpt lat="40.255165" lon="14.9509233"><ele>28.0</ele><time>2026-03-28T14:45:58.047Z</time></trkpt><trkpt lat="40.2553833" lon="14.9507817"><ele>30.0</ele><time>2026-03-28T14:45:59.046Z</time></trkpt><trkpt lat="40.2555833" lon="14.950645"><ele>30.0</ele><time>2026-03-28T14:46:00.046Z</time></trkpt><trkpt lat="40.2557733" lon="14.9505333"><ele>30.0</ele><time>2026-03-28T14:46:01.047Z</time></trkpt><trkpt lat="40.255955" lon="14.9504467"><ele>30.0</ele><time>2026-03-28T14:46:02.047Z</time></trkpt><trkpt lat="40.256145" lon="14.9503967"><ele>30.0</ele><time>2026-03-28T14:46:03.046Z</time></trkpt><trkpt lat="40.2563483" lon="14.9503733"><ele>30.0</ele><time>2026-03-28T14:46:04.046Z</time></trkpt><trkpt lat="40.2565533" lon="14.9503517"><ele>30.0</ele><time>2026-03-28T14:46:05.046Z</time></trkpt><trkpt lat="40.256755" lon="14.95032"><ele>31.333333333333336</ele><time>2026-03-28T14:46:06.047Z</time></trkpt><trkpt lat="40.25696" lon="14.9502633"><ele>32.66666666666667</ele><time>2026-03-28T14:46:07.047Z</time></trkpt><trkpt lat="40.25716" lon="14.9501633"><ele>34.0</ele><time>2026-03-28T14:46:08.047Z</time></trkpt><trkpt lat="40.2573567" lon="14.9500333"><ele>34.5</ele><time>2026-03-28T14:46:09.047Z</time></trkpt><trkpt lat="40.257555" lon="14.94987"><ele>35.0</ele><time>2026-03-28T14:46:10.047Z</time></trkpt><trkpt lat="40.257765" lon="14.9496867"><ele>35.0</ele><time>2026-03-28T14:46:11.046Z</time></trkpt><trkpt lat="40.2579867" lon="14.9494883"><ele>35.0</ele><time>2026-03-28T14:46:12.047Z</time></trkpt><trkpt lat="40.2582117" lon="14.949275"><ele>36.0</ele><time>2026-03-28T14:46:13.047Z</time></trkpt><trkpt lat="40.2584483" lon="14.94906"><ele>37.0</ele><time>2026-03-28T14:46:14.046Z</time></trkpt><trkpt lat="40.2586983" lon="14.9488267"><ele>37.5</ele><time>2026-03-28T14:46:15.047Z</time></trkpt><trkpt lat="40.2589583" lon="14.948585"><ele>38.0</ele><time>2026-03-28T14:46:16.047Z</time></trkpt><trkpt lat="40.2592217" lon="14.9483367"><ele>38.0</ele><time>2026-03-28T14:46:17.047Z</time></trkpt><trkpt lat="40.2594767" lon="14.9480983"><ele>38.0</ele><time>2026-03-28T14:46:18.046Z</time></trkpt><trkpt lat="40.2597233" lon="14.9478683"><ele>37.5</ele><time>2026-03-28T14:46:19.046Z</time></trkpt><trkpt lat="40.2599633" lon="14.9476467"><ele>37.0</ele><time>2026-03-28T14:46:20.047Z</time></trkpt><trkpt lat="40.2602" lon="14.9474417"><ele>37.0</ele><time>2026-03-28T14:46:21.046Z</time></trkpt><trkpt lat="40.2604183" lon="14.9472433"><ele>37.0</ele><time>2026-03-28T14:46:22.046Z</time></trkpt><trkpt lat="40.260625" lon="14.94704"><ele>37.0</ele><time>2026-03-28T14:46:23.046Z</time></trkpt><trkpt lat="40.2608283" lon="14.9468433"><ele>37.0</ele><time>2026-03-28T14:46:24.047Z</time></trkpt><trkpt lat="40.2610283" lon="14.9466583"><ele>38.5</ele><time>2026-03-28T14:46:25.046Z</time></trkpt><trkpt lat="40.2612317" lon="14.94648"><ele>40.0</ele><time>2026-03-28T14:46:26.047Z</time></trkpt><trkpt lat="40.2614217" lon="14.9463017"><ele>40.66666666666667</ele><time>2026-03-28T14:46:27.046Z</time></trkpt><trkpt lat="40.261605" lon="14.946145"><ele>41.333333333333336</ele><time>2026-03-28T14:46:28.046Z</time></trkpt><trkpt lat="40.2617717" lon="14.9459967"><ele>42.0</ele><time>2026-03-28T14:46:29.046Z</time></trkpt><trkpt lat="40.26193" lon="14.9458533"><ele>42.0</ele><time>2026-03-28T14:46:30.047Z</time></trkpt><trkpt lat="40.2620883" lon="14.94572"><ele>42.0</ele><time>2026-03-28T14:46:31.047Z</time></trkpt><trkpt lat="40.262245" lon="14.9455967"><ele>42.0</ele><time>2026-03-28T14:46:32.047Z</time></trkpt><trkpt lat="40.2623933" lon="14.9454917"><ele>42.0</ele><time>2026-03-28T14:46:33.046Z</time></trkpt><trkpt lat="40.2625533" lon="14.945405"><ele>42.0</ele><time>2026-03-28T14:46:34.047Z</time></trkpt><trkpt lat="40.26272" lon="14.945345"><ele>42.0</ele><time>2026-03-28T14:46:35.046Z</time></trkpt><trkpt lat="40.2629067" lon="14.9452967"><ele>42.0</ele><time>2026-03-28T14:46:36.046Z</time></trkpt><trkpt lat="40.2631067" lon="14.945255"><ele>42.0</ele><time>2026-03-28T14:46:37.046Z</time></trkpt><trkpt lat="40.263325" lon="14.9452133"><ele>42.0</ele><time>2026-03-28T14:46:38.047Z</time></trkpt><trkpt lat="40.263565" lon="14.9451683"><ele>42.0</ele><time>2026-03-28T14:46:39.047Z</time></trkpt><trkpt lat="40.2638233" lon="14.945125"><ele>42.0</ele><time>2026-03-28T14:46:40.046Z</time></trkpt><trkpt lat="40.2640933" lon="14.9450817"><ele>40.5</ele><time>2026-03-28T14:46:41.047Z</time></trkpt><trkpt lat="40.264365" lon="14.9450433"><ele>39.0</ele><time>2026-03-28T14:46:42.046Z</time></trkpt><trkpt lat="40.2646283" lon="14.9450033"><ele>38.0</ele><time>2026-03-28T14:46:43.046Z</time></trkpt><trkpt lat="40.264885" lon="14.94496"><ele>37.0</ele><time>2026-03-28T14:46:44.047Z</time></trkpt><trkpt lat="40.2651333" lon="14.9449183"><ele>37.0</ele><time>2026-03-28T14:46:45.047Z</time></trkpt><trkpt lat="40.2653767" lon="14.944875"><ele>37.0</ele><time>2026-03-28T14:46:46.046Z</time></trkpt><trkpt lat="40.26561" lon="14.9448333"><ele>36.66666666666667</ele><time>2026-03-28T14:46:47.046Z</time></trkpt><trkpt lat="40.2658333" lon="14.944795"><ele>36.333333333333336</ele><time>2026-03-28T14:46:48.047Z</time></trkpt><trkpt lat="40.2660533" lon="14.9447617"><ele>36.0</ele><time>2026-03-28T14:46:49.047Z</time></trkpt><trkpt lat="40.2662733" lon="14.9447233"><ele>36.333333333333336</ele><time>2026-03-28T14:46:50.047Z</time></trkpt><trkpt lat="40.266495" lon="14.9446833"><ele>36.66666666666667</ele><time>2026-03-28T14:46:51.046Z</time></trkpt><trkpt lat="40.26671" lon="14.9446483"><ele>37.0</ele><time>2026-03-28T14:46:52.047Z</time></trkpt><trkpt lat="40.266915" lon="14.9446117"><ele>37.0</ele><time>2026-03-28T14:46:53.047Z</time></trkpt><trkpt lat="40.2671067" lon="14.9445817"><ele>37.0</ele><time>2026-03-28T14:46:54.046Z</time></trkpt><trkpt lat="40.2672917" lon="14.9445567"><ele>37.0</ele><time>2026-03-28T14:46:55.047Z</time></trkpt><trkpt lat="40.2674683" lon="14.9445317"><ele>37.333333333333336</ele><time>2026-03-28T14:46:56.046Z</time></trkpt><trkpt lat="40.267635" lon="14.9445083"><ele>37.666666666666664</ele><time>2026-03-28T14:46:57.046Z</time></trkpt><trkpt lat="40.2677917" lon="14.9444867"><ele>38.0</ele><time>2026-03-28T14:46:58.047Z</time></trkpt><trkpt lat="40.2679333" lon="14.9444617"><ele>38.0</ele><time>2026-03-28T14:46:59.047Z</time></trkpt><trkpt lat="40.2680533" lon="14.9444367"><ele>38.0</ele><time>2026-03-28T14:47:00.047Z</time></trkpt><trkpt lat="40.2681583" lon="14.9444067"><ele>38.0</ele><time>2026-03-28T14:47:01.046Z</time></trkpt><trkpt lat="40.2682567" lon="14.9443833"><ele>38.0</ele><time>2026-03-28T14:47:02.046Z</time></trkpt><trkpt lat="40.268355" lon="14.9443633"><ele>38.0</ele><time>2026-03-28T14:47:03.047Z</time></trkpt><trkpt lat="40.2684467" lon="14.9443367"><ele>38.0</ele><time>2026-03-28T14:47:04.046Z</time></trkpt><trkpt lat="40.2685367" lon="14.944305"><ele>38.0</ele><time>2026-03-28T14:47:05.046Z</time></trkpt><trkpt lat="40.26862" lon="14.9442917"><ele>38.0</ele><time>2026-03-28T14:47:06.046Z</time></trkpt><trkpt lat="40.268705" lon="14.944285"><ele>38.0</ele><time>2026-03-28T14:47:07.047Z</time></trkpt><trkpt lat="40.2688083" lon="14.9442817"><ele>38.0</ele><time>2026-03-28T14:47:08.046Z</time></trkpt><trkpt lat="40.26895" lon="14.9442583"><ele>36.33333333333333</ele><time>2026-03-28T14:47:09.047Z</time></trkpt><trkpt lat="40.269115" lon="14.9442117"><ele>34.666666666666664</ele><time>2026-03-28T14:47:10.046Z</time></trkpt><trkpt lat="40.26931" lon="14.9441683"><ele>33.0</ele><time>2026-03-28T14:47:11.046Z</time></trkpt><trkpt lat="40.2695333" lon="14.94412"><ele>33.0</ele><time>2026-03-28T14:47:12.046Z</time></trkpt><trkpt lat="40.2697683" lon="14.9440817"><ele>33.0</ele><time>2026-03-28T14:47:13.046Z</time></trkpt><trkpt lat="40.269995" lon="14.9440417"><ele>33.0</ele><time>2026-03-28T14:47:14.046Z</time></trkpt><trkpt lat="40.270215" lon="14.9440067"><ele>33.0</ele><time>2026-03-28T14:47:15.047Z</time></trkpt><trkpt lat="40.2704317" lon="14.9439667"><ele>33.0</ele><time>2026-03-28T14:47:16.046Z</time></trkpt><trkpt lat="40.270635" lon="14.9439383"><ele>36.666666666666664</ele><time>2026-03-28T14:47:17.046Z</time></trkpt><trkpt lat="40.2708167" lon="14.9439067"><ele>40.33333333333333</ele><time>2026-03-28T14:47:18.046Z</time></trkpt><trkpt lat="40.2710033" lon="14.94387"><ele>44.0</ele><time>2026-03-28T14:47:19.046Z</time></trkpt><trkpt lat="40.2711867" lon="14.94384"><ele>44.0</ele><time>2026-03-28T14:47:20.047Z</time></trkpt><trkpt lat="40.2713633" lon="14.94381"><ele>44.0</ele><time>2026-03-28T14:47:21.046Z</time></trkpt><trkpt lat="40.2715267" lon="14.9437883"><ele>44.0</ele><time>2026-03-28T14:47:22.046Z</time></trkpt><trkpt lat="40.2716717" lon="14.9438"><ele>44.75</ele><time>2026-03-28T14:47:23.047Z</time></trkpt><trkpt lat="40.2718083" lon="14.9438517"><ele>45.5</ele><time>2026-03-28T14:47:24.046Z</time></trkpt><trkpt lat="40.2719467" lon="14.9439233"><ele>46.25</ele><time>2026-03-28T14:47:25.047Z</time></trkpt><trkpt lat="40.2720833" lon="14.9440067"><ele>47.0</ele><time>2026-03-28T14:47:26.047Z</time></trkpt><trkpt lat="40.27223" lon="14.94409"><ele>44.0</ele><time>2026-03-28T14:47:27.047Z</time></trkpt><trkpt lat="40.2723767" lon="14.9441683"><ele>41.0</ele><time>2026-03-28T14:47:28.047Z</time></trkpt><trkpt lat="40.2725367" lon="14.9442267"><ele>38.0</ele><time>2026-03-28T14:47:29.046Z</time></trkpt><trkpt lat="40.2727233" lon="14.9442617"><ele>48.0</ele><time>2026-03-28T14:47:30.047Z</time></trkpt><trkpt lat="40.27293" lon="14.94429"><ele>58.0</ele><time>2026-03-28T14:47:31.046Z</time></trkpt><trkpt lat="40.2731383" lon="14.94431"><ele>68.0</ele><time>2026-03-28T14:47:32.046Z</time></trkpt><trkpt lat="40.2733467" lon="14.9443267"><ele>68.0</ele><time>2026-03-28T14:47:33.046Z</time></trkpt><trkpt lat="40.27354" lon="14.9443433"><ele>68.0</ele><time>2026-03-28T14:47:34.046Z</time></trkpt><trkpt lat="40.2737217" lon="14.9443717"><ele>68.0</ele><time>2026-03-28T14:47:35.047Z</time></trkpt><trkpt lat="40.27389" lon="14.9444067"><ele>64.66666666666667</ele><time>2026-03-28T14:47:36.046Z</time></trkpt><trkpt lat="40.27405" lon="14.944435"><ele>61.33333333333333</ele><time>2026-03-28T14:47:37.046Z</time></trkpt><trkpt lat="40.274205" lon="14.9444667"><ele>58.0</ele><time>2026-03-28T14:47:38.046Z</time></trkpt><trkpt lat="40.2743433" lon="14.9445183"><ele>58.0</ele><time>2026-03-28T14:47:39.046Z</time></trkpt><trkpt lat="40.2744767" lon="14.944585"><ele>58.0</ele><time>2026-03-28T14:47:40.047Z</time></trkpt><trkpt lat="40.2745967" lon="14.94466"><ele>58.0</ele><time>2026-03-28T14:47:41.047Z</time></trkpt><trkpt lat="40.2746983" lon="14.94475"><ele>58.0</ele><time>2026-03-28T14:47:42.047Z</time></trkpt><trkpt lat="40.274795" lon="14.9448533"><ele>55.33333333333333</ele><time>2026-03-28T14:47:43.046Z</time></trkpt><trkpt lat="40.2748983" lon="14.9449667"><ele>52.66666666666667</ele><time>2026-03-28T14:47:44.046Z</time></trkpt><trkpt lat="40.2750233" lon="14.9450967"><ele>50.0</ele><time>2026-03-28T14:47:45.046Z</time></trkpt><trkpt lat="40.2751633" lon="14.9452367"><ele>50.0</ele><time>2026-03-28T14:47:46.046Z</time></trkpt><trkpt lat="40.2752917" lon="14.9453817"><ele>50.0</ele><time>2026-03-28T14:47:47.047Z</time></trkpt><trkpt lat="40.2754217" lon="14.9455167"><ele>50.0</ele><time>2026-03-28T14:47:48.046Z</time></trkpt><trkpt lat="40.2755433" lon="14.9456367"><ele>47.0</ele><time>2026-03-28T14:47:49.046Z</time></trkpt><trkpt lat="40.275665" lon="14.9457517"><ele>44.0</ele><time>2026-03-28T14:47:50.047Z</time></trkpt><trkpt lat="40.2757967" lon="14.9458367"><ele>41.0</ele><time>2026-03-28T14:47:51.046Z</time></trkpt><trkpt lat="40.2759433" lon="14.9459067"><ele>46.25</ele><time>2026-03-28T14:47:52.047Z</time></trkpt><trkpt lat="40.2760883" lon="14.945965"><ele>51.5</ele><time>2026-03-28T14:47:53.047Z</time></trkpt><trkpt lat="40.27623" lon="14.94601"><ele>56.75</ele><time>2026-03-28T14:47:54.046Z</time></trkpt><trkpt lat="40.2763767" lon="14.9460367"><ele>62.0</ele><time>2026-03-28T14:47:55.046Z</time></trkpt><trkpt lat="40.2765317" lon="14.9460417"><ele>62.0</ele><time>2026-03-28T14:47:56.047Z</time></trkpt><trkpt lat="40.2767067" lon="14.9460317"><ele>62.0</ele><time>2026-03-28T14:47:57.046Z</time></trkpt><trkpt lat="40.27689" lon="14.946015"><ele>62.0</ele><time>2026-03-28T14:47:58.046Z</time></trkpt><trkpt lat="40.2770633" lon="14.9459733"><ele>62.0</ele><time>2026-03-28T14:47:59.047Z</time></trkpt><trkpt lat="40.277235" lon="14.9459367"><ele>62.0</ele><time>2026-03-28T14:48:00.047Z</time></trkpt><trkpt lat="40.2774217" lon="14.945915"><ele>62.0</ele><time>2026-03-28T14:48:01.046Z</time></trkpt><trkpt lat="40.277625" lon="14.9459083"><ele>62.5</ele><time>2026-03-28T14:48:02.046Z</time></trkpt><trkpt lat="40.2778533" lon="14.945905"><ele>63.0</ele><time>2026-03-28T14:48:03.047Z</time></trkpt><trkpt lat="40.2780817" lon="14.9459033"><ele>62.33333333333333</ele><time>2026-03-28T14:48:04.046Z</time></trkpt><trkpt lat="40.2782983" lon="14.9459183"><ele>61.666666666666664</ele><time>2026-03-28T14:48:05.046Z</time></trkpt><trkpt lat="40.2785117" lon="14.9459367"><ele>61.0</ele><time>2026-03-28T14:48:06.047Z</time></trkpt><trkpt lat="40.2787233" lon="14.945975"><ele>57.666666666666664</ele><time>2026-03-28T14:48:07.046Z</time></trkpt><trkpt lat="40.2789467" lon="14.9460183"><ele>54.33333333333333</ele><time>2026-03-28T14:48:08.047Z</time></trkpt><trkpt lat="40.2791667" lon="14.946055"><ele>51.0</ele><time>2026-03-28T14:48:09.046Z</time></trkpt><trkpt lat="40.2794033" lon="14.9460917"><ele>51.0</ele><time>2026-03-28T14:48:10.046Z</time></trkpt><trkpt lat="40.2796333" lon="14.946125"><ele>51.0</ele><time>2026-03-28T14:48:11.047Z</time></trkpt><trkpt lat="40.2798533" lon="14.9461583"><ele>51.0</ele><time>2026-03-28T14:48:12.046Z</time></trkpt><trkpt lat="40.280055" lon="14.9461983"><ele>51.0</ele><time>2026-03-28T14:48:13.046Z</time></trkpt><trkpt lat="40.2802567" lon="14.9462583"><ele>51.0</ele><time>2026-03-28T14:48:14.046Z</time></trkpt><trkpt lat="40.2804467" lon="14.9463433"><ele>48.666666666666664</ele><time>2026-03-28T14:48:15.047Z</time></trkpt><trkpt lat="40.2806517" lon="14.9464367"><ele>46.33333333333333</ele><time>2026-03-28T14:48:16.047Z</time></trkpt><trkpt lat="40.2808617" lon="14.9465417"><ele>44.0</ele><time>2026-03-28T14:48:17.046Z</time></trkpt><trkpt lat="40.2810667" lon="14.9466433"><ele>50.666666666666664</ele><time>2026-03-28T14:48:18.046Z</time></trkpt><trkpt lat="40.2812567" lon="14.9467483"><ele>57.33333333333333</ele><time>2026-03-28T14:48:19.047Z</time></trkpt><trkpt lat="40.2814367" lon="14.9468567"><ele>64.0</ele><time>2026-03-28T14:48:20.047Z</time></trkpt><trkpt lat="40.2815917" lon="14.9469683"><ele>64.0</ele><time>2026-03-28T14:48:21.047Z</time></trkpt><trkpt lat="40.281725" lon="14.9470833"><ele>64.0</ele><time>2026-03-28T14:48:22.046Z</time></trkpt><trkpt lat="40.2818467" lon="14.947215"><ele>64.0</ele><time>2026-03-28T14:48:23.047Z</time></trkpt><trkpt lat="40.2819583" lon="14.9473617"><ele>64.0</ele><time>2026-03-28T14:48:24.047Z</time></trkpt><trkpt lat="40.2820833" lon="14.9475083"><ele>64.0</ele><time>2026-03-28T14:48:25.046Z</time></trkpt><trkpt lat="40.28224" lon="14.9476567"><ele>64.0</ele><time>2026-03-28T14:48:26.047Z</time></trkpt><trkpt lat="40.2824083" lon="14.9477867"><ele>69.33333333333333</ele><time>2026-03-28T14:48:27.046Z</time></trkpt><trkpt lat="40.28259" lon="14.9478983"><ele>74.66666666666667</ele><time>2026-03-28T14:48:28.046Z</time></trkpt><trkpt lat="40.28279" lon="14.94797"><ele>80.0</ele><time>2026-03-28T14:48:29.046Z</time></trkpt><trkpt lat="40.2829933" lon="14.94802"><ele>74.66666666666667</ele><time>2026-03-28T14:48:30.047Z</time></trkpt><trkpt lat="40.28319" lon="14.94805"><ele>69.33333333333333</ele><time>2026-03-28T14:48:31.046Z</time></trkpt><trkpt lat="40.28339" lon="14.948085"><ele>64.0</ele><time>2026-03-28T14:48:32.047Z</time></trkpt><trkpt lat="40.2835867" lon="14.9481317"><ele>64.0</ele><time>2026-03-28T14:48:33.047Z</time></trkpt><trkpt lat="40.2837583" lon="14.9482067"><ele>64.0</ele><time>2026-03-28T14:48:34.047Z</time></trkpt><trkpt lat="40.2839133" lon="14.9482983"><ele>64.0</ele><time>2026-03-28T14:48:35.047Z</time></trkpt><trkpt lat="40.2840533" lon="14.9484233"><ele>64.66666666666666</ele><time>2026-03-28T14:48:36.047Z</time></trkpt><trkpt lat="40.2841917" lon="14.9485667"><ele>65.33333333333333</ele><time>2026-03-28T14:48:37.046Z</time></trkpt><trkpt lat="40.2843217" lon="14.9487517"><ele>66.0</ele><time>2026-03-28T14:48:38.046Z</time></trkpt><trkpt lat="40.2844367" lon="14.94897"><ele>66.0</ele><time>2026-03-28T14:48:39.046Z</time></trkpt><trkpt lat="40.28454" lon="14.9492"><ele>66.0</ele><time>2026-03-28T14:48:40.047Z</time></trkpt><trkpt lat="40.2846633" lon="14.949425"><ele>66.0</ele><time>2026-03-28T14:48:41.047Z</time></trkpt><trkpt lat="40.2848067" lon="14.94965"><ele>62.0</ele><time>2026-03-28T14:48:42.047Z</time></trkpt><trkpt lat="40.28498" lon="14.949845"><ele>58.0</ele><time>2026-03-28T14:48:43.047Z</time></trkpt><trkpt lat="40.2851583" lon="14.9500217"><ele>56.666666666666664</ele><time>2026-03-28T14:48:44.047Z</time></trkpt><trkpt lat="40.285345" lon="14.950175"><ele>55.33333333333333</ele><time>2026-03-28T14:48:45.046Z</time></trkpt><trkpt lat="40.2855267" lon="14.950315"><ele>54.0</ele><time>2026-03-28T14:48:46.046Z</time></trkpt><trkpt lat="40.2857167" lon="14.95044"><ele>54.0</ele><time>2026-03-28T14:48:47.047Z</time></trkpt><trkpt lat="40.2859033" lon="14.9505467"><ele>54.0</ele><time>2026-03-28T14:48:48.046Z</time></trkpt><trkpt lat="40.286085" lon="14.9506467"><ele>54.0</ele><time>2026-03-28T14:48:49.047Z</time></trkpt><trkpt lat="40.2862717" lon="14.950745"><ele>54.33333333333333</ele><time>2026-03-28T14:48:50.046Z</time></trkpt><trkpt lat="40.2864617" lon="14.9508383"><ele>54.666666666666664</ele><time>2026-03-28T14:48:51.046Z</time></trkpt><trkpt lat="40.2866567" lon="14.950935"><ele>55.0</ele><time>2026-03-28T14:48:52.046Z</time></trkpt><trkpt lat="40.28684" lon="14.9510383"><ele>55.0</ele><time>2026-03-28T14:48:53.047Z</time></trkpt><trkpt lat="40.28705" lon="14.951145"><ele>55.0</ele><time>2026-03-28T14:48:54.046Z</time></trkpt><trkpt lat="40.2872667" lon="14.9512667"><ele>49.0</ele><time>2026-03-28T14:48:55.046Z</time></trkpt><trkpt lat="40.2874867" lon="14.9513933"><ele>43.0</ele><time>2026-03-28T14:48:56.046Z</time></trkpt><trkpt lat="40.28772" lon="14.9515217"><ele>43.0</ele><time>2026-03-28T14:48:57.046Z</time></trkpt><trkpt lat="40.28794" lon="14.9516683"><ele>43.0</ele><time>2026-03-28T14:48:58.046Z</time></trkpt><trkpt lat="40.2881467" lon="14.9518217"><ele>44.0</ele><time>2026-03-28T14:48:59.047Z</time></trkpt><trkpt lat="40.288345" lon="14.9519867"><ele>45.0</ele><time>2026-03-28T14:49:00.046Z</time></trkpt><trkpt lat="40.2885333" lon="14.952175"><ele>45.0</ele><time>2026-03-28T14:49:01.046Z</time></trkpt><trkpt lat="40.2887233" lon="14.9523667"><ele>45.0</ele><time>2026-03-28T14:49:02.046Z</time></trkpt><trkpt lat="40.288905" lon="14.9525617"><ele>45.333333333333336</ele><time>2026-03-28T14:49:03.046Z</time></trkpt><trkpt lat="40.2890767" lon="14.9527433"><ele>45.66666666666667</ele><time>2026-03-28T14:49:04.047Z</time></trkpt><trkpt lat="40.2892333" lon="14.95292"><ele>46.0</ele><time>2026-03-28T14:49:05.047Z</time></trkpt><trkpt lat="40.28937" lon="14.9530683"><ele>46.0</ele><time>2026-03-28T14:49:06.046Z</time></trkpt><trkpt lat="40.2894867" lon="14.9531967"><ele>46.0</ele><time>2026-03-28T14:49:07.046Z</time></trkpt><trkpt lat="40.2895717" lon="14.9533117"><ele>46.0</ele><time>2026-03-28T14:49:08.046Z</time></trkpt><trkpt lat="40.28963" lon="14.9534267"><ele>46.0</ele><time>2026-03-28T14:49:09.047Z</time></trkpt><trkpt lat="40.2896867" lon="14.95352"><ele>47.0</ele><time>2026-03-28T14:49:10.046Z</time></trkpt><trkpt lat="40.28976" lon="14.9535917"><ele>48.0</ele><time>2026-03-28T14:49:11.046Z</time></trkpt><trkpt lat="40.2898617" lon="14.9536467"><ele>49.0</ele><time>2026-03-28T14:49:12.047Z</time></trkpt><trkpt lat="40.28998" lon="14.9536867"><ele>50.0</ele><time>2026-03-28T14:49:13.047Z</time></trkpt><trkpt lat="40.2901267" lon="14.9537533"><ele>50.0</ele><time>2026-03-28T14:49:14.046Z</time></trkpt><trkpt lat="40.2903033" lon="14.9538583"><ele>50.0</ele><time>2026-03-28T14:49:15.046Z</time></trkpt><trkpt lat="40.2905183" lon="14.9539633"><ele>50.0</ele><time>2026-03-28T14:49:16.046Z</time></trkpt><trkpt lat="40.290765" lon="14.9540533"><ele>45.5</ele><time>2026-03-28T14:49:17.047Z</time></trkpt><trkpt lat="40.2910383" lon="14.9541217"><ele>41.0</ele><time>2026-03-28T14:49:18.046Z</time></trkpt><trkpt lat="40.29133" lon="14.9541817"><ele>41.5</ele><time>2026-03-28T14:49:19.047Z</time></trkpt><trkpt lat="40.29163" lon="14.95424"><ele>42.0</ele><time>2026-03-28T14:49:20.047Z</time></trkpt><trkpt lat="40.29191" lon="14.9542917"><ele>42.0</ele><time>2026-03-28T14:49:21.047Z</time></trkpt><trkpt lat="40.29218" lon="14.9543467"><ele>42.0</ele><time>2026-03-28T14:49:22.046Z</time></trkpt><trkpt lat="40.29243" lon="14.9543983"><ele>39.5</ele><time>2026-03-28T14:49:23.047Z</time></trkpt><trkpt lat="40.2926767" lon="14.9544533"><ele>37.0</ele><time>2026-03-28T14:49:24.047Z</time></trkpt><trkpt lat="40.2929183" lon="14.9545017"><ele>36.0</ele><time>2026-03-28T14:49:25.047Z</time></trkpt><trkpt lat="40.2931617" lon="14.9545517"><ele>35.0</ele><time>2026-03-28T14:49:26.047Z</time></trkpt><trkpt lat="40.2934" lon="14.9546067"><ele>35.0</ele><time>2026-03-28T14:49:27.047Z</time></trkpt><trkpt lat="40.2936283" lon="14.9546533"><ele>35.0</ele><time>2026-03-28T14:49:28.046Z</time></trkpt><trkpt lat="40.2938417" lon="14.9546933"><ele>35.0</ele><time>2026-03-28T14:49:29.046Z</time></trkpt><trkpt lat="40.2940433" lon="14.95474"><ele>34.666666666666664</ele><time>2026-03-28T14:49:30.046Z</time></trkpt><trkpt lat="40.2942417" lon="14.95478"><ele>34.333333333333336</ele><time>2026-03-28T14:49:31.047Z</time></trkpt><trkpt lat="40.2944317" lon="14.9548317"><ele>34.0</ele><time>2026-03-28T14:49:32.046Z</time></trkpt><trkpt lat="40.2946083" lon="14.9549033"><ele>33.333333333333336</ele><time>2026-03-28T14:49:33.047Z</time></trkpt><trkpt lat="40.29478" lon="14.954985"><ele>32.666666666666664</ele><time>2026-03-28T14:49:34.046Z</time></trkpt><trkpt lat="40.2949383" lon="14.955085"><ele>32.0</ele><time>2026-03-28T14:49:35.047Z</time></trkpt><trkpt lat="40.295095" lon="14.9552"><ele>32.0</ele><time>2026-03-28T14:49:36.046Z</time></trkpt><trkpt lat="40.29524" lon="14.9553333"><ele>32.0</ele><time>2026-03-28T14:49:37.047Z</time></trkpt><trkpt lat="40.2953683" lon="14.955475"><ele>32.0</ele><time>2026-03-28T14:49:38.047Z</time></trkpt><trkpt lat="40.2954683" lon="14.9556117"><ele>32.0</ele><time>2026-03-28T14:49:39.046Z</time></trkpt><trkpt lat="40.2955467" lon="14.9557433"><ele>32.0</ele><time>2026-03-28T14:49:40.047Z</time></trkpt><trkpt lat="40.2956117" lon="14.9558617"><ele>32.0</ele><time>2026-03-28T14:49:41.047Z</time></trkpt><trkpt lat="40.2956717" lon="14.9559717"><ele>32.0</ele><time>2026-03-28T14:49:42.046Z</time></trkpt><trkpt lat="40.2957183" lon="14.9560683"><ele>32.0</ele><time>2026-03-28T14:49:43.046Z</time></trkpt><trkpt lat="40.2957567" lon="14.9561483"><ele>32.6</ele><time>2026-03-28T14:49:44.046Z</time></trkpt><trkpt lat="40.29579" lon="14.9562267"><ele>33.2</ele><time>2026-03-28T14:49:45.046Z</time></trkpt><trkpt lat="40.2958317" lon="14.9563583"><ele>33.8</ele><time>2026-03-28T14:49:47.047Z</time></trkpt><trkpt lat="40.2958517" lon="14.9564833"><ele>34.4</ele><time>2026-03-28T14:49:49.047Z</time></trkpt><trkpt lat="40.295915" lon="14.9566067"><ele>35.0</ele><time>2026-03-28T14:49:51.046Z</time></trkpt><trkpt lat="40.2959717" lon="14.9566683"><ele>37.0</ele><time>2026-03-28T14:49:52.046Z</time></trkpt><trkpt lat="40.296035" lon="14.9567383"><ele>39.0</ele><time>2026-03-28T14:49:53.047Z</time></trkpt><trkpt lat="40.2961083" lon="14.9568283"><ele>41.0</ele><time>2026-03-28T14:49:54.046Z</time></trkpt><trkpt lat="40.2961983" lon="14.9569433"><ele>43.0</ele><time>2026-03-28T14:49:55.047Z</time></trkpt><trkpt lat="40.2962967" lon="14.9570967"><ele>43.0</ele><time>2026-03-28T14:49:56.047Z</time></trkpt><trkpt lat="40.2964" lon="14.9572617"><ele>43.0</ele><time>2026-03-28T14:49:57.047Z</time></trkpt><trkpt lat="40.2965117" lon="14.957435"><ele>43.0</ele><time>2026-03-28T14:49:58.046Z</time></trkpt><trkpt lat="40.296635" lon="14.957615"><ele>45.333333333333336</ele><time>2026-03-28T14:49:59.046Z</time></trkpt><trkpt lat="40.29678" lon="14.9578033"><ele>47.66666666666667</ele><time>2026-03-28T14:50:00.046Z</time></trkpt><trkpt lat="40.29693" lon="14.958"><ele>50.0</ele><time>2026-03-28T14:50:01.046Z</time></trkpt><trkpt lat="40.297075" lon="14.95819"><ele>49.66666666666667</ele><time>2026-03-28T14:50:02.047Z</time></trkpt><trkpt lat="40.2972083" lon="14.9583717"><ele>49.33333333333333</ele><time>2026-03-28T14:50:03.046Z</time></trkpt><trkpt lat="40.29733" lon="14.9585367"><ele>49.0</ele><time>2026-03-28T14:50:04.046Z</time></trkpt><trkpt lat="40.29744" lon="14.95869"><ele>49.0</ele><time>2026-03-28T14:50:05.047Z</time></trkpt><trkpt lat="40.29755" lon="14.95884"><ele>49.0</ele><time>2026-03-28T14:50:06.046Z</time></trkpt><trkpt lat="40.29766" lon="14.9589917"><ele>49.0</ele><time>2026-03-28T14:50:07.047Z</time></trkpt><trkpt lat="40.2977783" lon="14.9591517"><ele>49.33333333333333</ele><time>2026-03-28T14:50:08.047Z</time></trkpt><trkpt lat="40.297905" lon="14.95931"><ele>49.66666666666667</ele><time>2026-03-28T14:50:09.047Z</time></trkpt><trkpt lat="40.2980283" lon="14.95947"><ele>50.0</ele><time>2026-03-28T14:50:10.046Z</time></trkpt><trkpt lat="40.2981483" lon="14.9596217"><ele>50.0</ele><time>2026-03-28T14:50:11.046Z</time></trkpt><trkpt lat="40.298255" lon="14.95976"><ele>50.0</ele><time>2026-03-28T14:50:12.047Z</time></trkpt><trkpt lat="40.298345" lon="14.959895"><ele>50.0</ele><time>2026-03-28T14:50:13.046Z</time></trkpt><trkpt lat="40.2984317" lon="14.9600167"><ele>50.0</ele><time>2026-03-28T14:50:14.047Z</time></trkpt><trkpt lat="40.2985067" lon="14.9601333"><ele>51.4</ele><time>2026-03-28T14:50:15.046Z</time></trkpt><trkpt lat="40.29858" lon="14.9602483"><ele>52.8</ele><time>2026-03-28T14:50:16.046Z</time></trkpt><trkpt lat="40.29864" lon="14.9603717"><ele>54.2</ele><time>2026-03-28T14:50:17.046Z</time></trkpt><trkpt lat="40.2986867" lon="14.9604967"><ele>55.6</ele><time>2026-03-28T14:50:18.046Z</time></trkpt><trkpt lat="40.2987217" lon="14.9606167"><ele>57.0</ele><time>2026-03-28T14:50:19.046Z</time></trkpt><trkpt lat="40.2987317" lon="14.9607583"><ele>57.25</ele><time>2026-03-28T14:50:20.046Z</time></trkpt><trkpt lat="40.2987333" lon="14.9609217"><ele>57.5</ele><time>2026-03-28T14:50:21.047Z</time></trkpt><trkpt lat="40.2987067" lon="14.9610917"><ele>57.75</ele><time>2026-03-28T14:50:22.047Z</time></trkpt><trkpt lat="40.2986483" lon="14.9612517"><ele>58.0</ele><time>2026-03-28T14:50:23.047Z</time></trkpt><trkpt lat="40.2985717" lon="14.9614083"><ele>58.0</ele><time>2026-03-28T14:50:24.046Z</time></trkpt><trkpt lat="40.2984733" lon="14.9615383"><ele>58.0</ele><time>2026-03-28T14:50:25.046Z</time></trkpt><trkpt lat="40.2983667" lon="14.9616617"><ele>58.0</ele><time>2026-03-28T14:50:26.046Z</time></trkpt><trkpt lat="40.2982383" lon="14.9617533"><ele>58.0</ele><time>2026-03-28T14:50:27.046Z</time></trkpt><trkpt lat="40.2980933" lon="14.9618117"><ele>58.666666666666664</ele><time>2026-03-28T14:50:28.047Z</time></trkpt><trkpt lat="40.2979283" lon="14.9618417"><ele>59.33333333333333</ele><time>2026-03-28T14:50:29.047Z</time></trkpt><trkpt lat="40.2977617" lon="14.9618533"><ele>60.0</ele><time>2026-03-28T14:50:30.046Z</time></trkpt><trkpt lat="40.2976" lon="14.9618683"><ele>60.0</ele><time>2026-03-28T14:50:31.046Z</time></trkpt><trkpt lat="40.297465" lon="14.9619083"><ele>60.0</ele><time>2026-03-28T14:50:32.046Z</time></trkpt><trkpt lat="40.2973483" lon="14.9619983"><ele>60.0</ele><time>2026-03-28T14:50:33.047Z</time></trkpt><trkpt lat="40.2972583" lon="14.9621233"><ele>60.0</ele><time>2026-03-28T14:50:34.047Z</time></trkpt><trkpt lat="40.297185" lon="14.9622683"><ele>61.4</ele><time>2026-03-28T14:50:35.046Z</time></trkpt><trkpt lat="40.29714" lon="14.9624183"><ele>62.8</ele><time>2026-03-28T14:50:36.047Z</time></trkpt><trkpt lat="40.2971283" lon="14.9625533"><ele>64.2</ele><time>2026-03-28T14:50:37.047Z</time></trkpt><trkpt lat="40.2971467" lon="14.96268"><ele>65.6</ele><time>2026-03-28T14:50:38.046Z</time></trkpt><trkpt lat="40.2972083" lon="14.9627867"><ele>67.0</ele><time>2026-03-28T14:50:39.046Z</time></trkpt><trkpt lat="40.2973117" lon="14.962895"><ele>67.0</ele><time>2026-03-28T14:50:40.047Z</time></trkpt><trkpt lat="40.297445" lon="14.96301"><ele>67.0</ele><time>2026-03-28T14:50:41.047Z</time></trkpt><trkpt lat="40.297595" lon="14.9631417"><ele>67.0</ele><time>2026-03-28T14:50:42.046Z</time></trkpt><trkpt lat="40.2977317" lon="14.963315"><ele>72.0</ele><time>2026-03-28T14:50:43.047Z</time></trkpt><trkpt lat="40.29785" lon="14.963535"><ele>77.0</ele><time>2026-03-28T14:50:44.047Z</time></trkpt><trkpt lat="40.297965" lon="14.9637867"><ele>82.0</ele><time>2026-03-28T14:50:45.046Z</time></trkpt><trkpt lat="40.29807" lon="14.9640217"><ele>78.0</ele><time>2026-03-28T14:50:46.046Z</time></trkpt><trkpt lat="40.2981717" lon="14.9642417"><ele>74.0</ele><time>2026-03-28T14:50:47.046Z</time></trkpt><trkpt lat="40.2982667" lon="14.9644433"><ele>70.0</ele><time>2026-03-28T14:50:48.047Z</time></trkpt><trkpt lat="40.2983617" lon="14.9646283"><ele>70.0</ele><time>2026-03-28T14:50:49.047Z</time></trkpt><trkpt lat="40.2984583" lon="14.9647933"><ele>70.0</ele><time>2026-03-28T14:50:50.046Z</time></trkpt><trkpt lat="40.2985783" lon="14.9649417"><ele>70.0</ele><time>2026-03-28T14:50:51.047Z</time></trkpt><trkpt lat="40.2987233" lon="14.96507"><ele>69.33333333333333</ele><time>2026-03-28T14:50:52.046Z</time></trkpt><trkpt lat="40.298895" lon="14.9651733"><ele>68.66666666666667</ele><time>2026-03-28T14:50:53.046Z</time></trkpt><trkpt lat="40.2990533" lon="14.96527"><ele>68.0</ele><time>2026-03-28T14:50:54.047Z</time></trkpt><trkpt lat="40.2991967" lon="14.9653667"><ele>68.0</ele><time>2026-03-28T14:50:55.047Z</time></trkpt><trkpt lat="40.2993167" lon="14.96548"><ele>68.0</ele><time>2026-03-28T14:50:56.046Z</time></trkpt><trkpt lat="40.299415" lon="14.9656183"><ele>68.0</ele><time>2026-03-28T14:50:57.046Z</time></trkpt><trkpt lat="40.2994883" lon="14.9657967"><ele>68.0</ele><time>2026-03-28T14:50:58.047Z</time></trkpt><trkpt lat="40.2995317" lon="14.96602"><ele>68.66666666666667</ele><time>2026-03-28T14:50:59.046Z</time></trkpt><trkpt lat="40.299585" lon="14.9662567"><ele>69.33333333333333</ele><time>2026-03-28T14:51:00.046Z</time></trkpt><trkpt lat="40.2996633" lon="14.9664983"><ele>70.0</ele><time>2026-03-28T14:51:01.046Z</time></trkpt><trkpt lat="40.2997667" lon="14.9667367"><ele>70.0</ele><time>2026-03-28T14:51:02.047Z</time></trkpt><trkpt lat="40.299885" lon="14.9669583"><ele>70.0</ele><time>2026-03-28T14:51:03.047Z</time></trkpt><trkpt lat="40.300025" lon="14.96715"><ele>70.0</ele><time>2026-03-28T14:51:04.046Z</time></trkpt><trkpt lat="40.3001617" lon="14.96732"><ele>70.0</ele><time>2026-03-28T14:51:05.046Z</time></trkpt><trkpt lat="40.3002717" lon="14.9674533"><ele>70.0</ele><time>2026-03-28T14:51:06.047Z</time></trkpt><trkpt lat="40.30036" lon="14.9675683"><ele>70.0</ele><time>2026-03-28T14:51:07.046Z</time></trkpt><trkpt lat="40.3004367" lon="14.9676967"><ele>70.0</ele><time>2026-03-28T14:51:08.046Z</time></trkpt><trkpt lat="40.300465" lon="14.967835"><ele>69.5</ele><time>2026-03-28T14:51:09.046Z</time></trkpt><trkpt lat="40.3004567" lon="14.9679933"><ele>69.0</ele><time>2026-03-28T14:51:10.046Z</time></trkpt><trkpt lat="40.300425" lon="14.968165"><ele>68.5</ele><time>2026-03-28T14:51:11.047Z</time></trkpt><trkpt lat="40.3003483" lon="14.9683317"><ele>68.0</ele><time>2026-03-28T14:51:12.046Z</time></trkpt><trkpt lat="40.3002483" lon="14.968495"><ele>65.66666666666667</ele><time>2026-03-28T14:51:13.046Z</time></trkpt><trkpt lat="40.3001267" lon="14.9686283"><ele>63.33333333333333</ele><time>2026-03-28T14:51:14.046Z</time></trkpt><trkpt lat="40.2999883" lon="14.9687317"><ele>61.0</ele><time>2026-03-28T14:51:15.047Z</time></trkpt><trkpt lat="40.2998633" lon="14.9688333"><ele>61.0</ele><time>2026-03-28T14:51:16.047Z</time></trkpt><trkpt lat="40.2997633" lon="14.9689517"><ele>61.0</ele><time>2026-03-28T14:51:17.047Z</time></trkpt><trkpt lat="40.2997033" lon="14.969095"><ele>61.0</ele><time>2026-03-28T14:51:18.047Z</time></trkpt><trkpt lat="40.2996767" lon="14.9692567"><ele>61.0</ele><time>2026-03-28T14:51:19.047Z</time></trkpt><trkpt lat="40.2997117" lon="14.9694083"><ele>61.0</ele><time>2026-03-28T14:51:20.046Z</time></trkpt><trkpt lat="40.2997917" lon="14.969535"><ele>61.0</ele><time>2026-03-28T14:51:21.046Z</time></trkpt><trkpt lat="40.2999033" lon="14.9696467"><ele>61.0</ele><time>2026-03-28T14:51:22.047Z</time></trkpt><trkpt lat="40.3000183" lon="14.96975"><ele>61.0</ele><time>2026-03-28T14:51:23.046Z</time></trkpt><trkpt lat="40.3001083" lon="14.9698617"><ele>61.0</ele><time>2026-03-28T14:51:24.046Z</time></trkpt><trkpt lat="40.3001533" lon="14.9699817"><ele>60.99999999999999</ele><time>2026-03-28T14:51:25.047Z</time></trkpt><trkpt lat="40.3001517" lon="14.9701167"><ele>60.99999999999999</ele><time>2026-03-28T14:51:26.047Z</time></trkpt><trkpt lat="40.3001067" lon="14.9702483"><ele>61.0</ele><time>2026-03-28T14:51:27.046Z</time></trkpt><trkpt lat="40.3000167" lon="14.9703717"><ele>61.0</ele><time>2026-03-28T14:51:28.046Z</time></trkpt><trkpt lat="40.2998833" lon="14.9705"><ele>60.0</ele><time>2026-03-28T14:51:29.046Z</time></trkpt><trkpt lat="40.299705" lon="14.9706383"><ele>59.0</ele><time>2026-03-28T14:51:30.047Z</time></trkpt><trkpt lat="40.2995267" lon="14.9707833"><ele>58.0</ele><time>2026-03-28T14:51:31.047Z</time></trkpt><trkpt lat="40.2993717" lon="14.9709217"><ele>58.0</ele><time>2026-03-28T14:51:32.047Z</time></trkpt><trkpt lat="40.2992317" lon="14.97106"><ele>58.0</ele><time>2026-03-28T14:51:33.046Z</time></trkpt><trkpt lat="40.2991183" lon="14.97122"><ele>58.0</ele><time>2026-03-28T14:51:34.047Z</time></trkpt><trkpt lat="40.29903" lon="14.9714017"><ele>58.0</ele><time>2026-03-28T14:51:35.047Z</time></trkpt><trkpt lat="40.2989717" lon="14.9716017"><ele>58.0</ele><time>2026-03-28T14:51:36.046Z</time></trkpt><trkpt lat="40.2989417" lon="14.9718"><ele>58.0</ele><time>2026-03-28T14:51:37.047Z</time></trkpt><trkpt lat="40.2989367" lon="14.9720017"><ele>57.666666666666664</ele><time>2026-03-28T14:51:38.046Z</time></trkpt><trkpt lat="40.298965" lon="14.9721933"><ele>57.33333333333333</ele><time>2026-03-28T14:51:39.046Z</time></trkpt><trkpt lat="40.29902" lon="14.9723783"><ele>57.0</ele><time>2026-03-28T14:51:40.047Z</time></trkpt><trkpt lat="40.2991083" lon="14.9725533"><ele>60.33333333333333</ele><time>2026-03-28T14:51:41.046Z</time></trkpt><trkpt lat="40.2992417" lon="14.9727017"><ele>63.666666666666664</ele><time>2026-03-28T14:51:42.046Z</time></trkpt><trkpt lat="40.2993983" lon="14.972845"><ele>67.0</ele><time>2026-03-28T14:51:43.046Z</time></trkpt><trkpt lat="40.29957" lon="14.972975"><ele>67.0</ele><time>2026-03-28T14:51:44.046Z</time></trkpt><trkpt lat="40.2997167" lon="14.9730983"><ele>67.0</ele><time>2026-03-28T14:51:45.046Z</time></trkpt><trkpt lat="40.2998333" lon="14.9732167"><ele>67.0</ele><time>2026-03-28T14:51:46.046Z</time></trkpt><trkpt lat="40.2999133" lon="14.9733583"><ele>65.5</ele><time>2026-03-28T14:51:47.046Z</time></trkpt><trkpt lat="40.2999583" lon="14.973525"><ele>64.0</ele><time>2026-03-28T14:51:48.047Z</time></trkpt><trkpt lat="40.2999683" lon="14.97372"><ele>62.5</ele><time>2026-03-28T14:51:49.047Z</time></trkpt><trkpt lat="40.2999383" lon="14.97392"><ele>61.0</ele><time>2026-03-28T14:51:50.046Z</time></trkpt><trkpt lat="40.29987" lon="14.9741067"><ele>61.0</ele><time>2026-03-28T14:51:51.046Z</time></trkpt><trkpt lat="40.2997617" lon="14.9742917"><ele>61.0</ele><time>2026-03-28T14:51:52.047Z</time></trkpt><trkpt lat="40.299645" lon="14.9745"><ele>61.0</ele><time>2026-03-28T14:51:53.046Z</time></trkpt><trkpt lat="40.29953" lon="14.974705"><ele>64.66666666666666</ele><time>2026-03-28T14:51:54.047Z</time></trkpt><trkpt lat="40.29941" lon="14.9748883"><ele>68.33333333333333</ele><time>2026-03-28T14:51:55.046Z</time></trkpt><trkpt lat="40.2992717" lon="14.9750517"><ele>72.0</ele><time>2026-03-28T14:51:56.046Z</time></trkpt><trkpt lat="40.299145" lon="14.9752067"><ele>72.0</ele><time>2026-03-28T14:51:57.046Z</time></trkpt><trkpt lat="40.299035" lon="14.9753733"><ele>72.0</ele><time>2026-03-28T14:51:58.047Z</time></trkpt><trkpt lat="40.2989517" lon="14.9755733"><ele>72.0</ele><time>2026-03-28T14:51:59.046Z</time></trkpt><trkpt lat="40.2989033" lon="14.9757967"><ele>78.0</ele><time>2026-03-28T14:52:00.046Z</time></trkpt><trkpt lat="40.298875" lon="14.9760433"><ele>84.0</ele><time>2026-03-28T14:52:01.047Z</time></trkpt><trkpt lat="40.2988817" lon="14.9763017"><ele>90.0</ele><time>2026-03-28T14:52:02.047Z</time></trkpt><trkpt lat="40.29891" lon="14.976575"><ele>87.0</ele><time>2026-03-28T14:52:03.047Z</time></trkpt><trkpt lat="40.298935" lon="14.9768133"><ele>84.0</ele><time>2026-03-28T14:52:04.046Z</time></trkpt><trkpt lat="40.2989417" lon="14.9770367"><ele>81.0</ele><time>2026-03-28T14:52:05.046Z</time></trkpt><trkpt lat="40.2989233" lon="14.97725"><ele>85.66666666666667</ele><time>2026-03-28T14:52:06.046Z</time></trkpt><trkpt lat="40.2988617" lon="14.9774583"><ele>90.33333333333334</ele><time>2026-03-28T14:52:07.046Z</time></trkpt><trkpt lat="40.2987567" lon="14.97765"><ele>95.0</ele><time>2026-03-28T14:52:08.046Z</time></trkpt><trkpt lat="40.2986533" lon="14.9778383"><ele>95.0</ele><time>2026-03-28T14:52:09.046Z</time></trkpt><trkpt lat="40.2985767" lon="14.97802"><ele>95.0</ele><time>2026-03-28T14:52:10.047Z</time></trkpt><trkpt lat="40.2985283" lon="14.978205"><ele>95.0</ele><time>2026-03-28T14:52:11.046Z</time></trkpt><trkpt lat="40.2984967" lon="14.9783883"><ele>96.0</ele><time>2026-03-28T14:52:12.047Z</time></trkpt><trkpt lat="40.2984817" lon="14.9785533"><ele>97.0</ele><time>2026-03-28T14:52:13.046Z</time></trkpt><trkpt lat="40.298465" lon="14.97869"><ele>98.0</ele><time>2026-03-28T14:52:14.047Z</time></trkpt><trkpt lat="40.2984583" lon="14.978825"><ele>99.0</ele><time>2026-03-28T14:52:15.046Z</time></trkpt><trkpt lat="40.29848" lon="14.97897"><ele>100.0</ele><time>2026-03-28T14:52:16.047Z</time></trkpt><trkpt lat="40.2985317" lon="14.9791333"><ele>102.66666666666667</ele><time>2026-03-28T14:52:17.046Z</time></trkpt><trkpt lat="40.2986" lon="14.9793233"><ele>105.33333333333334</ele><time>2026-03-28T14:52:18.047Z</time></trkpt><trkpt lat="40.2986783" lon="14.979515"><ele>108.0</ele><time>2026-03-28T14:52:19.046Z</time></trkpt><trkpt lat="40.2987683" lon="14.9796883"><ele>108.0</ele><time>2026-03-28T14:52:20.047Z</time></trkpt><trkpt lat="40.2988933" lon="14.9798367"><ele>108.0</ele><time>2026-03-28T14:52:21.046Z</time></trkpt><trkpt lat="40.299045" lon="14.9799633"><ele>108.0</ele><time>2026-03-28T14:52:22.047Z</time></trkpt><trkpt lat="40.2992267" lon="14.980085"><ele>111.0</ele><time>2026-03-28T14:52:23.046Z</time></trkpt><trkpt lat="40.299405" lon="14.9801883"><ele>114.0</ele><time>2026-03-28T14:52:24.047Z</time></trkpt><trkpt lat="40.299555" lon="14.9802883"><ele>117.0</ele><time>2026-03-28T14:52:25.047Z</time></trkpt><trkpt lat="40.2996767" lon="14.9803933"><ele>117.0</ele><time>2026-03-28T14:52:26.046Z</time></trkpt><trkpt lat="40.2997667" lon="14.9805133"><ele>117.0</ele><time>2026-03-28T14:52:27.047Z</time></trkpt><trkpt lat="40.2998217" lon="14.9806533"><ele>117.0</ele><time>2026-03-28T14:52:28.046Z</time></trkpt><trkpt lat="40.2998483" lon="14.9808183"><ele>117.0</ele><time>2026-03-28T14:52:29.047Z</time></trkpt><trkpt lat="40.2998567" lon="14.9810017"><ele>117.0</ele><time>2026-03-28T14:52:30.046Z</time></trkpt><trkpt lat="40.2998617" lon="14.9811967"><ele>117.0</ele><time>2026-03-28T14:52:31.046Z</time></trkpt><trkpt lat="40.2999117" lon="14.9813733"><ele>117.0</ele><time>2026-03-28T14:52:32.047Z</time></trkpt><trkpt lat="40.3" lon="14.9815183"><ele>117.0</ele><time>2026-03-28T14:52:33.047Z</time></trkpt><trkpt lat="40.3001317" lon="14.9816317"><ele>121.0</ele><time>2026-03-28T14:52:34.047Z</time></trkpt><trkpt lat="40.300285" lon="14.9817483"><ele>125.0</ele><time>2026-03-28T14:52:35.046Z</time></trkpt><trkpt lat="40.300425" lon="14.981865"><ele>129.0</ele><time>2026-03-28T14:52:36.047Z</time></trkpt><trkpt lat="40.3005383" lon="14.9819867"><ele>126.0</ele><time>2026-03-28T14:52:37.046Z</time></trkpt><trkpt lat="40.3006333" lon="14.9821133"><ele>123.0</ele><time>2026-03-28T14:52:38.047Z</time></trkpt><trkpt lat="40.3007183" lon="14.98223"><ele>120.0</ele><time>2026-03-28T14:52:39.047Z</time></trkpt><trkpt lat="40.3007967" lon="14.9823333"><ele>117.0</ele><time>2026-03-28T14:52:40.047Z</time></trkpt><trkpt lat="40.3008633" lon="14.9824267"><ele>118.16666666666667</ele><time>2026-03-28T14:52:41.047Z</time></trkpt><trkpt lat="40.3009167" lon="14.9825183"><ele>119.33333333333334</ele><time>2026-03-28T14:52:42.046Z</time></trkpt><trkpt lat="40.30094" lon="14.9826167"><ele>120.5</ele><time>2026-03-28T14:52:43.047Z</time></trkpt><trkpt lat="40.3009617" lon="14.9827217"><ele>121.66666666666667</ele><time>2026-03-28T14:52:44.046Z</time></trkpt><trkpt lat="40.3009717" lon="14.982845"><ele>122.83333333333334</ele><time>2026-03-28T14:52:45.046Z</time></trkpt><trkpt lat="40.3009867" lon="14.9829733"><ele>124.0</ele><time>2026-03-28T14:52:46.046Z</time></trkpt><trkpt lat="40.30103" lon="14.9830817"><ele>124.0</ele><time>2026-03-28T14:52:47.047Z</time></trkpt><trkpt lat="40.3011067" lon="14.9831667"><ele>124.0</ele><time>2026-03-28T14:52:48.047Z</time></trkpt><trkpt lat="40.3012067" lon="14.9832267"><ele>124.0</ele><time>2026-03-28T14:52:49.046Z</time></trkpt><trkpt lat="40.30129" lon="14.9832783"><ele>124.0</ele><time>2026-03-28T14:52:50.047Z</time></trkpt><trkpt lat="40.301355" lon="14.9833617"><ele>124.0</ele><time>2026-03-28T14:52:51.046Z</time></trkpt><trkpt lat="40.301395" lon="14.98347"><ele>122.83333333333334</ele><time>2026-03-28T14:52:52.047Z</time></trkpt><trkpt lat="40.3014067" lon="14.9835767"><ele>121.66666666666667</ele><time>2026-03-28T14:52:53.046Z</time></trkpt><trkpt lat="40.3013967" lon="14.9836883"><ele>120.5</ele><time>2026-03-28T14:52:55.047Z</time></trkpt><trkpt lat="40.3013817" lon="14.9837817"><ele>119.33333333333334</ele><time>2026-03-28T14:53:02.046Z</time></trkpt><trkpt lat="40.3014133" lon="14.9838717"><ele>118.16666666666667</ele><time>2026-03-28T14:53:04.047Z</time></trkpt><trkpt lat="40.30148" lon="14.98396"><ele>117.0</ele><time>2026-03-28T15:11:16.046Z</time></trkpt><trkpt lat="40.3015583" lon="14.9840617"><ele>117.0</ele><time>2026-03-28T15:11:18.046Z</time></trkpt><trkpt lat="40.3016183" lon="14.9841183"><ele>117.0</ele><time>2026-03-28T15:11:19.047Z</time></trkpt><trkpt lat="40.3016783" lon="14.984175"><ele>117.0</ele><time>2026-03-28T15:11:20.047Z</time></trkpt><trkpt lat="40.3017467" lon="14.9842267"><ele>117.0</ele><time>2026-03-28T15:11:21.046Z</time></trkpt><trkpt lat="40.3018183" lon="14.9842733"><ele>117.0</ele><time>2026-03-28T15:11:22.046Z</time></trkpt><trkpt lat="40.301905" lon="14.98431"><ele>117.0</ele><time>2026-03-28T15:11:23.046Z</time></trkpt><trkpt lat="40.3019833" lon="14.9843383"><ele>116.83333333333333</ele><time>2026-03-28T15:11:24.046Z</time></trkpt><trkpt lat="40.3020633" lon="14.984365"><ele>116.66666666666666</ele><time>2026-03-28T15:11:25.046Z</time></trkpt><trkpt lat="40.3021433" lon="14.9844017"><ele>116.5</ele><time>2026-03-28T15:11:26.047Z</time></trkpt><trkpt lat="40.3022083" lon="14.984435"><ele>116.33333333333333</ele><time>2026-03-28T15:11:27.046Z</time></trkpt><trkpt lat="40.302295" lon="14.9845517"><ele>116.16666666666666</ele><time>2026-03-28T15:11:29.047Z</time></trkpt><trkpt lat="40.3023367" lon="14.984645"><ele>116.0</ele><time>2026-03-28T15:11:30.047Z</time></trkpt><trkpt lat="40.3023833" lon="14.98475"><ele>116.0</ele><time>2026-03-28T15:11:31.046Z</time></trkpt><trkpt lat="40.3024367" lon="14.984875"><ele>116.0</ele><time>2026-03-28T15:11:32.046Z</time></trkpt><trkpt lat="40.302505" lon="14.9850067"><ele>116.0</ele><time>2026-03-28T15:11:33.047Z</time></trkpt><trkpt lat="40.3025767" lon="14.9851467"><ele>116.0</ele><time>2026-03-28T15:11:34.047Z</time></trkpt><trkpt lat="40.3026583" lon="14.9852867"><ele>114.25</ele><time>2026-03-28T15:11:35.047Z</time></trkpt><trkpt lat="40.3027533" lon="14.9854267"><ele>112.5</ele><time>2026-03-28T15:11:36.046Z</time></trkpt><trkpt lat="40.3028467" lon="14.985565"><ele>110.75</ele><time>2026-03-28T15:11:37.047Z</time></trkpt><trkpt lat="40.3029417" lon="14.9857083"><ele>109.0</ele><time>2026-03-28T15:11:38.047Z</time></trkpt><trkpt lat="40.30302" lon="14.98586"><ele>110.25</ele><time>2026-03-28T15:11:39.046Z</time></trkpt><trkpt lat="40.30309" lon="14.9860183"><ele>111.5</ele><time>2026-03-28T15:11:40.047Z</time></trkpt><trkpt lat="40.303145" lon="14.98619"><ele>112.75</ele><time>2026-03-28T15:11:41.047Z</time></trkpt><trkpt lat="40.3032017" lon="14.9863667"><ele>114.0</ele><time>2026-03-28T15:11:42.046Z</time></trkpt><trkpt lat="40.303265" lon="14.9865383"><ele>110.66666666666666</ele><time>2026-03-28T15:11:43.045Z</time></trkpt><trkpt lat="40.3033317" lon="14.9867183"><ele>107.33333333333333</ele><time>2026-03-28T15:11:44.046Z</time></trkpt><trkpt lat="40.3034" lon="14.9869"><ele>104.0</ele><time>2026-03-28T15:11:45.045Z</time></trkpt><trkpt lat="40.30346" lon="14.98709"><ele>104.0</ele><time>2026-03-28T15:11:46.045Z</time></trkpt><trkpt lat="40.3035267" lon="14.9872717"><ele>104.0</ele><time>2026-03-28T15:11:47.046Z</time></trkpt><trkpt lat="40.30361" lon="14.9874483"><ele>104.0</ele><time>2026-03-28T15:11:48.046Z</time></trkpt><trkpt lat="40.3037067" lon="14.987615"><ele>105.0</ele><time>2026-03-28T15:11:49.046Z</time></trkpt><trkpt lat="40.30381" lon="14.98777"><ele>106.0</ele><time>2026-03-28T15:11:50.046Z</time></trkpt><trkpt lat="40.3039183" lon="14.98792"><ele>107.0</ele><time>2026-03-28T15:11:51.045Z</time></trkpt><trkpt lat="40.3040267" lon="14.98807"><ele>107.0</ele><time>2026-03-28T15:11:52.045Z</time></trkpt><trkpt lat="40.3041183" lon="14.9882133"><ele>107.0</ele><time>2026-03-28T15:11:53.045Z</time></trkpt><trkpt lat="40.3041817" lon="14.98837"><ele>107.0</ele><time>2026-03-28T15:11:54.045Z</time></trkpt><trkpt lat="40.304215" lon="14.9885517"><ele>107.0</ele><time>2026-03-28T15:11:55.046Z</time></trkpt><trkpt lat="40.3042183" lon="14.98874"><ele>106.0</ele><time>2026-03-28T15:11:56.046Z</time></trkpt><trkpt lat="40.304195" lon="14.9889483"><ele>105.0</ele><time>2026-03-28T15:11:57.045Z</time></trkpt><trkpt lat="40.3041633" lon="14.9891433"><ele>104.0</ele><time>2026-03-28T15:11:58.045Z</time></trkpt><trkpt lat="40.3041317" lon="14.9893233"><ele>101.75</ele><time>2026-03-28T15:11:59.045Z</time></trkpt><trkpt lat="40.3041233" lon="14.9894967"><ele>99.5</ele><time>2026-03-28T15:12:00.046Z</time></trkpt><trkpt lat="40.3041467" lon="14.9896683"><ele>97.25</ele><time>2026-03-28T15:12:01.045Z</time></trkpt><trkpt lat="40.3042" lon="14.9898383"><ele>95.0</ele><time>2026-03-28T15:12:02.045Z</time></trkpt><trkpt lat="40.3042817" lon="14.989995"><ele>94.5</ele><time>2026-03-28T15:12:03.045Z</time></trkpt><trkpt lat="40.3043833" lon="14.9901383"><ele>94.0</ele><time>2026-03-28T15:12:04.045Z</time></trkpt><trkpt lat="40.3044967" lon="14.99026"><ele>93.5</ele><time>2026-03-28T15:12:05.045Z</time></trkpt><trkpt lat="40.3046267" lon="14.9903667"><ele>93.0</ele><time>2026-03-28T15:12:06.046Z</time></trkpt><trkpt lat="40.3047567" lon="14.9904633"><ele>93.0</ele><time>2026-03-28T15:12:07.046Z</time></trkpt><trkpt lat="40.3049" lon="14.990535"><ele>93.0</ele><time>2026-03-28T15:12:08.046Z</time></trkpt><trkpt lat="40.3050517" lon="14.990575"><ele>93.0</ele><time>2026-03-28T15:12:09.046Z</time></trkpt><trkpt lat="40.305215" lon="14.9906"><ele>93.0</ele><time>2026-03-28T15:12:10.045Z</time></trkpt><trkpt lat="40.3053783" lon="14.9906083"><ele>93.0</ele><time>2026-03-28T15:12:11.046Z</time></trkpt><trkpt lat="40.3055333" lon="14.990625"><ele>93.0</ele><time>2026-03-28T15:12:12.045Z</time></trkpt><trkpt lat="40.3056833" lon="14.99064"><ele>93.0</ele><time>2026-03-28T15:12:13.045Z</time></trkpt><trkpt lat="40.3058333" lon="14.990655"><ele>93.0</ele><time>2026-03-28T15:12:14.046Z</time></trkpt><trkpt lat="40.3059867" lon="14.9906667"><ele>93.0</ele><time>2026-03-28T15:12:15.045Z</time></trkpt><trkpt lat="40.3061433" lon="14.9906733"><ele>93.0</ele><time>2026-03-28T15:12:16.046Z</time></trkpt><trkpt lat="40.3062933" lon="14.9906983"><ele>93.0</ele><time>2026-03-28T15:12:17.045Z</time></trkpt><trkpt lat="40.3064317" lon="14.9907483"><ele>93.0</ele><time>2026-03-28T15:12:18.045Z</time></trkpt><trkpt lat="40.30657" lon="14.9908383"><ele>93.0</ele><time>2026-03-28T15:12:19.045Z</time></trkpt><trkpt lat="40.3066967" lon="14.9909583"><ele>91.33333333333333</ele><time>2026-03-28T15:12:20.046Z</time></trkpt><trkpt lat="40.3068033" lon="14.991105"><ele>89.66666666666666</ele><time>2026-03-28T15:12:21.045Z</time></trkpt><trkpt lat="40.3068983" lon="14.99127"><ele>88.0</ele><time>2026-03-28T15:12:22.045Z</time></trkpt><trkpt lat="40.3069617" lon="14.9914383"><ele>88.0</ele><time>2026-03-28T15:12:23.045Z</time></trkpt><trkpt lat="40.3069983" lon="14.991615"><ele>88.0</ele><time>2026-03-28T15:12:24.045Z</time></trkpt><trkpt lat="40.3070183" lon="14.9917967"><ele>88.0</ele><time>2026-03-28T15:12:25.045Z</time></trkpt><trkpt lat="40.3070217" lon="14.9919817"><ele>88.0</ele><time>2026-03-28T15:12:26.046Z</time></trkpt><trkpt lat="40.307005" lon="14.99217"><ele>88.25</ele><time>2026-03-28T15:12:27.046Z</time></trkpt><trkpt lat="40.3069567" lon="14.9923417"><ele>88.5</ele><time>2026-03-28T15:12:28.045Z</time></trkpt><trkpt lat="40.30689" lon="14.9925183"><ele>88.75</ele><time>2026-03-28T15:12:29.046Z</time></trkpt><trkpt lat="40.306825" lon="14.9927017"><ele>89.0</ele><time>2026-03-28T15:12:30.045Z</time></trkpt><trkpt lat="40.30676" lon="14.9929017"><ele>89.0</ele><time>2026-03-28T15:12:31.046Z</time></trkpt><trkpt lat="40.3067033" lon="14.9931"><ele>89.0</ele><time>2026-03-28T15:12:32.046Z</time></trkpt><trkpt lat="40.3066583" lon="14.9933017"><ele>89.0</ele><time>2026-03-28T15:12:33.046Z</time></trkpt><trkpt lat="40.3066283" lon="14.9935083"><ele>88.33333333333334</ele><time>2026-03-28T15:12:34.045Z</time></trkpt><trkpt lat="40.306615" lon="14.9937083"><ele>87.66666666666667</ele><time>2026-03-28T15:12:35.045Z</time></trkpt><trkpt lat="40.3066117" lon="14.993905"><ele>87.0</ele><time>2026-03-28T15:12:36.046Z</time></trkpt><trkpt lat="40.3066083" lon="14.9940983"><ele>85.75</ele><time>2026-03-28T15:12:37.045Z</time></trkpt><trkpt lat="40.3066183" lon="14.994285"><ele>84.5</ele><time>2026-03-28T15:12:38.046Z</time></trkpt><trkpt lat="40.3066467" lon="14.9944733"><ele>83.25</ele><time>2026-03-28T15:12:39.046Z</time></trkpt><trkpt lat="40.306695" lon="14.994665"><ele>82.0</ele><time>2026-03-28T15:12:40.045Z</time></trkpt><trkpt lat="40.306755" lon="14.99484"><ele>82.0</ele><time>2026-03-28T15:12:41.045Z</time></trkpt><trkpt lat="40.3068317" lon="14.9950033"><ele>82.0</ele><time>2026-03-28T15:12:42.046Z</time></trkpt><trkpt lat="40.30693" lon="14.99514"><ele>82.0</ele><time>2026-03-28T15:12:43.046Z</time></trkpt><trkpt lat="40.307055" lon="14.995255"><ele>82.0</ele><time>2026-03-28T15:12:44.045Z</time></trkpt><trkpt lat="40.3071933" lon="14.9953683"><ele>79.66666666666666</ele><time>2026-03-28T15:12:45.046Z</time></trkpt><trkpt lat="40.30734" lon="14.995495"><ele>77.33333333333333</ele><time>2026-03-28T15:12:46.045Z</time></trkpt><trkpt lat="40.3074917" lon="14.9956217"><ele>75.0</ele><time>2026-03-28T15:12:47.046Z</time></trkpt><trkpt lat="40.307645" lon="14.99575"><ele>72.66666666666667</ele><time>2026-03-28T15:12:48.046Z</time></trkpt><trkpt lat="40.30779" lon="14.9958733"><ele>70.33333333333334</ele><time>2026-03-28T15:12:49.045Z</time></trkpt><trkpt lat="40.3079317" lon="14.9959967"><ele>68.0</ele><time>2026-03-28T15:12:50.045Z</time></trkpt><trkpt lat="40.3080533" lon="14.9961317"><ele>70.75</ele><time>2026-03-28T15:12:51.046Z</time></trkpt><trkpt lat="40.308145" lon="14.99629"><ele>73.5</ele><time>2026-03-28T15:12:52.045Z</time></trkpt><trkpt lat="40.3082067" lon="14.9964667"><ele>76.25</ele><time>2026-03-28T15:12:53.045Z</time></trkpt><trkpt lat="40.3082467" lon="14.99665"><ele>79.0</ele><time>2026-03-28T15:12:54.046Z</time></trkpt><trkpt lat="40.3082617" lon="14.996845"><ele>79.33333333333333</ele><time>2026-03-28T15:12:55.045Z</time></trkpt><trkpt lat="40.308245" lon="14.9970467"><ele>79.66666666666667</ele><time>2026-03-28T15:12:56.045Z</time></trkpt><trkpt lat="40.3082017" lon="14.9972517"><ele>80.0</ele><time>2026-03-28T15:12:57.045Z</time></trkpt><trkpt lat="40.30816" lon="14.997465"><ele>80.33333333333334</ele><time>2026-03-28T15:12:58.046Z</time></trkpt><trkpt lat="40.30811" lon="14.997675"><ele>80.66666666666667</ele><time>2026-03-28T15:12:59.046Z</time></trkpt><trkpt lat="40.3080583" lon="14.99789"><ele>81.0</ele><time>2026-03-28T15:13:00.045Z</time></trkpt><trkpt lat="40.3080083" lon="14.9981033"><ele>76.33333333333333</ele><time>2026-03-28T15:13:01.045Z</time></trkpt><trkpt lat="40.307965" lon="14.9983133"><ele>71.66666666666666</ele><time>2026-03-28T15:13:02.045Z</time></trkpt><trkpt lat="40.3079217" lon="14.9985317"><ele>67.0</ele><time>2026-03-28T15:13:03.045Z</time></trkpt><trkpt lat="40.3078667" lon="14.99874"><ele>67.0</ele><time>2026-03-28T15:13:04.045Z</time></trkpt><trkpt lat="40.3078183" lon="14.9989483"><ele>67.0</ele><time>2026-03-28T15:13:05.046Z</time></trkpt><trkpt lat="40.3077683" lon="14.99914"><ele>67.0</ele><time>2026-03-28T15:13:06.046Z</time></trkpt><trkpt lat="40.30773" lon="14.9993233"><ele>66.0</ele><time>2026-03-28T15:13:07.046Z</time></trkpt><trkpt lat="40.3077133" lon="14.999505"><ele>65.0</ele><time>2026-03-28T15:13:08.045Z</time></trkpt><trkpt lat="40.30773" lon="14.9996767"><ele>64.0</ele><time>2026-03-28T15:13:09.045Z</time></trkpt><trkpt lat="40.3077717" lon="14.999825"><ele>63.0</ele><time>2026-03-28T15:13:10.045Z</time></trkpt><trkpt lat="40.3078567" lon="14.9999617"><ele>63.0</ele><time>2026-03-28T15:13:11.045Z</time></trkpt><trkpt lat="40.3079567" lon="15.0000683"><ele>63.0</ele><time>2026-03-28T15:13:12.046Z</time></trkpt><trkpt lat="40.308085" lon="15.0001533"><ele>63.0</ele><time>2026-03-28T15:13:13.046Z</time></trkpt><trkpt lat="40.3082433" lon="15.0002167"><ele>63.0</ele><time>2026-03-28T15:13:14.045Z</time></trkpt><trkpt lat="40.3084017" lon="15.000275"><ele>67.0</ele><time>2026-03-28T15:13:15.045Z</time></trkpt><trkpt lat="40.3085567" lon="15.0003667"><ele>71.0</ele><time>2026-03-28T15:13:16.046Z</time></trkpt><trkpt lat="40.3087133" lon="15.0004817"><ele>75.0</ele><time>2026-03-28T15:13:17.046Z</time></trkpt><trkpt lat="40.308885" lon="15.00059"><ele>73.66666666666667</ele><time>2026-03-28T15:13:18.045Z</time></trkpt><trkpt lat="40.3090567" lon="15.0006733"><ele>72.33333333333334</ele><time>2026-03-28T15:13:19.045Z</time></trkpt><trkpt lat="40.3092167" lon="15.0007617"><ele>71.0</ele><time>2026-03-28T15:13:20.045Z</time></trkpt><trkpt lat="40.309355" lon="15.0008833"><ele>71.0</ele><time>2026-03-28T15:13:21.045Z</time></trkpt><trkpt lat="40.3094783" lon="15.0010367"><ele>71.0</ele><time>2026-03-28T15:13:22.045Z</time></trkpt><trkpt lat="40.3095983" lon="15.0011983"><ele>71.0</ele><time>2026-03-28T15:13:23.046Z</time></trkpt><trkpt lat="40.3097167" lon="15.001365"><ele>71.33333333333334</ele><time>2026-03-28T15:13:24.045Z</time></trkpt><trkpt lat="40.3098233" lon="15.001545"><ele>71.66666666666667</ele><time>2026-03-28T15:13:25.045Z</time></trkpt><trkpt lat="40.3099117" lon="15.001725"><ele>72.0</ele><time>2026-03-28T15:13:26.045Z</time></trkpt><trkpt lat="40.3100017" lon="15.0018933"><ele>72.0</ele><time>2026-03-28T15:13:27.046Z</time></trkpt><trkpt lat="40.3101217" lon="15.0020367"><ele>72.0</ele><time>2026-03-28T15:13:28.045Z</time></trkpt><trkpt lat="40.3102667" lon="15.0021483"><ele>72.0</ele><time>2026-03-28T15:13:29.045Z</time></trkpt><trkpt lat="40.3104183" lon="15.0022583"><ele>72.0</ele><time>2026-03-28T15:13:30.045Z</time></trkpt><trkpt lat="40.310565" lon="15.00238"><ele>72.0</ele><time>2026-03-28T15:13:31.046Z</time></trkpt><trkpt lat="40.3107017" lon="15.00252"><ele>72.0</ele><time>2026-03-28T15:13:32.046Z</time></trkpt><trkpt lat="40.3108267" lon="15.0026483"><ele>71.33333333333333</ele><time>2026-03-28T15:13:33.046Z</time></trkpt><trkpt lat="40.310975" lon="15.0027567"><ele>70.66666666666666</ele><time>2026-03-28T15:13:34.045Z</time></trkpt><trkpt lat="40.31115" lon="15.00284"><ele>70.0</ele><time>2026-03-28T15:13:35.045Z</time></trkpt><trkpt lat="40.311335" lon="15.0028983"><ele>71.66666666666666</ele><time>2026-03-28T15:13:36.045Z</time></trkpt><trkpt lat="40.3115267" lon="15.00295"><ele>73.33333333333333</ele><time>2026-03-28T15:13:37.045Z</time></trkpt><trkpt lat="40.3117183" lon="15.0030267"><ele>75.0</ele><time>2026-03-28T15:13:38.045Z</time></trkpt><trkpt lat="40.311905" lon="15.0031117"><ele>75.0</ele><time>2026-03-28T15:13:39.046Z</time></trkpt><trkpt lat="40.3120783" lon="15.0032"><ele>75.0</ele><time>2026-03-28T15:13:40.046Z</time></trkpt><trkpt lat="40.312245" lon="15.0032883"><ele>75.0</ele><time>2026-03-28T15:13:41.046Z</time></trkpt><trkpt lat="40.3124133" lon="15.0033867"><ele>73.0</ele><time>2026-03-28T15:13:42.045Z</time></trkpt><trkpt lat="40.3125833" lon="15.0034867"><ele>71.0</ele><time>2026-03-28T15:13:43.045Z</time></trkpt><trkpt lat="40.31276" lon="15.0035833"><ele>69.0</ele><time>2026-03-28T15:13:44.045Z</time></trkpt><trkpt lat="40.312945" lon="15.003675"><ele>72.33333333333333</ele><time>2026-03-28T15:13:45.046Z</time></trkpt><trkpt lat="40.31313" lon="15.0037633"><ele>75.66666666666666</ele><time>2026-03-28T15:13:46.045Z</time></trkpt><trkpt lat="40.3133133" lon="15.0038383"><ele>79.0</ele><time>2026-03-28T15:13:47.045Z</time></trkpt><trkpt lat="40.3134933" lon="15.0039033"><ele>79.0</ele><time>2026-03-28T15:13:48.046Z</time></trkpt><trkpt lat="40.313675" lon="15.0039517"><ele>79.0</ele><time>2026-03-28T15:13:49.046Z</time></trkpt><trkpt lat="40.3138583" lon="15.00398"><ele>79.0</ele><time>2026-03-28T15:13:50.045Z</time></trkpt><trkpt lat="40.31404" lon="15.0039833"><ele>80.0</ele><time>2026-03-28T15:13:51.045Z</time></trkpt><trkpt lat="40.3142217" lon="15.0039783"><ele>81.0</ele><time>2026-03-28T15:13:52.045Z</time></trkpt><trkpt lat="40.314395" lon="15.0039717"><ele>82.0</ele><time>2026-03-28T15:13:53.046Z</time></trkpt><trkpt lat="40.3145583" lon="15.0039617"><ele>82.0</ele><time>2026-03-28T15:13:54.045Z</time></trkpt><trkpt lat="40.31471" lon="15.00395"><ele>82.0</ele><time>2026-03-28T15:13:55.046Z</time></trkpt><trkpt lat="40.3148567" lon="15.003895"><ele>82.0</ele><time>2026-03-28T15:13:56.045Z</time></trkpt><trkpt lat="40.315" lon="15.0038"><ele>77.66666666666666</ele><time>2026-03-28T15:13:57.045Z</time></trkpt><trkpt lat="40.3151383" lon="15.0036767"><ele>73.33333333333333</ele><time>2026-03-28T15:13:58.046Z</time></trkpt><trkpt lat="40.315265" lon="15.0035283"><ele>69.0</ele><time>2026-03-28T15:13:59.046Z</time></trkpt><trkpt lat="40.3153833" lon="15.003365"><ele>72.33333333333333</ele><time>2026-03-28T15:14:00.046Z</time></trkpt><trkpt lat="40.3155067" lon="15.00321"><ele>75.66666666666666</ele><time>2026-03-28T15:14:01.046Z</time></trkpt><trkpt lat="40.3156283" lon="15.0030583"><ele>79.0</ele><time>2026-03-28T15:14:02.045Z</time></trkpt><trkpt lat="40.3157483" lon="15.00291"><ele>76.33333333333333</ele><time>2026-03-28T15:14:03.046Z</time></trkpt><trkpt lat="40.3158567" lon="15.0027633"><ele>73.66666666666667</ele><time>2026-03-28T15:14:04.046Z</time></trkpt><trkpt lat="40.3159533" lon="15.0026067"><ele>71.0</ele><time>2026-03-28T15:14:05.045Z</time></trkpt><trkpt lat="40.316025" lon="15.0024467"><ele>71.0</ele><time>2026-03-28T15:14:06.045Z</time></trkpt><trkpt lat="40.3160917" lon="15.002285"><ele>71.0</ele><time>2026-03-28T15:14:07.046Z</time></trkpt><trkpt lat="40.3161733" lon="15.0021367"><ele>71.0</ele><time>2026-03-28T15:14:08.045Z</time></trkpt><trkpt lat="40.316275" lon="15.0020133"><ele>71.0</ele><time>2026-03-28T15:14:09.045Z</time></trkpt><trkpt lat="40.3164" lon="15.0019133"><ele>68.5</ele><time>2026-03-28T15:14:10.046Z</time></trkpt><trkpt lat="40.3165367" lon="15.0018217"><ele>66.0</ele><time>2026-03-28T15:14:11.045Z</time></trkpt><trkpt lat="40.3166667" lon="15.00174"><ele>63.5</ele><time>2026-03-28T15:14:12.046Z</time></trkpt><trkpt lat="40.3167933" lon="15.00168"><ele>61.0</ele><time>2026-03-28T15:14:13.045Z</time></trkpt><trkpt lat="40.3169167" lon="15.0016683"><ele>61.0</ele><time>2026-03-28T15:14:14.046Z</time></trkpt><trkpt lat="40.3170233" lon="15.0017017"><ele>61.0</ele><time>2026-03-28T15:14:15.046Z</time></trkpt><trkpt lat="40.317105" lon="15.0017883"><ele>61.0</ele><time>2026-03-28T15:14:16.046Z</time></trkpt><trkpt lat="40.317155" lon="15.0019217"><ele>61.0</ele><time>2026-03-28T15:14:17.045Z</time></trkpt><trkpt lat="40.3172033" lon="15.00209"><ele>61.5</ele><time>2026-03-28T15:14:18.045Z</time></trkpt><trkpt lat="40.3172483" lon="15.0022733"><ele>62.0</ele><time>2026-03-28T15:14:19.045Z</time></trkpt><trkpt lat="40.3172983" lon="15.00246"><ele>62.5</ele><time>2026-03-28T15:14:20.045Z</time></trkpt><trkpt lat="40.3173433" lon="15.00264"><ele>63.0</ele><time>2026-03-28T15:14:21.046Z</time></trkpt><trkpt lat="40.3173867" lon="15.0028183"><ele>63.0</ele><time>2026-03-28T15:14:22.045Z</time></trkpt><trkpt lat="40.3174217" lon="15.00299"><ele>63.0</ele><time>2026-03-28T15:14:23.045Z</time></trkpt><trkpt lat="40.31745" lon="15.0031667"><ele>63.0</ele><time>2026-03-28T15:14:24.045Z</time></trkpt><trkpt lat="40.31747" lon="15.003335"><ele>63.0</ele><time>2026-03-28T15:14:25.045Z</time></trkpt><trkpt lat="40.3174567" lon="15.0035083"><ele>62.75</ele><time>2026-03-28T15:14:26.045Z</time></trkpt><trkpt lat="40.3174133" lon="15.0036833"><ele>62.5</ele><time>2026-03-28T15:14:27.046Z</time></trkpt><trkpt lat="40.317375" lon="15.0038483"><ele>62.25</ele><time>2026-03-28T15:14:28.045Z</time></trkpt><trkpt lat="40.3173333" lon="15.0040067"><ele>62.0</ele><time>2026-03-28T15:14:29.046Z</time></trkpt><trkpt lat="40.3172917" lon="15.0041483"><ele>62.400000000000006</ele><time>2026-03-28T15:14:30.045Z</time></trkpt><trkpt lat="40.3172417" lon="15.0042717"><ele>62.800000000000004</ele><time>2026-03-28T15:14:31.045Z</time></trkpt><trkpt lat="40.3171933" lon="15.0043833"><ele>63.2</ele><time>2026-03-28T15:14:32.045Z</time></trkpt><trkpt lat="40.317155" lon="15.0045067"><ele>63.6</ele><time>2026-03-28T15:14:33.045Z</time></trkpt><trkpt lat="40.3171383" lon="15.00465"><ele>64.0</ele><time>2026-03-28T15:14:34.045Z</time></trkpt><trkpt lat="40.3171333" lon="15.00481"><ele>60.5</ele><time>2026-03-28T15:14:35.045Z</time></trkpt><trkpt lat="40.3171317" lon="15.0049767"><ele>57.0</ele><time>2026-03-28T15:14:36.046Z</time></trkpt><trkpt lat="40.3171333" lon="15.0051433"><ele>53.5</ele><time>2026-03-28T15:14:37.045Z</time></trkpt><trkpt lat="40.3171317" lon="15.0053033"><ele>50.0</ele><time>2026-03-28T15:14:38.046Z</time></trkpt><trkpt lat="40.3171317" lon="15.00546"><ele>49.75</ele><time>2026-03-28T15:14:39.046Z</time></trkpt><trkpt lat="40.31714" lon="15.0056117"><ele>49.5</ele><time>2026-03-28T15:14:40.045Z</time></trkpt><trkpt lat="40.3171517" lon="15.0057667"><ele>49.25</ele><time>2026-03-28T15:14:41.045Z</time></trkpt><trkpt lat="40.3171733" lon="15.0059367"><ele>49.0</ele><time>2026-03-28T15:14:42.046Z</time></trkpt><trkpt lat="40.3172183" lon="15.006125"><ele>52.0</ele><time>2026-03-28T15:14:43.045Z</time></trkpt><trkpt lat="40.31729" lon="15.0063283"><ele>55.0</ele><time>2026-03-28T15:14:44.046Z</time></trkpt><trkpt lat="40.3173617" lon="15.0065183"><ele>58.0</ele><time>2026-03-28T15:14:45.045Z</time></trkpt><trkpt lat="40.3174333" lon="15.0066917"><ele>58.0</ele><time>2026-03-28T15:14:46.046Z</time></trkpt><trkpt lat="40.3175117" lon="15.00684"><ele>58.0</ele><time>2026-03-28T15:14:47.046Z</time></trkpt><trkpt lat="40.3176033" lon="15.0069567"><ele>58.0</ele><time>2026-03-28T15:14:48.045Z</time></trkpt><trkpt lat="40.3177217" lon="15.0070517"><ele>58.0</ele><time>2026-03-28T15:14:49.046Z</time></trkpt><trkpt lat="40.3178733" lon="15.0071483"><ele>58.0</ele><time>2026-03-28T15:14:50.046Z</time></trkpt><trkpt lat="40.3180283" lon="15.007255"><ele>58.0</ele><time>2026-03-28T15:14:51.046Z</time></trkpt><trkpt lat="40.3181733" lon="15.0073667"><ele>58.0</ele><time>2026-03-28T15:14:52.045Z</time></trkpt><trkpt lat="40.3183" lon="15.0075"><ele>58.0</ele><time>2026-03-28T15:14:53.046Z</time></trkpt><trkpt lat="40.318415" lon="15.00767"><ele>58.0</ele><time>2026-03-28T15:14:54.045Z</time></trkpt><trkpt lat="40.318545" lon="15.0078483"><ele>58.0</ele><time>2026-03-28T15:14:55.046Z</time></trkpt><trkpt lat="40.3187133" lon="15.0080183"><ele>58.0</ele><time>2026-03-28T15:14:56.045Z</time></trkpt><trkpt lat="40.31889" lon="15.008165"><ele>58.0</ele><time>2026-03-28T15:14:57.046Z</time></trkpt><trkpt lat="40.3190767" lon="15.0082833"><ele>58.0</ele><time>2026-03-28T15:14:58.045Z</time></trkpt><trkpt lat="40.31926" lon="15.0083683"><ele>58.0</ele><time>2026-03-28T15:14:59.045Z</time></trkpt><trkpt lat="40.3194317" lon="15.0084533"><ele>58.0</ele><time>2026-03-28T15:15:00.045Z</time></trkpt><trkpt lat="40.3195817" lon="15.0085667"><ele>58.0</ele><time>2026-03-28T15:15:01.045Z</time></trkpt><trkpt lat="40.3197233" lon="15.0087117"><ele>61.33333333333333</ele><time>2026-03-28T15:15:02.046Z</time></trkpt><trkpt lat="40.31987" lon="15.0088483"><ele>64.66666666666667</ele><time>2026-03-28T15:15:03.046Z</time></trkpt><trkpt lat="40.3200417" lon="15.0089567"><ele>68.0</ele><time>2026-03-28T15:15:04.045Z</time></trkpt><trkpt lat="40.3202183" lon="15.0090317"><ele>68.0</ele><time>2026-03-28T15:15:05.046Z</time></trkpt><trkpt lat="40.32038" lon="15.0091117"><ele>68.0</ele><time>2026-03-28T15:15:06.046Z</time></trkpt><trkpt lat="40.3205233" lon="15.00921"><ele>68.0</ele><time>2026-03-28T15:15:07.045Z</time></trkpt><trkpt lat="40.3206433" lon="15.0093517"><ele>69.33333333333334</ele><time>2026-03-28T15:15:08.045Z</time></trkpt><trkpt lat="40.3207483" lon="15.00952"><ele>70.66666666666667</ele><time>2026-03-28T15:15:09.046Z</time></trkpt><trkpt lat="40.32084" lon="15.0096917"><ele>72.0</ele><time>2026-03-28T15:15:10.046Z</time></trkpt><trkpt lat="40.320925" lon="15.0098583"><ele>67.66666666666667</ele><time>2026-03-28T15:15:11.045Z</time></trkpt><trkpt lat="40.321" lon="15.0100267"><ele>63.333333333333336</ele><time>2026-03-28T15:15:12.045Z</time></trkpt><trkpt lat="40.3210617" lon="15.01021"><ele>59.0</ele><time>2026-03-28T15:15:13.046Z</time></trkpt><trkpt lat="40.3211" lon="15.0104283"><ele>59.0</ele><time>2026-03-28T15:15:14.046Z</time></trkpt><trkpt lat="40.321115" lon="15.0106717"><ele>59.0</ele><time>2026-03-28T15:15:15.045Z</time></trkpt><trkpt lat="40.32112" lon="15.0109317"><ele>59.0</ele><time>2026-03-28T15:15:16.045Z</time></trkpt><trkpt lat="40.3211167" lon="15.01118"><ele>57.0</ele><time>2026-03-28T15:15:17.045Z</time></trkpt><trkpt lat="40.3211217" lon="15.0114067"><ele>55.0</ele><time>2026-03-28T15:15:18.046Z</time></trkpt><trkpt lat="40.321135" lon="15.01162"><ele>53.0</ele><time>2026-03-28T15:15:19.046Z</time></trkpt><trkpt lat="40.3211667" lon="15.0118167"><ele>52.0</ele><time>2026-03-28T15:15:20.045Z</time></trkpt><trkpt lat="40.32122" lon="15.01199"><ele>51.0</ele><time>2026-03-28T15:15:21.046Z</time></trkpt><trkpt lat="40.3213017" lon="15.0121317"><ele>50.0</ele><time>2026-03-28T15:15:22.046Z</time></trkpt><trkpt lat="40.321415" lon="15.0122367"><ele>49.0</ele><time>2026-03-28T15:15:23.045Z</time></trkpt><trkpt lat="40.3215417" lon="15.0122933"><ele>54.0</ele><time>2026-03-28T15:15:24.045Z</time></trkpt><trkpt lat="40.32168" lon="15.0122883"><ele>59.0</ele><time>2026-03-28T15:15:25.045Z</time></trkpt><trkpt lat="40.32182" lon="15.0122333"><ele>64.0</ele><time>2026-03-28T15:15:26.045Z</time></trkpt><trkpt lat="40.3219483" lon="15.0121317"><ele>69.0</ele><time>2026-03-28T15:15:27.046Z</time></trkpt><trkpt lat="40.3220717" lon="15.0120083"><ele>69.0</ele><time>2026-03-28T15:15:28.045Z</time></trkpt><trkpt lat="40.3221983" lon="15.0118867"><ele>69.0</ele><time>2026-03-28T15:15:29.045Z</time></trkpt><trkpt lat="40.322335" lon="15.0117983"><ele>69.0</ele><time>2026-03-28T15:15:30.046Z</time></trkpt><trkpt lat="40.3224683" lon="15.011765"><ele>69.0</ele><time>2026-03-28T15:15:31.046Z</time></trkpt><trkpt lat="40.3225983" lon="15.011785"><ele>66.33333333333333</ele><time>2026-03-28T15:15:32.045Z</time></trkpt><trkpt lat="40.32273" lon="15.0118533"><ele>63.666666666666664</ele><time>2026-03-28T15:15:33.045Z</time></trkpt><trkpt lat="40.3228767" lon="15.01194"><ele>61.0</ele><time>2026-03-28T15:15:34.045Z</time></trkpt><trkpt lat="40.3230467" lon="15.012"><ele>63.33333333333333</ele><time>2026-03-28T15:15:35.045Z</time></trkpt><trkpt lat="40.3232483" lon="15.0120183"><ele>65.66666666666667</ele><time>2026-03-28T15:15:36.046Z</time></trkpt><trkpt lat="40.3234717" lon="15.0120133"><ele>68.0</ele><time>2026-03-28T15:15:37.045Z</time></trkpt><trkpt lat="40.323685" lon="15.0120017"><ele>68.0</ele><time>2026-03-28T15:15:38.045Z</time></trkpt><trkpt lat="40.323875" lon="15.011985"><ele>68.0</ele><time>2026-03-28T15:15:39.046Z</time></trkpt><trkpt lat="40.32404" lon="15.0119767"><ele>68.0</ele><time>2026-03-28T15:15:40.045Z</time></trkpt><trkpt lat="40.32419" lon="15.0119983"><ele>66.5</ele><time>2026-03-28T15:15:41.045Z</time></trkpt><trkpt lat="40.32432" lon="15.0120667"><ele>65.0</ele><time>2026-03-28T15:15:42.045Z</time></trkpt><trkpt lat="40.3244233" lon="15.01218"><ele>63.5</ele><time>2026-03-28T15:15:43.046Z</time></trkpt><trkpt lat="40.324505" lon="15.01233"><ele>62.0</ele><time>2026-03-28T15:15:44.046Z</time></trkpt><trkpt lat="40.3245567" lon="15.0124917"><ele>58.6</ele><time>2026-03-28T15:15:45.046Z</time></trkpt><trkpt lat="40.3245933" lon="15.0126417"><ele>55.2</ele><time>2026-03-28T15:15:46.045Z</time></trkpt><trkpt lat="40.3246467" lon="15.0127583"><ele>51.8</ele><time>2026-03-28T15:15:47.045Z</time></trkpt><trkpt lat="40.3247233" lon="15.01284"><ele>48.4</ele><time>2026-03-28T15:15:48.046Z</time></trkpt><trkpt lat="40.324815" lon="15.012875"><ele>45.0</ele><time>2026-03-28T15:15:49.046Z</time></trkpt><trkpt lat="40.3249217" lon="15.0128433"><ele>45.0</ele><time>2026-03-28T15:15:50.045Z</time></trkpt><trkpt lat="40.3250283" lon="15.012755"><ele>45.0</ele><time>2026-03-28T15:15:51.046Z</time></trkpt><trkpt lat="40.325125" lon="15.0126167"><ele>45.0</ele><time>2026-03-28T15:15:52.046Z</time></trkpt><trkpt lat="40.3252167" lon="15.012455"><ele>45.0</ele><time>2026-03-28T15:15:53.046Z</time></trkpt><trkpt lat="40.3253133" lon="15.012285"><ele>44.5</ele><time>2026-03-28T15:15:54.046Z</time></trkpt><trkpt lat="40.3254233" lon="15.012135"><ele>44.0</ele><time>2026-03-28T15:15:55.046Z</time></trkpt><trkpt lat="40.3255367" lon="15.0120183"><ele>43.5</ele><time>2026-03-28T15:15:56.046Z</time></trkpt><trkpt lat="40.3256617" lon="15.0119417"><ele>43.0</ele><time>2026-03-28T15:15:57.045Z</time></trkpt><trkpt lat="40.325805" lon="15.0118933"><ele>43.0</ele><time>2026-03-28T15:15:58.046Z</time></trkpt><trkpt lat="40.32596" lon="15.0118933"><ele>43.0</ele><time>2026-03-28T15:15:59.046Z</time></trkpt><trkpt lat="40.3261283" lon="15.011915"><ele>43.0</ele><time>2026-03-28T15:16:00.045Z</time></trkpt><trkpt lat="40.3263" lon="15.0119467"><ele>42.0</ele><time>2026-03-28T15:16:01.046Z</time></trkpt><trkpt lat="40.326475" lon="15.0119717"><ele>41.0</ele><time>2026-03-28T15:16:02.045Z</time></trkpt><trkpt lat="40.3266417" lon="15.0119667"><ele>40.0</ele><time>2026-03-28T15:16:03.045Z</time></trkpt><trkpt lat="40.3267917" lon="15.0119333"><ele>40.0</ele><time>2026-03-28T15:16:04.046Z</time></trkpt><trkpt lat="40.326925" lon="15.0118483"><ele>40.0</ele><time>2026-03-28T15:16:05.045Z</time></trkpt><trkpt lat="40.3270567" lon="15.011725"><ele>40.0</ele><time>2026-03-28T15:16:06.046Z</time></trkpt><trkpt lat="40.3271983" lon="15.0115967"><ele>43.333333333333336</ele><time>2026-03-28T15:16:07.046Z</time></trkpt><trkpt lat="40.32735" lon="15.0114967"><ele>46.66666666666667</ele><time>2026-03-28T15:16:08.045Z</time></trkpt><trkpt lat="40.3275167" lon="15.0114467"><ele>50.0</ele><time>2026-03-28T15:16:09.045Z</time></trkpt><trkpt lat="40.3276983" lon="15.0114317"><ele>50.0</ele><time>2026-03-28T15:16:10.046Z</time></trkpt><trkpt lat="40.327895" lon="15.0114317"><ele>50.0</ele><time>2026-03-28T15:16:11.045Z</time></trkpt><trkpt lat="40.3280967" lon="15.0114183"><ele>50.0</ele><time>2026-03-28T15:16:12.045Z</time></trkpt><trkpt lat="40.32829" lon="15.0113817"><ele>51.66666666666667</ele><time>2026-03-28T15:16:13.045Z</time></trkpt><trkpt lat="40.3284817" lon="15.011345"><ele>53.33333333333333</ele><time>2026-03-28T15:16:14.045Z</time></trkpt><trkpt lat="40.3286533" lon="15.0113367"><ele>55.0</ele><time>2026-03-28T15:16:15.045Z</time></trkpt><trkpt lat="40.328815" lon="15.01135"><ele>52.5</ele><time>2026-03-28T15:16:16.045Z</time></trkpt><trkpt lat="40.3289617" lon="15.01138"><ele>50.0</ele><time>2026-03-28T15:16:17.045Z</time></trkpt><trkpt lat="40.3291017" lon="15.0114083"><ele>47.5</ele><time>2026-03-28T15:16:18.045Z</time></trkpt><trkpt lat="40.32924" lon="15.0113967"><ele>45.0</ele><time>2026-03-28T15:16:19.046Z</time></trkpt><trkpt lat="40.3293583" lon="15.0113283"><ele>45.0</ele><time>2026-03-28T15:16:20.045Z</time></trkpt><trkpt lat="40.3294617" lon="15.0112133"><ele>45.0</ele><time>2026-03-28T15:16:21.046Z</time></trkpt><trkpt lat="40.32953" lon="15.0110617"><ele>45.0</ele><time>2026-03-28T15:16:22.045Z</time></trkpt><trkpt lat="40.3295667" lon="15.0108817"><ele>45.0</ele><time>2026-03-28T15:16:23.045Z</time></trkpt><trkpt lat="40.3295933" lon="15.0106917"><ele>46.33333333333333</ele><time>2026-03-28T15:16:24.045Z</time></trkpt><trkpt lat="40.3296583" lon="15.0105"><ele>47.666666666666664</ele><time>2026-03-28T15:16:25.045Z</time></trkpt><trkpt lat="40.3297533" lon="15.0103133"><ele>49.0</ele><time>2026-03-28T15:16:26.045Z</time></trkpt><trkpt lat="40.3298617" lon="15.01014"><ele>50.33333333333333</ele><time>2026-03-28T15:16:27.046Z</time></trkpt><trkpt lat="40.3299767" lon="15.0099667"><ele>51.66666666666667</ele><time>2026-03-28T15:16:28.045Z</time></trkpt><trkpt lat="40.3301083" lon="15.00981"><ele>53.0</ele><time>2026-03-28T15:16:29.045Z</time></trkpt><trkpt lat="40.33026" lon="15.0096767"><ele>53.0</ele><time>2026-03-28T15:16:30.045Z</time></trkpt><trkpt lat="40.330415" lon="15.0095767"><ele>53.0</ele><time>2026-03-28T15:16:31.045Z</time></trkpt><trkpt lat="40.3305883" lon="15.0094883"><ele>53.0</ele><time>2026-03-28T15:16:32.045Z</time></trkpt><trkpt lat="40.33076" lon="15.0093867"><ele>55.333333333333336</ele><time>2026-03-28T15:16:33.046Z</time></trkpt><trkpt lat="40.3309367" lon="15.009245"><ele>57.66666666666667</ele><time>2026-03-28T15:16:34.045Z</time></trkpt><trkpt lat="40.331115" lon="15.0090917"><ele>60.0</ele><time>2026-03-28T15:16:35.046Z</time></trkpt><trkpt lat="40.3312717" lon="15.008935"><ele>52.666666666666664</ele><time>2026-03-28T15:16:36.046Z</time></trkpt><trkpt lat="40.33142" lon="15.008785"><ele>45.33333333333333</ele><time>2026-03-28T15:16:37.045Z</time></trkpt><trkpt lat="40.33158" lon="15.0086567"><ele>38.0</ele><time>2026-03-28T15:16:38.046Z</time></trkpt><trkpt lat="40.3317467" lon="15.0085583"><ele>38.0</ele><time>2026-03-28T15:16:39.045Z</time></trkpt><trkpt lat="40.3319117" lon="15.008495"><ele>38.0</ele><time>2026-03-28T15:16:40.046Z</time></trkpt><trkpt lat="40.3320667" lon="15.00843"><ele>38.0</ele><time>2026-03-28T15:16:41.045Z</time></trkpt><trkpt lat="40.3322033" lon="15.0083317"><ele>39.33333333333333</ele><time>2026-03-28T15:16:42.045Z</time></trkpt><trkpt lat="40.3323317" lon="15.0081933"><ele>40.666666666666664</ele><time>2026-03-28T15:16:43.045Z</time></trkpt><trkpt lat="40.33243" lon="15.0080133"><ele>42.0</ele><time>2026-03-28T15:16:44.045Z</time></trkpt><trkpt lat="40.3325217" lon="15.0078083"><ele>42.0</ele><time>2026-03-28T15:16:45.045Z</time></trkpt><trkpt lat="40.3326233" lon="15.0076033"><ele>42.0</ele><time>2026-03-28T15:16:46.045Z</time></trkpt><trkpt lat="40.332755" lon="15.0074033"><ele>42.0</ele><time>2026-03-28T15:16:47.045Z</time></trkpt><trkpt lat="40.3329133" lon="15.007205"><ele>42.333333333333336</ele><time>2026-03-28T15:16:48.046Z</time></trkpt><trkpt lat="40.333075" lon="15.007015"><ele>42.66666666666667</ele><time>2026-03-28T15:16:49.045Z</time></trkpt><trkpt lat="40.33322" lon="15.006825"><ele>43.0</ele><time>2026-03-28T15:16:50.046Z</time></trkpt><trkpt lat="40.3333567" lon="15.00663"><ele>43.0</ele><time>2026-03-28T15:16:51.046Z</time></trkpt><trkpt lat="40.3334883" lon="15.00644"><ele>43.0</ele><time>2026-03-28T15:16:52.045Z</time></trkpt><trkpt lat="40.3336133" lon="15.006235"><ele>43.0</ele><time>2026-03-28T15:16:53.045Z</time></trkpt><trkpt lat="40.3337367" lon="15.006025"><ele>45.0</ele><time>2026-03-28T15:16:54.046Z</time></trkpt><trkpt lat="40.333845" lon="15.005815"><ele>47.0</ele><time>2026-03-28T15:16:55.045Z</time></trkpt><trkpt lat="40.3339433" lon="15.0056083"><ele>49.0</ele><time>2026-03-28T15:16:56.046Z</time></trkpt><trkpt lat="40.3340317" lon="15.0054117"><ele>45.33333333333333</ele><time>2026-03-28T15:16:57.045Z</time></trkpt><trkpt lat="40.3341067" lon="15.0052233"><ele>41.666666666666664</ele><time>2026-03-28T15:16:58.045Z</time></trkpt><trkpt lat="40.3341733" lon="15.0050367"><ele>38.0</ele><time>2026-03-28T15:16:59.046Z</time></trkpt><trkpt lat="40.334245" lon="15.00486"><ele>38.0</ele><time>2026-03-28T15:17:00.045Z</time></trkpt><trkpt lat="40.334345" lon="15.0046933"><ele>38.0</ele><time>2026-03-28T15:17:01.046Z</time></trkpt><trkpt lat="40.334465" lon="15.0045383"><ele>38.0</ele><time>2026-03-28T15:17:02.046Z</time></trkpt><trkpt lat="40.3345917" lon="15.004415"><ele>39.33333333333333</ele><time>2026-03-28T15:17:03.045Z</time></trkpt><trkpt lat="40.3347283" lon="15.0043117"><ele>40.666666666666664</ele><time>2026-03-28T15:17:04.045Z</time></trkpt><trkpt lat="40.3348633" lon="15.00423"><ele>42.0</ele><time>2026-03-28T15:17:05.045Z</time></trkpt><trkpt lat="40.334995" lon="15.004155"><ele>42.0</ele><time>2026-03-28T15:17:06.045Z</time></trkpt><trkpt lat="40.33512" lon="15.0040867"><ele>42.0</ele><time>2026-03-28T15:17:07.045Z</time></trkpt><trkpt lat="40.335245" lon="15.00402"><ele>42.0</ele><time>2026-03-28T15:17:08.046Z</time></trkpt><trkpt lat="40.3353617" lon="15.0039467"><ele>42.0</ele><time>2026-03-28T15:17:09.046Z</time></trkpt><trkpt lat="40.335475" lon="15.0038817"><ele>38.25</ele><time>2026-03-28T15:17:10.046Z</time></trkpt><trkpt lat="40.3355933" lon="15.003805"><ele>34.5</ele><time>2026-03-28T15:17:11.045Z</time></trkpt><trkpt lat="40.3357217" lon="15.0037217"><ele>30.75</ele><time>2026-03-28T15:17:12.045Z</time></trkpt><trkpt lat="40.3358567" lon="15.003625"><ele>27.0</ele><time>2026-03-28T15:17:13.045Z</time></trkpt><trkpt lat="40.3360033" lon="15.0035117"><ele>27.0</ele><time>2026-03-28T15:17:14.046Z</time></trkpt><trkpt lat="40.336155" lon="15.00337"><ele>27.0</ele><time>2026-03-28T15:17:15.045Z</time></trkpt><trkpt lat="40.33629" lon="15.0032217"><ele>27.0</ele><time>2026-03-28T15:17:16.045Z</time></trkpt><trkpt lat="40.3364167" lon="15.0030717"><ele>26.75</ele><time>2026-03-28T15:17:17.045Z</time></trkpt><trkpt lat="40.3365317" lon="15.002945"><ele>26.5</ele><time>2026-03-28T15:17:18.046Z</time></trkpt><trkpt lat="40.3366433" lon="15.00284"><ele>26.25</ele><time>2026-03-28T15:17:19.046Z</time></trkpt><trkpt lat="40.33675" lon="15.00276"><ele>26.0</ele><time>2026-03-28T15:17:20.045Z</time></trkpt><trkpt lat="40.3368633" lon="15.00273"><ele>26.0</ele><time>2026-03-28T15:17:21.046Z</time></trkpt><trkpt lat="40.33697" lon="15.002745"><ele>26.0</ele><time>2026-03-28T15:17:22.046Z</time></trkpt><trkpt lat="40.33706" lon="15.0028067"><ele>26.0</ele><time>2026-03-28T15:17:23.046Z</time></trkpt><trkpt lat="40.3371267" lon="15.0029133"><ele>26.0</ele><time>2026-03-28T15:17:24.046Z</time></trkpt><trkpt lat="40.3371767" lon="15.0030617"><ele>26.0</ele><time>2026-03-28T15:17:25.045Z</time></trkpt><trkpt lat="40.3372167" lon="15.0032433"><ele>22.333333333333332</ele><time>2026-03-28T15:17:26.046Z</time></trkpt><trkpt lat="40.33726" lon="15.0034567"><ele>18.666666666666664</ele><time>2026-03-28T15:17:27.046Z</time></trkpt><trkpt lat="40.3373183" lon="15.0036833"><ele>15.0</ele><time>2026-03-28T15:17:28.046Z</time></trkpt><trkpt lat="40.3373783" lon="15.003915"><ele>15.0</ele><time>2026-03-28T15:17:29.045Z</time></trkpt><trkpt lat="40.3374333" lon="15.0041433"><ele>15.0</ele><time>2026-03-28T15:17:30.046Z</time></trkpt><trkpt lat="40.3374933" lon="15.0043617"><ele>15.0</ele><time>2026-03-28T15:17:31.045Z</time></trkpt><trkpt lat="40.337545" lon="15.004565"><ele>15.0</ele><time>2026-03-28T15:17:32.045Z</time></trkpt><trkpt lat="40.337595" lon="15.0047617"><ele>15.0</ele><time>2026-03-28T15:17:33.046Z</time></trkpt><trkpt lat="40.3376433" lon="15.0049483"><ele>15.0</ele><time>2026-03-28T15:17:34.046Z</time></trkpt><trkpt lat="40.33769" lon="15.0051283"><ele>15.25</ele><time>2026-03-28T15:17:35.045Z</time></trkpt><trkpt lat="40.337735" lon="15.0053"><ele>15.5</ele><time>2026-03-28T15:17:36.045Z</time></trkpt><trkpt lat="40.3377767" lon="15.0054667"><ele>15.75</ele><time>2026-03-28T15:17:37.045Z</time></trkpt><trkpt lat="40.3378217" lon="15.005635"><ele>16.0</ele><time>2026-03-28T15:17:38.045Z</time></trkpt><trkpt lat="40.3378683" lon="15.00581"><ele>15.75</ele><time>2026-03-28T15:17:39.045Z</time></trkpt><trkpt lat="40.3379183" lon="15.00599"><ele>15.5</ele><time>2026-03-28T15:17:40.046Z</time></trkpt><trkpt lat="40.3379683" lon="15.0061867"><ele>15.25</ele><time>2026-03-28T15:17:41.045Z</time></trkpt><trkpt lat="40.3380117" lon="15.006365"><ele>15.0</ele><time>2026-03-28T15:17:42.045Z</time></trkpt><trkpt lat="40.338055" lon="15.0065317"><ele>14.8</ele><time>2026-03-28T15:17:43.045Z</time></trkpt><trkpt lat="40.3380933" lon="15.0066917"><ele>14.6</ele><time>2026-03-28T15:17:44.046Z</time></trkpt><trkpt lat="40.3381267" lon="15.0068383"><ele>14.399999999999999</ele><time>2026-03-28T15:17:45.045Z</time></trkpt><trkpt lat="40.3381567" lon="15.00697"><ele>14.2</ele><time>2026-03-28T15:17:46.046Z</time></trkpt><trkpt lat="40.33817" lon="15.0071"><ele>14.0</ele><time>2026-03-28T15:17:47.046Z</time></trkpt><trkpt lat="40.3381583" lon="15.0072317"><ele>14.0</ele><time>2026-03-28T15:17:48.046Z</time></trkpt><trkpt lat="40.3381183" lon="15.0073317"><ele>13.999999999999998</ele><time>2026-03-28T15:17:49.046Z</time></trkpt><trkpt lat="40.33806" lon="15.0073983"><ele>13.999999999999998</ele><time>2026-03-28T15:17:50.046Z</time></trkpt><trkpt lat="40.3379883" lon="15.0074233"><ele>14.0</ele><time>2026-03-28T15:17:51.046Z</time></trkpt><trkpt lat="40.33789" lon="15.0073883"><ele>14.0</ele><time>2026-03-28T15:17:52.046Z</time></trkpt><trkpt lat="40.337795" lon="15.0072917"><ele>14.5</ele><time>2026-03-28T15:17:53.045Z</time></trkpt><trkpt lat="40.33771" lon="15.0071567"><ele>15.0</ele><time>2026-03-28T15:17:54.046Z</time></trkpt><trkpt lat="40.337645" lon="15.0070083"><ele>15.5</ele><time>2026-03-28T15:17:55.045Z</time></trkpt><trkpt lat="40.3376133" lon="15.00685"><ele>16.0</ele><time>2026-03-28T15:17:56.046Z</time></trkpt><trkpt lat="40.33761" lon="15.006685"><ele>15.75</ele><time>2026-03-28T15:17:57.045Z</time></trkpt><trkpt lat="40.33765" lon="15.00652"><ele>15.5</ele><time>2026-03-28T15:17:58.045Z</time></trkpt><trkpt lat="40.337725" lon="15.0063667"><ele>15.25</ele><time>2026-03-28T15:17:59.046Z</time></trkpt><trkpt lat="40.3378317" lon="15.0062367"><ele>15.0</ele><time>2026-03-28T15:18:00.045Z</time></trkpt><trkpt lat="40.3379683" lon="15.0061033"><ele>15.666666666666668</ele><time>2026-03-28T15:18:01.045Z</time></trkpt><trkpt lat="40.3381317" lon="15.0059533"><ele>16.333333333333336</ele><time>2026-03-28T15:18:02.046Z</time></trkpt><trkpt lat="40.3382967" lon="15.0057883"><ele>17.0</ele><time>2026-03-28T15:18:03.045Z</time></trkpt><trkpt lat="40.33847" lon="15.0056067"><ele>17.0</ele><time>2026-03-28T15:18:04.045Z</time></trkpt><trkpt lat="40.3386483" lon="15.0054167"><ele>17.0</ele><time>2026-03-28T15:18:05.045Z</time></trkpt><trkpt lat="40.338835" lon="15.0052333"><ele>15.5</ele><time>2026-03-28T15:18:06.045Z</time></trkpt><trkpt lat="40.3390233" lon="15.0050533"><ele>14.0</ele><time>2026-03-28T15:18:07.046Z</time></trkpt><trkpt lat="40.339215" lon="15.004875"><ele>14.0</ele><time>2026-03-28T15:18:08.046Z</time></trkpt><trkpt lat="40.3394083" lon="15.0046983"><ele>14.0</ele><time>2026-03-28T15:18:09.045Z</time></trkpt><trkpt lat="40.3395983" lon="15.004515"><ele>13.5</ele><time>2026-03-28T15:18:10.045Z</time></trkpt><trkpt lat="40.3397917" lon="15.0043317"><ele>13.0</ele><time>2026-03-28T15:18:11.045Z</time></trkpt><trkpt lat="40.3399833" lon="15.00415"><ele>12.5</ele><time>2026-03-28T15:18:12.045Z</time></trkpt><trkpt lat="40.3401733" lon="15.0039683"><ele>12.0</ele><time>2026-03-28T15:18:13.045Z</time></trkpt><trkpt lat="40.340365" lon="15.0037917"><ele>12.0</ele><time>2026-03-28T15:18:14.046Z</time></trkpt><trkpt lat="40.3405483" lon="15.0036183"><ele>12.0</ele><time>2026-03-28T15:18:15.045Z</time></trkpt><trkpt lat="40.340735" lon="15.00345"><ele>11.0</ele><time>2026-03-28T15:18:16.046Z</time></trkpt><trkpt lat="40.3409233" lon="15.0032667"><ele>10.0</ele><time>2026-03-28T15:18:17.045Z</time></trkpt><trkpt lat="40.34112" lon="15.0030833"><ele>10.0</ele><time>2026-03-28T15:18:18.045Z</time></trkpt><trkpt lat="40.341325" lon="15.0029017"><ele>10.0</ele><time>2026-03-28T15:18:19.046Z</time></trkpt><trkpt lat="40.3415433" lon="15.0027283"><ele>11.0</ele><time>2026-03-28T15:18:20.045Z</time></trkpt><trkpt lat="40.3417717" lon="15.0025617"><ele>12.0</ele><time>2026-03-28T15:18:21.045Z</time></trkpt><trkpt lat="40.3420133" lon="15.0023983"><ele>10.5</ele><time>2026-03-28T15:18:22.046Z</time></trkpt><trkpt lat="40.34226" lon="15.0022417"><ele>9.0</ele><time>2026-03-28T15:18:23.046Z</time></trkpt><trkpt lat="40.3425083" lon="15.0021017"><ele>9.0</ele><time>2026-03-28T15:18:24.045Z</time></trkpt><trkpt lat="40.3427683" lon="15.0019817"><ele>9.0</ele><time>2026-03-28T15:18:25.045Z</time></trkpt><trkpt lat="40.3430317" lon="15.0018817"><ele>9.5</ele><time>2026-03-28T15:18:26.046Z</time></trkpt><trkpt lat="40.3433017" lon="15.0017933"><ele>10.0</ele><time>2026-03-28T15:18:27.046Z</time></trkpt><trkpt lat="40.343565" lon="15.0017317"><ele>10.0</ele><time>2026-03-28T15:18:28.045Z</time></trkpt><trkpt lat="40.3438167" lon="15.0016933"><ele>10.0</ele><time>2026-03-28T15:18:29.046Z</time></trkpt><trkpt lat="40.3440583" lon="15.0016717"><ele>10.5</ele><time>2026-03-28T15:18:30.045Z</time></trkpt><trkpt lat="40.34429" lon="15.0016667"><ele>11.0</ele><time>2026-03-28T15:18:31.046Z</time></trkpt><trkpt lat="40.34452" lon="15.0016733"><ele>11.0</ele><time>2026-03-28T15:18:32.046Z</time></trkpt><trkpt lat="40.3447517" lon="15.0016833"><ele>11.0</ele><time>2026-03-28T15:18:33.045Z</time></trkpt><trkpt lat="40.3449833" lon="15.0016967"><ele>11.0</ele><time>2026-03-28T15:18:34.046Z</time></trkpt><trkpt lat="40.3452283" lon="15.0017183"><ele>11.0</ele><time>2026-03-28T15:18:35.045Z</time></trkpt><trkpt lat="40.3454817" lon="15.0017467"><ele>14.0</ele><time>2026-03-28T15:18:36.045Z</time></trkpt><trkpt lat="40.3457417" lon="15.0017833"><ele>17.0</ele><time>2026-03-28T15:18:37.046Z</time></trkpt><trkpt lat="40.34601" lon="15.0018167"><ele>17.0</ele><time>2026-03-28T15:18:38.045Z</time></trkpt><trkpt lat="40.3462733" lon="15.00186"><ele>17.0</ele><time>2026-03-28T15:18:39.045Z</time></trkpt><trkpt lat="40.346535" lon="15.001895"><ele>18.0</ele><time>2026-03-28T15:18:40.046Z</time></trkpt><trkpt lat="40.346795" lon="15.00194"><ele>19.0</ele><time>2026-03-28T15:18:41.045Z</time></trkpt><trkpt lat="40.3470517" lon="15.0019767"><ele>19.0</ele><time>2026-03-28T15:18:42.045Z</time></trkpt><trkpt lat="40.3473033" lon="15.0020117"><ele>19.0</ele><time>2026-03-28T15:18:43.045Z</time></trkpt><trkpt lat="40.3475533" lon="15.0020483"><ele>19.0</ele><time>2026-03-28T15:18:44.045Z</time></trkpt><trkpt lat="40.347805" lon="15.002075"><ele>19.0</ele><time>2026-03-28T15:18:45.045Z</time></trkpt><trkpt lat="40.3480317" lon="15.0021033"><ele>18.666666666666664</ele><time>2026-03-28T15:18:46.046Z</time></trkpt><trkpt lat="40.3482333" lon="15.0021433"><ele>18.333333333333332</ele><time>2026-03-28T15:18:47.046Z</time></trkpt><trkpt lat="40.3484233" lon="15.0021733"><ele>18.0</ele><time>2026-03-28T15:18:48.046Z</time></trkpt><trkpt lat="40.3486133" lon="15.0022017"><ele>18.0</ele><time>2026-03-28T15:18:49.045Z</time></trkpt><trkpt lat="40.3488" lon="15.0022383"><ele>18.0</ele><time>2026-03-28T15:18:50.045Z</time></trkpt><trkpt lat="40.3489767" lon="15.0022917"><ele>18.0</ele><time>2026-03-28T15:18:51.046Z</time></trkpt><trkpt lat="40.3491633" lon="15.0023483"><ele>18.0</ele><time>2026-03-28T15:18:52.046Z</time></trkpt><trkpt lat="40.349345" lon="15.0024067"><ele>18.0</ele><time>2026-03-28T15:18:53.045Z</time></trkpt><trkpt lat="40.3495383" lon="15.0024683"><ele>18.0</ele><time>2026-03-28T15:18:54.046Z</time></trkpt><trkpt lat="40.3497417" lon="15.002535"><ele>18.0</ele><time>2026-03-28T15:18:55.045Z</time></trkpt><trkpt lat="40.349955" lon="15.0026217"><ele>18.0</ele><time>2026-03-28T15:18:56.045Z</time></trkpt><trkpt lat="40.3501767" lon="15.0027167"><ele>18.0</ele><time>2026-03-28T15:18:57.045Z</time></trkpt><trkpt lat="40.3504083" lon="15.002815"><ele>18.0</ele><time>2026-03-28T15:18:58.046Z</time></trkpt><trkpt lat="40.3506333" lon="15.0029117"><ele>15.5</ele><time>2026-03-28T15:18:59.046Z</time></trkpt><trkpt lat="40.3508567" lon="15.0030033"><ele>13.0</ele><time>2026-03-28T15:19:00.046Z</time></trkpt><trkpt lat="40.35108" lon="15.0030967"><ele>13.0</ele><time>2026-03-28T15:19:01.046Z</time></trkpt><trkpt lat="40.3513" lon="15.00319"><ele>13.0</ele><time>2026-03-28T15:19:02.045Z</time></trkpt><trkpt lat="40.3515283" lon="15.0032867"><ele>15.0</ele><time>2026-03-28T15:19:03.046Z</time></trkpt><trkpt lat="40.3517617" lon="15.0033817"><ele>17.0</ele><time>2026-03-28T15:19:04.045Z</time></trkpt><trkpt lat="40.35199" lon="15.0034717"><ele>17.0</ele><time>2026-03-28T15:19:05.045Z</time></trkpt><trkpt lat="40.3522083" lon="15.0035467"><ele>17.0</ele><time>2026-03-28T15:19:06.046Z</time></trkpt><trkpt lat="40.3524233" lon="15.003605"><ele>17.0</ele><time>2026-03-28T15:19:07.046Z</time></trkpt><trkpt lat="40.35264" lon="15.0036583"><ele>17.0</ele><time>2026-03-28T15:19:08.046Z</time></trkpt><trkpt lat="40.3528683" lon="15.0037067"><ele>17.0</ele><time>2026-03-28T15:19:09.045Z</time></trkpt><trkpt lat="40.353105" lon="15.0037617"><ele>16.0</ele><time>2026-03-28T15:19:10.045Z</time></trkpt><trkpt lat="40.3533533" lon="15.0038117"><ele>15.0</ele><time>2026-03-28T15:19:11.045Z</time></trkpt><trkpt lat="40.3536167" lon="15.0038583"><ele>14.0</ele><time>2026-03-28T15:19:12.046Z</time></trkpt><trkpt lat="40.3541733" lon="15.0039133"><ele>14.0</ele><time>2026-03-28T15:19:14.045Z</time></trkpt><trkpt lat="40.354475" lon="15.003925"><ele>14.0</ele><time>2026-03-28T15:19:15.045Z</time></trkpt><trkpt lat="40.354785" lon="15.003925"><ele>15.5</ele><time>2026-03-28T15:19:16.045Z</time></trkpt><trkpt lat="40.3550967" lon="15.00391"><ele>17.0</ele><time>2026-03-28T15:19:17.045Z</time></trkpt><trkpt lat="40.3554" lon="15.00389"><ele>18.0</ele><time>2026-03-28T15:19:18.045Z</time></trkpt><trkpt lat="40.3557" lon="15.0038567"><ele>19.0</ele><time>2026-03-28T15:19:19.045Z</time></trkpt><trkpt lat="40.3559983" lon="15.0038167"><ele>19.0</ele><time>2026-03-28T15:19:20.045Z</time></trkpt><trkpt lat="40.3562983" lon="15.00376"><ele>19.0</ele><time>2026-03-28T15:19:21.046Z</time></trkpt><trkpt lat="40.3566" lon="15.00369"><ele>19.5</ele><time>2026-03-28T15:19:22.046Z</time></trkpt><trkpt lat="40.3569033" lon="15.0036167"><ele>20.0</ele><time>2026-03-28T15:19:23.045Z</time></trkpt><trkpt lat="40.3572067" lon="15.003535"><ele>20.0</ele><time>2026-03-28T15:19:24.045Z</time></trkpt><trkpt lat="40.357505" lon="15.0034533"><ele>20.0</ele><time>2026-03-28T15:19:25.045Z</time></trkpt><trkpt lat="40.3577967" lon="15.0033717"><ele>16.5</ele><time>2026-03-28T15:19:26.046Z</time></trkpt><trkpt lat="40.3580767" lon="15.00329"><ele>13.0</ele><time>2026-03-28T15:19:27.045Z</time></trkpt><trkpt lat="40.358355" lon="15.003215"><ele>13.0</ele><time>2026-03-28T15:19:28.046Z</time></trkpt><trkpt lat="40.3586233" lon="15.00314"><ele>13.0</ele><time>2026-03-28T15:19:29.046Z</time></trkpt><trkpt lat="40.35888" lon="15.003065"><ele>13.0</ele><time>2026-03-28T15:19:30.045Z</time></trkpt><trkpt lat="40.3591283" lon="15.00299"><ele>13.0</ele><time>2026-03-28T15:19:31.046Z</time></trkpt><trkpt lat="40.3593767" lon="15.002915"><ele>13.0</ele><time>2026-03-28T15:19:32.045Z</time></trkpt><trkpt lat="40.3596217" lon="15.0028483"><ele>13.0</ele><time>2026-03-28T15:19:33.045Z</time></trkpt><trkpt lat="40.3598733" lon="15.002775"><ele>12.5</ele><time>2026-03-28T15:19:34.045Z</time></trkpt><trkpt lat="40.3601233" lon="15.002705"><ele>12.0</ele><time>2026-03-28T15:19:35.045Z</time></trkpt><trkpt lat="40.3603733" lon="15.0026433"><ele>13.0</ele><time>2026-03-28T15:19:36.045Z</time></trkpt><trkpt lat="40.3606133" lon="15.0025767"><ele>14.0</ele><time>2026-03-28T15:19:37.045Z</time></trkpt><trkpt lat="40.3608483" lon="15.0025117"><ele>11.0</ele><time>2026-03-28T15:19:38.045Z</time></trkpt><trkpt lat="40.3610867" lon="15.0024383"><ele>8.0</ele><time>2026-03-28T15:19:39.045Z</time></trkpt><trkpt lat="40.3613217" lon="15.00237"><ele>8.5</ele><time>2026-03-28T15:19:40.045Z</time></trkpt><trkpt lat="40.361565" lon="15.0023017"><ele>9.0</ele><time>2026-03-28T15:19:41.045Z</time></trkpt><trkpt lat="40.3618067" lon="15.0022367"><ele>9.0</ele><time>2026-03-28T15:19:42.045Z</time></trkpt><trkpt lat="40.3620467" lon="15.0021633"><ele>9.0</ele><time>2026-03-28T15:19:43.045Z</time></trkpt><trkpt lat="40.36229" lon="15.0020933"><ele>9.5</ele><time>2026-03-28T15:19:44.045Z</time></trkpt><trkpt lat="40.362525" lon="15.0020217"><ele>10.0</ele><time>2026-03-28T15:19:45.045Z</time></trkpt><trkpt lat="40.3627533" lon="15.00196"><ele>10.0</ele><time>2026-03-28T15:19:46.045Z</time></trkpt><trkpt lat="40.3629733" lon="15.0019083"><ele>10.0</ele><time>2026-03-28T15:19:47.045Z</time></trkpt><trkpt lat="40.36319" lon="15.001855"><ele>10.0</ele><time>2026-03-28T15:19:48.045Z</time></trkpt><trkpt lat="40.36341" lon="15.0018117"><ele>10.0</ele><time>2026-03-28T15:19:49.045Z</time></trkpt><trkpt lat="40.363635" lon="15.0017783"><ele>10.0</ele><time>2026-03-28T15:19:50.046Z</time></trkpt><trkpt lat="40.36387" lon="15.0017533"><ele>10.0</ele><time>2026-03-28T15:19:51.046Z</time></trkpt><trkpt lat="40.3641033" lon="15.0017367"><ele>10.0</ele><time>2026-03-28T15:19:52.046Z</time></trkpt><trkpt lat="40.3643417" lon="15.0017167"><ele>10.0</ele><time>2026-03-28T15:19:53.045Z</time></trkpt><trkpt lat="40.3645833" lon="15.001705"><ele>10.0</ele><time>2026-03-28T15:19:54.045Z</time></trkpt><trkpt lat="40.36482" lon="15.0016983"><ele>10.666666666666668</ele><time>2026-03-28T15:19:55.046Z</time></trkpt><trkpt lat="40.3650483" lon="15.0016883"><ele>11.333333333333334</ele><time>2026-03-28T15:19:56.046Z</time></trkpt><trkpt lat="40.3652633" lon="15.0016767"><ele>12.0</ele><time>2026-03-28T15:19:57.045Z</time></trkpt><trkpt lat="40.3654633" lon="15.0016667"><ele>10.333333333333334</ele><time>2026-03-28T15:19:58.046Z</time></trkpt><trkpt lat="40.3656517" lon="15.0016567"><ele>8.666666666666668</ele><time>2026-03-28T15:19:59.045Z</time></trkpt><trkpt lat="40.3658367" lon="15.00165"><ele>7.0</ele><time>2026-03-28T15:20:00.045Z</time></trkpt><trkpt lat="40.3660217" lon="15.0016367"><ele>7.0</ele><time>2026-03-28T15:20:01.045Z</time></trkpt><trkpt lat="40.3662167" lon="15.0016217"><ele>7.0</ele><time>2026-03-28T15:20:02.045Z</time></trkpt><trkpt lat="40.36642" lon="15.0016167"><ele>7.0</ele><time>2026-03-28T15:20:03.046Z</time></trkpt><trkpt lat="40.3666383" lon="15.001615"><ele>6.5</ele><time>2026-03-28T15:20:04.045Z</time></trkpt><trkpt lat="40.3668683" lon="15.0016133"><ele>6.0</ele><time>2026-03-28T15:20:05.045Z</time></trkpt><trkpt lat="40.3671017" lon="15.0016067"><ele>7.0</ele><time>2026-03-28T15:20:06.046Z</time></trkpt><trkpt lat="40.36733" lon="15.001595"><ele>8.0</ele><time>2026-03-28T15:20:07.046Z</time></trkpt><trkpt lat="40.3675533" lon="15.0015867"><ele>8.0</ele><time>2026-03-28T15:20:08.045Z</time></trkpt><trkpt lat="40.3677783" lon="15.0015767"><ele>8.0</ele><time>2026-03-28T15:20:09.045Z</time></trkpt><trkpt lat="40.3680083" lon="15.0015683"><ele>9.5</ele><time>2026-03-28T15:20:10.046Z</time></trkpt><trkpt lat="40.3682317" lon="15.0015733"><ele>11.0</ele><time>2026-03-28T15:20:11.046Z</time></trkpt><trkpt lat="40.36846" lon="15.001575"><ele>11.0</ele><time>2026-03-28T15:20:12.045Z</time></trkpt><trkpt lat="40.36869" lon="15.0015683"><ele>11.0</ele><time>2026-03-28T15:20:13.045Z</time></trkpt><trkpt lat="40.36892" lon="15.001565"><ele>12.0</ele><time>2026-03-28T15:20:14.045Z</time></trkpt><trkpt lat="40.3691433" lon="15.001565"><ele>13.0</ele><time>2026-03-28T15:20:15.045Z</time></trkpt><trkpt lat="40.36936" lon="15.0015633"><ele>14.0</ele><time>2026-03-28T15:20:16.045Z</time></trkpt><trkpt lat="40.3695683" lon="15.001565"><ele>14.333333333333334</ele><time>2026-03-28T15:20:17.045Z</time></trkpt><trkpt lat="40.36977" lon="15.00157"><ele>14.666666666666668</ele><time>2026-03-28T15:20:18.045Z</time></trkpt><trkpt lat="40.36996" lon="15.00158"><ele>15.0</ele><time>2026-03-28T15:20:19.046Z</time></trkpt><trkpt lat="40.3701467" lon="15.0015967"><ele>15.0</ele><time>2026-03-28T15:20:20.045Z</time></trkpt><trkpt lat="40.3703367" lon="15.0016233"><ele>15.0</ele><time>2026-03-28T15:20:21.045Z</time></trkpt><trkpt lat="40.3705333" lon="15.0016533"><ele>15.0</ele><time>2026-03-28T15:20:22.046Z</time></trkpt><trkpt lat="40.3707317" lon="15.001685"><ele>17.0</ele><time>2026-03-28T15:20:23.046Z</time></trkpt><trkpt lat="40.370935" lon="15.0017233"><ele>19.0</ele><time>2026-03-28T15:20:24.046Z</time></trkpt><trkpt lat="40.3711417" lon="15.00176"><ele>21.0</ele><time>2026-03-28T15:20:25.046Z</time></trkpt><trkpt lat="40.3713533" lon="15.0017917"><ele>21.0</ele><time>2026-03-28T15:20:26.045Z</time></trkpt><trkpt lat="40.3715633" lon="15.00183"><ele>21.0</ele><time>2026-03-28T15:20:27.046Z</time></trkpt><trkpt lat="40.3717667" lon="15.001865"><ele>21.0</ele><time>2026-03-28T15:20:28.045Z</time></trkpt><trkpt lat="40.3719533" lon="15.001895"><ele>21.0</ele><time>2026-03-28T15:20:29.045Z</time></trkpt><trkpt lat="40.3721383" lon="15.001925"><ele>21.0</ele><time>2026-03-28T15:20:30.045Z</time></trkpt><trkpt lat="40.3723267" lon="15.0019517"><ele>21.0</ele><time>2026-03-28T15:20:31.045Z</time></trkpt><trkpt lat="40.3725233" lon="15.001985"><ele>20.666666666666668</ele><time>2026-03-28T15:20:32.046Z</time></trkpt><trkpt lat="40.3727367" lon="15.0020283"><ele>20.333333333333336</ele><time>2026-03-28T15:20:33.045Z</time></trkpt><trkpt lat="40.37296" lon="15.0020683"><ele>20.0</ele><time>2026-03-28T15:20:34.045Z</time></trkpt><trkpt lat="40.373195" lon="15.0021117"><ele>20.0</ele><time>2026-03-28T15:20:35.045Z</time></trkpt><trkpt lat="40.37343" lon="15.0021517"><ele>20.0</ele><time>2026-03-28T15:20:36.045Z</time></trkpt><trkpt lat="40.37366" lon="15.0021867"><ele>18.666666666666668</ele><time>2026-03-28T15:20:37.045Z</time></trkpt><trkpt lat="40.37388" lon="15.0022283"><ele>17.333333333333332</ele><time>2026-03-28T15:20:38.045Z</time></trkpt><trkpt lat="40.3740967" lon="15.0022717"><ele>16.0</ele><time>2026-03-28T15:20:39.046Z</time></trkpt><trkpt lat="40.374315" lon="15.0023233"><ele>16.0</ele><time>2026-03-28T15:20:40.045Z</time></trkpt><trkpt lat="40.3745383" lon="15.0023767"><ele>16.0</ele><time>2026-03-28T15:20:41.046Z</time></trkpt><trkpt lat="40.3747667" lon="15.0024483"><ele>18.5</ele><time>2026-03-28T15:20:42.046Z</time></trkpt><trkpt lat="40.3749917" lon="15.0025483"><ele>21.0</ele><time>2026-03-28T15:20:43.046Z</time></trkpt><trkpt lat="40.3752167" lon="15.0026717"><ele>21.0</ele><time>2026-03-28T15:20:44.045Z</time></trkpt><trkpt lat="40.3754417" lon="15.0028233"><ele>21.0</ele><time>2026-03-28T15:20:45.045Z</time></trkpt><trkpt lat="40.3756683" lon="15.0029833"><ele>20.5</ele><time>2026-03-28T15:20:46.046Z</time></trkpt><trkpt lat="40.375885" lon="15.0031533"><ele>20.0</ele><time>2026-03-28T15:20:47.045Z</time></trkpt><trkpt lat="40.3761" lon="15.003335"><ele>19.0</ele><time>2026-03-28T15:20:48.045Z</time></trkpt><trkpt lat="40.3762933" lon="15.0035083"><ele>18.0</ele><time>2026-03-28T15:20:49.045Z</time></trkpt><trkpt lat="40.3764817" lon="15.003695"><ele>18.0</ele><time>2026-03-28T15:20:50.046Z</time></trkpt><trkpt lat="40.3766683" lon="15.0038833"><ele>18.0</ele><time>2026-03-28T15:20:51.046Z</time></trkpt><trkpt lat="40.3768517" lon="15.0040733"><ele>18.0</ele><time>2026-03-28T15:20:52.045Z</time></trkpt><trkpt lat="40.3770333" lon="15.0042667"><ele>18.0</ele><time>2026-03-28T15:20:53.045Z</time></trkpt><trkpt lat="40.3772133" lon="15.0044617"><ele>18.0</ele><time>2026-03-28T15:20:54.046Z</time></trkpt><trkpt lat="40.37739" lon="15.0046567"><ele>18.0</ele><time>2026-03-28T15:20:55.046Z</time></trkpt><trkpt lat="40.3775583" lon="15.004845"><ele>21.666666666666664</ele><time>2026-03-28T15:20:56.045Z</time></trkpt><trkpt lat="40.377715" lon="15.0050167"><ele>25.333333333333332</ele><time>2026-03-28T15:20:57.046Z</time></trkpt><trkpt lat="40.377865" lon="15.00518"><ele>29.0</ele><time>2026-03-28T15:20:58.045Z</time></trkpt><trkpt lat="40.37801" lon="15.0053367"><ele>25.333333333333332</ele><time>2026-03-28T15:20:59.045Z</time></trkpt><trkpt lat="40.3781517" lon="15.0054933"><ele>21.666666666666664</ele><time>2026-03-28T15:21:00.045Z</time></trkpt><trkpt lat="40.3782917" lon="15.0056483"><ele>18.0</ele><time>2026-03-28T15:21:01.045Z</time></trkpt><trkpt lat="40.3784283" lon="15.0058067"><ele>19.0</ele><time>2026-03-28T15:21:02.046Z</time></trkpt><trkpt lat="40.3785717" lon="15.0059717"><ele>20.0</ele><time>2026-03-28T15:21:03.045Z</time></trkpt><trkpt lat="40.3787133" lon="15.0061267"><ele>21.0</ele><time>2026-03-28T15:21:04.046Z</time></trkpt><trkpt lat="40.3788517" lon="15.006285"><ele>21.0</ele><time>2026-03-28T15:21:05.045Z</time></trkpt><trkpt lat="40.37899" lon="15.0064417"><ele>21.0</ele><time>2026-03-28T15:21:06.045Z</time></trkpt><trkpt lat="40.3791267" lon="15.006605"><ele>21.0</ele><time>2026-03-28T15:21:07.046Z</time></trkpt><trkpt lat="40.37926" lon="15.0067717"><ele>24.0</ele><time>2026-03-28T15:21:08.046Z</time></trkpt><trkpt lat="40.3793917" lon="15.0069433"><ele>27.0</ele><time>2026-03-28T15:21:09.046Z</time></trkpt><trkpt lat="40.3795233" lon="15.0071183"><ele>30.0</ele><time>2026-03-28T15:21:10.046Z</time></trkpt><trkpt lat="40.37965" lon="15.0073"><ele>28.0</ele><time>2026-03-28T15:21:11.045Z</time></trkpt><trkpt lat="40.379775" lon="15.00749"><ele>26.0</ele><time>2026-03-28T15:21:12.046Z</time></trkpt><trkpt lat="40.3798967" lon="15.0076867"><ele>24.0</ele><time>2026-03-28T15:21:13.045Z</time></trkpt><trkpt lat="40.380015" lon="15.0078917"><ele>24.0</ele><time>2026-03-28T15:21:14.046Z</time></trkpt><trkpt lat="40.3801283" lon="15.008105"><ele>24.0</ele><time>2026-03-28T15:21:15.046Z</time></trkpt><trkpt lat="40.380245" lon="15.0083333"><ele>24.0</ele><time>2026-03-28T15:21:16.046Z</time></trkpt><trkpt lat="40.3803567" lon="15.0085683"><ele>24.333333333333336</ele><time>2026-03-28T15:21:17.046Z</time></trkpt><trkpt lat="40.380465" lon="15.0088117"><ele>24.666666666666668</ele><time>2026-03-28T15:21:18.045Z</time></trkpt><trkpt lat="40.3805667" lon="15.0090617"><ele>25.0</ele><time>2026-03-28T15:21:19.046Z</time></trkpt><trkpt lat="40.38067" lon="15.00932"><ele>25.0</ele><time>2026-03-28T15:21:20.046Z</time></trkpt><trkpt lat="40.38076" lon="15.0095817"><ele>25.0</ele><time>2026-03-28T15:21:21.046Z</time></trkpt><trkpt lat="40.3808517" lon="15.0098617"><ele>27.0</ele><time>2026-03-28T15:21:22.045Z</time></trkpt><trkpt lat="40.3809367" lon="15.0101533"><ele>29.0</ele><time>2026-03-28T15:21:23.045Z</time></trkpt><trkpt lat="40.38102" lon="15.0104583"><ele>29.0</ele><time>2026-03-28T15:21:24.046Z</time></trkpt><trkpt lat="40.38111" lon="15.010775"><ele>29.0</ele><time>2026-03-28T15:21:25.046Z</time></trkpt><trkpt lat="40.3812" lon="15.011095"><ele>29.5</ele><time>2026-03-28T15:21:26.046Z</time></trkpt><trkpt lat="40.3812933" lon="15.0114183"><ele>30.0</ele><time>2026-03-28T15:21:27.046Z</time></trkpt><trkpt lat="40.38139" lon="15.0117433"><ele>26.0</ele><time>2026-03-28T15:21:28.045Z</time></trkpt><trkpt lat="40.3814883" lon="15.0120733"><ele>22.0</ele><time>2026-03-28T15:21:29.046Z</time></trkpt><trkpt lat="40.3815817" lon="15.0124067"><ele>23.0</ele><time>2026-03-28T15:21:30.046Z</time></trkpt><trkpt lat="40.381675" lon="15.0127433"><ele>24.0</ele><time>2026-03-28T15:21:31.046Z</time></trkpt><trkpt lat="40.381775" lon="15.0130783"><ele>26.5</ele><time>2026-03-28T15:21:32.045Z</time></trkpt><trkpt lat="40.381865" lon="15.01341"><ele>29.0</ele><time>2026-03-28T15:21:33.045Z</time></trkpt><trkpt lat="40.3819633" lon="15.013735"><ele>29.0</ele><time>2026-03-28T15:21:34.046Z</time></trkpt><trkpt lat="40.3820633" lon="15.0140617"><ele>29.0</ele><time>2026-03-28T15:21:35.046Z</time></trkpt><trkpt lat="40.382175" lon="15.0143733"><ele>24.0</ele><time>2026-03-28T15:21:36.046Z</time></trkpt><trkpt lat="40.3822967" lon="15.0146783"><ele>19.0</ele><time>2026-03-28T15:21:37.045Z</time></trkpt><trkpt lat="40.3824267" lon="15.014975"><ele>20.0</ele><time>2026-03-28T15:21:38.045Z</time></trkpt><trkpt lat="40.382565" lon="15.0152583"><ele>21.0</ele><time>2026-03-28T15:21:39.046Z</time></trkpt><trkpt lat="40.382715" lon="15.0155283"><ele>21.0</ele><time>2026-03-28T15:21:40.045Z</time></trkpt><trkpt lat="40.3828767" lon="15.0157883"><ele>21.0</ele><time>2026-03-28T15:21:41.046Z</time></trkpt><trkpt lat="40.383045" lon="15.01603"><ele>18.0</ele><time>2026-03-28T15:21:42.045Z</time></trkpt><trkpt lat="40.38322" lon="15.0162583"><ele>15.0</ele><time>2026-03-28T15:21:43.045Z</time></trkpt><trkpt lat="40.3834133" lon="15.0164733"><ele>14.5</ele><time>2026-03-28T15:21:44.045Z</time></trkpt><trkpt lat="40.3836017" lon="15.0166733"><ele>14.0</ele><time>2026-03-28T15:21:45.045Z</time></trkpt><trkpt lat="40.3838033" lon="15.0168617"><ele>12.5</ele><time>2026-03-28T15:21:46.045Z</time></trkpt><trkpt lat="40.3840117" lon="15.01703"><ele>11.0</ele><time>2026-03-28T15:21:47.045Z</time></trkpt><trkpt lat="40.3842333" lon="15.0171833"><ele>11.0</ele><time>2026-03-28T15:21:48.045Z</time></trkpt><trkpt lat="40.3844683" lon="15.0173183"><ele>11.0</ele><time>2026-03-28T15:21:49.045Z</time></trkpt><trkpt lat="40.384705" lon="15.0174433"><ele>12.0</ele><time>2026-03-28T15:21:50.045Z</time></trkpt><trkpt lat="40.38495" lon="15.0175667"><ele>13.0</ele><time>2026-03-28T15:21:51.046Z</time></trkpt><trkpt lat="40.3852033" lon="15.0176633"><ele>13.0</ele><time>2026-03-28T15:21:52.046Z</time></trkpt><trkpt lat="40.3854733" lon="15.0177367"><ele>13.0</ele><time>2026-03-28T15:21:53.046Z</time></trkpt><trkpt lat="40.3857533" lon="15.0178033"><ele>10.5</ele><time>2026-03-28T15:21:54.046Z</time></trkpt><trkpt lat="40.3860433" lon="15.0178567"><ele>8.0</ele><time>2026-03-28T15:21:55.045Z</time></trkpt><trkpt lat="40.386345" lon="15.0179033"><ele>7.5</ele><time>2026-03-28T15:21:56.045Z</time></trkpt><trkpt lat="40.3866417" lon="15.0179433"><ele>7.0</ele><time>2026-03-28T15:21:57.046Z</time></trkpt><trkpt lat="40.3869433" lon="15.0179783"><ele>7.5</ele><time>2026-03-28T15:21:58.045Z</time></trkpt><trkpt lat="40.3872483" lon="15.0180117"><ele>8.0</ele><time>2026-03-28T15:21:59.045Z</time></trkpt><trkpt lat="40.387555" lon="15.0180467"><ele>8.0</ele><time>2026-03-28T15:22:00.045Z</time></trkpt><trkpt lat="40.3878583" lon="15.01808"><ele>8.0</ele><time>2026-03-28T15:22:01.045Z</time></trkpt><trkpt lat="40.38816" lon="15.018115"><ele>8.5</ele><time>2026-03-28T15:22:02.045Z</time></trkpt><trkpt lat="40.388465" lon="15.0181517"><ele>9.0</ele><time>2026-03-28T15:22:03.045Z</time></trkpt><trkpt lat="40.3887683" lon="15.018185"><ele>9.0</ele><time>2026-03-28T15:22:04.045Z</time></trkpt><trkpt lat="40.3890683" lon="15.01822"><ele>9.0</ele><time>2026-03-28T15:22:05.045Z</time></trkpt><trkpt lat="40.3893667" lon="15.0182533"><ele>9.0</ele><time>2026-03-28T15:22:06.045Z</time></trkpt><trkpt lat="40.3896617" lon="15.0182883"><ele>9.0</ele><time>2026-03-28T15:22:07.046Z</time></trkpt><trkpt lat="40.38996" lon="15.01833"><ele>9.0</ele><time>2026-03-28T15:22:08.045Z</time></trkpt><trkpt lat="40.3902567" lon="15.01837"><ele>9.0</ele><time>2026-03-28T15:22:09.046Z</time></trkpt><trkpt lat="40.3905583" lon="15.0184083"><ele>9.0</ele><time>2026-03-28T15:22:10.045Z</time></trkpt><trkpt lat="40.3908567" lon="15.018445"><ele>9.0</ele><time>2026-03-28T15:22:11.046Z</time></trkpt><trkpt lat="40.3911567" lon="15.01848"><ele>10.0</ele><time>2026-03-28T15:22:12.045Z</time></trkpt><trkpt lat="40.39146" lon="15.0185133"><ele>11.0</ele><time>2026-03-28T15:22:13.046Z</time></trkpt><trkpt lat="40.391765" lon="15.0185517"><ele>11.0</ele><time>2026-03-28T15:22:14.046Z</time></trkpt><trkpt lat="40.3920733" lon="15.0185883"><ele>11.0</ele><time>2026-03-28T15:22:15.045Z</time></trkpt><trkpt lat="40.392375" lon="15.01863"><ele>10.5</ele><time>2026-03-28T15:22:16.046Z</time></trkpt><trkpt lat="40.3926783" lon="15.01867"><ele>10.0</ele><time>2026-03-28T15:22:17.045Z</time></trkpt><trkpt lat="40.39298" lon="15.018705"><ele>10.0</ele><time>2026-03-28T15:22:18.045Z</time></trkpt><trkpt lat="40.3932833" lon="15.0187317"><ele>10.0</ele><time>2026-03-28T15:22:19.046Z</time></trkpt><trkpt lat="40.39359" lon="15.0187517"><ele>9.5</ele><time>2026-03-28T15:22:20.046Z</time></trkpt><trkpt lat="40.3938983" lon="15.0187667"><ele>9.0</ele><time>2026-03-28T15:22:21.045Z</time></trkpt><trkpt lat="40.39421" lon="15.01878"><ele>9.0</ele><time>2026-03-28T15:22:22.046Z</time></trkpt><trkpt lat="40.3945217" lon="15.0187933"><ele>9.0</ele><time>2026-03-28T15:22:23.045Z</time></trkpt><trkpt lat="40.3948333" lon="15.018805"><ele>8.5</ele><time>2026-03-28T15:22:24.045Z</time></trkpt><trkpt lat="40.3951383" lon="15.0188067"><ele>8.0</ele><time>2026-03-28T15:22:25.046Z</time></trkpt><trkpt lat="40.3954417" lon="15.0188067"><ele>7.5</ele><time>2026-03-28T15:22:26.045Z</time></trkpt><trkpt lat="40.3957417" lon="15.0188083"><ele>7.0</ele><time>2026-03-28T15:22:27.045Z</time></trkpt><trkpt lat="40.3960467" lon="15.018795"><ele>6.5</ele><time>2026-03-28T15:22:28.046Z</time></trkpt><trkpt lat="40.3963483" lon="15.0187817"><ele>6.0</ele><time>2026-03-28T15:22:29.045Z</time></trkpt><trkpt lat="40.3966483" lon="15.018775"><ele>6.0</ele><time>2026-03-28T15:22:30.045Z</time></trkpt><trkpt lat="40.39695" lon="15.0187583"><ele>6.0</ele><time>2026-03-28T15:22:31.045Z</time></trkpt><trkpt lat="40.39724" lon="15.0187433"><ele>6.0</ele><time>2026-03-28T15:22:32.045Z</time></trkpt><trkpt lat="40.3975267" lon="15.018735"><ele>6.0</ele><time>2026-03-28T15:22:33.046Z</time></trkpt><trkpt lat="40.39781" lon="15.0187133"><ele>6.5</ele><time>2026-03-28T15:22:34.045Z</time></trkpt><trkpt lat="40.3980917" lon="15.018695"><ele>7.0</ele><time>2026-03-28T15:22:35.045Z</time></trkpt><trkpt lat="40.3983683" lon="15.0186767"><ele>7.0</ele><time>2026-03-28T15:22:36.045Z</time></trkpt><trkpt lat="40.3986433" lon="15.0186667"><ele>7.0</ele><time>2026-03-28T15:22:37.046Z</time></trkpt><trkpt lat="40.39892" lon="15.01865"><ele>8.0</ele><time>2026-03-28T15:22:38.045Z</time></trkpt><trkpt lat="40.3991967" lon="15.0186367"><ele>9.0</ele><time>2026-03-28T15:22:39.045Z</time></trkpt><trkpt lat="40.3994717" lon="15.0186217"><ele>10.5</ele><time>2026-03-28T15:22:40.045Z</time></trkpt><trkpt lat="40.39975" lon="15.0186083"><ele>12.0</ele><time>2026-03-28T15:22:41.046Z</time></trkpt><trkpt lat="40.4000283" lon="15.0185933"><ele>12.0</ele><time>2026-03-28T15:22:42.045Z</time></trkpt><trkpt lat="40.4003033" lon="15.0185783"><ele>12.0</ele><time>2026-03-28T15:22:43.045Z</time></trkpt><trkpt lat="40.400565" lon="15.0185617"><ele>13.0</ele><time>2026-03-28T15:22:44.046Z</time></trkpt><trkpt lat="40.4008167" lon="15.0185517"><ele>14.0</ele><time>2026-03-28T15:22:45.045Z</time></trkpt><trkpt lat="40.4010717" lon="15.018545"><ele>14.0</ele><time>2026-03-28T15:22:46.045Z</time></trkpt><trkpt lat="40.40133" lon="15.0185267"><ele>14.0</ele><time>2026-03-28T15:22:47.045Z</time></trkpt><trkpt lat="40.40159" lon="15.01851"><ele>14.0</ele><time>2026-03-28T15:22:48.045Z</time></trkpt><trkpt lat="40.401845" lon="15.0184967"><ele>14.0</ele><time>2026-03-28T15:22:49.045Z</time></trkpt><trkpt lat="40.4021017" lon="15.0184783"><ele>14.0</ele><time>2026-03-28T15:22:50.045Z</time></trkpt><trkpt lat="40.4023433" lon="15.0184667"><ele>14.0</ele><time>2026-03-28T15:22:51.046Z</time></trkpt><trkpt lat="40.4025717" lon="15.0184567"><ele>14.0</ele><time>2026-03-28T15:22:52.045Z</time></trkpt><trkpt lat="40.4027917" lon="15.0184567"><ele>14.0</ele><time>2026-03-28T15:22:53.046Z</time></trkpt><trkpt lat="40.403005" lon="15.018445"><ele>14.0</ele><time>2026-03-28T15:22:54.045Z</time></trkpt><trkpt lat="40.40321" lon="15.0184333"><ele>14.0</ele><time>2026-03-28T15:22:55.046Z</time></trkpt><trkpt lat="40.40341" lon="15.0184183"><ele>14.0</ele><time>2026-03-28T15:22:56.045Z</time></trkpt><trkpt lat="40.403605" lon="15.0184067"><ele>14.0</ele><time>2026-03-28T15:22:57.045Z</time></trkpt><trkpt lat="40.40379" lon="15.0183883"><ele>14.666666666666668</ele><time>2026-03-28T15:22:58.046Z</time></trkpt><trkpt lat="40.4039667" lon="15.0183817"><ele>15.333333333333332</ele><time>2026-03-28T15:22:59.045Z</time></trkpt><trkpt lat="40.4041417" lon="15.01837"><ele>16.0</ele><time>2026-03-28T15:23:00.046Z</time></trkpt><trkpt lat="40.4043133" lon="15.01836"><ele>16.0</ele><time>2026-03-28T15:23:01.045Z</time></trkpt><trkpt lat="40.4044783" lon="15.0183567"><ele>16.0</ele><time>2026-03-28T15:23:02.046Z</time></trkpt><trkpt lat="40.4046433" lon="15.018345"><ele>16.0</ele><time>2026-03-28T15:23:03.045Z</time></trkpt><trkpt lat="40.4048067" lon="15.01834"><ele>16.0</ele><time>2026-03-28T15:23:04.045Z</time></trkpt><trkpt lat="40.4049683" lon="15.0183317"><ele>16.0</ele><time>2026-03-28T15:23:05.045Z</time></trkpt><trkpt lat="40.405125" lon="15.0183283"><ele>16.0</ele><time>2026-03-28T15:23:06.045Z</time></trkpt><trkpt lat="40.4052783" lon="15.01832"><ele>15.75</ele><time>2026-03-28T15:23:07.045Z</time></trkpt><trkpt lat="40.4054317" lon="15.0183067"><ele>15.5</ele><time>2026-03-28T15:23:08.045Z</time></trkpt><trkpt lat="40.4055833" lon="15.0183"><ele>15.25</ele><time>2026-03-28T15:23:09.046Z</time></trkpt><trkpt lat="40.4057267" lon="15.0182933"><ele>15.0</ele><time>2026-03-28T15:23:10.046Z</time></trkpt><trkpt lat="40.4058667" lon="15.01829"><ele>15.5</ele><time>2026-03-28T15:23:11.045Z</time></trkpt><trkpt lat="40.4060083" lon="15.0182883"><ele>16.0</ele><time>2026-03-28T15:23:12.046Z</time></trkpt><trkpt lat="40.4061533" lon="15.0182833"><ele>16.5</ele><time>2026-03-28T15:23:13.046Z</time></trkpt><trkpt lat="40.406305" lon="15.018275"><ele>17.0</ele><time>2026-03-28T15:23:14.045Z</time></trkpt><trkpt lat="40.406465" lon="15.018265"><ele>17.333333333333336</ele><time>2026-03-28T15:23:15.045Z</time></trkpt><trkpt lat="40.406635" lon="15.018255"><ele>17.666666666666668</ele><time>2026-03-28T15:23:16.046Z</time></trkpt><trkpt lat="40.4068083" lon="15.0182433"><ele>18.0</ele><time>2026-03-28T15:23:17.045Z</time></trkpt><trkpt lat="40.4069817" lon="15.0182367"><ele>18.0</ele><time>2026-03-28T15:23:18.046Z</time></trkpt><trkpt lat="40.4071567" lon="15.0182283"><ele>18.0</ele><time>2026-03-28T15:23:19.045Z</time></trkpt><trkpt lat="40.4073233" lon="15.0182167"><ele>18.0</ele><time>2026-03-28T15:23:20.045Z</time></trkpt><trkpt lat="40.4074883" lon="15.0182017"><ele>17.666666666666668</ele><time>2026-03-28T15:23:21.045Z</time></trkpt><trkpt lat="40.40765" lon="15.0181933"><ele>17.333333333333336</ele><time>2026-03-28T15:23:22.046Z</time></trkpt><trkpt lat="40.40781" lon="15.018185"><ele>17.0</ele><time>2026-03-28T15:23:23.046Z</time></trkpt><trkpt lat="40.407965" lon="15.018175"><ele>16.666666666666668</ele><time>2026-03-28T15:23:24.046Z</time></trkpt><trkpt lat="40.4081217" lon="15.018165"><ele>16.333333333333332</ele><time>2026-03-28T15:23:25.045Z</time></trkpt><trkpt lat="40.408275" lon="15.018155"><ele>16.0</ele><time>2026-03-28T15:23:26.045Z</time></trkpt><trkpt lat="40.4084317" lon="15.0181467"><ele>16.0</ele><time>2026-03-28T15:23:27.045Z</time></trkpt><trkpt lat="40.40859" lon="15.018135"><ele>16.0</ele><time>2026-03-28T15:23:28.045Z</time></trkpt><trkpt lat="40.4087583" lon="15.0181217"><ele>16.0</ele><time>2026-03-28T15:23:29.045Z</time></trkpt><trkpt lat="40.4089367" lon="15.0181117"><ele>16.0</ele><time>2026-03-28T15:23:30.045Z</time></trkpt><trkpt lat="40.4091267" lon="15.0181067"><ele>16.0</ele><time>2026-03-28T15:23:31.046Z</time></trkpt><trkpt lat="40.409315" lon="15.0181"><ele>16.0</ele><time>2026-03-28T15:23:32.045Z</time></trkpt><trkpt lat="40.40951" lon="15.0180917"><ele>16.333333333333332</ele><time>2026-03-28T15:23:33.046Z</time></trkpt><trkpt lat="40.4097117" lon="15.0180833"><ele>16.666666666666668</ele><time>2026-03-28T15:23:34.046Z</time></trkpt><trkpt lat="40.4099167" lon="15.0180767"><ele>17.0</ele><time>2026-03-28T15:23:35.046Z</time></trkpt><trkpt lat="40.410125" lon="15.0180633"><ele>17.0</ele><time>2026-03-28T15:23:36.045Z</time></trkpt><trkpt lat="40.4103383" lon="15.0180517"><ele>17.0</ele><time>2026-03-28T15:23:37.045Z</time></trkpt><trkpt lat="40.4105633" lon="15.0180417"><ele>17.0</ele><time>2026-03-28T15:23:38.045Z</time></trkpt><trkpt lat="40.4107967" lon="15.0180283"><ele>17.5</ele><time>2026-03-28T15:23:39.045Z</time></trkpt><trkpt lat="40.4110383" lon="15.0180167"><ele>18.0</ele><time>2026-03-28T15:23:40.046Z</time></trkpt><trkpt lat="40.41128" lon="15.0180033"><ele>17.5</ele><time>2026-03-28T15:23:41.045Z</time></trkpt><trkpt lat="40.4115117" lon="15.0179833"><ele>17.0</ele><time>2026-03-28T15:23:42.045Z</time></trkpt><trkpt lat="40.41174" lon="15.0179667"><ele>17.0</ele><time>2026-03-28T15:23:43.046Z</time></trkpt><trkpt lat="40.4119583" lon="15.017955"><ele>17.0</ele><time>2026-03-28T15:23:44.045Z</time></trkpt><trkpt lat="40.41218" lon="15.017945"><ele>17.0</ele><time>2026-03-28T15:23:45.045Z</time></trkpt><trkpt lat="40.4124117" lon="15.0179233"><ele>17.0</ele><time>2026-03-28T15:23:46.046Z</time></trkpt><trkpt lat="40.41265" lon="15.0179083"><ele>17.0</ele><time>2026-03-28T15:23:47.045Z</time></trkpt><trkpt lat="40.4129" lon="15.0179017"><ele>17.5</ele><time>2026-03-28T15:23:48.045Z</time></trkpt><trkpt lat="40.41316" lon="15.01789"><ele>18.0</ele><time>2026-03-28T15:23:49.046Z</time></trkpt><trkpt lat="40.4134233" lon="15.01788"><ele>18.0</ele><time>2026-03-28T15:23:50.046Z</time></trkpt><trkpt lat="40.4136917" lon="15.0178683"><ele>18.0</ele><time>2026-03-28T15:23:51.045Z</time></trkpt><trkpt lat="40.4139667" lon="15.017855"><ele>18.5</ele><time>2026-03-28T15:23:52.046Z</time></trkpt><trkpt lat="40.41424" lon="15.0178383"><ele>19.0</ele><time>2026-03-28T15:23:53.045Z</time></trkpt><trkpt lat="40.4145083" lon="15.01782"><ele>18.5</ele><time>2026-03-28T15:23:54.045Z</time></trkpt><trkpt lat="40.4147667" lon="15.0178067"><ele>18.0</ele><time>2026-03-28T15:23:55.045Z</time></trkpt><trkpt lat="40.4150167" lon="15.0177967"><ele>18.0</ele><time>2026-03-28T15:23:56.046Z</time></trkpt><trkpt lat="40.4152617" lon="15.01778"><ele>18.0</ele><time>2026-03-28T15:23:57.045Z</time></trkpt><trkpt lat="40.4155" lon="15.017765"><ele>18.5</ele><time>2026-03-28T15:23:58.045Z</time></trkpt><trkpt lat="40.415735" lon="15.0177583"><ele>19.0</ele><time>2026-03-28T15:23:59.045Z</time></trkpt><trkpt lat="40.4159617" lon="15.0177517"><ele>19.0</ele><time>2026-03-28T15:24:00.045Z</time></trkpt><trkpt lat="40.416185" lon="15.01776"><ele>19.0</ele><time>2026-03-28T15:24:01.045Z</time></trkpt><trkpt lat="40.41641" lon="15.01778"><ele>19.0</ele><time>2026-03-28T15:24:02.046Z</time></trkpt><trkpt lat="40.416635" lon="15.0178083"><ele>19.5</ele><time>2026-03-28T15:24:03.045Z</time></trkpt><trkpt lat="40.41686" lon="15.0178333"><ele>20.0</ele><time>2026-03-28T15:24:04.045Z</time></trkpt><trkpt lat="40.41709" lon="15.017865"><ele>20.0</ele><time>2026-03-28T15:24:05.046Z</time></trkpt><trkpt lat="40.4173217" lon="15.0178967"><ele>20.0</ele><time>2026-03-28T15:24:06.045Z</time></trkpt><trkpt lat="40.4175567" lon="15.0179233"><ele>20.0</ele><time>2026-03-28T15:24:07.045Z</time></trkpt><trkpt lat="40.4178" lon="15.01796"><ele>20.0</ele><time>2026-03-28T15:24:08.046Z</time></trkpt><trkpt lat="40.4180467" lon="15.0179983"><ele>20.0</ele><time>2026-03-28T15:24:09.045Z</time></trkpt><trkpt lat="40.4182917" lon="15.0180333"><ele>20.0</ele><time>2026-03-28T15:24:10.046Z</time></trkpt><trkpt lat="40.4185283" lon="15.0180617"><ele>20.0</ele><time>2026-03-28T15:24:11.046Z</time></trkpt><trkpt lat="40.41875" lon="15.0180917"><ele>20.0</ele><time>2026-03-28T15:24:12.045Z</time></trkpt><trkpt lat="40.4189683" lon="15.018115"><ele>20.0</ele><time>2026-03-28T15:24:13.045Z</time></trkpt><trkpt lat="40.419185" lon="15.0181383"><ele>19.0</ele><time>2026-03-28T15:24:14.045Z</time></trkpt><trkpt lat="40.419395" lon="15.0181633"><ele>18.0</ele><time>2026-03-28T15:24:15.045Z</time></trkpt><trkpt lat="40.4195967" lon="15.018195"><ele>17.0</ele><time>2026-03-28T15:24:16.045Z</time></trkpt><trkpt lat="40.4197817" lon="15.0182233"><ele>17.0</ele><time>2026-03-28T15:24:17.045Z</time></trkpt><trkpt lat="40.41995" lon="15.0182483"><ele>17.0</ele><time>2026-03-28T15:24:18.046Z</time></trkpt><trkpt lat="40.4201033" lon="15.01827"><ele>17.0</ele><time>2026-03-28T15:24:19.045Z</time></trkpt><trkpt lat="40.4202533" lon="15.0182967"><ele>17.0</ele><time>2026-03-28T15:24:20.045Z</time></trkpt><trkpt lat="40.4204133" lon="15.0183133"><ele>17.0</ele><time>2026-03-28T15:24:21.045Z</time></trkpt><trkpt lat="40.42059" lon="15.0183233"><ele>17.0</ele><time>2026-03-28T15:24:22.045Z</time></trkpt><trkpt lat="40.4207767" lon="15.0183533"><ele>17.333333333333336</ele><time>2026-03-28T15:24:23.046Z</time></trkpt><trkpt lat="40.4209667" lon="15.0183817"><ele>17.666666666666668</ele><time>2026-03-28T15:24:24.045Z</time></trkpt><trkpt lat="40.4211617" lon="15.0184083"><ele>18.0</ele><time>2026-03-28T15:24:25.045Z</time></trkpt><trkpt lat="40.4213717" lon="15.018435"><ele>18.0</ele><time>2026-03-28T15:24:26.045Z</time></trkpt><trkpt lat="40.4215933" lon="15.018455"><ele>18.0</ele><time>2026-03-28T15:24:27.045Z</time></trkpt><trkpt lat="40.421805" lon="15.0184733"><ele>18.0</ele><time>2026-03-28T15:24:28.045Z</time></trkpt><trkpt lat="40.4220067" lon="15.0184817"><ele>18.666666666666668</ele><time>2026-03-28T15:24:29.046Z</time></trkpt><trkpt lat="40.4222033" lon="15.0184783"><ele>19.333333333333336</ele><time>2026-03-28T15:24:30.045Z</time></trkpt><trkpt lat="40.4223967" lon="15.01847"><ele>20.0</ele><time>2026-03-28T15:24:31.046Z</time></trkpt><trkpt lat="40.4225883" lon="15.018465"><ele>20.0</ele><time>2026-03-28T15:24:32.046Z</time></trkpt><trkpt lat="40.4227867" lon="15.0184617"><ele>20.0</ele><time>2026-03-28T15:24:33.045Z</time></trkpt><trkpt lat="40.42299" lon="15.0184517"><ele>20.0</ele><time>2026-03-28T15:24:34.045Z</time></trkpt><trkpt lat="40.4232117" lon="15.01844"><ele>19.0</ele><time>2026-03-28T15:24:35.045Z</time></trkpt><trkpt lat="40.423445" lon="15.0184233"><ele>18.0</ele><time>2026-03-28T15:24:36.045Z</time></trkpt><trkpt lat="40.423695" lon="15.0184133"><ele>18.5</ele><time>2026-03-28T15:24:37.045Z</time></trkpt><trkpt lat="40.4239567" lon="15.0183983"><ele>19.0</ele><time>2026-03-28T15:24:38.045Z</time></trkpt><trkpt lat="40.4242333" lon="15.01839"><ele>19.0</ele><time>2026-03-28T15:24:39.046Z</time></trkpt><trkpt lat="40.424525" lon="15.01839"><ele>19.0</ele><time>2026-03-28T15:24:40.045Z</time></trkpt><trkpt lat="40.424825" lon="15.0183883"><ele>18.5</ele><time>2026-03-28T15:24:41.045Z</time></trkpt><trkpt lat="40.4251233" lon="15.0183833"><ele>18.0</ele><time>2026-03-28T15:24:42.045Z</time></trkpt><trkpt lat="40.4254167" lon="15.0183767"><ele>18.0</ele><time>2026-03-28T15:24:43.045Z</time></trkpt><trkpt lat="40.4257067" lon="15.0183717"><ele>18.0</ele><time>2026-03-28T15:24:44.046Z</time></trkpt><trkpt lat="40.4259967" lon="15.0183633"><ele>18.0</ele><time>2026-03-28T15:24:45.045Z</time></trkpt><trkpt lat="40.42629" lon="15.0183533"><ele>18.0</ele><time>2026-03-28T15:24:46.045Z</time></trkpt><trkpt lat="40.4265883" lon="15.0183417"><ele>18.0</ele><time>2026-03-28T15:24:47.045Z</time></trkpt><trkpt lat="40.4268933" lon="15.0183383"><ele>18.0</ele><time>2026-03-28T15:24:48.046Z</time></trkpt><trkpt lat="40.427205" lon="15.0183317"><ele>17.5</ele><time>2026-03-28T15:24:49.046Z</time></trkpt><trkpt lat="40.4275183" lon="15.018325"><ele>17.0</ele><time>2026-03-28T15:24:50.045Z</time></trkpt><trkpt lat="40.4278283" lon="15.0183133"><ele>16.5</ele><time>2026-03-28T15:24:51.045Z</time></trkpt><trkpt lat="40.4281333" lon="15.0183033"><ele>16.0</ele><time>2026-03-28T15:24:52.046Z</time></trkpt><trkpt lat="40.428435" lon="15.0182933"><ele>16.0</ele><time>2026-03-28T15:24:53.045Z</time></trkpt><trkpt lat="40.4287367" lon="15.018285"><ele>16.0</ele><time>2026-03-28T15:24:54.045Z</time></trkpt><trkpt lat="40.42904" lon="15.0182733"><ele>17.5</ele><time>2026-03-28T15:24:55.046Z</time></trkpt><trkpt lat="40.4293433" lon="15.01827"><ele>19.0</ele><time>2026-03-28T15:24:56.045Z</time></trkpt><trkpt lat="40.4296417" lon="15.0182817"><ele>19.0</ele><time>2026-03-28T15:24:57.045Z</time></trkpt><trkpt lat="40.4299483" lon="15.0182983"><ele>19.0</ele><time>2026-03-28T15:24:58.045Z</time></trkpt><trkpt lat="40.4302533" lon="15.018325"><ele>19.5</ele><time>2026-03-28T15:24:59.046Z</time></trkpt><trkpt lat="40.430565" lon="15.01835"><ele>20.0</ele><time>2026-03-28T15:25:00.045Z</time></trkpt><trkpt lat="40.4308517" lon="15.0183733"><ele>20.0</ele><time>2026-03-28T15:25:01.045Z</time></trkpt><trkpt lat="40.431115" lon="15.018385"><ele>20.0</ele><time>2026-03-28T15:25:02.046Z</time></trkpt><trkpt lat="40.4313383" lon="15.01841"><ele>20.0</ele><time>2026-03-28T15:25:03.045Z</time></trkpt><trkpt lat="40.4315417" lon="15.0184333"><ele>20.0</ele><time>2026-03-28T15:25:04.046Z</time></trkpt><trkpt lat="40.4317283" lon="15.0184517"><ele>20.0</ele><time>2026-03-28T15:25:05.045Z</time></trkpt><trkpt lat="40.4319167" lon="15.0184683"><ele>20.0</ele><time>2026-03-28T15:25:06.046Z</time></trkpt><trkpt lat="40.4321117" lon="15.0184817"><ele>20.0</ele><time>2026-03-28T15:25:07.045Z</time></trkpt><trkpt lat="40.4323167" lon="15.0185017"><ele>20.0</ele><time>2026-03-28T15:25:08.045Z</time></trkpt><trkpt lat="40.4325367" lon="15.0185217"><ele>20.0</ele><time>2026-03-28T15:25:09.046Z</time></trkpt><trkpt lat="40.43277" lon="15.018545"><ele>20.0</ele><time>2026-03-28T15:25:10.045Z</time></trkpt><trkpt lat="40.4330183" lon="15.0185733"><ele>19.5</ele><time>2026-03-28T15:25:11.045Z</time></trkpt><trkpt lat="40.433285" lon="15.0185917"><ele>19.0</ele><time>2026-03-28T15:25:12.045Z</time></trkpt><trkpt lat="40.4335583" lon="15.0186133"><ele>19.5</ele><time>2026-03-28T15:25:13.046Z</time></trkpt><trkpt lat="40.4338317" lon="15.0186333"><ele>20.0</ele><time>2026-03-28T15:25:14.045Z</time></trkpt><trkpt lat="40.4341067" lon="15.018655"><ele>20.0</ele><time>2026-03-28T15:25:15.046Z</time></trkpt><trkpt lat="40.434375" lon="15.018675"><ele>20.0</ele><time>2026-03-28T15:25:16.045Z</time></trkpt><trkpt lat="40.4346383" lon="15.0186967"><ele>20.0</ele><time>2026-03-28T15:25:17.045Z</time></trkpt><trkpt lat="40.4348983" lon="15.0187167"><ele>20.0</ele><time>2026-03-28T15:25:18.046Z</time></trkpt><trkpt lat="40.4351567" lon="15.0187333"><ele>20.0</ele><time>2026-03-28T15:25:19.045Z</time></trkpt><trkpt lat="40.4354117" lon="15.018755"><ele>20.0</ele><time>2026-03-28T15:25:20.045Z</time></trkpt><trkpt lat="40.4356717" lon="15.0187717"><ele>21.0</ele><time>2026-03-28T15:25:21.045Z</time></trkpt><trkpt lat="40.435935" lon="15.0187933"><ele>22.0</ele><time>2026-03-28T15:25:22.045Z</time></trkpt><trkpt lat="40.4362" lon="15.0188167"><ele>21.5</ele><time>2026-03-28T15:25:23.045Z</time></trkpt><trkpt lat="40.4364733" lon="15.0188433"><ele>21.0</ele><time>2026-03-28T15:25:24.046Z</time></trkpt><trkpt lat="40.4367533" lon="15.018865"><ele>21.0</ele><time>2026-03-28T15:25:25.045Z</time></trkpt><trkpt lat="40.4370367" lon="15.0188883"><ele>21.0</ele><time>2026-03-28T15:25:26.045Z</time></trkpt><trkpt lat="40.437325" lon="15.01891"><ele>21.0</ele><time>2026-03-28T15:25:27.046Z</time></trkpt><trkpt lat="40.43762" lon="15.018935"><ele>21.0</ele><time>2026-03-28T15:25:28.045Z</time></trkpt><trkpt lat="40.4379067" lon="15.0189583"><ele>22.5</ele><time>2026-03-28T15:25:29.045Z</time></trkpt><trkpt lat="40.4381933" lon="15.0189883"><ele>24.0</ele><time>2026-03-28T15:25:30.046Z</time></trkpt><trkpt lat="40.4384867" lon="15.01901"><ele>24.0</ele><time>2026-03-28T15:25:31.045Z</time></trkpt><trkpt lat="40.4387783" lon="15.0190367"><ele>24.0</ele><time>2026-03-28T15:25:32.046Z</time></trkpt><trkpt lat="40.439075" lon="15.0190633"><ele>24.0</ele><time>2026-03-28T15:25:33.046Z</time></trkpt><trkpt lat="40.43938" lon="15.0190933"><ele>24.0</ele><time>2026-03-28T15:25:34.046Z</time></trkpt><trkpt lat="40.4396933" lon="15.0191183"><ele>24.0</ele><time>2026-03-28T15:25:35.045Z</time></trkpt><trkpt lat="40.440005" lon="15.019145"><ele>24.0</ele><time>2026-03-28T15:25:36.045Z</time></trkpt><trkpt lat="40.4403133" lon="15.0191667"><ele>24.5</ele><time>2026-03-28T15:25:37.047Z</time></trkpt><trkpt lat="40.440615" lon="15.0191933"><ele>25.0</ele><time>2026-03-28T15:25:38.047Z</time></trkpt><trkpt lat="40.4409183" lon="15.0192183"><ele>25.0</ele><time>2026-03-28T15:25:39.046Z</time></trkpt><trkpt lat="40.4412217" lon="15.0192367"><ele>25.0</ele><time>2026-03-28T15:25:40.047Z</time></trkpt><trkpt lat="40.4415267" lon="15.0192617"><ele>26.0</ele><time>2026-03-28T15:25:41.046Z</time></trkpt><trkpt lat="40.4418333" lon="15.0192883"><ele>27.0</ele><time>2026-03-28T15:25:42.046Z</time></trkpt><trkpt lat="40.4421433" lon="15.0193133"><ele>28.0</ele><time>2026-03-28T15:25:43.046Z</time></trkpt><trkpt lat="40.4424467" lon="15.0193383"><ele>29.0</ele><time>2026-03-28T15:25:44.046Z</time></trkpt><trkpt lat="40.4427417" lon="15.0193617"><ele>30.0</ele><time>2026-03-28T15:25:45.046Z</time></trkpt><trkpt lat="40.44303" lon="15.0193817"><ele>31.0</ele><time>2026-03-28T15:25:46.047Z</time></trkpt><trkpt lat="40.4433183" lon="15.0193917"><ele>31.0</ele><time>2026-03-28T15:25:47.046Z</time></trkpt><trkpt lat="40.4435967" lon="15.0193883"><ele>31.0</ele><time>2026-03-28T15:25:48.047Z</time></trkpt><trkpt lat="40.44386" lon="15.0193667"><ele>31.0</ele><time>2026-03-28T15:25:49.047Z</time></trkpt><trkpt lat="40.4441117" lon="15.01933"><ele>31.0</ele><time>2026-03-28T15:25:50.047Z</time></trkpt><trkpt lat="40.4443583" lon="15.0192883"><ele>31.0</ele><time>2026-03-28T15:25:51.047Z</time></trkpt><trkpt lat="40.4445967" lon="15.0192517"><ele>31.0</ele><time>2026-03-28T15:25:52.047Z</time></trkpt><trkpt lat="40.444825" lon="15.0192133"><ele>30.0</ele><time>2026-03-28T15:25:53.046Z</time></trkpt><trkpt lat="40.445055" lon="15.01917"><ele>29.0</ele><time>2026-03-28T15:25:54.047Z</time></trkpt><trkpt lat="40.445285" lon="15.01913"><ele>26.0</ele><time>2026-03-28T15:25:55.046Z</time></trkpt><trkpt lat="40.445515" lon="15.019085"><ele>23.0</ele><time>2026-03-28T15:25:56.047Z</time></trkpt><trkpt lat="40.4457483" lon="15.01904"><ele>23.0</ele><time>2026-03-28T15:25:57.047Z</time></trkpt><trkpt lat="40.4459883" lon="15.0189967"><ele>23.0</ele><time>2026-03-28T15:25:58.046Z</time></trkpt><trkpt lat="40.44624" lon="15.0189517"><ele>23.5</ele><time>2026-03-28T15:25:59.046Z</time></trkpt><trkpt lat="40.4465017" lon="15.0189083"><ele>24.0</ele><time>2026-03-28T15:26:00.046Z</time></trkpt><trkpt lat="40.44677" lon="15.018865"><ele>24.0</ele><time>2026-03-28T15:26:01.046Z</time></trkpt><trkpt lat="40.4470467" lon="15.0188117"><ele>24.0</ele><time>2026-03-28T15:26:02.047Z</time></trkpt><trkpt lat="40.4473217" lon="15.01876"><ele>24.5</ele><time>2026-03-28T15:26:03.047Z</time></trkpt><trkpt lat="40.4475967" lon="15.0187117"><ele>25.0</ele><time>2026-03-28T15:26:04.046Z</time></trkpt><trkpt lat="40.4478683" lon="15.01866"><ele>25.0</ele><time>2026-03-28T15:26:05.047Z</time></trkpt><trkpt lat="40.44814" lon="15.0186117"><ele>25.0</ele><time>2026-03-28T15:26:06.047Z</time></trkpt><trkpt lat="40.44841" lon="15.0185617"><ele>25.0</ele><time>2026-03-28T15:26:07.046Z</time></trkpt><trkpt lat="40.4486833" lon="15.0185133"><ele>25.0</ele><time>2026-03-28T15:26:08.046Z</time></trkpt><trkpt lat="40.4489583" lon="15.0184667"><ele>25.5</ele><time>2026-03-28T15:26:09.046Z</time></trkpt><trkpt lat="40.4492367" lon="15.018415"><ele>26.0</ele><time>2026-03-28T15:26:10.046Z</time></trkpt><trkpt lat="40.4495167" lon="15.0183617"><ele>25.5</ele><time>2026-03-28T15:26:11.046Z</time></trkpt><trkpt lat="40.4497983" lon="15.0183067"><ele>25.0</ele><time>2026-03-28T15:26:12.046Z</time></trkpt><trkpt lat="40.4500867" lon="15.0182517"><ele>25.0</ele><time>2026-03-28T15:26:13.047Z</time></trkpt><trkpt lat="40.45038" lon="15.0182017"><ele>25.0</ele><time>2026-03-28T15:26:14.046Z</time></trkpt><trkpt lat="40.4506767" lon="15.0181533"><ele>24.5</ele><time>2026-03-28T15:26:15.046Z</time></trkpt><trkpt lat="40.450975" lon="15.0180983"><ele>24.0</ele><time>2026-03-28T15:26:16.047Z</time></trkpt><trkpt lat="40.451275" lon="15.0180467"><ele>24.0</ele><time>2026-03-28T15:26:17.047Z</time></trkpt><trkpt lat="40.4515783" lon="15.01799"><ele>24.0</ele><time>2026-03-28T15:26:18.046Z</time></trkpt><trkpt lat="40.45188" lon="15.01794"><ele>24.5</ele><time>2026-03-28T15:26:19.046Z</time></trkpt><trkpt lat="40.45218" lon="15.0178833"><ele>25.0</ele><time>2026-03-28T15:26:20.046Z</time></trkpt><trkpt lat="40.4524717" lon="15.0178317"><ele>25.0</ele><time>2026-03-28T15:26:21.046Z</time></trkpt><trkpt lat="40.45275" lon="15.017785"><ele>25.0</ele><time>2026-03-28T15:26:22.046Z</time></trkpt><trkpt lat="40.453015" lon="15.017735"><ele>24.5</ele><time>2026-03-28T15:26:23.046Z</time></trkpt><trkpt lat="40.4532733" lon="15.01769"><ele>24.0</ele><time>2026-03-28T15:26:24.047Z</time></trkpt><trkpt lat="40.4535317" lon="15.0176417"><ele>24.5</ele><time>2026-03-28T15:26:25.046Z</time></trkpt><trkpt lat="40.45379" lon="15.0175967"><ele>25.0</ele><time>2026-03-28T15:26:26.046Z</time></trkpt><trkpt lat="40.4540483" lon="15.01755"><ele>25.0</ele><time>2026-03-28T15:26:27.047Z</time></trkpt><trkpt lat="40.4543067" lon="15.0175017"><ele>25.0</ele><time>2026-03-28T15:26:28.046Z</time></trkpt><trkpt lat="40.45456" lon="15.0174517"><ele>23.5</ele><time>2026-03-28T15:26:29.047Z</time></trkpt><trkpt lat="40.45481" lon="15.0174067"><ele>22.0</ele><time>2026-03-28T15:26:30.047Z</time></trkpt><trkpt lat="40.455055" lon="15.0173617"><ele>22.0</ele><time>2026-03-28T15:26:31.046Z</time></trkpt><trkpt lat="40.4553" lon="15.017315"><ele>22.0</ele><time>2026-03-28T15:26:32.047Z</time></trkpt><trkpt lat="40.455545" lon="15.0172733"><ele>23.5</ele><time>2026-03-28T15:26:33.047Z</time></trkpt><trkpt lat="40.4557917" lon="15.0172317"><ele>25.0</ele><time>2026-03-28T15:26:34.047Z</time></trkpt><trkpt lat="40.4560383" lon="15.0171933"><ele>24.5</ele><time>2026-03-28T15:26:35.046Z</time></trkpt><trkpt lat="40.45629" lon="15.01715"><ele>24.0</ele><time>2026-03-28T15:26:36.046Z</time></trkpt><trkpt lat="40.45655" lon="15.0170983"><ele>24.0</ele><time>2026-03-28T15:26:37.047Z</time></trkpt><trkpt lat="40.4568083" lon="15.017045"><ele>24.0</ele><time>2026-03-28T15:26:38.046Z</time></trkpt><trkpt lat="40.457065" lon="15.0169983"><ele>23.5</ele><time>2026-03-28T15:26:39.046Z</time></trkpt><trkpt lat="40.4573183" lon="15.0169517"><ele>23.0</ele><time>2026-03-28T15:26:40.047Z</time></trkpt><trkpt lat="40.45758" lon="15.0169017"><ele>23.0</ele><time>2026-03-28T15:26:41.046Z</time></trkpt><trkpt lat="40.4578367" lon="15.016855"><ele>23.0</ele><time>2026-03-28T15:26:42.047Z</time></trkpt><trkpt lat="40.4580967" lon="15.0168083"><ele>23.5</ele><time>2026-03-28T15:26:43.047Z</time></trkpt><trkpt lat="40.4583567" lon="15.0167667"><ele>24.0</ele><time>2026-03-28T15:26:44.047Z</time></trkpt><trkpt lat="40.4586217" lon="15.0167233"><ele>24.5</ele><time>2026-03-28T15:26:45.046Z</time></trkpt><trkpt lat="40.458885" lon="15.01668"><ele>25.0</ele><time>2026-03-28T15:26:46.046Z</time></trkpt><trkpt lat="40.4591517" lon="15.0166317"><ele>25.0</ele><time>2026-03-28T15:26:47.047Z</time></trkpt><trkpt lat="40.45942" lon="15.01658"><ele>25.0</ele><time>2026-03-28T15:26:48.046Z</time></trkpt><trkpt lat="40.4596917" lon="15.01653"><ele>25.0</ele><time>2026-03-28T15:26:49.046Z</time></trkpt><trkpt lat="40.45996" lon="15.0164783"><ele>25.0</ele><time>2026-03-28T15:26:50.047Z</time></trkpt><trkpt lat="40.4602267" lon="15.0164317"><ele>25.0</ele><time>2026-03-28T15:26:51.047Z</time></trkpt><trkpt lat="40.4604867" lon="15.0163817"><ele>25.0</ele><time>2026-03-28T15:26:52.046Z</time></trkpt><trkpt lat="40.4607333" lon="15.0163317"><ele>25.0</ele><time>2026-03-28T15:26:53.047Z</time></trkpt><trkpt lat="40.46098" lon="15.01629"><ele>25.0</ele><time>2026-03-28T15:26:54.047Z</time></trkpt><trkpt lat="40.4612233" lon="15.0162433"><ele>24.0</ele><time>2026-03-28T15:26:55.047Z</time></trkpt><trkpt lat="40.4614633" lon="15.0162"><ele>23.0</ele><time>2026-03-28T15:26:56.046Z</time></trkpt><trkpt lat="40.461705" lon="15.016155"><ele>23.0</ele><time>2026-03-28T15:26:57.046Z</time></trkpt><trkpt lat="40.4619417" lon="15.0161117"><ele>23.0</ele><time>2026-03-28T15:26:58.046Z</time></trkpt><trkpt lat="40.46217" lon="15.0160683"><ele>23.333333333333336</ele><time>2026-03-28T15:26:59.046Z</time></trkpt><trkpt lat="40.4623867" lon="15.01603"><ele>23.666666666666668</ele><time>2026-03-28T15:27:00.047Z</time></trkpt><trkpt lat="40.4625967" lon="15.0159917"><ele>24.0</ele><time>2026-03-28T15:27:01.046Z</time></trkpt><trkpt lat="40.462805" lon="15.015945"><ele>24.0</ele><time>2026-03-28T15:27:02.046Z</time></trkpt><trkpt lat="40.4630183" lon="15.0158833"><ele>24.0</ele><time>2026-03-28T15:27:03.046Z</time></trkpt><trkpt lat="40.46323" lon="15.0158283"><ele>24.0</ele><time>2026-03-28T15:27:04.047Z</time></trkpt><trkpt lat="40.4634467" lon="15.015765"><ele>24.0</ele><time>2026-03-28T15:27:05.046Z</time></trkpt><trkpt lat="40.46367" lon="15.0157133"><ele>24.0</ele><time>2026-03-28T15:27:06.047Z</time></trkpt><trkpt lat="40.4638983" lon="15.01566"><ele>24.5</ele><time>2026-03-28T15:27:07.047Z</time></trkpt><trkpt lat="40.464125" lon="15.015595"><ele>25.0</ele><time>2026-03-28T15:27:08.047Z</time></trkpt><trkpt lat="40.4643417" lon="15.01554"><ele>25.0</ele><time>2026-03-28T15:27:09.046Z</time></trkpt><trkpt lat="40.4645533" lon="15.015485"><ele>25.0</ele><time>2026-03-28T15:27:10.047Z</time></trkpt><trkpt lat="40.464765" lon="15.0154267"><ele>25.0</ele><time>2026-03-28T15:27:11.046Z</time></trkpt><trkpt lat="40.4649783" lon="15.0153717"><ele>26.0</ele><time>2026-03-28T15:27:12.047Z</time></trkpt><trkpt lat="40.4651967" lon="15.0153183"><ele>27.0</ele><time>2026-03-28T15:27:13.046Z</time></trkpt><trkpt lat="40.4654217" lon="15.0152617"><ele>26.5</ele><time>2026-03-28T15:27:14.046Z</time></trkpt><trkpt lat="40.46565" lon="15.015205"><ele>26.0</ele><time>2026-03-28T15:27:15.046Z</time></trkpt><trkpt lat="40.465885" lon="15.0151467"><ele>26.0</ele><time>2026-03-28T15:27:16.046Z</time></trkpt><trkpt lat="40.4661317" lon="15.0150867"><ele>26.0</ele><time>2026-03-28T15:27:17.047Z</time></trkpt><trkpt lat="40.4663867" lon="15.0150217"><ele>25.5</ele><time>2026-03-28T15:27:18.046Z</time></trkpt><trkpt lat="40.4666467" lon="15.01495"><ele>25.0</ele><time>2026-03-28T15:27:19.046Z</time></trkpt><trkpt lat="40.4669" lon="15.0148883"><ele>25.5</ele><time>2026-03-28T15:27:20.046Z</time></trkpt><trkpt lat="40.4671467" lon="15.0148217"><ele>26.0</ele><time>2026-03-28T15:27:21.047Z</time></trkpt><trkpt lat="40.4673883" lon="15.0147517"><ele>26.0</ele><time>2026-03-28T15:27:22.047Z</time></trkpt><trkpt lat="40.4676167" lon="15.0146917"><ele>26.0</ele><time>2026-03-28T15:27:23.046Z</time></trkpt><trkpt lat="40.4678367" lon="15.0146283"><ele>25.666666666666664</ele><time>2026-03-28T15:27:24.047Z</time></trkpt><trkpt lat="40.4680483" lon="15.014575"><ele>25.333333333333336</ele><time>2026-03-28T15:27:25.046Z</time></trkpt><trkpt lat="40.4682583" lon="15.01452"><ele>25.0</ele><time>2026-03-28T15:27:26.047Z</time></trkpt><trkpt lat="40.4684667" lon="15.01447"><ele>25.0</ele><time>2026-03-28T15:27:27.047Z</time></trkpt><trkpt lat="40.4686667" lon="15.014415"><ele>25.0</ele><time>2026-03-28T15:27:28.046Z</time></trkpt><trkpt lat="40.4688583" lon="15.0143617"><ele>25.0</ele><time>2026-03-28T15:27:29.046Z</time></trkpt><trkpt lat="40.4690367" lon="15.0143183"><ele>25.0</ele><time>2026-03-28T15:27:30.046Z</time></trkpt><trkpt lat="40.469205" lon="15.014275"><ele>25.0</ele><time>2026-03-28T15:27:31.047Z</time></trkpt><trkpt lat="40.4693633" lon="15.0142383"><ele>25.0</ele><time>2026-03-28T15:27:32.046Z</time></trkpt><trkpt lat="40.469515" lon="15.0141983"><ele>25.25</ele><time>2026-03-28T15:27:33.046Z</time></trkpt><trkpt lat="40.4696533" lon="15.0141667"><ele>25.5</ele><time>2026-03-28T15:27:34.047Z</time></trkpt><trkpt lat="40.4697817" lon="15.01414"><ele>25.75</ele><time>2026-03-28T15:27:35.046Z</time></trkpt><trkpt lat="40.4699" lon="15.0141183"><ele>26.0</ele><time>2026-03-28T15:27:36.046Z</time></trkpt><trkpt lat="40.47001" lon="15.01409"><ele>26.0</ele><time>2026-03-28T15:27:37.046Z</time></trkpt><trkpt lat="40.4701083" lon="15.0140617"><ele>26.0</ele><time>2026-03-28T15:27:38.047Z</time></trkpt><trkpt lat="40.4702" lon="15.0140233"><ele>26.0</ele><time>2026-03-28T15:27:39.047Z</time></trkpt><trkpt lat="40.4702833" lon="15.01397"><ele>26.0</ele><time>2026-03-28T15:27:40.047Z</time></trkpt><trkpt lat="40.4703683" lon="15.0139117"><ele>26.0</ele><time>2026-03-28T15:27:41.047Z</time></trkpt><trkpt lat="40.4704567" lon="15.013865"><ele>25.6</ele><time>2026-03-28T15:27:42.046Z</time></trkpt><trkpt lat="40.47055" lon="15.013845"><ele>25.200000000000003</ele><time>2026-03-28T15:27:43.047Z</time></trkpt><trkpt lat="40.4706517" lon="15.0138417"><ele>24.799999999999997</ele><time>2026-03-28T15:27:44.046Z</time></trkpt><trkpt lat="40.470765" lon="15.01384"><ele>24.4</ele><time>2026-03-28T15:27:45.046Z</time></trkpt><trkpt lat="40.47089" lon="15.01384"><ele>24.0</ele><time>2026-03-28T15:27:46.047Z</time></trkpt><trkpt lat="40.4710217" lon="15.01384"><ele>24.0</ele><time>2026-03-28T15:27:47.047Z</time></trkpt><trkpt lat="40.4711617" lon="15.0138417"><ele>24.0</ele><time>2026-03-28T15:27:48.047Z</time></trkpt><trkpt lat="40.4713083" lon="15.0138417"><ele>24.0</ele><time>2026-03-28T15:27:49.046Z</time></trkpt><trkpt lat="40.4714667" lon="15.0138417"><ele>24.0</ele><time>2026-03-28T15:27:50.047Z</time></trkpt><trkpt lat="40.4716317" lon="15.0138483"><ele>24.0</ele><time>2026-03-28T15:27:51.047Z</time></trkpt><trkpt lat="40.4718033" lon="15.013865"><ele>24.0</ele><time>2026-03-28T15:27:52.047Z</time></trkpt><trkpt lat="40.4719817" lon="15.0138817"><ele>24.0</ele><time>2026-03-28T15:27:53.047Z</time></trkpt><trkpt lat="40.47217" lon="15.013905"><ele>24.0</ele><time>2026-03-28T15:27:54.046Z</time></trkpt><trkpt lat="40.4723617" lon="15.013935"><ele>24.0</ele><time>2026-03-28T15:27:55.047Z</time></trkpt><trkpt lat="40.4725567" lon="15.0139583"><ele>24.0</ele><time>2026-03-28T15:27:56.047Z</time></trkpt><trkpt lat="40.47275" lon="15.01398"><ele>24.0</ele><time>2026-03-28T15:27:57.046Z</time></trkpt><trkpt lat="40.4729383" lon="15.0140017"><ele>24.0</ele><time>2026-03-28T15:27:58.047Z</time></trkpt><trkpt lat="40.4731317" lon="15.0140233"><ele>24.0</ele><time>2026-03-28T15:27:59.046Z</time></trkpt><trkpt lat="40.47332" lon="15.014045"><ele>23.666666666666668</ele><time>2026-03-28T15:28:00.046Z</time></trkpt><trkpt lat="40.473505" lon="15.0140667"><ele>23.333333333333336</ele><time>2026-03-28T15:28:01.047Z</time></trkpt><trkpt lat="40.4736817" lon="15.0140933"><ele>23.0</ele><time>2026-03-28T15:28:02.047Z</time></trkpt><trkpt lat="40.4738533" lon="15.0141183"><ele>23.0</ele><time>2026-03-28T15:28:03.046Z</time></trkpt><trkpt lat="40.4740233" lon="15.014145"><ele>23.0</ele><time>2026-03-28T15:28:04.046Z</time></trkpt><trkpt lat="40.4741967" lon="15.0141683"><ele>23.0</ele><time>2026-03-28T15:28:05.046Z</time></trkpt><trkpt lat="40.474375" lon="15.014195"><ele>23.0</ele><time>2026-03-28T15:28:06.047Z</time></trkpt><trkpt lat="40.4745633" lon="15.0142133"><ele>23.0</ele><time>2026-03-28T15:28:07.047Z</time></trkpt><trkpt lat="40.4747567" lon="15.0142367"><ele>23.0</ele><time>2026-03-28T15:28:08.047Z</time></trkpt><trkpt lat="40.474955" lon="15.0142617"><ele>22.666666666666668</ele><time>2026-03-28T15:28:09.047Z</time></trkpt><trkpt lat="40.4751583" lon="15.0142933"><ele>22.333333333333332</ele><time>2026-03-28T15:28:10.047Z</time></trkpt><trkpt lat="40.4753617" lon="15.0143217"><ele>22.0</ele><time>2026-03-28T15:28:11.047Z</time></trkpt><trkpt lat="40.47557" lon="15.01434"><ele>22.0</ele><time>2026-03-28T15:28:12.046Z</time></trkpt><trkpt lat="40.47578" lon="15.0143583"><ele>22.0</ele><time>2026-03-28T15:28:13.046Z</time></trkpt><trkpt lat="40.47599" lon="15.0143783"><ele>22.0</ele><time>2026-03-28T15:28:14.046Z</time></trkpt><trkpt lat="40.4762067" lon="15.0143983"><ele>21.333333333333332</ele><time>2026-03-28T15:28:15.046Z</time></trkpt><trkpt lat="40.4764233" lon="15.0144233"><ele>20.666666666666668</ele><time>2026-03-28T15:28:16.046Z</time></trkpt><trkpt lat="40.4766467" lon="15.0144467"><ele>20.0</ele><time>2026-03-28T15:28:17.046Z</time></trkpt><trkpt lat="40.4768717" lon="15.0144767"><ele>20.0</ele><time>2026-03-28T15:28:18.046Z</time></trkpt><trkpt lat="40.477095" lon="15.0145033"><ele>20.0</ele><time>2026-03-28T15:28:19.047Z</time></trkpt><trkpt lat="40.4773117" lon="15.014525"><ele>20.0</ele><time>2026-03-28T15:28:20.047Z</time></trkpt><trkpt lat="40.4775233" lon="15.01455"><ele>19.666666666666668</ele><time>2026-03-28T15:28:21.046Z</time></trkpt><trkpt lat="40.477735" lon="15.0145733"><ele>19.333333333333332</ele><time>2026-03-28T15:28:22.046Z</time></trkpt><trkpt lat="40.477935" lon="15.0145983"><ele>19.0</ele><time>2026-03-28T15:28:23.046Z</time></trkpt><trkpt lat="40.4781283" lon="15.0146183"><ele>19.0</ele><time>2026-03-28T15:28:24.046Z</time></trkpt><trkpt lat="40.4783133" lon="15.014645"><ele>19.0</ele><time>2026-03-28T15:28:25.046Z</time></trkpt><trkpt lat="40.478495" lon="15.014665"><ele>19.0</ele><time>2026-03-28T15:28:26.046Z</time></trkpt><trkpt lat="40.478675" lon="15.01469"><ele>18.666666666666664</ele><time>2026-03-28T15:28:27.047Z</time></trkpt><trkpt lat="40.47886" lon="15.0147183"><ele>18.333333333333332</ele><time>2026-03-28T15:28:28.046Z</time></trkpt><trkpt lat="40.479055" lon="15.01474"><ele>18.0</ele><time>2026-03-28T15:28:29.046Z</time></trkpt><trkpt lat="40.4792533" lon="15.0147617"><ele>18.0</ele><time>2026-03-28T15:28:30.046Z</time></trkpt><trkpt lat="40.4794517" lon="15.01479"><ele>18.0</ele><time>2026-03-28T15:28:31.046Z</time></trkpt><trkpt lat="40.47965" lon="15.014815"><ele>18.0</ele><time>2026-03-28T15:28:32.046Z</time></trkpt><trkpt lat="40.4798467" lon="15.014845"><ele>17.666666666666668</ele><time>2026-03-28T15:28:33.046Z</time></trkpt><trkpt lat="40.480045" lon="15.0148733"><ele>17.333333333333336</ele><time>2026-03-28T15:28:34.047Z</time></trkpt><trkpt lat="40.48024" lon="15.0148983"><ele>17.0</ele><time>2026-03-28T15:28:35.046Z</time></trkpt><trkpt lat="40.4804267" lon="15.0149217"><ele>16.666666666666668</ele><time>2026-03-28T15:28:36.047Z</time></trkpt><trkpt lat="40.4806067" lon="15.0149417"><ele>16.333333333333332</ele><time>2026-03-28T15:28:37.047Z</time></trkpt><trkpt lat="40.4807783" lon="15.0149617"><ele>16.0</ele><time>2026-03-28T15:28:38.046Z</time></trkpt><trkpt lat="40.48095" lon="15.014985"><ele>16.0</ele><time>2026-03-28T15:28:39.046Z</time></trkpt><trkpt lat="40.481125" lon="15.0150083"><ele>16.0</ele><time>2026-03-28T15:28:40.046Z</time></trkpt><trkpt lat="40.4813017" lon="15.0150317"><ele>16.0</ele><time>2026-03-28T15:28:41.046Z</time></trkpt><trkpt lat="40.4814733" lon="15.01506"><ele>15.0</ele><time>2026-03-28T15:28:42.046Z</time></trkpt><trkpt lat="40.4816467" lon="15.01509"><ele>14.0</ele><time>2026-03-28T15:28:43.046Z</time></trkpt><trkpt lat="40.481825" lon="15.015115"><ele>13.0</ele><time>2026-03-28T15:28:44.047Z</time></trkpt><trkpt lat="40.482" lon="15.015135"><ele>12.666666666666666</ele><time>2026-03-28T15:28:45.047Z</time></trkpt><trkpt lat="40.482175" lon="15.01515"><ele>12.333333333333332</ele><time>2026-03-28T15:28:46.047Z</time></trkpt><trkpt lat="40.48235" lon="15.0151717"><ele>12.0</ele><time>2026-03-28T15:28:47.047Z</time></trkpt><trkpt lat="40.4825267" lon="15.015195"><ele>12.0</ele><time>2026-03-28T15:28:48.047Z</time></trkpt><trkpt lat="40.4826983" lon="15.0152183"><ele>12.0</ele><time>2026-03-28T15:28:49.046Z</time></trkpt><trkpt lat="40.4828717" lon="15.01524"><ele>12.0</ele><time>2026-03-28T15:28:50.046Z</time></trkpt><trkpt lat="40.4830483" lon="15.0152567"><ele>11.666666666666666</ele><time>2026-03-28T15:28:51.047Z</time></trkpt><trkpt lat="40.4832233" lon="15.0152767"><ele>11.333333333333332</ele><time>2026-03-28T15:28:52.047Z</time></trkpt><trkpt lat="40.483395" lon="15.0153"><ele>11.0</ele><time>2026-03-28T15:28:53.047Z</time></trkpt><trkpt lat="40.4835717" lon="15.01532"><ele>11.0</ele><time>2026-03-28T15:28:54.046Z</time></trkpt><trkpt lat="40.4837417" lon="15.01534"><ele>11.0</ele><time>2026-03-28T15:28:55.047Z</time></trkpt><trkpt lat="40.483915" lon="15.0153733"><ele>11.0</ele><time>2026-03-28T15:28:56.047Z</time></trkpt><trkpt lat="40.4840783" lon="15.0153933"><ele>11.666666666666666</ele><time>2026-03-28T15:28:57.047Z</time></trkpt><trkpt lat="40.4842467" lon="15.0154017"><ele>12.333333333333332</ele><time>2026-03-28T15:28:58.047Z</time></trkpt><trkpt lat="40.484415" lon="15.0154167"><ele>13.0</ele><time>2026-03-28T15:28:59.047Z</time></trkpt><trkpt lat="40.484595" lon="15.0154383"><ele>12.666666666666666</ele><time>2026-03-28T15:29:00.047Z</time></trkpt><trkpt lat="40.4847817" lon="15.01546"><ele>12.333333333333332</ele><time>2026-03-28T15:29:01.047Z</time></trkpt><trkpt lat="40.4849717" lon="15.015485"><ele>12.0</ele><time>2026-03-28T15:29:02.047Z</time></trkpt><trkpt lat="40.4851667" lon="15.0155117"><ele>12.0</ele><time>2026-03-28T15:29:03.047Z</time></trkpt><trkpt lat="40.4853633" lon="15.0155383"><ele>12.0</ele><time>2026-03-28T15:29:04.046Z</time></trkpt><trkpt lat="40.4855633" lon="15.0155617"><ele>12.0</ele><time>2026-03-28T15:29:05.047Z</time></trkpt><trkpt lat="40.4857633" lon="15.0155833"><ele>11.666666666666666</ele><time>2026-03-28T15:29:06.047Z</time></trkpt><trkpt lat="40.4859667" lon="15.0156083"><ele>11.333333333333332</ele><time>2026-03-28T15:29:07.046Z</time></trkpt><trkpt lat="40.4861683" lon="15.0156417"><ele>11.0</ele><time>2026-03-28T15:29:08.046Z</time></trkpt><trkpt lat="40.4863767" lon="15.0156683"><ele>10.333333333333332</ele><time>2026-03-28T15:29:09.046Z</time></trkpt><trkpt lat="40.4865917" lon="15.0156867"><ele>9.666666666666666</ele><time>2026-03-28T15:29:10.047Z</time></trkpt><trkpt lat="40.486805" lon="15.0157033"><ele>9.0</ele><time>2026-03-28T15:29:11.047Z</time></trkpt><trkpt lat="40.4870217" lon="15.015735"><ele>9.666666666666666</ele><time>2026-03-28T15:29:12.047Z</time></trkpt><trkpt lat="40.487235" lon="15.0157617"><ele>10.333333333333332</ele><time>2026-03-28T15:29:13.047Z</time></trkpt><trkpt lat="40.4874467" lon="15.01579"><ele>11.0</ele><time>2026-03-28T15:29:14.047Z</time></trkpt><trkpt lat="40.48766" lon="15.01581"><ele>11.333333333333332</ele><time>2026-03-28T15:29:15.046Z</time></trkpt><trkpt lat="40.4878717" lon="15.015835"><ele>11.666666666666666</ele><time>2026-03-28T15:29:16.046Z</time></trkpt><trkpt lat="40.4880833" lon="15.0158583"><ele>12.0</ele><time>2026-03-28T15:29:17.046Z</time></trkpt><trkpt lat="40.4882983" lon="15.0158833"><ele>12.666666666666668</ele><time>2026-03-28T15:29:18.047Z</time></trkpt><trkpt lat="40.4885117" lon="15.01591"><ele>13.333333333333334</ele><time>2026-03-28T15:29:19.047Z</time></trkpt><trkpt lat="40.488725" lon="15.015935"><ele>14.0</ele><time>2026-03-28T15:29:20.046Z</time></trkpt><trkpt lat="40.4889433" lon="15.01596"><ele>14.666666666666668</ele><time>2026-03-28T15:29:21.046Z</time></trkpt><trkpt lat="40.4891633" lon="15.0159833"><ele>15.333333333333332</ele><time>2026-03-28T15:29:22.047Z</time></trkpt><trkpt lat="40.48938" lon="15.0160083"><ele>16.0</ele><time>2026-03-28T15:29:23.047Z</time></trkpt><trkpt lat="40.4896033" lon="15.016035"><ele>16.0</ele><time>2026-03-28T15:29:24.046Z</time></trkpt><trkpt lat="40.4898233" lon="15.0160583"><ele>16.0</ele><time>2026-03-28T15:29:25.046Z</time></trkpt><trkpt lat="40.49004" lon="15.0160783"><ele>16.0</ele><time>2026-03-28T15:29:26.046Z</time></trkpt><trkpt lat="40.4902567" lon="15.0160983"><ele>16.333333333333332</ele><time>2026-03-28T15:29:27.046Z</time></trkpt><trkpt lat="40.49047" lon="15.0161267"><ele>16.666666666666668</ele><time>2026-03-28T15:29:28.047Z</time></trkpt><trkpt lat="40.4906817" lon="15.0161467"><ele>17.0</ele><time>2026-03-28T15:29:29.047Z</time></trkpt><trkpt lat="40.4908917" lon="15.0161667"><ele>17.0</ele><time>2026-03-28T15:29:30.046Z</time></trkpt><trkpt lat="40.4910983" lon="15.0161933"><ele>17.0</ele><time>2026-03-28T15:29:31.047Z</time></trkpt><trkpt lat="40.4913033" lon="15.0162183"><ele>17.0</ele><time>2026-03-28T15:29:32.046Z</time></trkpt><trkpt lat="40.4915017" lon="15.0162417"><ele>17.0</ele><time>2026-03-28T15:29:33.046Z</time></trkpt><trkpt lat="40.491695" lon="15.0162617"><ele>17.0</ele><time>2026-03-28T15:29:34.046Z</time></trkpt><trkpt lat="40.4918883" lon="15.0162883"><ele>17.0</ele><time>2026-03-28T15:29:35.047Z</time></trkpt><trkpt lat="40.49209" lon="15.01631"><ele>17.0</ele><time>2026-03-28T15:29:36.047Z</time></trkpt><trkpt lat="40.49229" lon="15.0163333"><ele>17.0</ele><time>2026-03-28T15:29:37.047Z</time></trkpt><trkpt lat="40.49249" lon="15.0163533"><ele>17.0</ele><time>2026-03-28T15:29:38.047Z</time></trkpt><trkpt lat="40.4926917" lon="15.01637"><ele>17.0</ele><time>2026-03-28T15:29:39.047Z</time></trkpt><trkpt lat="40.49289" lon="15.016375"><ele>17.0</ele><time>2026-03-28T15:29:40.047Z</time></trkpt><trkpt lat="40.49308" lon="15.01635"><ele>17.0</ele><time>2026-03-28T15:29:41.047Z</time></trkpt><trkpt lat="40.49326" lon="15.0163167"><ele>16.666666666666668</ele><time>2026-03-28T15:29:42.046Z</time></trkpt><trkpt lat="40.4934333" lon="15.01627"><ele>16.333333333333332</ele><time>2026-03-28T15:29:43.046Z</time></trkpt><trkpt lat="40.4936" lon="15.0162133"><ele>16.0</ele><time>2026-03-28T15:29:44.046Z</time></trkpt><trkpt lat="40.4937533" lon="15.0161467"><ele>16.25</ele><time>2026-03-28T15:29:45.046Z</time></trkpt><trkpt lat="40.4938983" lon="15.0160833"><ele>16.5</ele><time>2026-03-28T15:29:46.046Z</time></trkpt><trkpt lat="40.4940333" lon="15.0160217"><ele>16.75</ele><time>2026-03-28T15:29:47.046Z</time></trkpt><trkpt lat="40.4941467" lon="15.0159833"><ele>17.0</ele><time>2026-03-28T15:29:48.046Z</time></trkpt><trkpt lat="40.4942517" lon="15.0159683"><ele>17.0</ele><time>2026-03-28T15:29:49.046Z</time></trkpt><trkpt lat="40.4943433" lon="15.0159733"><ele>17.0</ele><time>2026-03-28T15:29:50.046Z</time></trkpt><trkpt lat="40.49443" lon="15.0159883"><ele>17.0</ele><time>2026-03-28T15:29:51.046Z</time></trkpt><trkpt lat="40.4945133" lon="15.01599"><ele>17.0</ele><time>2026-03-28T15:29:52.046Z</time></trkpt><trkpt lat="40.494585" lon="15.0159583"><ele>17.0</ele><time>2026-03-28T15:29:53.046Z</time></trkpt><trkpt lat="40.4946467" lon="15.0158967"><ele>17.0</ele><time>2026-03-28T15:29:54.047Z</time></trkpt><trkpt lat="40.4946867" lon="15.0158083"><ele>16.6</ele><time>2026-03-28T15:29:55.046Z</time></trkpt><trkpt lat="40.49472" lon="15.0157017"><ele>16.2</ele><time>2026-03-28T15:29:56.047Z</time></trkpt><trkpt lat="40.4947417" lon="15.0155933"><ele>15.8</ele><time>2026-03-28T15:29:57.047Z</time></trkpt><trkpt lat="40.49479" lon="15.0155067"><ele>15.4</ele><time>2026-03-28T15:29:58.047Z</time></trkpt><trkpt lat="40.494875" lon="15.0154417"><ele>15.0</ele><time>2026-03-28T15:29:59.047Z</time></trkpt><trkpt lat="40.49498" lon="15.0153867"><ele>15.0</ele><time>2026-03-28T15:30:00.047Z</time></trkpt><trkpt lat="40.4951" lon="15.01533"><ele>15.0</ele><time>2026-03-28T15:30:01.047Z</time></trkpt><trkpt lat="40.4952317" lon="15.0152633"><ele>15.0</ele><time>2026-03-28T15:30:02.047Z</time></trkpt><trkpt lat="40.49538" lon="15.015175"><ele>15.0</ele><time>2026-03-28T15:30:03.047Z</time></trkpt><trkpt lat="40.4955333" lon="15.015085"><ele>14.0</ele><time>2026-03-28T15:30:04.046Z</time></trkpt><trkpt lat="40.4956933" lon="15.01499"><ele>13.0</ele><time>2026-03-28T15:30:05.046Z</time></trkpt><trkpt lat="40.4958633" lon="15.0148933"><ele>12.0</ele><time>2026-03-28T15:30:06.047Z</time></trkpt><trkpt lat="40.49603" lon="15.0147917"><ele>11.333333333333334</ele><time>2026-03-28T15:30:07.046Z</time></trkpt><trkpt lat="40.49621" lon="15.014685"><ele>10.666666666666668</ele><time>2026-03-28T15:30:08.046Z</time></trkpt><trkpt lat="40.4963967" lon="15.0145783"><ele>10.0</ele><time>2026-03-28T15:30:09.047Z</time></trkpt><trkpt lat="40.4965883" lon="15.0144717"><ele>9.0</ele><time>2026-03-28T15:30:10.047Z</time></trkpt><trkpt lat="40.49679" lon="15.0143633"><ele>8.0</ele><time>2026-03-28T15:30:11.046Z</time></trkpt><trkpt lat="40.496995" lon="15.01425"><ele>7.0</ele><time>2026-03-28T15:30:12.047Z</time></trkpt><trkpt lat="40.4972033" lon="15.0141367"><ele>7.0</ele><time>2026-03-28T15:30:13.047Z</time></trkpt><trkpt lat="40.497415" lon="15.0140133"><ele>7.0</ele><time>2026-03-28T15:30:14.047Z</time></trkpt><trkpt lat="40.4976317" lon="15.013885"><ele>7.0</ele><time>2026-03-28T15:30:15.046Z</time></trkpt><trkpt lat="40.4978567" lon="15.0137533"><ele>7.0</ele><time>2026-03-28T15:30:16.046Z</time></trkpt><trkpt lat="40.4980817" lon="15.0136167"><ele>7.5</ele><time>2026-03-28T15:30:17.046Z</time></trkpt><trkpt lat="40.49831" lon="15.0134783"><ele>8.0</ele><time>2026-03-28T15:30:18.046Z</time></trkpt><trkpt lat="40.4985533" lon="15.01334"><ele>6.0</ele><time>2026-03-28T15:30:19.047Z</time></trkpt><trkpt lat="40.4987983" lon="15.0132"><ele>4.0</ele><time>2026-03-28T15:30:20.046Z</time></trkpt><trkpt lat="40.4990433" lon="15.0130617"><ele>4.0</ele><time>2026-03-28T15:30:21.047Z</time></trkpt><trkpt lat="40.4992967" lon="15.012915"><ele>4.0</ele><time>2026-03-28T15:30:22.046Z</time></trkpt><trkpt lat="40.4995533" lon="15.0127667"><ele>4.5</ele><time>2026-03-28T15:30:23.046Z</time></trkpt><trkpt lat="40.499815" lon="15.0126183"><ele>5.0</ele><time>2026-03-28T15:30:24.046Z</time></trkpt><trkpt lat="40.50008" lon="15.01246"><ele>5.0</ele><time>2026-03-28T15:30:25.046Z</time></trkpt><trkpt lat="40.500345" lon="15.01231"><ele>5.0</ele><time>2026-03-28T15:30:26.046Z</time></trkpt><trkpt lat="40.5006167" lon="15.012155"><ele>5.0</ele><time>2026-03-28T15:30:27.047Z</time></trkpt><trkpt lat="40.5008867" lon="15.0119983"><ele>5.0</ele><time>2026-03-28T15:30:28.047Z</time></trkpt><trkpt lat="40.50114" lon="15.0118483"><ele>5.0</ele><time>2026-03-28T15:30:29.047Z</time></trkpt><trkpt lat="40.50138" lon="15.0117083"><ele>5.0</ele><time>2026-03-28T15:30:30.047Z</time></trkpt><trkpt lat="40.501605" lon="15.01158"><ele>5.5</ele><time>2026-03-28T15:30:31.046Z</time></trkpt><trkpt lat="40.5018283" lon="15.01147"><ele>6.0</ele><time>2026-03-28T15:30:32.047Z</time></trkpt><trkpt lat="40.5020467" lon="15.0113783"><ele>6.0</ele><time>2026-03-28T15:30:33.047Z</time></trkpt><trkpt lat="40.502265" lon="15.0113133"><ele>6.0</ele><time>2026-03-28T15:30:34.046Z</time></trkpt><trkpt lat="40.5024883" lon="15.011275"><ele>6.0</ele><time>2026-03-28T15:30:35.046Z</time></trkpt><trkpt lat="40.5027133" lon="15.0112717"><ele>5.666666666666667</ele><time>2026-03-28T15:30:36.047Z</time></trkpt><trkpt lat="40.5029367" lon="15.0113017"><ele>5.333333333333334</ele><time>2026-03-28T15:30:37.047Z</time></trkpt><trkpt lat="40.5031517" lon="15.01135"><ele>5.0</ele><time>2026-03-28T15:30:38.047Z</time></trkpt><trkpt lat="40.5033633" lon="15.01141"><ele>5.0</ele><time>2026-03-28T15:30:39.047Z</time></trkpt><trkpt lat="40.503575" lon="15.0114667"><ele>5.0</ele><time>2026-03-28T15:30:40.046Z</time></trkpt><trkpt lat="40.5037817" lon="15.0115183"><ele>5.0</ele><time>2026-03-28T15:30:41.047Z</time></trkpt><trkpt lat="40.5039917" lon="15.01158"><ele>5.333333333333334</ele><time>2026-03-28T15:30:42.047Z</time></trkpt><trkpt lat="40.5042033" lon="15.0116333"><ele>5.666666666666667</ele><time>2026-03-28T15:30:43.047Z</time></trkpt><trkpt lat="40.5044133" lon="15.0116883"><ele>6.0</ele><time>2026-03-28T15:30:44.046Z</time></trkpt><trkpt lat="40.5046167" lon="15.0117417"><ele>6.0</ele><time>2026-03-28T15:30:45.046Z</time></trkpt><trkpt lat="40.5048033" lon="15.0117883"><ele>6.0</ele><time>2026-03-28T15:30:46.047Z</time></trkpt><trkpt lat="40.5049833" lon="15.0118333"><ele>6.0</ele><time>2026-03-28T15:30:47.046Z</time></trkpt><trkpt lat="40.50516" lon="15.0118817"><ele>6.0</ele><time>2026-03-28T15:30:48.046Z</time></trkpt><trkpt lat="40.5053467" lon="15.0119267"><ele>6.0</ele><time>2026-03-28T15:30:49.046Z</time></trkpt><trkpt lat="40.5055383" lon="15.0119717"><ele>6.0</ele><time>2026-03-28T15:30:50.047Z</time></trkpt><trkpt lat="40.5057383" lon="15.0120183"><ele>6.333333333333334</ele><time>2026-03-28T15:30:51.047Z</time></trkpt><trkpt lat="40.5059433" lon="15.0120667"><ele>6.666666666666667</ele><time>2026-03-28T15:30:52.047Z</time></trkpt><trkpt lat="40.5061583" lon="15.0121183"><ele>7.0</ele><time>2026-03-28T15:30:53.046Z</time></trkpt><trkpt lat="40.506375" lon="15.0121733"><ele>7.0</ele><time>2026-03-28T15:30:54.046Z</time></trkpt><trkpt lat="40.5066" lon="15.0122133"><ele>7.0</ele><time>2026-03-28T15:30:55.046Z</time></trkpt><trkpt lat="40.5068283" lon="15.0122267"><ele>7.0</ele><time>2026-03-28T15:30:56.046Z</time></trkpt><trkpt lat="40.5070533" lon="15.0122083"><ele>7.0</ele><time>2026-03-28T15:30:57.047Z</time></trkpt><trkpt lat="40.507265" lon="15.0121683"><ele>7.0</ele><time>2026-03-28T15:30:58.046Z</time></trkpt><trkpt lat="40.5074667" lon="15.0121017"><ele>7.0</ele><time>2026-03-28T15:30:59.047Z</time></trkpt><trkpt lat="40.5076633" lon="15.012025"><ele>7.0</ele><time>2026-03-28T15:31:00.047Z</time></trkpt><trkpt lat="40.5078633" lon="15.0119433"><ele>7.0</ele><time>2026-03-28T15:31:01.046Z</time></trkpt><trkpt lat="40.50807" lon="15.0118683"><ele>7.0</ele><time>2026-03-28T15:31:02.047Z</time></trkpt><trkpt lat="40.5082817" lon="15.01179"><ele>7.0</ele><time>2026-03-28T15:31:03.046Z</time></trkpt><trkpt lat="40.5085033" lon="15.0117133"><ele>7.0</ele><time>2026-03-28T15:31:04.046Z</time></trkpt><trkpt lat="40.5087267" lon="15.0116367"><ele>6.0</ele><time>2026-03-28T15:31:05.046Z</time></trkpt><trkpt lat="40.508955" lon="15.0115483"><ele>5.0</ele><time>2026-03-28T15:31:06.047Z</time></trkpt><trkpt lat="40.5091867" lon="15.01146"><ele>5.0</ele><time>2026-03-28T15:31:07.046Z</time></trkpt><trkpt lat="40.5094133" lon="15.0113783"><ele>5.0</ele><time>2026-03-28T15:31:08.047Z</time></trkpt><trkpt lat="40.509645" lon="15.0112933"><ele>5.5</ele><time>2026-03-28T15:31:09.047Z</time></trkpt><trkpt lat="40.509875" lon="15.0112067"><ele>6.0</ele><time>2026-03-28T15:31:10.046Z</time></trkpt><trkpt lat="40.5101117" lon="15.011115"><ele>6.0</ele><time>2026-03-28T15:31:11.046Z</time></trkpt><trkpt lat="40.5103467" lon="15.0110317"><ele>6.0</ele><time>2026-03-28T15:31:12.047Z</time></trkpt><trkpt lat="40.5105817" lon="15.0109483"><ele>6.0</ele><time>2026-03-28T15:31:13.046Z</time></trkpt><trkpt lat="40.5108133" lon="15.0108633"><ele>6.0</ele><time>2026-03-28T15:31:14.047Z</time></trkpt><trkpt lat="40.5110467" lon="15.010775"><ele>7.5</ele><time>2026-03-28T15:31:15.046Z</time></trkpt><trkpt lat="40.511285" lon="15.0106883"><ele>9.0</ele><time>2026-03-28T15:31:16.046Z</time></trkpt><trkpt lat="40.5115217" lon="15.0106017"><ele>9.0</ele><time>2026-03-28T15:31:17.047Z</time></trkpt><trkpt lat="40.5117567" lon="15.010515"><ele>9.0</ele><time>2026-03-28T15:31:18.046Z</time></trkpt><trkpt lat="40.5119867" lon="15.0104317"><ele>9.0</ele><time>2026-03-28T15:31:19.047Z</time></trkpt><trkpt lat="40.5122167" lon="15.0103533"><ele>9.0</ele><time>2026-03-28T15:31:20.047Z</time></trkpt><trkpt lat="40.5124483" lon="15.0102733"><ele>9.0</ele><time>2026-03-28T15:31:21.046Z</time></trkpt><trkpt lat="40.512685" lon="15.0101933"><ele>9.0</ele><time>2026-03-28T15:31:22.047Z</time></trkpt><trkpt lat="40.5129233" lon="15.0101067"><ele>8.5</ele><time>2026-03-28T15:31:23.047Z</time></trkpt><trkpt lat="40.5131617" lon="15.0100217"><ele>8.0</ele><time>2026-03-28T15:31:24.046Z</time></trkpt><trkpt lat="40.5134" lon="15.00994"><ele>8.0</ele><time>2026-03-28T15:31:25.047Z</time></trkpt><trkpt lat="40.5136433" lon="15.009845"><ele>8.0</ele><time>2026-03-28T15:31:26.047Z</time></trkpt><trkpt lat="40.5138817" lon="15.00976"><ele>7.5</ele><time>2026-03-28T15:31:27.046Z</time></trkpt><trkpt lat="40.5141183" lon="15.0096733"><ele>7.0</ele><time>2026-03-28T15:31:28.047Z</time></trkpt><trkpt lat="40.5143567" lon="15.0095867"><ele>7.0</ele><time>2026-03-28T15:31:29.046Z</time></trkpt><trkpt lat="40.514595" lon="15.0095"><ele>7.0</ele><time>2026-03-28T15:31:30.046Z</time></trkpt><trkpt lat="40.5148317" lon="15.0094117"><ele>7.0</ele><time>2026-03-28T15:31:31.047Z</time></trkpt><trkpt lat="40.5150633" lon="15.00933"><ele>7.0</ele><time>2026-03-28T15:31:32.046Z</time></trkpt><trkpt lat="40.515285" lon="15.009255"><ele>7.333333333333334</ele><time>2026-03-28T15:31:33.046Z</time></trkpt><trkpt lat="40.515495" lon="15.009175"><ele>7.666666666666666</ele><time>2026-03-28T15:31:34.046Z</time></trkpt><trkpt lat="40.5157033" lon="15.0090967"><ele>8.0</ele><time>2026-03-28T15:31:35.046Z</time></trkpt><trkpt lat="40.515915" lon="15.00902"><ele>8.0</ele><time>2026-03-28T15:31:36.047Z</time></trkpt><trkpt lat="40.5161317" lon="15.0089383"><ele>8.0</ele><time>2026-03-28T15:31:37.046Z</time></trkpt><trkpt lat="40.51635" lon="15.0088583"><ele>8.333333333333332</ele><time>2026-03-28T15:31:38.046Z</time></trkpt><trkpt lat="40.51656" lon="15.0087817"><ele>8.666666666666666</ele><time>2026-03-28T15:31:39.047Z</time></trkpt><trkpt lat="40.5167683" lon="15.0086983"><ele>9.0</ele><time>2026-03-28T15:31:40.047Z</time></trkpt><trkpt lat="40.5169733" lon="15.00861"><ele>9.333333333333334</ele><time>2026-03-28T15:31:41.046Z</time></trkpt><trkpt lat="40.5171767" lon="15.008515"><ele>9.666666666666668</ele><time>2026-03-28T15:31:42.046Z</time></trkpt><trkpt lat="40.517375" lon="15.00841"><ele>10.0</ele><time>2026-03-28T15:31:43.046Z</time></trkpt><trkpt lat="40.5175733" lon="15.0082933"><ele>10.0</ele><time>2026-03-28T15:31:44.047Z</time></trkpt><trkpt lat="40.51777" lon="15.0081633"><ele>10.0</ele><time>2026-03-28T15:31:45.046Z</time></trkpt><trkpt lat="40.5179617" lon="15.008025"><ele>10.0</ele><time>2026-03-28T15:31:46.046Z</time></trkpt><trkpt lat="40.518145" lon="15.007875"><ele>11.0</ele><time>2026-03-28T15:31:47.047Z</time></trkpt><trkpt lat="40.5183183" lon="15.00772"><ele>12.0</ele><time>2026-03-28T15:31:48.047Z</time></trkpt><trkpt lat="40.5184833" lon="15.007565"><ele>13.0</ele><time>2026-03-28T15:31:49.047Z</time></trkpt><trkpt lat="40.518635" lon="15.0073983"><ele>13.666666666666666</ele><time>2026-03-28T15:31:50.046Z</time></trkpt><trkpt lat="40.5187767" lon="15.00722"><ele>14.333333333333332</ele><time>2026-03-28T15:31:51.046Z</time></trkpt><trkpt lat="40.5189067" lon="15.0070433"><ele>15.0</ele><time>2026-03-28T15:31:52.047Z</time></trkpt><trkpt lat="40.51903" lon="15.0068617"><ele>15.0</ele><time>2026-03-28T15:31:53.047Z</time></trkpt><trkpt lat="40.5191467" lon="15.006685"><ele>15.0</ele><time>2026-03-28T15:31:54.046Z</time></trkpt><trkpt lat="40.51926" lon="15.0065033"><ele>15.0</ele><time>2026-03-28T15:31:55.046Z</time></trkpt><trkpt lat="40.5193683" lon="15.00632"><ele>14.666666666666668</ele><time>2026-03-28T15:31:56.046Z</time></trkpt><trkpt lat="40.5194683" lon="15.00613"><ele>14.333333333333334</ele><time>2026-03-28T15:31:57.046Z</time></trkpt><trkpt lat="40.5195733" lon="15.00594"><ele>14.0</ele><time>2026-03-28T15:31:58.047Z</time></trkpt><trkpt lat="40.5196867" lon="15.005755"><ele>14.0</ele><time>2026-03-28T15:31:59.047Z</time></trkpt><trkpt lat="40.5198083" lon="15.0055767"><ele>14.0</ele><time>2026-03-28T15:32:00.046Z</time></trkpt><trkpt lat="40.5199367" lon="15.0054217"><ele>14.0</ele><time>2026-03-28T15:32:01.047Z</time></trkpt><trkpt lat="40.5200683" lon="15.0052767"><ele>14.0</ele><time>2026-03-28T15:32:02.047Z</time></trkpt><trkpt lat="40.52021" lon="15.005145"><ele>14.0</ele><time>2026-03-28T15:32:03.047Z</time></trkpt><trkpt lat="40.5203483" lon="15.0050267"><ele>14.0</ele><time>2026-03-28T15:32:04.046Z</time></trkpt><trkpt lat="40.520485" lon="15.0049083"><ele>15.333333333333334</ele><time>2026-03-28T15:32:05.047Z</time></trkpt><trkpt lat="40.5206267" lon="15.0047817"><ele>16.666666666666668</ele><time>2026-03-28T15:32:06.046Z</time></trkpt><trkpt lat="40.5207617" lon="15.00466"><ele>18.0</ele><time>2026-03-28T15:32:07.046Z</time></trkpt><trkpt lat="40.5208933" lon="15.0045433"><ele>18.0</ele><time>2026-03-28T15:32:08.046Z</time></trkpt><trkpt lat="40.5210217" lon="15.0044333"><ele>18.0</ele><time>2026-03-28T15:32:09.047Z</time></trkpt><trkpt lat="40.5211517" lon="15.0043217"><ele>18.0</ele><time>2026-03-28T15:32:10.047Z</time></trkpt><trkpt lat="40.52128" lon="15.0042067"><ele>17.666666666666668</ele><time>2026-03-28T15:32:11.046Z</time></trkpt><trkpt lat="40.5214117" lon="15.0040917"><ele>17.333333333333336</ele><time>2026-03-28T15:32:12.046Z</time></trkpt><trkpt lat="40.5215467" lon="15.00397"><ele>17.0</ele><time>2026-03-28T15:32:13.047Z</time></trkpt><trkpt lat="40.52168" lon="15.0038467"><ele>17.0</ele><time>2026-03-28T15:32:14.047Z</time></trkpt><trkpt lat="40.5218233" lon="15.00372"><ele>17.0</ele><time>2026-03-28T15:32:15.046Z</time></trkpt><trkpt lat="40.52197" lon="15.0035933"><ele>17.0</ele><time>2026-03-28T15:32:16.046Z</time></trkpt><trkpt lat="40.52212" lon="15.0034633"><ele>17.0</ele><time>2026-03-28T15:32:17.047Z</time></trkpt><trkpt lat="40.52227" lon="15.0033283"><ele>17.0</ele><time>2026-03-28T15:32:18.047Z</time></trkpt><trkpt lat="40.522425" lon="15.0031867"><ele>17.0</ele><time>2026-03-28T15:32:19.046Z</time></trkpt><trkpt lat="40.5225733" lon="15.0030517"><ele>17.0</ele><time>2026-03-28T15:32:20.046Z</time></trkpt><trkpt lat="40.5227167" lon="15.0029233"><ele>17.0</ele><time>2026-03-28T15:32:21.047Z</time></trkpt><trkpt lat="40.5228517" lon="15.0028"><ele>17.0</ele><time>2026-03-28T15:32:22.046Z</time></trkpt><trkpt lat="40.5229833" lon="15.0026917"><ele>17.0</ele><time>2026-03-28T15:32:23.046Z</time></trkpt><trkpt lat="40.5231067" lon="15.0025833"><ele>17.0</ele><time>2026-03-28T15:32:24.047Z</time></trkpt><trkpt lat="40.5232233" lon="15.0024833"><ele>17.0</ele><time>2026-03-28T15:32:25.046Z</time></trkpt><trkpt lat="40.5233333" lon="15.00239"><ele>17.0</ele><time>2026-03-28T15:32:26.046Z</time></trkpt><trkpt lat="40.52344" lon="15.002305"><ele>17.0</ele><time>2026-03-28T15:32:27.046Z</time></trkpt><trkpt lat="40.52354" lon="15.002235"><ele>17.0</ele><time>2026-03-28T15:32:28.046Z</time></trkpt><trkpt lat="40.5236167" lon="15.0021867"><ele>17.0</ele><time>2026-03-28T15:32:29.046Z</time></trkpt><trkpt lat="40.5237067" lon="15.0021317"><ele>17.0</ele><time>2026-03-28T15:32:31.047Z</time></trkpt><trkpt lat="40.5238233" lon="15.0020767"><ele>17.0</ele><time>2026-03-28T15:32:33.047Z</time></trkpt><trkpt lat="40.5239083" lon="15.0020333"><ele>17.0</ele><time>2026-03-28T15:32:34.046Z</time></trkpt><trkpt lat="40.5239983" lon="15.0019617"><ele>17.0</ele><time>2026-03-28T15:32:35.046Z</time></trkpt><trkpt lat="40.5240867" lon="15.0018633"><ele>17.0</ele><time>2026-03-28T15:32:36.046Z</time></trkpt><trkpt lat="40.5241783" lon="15.0017433"><ele>17.0</ele><time>2026-03-28T15:32:37.046Z</time></trkpt><trkpt lat="40.5242767" lon="15.00161"><ele>17.25</ele><time>2026-03-28T15:32:38.047Z</time></trkpt><trkpt lat="40.52439" lon="15.0014883"><ele>17.5</ele><time>2026-03-28T15:32:39.046Z</time></trkpt><trkpt lat="40.52451" lon="15.0013767"><ele>17.75</ele><time>2026-03-28T15:32:40.047Z</time></trkpt><trkpt lat="40.524635" lon="15.0012767"><ele>18.0</ele><time>2026-03-28T15:32:41.046Z</time></trkpt><trkpt lat="40.52476" lon="15.001165"><ele>16.666666666666668</ele><time>2026-03-28T15:32:42.047Z</time></trkpt><trkpt lat="40.5248783" lon="15.001045"><ele>15.333333333333334</ele><time>2026-03-28T15:32:43.047Z</time></trkpt><trkpt lat="40.5250033" lon="15.0009267"><ele>14.0</ele><time>2026-03-28T15:32:44.047Z</time></trkpt><trkpt lat="40.5251283" lon="15.0008"><ele>13.666666666666668</ele><time>2026-03-28T15:32:45.047Z</time></trkpt><trkpt lat="40.5252817" lon="15.0006767"><ele>13.333333333333332</ele><time>2026-03-28T15:32:46.046Z</time></trkpt><trkpt lat="40.5254417" lon="15.0005483"><ele>13.0</ele><time>2026-03-28T15:32:47.047Z</time></trkpt><trkpt lat="40.5256117" lon="15.0004117"><ele>12.333333333333332</ele><time>2026-03-28T15:32:48.046Z</time></trkpt><trkpt lat="40.5257917" lon="15.0002733"><ele>11.666666666666666</ele><time>2026-03-28T15:32:49.047Z</time></trkpt><trkpt lat="40.52597" lon="15.0001133"><ele>11.0</ele><time>2026-03-28T15:32:50.046Z</time></trkpt><trkpt lat="40.5261567" lon="14.9999483"><ele>9.5</ele><time>2026-03-28T15:32:51.047Z</time></trkpt><trkpt lat="40.5263467" lon="14.9997633"><ele>8.0</ele><time>2026-03-28T15:32:52.046Z</time></trkpt><trkpt lat="40.52655" lon="14.9995767"><ele>8.0</ele><time>2026-03-28T15:32:53.046Z</time></trkpt><trkpt lat="40.52677" lon="14.9993767"><ele>8.0</ele><time>2026-03-28T15:32:54.047Z</time></trkpt><trkpt lat="40.5270033" lon="14.9991767"><ele>10.0</ele><time>2026-03-28T15:32:55.046Z</time></trkpt><trkpt lat="40.5272383" lon="14.9989783"><ele>12.0</ele><time>2026-03-28T15:32:56.046Z</time></trkpt><trkpt lat="40.52747" lon="14.9987833"><ele>12.0</ele><time>2026-03-28T15:32:57.047Z</time></trkpt><trkpt lat="40.5277" lon="14.9985867"><ele>12.0</ele><time>2026-03-28T15:32:58.047Z</time></trkpt><trkpt lat="40.527925" lon="14.99839"><ele>13.0</ele><time>2026-03-28T15:32:59.047Z</time></trkpt><trkpt lat="40.528155" lon="14.9981917"><ele>14.0</ele><time>2026-03-28T15:33:00.046Z</time></trkpt><trkpt lat="40.52838" lon="14.997995"><ele>14.0</ele><time>2026-03-28T15:33:01.046Z</time></trkpt><trkpt lat="40.5286067" lon="14.9977933"><ele>14.0</ele><time>2026-03-28T15:33:02.047Z</time></trkpt><trkpt lat="40.5288317" lon="14.9975967"><ele>14.5</ele><time>2026-03-28T15:33:03.046Z</time></trkpt><trkpt lat="40.5290567" lon="14.997395"><ele>15.0</ele><time>2026-03-28T15:33:04.046Z</time></trkpt><trkpt lat="40.5292817" lon="14.9971983"><ele>15.0</ele><time>2026-03-28T15:33:05.047Z</time></trkpt><trkpt lat="40.529505" lon="14.9970067"><ele>15.0</ele><time>2026-03-28T15:33:06.047Z</time></trkpt><trkpt lat="40.5297217" lon="14.9968183"><ele>16.5</ele><time>2026-03-28T15:33:07.047Z</time></trkpt><trkpt lat="40.52992" lon="14.9966433"><ele>18.0</ele><time>2026-03-28T15:33:08.047Z</time></trkpt><trkpt lat="40.530105" lon="14.9964733"><ele>18.0</ele><time>2026-03-28T15:33:09.047Z</time></trkpt><trkpt lat="40.5302783" lon="14.9963183"><ele>18.0</ele><time>2026-03-28T15:33:10.047Z</time></trkpt><trkpt lat="40.5304467" lon="14.9961733"><ele>18.0</ele><time>2026-03-28T15:33:11.047Z</time></trkpt><trkpt lat="40.5306117" lon="14.996025"><ele>18.666666666666668</ele><time>2026-03-28T15:33:12.046Z</time></trkpt><trkpt lat="40.530785" lon="14.9958683"><ele>19.333333333333336</ele><time>2026-03-28T15:33:13.047Z</time></trkpt><trkpt lat="40.5309633" lon="14.9957067"><ele>20.0</ele><time>2026-03-28T15:33:14.047Z</time></trkpt><trkpt lat="40.531155" lon="14.9955417"><ele>19.5</ele><time>2026-03-28T15:33:15.046Z</time></trkpt><trkpt lat="40.53135" lon="14.99538"><ele>19.0</ele><time>2026-03-28T15:33:16.047Z</time></trkpt><trkpt lat="40.5315483" lon="14.9952183"><ele>19.0</ele><time>2026-03-28T15:33:17.046Z</time></trkpt><trkpt lat="40.53175" lon="14.9950483"><ele>19.0</ele><time>2026-03-28T15:33:18.047Z</time></trkpt><trkpt lat="40.5319583" lon="14.9948717"><ele>20.0</ele><time>2026-03-28T15:33:19.047Z</time></trkpt><trkpt lat="40.5321717" lon="14.9946833"><ele>21.0</ele><time>2026-03-28T15:33:20.047Z</time></trkpt><trkpt lat="40.532395" lon="14.99449"><ele>21.0</ele><time>2026-03-28T15:33:21.047Z</time></trkpt><trkpt lat="40.53262" lon="14.9942917"><ele>21.0</ele><time>2026-03-28T15:33:22.046Z</time></trkpt><trkpt lat="40.5328417" lon="14.9941"><ele>20.5</ele><time>2026-03-28T15:33:23.047Z</time></trkpt><trkpt lat="40.53307" lon="14.9939033"><ele>20.0</ele><time>2026-03-28T15:33:24.047Z</time></trkpt><trkpt lat="40.5333" lon="14.9937033"><ele>20.0</ele><time>2026-03-28T15:33:25.047Z</time></trkpt><trkpt lat="40.5335283" lon="14.9934983"><ele>20.0</ele><time>2026-03-28T15:33:26.046Z</time></trkpt><trkpt lat="40.53376" lon="14.9932983"><ele>20.5</ele><time>2026-03-28T15:33:27.046Z</time></trkpt><trkpt lat="40.5339967" lon="14.9930983"><ele>21.0</ele><time>2026-03-28T15:33:28.046Z</time></trkpt><trkpt lat="40.5342333" lon="14.9928867"><ele>21.0</ele><time>2026-03-28T15:33:29.047Z</time></trkpt><trkpt lat="40.5344667" lon="14.9926817"><ele>21.0</ele><time>2026-03-28T15:33:30.046Z</time></trkpt><trkpt lat="40.5346967" lon="14.992485"><ele>22.5</ele><time>2026-03-28T15:33:31.046Z</time></trkpt><trkpt lat="40.53492" lon="14.9922933"><ele>24.0</ele><time>2026-03-28T15:33:32.046Z</time></trkpt><trkpt lat="40.5351283" lon="14.9921117"><ele>24.0</ele><time>2026-03-28T15:33:33.047Z</time></trkpt><trkpt lat="40.5353383" lon="14.991935"><ele>24.0</ele><time>2026-03-28T15:33:34.046Z</time></trkpt><trkpt lat="40.5355583" lon="14.9917633"><ele>23.5</ele><time>2026-03-28T15:33:35.046Z</time></trkpt><trkpt lat="40.535775" lon="14.9916067"><ele>23.0</ele><time>2026-03-28T15:33:36.047Z</time></trkpt><trkpt lat="40.5360017" lon="14.99146"><ele>23.0</ele><time>2026-03-28T15:33:37.046Z</time></trkpt><trkpt lat="40.536225" lon="14.9913217"><ele>23.0</ele><time>2026-03-28T15:33:38.047Z</time></trkpt><trkpt lat="40.5364367" lon="14.9912033"><ele>23.0</ele><time>2026-03-28T15:33:39.046Z</time></trkpt><trkpt lat="40.5366433" lon="14.9911017"><ele>23.0</ele><time>2026-03-28T15:33:40.046Z</time></trkpt><trkpt lat="40.5368533" lon="14.9910183"><ele>23.0</ele><time>2026-03-28T15:33:41.046Z</time></trkpt><trkpt lat="40.5370683" lon="14.9909433"><ele>23.5</ele><time>2026-03-28T15:33:42.046Z</time></trkpt><trkpt lat="40.53729" lon="14.990885"><ele>24.0</ele><time>2026-03-28T15:33:43.047Z</time></trkpt><trkpt lat="40.5375267" lon="14.9908317"><ele>24.0</ele><time>2026-03-28T15:33:44.047Z</time></trkpt><trkpt lat="40.537775" lon="14.9907917"><ele>24.0</ele><time>2026-03-28T15:33:45.047Z</time></trkpt><trkpt lat="40.5380333" lon="14.990755"><ele>24.5</ele><time>2026-03-28T15:33:46.047Z</time></trkpt><trkpt lat="40.5382967" lon="14.9907183"><ele>25.0</ele><time>2026-03-28T15:33:47.046Z</time></trkpt><trkpt lat="40.5385567" lon="14.990685"><ele>24.5</ele><time>2026-03-28T15:33:48.046Z</time></trkpt><trkpt lat="40.5388217" lon="14.9906483"><ele>24.0</ele><time>2026-03-28T15:33:49.046Z</time></trkpt><trkpt lat="40.5390867" lon="14.9906117"><ele>24.0</ele><time>2026-03-28T15:33:50.046Z</time></trkpt><trkpt lat="40.5393583" lon="14.9905767"><ele>24.0</ele><time>2026-03-28T15:33:51.047Z</time></trkpt><trkpt lat="40.53963" lon="14.9905383"><ele>23.0</ele><time>2026-03-28T15:33:52.046Z</time></trkpt><trkpt lat="40.5399083" lon="14.9904983"><ele>22.0</ele><time>2026-03-28T15:33:53.046Z</time></trkpt><trkpt lat="40.540185" lon="14.9904633"><ele>23.5</ele><time>2026-03-28T15:33:54.046Z</time></trkpt><trkpt lat="40.540465" lon="14.9904233"><ele>25.0</ele><time>2026-03-28T15:33:55.046Z</time></trkpt><trkpt lat="40.5407467" lon="14.990385"><ele>25.0</ele><time>2026-03-28T15:33:56.047Z</time></trkpt><trkpt lat="40.5410233" lon="14.9903433"><ele>25.0</ele><time>2026-03-28T15:33:57.046Z</time></trkpt><trkpt lat="40.5412967" lon="14.9903033"><ele>25.0</ele><time>2026-03-28T15:33:58.047Z</time></trkpt><trkpt lat="40.5415667" lon="14.990265"><ele>25.0</ele><time>2026-03-28T15:33:59.046Z</time></trkpt><trkpt lat="40.5418333" lon="14.9902267"><ele>26.0</ele><time>2026-03-28T15:34:00.047Z</time></trkpt><trkpt lat="40.5421033" lon="14.9901833"><ele>27.0</ele><time>2026-03-28T15:34:01.047Z</time></trkpt><trkpt lat="40.5423733" lon="14.9901417"><ele>27.0</ele><time>2026-03-28T15:34:02.046Z</time></trkpt><trkpt lat="40.5426433" lon="14.990105"><ele>27.0</ele><time>2026-03-28T15:34:03.046Z</time></trkpt><trkpt lat="40.542915" lon="14.9900717"><ele>27.0</ele><time>2026-03-28T15:34:04.047Z</time></trkpt><trkpt lat="40.5431817" lon="14.99004"><ele>27.0</ele><time>2026-03-28T15:34:05.047Z</time></trkpt><trkpt lat="40.5434283" lon="14.9900067"><ele>27.0</ele><time>2026-03-28T15:34:06.047Z</time></trkpt><trkpt lat="40.5436483" lon="14.98997"><ele>27.0</ele><time>2026-03-28T15:34:07.046Z</time></trkpt><trkpt lat="40.5438417" lon="14.9899383"><ele>27.0</ele><time>2026-03-28T15:34:08.047Z</time></trkpt><trkpt lat="40.5440117" lon="14.989915"><ele>27.333333333333336</ele><time>2026-03-28T15:34:09.046Z</time></trkpt><trkpt lat="40.5441717" lon="14.9898883"><ele>27.666666666666668</ele><time>2026-03-28T15:34:10.046Z</time></trkpt><trkpt lat="40.54432" lon="14.9898617"><ele>28.0</ele><time>2026-03-28T15:34:11.046Z</time></trkpt><trkpt lat="40.5444667" lon="14.989835"><ele>28.0</ele><time>2026-03-28T15:34:12.047Z</time></trkpt><trkpt lat="40.5446217" lon="14.9898133"><ele>28.0</ele><time>2026-03-28T15:34:13.047Z</time></trkpt><trkpt lat="40.5447833" lon="14.9897917"><ele>28.0</ele><time>2026-03-28T15:34:14.047Z</time></trkpt><trkpt lat="40.54495" lon="14.9897733"><ele>28.0</ele><time>2026-03-28T15:34:15.047Z</time></trkpt><trkpt lat="40.5451267" lon="14.9897517"><ele>28.0</ele><time>2026-03-28T15:34:16.046Z</time></trkpt><trkpt lat="40.5453067" lon="14.9897317"><ele>28.0</ele><time>2026-03-28T15:34:17.046Z</time></trkpt><trkpt lat="40.5454933" lon="14.9897117"><ele>28.0</ele><time>2026-03-28T15:34:18.047Z</time></trkpt><trkpt lat="40.54568" lon="14.9896933"><ele>28.0</ele><time>2026-03-28T15:34:19.047Z</time></trkpt><trkpt lat="40.5458567" lon="14.98967"><ele>28.0</ele><time>2026-03-28T15:34:20.046Z</time></trkpt><trkpt lat="40.5460233" lon="14.9896517"><ele>28.0</ele><time>2026-03-28T15:34:21.046Z</time></trkpt><trkpt lat="40.54617" lon="14.9896333"><ele>28.0</ele><time>2026-03-28T15:34:22.047Z</time></trkpt><trkpt lat="40.54631" lon="14.9896133"><ele>28.0</ele><time>2026-03-28T15:34:23.046Z</time></trkpt><trkpt lat="40.5464533" lon="14.9895817"><ele>28.0</ele><time>2026-03-28T15:34:24.047Z</time></trkpt><trkpt lat="40.546605" lon="14.9895583"><ele>28.0</ele><time>2026-03-28T15:34:25.046Z</time></trkpt><trkpt lat="40.5467567" lon="14.9895467"><ele>28.0</ele><time>2026-03-28T15:34:26.047Z</time></trkpt><trkpt lat="40.5469217" lon="14.9895217"><ele>28.0</ele><time>2026-03-28T15:34:27.047Z</time></trkpt><trkpt lat="40.5470833" lon="14.98951"><ele>28.0</ele><time>2026-03-28T15:34:28.046Z</time></trkpt><trkpt lat="40.5472367" lon="14.9894883"><ele>28.0</ele><time>2026-03-28T15:34:29.046Z</time></trkpt><trkpt lat="40.5473817" lon="14.98947"><ele>28.0</ele><time>2026-03-28T15:34:30.046Z</time></trkpt><trkpt lat="40.5475317" lon="14.9894517"><ele>28.0</ele><time>2026-03-28T15:34:31.047Z</time></trkpt><trkpt lat="40.5476783" lon="14.9894367"><ele>28.0</ele><time>2026-03-28T15:34:32.046Z</time></trkpt><trkpt lat="40.5478133" lon="14.9894233"><ele>28.0</ele><time>2026-03-28T15:34:33.047Z</time></trkpt><trkpt lat="40.5479433" lon="14.9894133"><ele>28.0</ele><time>2026-03-28T15:34:34.047Z</time></trkpt><trkpt lat="40.5480633" lon="14.9893933"><ele>28.0</ele><time>2026-03-28T15:34:35.046Z</time></trkpt><trkpt lat="40.5481633" lon="14.9893667"><ele>27.999999999999996</ele><time>2026-03-28T15:34:36.046Z</time></trkpt><trkpt lat="40.5482417" lon="14.98933"><ele>27.999999999999996</ele><time>2026-03-28T15:34:37.046Z</time></trkpt><trkpt lat="40.548305" lon="14.9892883"><ele>28.0</ele><time>2026-03-28T15:34:38.046Z</time></trkpt><trkpt lat="40.5484" lon="14.9891967"><ele>28.0</ele><time>2026-03-28T15:34:40.047Z</time></trkpt><trkpt lat="40.54849" lon="14.989125"><ele>28.000000000000004</ele><time>2026-03-28T15:34:42.046Z</time></trkpt><trkpt lat="40.5485533" lon="14.989095"><ele>28.0</ele><time>2026-03-28T15:34:43.046Z</time></trkpt><trkpt lat="40.548635" lon="14.98907"><ele>28.0</ele><time>2026-03-28T15:34:44.047Z</time></trkpt><trkpt lat="40.5487233" lon="14.98905"><ele>28.0</ele><time>2026-03-28T15:34:45.046Z</time></trkpt><trkpt lat="40.548815" lon="14.9890483"><ele>28.000000000000004</ele><time>2026-03-28T15:34:46.046Z</time></trkpt><trkpt lat="40.548905" lon="14.9890583"><ele>28.0</ele><time>2026-03-28T15:34:47.046Z</time></trkpt><trkpt lat="40.5489933" lon="14.9890883"><ele>28.333333333333336</ele><time>2026-03-28T15:34:48.047Z</time></trkpt><trkpt lat="40.54907" lon="14.9891267"><ele>28.666666666666668</ele><time>2026-03-28T15:34:49.047Z</time></trkpt><trkpt lat="40.549145" lon="14.98917"><ele>29.0</ele><time>2026-03-28T15:34:50.047Z</time></trkpt><trkpt lat="40.5492283" lon="14.9891967"><ele>29.333333333333336</ele><time>2026-03-28T15:34:51.047Z</time></trkpt><trkpt lat="40.5493083" lon="14.9892033"><ele>29.666666666666668</ele><time>2026-03-28T15:34:52.047Z</time></trkpt><trkpt lat="40.5493883" lon="14.989195"><ele>30.0</ele><time>2026-03-28T15:34:53.046Z</time></trkpt><trkpt lat="40.5494617" lon="14.98918"><ele>30.0</ele><time>2026-03-28T15:34:54.047Z</time></trkpt><trkpt lat="40.54953" lon="14.9891683"><ele>30.0</ele><time>2026-03-28T15:34:55.047Z</time></trkpt><trkpt lat="40.5495967" lon="14.989155"><ele>30.0</ele><time>2026-03-28T15:34:56.046Z</time></trkpt><trkpt lat="40.5496617" lon="14.989145"><ele>30.0</ele><time>2026-03-28T15:34:57.047Z</time></trkpt><trkpt lat="40.5497367" lon="14.9891333"><ele>30.0</ele><time>2026-03-28T15:34:58.047Z</time></trkpt><trkpt lat="40.54982" lon="14.98912"><ele>30.0</ele><time>2026-03-28T15:34:59.047Z</time></trkpt><trkpt lat="40.54991" lon="14.989115"><ele>29.75</ele><time>2026-03-28T15:35:00.047Z</time></trkpt><trkpt lat="40.5500167" lon="14.9891017"><ele>29.5</ele><time>2026-03-28T15:35:01.046Z</time></trkpt><trkpt lat="40.5501283" lon="14.9890867"><ele>29.25</ele><time>2026-03-28T15:35:02.047Z</time></trkpt><trkpt lat="40.55024" lon="14.98907"><ele>29.0</ele><time>2026-03-28T15:35:03.046Z</time></trkpt><trkpt lat="40.5503617" lon="14.9890533"><ele>28.5</ele><time>2026-03-28T15:35:04.047Z</time></trkpt><trkpt lat="40.5504883" lon="14.9890383"><ele>28.0</ele><time>2026-03-28T15:35:05.046Z</time></trkpt><trkpt lat="40.5506167" lon="14.989025"><ele>27.5</ele><time>2026-03-28T15:35:06.046Z</time></trkpt><trkpt lat="40.5507517" lon="14.9890033"><ele>27.0</ele><time>2026-03-28T15:35:07.047Z</time></trkpt><trkpt lat="40.550885" lon="14.9889883"><ele>27.0</ele><time>2026-03-28T15:35:08.046Z</time></trkpt><trkpt lat="40.551025" lon="14.988975"><ele>27.0</ele><time>2026-03-28T15:35:09.046Z</time></trkpt><trkpt lat="40.5511683" lon="14.9889567"><ele>27.0</ele><time>2026-03-28T15:35:10.046Z</time></trkpt><trkpt lat="40.5513117" lon="14.988935"><ele>27.0</ele><time>2026-03-28T15:35:11.046Z</time></trkpt><trkpt lat="40.5514633" lon="14.9889133"><ele>26.333333333333336</ele><time>2026-03-28T15:35:12.046Z</time></trkpt><trkpt lat="40.55162" lon="14.98889"><ele>25.666666666666668</ele><time>2026-03-28T15:35:13.047Z</time></trkpt><trkpt lat="40.5517833" lon="14.98886"><ele>25.0</ele><time>2026-03-28T15:35:14.046Z</time></trkpt><trkpt lat="40.551945" lon="14.988835"><ele>24.0</ele><time>2026-03-28T15:35:15.046Z</time></trkpt><trkpt lat="40.552105" lon="14.9888083"><ele>23.0</ele><time>2026-03-28T15:35:16.046Z</time></trkpt><trkpt lat="40.5522683" lon="14.9887833"><ele>22.0</ele><time>2026-03-28T15:35:17.047Z</time></trkpt><trkpt lat="40.552435" lon="14.98876"><ele>22.0</ele><time>2026-03-28T15:35:18.046Z</time></trkpt><trkpt lat="40.5526" lon="14.9887433"><ele>22.0</ele><time>2026-03-28T15:35:19.047Z</time></trkpt><trkpt lat="40.5527717" lon="14.9887267"><ele>22.0</ele><time>2026-03-28T15:35:20.047Z</time></trkpt><trkpt lat="40.5529383" lon="14.9887033"><ele>22.333333333333332</ele><time>2026-03-28T15:35:21.046Z</time></trkpt><trkpt lat="40.55311" lon="14.9886817"><ele>22.666666666666668</ele><time>2026-03-28T15:35:22.046Z</time></trkpt><trkpt lat="40.55328" lon="14.988655"><ele>23.0</ele><time>2026-03-28T15:35:23.046Z</time></trkpt><trkpt lat="40.5534517" lon="14.9886283"><ele>23.0</ele><time>2026-03-28T15:35:24.047Z</time></trkpt><trkpt lat="40.5536233" lon="14.9886017"><ele>23.0</ele><time>2026-03-28T15:35:25.046Z</time></trkpt><trkpt lat="40.5537933" lon="14.988575"><ele>23.0</ele><time>2026-03-28T15:35:26.046Z</time></trkpt><trkpt lat="40.5539717" lon="14.9885467"><ele>23.0</ele><time>2026-03-28T15:35:27.046Z</time></trkpt><trkpt lat="40.5541667" lon="14.9885083"><ele>23.0</ele><time>2026-03-28T15:35:28.046Z</time></trkpt><trkpt lat="40.5543667" lon="14.988485"><ele>23.0</ele><time>2026-03-28T15:35:29.046Z</time></trkpt><trkpt lat="40.554585" lon="14.9884583"><ele>23.0</ele><time>2026-03-28T15:35:30.047Z</time></trkpt><trkpt lat="40.554825" lon="14.988425"><ele>23.0</ele><time>2026-03-28T15:35:31.046Z</time></trkpt><trkpt lat="40.55508" lon="14.9884017"><ele>23.0</ele><time>2026-03-28T15:35:32.047Z</time></trkpt><trkpt lat="40.555345" lon="14.9883717"><ele>23.0</ele><time>2026-03-28T15:35:33.046Z</time></trkpt><trkpt lat="40.5556183" lon="14.98833"><ele>21.5</ele><time>2026-03-28T15:35:34.046Z</time></trkpt><trkpt lat="40.5558933" lon="14.9882917"><ele>20.0</ele><time>2026-03-28T15:35:35.046Z</time></trkpt><trkpt lat="40.5561767" lon="14.9882483"><ele>19.5</ele><time>2026-03-28T15:35:36.047Z</time></trkpt><trkpt lat="40.5564667" lon="14.988205"><ele>19.0</ele><time>2026-03-28T15:35:37.047Z</time></trkpt><trkpt lat="40.5567383" lon="14.9881683"><ele>19.0</ele><time>2026-03-28T15:35:38.047Z</time></trkpt><trkpt lat="40.557005" lon="14.9881283"><ele>19.0</ele><time>2026-03-28T15:35:39.046Z</time></trkpt><trkpt lat="40.5572633" lon="14.9880933"><ele>19.5</ele><time>2026-03-28T15:35:40.047Z</time></trkpt><trkpt lat="40.5575133" lon="14.988065"><ele>20.0</ele><time>2026-03-28T15:35:41.047Z</time></trkpt><trkpt lat="40.5577633" lon="14.98803"><ele>21.0</ele><time>2026-03-28T15:35:42.046Z</time></trkpt><trkpt lat="40.5580133" lon="14.987995"><ele>22.0</ele><time>2026-03-28T15:35:43.047Z</time></trkpt><trkpt lat="40.5582517" lon="14.9879717"><ele>22.0</ele><time>2026-03-28T15:35:44.046Z</time></trkpt><trkpt lat="40.5584817" lon="14.9879417"><ele>22.0</ele><time>2026-03-28T15:35:45.046Z</time></trkpt><trkpt lat="40.558705" lon="14.9879183"><ele>23.0</ele><time>2026-03-28T15:35:46.047Z</time></trkpt><trkpt lat="40.5589283" lon="14.9878767"><ele>24.0</ele><time>2026-03-28T15:35:47.047Z</time></trkpt><trkpt lat="40.5591483" lon="14.9878433"><ele>25.0</ele><time>2026-03-28T15:35:48.046Z</time></trkpt><trkpt lat="40.5593583" lon="14.9878167"><ele>25.0</ele><time>2026-03-28T15:35:49.046Z</time></trkpt><trkpt lat="40.5595683" lon="14.9877883"><ele>25.0</ele><time>2026-03-28T15:35:50.046Z</time></trkpt><trkpt lat="40.5597767" lon="14.9877583"><ele>25.0</ele><time>2026-03-28T15:35:51.047Z</time></trkpt><trkpt lat="40.5599717" lon="14.98773"><ele>25.0</ele><time>2026-03-28T15:35:52.047Z</time></trkpt><trkpt lat="40.5601517" lon="14.98771"><ele>25.0</ele><time>2026-03-28T15:35:53.047Z</time></trkpt><trkpt lat="40.56033" lon="14.9876883"><ele>25.0</ele><time>2026-03-28T15:35:54.047Z</time></trkpt><trkpt lat="40.5605" lon="14.9876667"><ele>25.0</ele><time>2026-03-28T15:35:55.048Z</time></trkpt><trkpt lat="40.5606717" lon="14.987645"><ele>25.0</ele><time>2026-03-28T15:35:56.047Z</time></trkpt><trkpt lat="40.5608283" lon="14.98762"><ele>25.0</ele><time>2026-03-28T15:35:57.047Z</time></trkpt><trkpt lat="40.560975" lon="14.9876017"><ele>25.0</ele><time>2026-03-28T15:35:58.048Z</time></trkpt><trkpt lat="40.5611083" lon="14.9875833"><ele>25.0</ele><time>2026-03-28T15:35:59.048Z</time></trkpt><trkpt lat="40.5612183" lon="14.9875683"><ele>25.0</ele><time>2026-03-28T15:36:00.047Z</time></trkpt><trkpt lat="40.5613117" lon="14.9875583"><ele>25.0</ele><time>2026-03-28T15:36:01.048Z</time></trkpt><trkpt lat="40.56138" lon="14.9875533"><ele>25.0</ele><time>2026-03-28T15:36:02.047Z</time></trkpt><trkpt lat="40.561495" lon="14.9875767"><ele>25.000000000000004</ele><time>2026-03-28T15:36:04.047Z</time></trkpt><trkpt lat="40.5615567" lon="14.9876033"><ele>25.0</ele><time>2026-03-28T15:36:05.047Z</time></trkpt><trkpt lat="40.561625" lon="14.98763"><ele>25.0</ele><time>2026-03-28T15:36:06.048Z</time></trkpt><trkpt lat="40.5617017" lon="14.9876333"><ele>25.0</ele><time>2026-03-28T15:36:07.048Z</time></trkpt><trkpt lat="40.561775" lon="14.987615"><ele>25.000000000000004</ele><time>2026-03-28T15:36:08.047Z</time></trkpt><trkpt lat="40.561855" lon="14.9875717"><ele>25.0</ele><time>2026-03-28T15:36:09.047Z</time></trkpt><trkpt lat="40.56193" lon="14.9875133"><ele>25.0</ele><time>2026-03-28T15:36:10.048Z</time></trkpt><trkpt lat="40.5620067" lon="14.9874633"><ele>25.0</ele><time>2026-03-28T15:36:11.047Z</time></trkpt><trkpt lat="40.5620917" lon="14.987425"><ele>25.0</ele><time>2026-03-28T15:36:12.047Z</time></trkpt><trkpt lat="40.5621917" lon="14.9873967"><ele>25.0</ele><time>2026-03-28T15:36:13.047Z</time></trkpt><trkpt lat="40.5623033" lon="14.9873767"><ele>25.0</ele><time>2026-03-28T15:36:14.048Z</time></trkpt><trkpt lat="40.56242" lon="14.98736"><ele>25.5</ele><time>2026-03-28T15:36:15.047Z</time></trkpt><trkpt lat="40.5625483" lon="14.98735"><ele>26.0</ele><time>2026-03-28T15:36:16.048Z</time></trkpt><trkpt lat="40.562685" lon="14.9873517"><ele>26.5</ele><time>2026-03-28T15:36:17.047Z</time></trkpt><trkpt lat="40.5628083" lon="14.98736"><ele>27.0</ele><time>2026-03-28T15:36:18.048Z</time></trkpt><trkpt lat="40.5629217" lon="14.987375"><ele>27.25</ele><time>2026-03-28T15:36:19.047Z</time></trkpt><trkpt lat="40.5630367" lon="14.98738"><ele>27.5</ele><time>2026-03-28T15:36:20.047Z</time></trkpt><trkpt lat="40.5631517" lon="14.9873583"><ele>27.75</ele><time>2026-03-28T15:36:21.047Z</time></trkpt><trkpt lat="40.5632767" lon="14.9873133"><ele>28.0</ele><time>2026-03-28T15:36:22.048Z</time></trkpt><trkpt lat="40.5634083" lon="14.9872633"><ele>28.0</ele><time>2026-03-28T15:36:23.047Z</time></trkpt><trkpt lat="40.5635517" lon="14.987225"><ele>28.0</ele><time>2026-03-28T15:36:24.047Z</time></trkpt><trkpt lat="40.5637167" lon="14.9871933"><ele>28.0</ele><time>2026-03-28T15:36:25.047Z</time></trkpt><trkpt lat="40.5638817" lon="14.987175"><ele>28.0</ele><time>2026-03-28T15:36:26.048Z</time></trkpt><trkpt lat="40.5640667" lon="14.9871633"><ele>28.0</ele><time>2026-03-28T15:36:27.047Z</time></trkpt><trkpt lat="40.5642633" lon="14.98715"><ele>28.0</ele><time>2026-03-28T15:36:28.047Z</time></trkpt><trkpt lat="40.5644667" lon="14.987135"><ele>28.333333333333336</ele><time>2026-03-28T15:36:29.047Z</time></trkpt><trkpt lat="40.5646783" lon="14.9871117"><ele>28.666666666666664</ele><time>2026-03-28T15:36:30.047Z</time></trkpt><trkpt lat="40.564895" lon="14.9870833"><ele>29.0</ele><time>2026-03-28T15:36:31.048Z</time></trkpt><trkpt lat="40.5651183" lon="14.9870567"><ele>29.0</ele><time>2026-03-28T15:36:32.047Z</time></trkpt><trkpt lat="40.565345" lon="14.9870283"><ele>29.0</ele><time>2026-03-28T15:36:33.047Z</time></trkpt><trkpt lat="40.5655717" lon="14.9870017"><ele>29.0</ele><time>2026-03-28T15:36:34.048Z</time></trkpt><trkpt lat="40.56579" lon="14.9869717"><ele>29.0</ele><time>2026-03-28T15:36:35.048Z</time></trkpt><trkpt lat="40.5660067" lon="14.9869417"><ele>29.0</ele><time>2026-03-28T15:36:36.048Z</time></trkpt><trkpt lat="40.5662217" lon="14.9869167"><ele>29.0</ele><time>2026-03-28T15:36:37.047Z</time></trkpt><trkpt lat="40.56643" lon="14.9868917"><ele>29.0</ele><time>2026-03-28T15:36:38.047Z</time></trkpt><trkpt lat="40.566635" lon="14.9868717"><ele>29.0</ele><time>2026-03-28T15:36:39.047Z</time></trkpt><trkpt lat="40.5668317" lon="14.9868467"><ele>29.0</ele><time>2026-03-28T15:36:40.047Z</time></trkpt><trkpt lat="40.5670117" lon="14.98682"><ele>29.0</ele><time>2026-03-28T15:36:41.048Z</time></trkpt><trkpt lat="40.5671817" lon="14.9868"><ele>29.0</ele><time>2026-03-28T15:36:42.047Z</time></trkpt><trkpt lat="40.56733" lon="14.9867833"><ele>29.4</ele><time>2026-03-28T15:36:43.047Z</time></trkpt><trkpt lat="40.5674617" lon="14.98677"><ele>29.799999999999997</ele><time>2026-03-28T15:36:44.048Z</time></trkpt><trkpt lat="40.5675767" lon="14.9867617"><ele>30.200000000000003</ele><time>2026-03-28T15:36:45.047Z</time></trkpt><trkpt lat="40.5676767" lon="14.9867767"><ele>30.6</ele><time>2026-03-28T15:36:46.047Z</time></trkpt><trkpt lat="40.5677667" lon="14.9868133"><ele>31.0</ele><time>2026-03-28T15:36:47.047Z</time></trkpt><trkpt lat="40.5678383" lon="14.9868667"><ele>31.0</ele><time>2026-03-28T15:36:48.048Z</time></trkpt><trkpt lat="40.5678983" lon="14.9869183"><ele>31.0</ele><time>2026-03-28T15:36:49.047Z</time></trkpt><trkpt lat="40.568" lon="14.9869467"><ele>31.0</ele><time>2026-03-28T15:36:51.047Z</time></trkpt><trkpt lat="40.5680983" lon="14.9868717"><ele>31.0</ele><time>2026-03-28T15:36:53.048Z</time></trkpt><trkpt lat="40.56815" lon="14.9868"><ele>31.0</ele><time>2026-03-28T15:36:54.047Z</time></trkpt><trkpt lat="40.56821" lon="14.98672"><ele>30.8</ele><time>2026-03-28T15:36:55.047Z</time></trkpt><trkpt lat="40.5682833" lon="14.9866483"><ele>30.6</ele><time>2026-03-28T15:36:56.048Z</time></trkpt><trkpt lat="40.5683617" lon="14.986595"><ele>30.4</ele><time>2026-03-28T15:36:57.048Z</time></trkpt><trkpt lat="40.5684583" lon="14.9865583"><ele>30.2</ele><time>2026-03-28T15:36:58.047Z</time></trkpt><trkpt lat="40.568575" lon="14.98653"><ele>30.0</ele><time>2026-03-28T15:36:59.048Z</time></trkpt><trkpt lat="40.568715" lon="14.9865117"><ele>31.0</ele><time>2026-03-28T15:37:00.047Z</time></trkpt><trkpt lat="40.56887" lon="14.9864983"><ele>32.0</ele><time>2026-03-28T15:37:01.047Z</time></trkpt><trkpt lat="40.5690317" lon="14.98648"><ele>33.0</ele><time>2026-03-28T15:37:02.048Z</time></trkpt><trkpt lat="40.5691917" lon="14.9864567"><ele>33.0</ele><time>2026-03-28T15:37:03.048Z</time></trkpt><trkpt lat="40.5693433" lon="14.986435"><ele>33.0</ele><time>2026-03-28T15:37:04.047Z</time></trkpt><trkpt lat="40.569485" lon="14.9864117"><ele>33.0</ele><time>2026-03-28T15:37:05.048Z</time></trkpt><trkpt lat="40.5696333" lon="14.9863933"><ele>33.0</ele><time>2026-03-28T15:37:06.047Z</time></trkpt><trkpt lat="40.5697933" lon="14.98637"><ele>33.333333333333336</ele><time>2026-03-28T15:37:07.048Z</time></trkpt><trkpt lat="40.5699683" lon="14.9863467"><ele>33.66666666666667</ele><time>2026-03-28T15:37:08.047Z</time></trkpt><trkpt lat="40.5701533" lon="14.9863233"><ele>34.0</ele><time>2026-03-28T15:37:09.047Z</time></trkpt><trkpt lat="40.5703567" lon="14.9863133"><ele>34.0</ele><time>2026-03-28T15:37:10.047Z</time></trkpt><trkpt lat="40.5705683" lon="14.9862917"><ele>34.0</ele><time>2026-03-28T15:37:11.047Z</time></trkpt><trkpt lat="40.5707817" lon="14.986265"><ele>34.0</ele><time>2026-03-28T15:37:12.048Z</time></trkpt><trkpt lat="40.5709917" lon="14.98624"><ele>34.0</ele><time>2026-03-28T15:37:13.048Z</time></trkpt><trkpt lat="40.571205" lon="14.98621"><ele>34.0</ele><time>2026-03-28T15:37:14.048Z</time></trkpt><trkpt lat="40.571415" lon="14.9861833"><ele>34.0</ele><time>2026-03-28T15:37:15.047Z</time></trkpt><trkpt lat="40.57164" lon="14.9861533"><ele>34.0</ele><time>2026-03-28T15:37:16.047Z</time></trkpt><trkpt lat="40.5718617" lon="14.9861183"><ele>34.0</ele><time>2026-03-28T15:37:17.047Z</time></trkpt><trkpt lat="40.5720817" lon="14.9860867"><ele>34.0</ele><time>2026-03-28T15:37:18.047Z</time></trkpt><trkpt lat="40.5723067" lon="14.9860567"><ele>34.333333333333336</ele><time>2026-03-28T15:37:19.047Z</time></trkpt><trkpt lat="40.5725233" lon="14.9860333"><ele>34.666666666666664</ele><time>2026-03-28T15:37:20.048Z</time></trkpt><trkpt lat="40.5727367" lon="14.9860117"><ele>35.0</ele><time>2026-03-28T15:37:21.047Z</time></trkpt><trkpt lat="40.57293" lon="14.9859817"><ele>35.33333333333333</ele><time>2026-03-28T15:37:22.048Z</time></trkpt><trkpt lat="40.5731183" lon="14.9859517"><ele>35.666666666666664</ele><time>2026-03-28T15:37:23.047Z</time></trkpt><trkpt lat="40.5732917" lon="14.9859217"><ele>36.0</ele><time>2026-03-28T15:37:24.047Z</time></trkpt><trkpt lat="40.573455" lon="14.9858983"><ele>36.0</ele><time>2026-03-28T15:37:25.047Z</time></trkpt><trkpt lat="40.5736167" lon="14.9858767"><ele>36.0</ele><time>2026-03-28T15:37:26.047Z</time></trkpt><trkpt lat="40.573775" lon="14.9858517"><ele>36.0</ele><time>2026-03-28T15:37:27.047Z</time></trkpt><trkpt lat="40.5739317" lon="14.98582"><ele>35.666666666666664</ele><time>2026-03-28T15:37:28.047Z</time></trkpt><trkpt lat="40.5740917" lon="14.985785"><ele>35.33333333333333</ele><time>2026-03-28T15:37:29.047Z</time></trkpt><trkpt lat="40.5742467" lon="14.9857533"><ele>35.0</ele><time>2026-03-28T15:37:30.048Z</time></trkpt><trkpt lat="40.5744033" lon="14.9857267"><ele>35.33333333333333</ele><time>2026-03-28T15:37:31.048Z</time></trkpt><trkpt lat="40.574565" lon="14.9857017"><ele>35.666666666666664</ele><time>2026-03-28T15:37:32.048Z</time></trkpt><trkpt lat="40.5747317" lon="14.9856833"><ele>36.0</ele><time>2026-03-28T15:37:33.047Z</time></trkpt><trkpt lat="40.5749017" lon="14.9856667"><ele>36.0</ele><time>2026-03-28T15:37:34.047Z</time></trkpt><trkpt lat="40.5750733" lon="14.9856583"><ele>36.0</ele><time>2026-03-28T15:37:35.047Z</time></trkpt><trkpt lat="40.5752483" lon="14.9856417"><ele>36.0</ele><time>2026-03-28T15:37:36.047Z</time></trkpt><trkpt lat="40.5754267" lon="14.9856217"><ele>36.666666666666664</ele><time>2026-03-28T15:37:37.047Z</time></trkpt><trkpt lat="40.5756083" lon="14.9855933"><ele>37.33333333333333</ele><time>2026-03-28T15:37:38.048Z</time></trkpt><trkpt lat="40.5757833" lon="14.985565"><ele>38.0</ele><time>2026-03-28T15:37:39.048Z</time></trkpt><trkpt lat="40.5759483" lon="14.9855433"><ele>38.0</ele><time>2026-03-28T15:37:40.047Z</time></trkpt><trkpt lat="40.5761033" lon="14.9855217"><ele>38.0</ele><time>2026-03-28T15:37:41.047Z</time></trkpt><trkpt lat="40.5762533" lon="14.98551"><ele>38.0</ele><time>2026-03-28T15:37:42.048Z</time></trkpt><trkpt lat="40.5763917" lon="14.9854917"><ele>38.0</ele><time>2026-03-28T15:37:43.048Z</time></trkpt><trkpt lat="40.5765317" lon="14.9854717"><ele>38.25</ele><time>2026-03-28T15:37:44.047Z</time></trkpt><trkpt lat="40.5766583" lon="14.98546"><ele>38.5</ele><time>2026-03-28T15:37:45.048Z</time></trkpt><trkpt lat="40.5767867" lon="14.985445"><ele>38.75</ele><time>2026-03-28T15:37:46.047Z</time></trkpt><trkpt lat="40.5769183" lon="14.985425"><ele>39.0</ele><time>2026-03-28T15:37:47.047Z</time></trkpt><trkpt lat="40.5770617" lon="14.9854083"><ele>39.333333333333336</ele><time>2026-03-28T15:37:48.048Z</time></trkpt><trkpt lat="40.5772067" lon="14.9853867"><ele>39.66666666666667</ele><time>2026-03-28T15:37:49.047Z</time></trkpt><trkpt lat="40.5773567" lon="14.9853667"><ele>40.0</ele><time>2026-03-28T15:37:50.048Z</time></trkpt><trkpt lat="40.5775117" lon="14.98534"><ele>40.0</ele><time>2026-03-28T15:37:51.047Z</time></trkpt><trkpt lat="40.5776667" lon="14.9853233"><ele>40.0</ele><time>2026-03-28T15:37:52.048Z</time></trkpt><trkpt lat="40.577825" lon="14.9853017"><ele>40.0</ele><time>2026-03-28T15:37:53.047Z</time></trkpt><trkpt lat="40.5779783" lon="14.9852817"><ele>40.0</ele><time>2026-03-28T15:37:54.047Z</time></trkpt><trkpt lat="40.5781367" lon="14.9852617"><ele>40.0</ele><time>2026-03-28T15:37:55.047Z</time></trkpt><trkpt lat="40.5782933" lon="14.985245"><ele>40.0</ele><time>2026-03-28T15:37:56.048Z</time></trkpt><trkpt lat="40.57845" lon="14.9852233"><ele>40.0</ele><time>2026-03-28T15:37:57.047Z</time></trkpt><trkpt lat="40.5786083" lon="14.9852017"><ele>40.0</ele><time>2026-03-28T15:37:58.048Z</time></trkpt><trkpt lat="40.5787683" lon="14.98517"><ele>40.0</ele><time>2026-03-28T15:37:59.048Z</time></trkpt><trkpt lat="40.57893" lon="14.98514"><ele>40.333333333333336</ele><time>2026-03-28T15:38:00.047Z</time></trkpt><trkpt lat="40.5790883" lon="14.985115"><ele>40.666666666666664</ele><time>2026-03-28T15:38:01.048Z</time></trkpt><trkpt lat="40.5792483" lon="14.985095"><ele>41.0</ele><time>2026-03-28T15:38:02.048Z</time></trkpt><trkpt lat="40.57942" lon="14.9850633"><ele>41.33333333333333</ele><time>2026-03-28T15:38:03.048Z</time></trkpt><trkpt lat="40.5796" lon="14.9850317"><ele>41.666666666666664</ele><time>2026-03-28T15:38:04.047Z</time></trkpt><trkpt lat="40.57978" lon="14.9850033"><ele>42.0</ele><time>2026-03-28T15:38:05.048Z</time></trkpt><trkpt lat="40.579965" lon="14.9849833"><ele>42.0</ele><time>2026-03-28T15:38:06.048Z</time></trkpt><trkpt lat="40.58016" lon="14.984955"><ele>42.0</ele><time>2026-03-28T15:38:07.047Z</time></trkpt><trkpt lat="40.5803533" lon="14.9849317"><ele>42.0</ele><time>2026-03-28T15:38:08.048Z</time></trkpt><trkpt lat="40.580555" lon="14.984905"><ele>42.0</ele><time>2026-03-28T15:38:09.047Z</time></trkpt><trkpt lat="40.5807633" lon="14.9848733"><ele>42.0</ele><time>2026-03-28T15:38:10.048Z</time></trkpt><trkpt lat="40.5809833" lon="14.9848417"><ele>42.0</ele><time>2026-03-28T15:38:11.047Z</time></trkpt><trkpt lat="40.58119" lon="14.98482"><ele>42.333333333333336</ele><time>2026-03-28T15:38:12.048Z</time></trkpt><trkpt lat="40.581405" lon="14.9847833"><ele>42.66666666666667</ele><time>2026-03-28T15:38:13.048Z</time></trkpt><trkpt lat="40.5816083" lon="14.9847517"><ele>43.0</ele><time>2026-03-28T15:38:14.047Z</time></trkpt><trkpt lat="40.5818083" lon="14.9847217"><ele>43.0</ele><time>2026-03-28T15:38:15.048Z</time></trkpt><trkpt lat="40.5820033" lon="14.9847"><ele>43.0</ele><time>2026-03-28T15:38:16.047Z</time></trkpt><trkpt lat="40.5822017" lon="14.9846733"><ele>43.0</ele><time>2026-03-28T15:38:17.048Z</time></trkpt><trkpt lat="40.5823967" lon="14.9846467"><ele>43.0</ele><time>2026-03-28T15:38:18.047Z</time></trkpt><trkpt lat="40.5825933" lon="14.98462"><ele>43.0</ele><time>2026-03-28T15:38:19.048Z</time></trkpt><trkpt lat="40.5827967" lon="14.984585"><ele>43.0</ele><time>2026-03-28T15:38:20.048Z</time></trkpt><trkpt lat="40.5829983" lon="14.9845567"><ele>43.0</ele><time>2026-03-28T15:38:21.048Z</time></trkpt><trkpt lat="40.5831967" lon="14.9845383"><ele>43.0</ele><time>2026-03-28T15:38:22.047Z</time></trkpt><trkpt lat="40.583395" lon="14.984515"><ele>43.0</ele><time>2026-03-28T15:38:23.047Z</time></trkpt><trkpt lat="40.5835933" lon="14.9844867"><ele>43.66666666666667</ele><time>2026-03-28T15:38:24.048Z</time></trkpt><trkpt lat="40.5837933" lon="14.984465"><ele>44.333333333333336</ele><time>2026-03-28T15:38:25.048Z</time></trkpt><trkpt lat="40.5839833" lon="14.9844483"><ele>45.0</ele><time>2026-03-28T15:38:26.047Z</time></trkpt><trkpt lat="40.5841683" lon="14.9844217"><ele>45.0</ele><time>2026-03-28T15:38:27.048Z</time></trkpt><trkpt lat="40.584345" lon="14.9843967"><ele>45.0</ele><time>2026-03-28T15:38:28.047Z</time></trkpt><trkpt lat="40.5845067" lon="14.9843683"><ele>45.0</ele><time>2026-03-28T15:38:29.048Z</time></trkpt><trkpt lat="40.58466" lon="14.9843483"><ele>45.0</ele><time>2026-03-28T15:38:30.048Z</time></trkpt><trkpt lat="40.5848033" lon="14.9843333"><ele>45.0</ele><time>2026-03-28T15:38:31.048Z</time></trkpt><trkpt lat="40.5849367" lon="14.98433"><ele>45.0</ele><time>2026-03-28T15:38:32.047Z</time></trkpt><trkpt lat="40.58506" lon="14.98434"><ele>45.0</ele><time>2026-03-28T15:38:33.048Z</time></trkpt><trkpt lat="40.5851683" lon="14.98436"><ele>45.0</ele><time>2026-03-28T15:38:34.047Z</time></trkpt><trkpt lat="40.58526" lon="14.984395"><ele>45.0</ele><time>2026-03-28T15:38:35.047Z</time></trkpt><trkpt lat="40.58534" lon="14.984435"><ele>45.0</ele><time>2026-03-28T15:38:36.047Z</time></trkpt><trkpt lat="40.58542" lon="14.984465"><ele>45.0</ele><time>2026-03-28T15:38:37.047Z</time></trkpt><trkpt lat="40.5854967" lon="14.984475"><ele>45.0</ele><time>2026-03-28T15:38:38.048Z</time></trkpt><trkpt lat="40.5855633" lon="14.98447"><ele>45.0</ele><time>2026-03-28T15:38:39.048Z</time></trkpt><trkpt lat="40.5856217" lon="14.9844383"><ele>45.14285714285714</ele><time>2026-03-28T15:38:40.047Z</time></trkpt><trkpt lat="40.585675" lon="14.9843867"><ele>45.28571428571429</ele><time>2026-03-28T15:38:41.048Z</time></trkpt><trkpt lat="40.585725" lon="14.9843283"><ele>45.42857142857143</ele><time>2026-03-28T15:38:42.048Z</time></trkpt><trkpt lat="40.5857817" lon="14.984275"><ele>45.57142857142857</ele><time>2026-03-28T15:38:43.048Z</time></trkpt><trkpt lat="40.5858467" lon="14.9842267"><ele>45.71428571428571</ele><time>2026-03-28T15:38:44.047Z</time></trkpt><trkpt lat="40.5859217" lon="14.98419"><ele>45.85714285714286</ele><time>2026-03-28T15:38:45.048Z</time></trkpt><trkpt lat="40.5860067" lon="14.9841633"><ele>46.0</ele><time>2026-03-28T15:38:46.048Z</time></trkpt><trkpt lat="40.5861067" lon="14.9841483"><ele>45.75</ele><time>2026-03-28T15:38:47.047Z</time></trkpt><trkpt lat="40.5862267" lon="14.98413"><ele>45.5</ele><time>2026-03-28T15:38:48.047Z</time></trkpt><trkpt lat="40.5863517" lon="14.9841167"><ele>45.25</ele><time>2026-03-28T15:38:49.047Z</time></trkpt><trkpt lat="40.5864867" lon="14.9841"><ele>45.0</ele><time>2026-03-28T15:38:50.047Z</time></trkpt><trkpt lat="40.5866367" lon="14.9840783"><ele>45.0</ele><time>2026-03-28T15:38:51.047Z</time></trkpt><trkpt lat="40.5867933" lon="14.984065"><ele>45.0</ele><time>2026-03-28T15:38:52.047Z</time></trkpt><trkpt lat="40.5869583" lon="14.9840417"><ele>45.0</ele><time>2026-03-28T15:38:53.047Z</time></trkpt><trkpt lat="40.58713" lon="14.9840133"><ele>46.0</ele><time>2026-03-28T15:38:54.048Z</time></trkpt><trkpt lat="40.5873" lon="14.9839833"><ele>47.0</ele><time>2026-03-28T15:38:55.047Z</time></trkpt><trkpt lat="40.58748" lon="14.983965"><ele>48.0</ele><time>2026-03-28T15:38:56.048Z</time></trkpt><trkpt lat="40.58766" lon="14.9839433"><ele>48.0</ele><time>2026-03-28T15:38:57.047Z</time></trkpt><trkpt lat="40.5878367" lon="14.9839217"><ele>48.0</ele><time>2026-03-28T15:38:58.047Z</time></trkpt><trkpt lat="40.5880083" lon="14.9839017"><ele>48.0</ele><time>2026-03-28T15:38:59.047Z</time></trkpt><trkpt lat="40.5881917" lon="14.9838833"><ele>48.66666666666667</ele><time>2026-03-28T15:39:00.048Z</time></trkpt><trkpt lat="40.588375" lon="14.98386"><ele>49.333333333333336</ele><time>2026-03-28T15:39:01.047Z</time></trkpt><trkpt lat="40.58856" lon="14.9838333"><ele>50.0</ele><time>2026-03-28T15:39:02.047Z</time></trkpt><trkpt lat="40.588745" lon="14.9838017"><ele>50.66666666666667</ele><time>2026-03-28T15:39:03.048Z</time></trkpt><trkpt lat="40.5889317" lon="14.98377"><ele>51.33333333333333</ele><time>2026-03-28T15:39:04.047Z</time></trkpt><trkpt lat="40.5891283" lon="14.9837467"><ele>52.0</ele><time>2026-03-28T15:39:05.047Z</time></trkpt><trkpt lat="40.58932" lon="14.9837233"><ele>52.0</ele><time>2026-03-28T15:39:06.047Z</time></trkpt><trkpt lat="40.5895083" lon="14.9836917"><ele>52.0</ele><time>2026-03-28T15:39:07.047Z</time></trkpt><trkpt lat="40.5896933" lon="14.9836683"><ele>52.0</ele><time>2026-03-28T15:39:08.047Z</time></trkpt><trkpt lat="40.5898767" lon="14.9836533"><ele>53.0</ele><time>2026-03-28T15:39:09.047Z</time></trkpt><trkpt lat="40.59006" lon="14.9836133"><ele>54.0</ele><time>2026-03-28T15:39:10.047Z</time></trkpt><trkpt lat="40.5902383" lon="14.9835817"><ele>55.0</ele><time>2026-03-28T15:39:11.047Z</time></trkpt><trkpt lat="40.5904033" lon="14.9835567"><ele>55.25</ele><time>2026-03-28T15:39:12.047Z</time></trkpt><trkpt lat="40.5905583" lon="14.983525"><ele>55.5</ele><time>2026-03-28T15:39:13.048Z</time></trkpt><trkpt lat="40.5906967" lon="14.9835"><ele>55.75</ele><time>2026-03-28T15:39:14.047Z</time></trkpt><trkpt lat="40.5908267" lon="14.9834817"><ele>56.0</ele><time>2026-03-28T15:39:15.048Z</time></trkpt><trkpt lat="40.5909367" lon="14.9834767"><ele>56.00000000000001</ele><time>2026-03-28T15:39:16.048Z</time></trkpt><trkpt lat="40.59103" lon="14.9834683"><ele>56.0</ele><time>2026-03-28T15:39:17.048Z</time></trkpt><trkpt lat="40.5911033" lon="14.9834483"><ele>56.0</ele><time>2026-03-28T15:39:18.047Z</time></trkpt><trkpt lat="40.59123" lon="14.9834333"><ele>56.0</ele><time>2026-03-28T15:39:20.047Z</time></trkpt><trkpt lat="40.5913017" lon="14.9834267"><ele>56.00000000000001</ele><time>2026-03-28T15:39:21.047Z</time></trkpt><trkpt lat="40.5913767" lon="14.9834167"><ele>56.0</ele><time>2026-03-28T15:39:22.048Z</time></trkpt><trkpt lat="40.5914633" lon="14.98341"><ele>55.8</ele><time>2026-03-28T15:39:23.048Z</time></trkpt><trkpt lat="40.5915483" lon="14.9834033"><ele>55.599999999999994</ele><time>2026-03-28T15:39:24.047Z</time></trkpt><trkpt lat="40.59164" lon="14.9833917"><ele>55.4</ele><time>2026-03-28T15:39:25.048Z</time></trkpt><trkpt lat="40.5917417" lon="14.9833717"><ele>55.2</ele><time>2026-03-28T15:39:26.048Z</time></trkpt><trkpt lat="40.5918483" lon="14.9833417"><ele>55.0</ele><time>2026-03-28T15:39:27.048Z</time></trkpt><trkpt lat="40.59197" lon="14.9833267"><ele>55.0</ele><time>2026-03-28T15:39:28.048Z</time></trkpt><trkpt lat="40.5921017" lon="14.983315"><ele>55.0</ele><time>2026-03-28T15:39:29.047Z</time></trkpt><trkpt lat="40.5922417" lon="14.9833"><ele>55.0</ele><time>2026-03-28T15:39:30.048Z</time></trkpt><trkpt lat="40.59241" lon="14.983275"><ele>55.0</ele><time>2026-03-28T15:39:31.047Z</time></trkpt><trkpt lat="40.59258" lon="14.98326"><ele>55.0</ele><time>2026-03-28T15:39:32.047Z</time></trkpt><trkpt lat="40.5927367" lon="14.983235"><ele>55.0</ele><time>2026-03-28T15:39:33.047Z</time></trkpt><trkpt lat="40.59288" lon="14.98321"><ele>55.0</ele><time>2026-03-28T15:39:34.048Z</time></trkpt><trkpt lat="40.5930233" lon="14.9831933"><ele>55.0</ele><time>2026-03-28T15:39:35.047Z</time></trkpt><trkpt lat="40.59316" lon="14.983175"><ele>55.0</ele><time>2026-03-28T15:39:36.047Z</time></trkpt><trkpt lat="40.5932933" lon="14.983145"><ele>55.0</ele><time>2026-03-28T15:39:37.048Z</time></trkpt><trkpt lat="40.59342" lon="14.98312"><ele>55.0</ele><time>2026-03-28T15:39:38.048Z</time></trkpt><trkpt lat="40.5935533" lon="14.98309"><ele>55.0</ele><time>2026-03-28T15:39:39.048Z</time></trkpt><trkpt lat="40.5936767" lon="14.98305"><ele>55.5</ele><time>2026-03-28T15:39:40.048Z</time></trkpt><trkpt lat="40.5937917" lon="14.9830017"><ele>56.0</ele><time>2026-03-28T15:39:41.048Z</time></trkpt><trkpt lat="40.5939017" lon="14.9829367"><ele>56.5</ele><time>2026-03-28T15:39:42.047Z</time></trkpt><trkpt lat="40.59401" lon="14.982855"><ele>57.0</ele><time>2026-03-28T15:39:43.048Z</time></trkpt><trkpt lat="40.594115" lon="14.982755"><ele>57.0</ele><time>2026-03-28T15:39:44.048Z</time></trkpt><trkpt lat="40.5942283" lon="14.9826383"><ele>57.0</ele><time>2026-03-28T15:39:45.048Z</time></trkpt><trkpt lat="40.5943583" lon="14.9825183"><ele>57.0</ele><time>2026-03-28T15:39:46.047Z</time></trkpt><trkpt lat="40.5944783" lon="14.982375"><ele>57.5</ele><time>2026-03-28T15:39:47.047Z</time></trkpt><trkpt lat="40.5946033" lon="14.9822417"><ele>58.0</ele><time>2026-03-28T15:39:48.048Z</time></trkpt><trkpt lat="40.5947183" lon="14.982135"><ele>58.5</ele><time>2026-03-28T15:39:49.048Z</time></trkpt><trkpt lat="40.59482" lon="14.9820383"><ele>59.0</ele><time>2026-03-28T15:39:50.047Z</time></trkpt><trkpt lat="40.5949117" lon="14.9819483"><ele>59.0</ele><time>2026-03-28T15:39:51.048Z</time></trkpt><trkpt lat="40.595" lon="14.9818617"><ele>59.00000000000001</ele><time>2026-03-28T15:39:52.048Z</time></trkpt><trkpt lat="40.595085" lon="14.9817817"><ele>59.00000000000001</ele><time>2026-03-28T15:39:53.047Z</time></trkpt><trkpt lat="40.5951633" lon="14.981705"><ele>59.0</ele><time>2026-03-28T15:39:54.047Z</time></trkpt><trkpt lat="40.5952417" lon="14.9816267"><ele>59.0</ele><time>2026-03-28T15:39:55.047Z</time></trkpt><trkpt lat="40.5953217" lon="14.9815483"><ele>59.25</ele><time>2026-03-28T15:39:56.047Z</time></trkpt><trkpt lat="40.5954067" lon="14.9814617"><ele>59.5</ele><time>2026-03-28T15:39:57.048Z</time></trkpt><trkpt lat="40.5955017" lon="14.9813667"><ele>59.75</ele><time>2026-03-28T15:39:58.048Z</time></trkpt><trkpt lat="40.595605" lon="14.981265"><ele>60.0</ele><time>2026-03-28T15:39:59.048Z</time></trkpt><trkpt lat="40.5957117" lon="14.9811683"><ele>60.0</ele><time>2026-03-28T15:40:00.048Z</time></trkpt><trkpt lat="40.595825" lon="14.9810533"><ele>60.0</ele><time>2026-03-28T15:40:01.047Z</time></trkpt><trkpt lat="40.59594" lon="14.98094"><ele>60.0</ele><time>2026-03-28T15:40:02.048Z</time></trkpt><trkpt lat="40.5960667" lon="14.9808217"><ele>60.0</ele><time>2026-03-28T15:40:03.047Z</time></trkpt><trkpt lat="40.596195" lon="14.9807033"><ele>58.66666666666667</ele><time>2026-03-28T15:40:04.047Z</time></trkpt><trkpt lat="40.596335" lon="14.98057"><ele>57.333333333333336</ele><time>2026-03-28T15:40:05.047Z</time></trkpt><trkpt lat="40.5964833" lon="14.98043"><ele>56.0</ele><time>2026-03-28T15:40:06.047Z</time></trkpt><trkpt lat="40.5966317" lon="14.980285"><ele>56.0</ele><time>2026-03-28T15:40:07.047Z</time></trkpt><trkpt lat="40.5967783" lon="14.980145"><ele>56.0</ele><time>2026-03-28T15:40:08.047Z</time></trkpt><trkpt lat="40.596935" lon="14.97999"><ele>56.0</ele><time>2026-03-28T15:40:09.047Z</time></trkpt><trkpt lat="40.5970933" lon="14.9798333"><ele>56.333333333333336</ele><time>2026-03-28T15:40:10.047Z</time></trkpt><trkpt lat="40.5972567" lon="14.9796767"><ele>56.66666666666667</ele><time>2026-03-28T15:40:11.048Z</time></trkpt><trkpt lat="40.5974117" lon="14.9795283"><ele>57.0</ele><time>2026-03-28T15:40:12.048Z</time></trkpt><trkpt lat="40.5975633" lon="14.9793867"><ele>57.0</ele><time>2026-03-28T15:40:13.048Z</time></trkpt><trkpt lat="40.5977083" lon="14.9792417"><ele>57.0</ele><time>2026-03-28T15:40:14.047Z</time></trkpt><trkpt lat="40.59784" lon="14.9791133"><ele>57.0</ele><time>2026-03-28T15:40:15.047Z</time></trkpt><trkpt lat="40.5979683" lon="14.9789867"><ele>57.0</ele><time>2026-03-28T15:40:16.047Z</time></trkpt><trkpt lat="40.5980933" lon="14.978865"><ele>57.0</ele><time>2026-03-28T15:40:17.048Z</time></trkpt><trkpt lat="40.5982233" lon="14.9787383"><ele>57.0</ele><time>2026-03-28T15:40:18.047Z</time></trkpt><trkpt lat="40.598355" lon="14.97861"><ele>57.0</ele><time>2026-03-28T15:40:19.048Z</time></trkpt><trkpt lat="40.598485" lon="14.9784817"><ele>57.0</ele><time>2026-03-28T15:40:20.047Z</time></trkpt><trkpt lat="40.5986167" lon="14.9783483"><ele>57.0</ele><time>2026-03-28T15:40:21.047Z</time></trkpt><trkpt lat="40.598755" lon="14.9782167"><ele>57.66666666666667</ele><time>2026-03-28T15:40:22.047Z</time></trkpt><trkpt lat="40.598895" lon="14.978075"><ele>58.333333333333336</ele><time>2026-03-28T15:40:23.047Z</time></trkpt><trkpt lat="40.5990433" lon="14.977945"><ele>59.0</ele><time>2026-03-28T15:40:24.047Z</time></trkpt><trkpt lat="40.59919" lon="14.9778"><ele>59.0</ele><time>2026-03-28T15:40:25.047Z</time></trkpt><trkpt lat="40.5993333" lon="14.977665"><ele>59.0</ele><time>2026-03-28T15:40:26.047Z</time></trkpt><trkpt lat="40.5994617" lon="14.977525"><ele>59.0</ele><time>2026-03-28T15:40:27.048Z</time></trkpt><trkpt lat="40.59959" lon="14.9774017"><ele>59.333333333333336</ele><time>2026-03-28T15:40:28.047Z</time></trkpt><trkpt lat="40.599715" lon="14.9772833"><ele>59.66666666666667</ele><time>2026-03-28T15:40:29.048Z</time></trkpt><trkpt lat="40.5998417" lon="14.9771633"><ele>60.0</ele><time>2026-03-28T15:40:30.048Z</time></trkpt><trkpt lat="40.5999617" lon="14.9770483"><ele>60.0</ele><time>2026-03-28T15:40:31.048Z</time></trkpt><trkpt lat="40.60007" lon="14.9769417"><ele>60.0</ele><time>2026-03-28T15:40:32.047Z</time></trkpt><trkpt lat="40.6001683" lon="14.9768483"><ele>60.0</ele><time>2026-03-28T15:40:33.048Z</time></trkpt><trkpt lat="40.6002633" lon="14.97676"><ele>60.0</ele><time>2026-03-28T15:40:34.047Z</time></trkpt><trkpt lat="40.600355" lon="14.97668"><ele>60.2</ele><time>2026-03-28T15:40:35.048Z</time></trkpt><trkpt lat="40.6004467" lon="14.976605"><ele>60.4</ele><time>2026-03-28T15:40:36.047Z</time></trkpt><trkpt lat="40.6005317" lon="14.9765367"><ele>60.599999999999994</ele><time>2026-03-28T15:40:37.047Z</time></trkpt><trkpt lat="40.600615" lon="14.9764783"><ele>60.8</ele><time>2026-03-28T15:40:38.048Z</time></trkpt><trkpt lat="40.6006933" lon="14.976425"><ele>61.0</ele><time>2026-03-28T15:40:39.047Z</time></trkpt><trkpt lat="40.6007717" lon="14.976385"><ele>61.0</ele><time>2026-03-28T15:40:40.048Z</time></trkpt><trkpt lat="40.6008417" lon="14.9763667"><ele>60.99999999999999</ele><time>2026-03-28T15:40:41.048Z</time></trkpt><trkpt lat="40.600935" lon="14.9763783"><ele>60.99999999999999</ele><time>2026-03-28T15:40:43.048Z</time></trkpt><trkpt lat="40.6010033" lon="14.9764183"><ele>61.0</ele><time>2026-03-28T15:40:46.048Z</time></trkpt><trkpt lat="40.6010883" lon="14.9764683"><ele>61.0</ele><time>2026-03-28T15:40:48.047Z</time></trkpt><trkpt lat="40.601205" lon="14.9764817"><ele>61.428571428571416</ele><time>2026-03-28T15:40:50.048Z</time></trkpt><trkpt lat="40.6012683" lon="14.9764483"><ele>61.857142857142854</ele><time>2026-03-28T15:40:51.048Z</time></trkpt><trkpt lat="40.601315" lon="14.9763817"><ele>62.28571428571428</ele><time>2026-03-28T15:40:52.047Z</time></trkpt><trkpt lat="40.6013467" lon="14.976285"><ele>62.71428571428571</ele><time>2026-03-28T15:40:53.048Z</time></trkpt><trkpt lat="40.6013583" lon="14.9761867"><ele>63.14285714285714</ele><time>2026-03-28T15:40:54.047Z</time></trkpt><trkpt lat="40.6013633" lon="14.9760867"><ele>63.57142857142857</ele><time>2026-03-28T15:40:55.047Z</time></trkpt><trkpt lat="40.6013767" lon="14.97599"><ele>64.0</ele><time>2026-03-28T15:40:56.047Z</time></trkpt><trkpt lat="40.60141" lon="14.9758883"><ele>64.0</ele><time>2026-03-28T15:40:57.047Z</time></trkpt><trkpt lat="40.6014567" lon="14.9757767"><ele>64.0</ele><time>2026-03-28T15:40:58.048Z</time></trkpt><trkpt lat="40.6015167" lon="14.9756583"><ele>64.0</ele><time>2026-03-28T15:40:59.048Z</time></trkpt><trkpt lat="40.601585" lon="14.97555"><ele>64.0</ele><time>2026-03-28T15:41:00.048Z</time></trkpt><trkpt lat="40.6016583" lon="14.9754483"><ele>64.0</ele><time>2026-03-28T15:41:01.048Z</time></trkpt><trkpt lat="40.6017383" lon="14.9753417"><ele>64.0</ele><time>2026-03-28T15:41:02.048Z</time></trkpt><trkpt lat="40.6018317" lon="14.97523"><ele>64.0</ele><time>2026-03-28T15:41:03.048Z</time></trkpt><trkpt lat="40.6019417" lon="14.9751133"><ele>64.0</ele><time>2026-03-28T15:41:04.048Z</time></trkpt><trkpt lat="40.60207" lon="14.974995"><ele>64.0</ele><time>2026-03-28T15:41:05.048Z</time></trkpt><trkpt lat="40.6021917" lon="14.9748767"><ele>64.2</ele><time>2026-03-28T15:41:06.048Z</time></trkpt><trkpt lat="40.6023017" lon="14.9747733"><ele>64.4</ele><time>2026-03-28T15:41:07.048Z</time></trkpt><trkpt lat="40.6024" lon="14.9746717"><ele>64.6</ele><time>2026-03-28T15:41:08.048Z</time></trkpt><trkpt lat="40.602485" lon="14.9745833"><ele>64.8</ele><time>2026-03-28T15:41:09.047Z</time></trkpt><trkpt lat="40.6025483" lon="14.9745233"><ele>65.0</ele><time>2026-03-28T15:41:10.048Z</time></trkpt><trkpt lat="40.6026133" lon="14.974475"><ele>65.0</ele><time>2026-03-28T15:41:12.047Z</time></trkpt><trkpt lat="40.602695" lon="14.9744483"><ele>65.0</ele><time>2026-03-28T15:41:17.047Z</time></trkpt><trkpt lat="40.6027933" lon="14.974355"><ele>65.0</ele><time>2026-03-28T15:41:19.048Z</time></trkpt><trkpt lat="40.602865" lon="14.97428"><ele>65.0</ele><time>2026-03-28T15:41:20.047Z</time></trkpt><trkpt lat="40.6029533" lon="14.9741883"><ele>65.0</ele><time>2026-03-28T15:41:21.048Z</time></trkpt><trkpt lat="40.6030617" lon="14.9740833"><ele>64.33333333333334</ele><time>2026-03-28T15:41:22.047Z</time></trkpt><trkpt lat="40.603195" lon="14.9739667"><ele>63.66666666666667</ele><time>2026-03-28T15:41:23.047Z</time></trkpt><trkpt lat="40.603335" lon="14.9738633"><ele>63.0</ele><time>2026-03-28T15:41:24.047Z</time></trkpt><trkpt lat="40.6034883" lon="14.9737817"><ele>63.0</ele><time>2026-03-28T15:41:25.048Z</time></trkpt><trkpt lat="40.6036467" lon="14.9737033"><ele>63.0</ele><time>2026-03-28T15:41:26.047Z</time></trkpt><trkpt lat="40.6038083" lon="14.973635"><ele>63.0</ele><time>2026-03-28T15:41:27.047Z</time></trkpt><trkpt lat="40.6039683" lon="14.9735817"><ele>62.66666666666667</ele><time>2026-03-28T15:41:28.048Z</time></trkpt><trkpt lat="40.604135" lon="14.9735417"><ele>62.333333333333336</ele><time>2026-03-28T15:41:29.048Z</time></trkpt><trkpt lat="40.6043083" lon="14.973505"><ele>62.0</ele><time>2026-03-28T15:41:30.048Z</time></trkpt><trkpt lat="40.6044767" lon="14.97349"><ele>64.33333333333334</ele><time>2026-03-28T15:41:31.047Z</time></trkpt><trkpt lat="40.6046433" lon="14.97348"><ele>66.66666666666667</ele><time>2026-03-28T15:41:32.047Z</time></trkpt><trkpt lat="40.6048083" lon="14.9734667"><ele>69.0</ele><time>2026-03-28T15:41:33.047Z</time></trkpt><trkpt lat="40.6049717" lon="14.9734533"><ele>69.0</ele><time>2026-03-28T15:41:34.047Z</time></trkpt><trkpt lat="40.6051317" lon="14.9734467"><ele>69.0</ele><time>2026-03-28T15:41:35.047Z</time></trkpt><trkpt lat="40.6052783" lon="14.9734483"><ele>69.0</ele><time>2026-03-28T15:41:36.048Z</time></trkpt><trkpt lat="40.60542" lon="14.9734483"><ele>69.0</ele><time>2026-03-28T15:41:37.047Z</time></trkpt><trkpt lat="40.605545" lon="14.9734367"><ele>68.8</ele><time>2026-03-28T15:41:38.047Z</time></trkpt><trkpt lat="40.6056683" lon="14.9734283"><ele>68.60000000000001</ele><time>2026-03-28T15:41:39.048Z</time></trkpt><trkpt lat="40.6057783" lon="14.9734183"><ele>68.4</ele><time>2026-03-28T15:41:40.048Z</time></trkpt><trkpt lat="40.6058833" lon="14.97342"><ele>68.2</ele><time>2026-03-28T15:41:41.047Z</time></trkpt><trkpt lat="40.6059783" lon="14.9734417"><ele>68.0</ele><time>2026-03-28T15:41:42.047Z</time></trkpt><trkpt lat="40.6060583" lon="14.9734833"><ele>68.0</ele><time>2026-03-28T15:41:43.047Z</time></trkpt><trkpt lat="40.606125" lon="14.97353"><ele>68.0</ele><time>2026-03-28T15:41:44.047Z</time></trkpt><trkpt lat="40.6061883" lon="14.9735417"><ele>68.0</ele><time>2026-03-28T15:41:45.047Z</time></trkpt><trkpt lat="40.6063017" lon="14.97348"><ele>68.0</ele><time>2026-03-28T15:41:47.047Z</time></trkpt><trkpt lat="40.606365" lon="14.9734117"><ele>68.0</ele><time>2026-03-28T15:41:48.048Z</time></trkpt><trkpt lat="40.606445" lon="14.9733617"><ele>68.0</ele><time>2026-03-28T15:41:49.048Z</time></trkpt><trkpt lat="40.6065367" lon="14.97334"><ele>67.8</ele><time>2026-03-28T15:41:50.047Z</time></trkpt><trkpt lat="40.6066317" lon="14.9733317"><ele>67.6</ele><time>2026-03-28T15:41:51.047Z</time></trkpt><trkpt lat="40.6067283" lon="14.97332"><ele>67.4</ele><time>2026-03-28T15:41:52.048Z</time></trkpt><trkpt lat="40.6068167" lon="14.973305"><ele>67.2</ele><time>2026-03-28T15:41:53.047Z</time></trkpt><trkpt lat="40.606905" lon="14.9732883"><ele>67.0</ele><time>2026-03-28T15:41:54.048Z</time></trkpt><trkpt lat="40.607" lon="14.97327"><ele>67.4</ele><time>2026-03-28T15:41:55.048Z</time></trkpt><trkpt lat="40.6070967" lon="14.973245"><ele>67.80000000000001</ele><time>2026-03-28T15:41:56.048Z</time></trkpt><trkpt lat="40.607195" lon="14.9732167"><ele>68.2</ele><time>2026-03-28T15:41:57.047Z</time></trkpt><trkpt lat="40.6073" lon="14.9731933"><ele>68.60000000000001</ele><time>2026-03-28T15:41:58.047Z</time></trkpt><trkpt lat="40.6074067" lon="14.9731733"><ele>69.0</ele><time>2026-03-28T15:41:59.047Z</time></trkpt><trkpt lat="40.6075167" lon="14.97316"><ele>69.0</ele><time>2026-03-28T15:42:00.048Z</time></trkpt><trkpt lat="40.60762" lon="14.9731517"><ele>69.0</ele><time>2026-03-28T15:42:01.047Z</time></trkpt><trkpt lat="40.6077217" lon="14.9731467"><ele>69.0</ele><time>2026-03-28T15:42:02.048Z</time></trkpt><trkpt lat="40.6078283" lon="14.9731383"><ele>69.0</ele><time>2026-03-28T15:42:03.048Z</time></trkpt><trkpt lat="40.6079367" lon="14.9731317"><ele>69.0</ele><time>2026-03-28T15:42:04.047Z</time></trkpt><trkpt lat="40.6080483" lon="14.9731217"><ele>68.0</ele><time>2026-03-28T15:42:05.048Z</time></trkpt><trkpt lat="40.608165" lon="14.9731067"><ele>67.0</ele><time>2026-03-28T15:42:06.048Z</time></trkpt><trkpt lat="40.6082833" lon="14.97309"><ele>66.0</ele><time>2026-03-28T15:42:07.047Z</time></trkpt><trkpt lat="40.6084017" lon="14.9730783"><ele>65.0</ele><time>2026-03-28T15:42:08.047Z</time></trkpt><trkpt lat="40.6085183" lon="14.9730683"><ele>65.0</ele><time>2026-03-28T15:42:09.047Z</time></trkpt><trkpt lat="40.608635" lon="14.9730583"><ele>65.0</ele><time>2026-03-28T15:42:10.047Z</time></trkpt><trkpt lat="40.6087533" lon="14.9730517"><ele>65.0</ele><time>2026-03-28T15:42:11.048Z</time></trkpt><trkpt lat="40.60886" lon="14.973045"><ele>65.0</ele><time>2026-03-28T15:42:12.047Z</time></trkpt><trkpt lat="40.6089567" lon="14.9730333"><ele>65.0</ele><time>2026-03-28T15:42:13.047Z</time></trkpt><trkpt lat="40.6090467" lon="14.9730233"><ele>65.0</ele><time>2026-03-28T15:42:14.047Z</time></trkpt><trkpt lat="40.6091367" lon="14.9730167"><ele>65.0</ele><time>2026-03-28T15:42:15.048Z</time></trkpt><trkpt lat="40.6092283" lon="14.9730117"><ele>65.0</ele><time>2026-03-28T15:42:16.048Z</time></trkpt><trkpt lat="40.609325" lon="14.973005"><ele>65.0</ele><time>2026-03-28T15:42:17.047Z</time></trkpt><trkpt lat="40.609415" lon="14.9730017"><ele>65.0</ele><time>2026-03-28T15:42:18.048Z</time></trkpt><trkpt lat="40.6094983" lon="14.9730017"><ele>64.83333333333334</ele><time>2026-03-28T15:42:19.047Z</time></trkpt><trkpt lat="40.6095783" lon="14.9729917"><ele>64.66666666666667</ele><time>2026-03-28T15:42:20.048Z</time></trkpt><trkpt lat="40.6096567" lon="14.9729817"><ele>64.5</ele><time>2026-03-28T15:42:21.047Z</time></trkpt><trkpt lat="40.6097233" lon="14.972975"><ele>64.33333333333333</ele><time>2026-03-28T15:42:22.047Z</time></trkpt><trkpt lat="40.609825" lon="14.9729617"><ele>64.16666666666666</ele><time>2026-03-28T15:42:24.047Z</time></trkpt><trkpt lat="40.6099033" lon="14.9729517"><ele>64.0</ele><time>2026-03-28T15:42:26.048Z</time></trkpt><trkpt lat="40.6099867" lon="14.9729417"><ele>63.99999999999999</ele><time>2026-03-28T15:42:28.047Z</time></trkpt><trkpt lat="40.6100617" lon="14.972935"><ele>64.0</ele><time>2026-03-28T15:42:30.047Z</time></trkpt><trkpt lat="40.6101583" lon="14.972935"><ele>64.0</ele><time>2026-03-28T15:42:33.048Z</time></trkpt><trkpt lat="40.6102567" lon="14.97292"><ele>64.0</ele><time>2026-03-28T15:42:35.048Z</time></trkpt><trkpt lat="40.6103283" lon="14.9729133"><ele>63.99999999999999</ele><time>2026-03-28T15:42:36.047Z</time></trkpt><trkpt lat="40.6104133" lon="14.9729033"><ele>64.0</ele><time>2026-03-28T15:42:37.047Z</time></trkpt><trkpt lat="40.6105133" lon="14.972895"><ele>63.25</ele><time>2026-03-28T15:42:38.047Z</time></trkpt><trkpt lat="40.610625" lon="14.9728883"><ele>62.5</ele><time>2026-03-28T15:42:39.047Z</time></trkpt><trkpt lat="40.610745" lon="14.9728767"><ele>61.75</ele><time>2026-03-28T15:42:40.047Z</time></trkpt><trkpt lat="40.6108833" lon="14.9728633"><ele>61.0</ele><time>2026-03-28T15:42:41.047Z</time></trkpt><trkpt lat="40.6110267" lon="14.972845"><ele>61.666666666666664</ele><time>2026-03-28T15:42:42.048Z</time></trkpt><trkpt lat="40.6111833" lon="14.972835"><ele>62.33333333333333</ele><time>2026-03-28T15:42:43.048Z</time></trkpt><trkpt lat="40.6113483" lon="14.9728267"><ele>63.0</ele><time>2026-03-28T15:42:44.048Z</time></trkpt><trkpt lat="40.6115167" lon="14.9728133"><ele>63.0</ele><time>2026-03-28T15:42:45.048Z</time></trkpt><trkpt lat="40.611695" lon="14.9727967"><ele>63.0</ele><time>2026-03-28T15:42:46.048Z</time></trkpt><trkpt lat="40.6118767" lon="14.9727817"><ele>63.0</ele><time>2026-03-28T15:42:47.048Z</time></trkpt><trkpt lat="40.612065" lon="14.9727617"><ele>63.0</ele><time>2026-03-28T15:42:48.047Z</time></trkpt><trkpt lat="40.612255" lon="14.9727233"><ele>63.0</ele><time>2026-03-28T15:42:49.048Z</time></trkpt><trkpt lat="40.61244" lon="14.972675"><ele>63.0</ele><time>2026-03-28T15:42:50.047Z</time></trkpt><trkpt lat="40.6126283" lon="14.9726067"><ele>63.0</ele><time>2026-03-28T15:42:51.048Z</time></trkpt><trkpt lat="40.6128133" lon="14.9725167"><ele>63.0</ele><time>2026-03-28T15:42:52.047Z</time></trkpt><trkpt lat="40.613" lon="14.9724"><ele>63.0</ele><time>2026-03-28T15:42:53.048Z</time></trkpt><trkpt lat="40.6131833" lon="14.9722583"><ele>63.0</ele><time>2026-03-28T15:42:54.048Z</time></trkpt><trkpt lat="40.6133733" lon="14.9720883"><ele>63.0</ele><time>2026-03-28T15:42:55.048Z</time></trkpt><trkpt lat="40.6135783" lon="14.971905"><ele>63.0</ele><time>2026-03-28T15:42:56.047Z</time></trkpt><trkpt lat="40.6137733" lon="14.971715"><ele>63.0</ele><time>2026-03-28T15:42:57.047Z</time></trkpt><trkpt lat="40.613965" lon="14.97153"><ele>63.0</ele><time>2026-03-28T15:42:58.047Z</time></trkpt><trkpt lat="40.6141583" lon="14.9713683"><ele>63.0</ele><time>2026-03-28T15:42:59.048Z</time></trkpt><trkpt lat="40.6143583" lon="14.9712283"><ele>63.5</ele><time>2026-03-28T15:43:00.048Z</time></trkpt><trkpt lat="40.61457" lon="14.971115"><ele>64.0</ele><time>2026-03-28T15:43:01.048Z</time></trkpt><trkpt lat="40.6147883" lon="14.97103"><ele>64.0</ele><time>2026-03-28T15:43:02.048Z</time></trkpt><trkpt lat="40.61501" lon="14.9709783"><ele>64.0</ele><time>2026-03-28T15:43:03.048Z</time></trkpt><trkpt lat="40.6152333" lon="14.9709617"><ele>64.0</ele><time>2026-03-28T15:43:04.048Z</time></trkpt><trkpt lat="40.61546" lon="14.9709683"><ele>64.0</ele><time>2026-03-28T15:43:05.048Z</time></trkpt><trkpt lat="40.61569" lon="14.9710033"><ele>64.0</ele><time>2026-03-28T15:43:06.048Z</time></trkpt><trkpt lat="40.615915" lon="14.9710717"><ele>64.0</ele><time>2026-03-28T15:43:07.047Z</time></trkpt><trkpt lat="40.6161433" lon="14.9711733"><ele>64.0</ele><time>2026-03-28T15:43:08.048Z</time></trkpt><trkpt lat="40.61638" lon="14.9713"><ele>63.0</ele><time>2026-03-28T15:43:09.047Z</time></trkpt><trkpt lat="40.6166317" lon="14.971435"><ele>62.0</ele><time>2026-03-28T15:43:10.047Z</time></trkpt><trkpt lat="40.6168883" lon="14.9715767"><ele>62.5</ele><time>2026-03-28T15:43:11.047Z</time></trkpt><trkpt lat="40.617145" lon="14.97173"><ele>63.0</ele><time>2026-03-28T15:43:12.048Z</time></trkpt><trkpt lat="40.617415" lon="14.9718817"><ele>63.0</ele><time>2026-03-28T15:43:13.047Z</time></trkpt><trkpt lat="40.6176967" lon="14.9720467"><ele>63.0</ele><time>2026-03-28T15:43:14.048Z</time></trkpt><trkpt lat="40.6179833" lon="14.9722067"><ele>64.0</ele><time>2026-03-28T15:43:15.047Z</time></trkpt><trkpt lat="40.61826" lon="14.9723633"><ele>65.0</ele><time>2026-03-28T15:43:16.047Z</time></trkpt><trkpt lat="40.6185233" lon="14.9725133"><ele>66.5</ele><time>2026-03-28T15:43:17.047Z</time></trkpt><trkpt lat="40.6187667" lon="14.972655"><ele>68.0</ele><time>2026-03-28T15:43:18.047Z</time></trkpt><trkpt lat="40.618995" lon="14.97279"><ele>68.0</ele><time>2026-03-28T15:43:19.047Z</time></trkpt><trkpt lat="40.6192133" lon="14.9729183"><ele>68.0</ele><time>2026-03-28T15:43:20.047Z</time></trkpt><trkpt lat="40.6194133" lon="14.9730333"><ele>68.66666666666667</ele><time>2026-03-28T15:43:21.048Z</time></trkpt><trkpt lat="40.619605" lon="14.9731317"><ele>69.33333333333333</ele><time>2026-03-28T15:43:22.047Z</time></trkpt><trkpt lat="40.6197933" lon="14.97321"><ele>70.0</ele><time>2026-03-28T15:43:23.047Z</time></trkpt><trkpt lat="40.6199783" lon="14.9732667"><ele>70.0</ele><time>2026-03-28T15:43:24.047Z</time></trkpt><trkpt lat="40.62016" lon="14.9733067"><ele>70.0</ele><time>2026-03-28T15:43:25.048Z</time></trkpt><trkpt lat="40.620335" lon="14.9733317"><ele>70.0</ele><time>2026-03-28T15:43:26.047Z</time></trkpt><trkpt lat="40.62051" lon="14.9733633"><ele>69.66666666666666</ele><time>2026-03-28T15:43:27.048Z</time></trkpt><trkpt lat="40.6206833" lon="14.9733967"><ele>69.33333333333333</ele><time>2026-03-28T15:43:28.047Z</time></trkpt><trkpt lat="40.62084" lon="14.9734333"><ele>69.0</ele><time>2026-03-28T15:43:29.048Z</time></trkpt><trkpt lat="40.6209833" lon="14.97345"><ele>69.0</ele><time>2026-03-28T15:43:30.048Z</time></trkpt><trkpt lat="40.62111" lon="14.9734567"><ele>69.0</ele><time>2026-03-28T15:43:31.047Z</time></trkpt><trkpt lat="40.6212267" lon="14.9734517"><ele>69.0</ele><time>2026-03-28T15:43:32.047Z</time></trkpt><trkpt lat="40.6213383" lon="14.973425"><ele>69.0</ele><time>2026-03-28T15:43:33.048Z</time></trkpt><trkpt lat="40.62144" lon="14.9733783"><ele>69.2</ele><time>2026-03-28T15:43:34.047Z</time></trkpt><trkpt lat="40.6215383" lon="14.97331"><ele>69.4</ele><time>2026-03-28T15:43:35.047Z</time></trkpt><trkpt lat="40.6216233" lon="14.9732183"><ele>69.6</ele><time>2026-03-28T15:43:36.048Z</time></trkpt><trkpt lat="40.6216917" lon="14.973105"><ele>69.8</ele><time>2026-03-28T15:43:37.048Z</time></trkpt><trkpt lat="40.62175" lon="14.97297"><ele>70.0</ele><time>2026-03-28T15:43:38.048Z</time></trkpt><trkpt lat="40.621785" lon="14.9728133"><ele>70.0</ele><time>2026-03-28T15:43:39.047Z</time></trkpt><trkpt lat="40.6217983" lon="14.97264"><ele>70.0</ele><time>2026-03-28T15:43:40.048Z</time></trkpt><trkpt lat="40.6217817" lon="14.97246"><ele>70.0</ele><time>2026-03-28T15:43:41.047Z</time></trkpt><trkpt lat="40.6217317" lon="14.9722817"><ele>70.0</ele><time>2026-03-28T15:43:42.047Z</time></trkpt><trkpt lat="40.6216583" lon="14.9721217"><ele>69.75</ele><time>2026-03-28T15:43:43.047Z</time></trkpt><trkpt lat="40.621555" lon="14.9719983"><ele>69.5</ele><time>2026-03-28T15:43:44.048Z</time></trkpt><trkpt lat="40.6214417" lon="14.9718983"><ele>69.25</ele><time>2026-03-28T15:43:45.047Z</time></trkpt><trkpt lat="40.6213167" lon="14.9718133"><ele>69.0</ele><time>2026-03-28T15:43:46.048Z</time></trkpt><trkpt lat="40.6211883" lon="14.971735"><ele>67.75</ele><time>2026-03-28T15:43:47.047Z</time></trkpt><trkpt lat="40.62107" lon="14.9716367"><ele>66.5</ele><time>2026-03-28T15:43:48.048Z</time></trkpt><trkpt lat="40.620965" lon="14.9715233"><ele>65.25</ele><time>2026-03-28T15:43:49.047Z</time></trkpt><trkpt lat="40.6208783" lon="14.971395"><ele>64.0</ele><time>2026-03-28T15:43:50.048Z</time></trkpt><trkpt lat="40.6208067" lon="14.9712533"><ele>64.0</ele><time>2026-03-28T15:43:51.047Z</time></trkpt><trkpt lat="40.6207583" lon="14.9710983"><ele>64.0</ele><time>2026-03-28T15:43:52.048Z</time></trkpt><trkpt lat="40.6207283" lon="14.970935"><ele>64.0</ele><time>2026-03-28T15:43:53.048Z</time></trkpt><trkpt lat="40.62071" lon="14.970755"><ele>64.0</ele><time>2026-03-28T15:43:54.047Z</time></trkpt><trkpt lat="40.6207" lon="14.970555"><ele>65.0</ele><time>2026-03-28T15:43:55.048Z</time></trkpt><trkpt lat="40.620695" lon="14.970325"><ele>66.0</ele><time>2026-03-28T15:43:56.048Z</time></trkpt><trkpt lat="40.6206917" lon="14.9700683"><ele>67.0</ele><time>2026-03-28T15:43:57.048Z</time></trkpt><trkpt lat="40.6206917" lon="14.9697817"><ele>67.0</ele><time>2026-03-28T15:43:58.047Z</time></trkpt><trkpt lat="40.6206983" lon="14.96946"><ele>67.0</ele><time>2026-03-28T15:43:59.047Z</time></trkpt><trkpt lat="40.6207033" lon="14.9691117"><ele>66.5</ele><time>2026-03-28T15:44:00.048Z</time></trkpt><trkpt lat="40.6207117" lon="14.96873"><ele>66.0</ele><time>2026-03-28T15:44:01.048Z</time></trkpt><trkpt lat="40.6207183" lon="14.9683283"><ele>66.0</ele><time>2026-03-28T15:44:02.047Z</time></trkpt><trkpt lat="40.62073" lon="14.9679267"><ele>66.0</ele><time>2026-03-28T15:44:03.047Z</time></trkpt><trkpt lat="40.6207483" lon="14.967505"><ele>65.0</ele><time>2026-03-28T15:44:04.047Z</time></trkpt><trkpt lat="40.62077" lon="14.9670783"><ele>64.0</ele><time>2026-03-28T15:44:05.048Z</time></trkpt><trkpt lat="40.6207967" lon="14.9666583"><ele>63.5</ele><time>2026-03-28T15:44:06.048Z</time></trkpt><trkpt lat="40.62083" lon="14.96624"><ele>63.0</ele><time>2026-03-28T15:44:07.048Z</time></trkpt><trkpt lat="40.620875" lon="14.9658217"><ele>62.0</ele><time>2026-03-28T15:44:08.048Z</time></trkpt><trkpt lat="40.62093" lon="14.9654033"><ele>61.0</ele><time>2026-03-28T15:44:09.047Z</time></trkpt><trkpt lat="40.6209983" lon="14.9649883"><ele>61.0</ele><time>2026-03-28T15:44:10.047Z</time></trkpt><trkpt lat="40.621075" lon="14.96458"><ele>61.0</ele><time>2026-03-28T15:44:11.047Z</time></trkpt><trkpt lat="40.62116" lon="14.96418"><ele>61.0</ele><time>2026-03-28T15:44:12.048Z</time></trkpt><trkpt lat="40.6212483" lon="14.96379"><ele>61.0</ele><time>2026-03-28T15:44:13.047Z</time></trkpt><trkpt lat="40.6213433" lon="14.9634117"><ele>60.0</ele><time>2026-03-28T15:44:14.047Z</time></trkpt><trkpt lat="40.621435" lon="14.9630383"><ele>59.0</ele><time>2026-03-28T15:44:15.047Z</time></trkpt><trkpt lat="40.6215333" lon="14.9626667"><ele>58.0</ele><time>2026-03-28T15:44:16.048Z</time></trkpt><trkpt lat="40.62163" lon="14.9622917"><ele>57.0</ele><time>2026-03-28T15:44:17.048Z</time></trkpt><trkpt lat="40.6217267" lon="14.96191"><ele>57.5</ele><time>2026-03-28T15:44:18.047Z</time></trkpt><trkpt lat="40.6218267" lon="14.9615233"><ele>58.0</ele><time>2026-03-28T15:44:19.047Z</time></trkpt><trkpt lat="40.6219333" lon="14.9611283"><ele>59.0</ele><time>2026-03-28T15:44:20.048Z</time></trkpt><trkpt lat="40.62204" lon="14.9607317"><ele>60.0</ele><time>2026-03-28T15:44:21.047Z</time></trkpt><trkpt lat="40.6221467" lon="14.9603317"><ele>60.5</ele><time>2026-03-28T15:44:22.047Z</time></trkpt><trkpt lat="40.6222567" lon="14.95993"><ele>61.0</ele><time>2026-03-28T15:44:23.047Z</time></trkpt><trkpt lat="40.622365" lon="14.9595317"><ele>61.0</ele><time>2026-03-28T15:44:24.047Z</time></trkpt><trkpt lat="40.6224733" lon="14.9591333"><ele>61.0</ele><time>2026-03-28T15:44:25.047Z</time></trkpt><trkpt lat="40.6225817" lon="14.9587283"><ele>61.5</ele><time>2026-03-28T15:44:26.047Z</time></trkpt><trkpt lat="40.622695" lon="14.9583283"><ele>62.0</ele><time>2026-03-28T15:44:27.047Z</time></trkpt><trkpt lat="40.6228067" lon="14.95793"><ele>62.5</ele><time>2026-03-28T15:44:28.047Z</time></trkpt><trkpt lat="40.6229183" lon="14.95754"><ele>63.0</ele><time>2026-03-28T15:44:29.048Z</time></trkpt><trkpt lat="40.62303" lon="14.9571533"><ele>64.0</ele><time>2026-03-28T15:44:30.047Z</time></trkpt><trkpt lat="40.6231483" lon="14.95677"><ele>65.0</ele><time>2026-03-28T15:44:31.048Z</time></trkpt><trkpt lat="40.6232683" lon="14.956395"><ele>65.0</ele><time>2026-03-28T15:44:32.048Z</time></trkpt><trkpt lat="40.6233933" lon="14.9560183"><ele>65.0</ele><time>2026-03-28T15:44:33.047Z</time></trkpt><trkpt lat="40.62352" lon="14.9556433"><ele>66.5</ele><time>2026-03-28T15:44:34.048Z</time></trkpt><trkpt lat="40.6236517" lon="14.9552733"><ele>68.0</ele><time>2026-03-28T15:44:35.047Z</time></trkpt><trkpt lat="40.6237817" lon="14.9549017"><ele>68.5</ele><time>2026-03-28T15:44:36.047Z</time></trkpt><trkpt lat="40.623915" lon="14.9545383"><ele>69.0</ele><time>2026-03-28T15:44:37.047Z</time></trkpt><trkpt lat="40.6240483" lon="14.9541733"><ele>67.5</ele><time>2026-03-28T15:44:38.048Z</time></trkpt><trkpt lat="40.624185" lon="14.9538067"><ele>66.0</ele><time>2026-03-28T15:44:39.047Z</time></trkpt><trkpt lat="40.6243233" lon="14.9534417"><ele>66.0</ele><time>2026-03-28T15:44:40.047Z</time></trkpt><trkpt lat="40.6244717" lon="14.9530767"><ele>66.0</ele><time>2026-03-28T15:44:41.047Z</time></trkpt><trkpt lat="40.6246167" lon="14.9527317"><ele>66.0</ele><time>2026-03-28T15:44:42.048Z</time></trkpt><trkpt lat="40.6247633" lon="14.9523567"><ele>66.0</ele><time>2026-03-28T15:44:43.048Z</time></trkpt><trkpt lat="40.6249067" lon="14.95199"><ele>64.0</ele><time>2026-03-28T15:44:44.047Z</time></trkpt><trkpt lat="40.6250517" lon="14.951625"><ele>62.0</ele><time>2026-03-28T15:44:45.047Z</time></trkpt><trkpt lat="40.6252017" lon="14.9512517"><ele>62.5</ele><time>2026-03-28T15:44:46.048Z</time></trkpt><trkpt lat="40.6253483" lon="14.9508783"><ele>63.0</ele><time>2026-03-28T15:44:47.047Z</time></trkpt><trkpt lat="40.625495" lon="14.9505067"><ele>61.5</ele><time>2026-03-28T15:44:48.047Z</time></trkpt><trkpt lat="40.625645" lon="14.95013"><ele>60.0</ele><time>2026-03-28T15:44:49.047Z</time></trkpt><trkpt lat="40.6258033" lon="14.94975"><ele>60.0</ele><time>2026-03-28T15:44:50.047Z</time></trkpt><trkpt lat="40.6259517" lon="14.9493667"><ele>60.0</ele><time>2026-03-28T15:44:51.048Z</time></trkpt><trkpt lat="40.6260983" lon="14.9489917"><ele>60.5</ele><time>2026-03-28T15:44:52.047Z</time></trkpt><trkpt lat="40.6262483" lon="14.9486117"><ele>61.0</ele><time>2026-03-28T15:44:53.048Z</time></trkpt><trkpt lat="40.62639" lon="14.9482383"><ele>61.0</ele><time>2026-03-28T15:44:54.048Z</time></trkpt><trkpt lat="40.6265367" lon="14.9478633"><ele>61.0</ele><time>2026-03-28T15:44:55.048Z</time></trkpt><trkpt lat="40.6266817" lon="14.9474917"><ele>61.0</ele><time>2026-03-28T15:44:56.048Z</time></trkpt><trkpt lat="40.6268267" lon="14.9471233"><ele>61.0</ele><time>2026-03-28T15:44:57.047Z</time></trkpt><trkpt lat="40.6269667" lon="14.9467533"><ele>62.0</ele><time>2026-03-28T15:44:58.047Z</time></trkpt><trkpt lat="40.6271033" lon="14.94638"><ele>63.0</ele><time>2026-03-28T15:44:59.047Z</time></trkpt><trkpt lat="40.627235" lon="14.946"><ele>62.5</ele><time>2026-03-28T15:45:00.048Z</time></trkpt><trkpt lat="40.6273617" lon="14.9456117"><ele>62.0</ele><time>2026-03-28T15:45:01.048Z</time></trkpt><trkpt lat="40.6274817" lon="14.94522"><ele>62.5</ele><time>2026-03-28T15:45:02.048Z</time></trkpt><trkpt lat="40.6275883" lon="14.9448233"><ele>63.0</ele><time>2026-03-28T15:45:03.048Z</time></trkpt><trkpt lat="40.62769" lon="14.9444267"><ele>63.0</ele><time>2026-03-28T15:45:04.048Z</time></trkpt><trkpt lat="40.6277867" lon="14.9440267"><ele>63.0</ele><time>2026-03-28T15:45:05.048Z</time></trkpt><trkpt lat="40.627875" lon="14.9436233"><ele>64.0</ele><time>2026-03-28T15:45:06.048Z</time></trkpt><trkpt lat="40.62795" lon="14.943215"><ele>65.0</ele><time>2026-03-28T15:45:07.047Z</time></trkpt><trkpt lat="40.628015" lon="14.9428067"><ele>65.0</ele><time>2026-03-28T15:45:08.048Z</time></trkpt><trkpt lat="40.6280633" lon="14.942405"><ele>65.0</ele><time>2026-03-28T15:45:09.048Z</time></trkpt><trkpt lat="40.62811" lon="14.9420083"><ele>65.0</ele><time>2026-03-28T15:45:10.047Z</time></trkpt><trkpt lat="40.6281467" lon="14.941615"><ele>65.0</ele><time>2026-03-28T15:45:11.047Z</time></trkpt><trkpt lat="40.62818" lon="14.94122"><ele>64.5</ele><time>2026-03-28T15:45:12.047Z</time></trkpt><trkpt lat="40.6282133" lon="14.94082"><ele>64.0</ele><time>2026-03-28T15:45:13.047Z</time></trkpt><trkpt lat="40.6282367" lon="14.9404117"><ele>64.0</ele><time>2026-03-28T15:45:14.047Z</time></trkpt><trkpt lat="40.628255" lon="14.9399867"><ele>64.0</ele><time>2026-03-28T15:45:15.047Z</time></trkpt><trkpt lat="40.6282767" lon="14.9395517"><ele>64.0</ele><time>2026-03-28T15:45:16.047Z</time></trkpt><trkpt lat="40.6282983" lon="14.9391117"><ele>64.0</ele><time>2026-03-28T15:45:17.047Z</time></trkpt><trkpt lat="40.62832" lon="14.93867"><ele>63.5</ele><time>2026-03-28T15:45:18.048Z</time></trkpt><trkpt lat="40.6283367" lon="14.9382317"><ele>63.0</ele><time>2026-03-28T15:45:19.047Z</time></trkpt><trkpt lat="40.6283583" lon="14.9377817"><ele>61.5</ele><time>2026-03-28T15:45:20.048Z</time></trkpt><trkpt lat="40.6283867" lon="14.937335"><ele>60.0</ele><time>2026-03-28T15:45:21.047Z</time></trkpt><trkpt lat="40.62842" lon="14.93689"><ele>60.0</ele><time>2026-03-28T15:45:22.047Z</time></trkpt><trkpt lat="40.6284567" lon="14.936445"><ele>60.0</ele><time>2026-03-28T15:45:23.047Z</time></trkpt><trkpt lat="40.6284933" lon="14.9360017"><ele>59.0</ele><time>2026-03-28T15:45:24.047Z</time></trkpt><trkpt lat="40.6285433" lon="14.935565"><ele>58.0</ele><time>2026-03-28T15:45:25.047Z</time></trkpt><trkpt lat="40.6285983" lon="14.935125"><ele>58.5</ele><time>2026-03-28T15:45:26.048Z</time></trkpt><trkpt lat="40.6286617" lon="14.9346867"><ele>59.0</ele><time>2026-03-28T15:45:27.047Z</time></trkpt><trkpt lat="40.6287317" lon="14.934255"><ele>58.5</ele><time>2026-03-28T15:45:28.048Z</time></trkpt><trkpt lat="40.6288058" lon="14.9338253"><ele>58.0</ele><time>2026-03-28T15:45:29.048Z</time></trkpt><trkpt lat="40.6288906" lon="14.9334021"><ele>58.0</ele><time>2026-03-28T15:45:30.047Z</time></trkpt><trkpt lat="40.6289835" lon="14.9329829"><ele>58.0</ele><time>2026-03-28T15:45:31.048Z</time></trkpt><trkpt lat="40.6290842" lon="14.932564"><ele>58.5</ele><time>2026-03-28T15:45:32.047Z</time></trkpt><trkpt lat="40.6291923" lon="14.9321564"><ele>59.0</ele><time>2026-03-28T15:45:33.048Z</time></trkpt><trkpt lat="40.6293024" lon="14.9317671"><ele>59.0</ele><time>2026-03-28T15:45:34.048Z</time></trkpt><trkpt lat="40.6294132" lon="14.9313989"><ele>59.0</ele><time>2026-03-28T15:45:35.047Z</time></trkpt><trkpt lat="40.6295273" lon="14.9310363"><ele>59.0</ele><time>2026-03-28T15:45:36.047Z</time></trkpt><trkpt lat="40.6296407" lon="14.9306788"><ele>59.0</ele><time>2026-03-28T15:45:37.048Z</time></trkpt><trkpt lat="40.6297529" lon="14.930321"><ele>59.0</ele><time>2026-03-28T15:45:38.047Z</time></trkpt><trkpt lat="40.6298698" lon="14.9299619"><ele>59.0</ele><time>2026-03-28T15:45:39.048Z</time></trkpt><trkpt lat="40.6299881" lon="14.929595"><ele>58.0</ele><time>2026-03-28T15:45:40.047Z</time></trkpt><trkpt lat="40.630113" lon="14.9292202"><ele>57.0</ele><time>2026-03-28T15:45:41.047Z</time></trkpt><trkpt lat="40.6302424" lon="14.9288365"><ele>56.5</ele><time>2026-03-28T15:45:42.047Z</time></trkpt><trkpt lat="40.630374" lon="14.9284441"><ele>56.0</ele><time>2026-03-28T15:45:43.048Z</time></trkpt><trkpt lat="40.6305056" lon="14.9280412"><ele>56.0</ele><time>2026-03-28T15:45:44.048Z</time></trkpt><trkpt lat="40.6306399" lon="14.9276332"><ele>56.0</ele><time>2026-03-28T15:45:45.048Z</time></trkpt><trkpt lat="40.6307776" lon="14.9272217"><ele>55.5</ele><time>2026-03-28T15:45:46.047Z</time></trkpt><trkpt lat="40.6309172" lon="14.9268095"><ele>55.0</ele><time>2026-03-28T15:45:47.048Z</time></trkpt><trkpt lat="40.6310587" lon="14.9263981"><ele>55.0</ele><time>2026-03-28T15:45:48.048Z</time></trkpt><trkpt lat="40.6311978" lon="14.9259841"><ele>55.0</ele><time>2026-03-28T15:45:49.047Z</time></trkpt><trkpt lat="40.6313366" lon="14.9255673"><ele>54.0</ele><time>2026-03-28T15:45:50.047Z</time></trkpt><trkpt lat="40.6314774" lon="14.9251479"><ele>53.0</ele><time>2026-03-28T15:45:51.048Z</time></trkpt><trkpt lat="40.6316157" lon="14.9247275"><ele>52.0</ele><time>2026-03-28T15:45:52.048Z</time></trkpt><trkpt lat="40.6317539" lon="14.9243086"><ele>51.0</ele><time>2026-03-28T15:45:53.047Z</time></trkpt><trkpt lat="40.6318925" lon="14.923887"><ele>51.5</ele><time>2026-03-28T15:45:54.047Z</time></trkpt><trkpt lat="40.6320335" lon="14.9234608"><ele>52.0</ele><time>2026-03-28T15:45:55.047Z</time></trkpt><trkpt lat="40.6321798" lon="14.9230299"><ele>52.0</ele><time>2026-03-28T15:45:56.047Z</time></trkpt><trkpt lat="40.6323249" lon="14.9225942"><ele>52.0</ele><time>2026-03-28T15:45:57.048Z</time></trkpt><trkpt lat="40.6324686" lon="14.9221591"><ele>50.0</ele><time>2026-03-28T15:45:58.049Z</time></trkpt><trkpt lat="40.6326121" lon="14.9217241"><ele>48.0</ele><time>2026-03-28T15:45:59.049Z</time></trkpt><trkpt lat="40.6327577" lon="14.9212892"><ele>48.5</ele><time>2026-03-28T15:46:00.049Z</time></trkpt><trkpt lat="40.632903" lon="14.9208543"><ele>49.0</ele><time>2026-03-28T15:46:01.049Z</time></trkpt><trkpt lat="40.6330529" lon="14.9204217"><ele>48.0</ele><time>2026-03-28T15:46:02.048Z</time></trkpt><trkpt lat="40.6331994" lon="14.9199846"><ele>47.0</ele><time>2026-03-28T15:46:03.049Z</time></trkpt><trkpt lat="40.6333449" lon="14.9195462"><ele>47.5</ele><time>2026-03-28T15:46:04.049Z</time></trkpt><trkpt lat="40.6334868" lon="14.9191119"><ele>48.0</ele><time>2026-03-28T15:46:05.048Z</time></trkpt><trkpt lat="40.6336319" lon="14.9186736"><ele>46.5</ele><time>2026-03-28T15:46:06.049Z</time></trkpt><trkpt lat="40.6337782" lon="14.9182318"><ele>45.0</ele><time>2026-03-28T15:46:07.049Z</time></trkpt><trkpt lat="40.6339248" lon="14.9177886"><ele>44.5</ele><time>2026-03-28T15:46:08.048Z</time></trkpt><trkpt lat="40.6340714" lon="14.9173467"><ele>44.0</ele><time>2026-03-28T15:46:09.048Z</time></trkpt><trkpt lat="40.6342176" lon="14.9169154"><ele>43.0</ele><time>2026-03-28T15:46:10.049Z</time></trkpt><trkpt lat="40.6343585" lon="14.9164985"><ele>42.0</ele><time>2026-03-28T15:46:11.048Z</time></trkpt><trkpt lat="40.634492" lon="14.9160981"><ele>42.0</ele><time>2026-03-28T15:46:12.048Z</time></trkpt><trkpt lat="40.6346263" lon="14.9157153"><ele>42.0</ele><time>2026-03-28T15:46:13.049Z</time></trkpt><trkpt lat="40.6347597" lon="14.9153445"><ele>42.0</ele><time>2026-03-28T15:46:14.048Z</time></trkpt><trkpt lat="40.6348898" lon="14.9149851"><ele>42.0</ele><time>2026-03-28T15:46:15.048Z</time></trkpt><trkpt lat="40.6350115" lon="14.9146184"><ele>42.0</ele><time>2026-03-28T15:46:16.049Z</time></trkpt><trkpt lat="40.6351347" lon="14.9142556"><ele>42.0</ele><time>2026-03-28T15:46:17.048Z</time></trkpt><trkpt lat="40.6352545" lon="14.9138921"><ele>40.0</ele><time>2026-03-28T15:46:18.048Z</time></trkpt><trkpt lat="40.6353767" lon="14.9135312"><ele>38.0</ele><time>2026-03-28T15:46:19.048Z</time></trkpt><trkpt lat="40.6354975" lon="14.9131687"><ele>38.0</ele><time>2026-03-28T15:46:20.048Z</time></trkpt><trkpt lat="40.6356212" lon="14.9128003"><ele>38.0</ele><time>2026-03-28T15:46:21.049Z</time></trkpt><trkpt lat="40.6357443" lon="14.912423"><ele>38.5</ele><time>2026-03-28T15:46:22.048Z</time></trkpt><trkpt lat="40.6358704" lon="14.9120396"><ele>39.0</ele><time>2026-03-28T15:46:23.049Z</time></trkpt><trkpt lat="40.6359973" lon="14.9116534"><ele>39.0</ele><time>2026-03-28T15:46:24.048Z</time></trkpt><trkpt lat="40.6361258" lon="14.9112629"><ele>39.0</ele><time>2026-03-28T15:46:25.048Z</time></trkpt><trkpt lat="40.6362582" lon="14.9108667"><ele>38.0</ele><time>2026-03-28T15:46:26.048Z</time></trkpt><trkpt lat="40.6363916" lon="14.9104666"><ele>37.0</ele><time>2026-03-28T15:46:27.048Z</time></trkpt><trkpt lat="40.6365278" lon="14.9100629"><ele>36.5</ele><time>2026-03-28T15:46:28.049Z</time></trkpt><trkpt lat="40.6366657" lon="14.9096588"><ele>36.0</ele><time>2026-03-28T15:46:29.048Z</time></trkpt><trkpt lat="40.6368067" lon="14.909247"><ele>37.0</ele><time>2026-03-28T15:46:30.048Z</time></trkpt><trkpt lat="40.6369489" lon="14.9088289"><ele>38.0</ele><time>2026-03-28T15:46:31.048Z</time></trkpt><trkpt lat="40.6370963" lon="14.9084107"><ele>39.0</ele><time>2026-03-28T15:46:32.049Z</time></trkpt><trkpt lat="40.6372525" lon="14.9079881"><ele>40.0</ele><time>2026-03-28T15:46:33.048Z</time></trkpt><trkpt lat="40.637417" lon="14.9075694"><ele>40.0</ele><time>2026-03-28T15:46:34.048Z</time></trkpt><trkpt lat="40.6375913" lon="14.9071445"><ele>40.0</ele><time>2026-03-28T15:46:35.049Z</time></trkpt><trkpt lat="40.6377717" lon="14.9067193"><ele>40.0</ele><time>2026-03-28T15:46:36.048Z</time></trkpt><trkpt lat="40.6379584" lon="14.9062941"><ele>40.0</ele><time>2026-03-28T15:46:37.049Z</time></trkpt><trkpt lat="40.6381419" lon="14.9058701"><ele>39.5</ele><time>2026-03-28T15:46:38.049Z</time></trkpt><trkpt lat="40.6383267" lon="14.9054485"><ele>39.0</ele><time>2026-03-28T15:46:39.048Z</time></trkpt><trkpt lat="40.6385121" lon="14.9050277"><ele>39.0</ele><time>2026-03-28T15:46:40.049Z</time></trkpt><trkpt lat="40.6386978" lon="14.9046072"><ele>39.0</ele><time>2026-03-28T15:46:41.049Z</time></trkpt><trkpt lat="40.6388852" lon="14.9041888"><ele>39.0</ele><time>2026-03-28T15:46:42.049Z</time></trkpt><trkpt lat="40.6390734" lon="14.903772"><ele>39.0</ele><time>2026-03-28T15:46:43.049Z</time></trkpt><trkpt lat="40.6392627" lon="14.9033707"><ele>39.5</ele><time>2026-03-28T15:46:44.048Z</time></trkpt><trkpt lat="40.6394474" lon="14.9029648"><ele>40.0</ele><time>2026-03-28T15:46:45.049Z</time></trkpt><trkpt lat="40.6396288" lon="14.9025634"><ele>40.0</ele><time>2026-03-28T15:46:46.048Z</time></trkpt><trkpt lat="40.6398061" lon="14.9021679"><ele>40.0</ele><time>2026-03-28T15:46:47.048Z</time></trkpt><trkpt lat="40.6399839" lon="14.9017743"><ele>39.5</ele><time>2026-03-28T15:46:48.048Z</time></trkpt><trkpt lat="40.6401625" lon="14.9013883"><ele>39.0</ele><time>2026-03-28T15:46:49.049Z</time></trkpt><trkpt lat="40.6403423" lon="14.9010021"><ele>39.5</ele><time>2026-03-28T15:46:50.048Z</time></trkpt><trkpt lat="40.6405198" lon="14.9006158"><ele>40.0</ele><time>2026-03-28T15:46:51.049Z</time></trkpt><trkpt lat="40.6406967" lon="14.9002281"><ele>39.5</ele><time>2026-03-28T15:46:52.048Z</time></trkpt><trkpt lat="40.6408734" lon="14.8998449"><ele>39.0</ele><time>2026-03-28T15:46:53.048Z</time></trkpt><trkpt lat="40.6410535" lon="14.8994619"><ele>38.5</ele><time>2026-03-28T15:46:54.049Z</time></trkpt><trkpt lat="40.6412348" lon="14.899081"><ele>38.0</ele><time>2026-03-28T15:46:55.049Z</time></trkpt><trkpt lat="40.6414143" lon="14.8986994"><ele>37.5</ele><time>2026-03-28T15:46:56.048Z</time></trkpt><trkpt lat="40.6415989" lon="14.8983118"><ele>37.0</ele><time>2026-03-28T15:46:57.049Z</time></trkpt><trkpt lat="40.6417824" lon="14.897913"><ele>38.0</ele><time>2026-03-28T15:46:58.049Z</time></trkpt><trkpt lat="40.6419661" lon="14.8975106"><ele>39.0</ele><time>2026-03-28T15:46:59.048Z</time></trkpt><trkpt lat="40.6421486" lon="14.8971063"><ele>39.0</ele><time>2026-03-28T15:47:00.049Z</time></trkpt><trkpt lat="40.6423319" lon="14.896701"><ele>39.0</ele><time>2026-03-28T15:47:01.048Z</time></trkpt><trkpt lat="40.6425201" lon="14.8962951"><ele>39.5</ele><time>2026-03-28T15:47:02.048Z</time></trkpt><trkpt lat="40.6427121" lon="14.8958935"><ele>40.0</ele><time>2026-03-28T15:47:03.049Z</time></trkpt><trkpt lat="40.6428967" lon="14.8954932"><ele>40.5</ele><time>2026-03-28T15:47:04.048Z</time></trkpt><trkpt lat="40.6430805" lon="14.8950893"><ele>41.0</ele><time>2026-03-28T15:47:05.048Z</time></trkpt><trkpt lat="40.6432638" lon="14.8946803"><ele>41.0</ele><time>2026-03-28T15:47:06.049Z</time></trkpt><trkpt lat="40.6434465" lon="14.8942683"><ele>41.0</ele><time>2026-03-28T15:47:07.049Z</time></trkpt><trkpt lat="40.6436308" lon="14.893857"><ele>42.0</ele><time>2026-03-28T15:47:08.049Z</time></trkpt><trkpt lat="40.6438183" lon="14.8934417"><ele>43.0</ele><time>2026-03-28T15:47:09.049Z</time></trkpt><trkpt lat="40.6440114" lon="14.8930255"><ele>43.0</ele><time>2026-03-28T15:47:10.048Z</time></trkpt><trkpt lat="40.6441977" lon="14.8926097"><ele>43.0</ele><time>2026-03-28T15:47:11.049Z</time></trkpt><trkpt lat="40.644382" lon="14.8921911"><ele>44.5</ele><time>2026-03-28T15:47:12.049Z</time></trkpt><trkpt lat="40.6445676" lon="14.8917754"><ele>46.0</ele><time>2026-03-28T15:47:13.048Z</time></trkpt><trkpt lat="40.6447534" lon="14.8913594"><ele>46.0</ele><time>2026-03-28T15:47:14.048Z</time></trkpt><trkpt lat="40.6449327" lon="14.8909446"><ele>46.0</ele><time>2026-03-28T15:47:15.048Z</time></trkpt><trkpt lat="40.6451135" lon="14.8905284"><ele>46.0</ele><time>2026-03-28T15:47:16.049Z</time></trkpt><trkpt lat="40.6452978" lon="14.8901088"><ele>46.0</ele><time>2026-03-28T15:47:17.048Z</time></trkpt><trkpt lat="40.6454866" lon="14.8896864"><ele>46.0</ele><time>2026-03-28T15:47:18.049Z</time></trkpt><trkpt lat="40.6456755" lon="14.8892617"><ele>46.0</ele><time>2026-03-28T15:47:19.048Z</time></trkpt><trkpt lat="40.6458629" lon="14.8888377"><ele>45.5</ele><time>2026-03-28T15:47:20.048Z</time></trkpt><trkpt lat="40.6460546" lon="14.8884142"><ele>45.0</ele><time>2026-03-28T15:47:21.048Z</time></trkpt><trkpt lat="40.6462415" lon="14.8879896"><ele>44.0</ele><time>2026-03-28T15:47:22.049Z</time></trkpt><trkpt lat="40.6464281" lon="14.8875652"><ele>43.0</ele><time>2026-03-28T15:47:23.049Z</time></trkpt><trkpt lat="40.6466151" lon="14.8871372"><ele>43.0</ele><time>2026-03-28T15:47:24.048Z</time></trkpt><trkpt lat="40.6468005" lon="14.8867132"><ele>43.0</ele><time>2026-03-28T15:47:25.049Z</time></trkpt><trkpt lat="40.6469876" lon="14.8862906"><ele>43.5</ele><time>2026-03-28T15:47:26.049Z</time></trkpt><trkpt lat="40.6471794" lon="14.8858701"><ele>44.0</ele><time>2026-03-28T15:47:27.048Z</time></trkpt><trkpt lat="40.6473699" lon="14.88545"><ele>43.0</ele><time>2026-03-28T15:47:28.049Z</time></trkpt><trkpt lat="40.6475564" lon="14.8850288"><ele>42.0</ele><time>2026-03-28T15:47:29.048Z</time></trkpt><trkpt lat="40.647743" lon="14.8846072"><ele>42.0</ele><time>2026-03-28T15:47:30.048Z</time></trkpt><trkpt lat="40.647932" lon="14.8841857"><ele>42.0</ele><time>2026-03-28T15:47:31.048Z</time></trkpt><trkpt lat="40.6481193" lon="14.883763"><ele>41.5</ele><time>2026-03-28T15:47:32.049Z</time></trkpt><trkpt lat="40.6483062" lon="14.8833398"><ele>41.0</ele><time>2026-03-28T15:47:33.048Z</time></trkpt><trkpt lat="40.6484931" lon="14.8829149"><ele>41.0</ele><time>2026-03-28T15:47:34.049Z</time></trkpt><trkpt lat="40.648681" lon="14.8824924"><ele>41.0</ele><time>2026-03-28T15:47:35.048Z</time></trkpt><trkpt lat="40.6488652" lon="14.8820717"><ele>40.5</ele><time>2026-03-28T15:47:36.048Z</time></trkpt><trkpt lat="40.649049" lon="14.8816515"><ele>40.0</ele><time>2026-03-28T15:47:37.048Z</time></trkpt><trkpt lat="40.6492356" lon="14.8812324"><ele>40.0</ele><time>2026-03-28T15:47:38.049Z</time></trkpt><trkpt lat="40.6494183" lon="14.8808154"><ele>40.0</ele><time>2026-03-28T15:47:39.049Z</time></trkpt><trkpt lat="40.6495978" lon="14.8803958"><ele>39.0</ele><time>2026-03-28T15:47:40.048Z</time></trkpt><trkpt lat="40.64978" lon="14.879971"><ele>38.0</ele><time>2026-03-28T15:47:41.048Z</time></trkpt><trkpt lat="40.6499581" lon="14.8795508"><ele>38.0</ele><time>2026-03-28T15:47:42.048Z</time></trkpt><trkpt lat="40.6501378" lon="14.8791334"><ele>38.0</ele><time>2026-03-28T15:47:43.049Z</time></trkpt><trkpt lat="40.6503235" lon="14.8787223"><ele>37.0</ele><time>2026-03-28T15:47:44.048Z</time></trkpt><trkpt lat="40.6505064" lon="14.8783112"><ele>36.0</ele><time>2026-03-28T15:47:45.048Z</time></trkpt><trkpt lat="40.6506884" lon="14.877901"><ele>35.5</ele><time>2026-03-28T15:47:46.048Z</time></trkpt><trkpt lat="40.6508713" lon="14.87749"><ele>35.0</ele><time>2026-03-28T15:47:47.048Z</time></trkpt><trkpt lat="40.6510556" lon="14.8770764"><ele>35.5</ele><time>2026-03-28T15:47:48.048Z</time></trkpt><trkpt lat="40.651238" lon="14.8766653"><ele>36.0</ele><time>2026-03-28T15:47:49.049Z</time></trkpt><trkpt lat="40.6514225" lon="14.8762497"><ele>36.0</ele><time>2026-03-28T15:47:50.048Z</time></trkpt><trkpt lat="40.6516063" lon="14.8758355"><ele>36.0</ele><time>2026-03-28T15:47:51.049Z</time></trkpt><trkpt lat="40.6517922" lon="14.875418"><ele>35.0</ele><time>2026-03-28T15:47:52.048Z</time></trkpt><trkpt lat="40.651979" lon="14.8749981"><ele>34.0</ele><time>2026-03-28T15:47:53.049Z</time></trkpt><trkpt lat="40.6521659" lon="14.8745766"><ele>32.5</ele><time>2026-03-28T15:47:54.048Z</time></trkpt><trkpt lat="40.6523522" lon="14.8741536"><ele>31.0</ele><time>2026-03-28T15:47:55.048Z</time></trkpt><trkpt lat="40.6525315" lon="14.8737421"><ele>31.0</ele><time>2026-03-28T15:47:56.049Z</time></trkpt><trkpt lat="40.6527054" lon="14.8733488"><ele>31.0</ele><time>2026-03-28T15:47:57.048Z</time></trkpt><trkpt lat="40.6528664" lon="14.8729729"><ele>31.0</ele><time>2026-03-28T15:47:58.049Z</time></trkpt><trkpt lat="40.6530198" lon="14.8726074"><ele>31.0</ele><time>2026-03-28T15:47:59.049Z</time></trkpt><trkpt lat="40.6531681" lon="14.8722528"><ele>31.0</ele><time>2026-03-28T15:48:00.049Z</time></trkpt><trkpt lat="40.6533065" lon="14.8719077"><ele>31.0</ele><time>2026-03-28T15:48:01.049Z</time></trkpt><trkpt lat="40.6534431" lon="14.8715642"><ele>31.5</ele><time>2026-03-28T15:48:02.048Z</time></trkpt><trkpt lat="40.6535779" lon="14.8712229"><ele>32.0</ele><time>2026-03-28T15:48:03.049Z</time></trkpt><trkpt lat="40.6537156" lon="14.8708795"><ele>34.5</ele><time>2026-03-28T15:48:04.049Z</time></trkpt><trkpt lat="40.6538542" lon="14.8705307"><ele>37.0</ele><time>2026-03-28T15:48:05.048Z</time></trkpt><trkpt lat="40.654" lon="14.8701758"><ele>38.5</ele><time>2026-03-28T15:48:06.049Z</time></trkpt><trkpt lat="40.65415" lon="14.8698125"><ele>40.0</ele><time>2026-03-28T15:48:07.048Z</time></trkpt><trkpt lat="40.6543072" lon="14.8694354"><ele>41.5</ele><time>2026-03-28T15:48:08.048Z</time></trkpt><trkpt lat="40.6544678" lon="14.8690494"><ele>43.0</ele><time>2026-03-28T15:48:09.049Z</time></trkpt><trkpt lat="40.6546316" lon="14.8686502"><ele>43.0</ele><time>2026-03-28T15:48:10.049Z</time></trkpt><trkpt lat="40.6547985" lon="14.868243"><ele>43.0</ele><time>2026-03-28T15:48:11.049Z</time></trkpt><trkpt lat="40.654971" lon="14.8678303"><ele>43.0</ele><time>2026-03-28T15:48:12.049Z</time></trkpt><trkpt lat="40.655146" lon="14.8674081"><ele>43.0</ele><time>2026-03-28T15:48:13.048Z</time></trkpt><trkpt lat="40.6553239" lon="14.8669828"><ele>45.5</ele><time>2026-03-28T15:48:14.048Z</time></trkpt><trkpt lat="40.6554962" lon="14.866561"><ele>48.0</ele><time>2026-03-28T15:48:15.049Z</time></trkpt><trkpt lat="40.6556704" lon="14.8661407"><ele>47.0</ele><time>2026-03-28T15:48:16.048Z</time></trkpt><trkpt lat="40.6558461" lon="14.8657332"><ele>46.0</ele><time>2026-03-28T15:48:17.048Z</time></trkpt><trkpt lat="40.6560305" lon="14.8653433"><ele>46.5</ele><time>2026-03-28T15:48:18.048Z</time></trkpt><trkpt lat="40.6562246" lon="14.8649764"><ele>47.0</ele><time>2026-03-28T15:48:19.049Z</time></trkpt><trkpt lat="40.6564332" lon="14.8646242"><ele>47.0</ele><time>2026-03-28T15:48:20.049Z</time></trkpt><trkpt lat="40.6566471" lon="14.8642887"><ele>47.0</ele><time>2026-03-28T15:48:21.048Z</time></trkpt><trkpt lat="40.6568644" lon="14.863968"><ele>46.5</ele><time>2026-03-28T15:48:22.048Z</time></trkpt><trkpt lat="40.6570823" lon="14.8636696"><ele>46.0</ele><time>2026-03-28T15:48:23.049Z</time></trkpt><trkpt lat="40.6573075" lon="14.8633855"><ele>47.5</ele><time>2026-03-28T15:48:24.049Z</time></trkpt><trkpt lat="40.6575376" lon="14.8631143"><ele>49.0</ele><time>2026-03-28T15:48:25.048Z</time></trkpt><trkpt lat="40.6577769" lon="14.8628505"><ele>50.5</ele><time>2026-03-28T15:48:26.049Z</time></trkpt><trkpt lat="40.6580235" lon="14.862599"><ele>52.0</ele><time>2026-03-28T15:48:27.048Z</time></trkpt><trkpt lat="40.6582788" lon="14.8623611"><ele>52.0</ele><time>2026-03-28T15:48:28.049Z</time></trkpt><trkpt lat="40.6585399" lon="14.8621314"><ele>52.0</ele><time>2026-03-28T15:48:29.048Z</time></trkpt><trkpt lat="40.6588105" lon="14.8619002"><ele>54.5</ele><time>2026-03-28T15:48:30.049Z</time></trkpt><trkpt lat="40.6590833" lon="14.8616759"><ele>57.0</ele><time>2026-03-28T15:48:31.048Z</time></trkpt><trkpt lat="40.6593539" lon="14.8614594"><ele>62.5</ele><time>2026-03-28T15:48:32.049Z</time></trkpt><trkpt lat="40.6596211" lon="14.8612449"><ele>68.0</ele><time>2026-03-28T15:48:33.048Z</time></trkpt><trkpt lat="40.659889" lon="14.8610291"><ele>69.0</ele><time>2026-03-28T15:48:34.048Z</time></trkpt><trkpt lat="40.6601589" lon="14.8608121"><ele>70.0</ele><time>2026-03-28T15:48:35.048Z</time></trkpt><trkpt lat="40.6604291" lon="14.8606004"><ele>70.0</ele><time>2026-03-28T15:48:36.048Z</time></trkpt><trkpt lat="40.6607017" lon="14.8603983"><ele>70.0</ele><time>2026-03-28T15:48:37.048Z</time></trkpt><trkpt lat="40.6609743" lon="14.8602109"><ele>70.0</ele><time>2026-03-28T15:48:38.048Z</time></trkpt><trkpt lat="40.6612507" lon="14.860041"><ele>70.0</ele><time>2026-03-28T15:48:39.048Z</time></trkpt><trkpt lat="40.6615294" lon="14.8598844"><ele>70.0</ele><time>2026-03-28T15:48:40.048Z</time></trkpt><trkpt lat="40.6618137" lon="14.8597347"><ele>70.0</ele><time>2026-03-28T15:48:41.048Z</time></trkpt><trkpt lat="40.6621075" lon="14.85959"><ele>74.5</ele><time>2026-03-28T15:48:42.049Z</time></trkpt><trkpt lat="40.662417" lon="14.8594472"><ele>79.0</ele><time>2026-03-28T15:48:43.048Z</time></trkpt><trkpt lat="40.6627292" lon="14.859318"><ele>86.0</ele><time>2026-03-28T15:48:44.049Z</time></trkpt><trkpt lat="40.6630472" lon="14.8592095"><ele>93.0</ele><time>2026-03-28T15:48:45.048Z</time></trkpt><trkpt lat="40.6633709" lon="14.8591134"><ele>112.0</ele><time>2026-03-28T15:48:46.049Z</time></trkpt><trkpt lat="40.663696" lon="14.8590191"><ele>131.0</ele><time>2026-03-28T15:48:47.048Z</time></trkpt><trkpt lat="40.6640177" lon="14.8589188"><ele>131.0</ele><time>2026-03-28T15:48:48.048Z</time></trkpt><trkpt lat="40.6643346" lon="14.8588143"><ele>131.0</ele><time>2026-03-28T15:48:49.049Z</time></trkpt><trkpt lat="40.6646539" lon="14.8586909"><ele>147.5</ele><time>2026-03-28T15:48:50.048Z</time></trkpt><trkpt lat="40.6649751" lon="14.8585397"><ele>164.0</ele><time>2026-03-28T15:48:51.049Z</time></trkpt><trkpt lat="40.665293" lon="14.8583754"><ele>164.0</ele><time>2026-03-28T15:48:52.049Z</time></trkpt><trkpt lat="40.6656037" lon="14.8581963"><ele>164.0</ele><time>2026-03-28T15:48:53.048Z</time></trkpt><trkpt lat="40.6659099" lon="14.8580069"><ele>157.5</ele><time>2026-03-28T15:48:54.049Z</time></trkpt><trkpt lat="40.6662213" lon="14.8578393"><ele>151.0</ele><time>2026-03-28T15:48:55.048Z</time></trkpt><trkpt lat="40.666534" lon="14.8576779"><ele>145.5</ele><time>2026-03-28T15:48:56.048Z</time></trkpt><trkpt lat="40.6668471" lon="14.857517"><ele>140.0</ele><time>2026-03-28T15:48:57.049Z</time></trkpt><trkpt lat="40.6703371" lon="14.8582545"><ele>140.0</ele><time>2026-03-28T15:49:05.02Z</time></trkpt><trkpt lat="40.6707234" lon="14.8582167"><ele>140.0</ele><time>2026-03-28T15:49:06.02Z</time></trkpt><trkpt lat="40.6711098" lon="14.8581661"><ele>161.5</ele><time>2026-03-28T15:49:07.021Z</time></trkpt><trkpt lat="40.6714975" lon="14.8581136"><ele>183.0</ele><time>2026-03-28T15:49:08.021Z</time></trkpt><trkpt lat="40.6718933" lon="14.858067"><ele>195.0</ele><time>2026-03-28T15:49:09.02Z</time></trkpt><trkpt lat="40.67228" lon="14.8580153"><ele>207.0</ele><time>2026-03-28T15:49:10.021Z</time></trkpt><trkpt lat="40.6726654" lon="14.8579622"><ele>205.5</ele><time>2026-03-28T15:49:11.021Z</time></trkpt><trkpt lat="40.6730494" lon="14.8579098"><ele>204.0</ele><time>2026-03-28T15:49:12.02Z</time></trkpt><trkpt lat="40.6734351" lon="14.8578614"><ele>203.0</ele><time>2026-03-28T15:49:13.02Z</time></trkpt><trkpt lat="40.6738204" lon="14.8578117"><ele>202.0</ele><time>2026-03-28T15:49:14.02Z</time></trkpt><trkpt lat="40.67827" lon="14.85761"><ele>158.0</ele><time>2026-03-28T15:49:26.021Z</time></trkpt><trkpt lat="40.6786205" lon="14.8575705"><ele>114.0</ele><time>2026-03-28T15:49:27.021Z</time></trkpt><trkpt lat="40.6789714" lon="14.8575158"><ele>114.0</ele><time>2026-03-28T15:49:28.02Z</time></trkpt><trkpt lat="40.6793209" lon="14.8574514"><ele>114.0</ele><time>2026-03-28T15:49:29.021Z</time></trkpt><trkpt lat="40.6796723" lon="14.8573763"><ele>114.0</ele><time>2026-03-28T15:49:30.02Z</time></trkpt><trkpt lat="40.6800183" lon="14.8572867"><ele>114.0</ele><time>2026-03-28T15:49:31.02Z</time></trkpt><trkpt lat="40.6803633" lon="14.857185"><ele>114.0</ele><time>2026-03-28T15:49:32.021Z</time></trkpt><trkpt lat="40.680705" lon="14.8570583"><ele>114.0</ele><time>2026-03-28T15:49:33.021Z</time></trkpt><trkpt lat="40.6810467" lon="14.8569183"><ele>114.5</ele><time>2026-03-28T15:49:34.02Z</time></trkpt><trkpt lat="40.68139" lon="14.85675"><ele>115.0</ele><time>2026-03-28T15:49:35.02Z</time></trkpt><trkpt lat="40.681725" lon="14.8565683"><ele>115.5</ele><time>2026-03-28T15:49:36.02Z</time></trkpt><trkpt lat="40.6820467" lon="14.8563683"><ele>116.0</ele><time>2026-03-28T15:49:37.021Z</time></trkpt><trkpt lat="40.6823633" lon="14.8561483"><ele>114.5</ele><time>2026-03-28T15:49:38.021Z</time></trkpt><trkpt lat="40.6826717" lon="14.8559117"><ele>113.0</ele><time>2026-03-28T15:49:39.02Z</time></trkpt><trkpt lat="40.68297" lon="14.855655"><ele>113.0</ele><time>2026-03-28T15:49:40.021Z</time></trkpt><trkpt lat="40.6832533" lon="14.8553817"><ele>113.0</ele><time>2026-03-28T15:49:41.021Z</time></trkpt><trkpt lat="40.6835217" lon="14.855095"><ele>113.0</ele><time>2026-03-28T15:49:42.02Z</time></trkpt><trkpt lat="40.6837833" lon="14.8547933"><ele>113.0</ele><time>2026-03-28T15:49:43.021Z</time></trkpt><trkpt lat="40.6840467" lon="14.854475"><ele>113.0</ele><time>2026-03-28T15:49:44.021Z</time></trkpt><trkpt lat="40.6842817" lon="14.854135"><ele>113.0</ele><time>2026-03-28T15:49:45.021Z</time></trkpt><trkpt lat="40.6847317" lon="14.8534"><ele>113.0</ele><time>2026-03-28T15:49:47.02Z</time></trkpt><trkpt lat="40.68494" lon="14.8530133"><ele>113.0</ele><time>2026-03-28T15:49:48.02Z</time></trkpt><trkpt lat="40.6851383" lon="14.852615"><ele>112.5</ele><time>2026-03-28T15:49:49.021Z</time></trkpt><trkpt lat="40.685325" lon="14.8522033"><ele>112.0</ele><time>2026-03-28T15:49:50.021Z</time></trkpt><trkpt lat="40.685495" lon="14.8517817"><ele>112.0</ele><time>2026-03-28T15:49:51.02Z</time></trkpt><trkpt lat="40.6856533" lon="14.8513467"><ele>112.0</ele><time>2026-03-28T15:49:52.02Z</time></trkpt><trkpt lat="40.6857967" lon="14.8509083"><ele>111.0</ele><time>2026-03-28T15:49:53.021Z</time></trkpt><trkpt lat="40.685935" lon="14.8504633"><ele>110.0</ele><time>2026-03-28T15:49:54.021Z</time></trkpt><trkpt lat="40.6860683" lon="14.8500133"><ele>110.5</ele><time>2026-03-28T15:49:55.02Z</time></trkpt><trkpt lat="40.6862017" lon="14.8495617"><ele>111.0</ele><time>2026-03-28T15:49:56.02Z</time></trkpt><trkpt lat="40.68632" lon="14.8491083"><ele>111.0</ele><time>2026-03-28T15:49:57.021Z</time></trkpt><trkpt lat="40.6864367" lon="14.8486717"><ele>111.0</ele><time>2026-03-28T15:49:58.021Z</time></trkpt><trkpt lat="40.6865433" lon="14.8482533"><ele>111.5</ele><time>2026-03-28T15:49:59.021Z</time></trkpt><trkpt lat="40.686645" lon="14.8478533"><ele>112.0</ele><time>2026-03-28T15:50:00.021Z</time></trkpt><trkpt lat="40.6867417" lon="14.8474667"><ele>115.5</ele><time>2026-03-28T15:50:01.021Z</time></trkpt><trkpt lat="40.6868383" lon="14.8470833"><ele>119.0</ele><time>2026-03-28T15:50:02.02Z</time></trkpt><trkpt lat="40.6869383" lon="14.8466883"><ele>120.5</ele><time>2026-03-28T15:50:03.02Z</time></trkpt><trkpt lat="40.6870433" lon="14.8462767"><ele>122.0</ele><time>2026-03-28T15:50:04.021Z</time></trkpt><trkpt lat="40.6871517" lon="14.8458517"><ele>123.0</ele><time>2026-03-28T15:50:05.02Z</time></trkpt><trkpt lat="40.6872633" lon="14.8454167"><ele>124.0</ele><time>2026-03-28T15:50:06.02Z</time></trkpt><trkpt lat="40.6873833" lon="14.8449733"><ele>125.0</ele><time>2026-03-28T15:50:07.02Z</time></trkpt><trkpt lat="40.687505" lon="14.84453"><ele>126.0</ele><time>2026-03-28T15:50:08.02Z</time></trkpt><trkpt lat="40.68763" lon="14.84408"><ele>127.0</ele><time>2026-03-28T15:50:09.021Z</time></trkpt><trkpt lat="40.6877617" lon="14.8436283"><ele>128.0</ele><time>2026-03-28T15:50:10.02Z</time></trkpt><trkpt lat="40.6879" lon="14.8431767"><ele>128.5</ele><time>2026-03-28T15:50:11.02Z</time></trkpt><trkpt lat="40.68804" lon="14.8427367"><ele>129.0</ele><time>2026-03-28T15:50:12.021Z</time></trkpt><trkpt lat="40.6881917" lon="14.8422983"><ele>129.5</ele><time>2026-03-28T15:50:13.021Z</time></trkpt><trkpt lat="40.6883533" lon="14.8418667"><ele>130.0</ele><time>2026-03-28T15:50:14.02Z</time></trkpt><trkpt lat="40.6885233" lon="14.8414317"><ele>133.0</ele><time>2026-03-28T15:50:15.02Z</time></trkpt><trkpt lat="40.6887017" lon="14.8410067"><ele>136.0</ele><time>2026-03-28T15:50:16.02Z</time></trkpt><trkpt lat="40.68889" lon="14.840585"><ele>136.5</ele><time>2026-03-28T15:50:17.02Z</time></trkpt><trkpt lat="40.6890833" lon="14.84017"><ele>137.0</ele><time>2026-03-28T15:50:18.02Z</time></trkpt><trkpt lat="40.689285" lon="14.839765"><ele>139.0</ele><time>2026-03-28T15:50:19.021Z</time></trkpt><trkpt lat="40.6895033" lon="14.8393583"><ele>141.0</ele><time>2026-03-28T15:50:20.02Z</time></trkpt><trkpt lat="40.689725" lon="14.8389667"><ele>141.5</ele><time>2026-03-28T15:50:21.021Z</time></trkpt><trkpt lat="40.68995" lon="14.8385833"><ele>142.0</ele><time>2026-03-28T15:50:22.02Z</time></trkpt><trkpt lat="40.69018" lon="14.838205"><ele>144.5</ele><time>2026-03-28T15:50:23.02Z</time></trkpt><trkpt lat="40.6904117" lon="14.8378383"><ele>147.0</ele><time>2026-03-28T15:50:24.02Z</time></trkpt><trkpt lat="40.69065" lon="14.8374767"><ele>148.5</ele><time>2026-03-28T15:50:25.021Z</time></trkpt><trkpt lat="40.6908883" lon="14.8371233"><ele>150.0</ele><time>2026-03-28T15:50:26.021Z</time></trkpt><trkpt lat="40.691135" lon="14.8367717"><ele>150.5</ele><time>2026-03-28T15:50:27.021Z</time></trkpt><trkpt lat="40.6913867" lon="14.8364183"><ele>151.0</ele><time>2026-03-28T15:50:28.02Z</time></trkpt><trkpt lat="40.6916367" lon="14.836075"><ele>151.5</ele><time>2026-03-28T15:50:29.021Z</time></trkpt><trkpt lat="40.6918917" lon="14.8357333"><ele>152.0</ele><time>2026-03-28T15:50:30.02Z</time></trkpt><trkpt lat="40.6921467" lon="14.8353933"><ele>154.0</ele><time>2026-03-28T15:50:31.02Z</time></trkpt><trkpt lat="40.6924067" lon="14.8350533"><ele>156.0</ele><time>2026-03-28T15:50:32.021Z</time></trkpt><trkpt lat="40.6926667" lon="14.8347133"><ele>157.0</ele><time>2026-03-28T15:50:33.021Z</time></trkpt><trkpt lat="40.6929267" lon="14.8343733"><ele>158.0</ele><time>2026-03-28T15:50:34.021Z</time></trkpt><trkpt lat="40.693185" lon="14.8340283"><ele>158.0</ele><time>2026-03-28T15:50:35.02Z</time></trkpt><trkpt lat="40.6934467" lon="14.8336833"><ele>158.0</ele><time>2026-03-28T15:50:36.02Z</time></trkpt><trkpt lat="40.6937017" lon="14.8333417"><ele>161.0</ele><time>2026-03-28T15:50:37.021Z</time></trkpt><trkpt lat="40.6939567" lon="14.833"><ele>164.0</ele><time>2026-03-28T15:50:38.02Z</time></trkpt><trkpt lat="40.6942067" lon="14.8326567"><ele>165.0</ele><time>2026-03-28T15:50:39.02Z</time></trkpt><trkpt lat="40.6944533" lon="14.8323117"><ele>166.0</ele><time>2026-03-28T15:50:40.02Z</time></trkpt><trkpt lat="40.694695" lon="14.831965"><ele>166.0</ele><time>2026-03-28T15:50:41.021Z</time></trkpt><trkpt lat="40.6949317" lon="14.8316083"><ele>166.0</ele><time>2026-03-28T15:50:42.021Z</time></trkpt><trkpt lat="40.6951633" lon="14.8312517"><ele>170.0</ele><time>2026-03-28T15:50:43.02Z</time></trkpt><trkpt lat="40.695385" lon="14.8308967"><ele>174.0</ele><time>2026-03-28T15:50:44.02Z</time></trkpt><trkpt lat="40.6955967" lon="14.830545"><ele>174.0</ele><time>2026-03-28T15:50:45.02Z</time></trkpt><trkpt lat="40.6957983" lon="14.8301933"><ele>174.0</ele><time>2026-03-28T15:50:46.021Z</time></trkpt><trkpt lat="40.695985" lon="14.82985"><ele>175.5</ele><time>2026-03-28T15:50:47.02Z</time></trkpt><trkpt lat="40.69616" lon="14.8295267"><ele>177.0</ele><time>2026-03-28T15:50:48.021Z</time></trkpt><trkpt lat="40.696315" lon="14.82921"><ele>178.0</ele><time>2026-03-28T15:50:49.021Z</time></trkpt><trkpt lat="40.6964683" lon="14.828895"><ele>179.0</ele><time>2026-03-28T15:50:50.021Z</time></trkpt><trkpt lat="40.69661" lon="14.82859"><ele>178.0</ele><time>2026-03-28T15:50:51.02Z</time></trkpt><trkpt lat="40.6967567" lon="14.8282817"><ele>177.0</ele><time>2026-03-28T15:50:52.02Z</time></trkpt><trkpt lat="40.6968967" lon="14.8279617"><ele>178.0</ele><time>2026-03-28T15:50:53.021Z</time></trkpt><trkpt lat="40.6970367" lon="14.8276233"><ele>179.0</ele><time>2026-03-28T15:50:54.021Z</time></trkpt><trkpt lat="40.697175" lon="14.8272633"><ele>179.0</ele><time>2026-03-28T15:50:55.02Z</time></trkpt><trkpt lat="40.6973167" lon="14.8268817"><ele>179.0</ele><time>2026-03-28T15:50:56.021Z</time></trkpt><trkpt lat="40.6974517" lon="14.826485"><ele>177.5</ele><time>2026-03-28T15:50:57.02Z</time></trkpt><trkpt lat="40.6975833" lon="14.8260783"><ele>176.0</ele><time>2026-03-28T15:50:58.02Z</time></trkpt><trkpt lat="40.6977117" lon="14.8256617"><ele>175.5</ele><time>2026-03-28T15:50:59.02Z</time></trkpt><trkpt lat="40.6978367" lon="14.8252383"><ele>175.0</ele><time>2026-03-28T15:51:00.021Z</time></trkpt><trkpt lat="40.6979567" lon="14.8248017"><ele>175.0</ele><time>2026-03-28T15:51:01.02Z</time></trkpt><trkpt lat="40.6980667" lon="14.8243617"><ele>175.0</ele><time>2026-03-28T15:51:02.021Z</time></trkpt><trkpt lat="40.698165" lon="14.8239183"><ele>175.5</ele><time>2026-03-28T15:51:03.02Z</time></trkpt><trkpt lat="40.6982567" lon="14.8234717"><ele>176.0</ele><time>2026-03-28T15:51:04.021Z</time></trkpt><trkpt lat="40.6983417" lon="14.8230217"><ele>176.5</ele><time>2026-03-28T15:51:05.021Z</time></trkpt><trkpt lat="40.6984167" lon="14.82257"><ele>177.0</ele><time>2026-03-28T15:51:06.021Z</time></trkpt><trkpt lat="40.6984867" lon="14.822115"><ele>176.5</ele><time>2026-03-28T15:51:07.02Z</time></trkpt><trkpt lat="40.698545" lon="14.821655"><ele>176.0</ele><time>2026-03-28T15:51:08.021Z</time></trkpt><trkpt lat="40.6986017" lon="14.82119"><ele>178.0</ele><time>2026-03-28T15:51:09.02Z</time></trkpt><trkpt lat="40.6986433" lon="14.82072"><ele>180.0</ele><time>2026-03-28T15:51:10.02Z</time></trkpt><trkpt lat="40.6986917" lon="14.820245"><ele>180.5</ele><time>2026-03-28T15:51:11.021Z</time></trkpt><trkpt lat="40.6987417" lon="14.8197633"><ele>181.0</ele><time>2026-03-28T15:51:12.021Z</time></trkpt><trkpt lat="40.6987917" lon="14.8192883"><ele>182.0</ele><time>2026-03-28T15:51:13.021Z</time></trkpt><trkpt lat="40.6988383" lon="14.818805"><ele>183.0</ele><time>2026-03-28T15:51:14.02Z</time></trkpt><trkpt lat="40.6988933" lon="14.818315"><ele>184.5</ele><time>2026-03-28T15:51:15.02Z</time></trkpt><trkpt lat="40.6989367" lon="14.81783"><ele>186.0</ele><time>2026-03-28T15:51:16.021Z</time></trkpt><trkpt lat="40.69898" lon="14.81734"><ele>187.0</ele><time>2026-03-28T15:51:17.021Z</time></trkpt><trkpt lat="40.6990283" lon="14.8168383"><ele>188.0</ele><time>2026-03-28T15:51:18.02Z</time></trkpt><trkpt lat="40.6990583" lon="14.8163333"><ele>191.0</ele><time>2026-03-28T15:51:19.02Z</time></trkpt><trkpt lat="40.6990733" lon="14.8158417"><ele>194.0</ele><time>2026-03-28T15:51:20.021Z</time></trkpt><trkpt lat="40.699065" lon="14.8154117"><ele>195.0</ele><time>2026-03-28T15:51:21.02Z</time></trkpt><trkpt lat="40.6990883" lon="14.8149317"><ele>196.0</ele><time>2026-03-28T15:51:22.021Z</time></trkpt><trkpt lat="40.69911" lon="14.8144483"><ele>193.5</ele><time>2026-03-28T15:51:23.021Z</time></trkpt><trkpt lat="40.6991333" lon="14.8139617"><ele>191.0</ele><time>2026-03-28T15:51:24.02Z</time></trkpt><trkpt lat="40.699155" lon="14.8134717"><ele>185.5</ele><time>2026-03-28T15:51:25.02Z</time></trkpt><trkpt lat="40.6991783" lon="14.812975"><ele>180.0</ele><time>2026-03-28T15:51:26.021Z</time></trkpt><trkpt lat="40.69927" lon="14.8120583"><ele>173.0</ele><time>2026-03-28T15:51:28.02Z</time></trkpt><trkpt lat="40.6994317" lon="14.811355"><ele>174.5</ele><time>2026-03-28T15:51:29.02Z</time></trkpt><trkpt lat="40.69949" lon="14.8108"><ele>176.0</ele><time>2026-03-28T15:51:30.02Z</time></trkpt><trkpt lat="40.69948" lon="14.8102867"><ele>176.0</ele><time>2026-03-28T15:51:31.02Z</time></trkpt><trkpt lat="40.69945" lon="14.8097867"><ele>176.0</ele><time>2026-03-28T15:51:32.021Z</time></trkpt><trkpt lat="40.6994217" lon="14.80929"><ele>172.0</ele><time>2026-03-28T15:51:33.02Z</time></trkpt><trkpt lat="40.69937" lon="14.8087883"><ele>168.0</ele><time>2026-03-28T15:51:34.02Z</time></trkpt><trkpt lat="40.6993133" lon="14.8083033"><ele>164.0</ele><time>2026-03-28T15:51:35.02Z</time></trkpt><trkpt lat="40.69924" lon="14.80782"><ele>160.0</ele><time>2026-03-28T15:51:36.02Z</time></trkpt><trkpt lat="40.69916" lon="14.80734"><ele>157.5</ele><time>2026-03-28T15:51:37.021Z</time></trkpt><trkpt lat="40.6990633" lon="14.80686"><ele>155.0</ele><time>2026-03-28T15:51:38.02Z</time></trkpt><trkpt lat="40.6989683" lon="14.8063783"><ele>156.0</ele><time>2026-03-28T15:51:39.021Z</time></trkpt><trkpt lat="40.6988667" lon="14.8058933"><ele>157.0</ele><time>2026-03-28T15:51:40.021Z</time></trkpt><trkpt lat="40.6987567" lon="14.8054033"><ele>153.5</ele><time>2026-03-28T15:51:41.021Z</time></trkpt><trkpt lat="40.6986383" lon="14.8049133"><ele>150.0</ele><time>2026-03-28T15:51:42.02Z</time></trkpt><trkpt lat="40.6985317" lon="14.8044267"><ele>145.5</ele><time>2026-03-28T15:51:43.021Z</time></trkpt><trkpt lat="40.698425" lon="14.8039417"><ele>141.0</ele><time>2026-03-28T15:51:44.02Z</time></trkpt><trkpt lat="40.6983217" lon="14.803465"><ele>141.0</ele><time>2026-03-28T15:51:45.02Z</time></trkpt><trkpt lat="40.6982133" lon="14.8029883"><ele>141.0</ele><time>2026-03-28T15:51:46.021Z</time></trkpt><trkpt lat="40.6981083" lon="14.8025133"><ele>142.0</ele><time>2026-03-28T15:51:47.021Z</time></trkpt><trkpt lat="40.6979933" lon="14.80203"><ele>143.0</ele><time>2026-03-28T15:51:48.02Z</time></trkpt><trkpt lat="40.69788" lon="14.8015433"><ele>143.0</ele><time>2026-03-28T15:51:49.021Z</time></trkpt><trkpt lat="40.6977633" lon="14.8010517"><ele>143.0</ele><time>2026-03-28T15:51:50.02Z</time></trkpt><trkpt lat="40.697655" lon="14.800565"><ele>134.0</ele><time>2026-03-28T15:51:51.02Z</time></trkpt><trkpt lat="40.6975567" lon="14.8000783"><ele>125.0</ele><time>2026-03-28T15:51:52.02Z</time></trkpt><trkpt lat="40.6974667" lon="14.7995983"><ele>125.0</ele><time>2026-03-28T15:51:53.02Z</time></trkpt><trkpt lat="40.6973867" lon="14.7991183"><ele>125.0</ele><time>2026-03-28T15:51:54.021Z</time></trkpt><trkpt lat="40.6973133" lon="14.7986383"><ele>122.5</ele><time>2026-03-28T15:51:55.02Z</time></trkpt><trkpt lat="40.6972533" lon="14.798155"><ele>120.0</ele><time>2026-03-28T15:51:56.021Z</time></trkpt><trkpt lat="40.6972033" lon="14.7976733"><ele>118.0</ele><time>2026-03-28T15:51:57.02Z</time></trkpt><trkpt lat="40.6971683" lon="14.7971917"><ele>116.0</ele><time>2026-03-28T15:51:58.021Z</time></trkpt><trkpt lat="40.6971367" lon="14.7967233"><ele>114.0</ele><time>2026-03-28T15:51:59.02Z</time></trkpt><trkpt lat="40.6971133" lon="14.79626"><ele>112.0</ele><time>2026-03-28T15:52:00.02Z</time></trkpt><trkpt lat="40.6971033" lon="14.7958017"><ele>112.5</ele><time>2026-03-28T15:52:01.02Z</time></trkpt><trkpt lat="40.697105" lon="14.7953467"><ele>113.0</ele><time>2026-03-28T15:52:02.021Z</time></trkpt><trkpt lat="40.69712" lon="14.7948983"><ele>113.0</ele><time>2026-03-28T15:52:03.021Z</time></trkpt><trkpt lat="40.69715" lon="14.7944483"><ele>113.0</ele><time>2026-03-28T15:52:04.02Z</time></trkpt><trkpt lat="40.69719" lon="14.7940067"><ele>114.0</ele><time>2026-03-28T15:52:05.021Z</time></trkpt><trkpt lat="40.6972317" lon="14.7935667"><ele>115.0</ele><time>2026-03-28T15:52:06.02Z</time></trkpt><trkpt lat="40.6972717" lon="14.793125"><ele>112.5</ele><time>2026-03-28T15:52:07.021Z</time></trkpt><trkpt lat="40.69731" lon="14.7926717"><ele>110.0</ele><time>2026-03-28T15:52:08.02Z</time></trkpt><trkpt lat="40.69735" lon="14.7922083"><ele>107.5</ele><time>2026-03-28T15:52:09.02Z</time></trkpt><trkpt lat="40.697385" lon="14.7917433"><ele>105.0</ele><time>2026-03-28T15:52:10.021Z</time></trkpt><trkpt lat="40.6974217" lon="14.791285"><ele>103.0</ele><time>2026-03-28T15:52:11.02Z</time></trkpt><trkpt lat="40.69745" lon="14.7908317"><ele>101.0</ele><time>2026-03-28T15:52:12.021Z</time></trkpt><trkpt lat="40.697465" lon="14.7903783"><ele>99.0</ele><time>2026-03-28T15:52:13.021Z</time></trkpt><trkpt lat="40.6974683" lon="14.7899267"><ele>97.0</ele><time>2026-03-28T15:52:14.02Z</time></trkpt><trkpt lat="40.6974583" lon="14.789475"><ele>96.5</ele><time>2026-03-28T15:52:15.021Z</time></trkpt><trkpt lat="40.6974383" lon="14.7890233"><ele>96.0</ele><time>2026-03-28T15:52:16.02Z</time></trkpt><trkpt lat="40.6974" lon="14.788595"><ele>93.0</ele><time>2026-03-28T15:52:17.02Z</time></trkpt><trkpt lat="40.6973533" lon="14.78819"><ele>90.0</ele><time>2026-03-28T15:52:18.021Z</time></trkpt><trkpt lat="40.6972967" lon="14.7878083"><ele>87.5</ele><time>2026-03-28T15:52:19.02Z</time></trkpt><trkpt lat="40.697235" lon="14.7874433"><ele>85.0</ele><time>2026-03-28T15:52:20.021Z</time></trkpt><trkpt lat="40.6971733" lon="14.7870933"><ele>85.0</ele><time>2026-03-28T15:52:21.021Z</time></trkpt><trkpt lat="40.6971083" lon="14.786745"><ele>85.0</ele><time>2026-03-28T15:52:22.021Z</time></trkpt><trkpt lat="40.6970383" lon="14.786395"><ele>85.0</ele><time>2026-03-28T15:52:23.021Z</time></trkpt><trkpt lat="40.69697" lon="14.786035"><ele>85.0</ele><time>2026-03-28T15:52:24.021Z</time></trkpt><trkpt lat="40.6968983" lon="14.785665"><ele>79.0</ele><time>2026-03-28T15:52:25.02Z</time></trkpt><trkpt lat="40.6968283" lon="14.7852867"><ele>73.0</ele><time>2026-03-28T15:52:26.021Z</time></trkpt><trkpt lat="40.6967567" lon="14.7848983"><ele>72.0</ele><time>2026-03-28T15:52:27.021Z</time></trkpt><trkpt lat="40.6966833" lon="14.7845083"><ele>71.0</ele><time>2026-03-28T15:52:28.021Z</time></trkpt><trkpt lat="40.69662" lon="14.7841217"><ele>71.0</ele><time>2026-03-28T15:52:29.021Z</time></trkpt><trkpt lat="40.6965633" lon="14.7837517"><ele>71.0</ele><time>2026-03-28T15:52:30.02Z</time></trkpt><trkpt lat="40.6965183" lon="14.7833933"><ele>72.0</ele><time>2026-03-28T15:52:31.02Z</time></trkpt><trkpt lat="40.696485" lon="14.78304"><ele>73.0</ele><time>2026-03-28T15:52:32.021Z</time></trkpt><trkpt lat="40.696475" lon="14.7826933"><ele>72.0</ele><time>2026-03-28T15:52:33.021Z</time></trkpt><trkpt lat="40.6964783" lon="14.7823467"><ele>71.0</ele><time>2026-03-28T15:52:34.02Z</time></trkpt><trkpt lat="40.6965167" lon="14.7820033"><ele>70.0</ele><time>2026-03-28T15:52:35.021Z</time></trkpt><trkpt lat="40.696595" lon="14.78168"><ele>69.0</ele><time>2026-03-28T15:52:36.02Z</time></trkpt><trkpt lat="40.6967033" lon="14.7813783"><ele>69.0</ele><time>2026-03-28T15:52:37.02Z</time></trkpt><trkpt lat="40.69684" lon="14.78109"><ele>69.0</ele><time>2026-03-28T15:52:38.02Z</time></trkpt><trkpt lat="40.6970017" lon="14.78082"><ele>76.5</ele><time>2026-03-28T15:52:39.021Z</time></trkpt><trkpt lat="40.6971817" lon="14.7805767"><ele>84.0</ele><time>2026-03-28T15:52:40.021Z</time></trkpt><trkpt lat="40.6973783" lon="14.78034"><ele>83.5</ele><time>2026-03-28T15:52:41.021Z</time></trkpt><trkpt lat="40.6975917" lon="14.7801217"><ele>83.0</ele><time>2026-03-28T15:52:42.02Z</time></trkpt><trkpt lat="40.6978283" lon="14.779915"><ele>83.0</ele><time>2026-03-28T15:52:43.02Z</time></trkpt><trkpt lat="40.6980883" lon="14.7797233"><ele>83.0</ele><time>2026-03-28T15:52:44.02Z</time></trkpt><trkpt lat="40.6983567" lon="14.779545"><ele>80.5</ele><time>2026-03-28T15:52:45.021Z</time></trkpt><trkpt lat="40.698645" lon="14.7793867"><ele>78.0</ele><time>2026-03-28T15:52:46.021Z</time></trkpt><trkpt lat="40.6989267" lon="14.7792633"><ele>73.5</ele><time>2026-03-28T15:52:47.02Z</time></trkpt><trkpt lat="40.699205" lon="14.779155"><ele>69.0</ele><time>2026-03-28T15:52:48.021Z</time></trkpt><trkpt lat="40.69949" lon="14.7790767"><ele>68.5</ele><time>2026-03-28T15:52:49.02Z</time></trkpt><trkpt lat="40.69978" lon="14.7790083"><ele>68.0</ele><time>2026-03-28T15:52:50.02Z</time></trkpt><trkpt lat="40.7000683" lon="14.77895"><ele>70.5</ele><time>2026-03-28T15:52:51.02Z</time></trkpt><trkpt lat="40.7003617" lon="14.7789017"><ele>73.0</ele><time>2026-03-28T15:52:52.02Z</time></trkpt><trkpt lat="40.7006617" lon="14.7788517"><ele>73.0</ele><time>2026-03-28T15:52:53.021Z</time></trkpt><trkpt lat="40.7009717" lon="14.7788117"><ele>73.0</ele><time>2026-03-28T15:52:54.021Z</time></trkpt><trkpt lat="40.7012933" lon="14.7787767"><ele>76.0</ele><time>2026-03-28T15:52:55.02Z</time></trkpt><trkpt lat="40.701625" lon="14.7787517"><ele>79.0</ele><time>2026-03-28T15:52:56.021Z</time></trkpt><trkpt lat="40.70197" lon="14.7787167"><ele>81.5</ele><time>2026-03-28T15:52:57.02Z</time></trkpt><trkpt lat="40.7023267" lon="14.7786783"><ele>84.0</ele><time>2026-03-28T15:52:58.02Z</time></trkpt><trkpt lat="40.702695" lon="14.7786333"><ele>86.0</ele><time>2026-03-28T15:52:59.02Z</time></trkpt><trkpt lat="40.7030733" lon="14.7785933"><ele>88.0</ele><time>2026-03-28T15:53:00.02Z</time></trkpt><trkpt lat="40.7034567" lon="14.778555"><ele>88.0</ele><time>2026-03-28T15:53:01.02Z</time></trkpt><trkpt lat="40.7038233" lon="14.7785267"><ele>88.0</ele><time>2026-03-28T15:53:02.021Z</time></trkpt><trkpt lat="40.70417" lon="14.77851"><ele>88.5</ele><time>2026-03-28T15:53:03.021Z</time></trkpt><trkpt lat="40.7044967" lon="14.778505"><ele>89.0</ele><time>2026-03-28T15:53:04.021Z</time></trkpt><trkpt lat="40.7048183" lon="14.7785183"><ele>89.0</ele><time>2026-03-28T15:53:05.02Z</time></trkpt><trkpt lat="40.7051333" lon="14.7785567"><ele>89.0</ele><time>2026-03-28T15:53:06.021Z</time></trkpt><trkpt lat="40.7054367" lon="14.7786233"><ele>89.5</ele><time>2026-03-28T15:53:07.02Z</time></trkpt><trkpt lat="40.7057317" lon="14.77872"><ele>90.0</ele><time>2026-03-28T15:53:08.02Z</time></trkpt><trkpt lat="40.706025" lon="14.7788483"><ele>91.0</ele><time>2026-03-28T15:53:09.02Z</time></trkpt><trkpt lat="40.7063217" lon="14.7789933"><ele>92.0</ele><time>2026-03-28T15:53:10.021Z</time></trkpt><trkpt lat="40.7066183" lon="14.779155"><ele>92.0</ele><time>2026-03-28T15:53:11.021Z</time></trkpt><trkpt lat="40.7069167" lon="14.7793233"><ele>92.0</ele><time>2026-03-28T15:53:12.021Z</time></trkpt><trkpt lat="40.7072167" lon="14.77949"><ele>98.0</ele><time>2026-03-28T15:53:13.021Z</time></trkpt><trkpt lat="40.7075217" lon="14.7796617"><ele>104.0</ele><time>2026-03-28T15:53:14.02Z</time></trkpt><trkpt lat="40.70783" lon="14.7798267"><ele>104.0</ele><time>2026-03-28T15:53:15.02Z</time></trkpt><trkpt lat="40.7081317" lon="14.77998"><ele>104.0</ele><time>2026-03-28T15:53:16.02Z</time></trkpt><trkpt lat="40.7084183" lon="14.780105"><ele>112.5</ele><time>2026-03-28T15:53:17.02Z</time></trkpt><trkpt lat="40.708695" lon="14.7801983"><ele>121.0</ele><time>2026-03-28T15:53:18.02Z</time></trkpt><trkpt lat="40.708975" lon="14.78027"><ele>121.0</ele><time>2026-03-28T15:53:19.02Z</time></trkpt><trkpt lat="40.7092517" lon="14.780315"><ele>121.0</ele><time>2026-03-28T15:53:20.02Z</time></trkpt><trkpt lat="40.7095283" lon="14.7803283"><ele>122.0</ele><time>2026-03-28T15:53:21.021Z</time></trkpt><trkpt lat="40.7098083" lon="14.7803267"><ele>123.0</ele><time>2026-03-28T15:53:22.021Z</time></trkpt><trkpt lat="40.7100867" lon="14.780305"><ele>126.0</ele><time>2026-03-28T15:53:23.02Z</time></trkpt><trkpt lat="40.71037" lon="14.7802567"><ele>129.0</ele><time>2026-03-28T15:53:24.02Z</time></trkpt><trkpt lat="40.710645" lon="14.7801867"><ele>121.5</ele><time>2026-03-28T15:53:25.02Z</time></trkpt><trkpt lat="40.7109267" lon="14.7800867"><ele>114.0</ele><time>2026-03-28T15:53:26.021Z</time></trkpt><trkpt lat="40.711205" lon="14.7799667"><ele>114.0</ele><time>2026-03-28T15:53:27.02Z</time></trkpt><trkpt lat="40.7114967" lon="14.7798333"><ele>114.0</ele><time>2026-03-28T15:53:28.02Z</time></trkpt><trkpt lat="40.7117717" lon="14.7797117"><ele>118.0</ele><time>2026-03-28T15:53:29.021Z</time></trkpt><trkpt lat="40.71204" lon="14.779595"><ele>122.0</ele><time>2026-03-28T15:53:30.021Z</time></trkpt><trkpt lat="40.7122967" lon="14.779485"><ele>122.0</ele><time>2026-03-28T15:53:31.021Z</time></trkpt><trkpt lat="40.7125583" lon="14.7793883"><ele>122.0</ele><time>2026-03-28T15:53:32.021Z</time></trkpt><trkpt lat="40.7128167" lon="14.779315"><ele>120.5</ele><time>2026-03-28T15:53:33.021Z</time></trkpt><trkpt lat="40.7130867" lon="14.7792517"><ele>119.0</ele><time>2026-03-28T15:53:34.02Z</time></trkpt><trkpt lat="40.713365" lon="14.7792067"><ele>118.0</ele><time>2026-03-28T15:53:35.02Z</time></trkpt><trkpt lat="40.713645" lon="14.7791617"><ele>117.0</ele><time>2026-03-28T15:53:36.02Z</time></trkpt><trkpt lat="40.7139217" lon="14.77912"><ele>117.0</ele><time>2026-03-28T15:53:37.02Z</time></trkpt><trkpt lat="40.714215" lon="14.7790633"><ele>117.0</ele><time>2026-03-28T15:53:38.021Z</time></trkpt><trkpt lat="40.7145133" lon="14.77901"><ele>123.0</ele><time>2026-03-28T15:53:39.02Z</time></trkpt><trkpt lat="40.71482" lon="14.7789567"><ele>129.0</ele><time>2026-03-28T15:53:40.02Z</time></trkpt><trkpt lat="40.715145" lon="14.7788833"><ele>134.5</ele><time>2026-03-28T15:53:41.021Z</time></trkpt><trkpt lat="40.7154733" lon="14.7788167"><ele>140.0</ele><time>2026-03-28T15:53:42.021Z</time></trkpt><trkpt lat="40.7158083" lon="14.7787533"><ele>148.5</ele><time>2026-03-28T15:53:43.02Z</time></trkpt><trkpt lat="40.7161517" lon="14.7786933"><ele>157.0</ele><time>2026-03-28T15:53:44.021Z</time></trkpt><trkpt lat="40.7165033" lon="14.7786283"><ele>157.0</ele><time>2026-03-28T15:53:45.021Z</time></trkpt><trkpt lat="40.71685" lon="14.7785667"><ele>157.0</ele><time>2026-03-28T15:53:46.021Z</time></trkpt><trkpt lat="40.717195" lon="14.778505"><ele>148.0</ele><time>2026-03-28T15:53:47.02Z</time></trkpt><trkpt lat="40.7175433" lon="14.7784533"><ele>139.0</ele><time>2026-03-28T15:53:48.02Z</time></trkpt><trkpt lat="40.717885" lon="14.7784083"><ele>139.0</ele><time>2026-03-28T15:53:49.02Z</time></trkpt><trkpt lat="40.718235" lon="14.7783567"><ele>139.0</ele><time>2026-03-28T15:53:50.021Z</time></trkpt><trkpt lat="40.7185817" lon="14.778295"><ele>138.0</ele><time>2026-03-28T15:53:51.021Z</time></trkpt><trkpt lat="40.718935" lon="14.7782217"><ele>137.0</ele><time>2026-03-28T15:53:52.02Z</time></trkpt><trkpt lat="40.7192917" lon="14.7781517"><ele>139.0</ele><time>2026-03-28T15:53:53.021Z</time></trkpt><trkpt lat="40.71964" lon="14.7780883"><ele>141.0</ele><time>2026-03-28T15:53:54.02Z</time></trkpt><trkpt lat="40.719975" lon="14.7780283"><ele>142.0</ele><time>2026-03-28T15:53:55.02Z</time></trkpt><trkpt lat="40.7202967" lon="14.7779617"><ele>143.0</ele><time>2026-03-28T15:53:56.021Z</time></trkpt><trkpt lat="40.7206017" lon="14.777885"><ele>143.0</ele><time>2026-03-28T15:53:57.02Z</time></trkpt><trkpt lat="40.7209" lon="14.7777733"><ele>143.0</ele><time>2026-03-28T15:53:58.02Z</time></trkpt><trkpt lat="40.7211917" lon="14.7776417"><ele>145.0</ele><time>2026-03-28T15:53:59.02Z</time></trkpt><trkpt lat="40.7214767" lon="14.7774867"><ele>147.0</ele><time>2026-03-28T15:54:00.021Z</time></trkpt><trkpt lat="40.72176" lon="14.7773217"><ele>161.0</ele><time>2026-03-28T15:54:01.021Z</time></trkpt><trkpt lat="40.7220583" lon="14.7771583"><ele>175.0</ele><time>2026-03-28T15:54:02.021Z</time></trkpt><trkpt lat="40.7223583" lon="14.7769917"><ele>169.0</ele><time>2026-03-28T15:54:03.021Z</time></trkpt><trkpt lat="40.7226633" lon="14.776825"><ele>163.0</ele><time>2026-03-28T15:54:04.02Z</time></trkpt><trkpt lat="40.7229633" lon="14.7766483"><ele>162.5</ele><time>2026-03-28T15:54:05.021Z</time></trkpt><trkpt lat="40.7232483" lon="14.776465"><ele>162.0</ele><time>2026-03-28T15:54:06.02Z</time></trkpt><trkpt lat="40.723485" lon="14.7762883"><ele>158.0</ele><time>2026-03-28T15:54:07.02Z</time></trkpt><trkpt lat="40.72374" lon="14.7761683"><ele>154.0</ele><time>2026-03-28T15:54:08.02Z</time></trkpt><trkpt lat="40.7239983" lon="14.77604"><ele>151.5</ele><time>2026-03-28T15:54:09.02Z</time></trkpt><trkpt lat="40.7242733" lon="14.775945"><ele>149.0</ele><time>2026-03-28T15:54:10.021Z</time></trkpt><trkpt lat="40.7245683" lon="14.7758783"><ele>149.0</ele><time>2026-03-28T15:54:11.02Z</time></trkpt><trkpt lat="40.724875" lon="14.77583"><ele>149.0</ele><time>2026-03-28T15:54:12.02Z</time></trkpt><trkpt lat="40.7251917" lon="14.7758017"><ele>152.0</ele><time>2026-03-28T15:54:13.021Z</time></trkpt><trkpt lat="40.7255267" lon="14.7757717"><ele>155.0</ele><time>2026-03-28T15:54:14.021Z</time></trkpt><trkpt lat="40.7258683" lon="14.7757483"><ele>156.0</ele><time>2026-03-28T15:54:15.02Z</time></trkpt><trkpt lat="40.7262267" lon="14.7757133"><ele>157.0</ele><time>2026-03-28T15:54:16.02Z</time></trkpt><trkpt lat="40.7265667" lon="14.7756883"><ele>159.0</ele><time>2026-03-28T15:54:17.02Z</time></trkpt><trkpt lat="40.7269017" lon="14.7756617"><ele>161.0</ele><time>2026-03-28T15:54:18.021Z</time></trkpt><trkpt lat="40.727235" lon="14.7756467"><ele>161.0</ele><time>2026-03-28T15:54:19.02Z</time></trkpt><trkpt lat="40.7275767" lon="14.7756283"><ele>161.0</ele><time>2026-03-28T15:54:20.02Z</time></trkpt><trkpt lat="40.72793" lon="14.775605"><ele>162.0</ele><time>2026-03-28T15:54:21.021Z</time></trkpt><trkpt lat="40.7282867" lon="14.7755867"><ele>163.0</ele><time>2026-03-28T15:54:22.021Z</time></trkpt><trkpt lat="40.7286517" lon="14.77556"><ele>165.0</ele><time>2026-03-28T15:54:23.02Z</time></trkpt><trkpt lat="40.729025" lon="14.775535"><ele>167.0</ele><time>2026-03-28T15:54:24.02Z</time></trkpt><trkpt lat="40.7293883" lon="14.7755133"><ele>169.5</ele><time>2026-03-28T15:54:25.02Z</time></trkpt><trkpt lat="40.7297317" lon="14.7754983"><ele>172.0</ele><time>2026-03-28T15:54:26.02Z</time></trkpt><trkpt lat="40.7300667" lon="14.77548"><ele>172.5</ele><time>2026-03-28T15:54:27.02Z</time></trkpt><trkpt lat="40.7303967" lon="14.775465"><ele>173.0</ele><time>2026-03-28T15:54:28.02Z</time></trkpt><trkpt lat="40.73073" lon="14.7754467"><ele>171.0</ele><time>2026-03-28T15:54:29.02Z</time></trkpt><trkpt lat="40.731065" lon="14.775425"><ele>169.0</ele><time>2026-03-28T15:54:30.02Z</time></trkpt><trkpt lat="40.7313983" lon="14.7754217"><ele>169.0</ele><time>2026-03-28T15:54:31.02Z</time></trkpt><trkpt lat="40.7317317" lon="14.7754267"><ele>169.0</ele><time>2026-03-28T15:54:32.02Z</time></trkpt><trkpt lat="40.7320633" lon="14.77545"><ele>168.5</ele><time>2026-03-28T15:54:33.021Z</time></trkpt><trkpt lat="40.7324017" lon="14.7754783"><ele>168.0</ele><time>2026-03-28T15:54:34.021Z</time></trkpt><trkpt lat="40.73274" lon="14.7755233"><ele>170.0</ele><time>2026-03-28T15:54:35.02Z</time></trkpt><trkpt lat="40.7330733" lon="14.7755867"><ele>172.0</ele><time>2026-03-28T15:54:36.02Z</time></trkpt><trkpt lat="40.7334133" lon="14.7756733"><ele>171.5</ele><time>2026-03-28T15:54:37.02Z</time></trkpt><trkpt lat="40.733755" lon="14.7757783"><ele>171.0</ele><time>2026-03-28T15:54:38.02Z</time></trkpt><trkpt lat="40.7341067" lon="14.7759033"><ele>173.5</ele><time>2026-03-28T15:54:39.02Z</time></trkpt><trkpt lat="40.7344617" lon="14.7760583"><ele>176.0</ele><time>2026-03-28T15:54:40.021Z</time></trkpt><trkpt lat="40.7348033" lon="14.7762233"><ele>176.0</ele><time>2026-03-28T15:54:41.021Z</time></trkpt><trkpt lat="40.7351367" lon="14.776405"><ele>176.0</ele><time>2026-03-28T15:54:42.02Z</time></trkpt><trkpt lat="40.7354667" lon="14.7766033"><ele>175.5</ele><time>2026-03-28T15:54:43.02Z</time></trkpt><trkpt lat="40.7357883" lon="14.7768217"><ele>175.0</ele><time>2026-03-28T15:54:44.021Z</time></trkpt><trkpt lat="40.7361" lon="14.77706"><ele>178.0</ele><time>2026-03-28T15:54:45.02Z</time></trkpt><trkpt lat="40.7364017" lon="14.777315"><ele>181.0</ele><time>2026-03-28T15:54:46.02Z</time></trkpt><trkpt lat="40.736695" lon="14.777585"><ele>184.0</ele><time>2026-03-28T15:54:47.02Z</time></trkpt><trkpt lat="40.7369867" lon="14.77787"><ele>187.0</ele><time>2026-03-28T15:54:48.02Z</time></trkpt><trkpt lat="40.737275" lon="14.7781717"><ele>187.0</ele><time>2026-03-28T15:54:49.021Z</time></trkpt><trkpt lat="40.7375617" lon="14.7784867"><ele>187.0</ele><time>2026-03-28T15:54:50.021Z</time></trkpt><trkpt lat="40.7378483" lon="14.7788017"><ele>189.5</ele><time>2026-03-28T15:54:51.02Z</time></trkpt><trkpt lat="40.7381217" lon="14.77911"><ele>192.0</ele><time>2026-03-28T15:54:52.02Z</time></trkpt><trkpt lat="40.73839" lon="14.779415"><ele>195.0</ele><time>2026-03-28T15:54:53.021Z</time></trkpt><trkpt lat="40.7386483" lon="14.7797117"><ele>198.0</ele><time>2026-03-28T15:54:54.02Z</time></trkpt><trkpt lat="40.738905" lon="14.7800033"><ele>201.0</ele><time>2026-03-28T15:54:55.021Z</time></trkpt><trkpt lat="40.7391583" lon="14.7802867"><ele>204.0</ele><time>2026-03-28T15:54:56.021Z</time></trkpt><trkpt lat="40.7394083" lon="14.7805733"><ele>206.0</ele><time>2026-03-28T15:54:57.021Z</time></trkpt><trkpt lat="40.739655" lon="14.7808583"><ele>208.0</ele><time>2026-03-28T15:54:58.021Z</time></trkpt><trkpt lat="40.7399017" lon="14.7811383"><ele>209.0</ele><time>2026-03-28T15:54:59.021Z</time></trkpt><trkpt lat="40.74015" lon="14.7814183"><ele>210.0</ele><time>2026-03-28T15:55:00.02Z</time></trkpt><trkpt lat="40.740405" lon="14.78169"><ele>213.0</ele><time>2026-03-28T15:55:01.02Z</time></trkpt><trkpt lat="40.740655" lon="14.7819517"><ele>216.0</ele><time>2026-03-28T15:55:02.02Z</time></trkpt><trkpt lat="40.7409033" lon="14.7822133"><ele>214.0</ele><time>2026-03-28T15:55:03.021Z</time></trkpt><trkpt lat="40.741155" lon="14.78246"><ele>212.0</ele><time>2026-03-28T15:55:04.02Z</time></trkpt><trkpt lat="40.7414033" lon="14.782695"><ele>216.5</ele><time>2026-03-28T15:55:05.02Z</time></trkpt><trkpt lat="40.7416517" lon="14.7829183"><ele>221.0</ele><time>2026-03-28T15:55:06.02Z</time></trkpt><trkpt lat="40.741905" lon="14.7831267"><ele>221.5</ele><time>2026-03-28T15:55:07.02Z</time></trkpt><trkpt lat="40.7421533" lon="14.78333"><ele>222.0</ele><time>2026-03-28T15:55:08.02Z</time></trkpt><trkpt lat="40.7423983" lon="14.78353"><ele>220.5</ele><time>2026-03-28T15:55:09.02Z</time></trkpt><trkpt lat="40.7426467" lon="14.7837183"><ele>219.0</ele><time>2026-03-28T15:55:10.02Z</time></trkpt><trkpt lat="40.742885" lon="14.7838917"><ele>219.0</ele><time>2026-03-28T15:55:11.021Z</time></trkpt><trkpt lat="40.7431167" lon="14.78405"><ele>219.0</ele><time>2026-03-28T15:55:12.02Z</time></trkpt><trkpt lat="40.7433517" lon="14.7842033"><ele>219.0</ele><time>2026-03-28T15:55:13.021Z</time></trkpt><trkpt lat="40.7435883" lon="14.784345"><ele>219.0</ele><time>2026-03-28T15:55:14.021Z</time></trkpt><trkpt lat="40.743825" lon="14.784475"><ele>221.0</ele><time>2026-03-28T15:55:15.02Z</time></trkpt><trkpt lat="40.74406" lon="14.784605"><ele>223.0</ele><time>2026-03-28T15:55:16.02Z</time></trkpt><trkpt lat="40.7442967" lon="14.784725"><ele>221.5</ele><time>2026-03-28T15:55:17.02Z</time></trkpt><trkpt lat="40.74453" lon="14.784845"><ele>220.0</ele><time>2026-03-28T15:55:18.02Z</time></trkpt><trkpt lat="40.7447583" lon="14.7849567"><ele>220.0</ele><time>2026-03-28T15:55:19.021Z</time></trkpt><trkpt lat="40.7449833" lon="14.7850617"><ele>220.0</ele><time>2026-03-28T15:55:20.021Z</time></trkpt><trkpt lat="40.745205" lon="14.7851567"><ele>223.5</ele><time>2026-03-28T15:55:21.02Z</time></trkpt><trkpt lat="40.7454233" lon="14.785245"><ele>227.0</ele><time>2026-03-28T15:55:22.02Z</time></trkpt><trkpt lat="40.7456517" lon="14.78533"><ele>227.0</ele><time>2026-03-28T15:55:23.021Z</time></trkpt><trkpt lat="40.7458867" lon="14.785415"><ele>227.0</ele><time>2026-03-28T15:55:24.021Z</time></trkpt><trkpt lat="40.7461333" lon="14.785495"><ele>230.0</ele><time>2026-03-28T15:55:25.02Z</time></trkpt><trkpt lat="40.7463917" lon="14.7855717"><ele>233.0</ele><time>2026-03-28T15:55:26.02Z</time></trkpt><trkpt lat="40.7466567" lon="14.7856383"><ele>229.5</ele><time>2026-03-28T15:55:27.021Z</time></trkpt><trkpt lat="40.746915" lon="14.7857117"><ele>226.0</ele><time>2026-03-28T15:55:28.02Z</time></trkpt><trkpt lat="40.7471667" lon="14.785765"><ele>226.0</ele><time>2026-03-28T15:55:29.021Z</time></trkpt><trkpt lat="40.7474233" lon="14.7858367"><ele>226.0</ele><time>2026-03-28T15:55:30.02Z</time></trkpt><trkpt lat="40.7476933" lon="14.7858983"><ele>226.5</ele><time>2026-03-28T15:55:31.02Z</time></trkpt><trkpt lat="40.7479617" lon="14.7859633"><ele>227.0</ele><time>2026-03-28T15:55:32.02Z</time></trkpt><trkpt lat="40.748235" lon="14.7860217"><ele>227.0</ele><time>2026-03-28T15:55:33.021Z</time></trkpt><trkpt lat="40.74851" lon="14.7860767"><ele>227.0</ele><time>2026-03-28T15:55:34.02Z</time></trkpt><trkpt lat="40.7487883" lon="14.7861333"><ele>225.5</ele><time>2026-03-28T15:55:35.02Z</time></trkpt><trkpt lat="40.74907" lon="14.7862017"><ele>224.0</ele><time>2026-03-28T15:55:36.02Z</time></trkpt><trkpt lat="40.749355" lon="14.78627"><ele>223.5</ele><time>2026-03-28T15:55:37.02Z</time></trkpt><trkpt lat="40.7496383" lon="14.7863333"><ele>223.0</ele><time>2026-03-28T15:55:38.02Z</time></trkpt><trkpt lat="40.7499217" lon="14.7863917"><ele>223.0</ele><time>2026-03-28T15:55:39.021Z</time></trkpt><trkpt lat="40.7502033" lon="14.7864467"><ele>223.0</ele><time>2026-03-28T15:55:40.02Z</time></trkpt><trkpt lat="40.7504867" lon="14.786505"><ele>223.5</ele><time>2026-03-28T15:55:41.021Z</time></trkpt><trkpt lat="40.75076" lon="14.786565"><ele>224.0</ele><time>2026-03-28T15:55:42.02Z</time></trkpt><trkpt lat="40.7510217" lon="14.78662"><ele>223.5</ele><time>2026-03-28T15:55:43.02Z</time></trkpt><trkpt lat="40.7512867" lon="14.7866667"><ele>223.0</ele><time>2026-03-28T15:55:44.02Z</time></trkpt><trkpt lat="40.7515467" lon="14.7867117"><ele>223.0</ele><time>2026-03-28T15:55:45.02Z</time></trkpt><trkpt lat="40.7518233" lon="14.7867667"><ele>223.0</ele><time>2026-03-28T15:55:46.022Z</time></trkpt><trkpt lat="40.7521067" lon="14.7868217"><ele>224.5</ele><time>2026-03-28T15:55:47.022Z</time></trkpt><trkpt lat="40.7523917" lon="14.786875"><ele>226.0</ele><time>2026-03-28T15:55:48.021Z</time></trkpt><trkpt lat="40.7526817" lon="14.7869283"><ele>225.5</ele><time>2026-03-28T15:55:49.021Z</time></trkpt><trkpt lat="40.75297" lon="14.78698"><ele>225.0</ele><time>2026-03-28T15:55:50.021Z</time></trkpt><trkpt lat="40.753255" lon="14.7870283"><ele>225.0</ele><time>2026-03-28T15:55:51.021Z</time></trkpt><trkpt lat="40.7535367" lon="14.7870917"><ele>225.0</ele><time>2026-03-28T15:55:52.022Z</time></trkpt><trkpt lat="40.7538167" lon="14.7871467"><ele>226.0</ele><time>2026-03-28T15:55:53.021Z</time></trkpt><trkpt lat="40.7540883" lon="14.7872017"><ele>227.0</ele><time>2026-03-28T15:55:54.021Z</time></trkpt><trkpt lat="40.7543533" lon="14.78726"><ele>229.0</ele><time>2026-03-28T15:55:55.021Z</time></trkpt><trkpt lat="40.7546267" lon="14.78732"><ele>231.0</ele><time>2026-03-28T15:55:56.022Z</time></trkpt><trkpt lat="40.7549017" lon="14.7873767"><ele>231.0</ele><time>2026-03-28T15:55:57.022Z</time></trkpt><trkpt lat="40.7551683" lon="14.78744"><ele>231.0</ele><time>2026-03-28T15:55:58.022Z</time></trkpt><trkpt lat="40.7554283" lon="14.787505"><ele>233.0</ele><time>2026-03-28T15:55:59.022Z</time></trkpt><trkpt lat="40.75567" lon="14.7875567"><ele>235.0</ele><time>2026-03-28T15:56:00.021Z</time></trkpt><trkpt lat="40.755895" lon="14.787615"><ele>235.33333333333331</ele><time>2026-03-28T15:56:01.021Z</time></trkpt><trkpt lat="40.7561067" lon="14.7876633"><ele>235.66666666666669</ele><time>2026-03-28T15:56:02.022Z</time></trkpt><trkpt lat="40.7563083" lon="14.78771"><ele>236.0</ele><time>2026-03-28T15:56:03.021Z</time></trkpt><trkpt lat="40.7564983" lon="14.7877533"><ele>236.66666666666669</ele><time>2026-03-28T15:56:04.022Z</time></trkpt><trkpt lat="40.756675" lon="14.7877967"><ele>237.33333333333331</ele><time>2026-03-28T15:56:05.021Z</time></trkpt><trkpt lat="40.75684" lon="14.7878283"><ele>238.0</ele><time>2026-03-28T15:56:06.021Z</time></trkpt><trkpt lat="40.7569933" lon="14.78786"><ele>238.4</ele><time>2026-03-28T15:56:07.021Z</time></trkpt><trkpt lat="40.757135" lon="14.787885"><ele>238.8</ele><time>2026-03-28T15:56:08.021Z</time></trkpt><trkpt lat="40.7572517" lon="14.787915"><ele>239.2</ele><time>2026-03-28T15:56:09.021Z</time></trkpt><trkpt lat="40.7573483" lon="14.7879467"><ele>239.6</ele><time>2026-03-28T15:56:10.022Z</time></trkpt><trkpt lat="40.7574183" lon="14.7879917"><ele>240.0</ele><time>2026-03-28T15:56:11.021Z</time></trkpt><trkpt lat="40.75746" lon="14.7880667"><ele>240.0</ele><time>2026-03-28T15:56:12.021Z</time></trkpt><trkpt lat="40.7574783" lon="14.7881517"><ele>240.0</ele><time>2026-03-28T15:56:13.021Z</time></trkpt><trkpt lat="40.757445" lon="14.788285"><ele>240.0</ele><time>2026-03-28T15:56:15.021Z</time></trkpt><trkpt lat="40.7573633" lon="14.7883767"><ele>240.0</ele><time>2026-03-28T15:56:17.022Z</time></trkpt><trkpt lat="40.7572483" lon="14.788425"><ele>240.0</ele><time>2026-03-28T15:56:19.022Z</time></trkpt><trkpt lat="40.7571117" lon="14.7884083"><ele>240.0</ele><time>2026-03-28T15:56:21.021Z</time></trkpt><trkpt lat="40.7570267" lon="14.7883917"><ele>240.0</ele><time>2026-03-28T15:56:22.022Z</time></trkpt><trkpt lat="40.756935" lon="14.788375"><ele>240.0</ele><time>2026-03-28T15:56:23.022Z</time></trkpt><trkpt lat="40.7568417" lon="14.7883567"><ele>240.0</ele><time>2026-03-28T15:56:24.021Z</time></trkpt><trkpt lat="40.7567417" lon="14.7883433"><ele>240.0</ele><time>2026-03-28T15:56:25.021Z</time></trkpt><trkpt lat="40.7566417" lon="14.7883283"><ele>239.6</ele><time>2026-03-28T15:56:26.021Z</time></trkpt><trkpt lat="40.7565317" lon="14.7883233"><ele>239.2</ele><time>2026-03-28T15:56:27.021Z</time></trkpt><trkpt lat="40.7564317" lon="14.7883233"><ele>238.8</ele><time>2026-03-28T15:56:28.021Z</time></trkpt><trkpt lat="40.7563333" lon="14.7883183"><ele>238.4</ele><time>2026-03-28T15:56:29.021Z</time></trkpt><trkpt lat="40.75622" lon="14.7883067"><ele>238.0</ele><time>2026-03-28T15:56:30.022Z</time></trkpt><trkpt lat="40.75609" lon="14.7882817"><ele>237.75</ele><time>2026-03-28T15:56:31.021Z</time></trkpt><trkpt lat="40.7559667" lon="14.7882517"><ele>237.5</ele><time>2026-03-28T15:56:32.022Z</time></trkpt><trkpt lat="40.755845" lon="14.7882183"><ele>237.25</ele><time>2026-03-28T15:56:33.021Z</time></trkpt><trkpt lat="40.7557367" lon="14.788175"><ele>237.0</ele><time>2026-03-28T15:56:34.022Z</time></trkpt><trkpt lat="40.75565" lon="14.7881367"><ele>237.0</ele><time>2026-03-28T15:56:35.021Z</time></trkpt><trkpt lat="40.7555817" lon="14.7880883"><ele>237.0</ele><time>2026-03-28T15:56:36.021Z</time></trkpt><trkpt lat="40.7555283" lon="14.788035"><ele>237.0</ele><time>2026-03-28T15:56:37.022Z</time></trkpt><trkpt lat="40.7554867" lon="14.78796"><ele>237.0</ele><time>2026-03-28T15:56:38.021Z</time></trkpt><trkpt lat="40.7554517" lon="14.7878617"><ele>237.0</ele><time>2026-03-28T15:56:39.021Z</time></trkpt><trkpt lat="40.75543" lon="14.7877517"><ele>237.0</ele><time>2026-03-28T15:56:40.022Z</time></trkpt><trkpt lat="40.75542" lon="14.7876233"><ele>236.5</ele><time>2026-03-28T15:56:41.022Z</time></trkpt><trkpt lat="40.7554167" lon="14.7874867"><ele>236.0</ele><time>2026-03-28T15:56:42.022Z</time></trkpt><trkpt lat="40.75542" lon="14.7873233"><ele>235.5</ele><time>2026-03-28T15:56:43.021Z</time></trkpt><trkpt lat="40.755465" lon="14.7871417"><ele>235.0</ele><time>2026-03-28T15:56:44.021Z</time></trkpt><trkpt lat="40.7555133" lon="14.7869567"><ele>234.25</ele><time>2026-03-28T15:56:45.022Z</time></trkpt><trkpt lat="40.7555617" lon="14.7867817"><ele>233.5</ele><time>2026-03-28T15:56:46.021Z</time></trkpt><trkpt lat="40.7556083" lon="14.786615"><ele>232.75</ele><time>2026-03-28T15:56:47.022Z</time></trkpt><trkpt lat="40.755645" lon="14.786455"><ele>232.0</ele><time>2026-03-28T15:56:48.021Z</time></trkpt><trkpt lat="40.7556667" lon="14.7863"><ele>232.0</ele><time>2026-03-28T15:56:49.021Z</time></trkpt><trkpt lat="40.7556733" lon="14.78614"><ele>232.0</ele><time>2026-03-28T15:56:50.022Z</time></trkpt><trkpt lat="40.7556633" lon="14.7859767"><ele>232.0</ele><time>2026-03-28T15:56:51.021Z</time></trkpt><trkpt lat="40.7556333" lon="14.7858183"><ele>232.0</ele><time>2026-03-28T15:56:52.022Z</time></trkpt><trkpt lat="40.7555833" lon="14.7856583"><ele>231.25</ele><time>2026-03-28T15:56:53.021Z</time></trkpt><trkpt lat="40.7555283" lon="14.7855"><ele>230.5</ele><time>2026-03-28T15:56:54.021Z</time></trkpt><trkpt lat="40.755475" lon="14.7853633"><ele>229.75</ele><time>2026-03-28T15:56:55.021Z</time></trkpt><trkpt lat="40.7554333" lon="14.7852283"><ele>229.0</ele><time>2026-03-28T15:56:56.022Z</time></trkpt><trkpt lat="40.75539" lon="14.785095"><ele>228.39999999999998</ele><time>2026-03-28T15:56:57.021Z</time></trkpt><trkpt lat="40.7553433" lon="14.7849633"><ele>227.79999999999998</ele><time>2026-03-28T15:56:58.021Z</time></trkpt><trkpt lat="40.7553033" lon="14.7848333"><ele>227.20000000000002</ele><time>2026-03-28T15:56:59.021Z</time></trkpt><trkpt lat="40.7552633" lon="14.7847017"><ele>226.60000000000002</ele><time>2026-03-28T15:57:00.021Z</time></trkpt><trkpt lat="40.7552217" lon="14.78457"><ele>226.0</ele><time>2026-03-28T15:57:01.021Z</time></trkpt><trkpt lat="40.755175" lon="14.7844367"><ele>225.4</ele><time>2026-03-28T15:57:02.021Z</time></trkpt><trkpt lat="40.755125" lon="14.784315"><ele>224.8</ele><time>2026-03-28T15:57:03.021Z</time></trkpt><trkpt lat="40.75508" lon="14.784185"><ele>224.20000000000002</ele><time>2026-03-28T15:57:04.021Z</time></trkpt><trkpt lat="40.755035" lon="14.7840683"><ele>223.60000000000002</ele><time>2026-03-28T15:57:05.021Z</time></trkpt><trkpt lat="40.7549867" lon="14.783955"><ele>223.0</ele><time>2026-03-28T15:57:06.021Z</time></trkpt><trkpt lat="40.7549367" lon="14.7838417"><ele>223.0</ele><time>2026-03-28T15:57:07.021Z</time></trkpt><trkpt lat="40.7548817" lon="14.7837267"><ele>223.0</ele><time>2026-03-28T15:57:08.021Z</time></trkpt><trkpt lat="40.7548317" lon="14.7836167"><ele>223.0</ele><time>2026-03-28T15:57:09.022Z</time></trkpt><trkpt lat="40.7547817" lon="14.783505"><ele>223.0</ele><time>2026-03-28T15:57:10.022Z</time></trkpt><trkpt lat="40.7547383" lon="14.7833867"><ele>223.0</ele><time>2026-03-28T15:57:11.022Z</time></trkpt><trkpt lat="40.754695" lon="14.7832833"><ele>222.49999999999997</ele><time>2026-03-28T15:57:12.021Z</time></trkpt><trkpt lat="40.7546533" lon="14.7831867"><ele>222.0</ele><time>2026-03-28T15:57:13.021Z</time></trkpt><trkpt lat="40.7546167" lon="14.78309"><ele>221.5</ele><time>2026-03-28T15:57:14.021Z</time></trkpt><trkpt lat="40.7546033" lon="14.7829917"><ele>221.0</ele><time>2026-03-28T15:57:15.022Z</time></trkpt><trkpt lat="40.7545933" lon="14.7828883"><ele>220.49999999999997</ele><time>2026-03-28T15:57:16.021Z</time></trkpt><trkpt lat="40.7545617" lon="14.7827833"><ele>220.0</ele><time>2026-03-28T15:57:17.021Z</time></trkpt><trkpt lat="40.7545083" lon="14.782685"><ele>219.0</ele><time>2026-03-28T15:57:18.021Z</time></trkpt><trkpt lat="40.75444" lon="14.7825883"><ele>218.0</ele><time>2026-03-28T15:57:19.022Z</time></trkpt><trkpt lat="40.7543683" lon="14.782485"><ele>217.0</ele><time>2026-03-28T15:57:20.022Z</time></trkpt><trkpt lat="40.7543" lon="14.78236"><ele>216.0</ele><time>2026-03-28T15:57:21.022Z</time></trkpt><trkpt lat="40.7542317" lon="14.7822067"><ele>215.75</ele><time>2026-03-28T15:57:22.022Z</time></trkpt><trkpt lat="40.7541667" lon="14.7820483"><ele>215.5</ele><time>2026-03-28T15:57:23.021Z</time></trkpt><trkpt lat="40.7540983" lon="14.781905"><ele>215.25</ele><time>2026-03-28T15:57:24.022Z</time></trkpt><trkpt lat="40.754035" lon="14.7817683"><ele>215.0</ele><time>2026-03-28T15:57:25.021Z</time></trkpt><trkpt lat="40.7539717" lon="14.7816383"><ele>214.6</ele><time>2026-03-28T15:57:26.021Z</time></trkpt><trkpt lat="40.7539167" lon="14.7815183"><ele>214.2</ele><time>2026-03-28T15:57:27.022Z</time></trkpt><trkpt lat="40.753865" lon="14.7814033"><ele>213.8</ele><time>2026-03-28T15:57:28.021Z</time></trkpt><trkpt lat="40.7538133" lon="14.7812967"><ele>213.4</ele><time>2026-03-28T15:57:29.022Z</time></trkpt><trkpt lat="40.75377" lon="14.7811817"><ele>213.0</ele><time>2026-03-28T15:57:30.022Z</time></trkpt><trkpt lat="40.753755" lon="14.781065"><ele>212.66666666666666</ele><time>2026-03-28T15:57:31.021Z</time></trkpt><trkpt lat="40.7537517" lon="14.7809583"><ele>212.33333333333331</ele><time>2026-03-28T15:57:32.022Z</time></trkpt><trkpt lat="40.7537483" lon="14.78086"><ele>212.0</ele><time>2026-03-28T15:57:33.022Z</time></trkpt><trkpt lat="40.7537183" lon="14.78077"><ele>211.66666666666666</ele><time>2026-03-28T15:57:34.021Z</time></trkpt><trkpt lat="40.7536717" lon="14.7807017"><ele>211.33333333333331</ele><time>2026-03-28T15:57:35.022Z</time></trkpt><trkpt lat="40.7536033" lon="14.7806633"><ele>211.0</ele><time>2026-03-28T15:57:36.022Z</time></trkpt><trkpt lat="40.7535183" lon="14.780645"><ele>211.0</ele><time>2026-03-28T15:57:37.021Z</time></trkpt><trkpt lat="40.7534233" lon="14.7806083"><ele>211.0</ele><time>2026-03-28T15:57:38.021Z</time></trkpt><trkpt lat="40.75333" lon="14.7805417"><ele>211.0</ele><time>2026-03-28T15:57:39.022Z</time></trkpt><trkpt lat="40.7532283" lon="14.780435"><ele>211.0</ele><time>2026-03-28T15:57:40.021Z</time></trkpt><trkpt lat="40.7531317" lon="14.7803"><ele>210.75</ele><time>2026-03-28T15:57:41.021Z</time></trkpt><trkpt lat="40.7530333" lon="14.7801617"><ele>210.5</ele><time>2026-03-28T15:57:42.022Z</time></trkpt><trkpt lat="40.75293" lon="14.7800267"><ele>210.25</ele><time>2026-03-28T15:57:43.021Z</time></trkpt><trkpt lat="40.75283" lon="14.7798933"><ele>210.0</ele><time>2026-03-28T15:57:44.021Z</time></trkpt><trkpt lat="40.7527333" lon="14.7797617"><ele>209.25</ele><time>2026-03-28T15:57:45.021Z</time></trkpt><trkpt lat="40.752635" lon="14.7796333"><ele>208.5</ele><time>2026-03-28T15:57:46.021Z</time></trkpt><trkpt lat="40.7525383" lon="14.7795067"><ele>207.75</ele><time>2026-03-28T15:57:47.022Z</time></trkpt><trkpt lat="40.7524417" lon="14.77938"><ele>207.0</ele><time>2026-03-28T15:57:48.021Z</time></trkpt><trkpt lat="40.7523467" lon="14.77926"><ele>206.25</ele><time>2026-03-28T15:57:49.022Z</time></trkpt><trkpt lat="40.752255" lon="14.77914"><ele>205.5</ele><time>2026-03-28T15:57:50.021Z</time></trkpt><trkpt lat="40.7521683" lon="14.77902"><ele>204.75</ele><time>2026-03-28T15:57:51.022Z</time></trkpt><trkpt lat="40.75208" lon="14.7789"><ele>204.0</ele><time>2026-03-28T15:57:52.021Z</time></trkpt><trkpt lat="40.752" lon="14.7787817"><ele>204.0</ele><time>2026-03-28T15:57:53.021Z</time></trkpt><trkpt lat="40.751925" lon="14.778665"><ele>204.0</ele><time>2026-03-28T15:57:54.021Z</time></trkpt><trkpt lat="40.7518533" lon="14.7785467"><ele>204.0</ele><time>2026-03-28T15:57:55.021Z</time></trkpt><trkpt lat="40.75178" lon="14.7784333"><ele>204.0</ele><time>2026-03-28T15:57:56.021Z</time></trkpt><trkpt lat="40.7517167" lon="14.7783233"><ele>204.0</ele><time>2026-03-28T15:57:57.021Z</time></trkpt><trkpt lat="40.7516533" lon="14.7782183"><ele>203.39999999999998</ele><time>2026-03-28T15:57:58.022Z</time></trkpt><trkpt lat="40.7515983" lon="14.7781167"><ele>202.8</ele><time>2026-03-28T15:57:59.022Z</time></trkpt><trkpt lat="40.75154" lon="14.77802"><ele>202.2</ele><time>2026-03-28T15:58:00.021Z</time></trkpt><trkpt lat="40.7514883" lon="14.77792"><ele>201.60000000000002</ele><time>2026-03-28T15:58:01.021Z</time></trkpt><trkpt lat="40.7514317" lon="14.7778117"><ele>201.0</ele><time>2026-03-28T15:58:02.021Z</time></trkpt><trkpt lat="40.7513833" lon="14.7777"><ele>200.60000000000002</ele><time>2026-03-28T15:58:03.021Z</time></trkpt><trkpt lat="40.751335" lon="14.7775867"><ele>200.2</ele><time>2026-03-28T15:58:04.021Z</time></trkpt><trkpt lat="40.751305" lon="14.7774667"><ele>199.8</ele><time>2026-03-28T15:58:05.021Z</time></trkpt><trkpt lat="40.751275" lon="14.7773467"><ele>199.39999999999998</ele><time>2026-03-28T15:58:06.021Z</time></trkpt><trkpt lat="40.751255" lon="14.7772183"><ele>199.0</ele><time>2026-03-28T15:58:07.022Z</time></trkpt><trkpt lat="40.7512367" lon="14.7770967"><ele>198.99999999999997</ele><time>2026-03-28T15:58:08.021Z</time></trkpt><trkpt lat="40.7512183" lon="14.7769767"><ele>199.0</ele><time>2026-03-28T15:58:09.021Z</time></trkpt><trkpt lat="40.7512033" lon="14.776865"><ele>199.0</ele><time>2026-03-28T15:58:10.021Z</time></trkpt><trkpt lat="40.7511867" lon="14.7767617"><ele>199.0</ele><time>2026-03-28T15:58:11.022Z</time></trkpt><trkpt lat="40.7511767" lon="14.7766683"><ele>198.99999999999997</ele><time>2026-03-28T15:58:12.022Z</time></trkpt><trkpt lat="40.75118" lon="14.7765367"><ele>199.0</ele><time>2026-03-28T15:58:14.021Z</time></trkpt><trkpt lat="40.751215" lon="14.7764217"><ele>198.33333333333331</ele><time>2026-03-28T15:58:16.021Z</time></trkpt><trkpt lat="40.7512267" lon="14.7763183"><ele>197.66666666666666</ele><time>2026-03-28T15:58:18.021Z</time></trkpt><trkpt lat="40.751175" lon="14.77623"><ele>197.0</ele><time>2026-03-28T15:58:21.022Z</time></trkpt><trkpt lat="40.7511083" lon="14.7762267"><ele>196.33333333333331</ele><time>2026-03-28T15:58:23.022Z</time></trkpt><trkpt lat="40.7510117" lon="14.776245"><ele>195.66666666666666</ele><time>2026-03-28T15:58:25.022Z</time></trkpt><trkpt lat="40.750915" lon="14.7762083"><ele>195.0</ele><time>2026-03-28T15:58:27.021Z</time></trkpt><trkpt lat="40.7508317" lon="14.7761267"><ele>195.0</ele><time>2026-03-28T15:58:29.021Z</time></trkpt><trkpt lat="40.7507267" lon="14.7760233"><ele>195.0</ele><time>2026-03-28T15:58:31.021Z</time></trkpt><trkpt lat="40.7506633" lon="14.77597"><ele>195.0</ele><time>2026-03-28T15:58:32.021Z</time></trkpt><trkpt lat="40.7506" lon="14.7759117"><ele>195.0</ele><time>2026-03-28T15:58:33.022Z</time></trkpt><trkpt lat="40.7505333" lon="14.775845"><ele>195.0</ele><time>2026-03-28T15:58:34.021Z</time></trkpt><trkpt lat="40.7504717" lon="14.7757767"><ele>195.0</ele><time>2026-03-28T15:58:35.022Z</time></trkpt><trkpt lat="40.7504083" lon="14.775715"><ele>195.0</ele><time>2026-03-28T15:58:36.022Z</time></trkpt><trkpt lat="40.7503517" lon="14.7756583"><ele>195.0</ele><time>2026-03-28T15:58:37.022Z</time></trkpt><trkpt lat="40.7502983" lon="14.7755983"><ele>195.0</ele><time>2026-03-28T15:58:38.021Z</time></trkpt><trkpt lat="40.7502483" lon="14.7755333"><ele>195.0</ele><time>2026-03-28T15:58:39.022Z</time></trkpt><trkpt lat="40.7502017" lon="14.7754633"><ele>195.0</ele><time>2026-03-28T15:58:40.022Z</time></trkpt><trkpt lat="40.7501467" lon="14.77539"><ele>195.0</ele><time>2026-03-28T15:58:41.021Z</time></trkpt><trkpt lat="40.7500883" lon="14.77531"><ele>195.0</ele><time>2026-03-28T15:58:42.021Z</time></trkpt><trkpt lat="40.7500283" lon="14.7752217"><ele>195.0</ele><time>2026-03-28T15:58:43.022Z</time></trkpt><trkpt lat="40.7499833" lon="14.7751217"><ele>195.0</ele><time>2026-03-28T15:58:44.021Z</time></trkpt><trkpt lat="40.7499633" lon="14.7749917"><ele>195.0</ele><time>2026-03-28T15:58:45.022Z</time></trkpt><trkpt lat="40.749955" lon="14.7748517"><ele>195.0</ele><time>2026-03-28T15:58:46.022Z</time></trkpt><trkpt lat="40.7499583" lon="14.7746983"><ele>195.0</ele><time>2026-03-28T15:58:47.021Z</time></trkpt><trkpt lat="40.7499633" lon="14.7745317"><ele>195.0</ele><time>2026-03-28T15:58:48.022Z</time></trkpt><trkpt lat="40.7499667" lon="14.774365"><ele>195.0</ele><time>2026-03-28T15:58:49.021Z</time></trkpt><trkpt lat="40.7499717" lon="14.7741767"><ele>195.0</ele><time>2026-03-28T15:58:50.021Z</time></trkpt><trkpt lat="40.74997" lon="14.7739767"><ele>195.0</ele><time>2026-03-28T15:58:51.021Z</time></trkpt><trkpt lat="40.7499733" lon="14.7737783"><ele>194.75</ele><time>2026-03-28T15:58:52.022Z</time></trkpt><trkpt lat="40.7499833" lon="14.7735817"><ele>194.5</ele><time>2026-03-28T15:58:53.021Z</time></trkpt><trkpt lat="40.7499767" lon="14.7733817"><ele>194.25</ele><time>2026-03-28T15:58:54.021Z</time></trkpt><trkpt lat="40.7499817" lon="14.7732033"><ele>194.0</ele><time>2026-03-28T15:58:55.022Z</time></trkpt><trkpt lat="40.7499817" lon="14.7730383"><ele>195.25</ele><time>2026-03-28T15:58:56.021Z</time></trkpt><trkpt lat="40.749975" lon="14.7728767"><ele>196.5</ele><time>2026-03-28T15:58:57.022Z</time></trkpt><trkpt lat="40.7499767" lon="14.7727217"><ele>197.75</ele><time>2026-03-28T15:58:58.021Z</time></trkpt><trkpt lat="40.7499833" lon="14.7725733"><ele>199.0</ele><time>2026-03-28T15:58:59.022Z</time></trkpt><trkpt lat="40.7499783" lon="14.77243"><ele>198.99999999999997</ele><time>2026-03-28T15:59:00.022Z</time></trkpt><trkpt lat="40.7499817" lon="14.772295"><ele>199.0</ele><time>2026-03-28T15:59:01.022Z</time></trkpt><trkpt lat="40.7499817" lon="14.7721683"><ele>199.0</ele><time>2026-03-28T15:59:02.022Z</time></trkpt><trkpt lat="40.74998" lon="14.77205"><ele>199.0</ele><time>2026-03-28T15:59:03.022Z</time></trkpt><trkpt lat="40.7499933" lon="14.7719433"><ele>198.99999999999997</ele><time>2026-03-28T15:59:04.022Z</time></trkpt><trkpt lat="40.7500083" lon="14.7718567"><ele>199.0</ele><time>2026-03-28T15:59:05.021Z</time></trkpt><trkpt lat="40.75002" lon="14.7717533"><ele>198.66666666666666</ele><time>2026-03-28T15:59:07.021Z</time></trkpt><trkpt lat="40.749985" lon="14.77166"><ele>198.33333333333331</ele><time>2026-03-28T15:59:10.021Z</time></trkpt><trkpt lat="40.7498967" lon="14.77156"><ele>198.0</ele><time>2026-03-28T15:59:12.022Z</time></trkpt><trkpt lat="40.749845" lon="14.7715083"><ele>197.66666666666669</ele><time>2026-03-28T15:59:13.022Z</time></trkpt><trkpt lat="40.74979" lon="14.7714667"><ele>197.33333333333334</ele><time>2026-03-28T15:59:14.022Z</time></trkpt><trkpt lat="40.7497467" lon="14.7714"><ele>197.0</ele><time>2026-03-28T15:59:15.022Z</time></trkpt><trkpt lat="40.7496983" lon="14.77125"><ele>197.0</ele><time>2026-03-28T15:59:17.022Z</time></trkpt><trkpt lat="40.749695" lon="14.771165"><ele>197.0</ele><time>2026-03-28T15:59:18.021Z</time></trkpt><trkpt lat="40.7497133" lon="14.7710583"><ele>197.0</ele><time>2026-03-28T15:59:19.021Z</time></trkpt><trkpt lat="40.749745" lon="14.77092"><ele>197.0</ele><time>2026-03-28T15:59:20.022Z</time></trkpt><trkpt lat="40.7497867" lon="14.77073"><ele>197.0</ele><time>2026-03-28T15:59:21.022Z</time></trkpt><trkpt lat="40.7498283" lon="14.7705367"><ele>197.0</ele><time>2026-03-28T15:59:22.022Z</time></trkpt><trkpt lat="40.7498483" lon="14.7703683"><ele>197.0</ele><time>2026-03-28T15:59:23.022Z</time></trkpt><trkpt lat="40.74986" lon="14.77023"><ele>197.0</ele><time>2026-03-28T15:59:24.021Z</time></trkpt><trkpt lat="40.7498617" lon="14.770115"><ele>197.0</ele><time>2026-03-28T15:59:25.022Z</time></trkpt><trkpt lat="40.7498733" lon="14.77003"><ele>197.0</ele><time>2026-03-28T15:59:26.022Z</time></trkpt><trkpt lat="40.7498967" lon="14.769925"><ele>197.33333333333334</ele><time>2026-03-28T15:59:28.021Z</time></trkpt><trkpt lat="40.749895" lon="14.7698033"><ele>197.66666666666669</ele><time>2026-03-28T15:59:30.021Z</time></trkpt><trkpt lat="40.7498183" lon="14.769735"><ele>198.0</ele><time>2026-03-28T15:59:32.022Z</time></trkpt><trkpt lat="40.749715" lon="14.76981"><ele>198.33333333333331</ele><time>2026-03-28T15:59:34.021Z</time></trkpt><trkpt lat="40.7496617" lon="14.7698683"><ele>198.66666666666666</ele><time>2026-03-28T15:59:35.022Z</time></trkpt><trkpt lat="40.749595" lon="14.7698917"><ele>199.0</ele><time>2026-03-28T15:59:36.021Z</time></trkpt><trkpt lat="40.7495217" lon="14.7698767"><ele>199.0</ele><time>2026-03-28T15:59:37.022Z</time></trkpt><trkpt lat="40.7494317" lon="14.769815"><ele>199.0</ele><time>2026-03-28T15:59:38.021Z</time></trkpt><trkpt lat="40.749325" lon="14.7697633"><ele>199.0</ele><time>2026-03-28T15:59:39.022Z</time></trkpt><trkpt lat="40.7492117" lon="14.76972"><ele>199.0</ele><time>2026-03-28T15:59:40.021Z</time></trkpt><trkpt lat="40.74911" lon="14.7696817"><ele>199.0</ele><time>2026-03-28T15:59:41.021Z</time></trkpt><trkpt lat="40.7490183" lon="14.769665"><ele>198.83333333333331</ele><time>2026-03-28T15:59:42.022Z</time></trkpt><trkpt lat="40.7489383" lon="14.76966"><ele>198.66666666666666</ele><time>2026-03-28T15:59:43.021Z</time></trkpt><trkpt lat="40.74885" lon="14.7696367"><ele>198.5</ele><time>2026-03-28T15:59:45.021Z</time></trkpt><trkpt lat="40.748825" lon="14.76954"><ele>198.33333333333331</ele><time>2026-03-28T15:59:49.021Z</time></trkpt><trkpt lat="40.7488517" lon="14.7694467"><ele>198.16666666666666</ele><time>2026-03-28T15:59:51.021Z</time></trkpt><trkpt lat="40.7488783" lon="14.7693583"><ele>198.0</ele><time>2026-03-28T15:59:53.021Z</time></trkpt><trkpt lat="40.7489" lon="14.7692633"><ele>198.0</ele><time>2026-03-28T15:59:55.021Z</time></trkpt><trkpt lat="40.74892" lon="14.7691717"><ele>198.0</ele><time>2026-03-28T15:59:57.021Z</time></trkpt><trkpt lat="40.748955" lon="14.7690567"><ele>198.0</ele><time>2026-03-28T15:59:59.021Z</time></trkpt><trkpt lat="40.74898" lon="14.76895"><ele>198.0</ele><time>2026-03-28T16:00:01.021Z</time></trkpt><trkpt lat="40.7490133" lon="14.768845"><ele>198.0</ele><time>2026-03-28T16:00:03.021Z</time></trkpt><trkpt lat="40.749055" lon="14.7687383"><ele>198.0</ele><time>2026-03-28T16:00:05.021Z</time></trkpt><trkpt lat="40.7491067" lon="14.7686317"><ele>198.0</ele><time>2026-03-28T16:00:07.021Z</time></trkpt><trkpt lat="40.7487162" lon="14.7691071"><ele>198.0</ele><time>2026-03-28T16:00:17.181Z</time></trkpt><trkpt lat="40.7487998" lon="14.7691616"><ele>198.0</ele><time>2026-03-28T16:05:34.084Z</time></trkpt><trkpt lat="40.748814" lon="14.769243"><ele>198.0</ele><time>2026-03-28T19:17:47.022Z</time></trkpt><trkpt lat="40.7487968" lon="14.7693272"><ele>198.0</ele><time>2026-03-28T19:17:48.109Z</time></trkpt><trkpt lat="40.7487837" lon="14.7694397"><ele>198.0</ele><time>2026-03-28T19:17:49.099Z</time></trkpt><trkpt lat="40.7487936" lon="14.7702321"><ele>196.66666666666669</ele><time>2026-03-28T19:17:50.089Z</time></trkpt><trkpt lat="40.748794" lon="14.7704977"><ele>195.33333333333334</ele><time>2026-03-28T19:17:51.078Z</time></trkpt><trkpt lat="40.7487967" lon="14.7707133"><ele>194.0</ele><time>2026-03-28T19:17:52.068Z</time></trkpt><trkpt lat="40.7488047" lon="14.7708949"><ele>194.00000000000003</ele><time>2026-03-28T19:17:53.056Z</time></trkpt><trkpt lat="40.7488142" lon="14.7710422"><ele>194.0</ele><time>2026-03-28T19:17:54.047Z</time></trkpt><trkpt lat="40.7488609" lon="14.7711528"><ele>194.0</ele><time>2026-03-28T19:17:55.035Z</time></trkpt><trkpt lat="40.7488848" lon="14.7712436"><ele>194.0</ele><time>2026-03-28T19:17:57.022Z</time></trkpt><trkpt lat="40.7489278" lon="14.7711741"><ele>194.00000000000003</ele><time>2026-03-28T19:18:00.094Z</time></trkpt><trkpt lat="40.7489602" lon="14.7710696"><ele>194.0</ele><time>2026-03-28T19:18:03.061Z</time></trkpt><trkpt lat="40.748975" lon="14.7709854"><ele>194.0</ele><time>2026-03-28T19:18:06.031Z</time></trkpt><trkpt lat="40.7489653" lon="14.7709016"><ele>194.0</ele><time>2026-03-28T19:18:12.077Z</time></trkpt><trkpt lat="40.7488873" lon="14.7708514"><ele>194.0</ele><time>2026-03-28T19:18:44.071Z</time></trkpt><trkpt lat="40.7488136" lon="14.7703264"><ele>196.0</ele><time>2026-03-28T19:18:49.023Z</time></trkpt><trkpt lat="40.7487946" lon="14.7695961"><ele>196.0</ele><time>2026-03-28T19:18:50.023Z</time></trkpt><trkpt lat="40.7487741" lon="14.7694655"><ele>196.0</ele><time>2026-03-28T19:18:51.022Z</time></trkpt><trkpt lat="40.7487935" lon="14.7692051"><ele>196.0</ele><time>2026-03-28T19:18:54.582Z</time></trkpt><trkpt lat="40.7487465" lon="14.7690794"><ele>196.0</ele><time>2026-03-28T19:41:32.023Z</time></trkpt><trkpt lat="40.7486739" lon="14.7690348"><ele>196.33333333333331</ele><time>2026-03-28T19:41:42.023Z</time></trkpt><trkpt lat="40.7486117" lon="14.7689932"><ele>196.66666666666666</ele><time>2026-03-28T19:41:53.023Z</time></trkpt><trkpt lat="40.7486834" lon="14.7690266"><ele>197.0</ele><time>2026-03-28T19:43:06.021Z</time></trkpt><trkpt lat="40.7487427" lon="14.7690615"><ele>197.33333333333331</ele><time>2026-03-28T19:43:15.038Z</time></trkpt><trkpt lat="40.7488062" lon="14.7690807"><ele>197.66666666666666</ele><time>2026-03-28T19:44:31.022Z</time></trkpt><trkpt lat="40.748867" lon="14.7691039"><ele>198.0</ele><time>2026-03-28T19:45:19.056Z</time></trkpt><trkpt lat="40.7489257" lon="14.7692539"><ele>198.0</ele><time>2026-03-28T19:47:44.077Z</time></trkpt><trkpt lat="40.7488294" lon="14.7691375"><ele>198.0</ele><time>2026-03-28T19:49:27.78Z</time></trkpt><trkpt lat="40.7487583" lon="14.7691234"><ele>198.0</ele><time>2026-03-28T19:53:57.021Z</time></trkpt><trkpt lat="40.7486408" lon="14.7690397"><ele>198.0</ele><time>2026-03-28T19:54:08.02Z</time></trkpt><trkpt lat="40.7485636" lon="14.7689922"><ele>198.0</ele><time>2026-03-28T19:54:23.071Z</time></trkpt><trkpt lat="40.74863" lon="14.7691197"><ele>198.0</ele><time>2026-03-28T19:54:46.727Z</time></trkpt><trkpt lat="40.7487539" lon="14.7691615"><ele>198.0</ele><time>2026-03-28T19:54:51.788Z</time></trkpt><trkpt lat="40.7488951" lon="14.7691599"><ele>198.0</ele><time>2026-03-28T19:55:02.651Z</time></trkpt><trkpt lat="40.7489596" lon="14.7691452"><ele>198.0</ele><time>2026-03-28T19:55:08.369Z</time></trkpt><trkpt lat="40.7488328" lon="14.7692217"><ele>198.0</ele><time>2026-03-28T19:56:07.412Z</time></trkpt><trkpt lat="40.7488566" lon="14.7690662"><ele>198.0</ele><time>2026-03-28T19:59:22.024Z</time></trkpt><trkpt lat="40.7488184" lon="14.7692148"><ele>198.0</ele><time>2026-03-28T20:04:08.865Z</time></trkpt><trkpt lat="40.7487713" lon="14.7690776"><ele>198.0</ele><time>2026-03-28T20:04:35.508Z</time></trkpt><trkpt lat="40.7488742" lon="14.7691649"><ele>198.0</ele><time>2026-03-28T20:06:18.501Z</time></trkpt><trkpt lat="40.748935" lon="14.7692001"><ele>198.0</ele><time>2026-03-28T22:31:21.021Z</time></trkpt><trkpt lat="40.7490182" lon="14.7692467"><ele>198.0</ele><time>2026-03-28T22:37:03.102Z</time></trkpt><trkpt lat="40.7490816" lon="14.7692621"><ele>198.0</ele><time>2026-03-28T22:40:29.058Z</time></trkpt><trkpt lat="40.7490382" lon="14.7691999"><ele>198.0</ele><time>2026-03-28T22:44:16.021Z</time></trkpt><trkpt lat="40.7490072" lon="14.7692726"><ele>198.0</ele><time>2026-03-28T22:50:41.021Z</time></trkpt><trkpt lat="40.7489525" lon="14.7693138"><ele>198.0</ele><time>2026-03-28T22:56:26.048Z</time></trkpt><trkpt lat="40.749078" lon="14.7693137"><ele>198.0</ele><time>2026-03-28T23:18:08.091Z</time></trkpt><trkpt lat="40.7491538" lon="14.7692769"><ele>198.0</ele><time>2026-03-28T23:19:52.02Z</time></trkpt><trkpt lat="40.749105" lon="14.76922"><ele>198.0</ele><time>2026-03-28T23:26:04.02Z</time></trkpt><trkpt lat="40.7490516" lon="14.769175"><ele>198.0</ele><time>2026-03-28T23:29:16.096Z</time></trkpt><trkpt lat="40.7490938" lon="14.7691118"><ele>198.0</ele><time>2026-03-28T23:32:04.112Z</time></trkpt><trkpt lat="40.7490956" lon="14.7691983"><ele>198.0</ele><time>2026-03-28T23:38:20.059Z</time></trkpt><trkpt lat="40.7491586" lon="14.769195"><ele>198.0</ele><time>2026-03-28T23:41:16.1Z</time></trkpt><trkpt lat="40.7492197" lon="14.7691705"><ele>198.0</ele><time>2026-03-28T23:43:10.02Z</time></trkpt><trkpt lat="40.7492775" lon="14.7691365"><ele>198.0</ele><time>2026-03-28T23:44:41.061Z</time></trkpt><trkpt lat="40.7492917" lon="14.7689932"><ele>198.0</ele><time>2026-03-28T23:49:05.067Z</time></trkpt><trkpt lat="40.7491797" lon="14.7690342"><ele>198.0</ele><time>2026-03-28T23:49:06.056Z</time></trkpt><trkpt lat="40.7491173" lon="14.7690458"><ele>198.0</ele><time>2026-03-28T23:49:16.063Z</time></trkpt><trkpt lat="40.7490618" lon="14.7690058"><ele>198.0</ele><time>2026-03-28T23:53:59.091Z</time></trkpt><trkpt lat="40.7490245" lon="14.7690733"><ele>198.0</ele><time>2026-03-28T23:57:52.088Z</time></trkpt><trkpt lat="40.7489877" lon="14.769141"><ele>198.0</ele><time>2026-03-28T23:59:27.089Z</time></trkpt><trkpt lat="40.7489428" lon="14.7692033"><ele>198.0</ele><time>2026-03-29T00:01:09.021Z</time></trkpt><trkpt lat="40.748896" lon="14.7692615"><ele>198.0</ele><time>2026-03-29T00:02:10.044Z</time></trkpt><trkpt lat="40.7488405" lon="14.7693022"><ele>198.0</ele><time>2026-03-29T00:03:12.059Z</time></trkpt><trkpt lat="40.7487698" lon="14.7693103"><ele>198.0</ele><time>2026-03-29T00:14:58.081Z</time></trkpt><trkpt lat="40.7487414" lon="14.7692361"><ele>198.0</ele><time>2026-03-29T00:17:20.033Z</time></trkpt><trkpt lat="40.7488167" lon="14.7692125"><ele>198.0</ele><time>2026-03-29T00:20:09.032Z</time></trkpt><trkpt lat="40.7488968" lon="14.76924"><ele>198.0</ele><time>2026-03-29T00:20:26.076Z</time></trkpt><trkpt lat="40.7489603" lon="14.7692543"><ele>198.0</ele><time>2026-03-29T00:21:06.02Z</time></trkpt><trkpt lat="40.7489723" lon="14.7693362"><ele>198.0</ele><time>2026-03-29T00:30:12.024Z</time></trkpt><trkpt lat="40.7489711" lon="14.7694193"><ele>198.0</ele><time>2026-03-29T00:34:00.069Z</time></trkpt><trkpt lat="40.7489181" lon="14.7694652"><ele>198.0</ele><time>2026-03-29T00:35:19.929Z</time></trkpt><trkpt lat="40.7489847" lon="14.7694686"><ele>198.0</ele><time>2026-03-29T00:44:41.022Z</time></trkpt><trkpt lat="40.7490213" lon="14.7693983"><ele>198.0</ele><time>2026-03-29T00:45:18.045Z</time></trkpt><trkpt lat="40.7490668" lon="14.7693408"><ele>198.0</ele><time>2026-03-29T00:47:25.042Z</time></trkpt><trkpt lat="40.7491316" lon="14.7693122"><ele>198.0</ele><time>2026-03-29T00:49:27.091Z</time></trkpt><trkpt lat="40.749195" lon="14.7692734"><ele>198.0</ele><time>2026-03-29T00:50:07.021Z</time></trkpt><trkpt lat="40.7491464" lon="14.7692201"><ele>198.0</ele><time>2026-03-29T00:50:34.053Z</time></trkpt><trkpt lat="40.7491281" lon="14.7691399"><ele>198.0</ele><time>2026-03-29T00:54:55.084Z</time></trkpt><trkpt lat="40.7492009" lon="14.7691343"><ele>198.0</ele><time>2026-03-29T00:56:15.021Z</time></trkpt><trkpt lat="40.7491376" lon="14.7691563"><ele>198.0</ele><time>2026-03-29T00:58:40.05Z</time></trkpt><trkpt lat="40.7490742" lon="14.7691829"><ele>198.0</ele><time>2026-03-29T01:02:07.093Z</time></trkpt><trkpt lat="40.7491613" lon="14.7691988"><ele>198.0</ele><time>2026-03-29T01:02:25.022Z</time></trkpt><trkpt lat="40.749251" lon="14.769196"><ele>198.0</ele><time>2026-03-29T01:03:50.021Z</time></trkpt><trkpt lat="40.7491988" lon="14.7691467"><ele>198.0</ele><time>2026-03-29T01:06:36.04Z</time></trkpt><trkpt lat="40.7491351" lon="14.7691321"><ele>198.0</ele><time>2026-03-29T01:07:04.079Z</time></trkpt><trkpt lat="40.749073" lon="14.7691465"><ele>198.0</ele><time>2026-03-29T01:10:10.021Z</time></trkpt><trkpt lat="40.7490455" lon="14.7692218"><ele>198.0</ele><time>2026-03-29T01:16:31.022Z</time></trkpt><trkpt lat="40.7490266" lon="14.7691423"><ele>198.0</ele><time>2026-03-29T01:21:28.095Z</time></trkpt><trkpt lat="40.7489821" lon="14.7690821"><ele>198.0</ele><time>2026-03-29T01:26:28.048Z</time></trkpt><trkpt lat="40.7489318" lon="14.7691329"><ele>198.0</ele><time>2026-03-29T01:28:28.022Z</time></trkpt><trkpt lat="40.7488682" lon="14.7691278"><ele>198.0</ele><time>2026-03-29T01:31:02.052Z</time></trkpt><trkpt lat="40.7488068" lon="14.7691466"><ele>198.0</ele><time>2026-03-29T01:35:09.022Z</time></trkpt><trkpt lat="40.7487454" lon="14.7691153"><ele>198.0</ele><time>2026-03-29T01:36:11.023Z</time></trkpt><trkpt lat="40.7487275" lon="14.7691959"><ele>198.0</ele><time>2026-03-29T01:37:28.099Z</time></trkpt><trkpt lat="40.7487909" lon="14.7692211"><ele>198.0</ele><time>2026-03-29T01:40:25.023Z</time></trkpt><trkpt lat="40.7487302" lon="14.7691979"><ele>198.0</ele><time>2026-03-29T01:44:13.054Z</time></trkpt><trkpt lat="40.7486672" lon="14.7691924"><ele>198.0</ele><time>2026-03-29T01:45:23.093Z</time></trkpt><trkpt lat="40.7487361" lon="14.7691781"><ele>198.0</ele><time>2026-03-29T01:49:33.022Z</time></trkpt><trkpt lat="40.7488037" lon="14.7691863"><ele>198.0</ele><time>2026-03-29T01:49:48.079Z</time></trkpt><trkpt lat="40.7488855" lon="14.7691691"><ele>198.0</ele><time>2026-03-29T01:51:49.026Z</time></trkpt><trkpt lat="40.748824" lon="14.7691438"><ele>198.0</ele><time>2026-03-29T01:55:52.024Z</time></trkpt><trkpt lat="40.7487626" lon="14.7691228"><ele>198.0</ele><time>2026-03-29T01:57:58.025Z</time></trkpt><trkpt lat="40.7486979" lon="14.7691349"><ele>198.0</ele><time>2026-03-29T01:58:57.069Z</time></trkpt><trkpt lat="40.748635" lon="14.7691467"><ele>198.0</ele><time>2026-03-29T02:03:02.041Z</time></trkpt><trkpt lat="40.7486956" lon="14.769171"><ele>198.0</ele><time>2026-03-29T02:06:31.059Z</time></trkpt><trkpt lat="40.7488041" lon="14.7691744"><ele>198.0</ele><time>2026-03-29T02:08:04.076Z</time></trkpt><trkpt lat="40.7488893" lon="14.7691943"><ele>198.0</ele><time>2026-03-29T02:12:26.091Z</time></trkpt><trkpt lat="40.7489511" lon="14.7692155"><ele>198.0</ele><time>2026-03-29T02:21:42.025Z</time></trkpt><trkpt lat="40.7490501" lon="14.7692321"><ele>198.0</ele><time>2026-03-29T02:24:16.041Z</time></trkpt><trkpt lat="40.7491147" lon="14.7692242"><ele>198.0</ele><time>2026-03-29T02:29:46.109Z</time></trkpt><trkpt lat="40.7491416" lon="14.7692998"><ele>198.0</ele><time>2026-03-29T02:33:05.025Z</time></trkpt><trkpt lat="40.7490788" lon="14.76928"><ele>198.0</ele><time>2026-03-29T02:39:10.039Z</time></trkpt><trkpt lat="40.749016" lon="14.7692906"><ele>198.0</ele><time>2026-03-29T02:47:25.032Z</time></trkpt><trkpt lat="40.7490843" lon="14.7692246"><ele>198.0</ele><time>2026-03-29T03:15:46.039Z</time></trkpt><trkpt lat="40.7491342" lon="14.7691162"><ele>198.0</ele><time>2026-03-29T03:38:01.029Z</time></trkpt><trkpt lat="40.7490715" lon="14.7691249"><ele>198.0</ele><time>2026-03-29T03:39:25.028Z</time></trkpt><trkpt lat="40.7490146" lon="14.769161"><ele>198.0</ele><time>2026-03-29T03:55:57.086Z</time></trkpt><trkpt lat="40.7489552" lon="14.7691888"><ele>198.0</ele><time>2026-03-29T03:57:28.029Z</time></trkpt><trkpt lat="40.7489275" lon="14.7691136"><ele>198.0</ele><time>2026-03-29T03:59:51.055Z</time></trkpt><trkpt lat="40.7488812" lon="14.7691708"><ele>198.0</ele><time>2026-03-29T04:16:21.03Z</time></trkpt><trkpt lat="40.7488191" lon="14.7691543"><ele>198.0</ele><time>2026-03-29T04:19:00.031Z</time></trkpt><trkpt lat="40.7488396" lon="14.7690747"><ele>198.0</ele><time>2026-03-29T04:26:56.066Z</time></trkpt><trkpt lat="40.7489366" lon="14.7690373"><ele>198.0</ele><time>2026-03-29T04:33:40.032Z</time></trkpt><trkpt lat="40.7489761" lon="14.7689724"><ele>198.0</ele><time>2026-03-29T04:36:39.032Z</time></trkpt><trkpt lat="40.7490168" lon="14.7689086"><ele>198.0</ele><time>2026-03-29T04:37:49.037Z</time></trkpt><trkpt lat="40.7490622" lon="14.7688442"><ele>198.0</ele><time>2026-03-29T04:40:23.072Z</time></trkpt><trkpt lat="40.7490262" lon="14.7689127"><ele>198.0</ele><time>2026-03-29T04:42:22.034Z</time></trkpt><trkpt lat="40.7489793" lon="14.7689686"><ele>198.0</ele><time>2026-03-29T04:43:52.08Z</time></trkpt><trkpt lat="40.7489399" lon="14.7690339"><ele>198.0</ele><time>2026-03-29T04:49:08.065Z</time></trkpt><trkpt lat="40.7489686" lon="14.7691083"><ele>198.0</ele><time>2026-03-29T04:53:50.077Z</time></trkpt><trkpt lat="40.7489162" lon="14.7691557"><ele>198.0</ele><time>2026-03-29T04:56:49.07Z</time></trkpt><trkpt lat="40.7488543" lon="14.7691388"><ele>198.0</ele><time>2026-03-29T05:01:25.034Z</time></trkpt><trkpt lat="40.7487928" lon="14.7691591"><ele>198.0</ele><time>2026-03-29T05:02:11.035Z</time></trkpt><trkpt lat="40.7488658" lon="14.7691627"><ele>198.0</ele><time>2026-03-29T05:04:32.053Z</time></trkpt><trkpt lat="40.7489561" lon="14.7691012"><ele>198.0</ele><time>2026-03-29T05:10:52.035Z</time></trkpt><trkpt lat="40.7489832" lon="14.7691767"><ele>198.0</ele><time>2026-03-29T05:14:46.034Z</time></trkpt><trkpt lat="40.7489272" lon="14.7691324"><ele>198.0</ele><time>2026-03-29T05:18:19.065Z</time></trkpt><trkpt lat="40.7488685" lon="14.7690993"><ele>198.0</ele><time>2026-03-29T05:22:32.052Z</time></trkpt><trkpt lat="40.7488045" lon="14.7690633"><ele>198.0</ele><time>2026-03-29T05:23:59.036Z</time></trkpt><trkpt lat="40.7489257" lon="14.7690506"><ele>198.0</ele><time>2026-03-29T05:27:37.04Z</time></trkpt><trkpt lat="40.7489803" lon="14.7690943"><ele>198.0</ele><time>2026-03-29T05:31:53.037Z</time></trkpt><trkpt lat="40.7490298" lon="14.7691466"><ele>198.0</ele><time>2026-03-29T05:59:42.079Z</time></trkpt><trkpt lat="40.7490812" lon="14.7691963"><ele>198.0</ele><time>2026-03-29T06:00:47.056Z</time></trkpt><trkpt lat="40.749026" lon="14.7691559"><ele>198.0</ele><time>2026-03-29T06:18:06.04Z</time></trkpt><trkpt lat="40.7489696" lon="14.7691189"><ele>198.0</ele><time>2026-03-29T06:26:32.119Z</time></trkpt><trkpt lat="40.748915" lon="14.7691607"><ele>198.0</ele><time>2026-03-29T06:35:54.052Z</time></trkpt><trkpt lat="40.7488639" lon="14.7692094"><ele>198.0</ele><time>2026-03-29T06:37:06.066Z</time></trkpt><trkpt lat="40.7489258" lon="14.7691891"><ele>198.0</ele><time>2026-03-29T06:41:49.068Z</time></trkpt><trkpt lat="40.7489896" lon="14.7691683"><ele>198.0</ele><time>2026-03-29T06:42:38.041Z</time></trkpt><trkpt lat="40.7490457" lon="14.7691304"><ele>198.0</ele><time>2026-03-29T06:43:21.093Z</time></trkpt><trkpt lat="40.7490877" lon="14.7690675"><ele>198.0</ele><time>2026-03-29T06:45:00.043Z</time></trkpt><trkpt lat="40.7491516" lon="14.7690693"><ele>198.0</ele><time>2026-03-29T06:46:21.074Z</time></trkpt><trkpt lat="40.7491859" lon="14.7691495"><ele>198.0</ele><time>2026-03-29T06:58:55.081Z</time></trkpt><trkpt lat="40.7491246" lon="14.7692423"><ele>198.0</ele><time>2026-03-29T07:04:57.042Z</time></trkpt><trkpt lat="40.7490884" lon="14.7691563"><ele>198.0</ele><time>2026-03-29T07:08:53.077Z</time></trkpt><trkpt lat="40.7490228" lon="14.7691829"><ele>198.0</ele><time>2026-03-29T07:29:04.044Z</time></trkpt><trkpt lat="40.7490856" lon="14.7690787"><ele>198.0</ele><time>2026-03-29T07:40:38.045Z</time></trkpt><trkpt lat="40.7490259" lon="14.7691182"><ele>198.0</ele><time>2026-03-29T07:44:37.046Z</time></trkpt><trkpt lat="40.7489623" lon="14.7691371"><ele>198.0</ele><time>2026-03-29T07:59:25.046Z</time></trkpt><trkpt lat="40.7489" lon="14.769151"><ele>198.0</ele><time>2026-03-29T08:01:10.047Z</time></trkpt><trkpt lat="40.748838" lon="14.7691658"><ele>198.0</ele><time>2026-03-29T08:02:47.047Z</time></trkpt><trkpt lat="40.7488959" lon="14.7691285"><ele>198.0</ele><time>2026-03-29T08:05:22.048Z</time></trkpt><trkpt lat="40.7489682" lon="14.7691422"><ele>198.0</ele><time>2026-03-29T08:07:05.055Z</time></trkpt><trkpt lat="40.7489058" lon="14.7691565"><ele>198.0</ele><time>2026-03-29T08:48:17.067Z</time></trkpt><trkpt lat="40.74897" lon="14.7691625"><ele>198.0</ele><time>2026-03-29T08:51:18.051Z</time></trkpt><trkpt lat="40.7489117" lon="14.769196"><ele>198.0</ele><time>2026-03-29T09:00:20.071Z</time></trkpt><trkpt lat="40.7488608" lon="14.7691469"><ele>198.0</ele><time>2026-03-29T09:12:27.052Z</time></trkpt><trkpt lat="40.7489242" lon="14.7691537"><ele>198.0</ele><time>2026-03-29T09:25:13.053Z</time></trkpt><trkpt lat="40.7489881" lon="14.7691573"><ele>198.0</ele><time>2026-03-29T09:27:26.053Z</time></trkpt><trkpt lat="40.749072" lon="14.7692004"><ele>198.0</ele><time>2026-03-29T10:01:33.084Z</time></trkpt><trkpt lat="40.7490093" lon="14.7691883"><ele>198.0</ele><time>2026-03-29T10:12:33.083Z</time></trkpt><trkpt lat="40.7490662" lon="14.7691522"><ele>198.0</ele><time>2026-03-29T10:18:51.072Z</time></trkpt><trkpt lat="40.7490035" lon="14.7691649"><ele>198.0</ele><time>2026-03-29T10:25:13.059Z</time></trkpt><trkpt lat="40.7489404" lon="14.7691791"><ele>198.0</ele><time>2026-03-29T10:33:32.061Z</time></trkpt><trkpt lat="40.7490697" lon="14.7691544"><ele>198.0</ele><time>2026-03-29T10:58:39.08Z</time></trkpt><trkpt lat="40.7489992" lon="14.7691405"><ele>198.0</ele><time>2026-03-29T11:18:12.092Z</time></trkpt><trkpt lat="40.7490442" lon="14.7691994"><ele>198.0</ele><time>2026-03-29T11:26:02.062Z</time></trkpt><trkpt lat="40.7491128" lon="14.769248"><ele>198.0</ele><time>2026-03-29T11:37:09.063Z</time></trkpt><trkpt lat="40.7491663" lon="14.7692031"><ele>198.0</ele><time>2026-03-29T11:38:29.081Z</time></trkpt><trkpt lat="40.7492067" lon="14.7691048"><ele>198.0</ele><time>2026-03-29T11:41:29.063Z</time></trkpt><trkpt lat="40.7491543" lon="14.7691512"><ele>198.0</ele><time>2026-03-29T11:42:43.063Z</time></trkpt><trkpt lat="40.7491059" lon="14.7692044"><ele>198.0</ele><time>2026-03-29T11:45:02.063Z</time></trkpt><trkpt lat="40.7490475" lon="14.7691664"><ele>198.0</ele><time>2026-03-29T12:25:00.067Z</time></trkpt><trkpt lat="40.7489864" lon="14.7691897"><ele>198.0</ele><time>2026-03-29T12:31:12.068Z</time></trkpt><trkpt lat="40.7489347" lon="14.7691369"><ele>198.0</ele><time>2026-03-29T12:49:34.069Z</time></trkpt><trkpt lat="40.7488783" lon="14.7691742"><ele>198.0</ele><time>2026-03-29T12:52:03.08Z</time></trkpt><trkpt lat="40.7488153" lon="14.7691608"><ele>198.0</ele><time>2026-03-29T12:55:22.082Z</time></trkpt><trkpt lat="40.7487526" lon="14.7691762"><ele>198.0</ele><time>2026-03-29T13:18:33.071Z</time></trkpt><trkpt lat="40.7488152" lon="14.7691898"><ele>198.0</ele><time>2026-03-29T13:37:37.071Z</time></trkpt><trkpt lat="40.7488671" lon="14.7691422"><ele>198.0</ele><time>2026-03-29T13:38:26.071Z</time></trkpt><trkpt lat="40.7489246" lon="14.7691083"><ele>198.0</ele><time>2026-03-29T13:39:23.072Z</time></trkpt><trkpt lat="40.7490062" lon="14.7691206"><ele>198.0</ele><time>2026-03-29T13:40:54.071Z</time></trkpt><trkpt lat="40.7490693" lon="14.76914"><ele>198.0</ele><time>2026-03-29T13:42:25.073Z</time></trkpt><trkpt lat="40.7491233" lon="14.7691836"><ele>198.0</ele><time>2026-03-29T13:43:40.072Z</time></trkpt><trkpt lat="40.7491838" lon="14.7692247"><ele>198.0</ele><time>2026-03-29T13:45:28.073Z</time></trkpt><trkpt lat="40.7492471" lon="14.769221"><ele>198.0</ele><time>2026-03-29T13:47:22.073Z</time></trkpt><trkpt lat="40.7491841" lon="14.7692203"><ele>198.0</ele><time>2026-03-29T13:51:16.109Z</time></trkpt><trkpt lat="40.7491432" lon="14.7691554"><ele>198.0</ele><time>2026-03-29T13:52:08.073Z</time></trkpt><trkpt lat="40.7490754" lon="14.7691595"><ele>198.0</ele><time>2026-03-29T13:52:54.073Z</time></trkpt><trkpt lat="40.749008" lon="14.7691466"><ele>198.0</ele><time>2026-03-29T13:54:55.072Z</time></trkpt><trkpt lat="40.7489487" lon="14.7691154"><ele>198.0</ele><time>2026-03-29T13:55:39.072Z</time></trkpt><trkpt lat="40.7489467" lon="14.7691991"><ele>198.0</ele><time>2026-03-29T14:01:20.073Z</time></trkpt><trkpt lat="40.7488879" lon="14.7692338"><ele>198.0</ele><time>2026-03-29T14:24:44.075Z</time></trkpt><trkpt lat="40.7489222" lon="14.7693061"><ele>198.0</ele><time>2026-03-29T14:45:13.076Z</time></trkpt><trkpt lat="40.7489781" lon="14.7692638"><ele>198.0</ele><time>2026-03-29T14:46:45.078Z</time></trkpt><trkpt lat="40.7490323" lon="14.7692185"><ele>198.0</ele><time>2026-03-29T14:47:56.105Z</time></trkpt><trkpt lat="40.7490918" lon="14.7691882"><ele>198.0</ele><time>2026-03-29T14:55:25.076Z</time></trkpt><trkpt lat="40.7491523" lon="14.7691431"><ele>198.0</ele><time>2026-03-29T15:01:16.078Z</time></trkpt><trkpt lat="40.7491021" lon="14.7691942"><ele>198.0</ele><time>2026-03-29T15:13:21.077Z</time></trkpt><trkpt lat="40.749039" lon="14.7691965"><ele>198.0</ele><time>2026-03-29T15:31:55.079Z</time></trkpt><trkpt lat="40.7489858" lon="14.7691513"><ele>198.0</ele><time>2026-03-29T15:57:52.082Z</time></trkpt><trkpt lat="40.7490613" lon="14.7691509"><ele>198.0</ele><time>2026-03-29T16:11:19.084Z</time></trkpt><trkpt lat="40.7489992" lon="14.7691705"><ele>198.0</ele><time>2026-03-29T16:20:54.087Z</time></trkpt><trkpt lat="40.7489382" lon="14.7691928"><ele>198.0</ele><time>2026-03-29T16:22:54.084Z</time></trkpt><trkpt lat="40.7489952" lon="14.7691569"><ele>198.0</ele><time>2026-03-29T16:36:22.086Z</time></trkpt><trkpt lat="40.7490428" lon="14.7691017"><ele>198.0</ele><time>2026-03-29T16:38:04.09Z</time></trkpt><trkpt lat="40.7490307" lon="14.7691835"><ele>198.0</ele><time>2026-03-29T16:49:42.088Z</time></trkpt><trkpt lat="40.7489666" lon="14.7691906"><ele>198.0</ele><time>2026-03-29T16:51:57.087Z</time></trkpt><trkpt lat="40.7489048" lon="14.7692158"><ele>198.0</ele><time>2026-03-29T16:57:56.089Z</time></trkpt><trkpt lat="40.7488417" lon="14.7692237"><ele>198.0</ele><time>2026-03-29T16:59:04.089Z</time></trkpt><trkpt lat="40.7488994" lon="14.7691897"><ele>198.0</ele><time>2026-03-29T17:07:28.09Z</time></trkpt><trkpt lat="40.7489574" lon="14.7692237"><ele>198.0</ele><time>2026-03-29T17:32:05.093Z</time></trkpt><trkpt lat="40.7490693" lon="14.7692369"><ele>198.0</ele><time>2026-03-29T17:42:15.093Z</time></trkpt><trkpt lat="40.7490151" lon="14.7692797"><ele>198.0</ele><time>2026-03-29T17:56:40.094Z</time></trkpt><trkpt lat="40.7489627" lon="14.769233"><ele>198.0</ele><time>2026-03-29T18:01:37.096Z</time></trkpt><trkpt lat="40.7489188" lon="14.769173"><ele>198.0</ele><time>2026-03-29T18:06:01.096Z</time></trkpt><trkpt lat="40.7489898" lon="14.7691941"><ele>198.0</ele><time>2026-03-29T18:15:02.096Z</time></trkpt><trkpt lat="40.7489259" lon="14.7691969"><ele>198.0</ele><time>2026-03-29T18:16:03.097Z</time></trkpt><trkpt lat="40.7490176" lon="14.7691722"><ele>198.0</ele><time>2026-03-29T18:23:31.097Z</time></trkpt><trkpt lat="40.7490713" lon="14.7691285"><ele>198.0</ele><time>2026-03-29T18:27:01.098Z</time></trkpt><trkpt lat="40.7491341" lon="14.7691395"><ele>198.0</ele><time>2026-03-29T18:28:17.098Z</time></trkpt><trkpt lat="40.7490717" lon="14.7691578"><ele>198.0</ele><time>2026-03-29T18:45:54.1Z</time></trkpt><trkpt lat="40.7490279" lon="14.7690952"><ele>198.0</ele><time>2026-03-29T18:57:50.101Z</time></trkpt><trkpt lat="40.7489795" lon="14.7691574"><ele>198.0</ele><time>2026-03-29T19:06:05.101Z</time></trkpt><trkpt lat="40.7489177" lon="14.7691411"><ele>198.0</ele><time>2026-03-29T19:22:18.103Z</time></trkpt><trkpt lat="40.7488548" lon="14.7691486"><ele>198.0</ele><time>2026-03-29T19:23:26.104Z</time></trkpt><trkpt lat="40.7489159" lon="14.769125"><ele>198.0</ele><time>2026-03-29T19:31:35.105Z</time></trkpt><trkpt lat="40.7489798" lon="14.7691209"><ele>198.0</ele><time>2026-03-29T19:33:30.104Z</time></trkpt><trkpt lat="40.7490215" lon="14.7691886"><ele>198.0</ele><time>2026-03-29T19:49:08.105Z</time></trkpt><trkpt lat="40.7490664" lon="14.76913"><ele>198.0</ele><time>2026-03-29T19:50:32.105Z</time></trkpt><trkpt lat="40.7490763" lon="14.7690479"><ele>198.0</ele><time>2026-03-29T20:01:04.107Z</time></trkpt><trkpt lat="40.7490132" lon="14.7690423"><ele>198.0</ele><time>2026-03-29T20:04:15.108Z</time></trkpt><trkpt lat="40.7489604" lon="14.7690886"><ele>198.0</ele><time>2026-03-29T20:07:52.108Z</time></trkpt><trkpt lat="40.7489088" lon="14.7690396"><ele>198.0</ele><time>2026-03-29T20:34:36.111Z</time></trkpt><trkpt lat="40.748895" lon="14.7691208"><ele>198.0</ele><time>2026-03-29T20:41:59.11Z</time></trkpt><trkpt lat="40.7489972" lon="14.7691709"><ele>198.0</ele><time>2026-03-29T20:50:39.112Z</time></trkpt><trkpt lat="40.7490607" lon="14.7691812"><ele>198.0</ele><time>2026-03-29T20:56:48.111Z</time></trkpt><trkpt lat="40.7489938" lon="14.7691666"><ele>198.0</ele><time>2026-03-29T21:04:53.113Z</time></trkpt><trkpt lat="40.7490546" lon="14.7691882"><ele>198.0</ele><time>2026-03-29T21:06:06.113Z</time></trkpt><trkpt lat="40.7491781" lon="14.769204"><ele>198.0</ele><time>2026-03-29T21:08:14.112Z</time></trkpt><trkpt lat="40.7492446" lon="14.7692013"><ele>198.0</ele><time>2026-03-29T21:10:35.112Z</time></trkpt><trkpt lat="40.7491883" lon="14.7692425"><ele>198.0</ele><time>2026-03-29T21:11:37.112Z</time></trkpt><trkpt lat="40.7491233" lon="14.76923"><ele>198.0</ele><time>2026-03-29T21:11:50.112Z</time></trkpt><trkpt lat="40.7490679" lon="14.7691854"><ele>198.0</ele><time>2026-03-29T21:12:04.113Z</time></trkpt><trkpt lat="40.748915" lon="14.7691556"><ele>198.0</ele><time>2026-03-29T21:17:33.181Z</time></trkpt><trkpt lat="40.7488365" lon="14.7691417"><ele>198.0</ele><time>2026-03-29T21:17:38.228Z</time></trkpt><trkpt lat="40.7489511" lon="14.7691495"><ele>198.0</ele><time>2026-03-29T21:18:32.038Z</time></trkpt><trkpt lat="40.7488832" lon="14.7691653"><ele>198.0</ele><time>2026-03-29T21:18:51.059Z</time></trkpt><trkpt lat="40.748936" lon="14.7692111"><ele>198.0</ele><time>2026-03-29T21:25:00.034Z</time></trkpt><trkpt lat="40.7489991" lon="14.7692231"><ele>198.0</ele><time>2026-03-29T21:25:34.03Z</time></trkpt><trkpt lat="40.7490429" lon="14.7691309"><ele>198.0</ele><time>2026-03-29T21:35:59.042Z</time></trkpt><trkpt lat="40.7489779" lon="14.7691288"><ele>198.0</ele><time>2026-03-29T21:36:09.858Z</time></trkpt><trkpt lat="40.7488949" lon="14.7691451"><ele>198.0</ele><time>2026-03-29T21:36:20.8Z</time></trkpt><trkpt lat="40.7490465" lon="14.7691471"><ele>198.0</ele><time>2026-03-29T21:37:45.029Z</time></trkpt><trkpt lat="40.7491198" lon="14.7691422"><ele>198.0</ele><time>2026-03-29T21:38:17.022Z</time></trkpt><trkpt lat="40.7492331" lon="14.7691123"><ele>198.0</ele><time>2026-03-29T21:39:36.072Z</time></trkpt><trkpt lat="40.749178" lon="14.7690698"><ele>198.0</ele><time>2026-03-29T21:43:57.081Z</time></trkpt><trkpt lat="40.749131" lon="14.7689776"><ele>198.0</ele><time>2026-03-29T21:49:33.071Z</time></trkpt><trkpt lat="40.7490821" lon="14.7690301"><ele>198.0</ele><time>2026-03-29T21:52:30.08Z</time></trkpt><trkpt lat="40.7490196" lon="14.769045"><ele>198.0</ele><time>2026-03-29T21:55:20.054Z</time></trkpt><trkpt lat="40.7490051" lon="14.7691263"><ele>198.0</ele><time>2026-03-29T21:57:00.023Z</time></trkpt><trkpt lat="40.7489588" lon="14.7690699"><ele>198.0</ele><time>2026-03-29T22:15:05.033Z</time></trkpt><trkpt lat="40.7488946" lon="14.7690769"><ele>198.0</ele><time>2026-03-29T22:19:02.073Z</time></trkpt><trkpt lat="40.7490028" lon="14.7690714"><ele>198.0</ele><time>2026-03-29T22:58:27.081Z</time></trkpt><trkpt lat="40.7490521" lon="14.7691279"><ele>198.0</ele><time>2026-03-29T23:35:00.03Z</time></trkpt><trkpt lat="40.7491057" lon="14.7690838"><ele>198.0</ele><time>2026-03-29T23:55:02.047Z</time></trkpt><trkpt lat="40.7488331" lon="14.769169"><ele>198.0</ele><time>2026-03-30T00:17:20.99Z</time></trkpt><trkpt lat="40.748938" lon="14.7691084"><ele>198.0</ele><time>2026-03-30T00:17:31.022Z</time></trkpt><trkpt lat="40.7489996" lon="14.7691348"><ele>198.0</ele><time>2026-03-30T00:18:12.022Z</time></trkpt><trkpt lat="40.7489418" lon="14.7691733"><ele>198.0</ele><time>2026-03-30T00:19:43.022Z</time></trkpt><trkpt lat="40.748874" lon="14.7691574"><ele>198.0</ele><time>2026-03-30T00:24:17.021Z</time></trkpt><trkpt lat="40.7488105" lon="14.769148"><ele>198.0</ele><time>2026-03-30T00:26:44.021Z</time></trkpt><trkpt lat="40.7486758" lon="14.769241"><ele>198.0</ele><time>2026-03-30T00:31:57.023Z</time></trkpt><trkpt lat="40.7485864" lon="14.76923"><ele>198.0</ele><time>2026-03-30T00:33:41.023Z</time></trkpt><trkpt lat="40.7486308" lon="14.7691606"><ele>198.0</ele><time>2026-03-30T00:34:24.022Z</time></trkpt><trkpt lat="40.748698" lon="14.76915"><ele>198.0</ele><time>2026-03-30T00:34:39.022Z</time></trkpt><trkpt lat="40.7487866" lon="14.7691298"><ele>198.0</ele><time>2026-03-30T00:34:43.022Z</time></trkpt><trkpt lat="40.7488506" lon="14.7691188"><ele>198.0</ele><time>2026-03-30T00:34:46.022Z</time></trkpt><trkpt lat="40.7489141" lon="14.769123"><ele>198.0</ele><time>2026-03-30T00:34:57.023Z</time></trkpt><trkpt lat="40.7488452" lon="14.769107"><ele>198.0</ele><time>2026-03-30T00:37:29.023Z</time></trkpt><trkpt lat="40.7487803" lon="14.7691101"><ele>198.0</ele><time>2026-03-30T00:44:04.024Z</time></trkpt><trkpt lat="40.7487102" lon="14.7691519"><ele>198.0</ele><time>2026-03-30T00:54:12.027Z</time></trkpt><trkpt lat="40.7487934" lon="14.7691835"><ele>198.0</ele><time>2026-03-30T00:57:14.024Z</time></trkpt><trkpt lat="40.7488587" lon="14.769178"><ele>198.0</ele><time>2026-03-30T00:57:24.024Z</time></trkpt><trkpt lat="40.7487724" lon="14.7691057"><ele>198.0</ele><time>2026-03-30T01:08:21.025Z</time></trkpt><trkpt lat="40.7488342" lon="14.7690813"><ele>198.0</ele><time>2026-03-30T01:13:44.026Z</time></trkpt><trkpt lat="40.7488986" lon="14.7690616"><ele>198.0</ele><time>2026-03-30T01:16:07.026Z</time></trkpt><trkpt lat="40.7489742" lon="14.7690541"><ele>198.0</ele><time>2026-03-30T01:17:34.026Z</time></trkpt><trkpt lat="40.749045" lon="14.7690874"><ele>198.0</ele><time>2026-03-30T01:22:38.027Z</time></trkpt><trkpt lat="40.7489801" lon="14.7690866"><ele>198.0</ele><time>2026-03-30T01:24:00.026Z</time></trkpt><trkpt lat="40.7488758" lon="14.7690432"><ele>198.0</ele><time>2026-03-30T01:28:31.026Z</time></trkpt><trkpt lat="40.7488041" lon="14.7690348"><ele>198.0</ele><time>2026-03-30T01:28:36.026Z</time></trkpt><trkpt lat="40.748868" lon="14.7690345"><ele>198.0</ele><time>2026-03-30T01:30:16.027Z</time></trkpt><trkpt lat="40.7489356" lon="14.769075"><ele>198.0</ele><time>2026-03-30T01:46:24.029Z</time></trkpt><trkpt lat="40.7489919" lon="14.7691436"><ele>198.0</ele><time>2026-03-30T01:52:13.028Z</time></trkpt><trkpt lat="40.7490566" lon="14.7691229"><ele>198.0</ele><time>2026-03-30T01:54:14.03Z</time></trkpt><trkpt lat="40.7491281" lon="14.7690928"><ele>198.0</ele><time>2026-03-30T01:59:50.046Z</time></trkpt><trkpt lat="40.7490599" lon="14.7690863"><ele>198.0</ele><time>2026-03-30T02:04:43.031Z</time></trkpt><trkpt lat="40.7491046" lon="14.7691466"><ele>198.0</ele><time>2026-03-30T02:07:02.03Z</time></trkpt><trkpt lat="40.749082" lon="14.7692243"><ele>198.0</ele><time>2026-03-30T02:09:49.03Z</time></trkpt><trkpt lat="40.7490688" lon="14.769134"><ele>198.0</ele><time>2026-03-30T02:24:25.069Z</time></trkpt><trkpt lat="40.7491551" lon="14.7691431"><ele>198.0</ele><time>2026-03-30T02:36:53.118Z</time></trkpt><trkpt lat="40.7492229" lon="14.7691428"><ele>198.0</ele><time>2026-03-30T03:14:00.036Z</time></trkpt><trkpt lat="40.7491567" lon="14.7691445"><ele>198.0</ele><time>2026-03-30T03:19:55.072Z</time></trkpt><trkpt lat="40.749071" lon="14.7691607"><ele>198.0</ele><time>2026-03-30T03:20:08.037Z</time></trkpt><trkpt lat="40.7491185" lon="14.7690754"><ele>198.0</ele><time>2026-03-30T03:30:02.037Z</time></trkpt><trkpt lat="40.7490522" lon="14.7690867"><ele>198.0</ele><time>2026-03-30T03:31:51.038Z</time></trkpt><trkpt lat="40.7489872" lon="14.769068"><ele>198.0</ele><time>2026-03-30T03:37:34.038Z</time></trkpt><trkpt lat="40.7490806" lon="14.7690508"><ele>198.0</ele><time>2026-03-30T03:41:33.039Z</time></trkpt><trkpt lat="40.7491754" lon="14.7690288"><ele>198.0</ele><time>2026-03-30T03:41:35.038Z</time></trkpt><trkpt lat="40.749114" lon="14.7690594"><ele>198.0</ele><time>2026-03-30T03:48:51.039Z</time></trkpt><trkpt lat="40.7491821" lon="14.769051"><ele>198.0</ele><time>2026-03-30T04:06:16.068Z</time></trkpt><trkpt lat="40.7492278" lon="14.7689899"><ele>198.0</ele><time>2026-03-30T04:15:02.042Z</time></trkpt><trkpt lat="40.7491661" lon="14.768967"><ele>198.0</ele><time>2026-03-30T04:16:46.042Z</time></trkpt><trkpt lat="40.7491836" lon="14.7688869"><ele>198.0</ele><time>2026-03-30T04:22:34.042Z</time></trkpt><trkpt lat="40.749235" lon="14.7688327"><ele>198.0</ele><time>2026-03-30T04:29:44.043Z</time></trkpt><trkpt lat="40.7492985" lon="14.7688301"><ele>198.0</ele><time>2026-03-30T04:30:11.042Z</time></trkpt><trkpt lat="40.7492479" lon="14.7688801"><ele>198.0</ele><time>2026-03-30T04:30:20.042Z</time></trkpt><trkpt lat="40.7491737" lon="14.7689778"><ele>198.0</ele><time>2026-03-30T04:35:48.043Z</time></trkpt><trkpt lat="40.7491119" lon="14.7689953"><ele>198.0</ele><time>2026-03-30T04:46:46.045Z</time></trkpt><trkpt lat="40.7491424" lon="14.7689222"><ele>198.0</ele><time>2026-03-30T04:58:23.071Z</time></trkpt><trkpt lat="40.7491923" lon="14.7688704"><ele>198.0</ele><time>2026-03-30T04:59:29.046Z</time></trkpt><trkpt lat="40.7491681" lon="14.7689513"><ele>198.0</ele><time>2026-03-30T05:01:44.048Z</time></trkpt><trkpt lat="40.7491303" lon="14.7690419"><ele>198.0</ele><time>2026-03-30T05:02:06.045Z</time></trkpt><trkpt lat="40.7491027" lon="14.7691178"><ele>198.0</ele><time>2026-03-30T05:02:38.045Z</time></trkpt><trkpt lat="40.7491992" lon="14.7691424"><ele>198.0</ele><time>2026-03-30T05:05:35.045Z</time></trkpt><trkpt lat="40.7492516" lon="14.7692001"><ele>198.0</ele><time>2026-03-30T05:08:11.053Z</time></trkpt><trkpt lat="40.7492822" lon="14.7692767"><ele>198.0</ele><time>2026-03-30T05:10:06.057Z</time></trkpt><trkpt lat="40.749212" lon="14.7692821"><ele>198.0</ele><time>2026-03-30T05:10:13.093Z</time></trkpt><trkpt lat="40.7491465" lon="14.7692734"><ele>198.0</ele><time>2026-03-30T05:10:20.045Z</time></trkpt><trkpt lat="40.7490812" lon="14.7692553"><ele>198.0</ele><time>2026-03-30T05:10:35.083Z</time></trkpt><trkpt lat="40.7490407" lon="14.7691831"><ele>198.0</ele><time>2026-03-30T05:10:51.046Z</time></trkpt><trkpt lat="40.7490331" lon="14.7691"><ele>198.0</ele><time>2026-03-30T05:12:08.097Z</time></trkpt><trkpt lat="40.7491049" lon="14.769117"><ele>198.0</ele><time>2026-03-30T05:18:21.046Z</time></trkpt><trkpt lat="40.749048" lon="14.7691577"><ele>198.0</ele><time>2026-03-30T05:21:36.075Z</time></trkpt><trkpt lat="40.748985" lon="14.7691522"><ele>198.0</ele><time>2026-03-30T05:22:14.117Z</time></trkpt><trkpt lat="40.7489218" lon="14.7691572"><ele>198.0</ele><time>2026-03-30T05:23:03.047Z</time></trkpt><trkpt lat="40.7489902" lon="14.7691188"><ele>198.0</ele><time>2026-03-30T05:26:38.097Z</time></trkpt><trkpt lat="40.7490724" lon="14.7691332"><ele>198.0</ele><time>2026-03-30T05:32:04.086Z</time></trkpt><trkpt lat="40.7491214" lon="14.7691867"><ele>198.0</ele><time>2026-03-30T05:49:55.064Z</time></trkpt><trkpt lat="40.7491863" lon="14.7691873"><ele>198.0</ele><time>2026-03-30T05:56:03.05Z</time></trkpt><trkpt lat="40.7491293" lon="14.769147"><ele>198.0</ele><time>2026-03-30T05:58:54.05Z</time></trkpt><trkpt lat="40.7490712" lon="14.769066"><ele>198.0</ele><time>2026-03-30T06:07:48.05Z</time></trkpt><trkpt lat="40.7490067" lon="14.7690809"><ele>198.0</ele><time>2026-03-30T06:07:54.067Z</time></trkpt><trkpt lat="40.748954" lon="14.7691266"><ele>198.0</ele><time>2026-03-30T06:13:38.085Z</time></trkpt><trkpt lat="40.7488909" lon="14.7691327"><ele>198.0</ele><time>2026-03-30T06:15:58.05Z</time></trkpt><trkpt lat="40.748826" lon="14.7691482"><ele>198.0</ele><time>2026-03-30T06:17:12.05Z</time></trkpt><trkpt lat="40.7487754" lon="14.7691982"><ele>198.0</ele><time>2026-03-30T06:18:34.059Z</time></trkpt><trkpt lat="40.7486853" lon="14.769215"><ele>198.0</ele><time>2026-03-30T06:20:31.051Z</time></trkpt><trkpt lat="40.7487257" lon="14.7691503"><ele>198.0</ele><time>2026-03-30T06:21:23.05Z</time></trkpt><trkpt lat="40.7487776" lon="14.7691012"><ele>198.0</ele><time>2026-03-30T06:22:47.051Z</time></trkpt><trkpt lat="40.7489117" lon="14.7691175"><ele>198.0</ele><time>2026-03-30T06:26:41.052Z</time></trkpt><trkpt lat="40.7489416" lon="14.7691912"><ele>198.0</ele><time>2026-03-30T06:29:39.051Z</time></trkpt><trkpt lat="40.7490047" lon="14.7691962"><ele>198.0</ele><time>2026-03-30T06:32:57.051Z</time></trkpt><trkpt lat="40.7490529" lon="14.7691422"><ele>198.0</ele><time>2026-03-30T06:34:04.086Z</time></trkpt><trkpt lat="40.7490041" lon="14.7691949"><ele>198.0</ele><time>2026-03-30T06:39:27.105Z</time></trkpt><trkpt lat="40.748941" lon="14.7691832"><ele>198.0</ele><time>2026-03-30T06:40:37.052Z</time></trkpt><trkpt lat="40.7489727" lon="14.7692551"><ele>198.0</ele><time>2026-03-30T06:45:14.093Z</time></trkpt><trkpt lat="40.7490001" lon="14.7693303"><ele>198.0</ele><time>2026-03-30T06:46:45.063Z</time></trkpt><trkpt lat="40.7490241" lon="14.7692518"><ele>198.0</ele><time>2026-03-30T06:48:37.052Z</time></trkpt><trkpt lat="40.7489982" lon="14.769176"><ele>198.0</ele><time>2026-03-30T06:54:06.053Z</time></trkpt><trkpt lat="40.749084" lon="14.7691922"><ele>198.0</ele><time>2026-03-30T07:03:28.053Z</time></trkpt><trkpt lat="40.7490199" lon="14.7692034"><ele>198.0</ele><time>2026-03-30T07:05:54.059Z</time></trkpt><trkpt lat="40.7489597" lon="14.7692309"><ele>198.0</ele><time>2026-03-30T07:08:17.044Z</time></trkpt><trkpt lat="40.7489143" lon="14.7691729"><ele>198.0</ele><time>2026-03-30T07:10:29.054Z</time></trkpt><trkpt lat="40.7489907" lon="14.7691664"><ele>198.0</ele><time>2026-03-30T07:46:18.057Z</time></trkpt><trkpt lat="40.7489289" lon="14.7691503"><ele>198.0</ele><time>2026-03-30T07:56:41.061Z</time></trkpt><trkpt lat="40.7489803" lon="14.7692006"><ele>198.0</ele><time>2026-03-30T08:17:08.059Z</time></trkpt><trkpt lat="40.7490635" lon="14.7692051"><ele>198.0</ele><time>2026-03-30T08:19:17.104Z</time></trkpt><trkpt lat="40.7490005" lon="14.769205"><ele>198.0</ele><time>2026-03-30T08:31:03.06Z</time></trkpt><trkpt lat="40.7489392" lon="14.7692311"><ele>198.0</ele><time>2026-03-30T08:32:26.061Z</time></trkpt><trkpt lat="40.7488798" lon="14.7692592"><ele>198.0</ele><time>2026-03-30T08:37:28.07Z</time></trkpt><trkpt lat="40.7488365" lon="14.7691977"><ele>198.0</ele><time>2026-03-30T08:43:23.076Z</time></trkpt><trkpt lat="40.748901" lon="14.7691963"><ele>198.0</ele><time>2026-03-30T09:02:25.063Z</time></trkpt><trkpt lat="40.7488381" lon="14.769189"><ele>198.0</ele><time>2026-03-30T09:06:16.064Z</time></trkpt><trkpt lat="40.7488708" lon="14.7691174"><ele>198.0</ele><time>2026-03-30T09:11:04.097Z</time></trkpt><trkpt lat="40.7488097" lon="14.7690953"><ele>198.0</ele><time>2026-03-30T09:16:37.064Z</time></trkpt><trkpt lat="40.7489329" lon="14.7691151"><ele>198.0</ele><time>2026-03-30T09:40:43.087Z</time></trkpt><trkpt lat="40.7489785" lon="14.7690569"><ele>198.0</ele><time>2026-03-30T09:43:22.067Z</time></trkpt><trkpt lat="40.7490646" lon="14.7690341"><ele>198.0</ele><time>2026-03-30T09:49:32.067Z</time></trkpt><trkpt lat="40.7491263" lon="14.7690134"><ele>198.0</ele><time>2026-03-30T09:50:09.073Z</time></trkpt><trkpt lat="40.7492083" lon="14.769051"><ele>198.0</ele><time>2026-03-30T09:54:36.068Z</time></trkpt><trkpt lat="40.7491477" lon="14.7690751"><ele>198.0</ele><time>2026-03-30T09:55:43.078Z</time></trkpt><trkpt lat="40.7490859" lon="14.7690937"><ele>198.0</ele><time>2026-03-30T09:56:58.069Z</time></trkpt><trkpt lat="40.7490305" lon="14.7691356"><ele>198.0</ele><time>2026-03-30T09:57:51.068Z</time></trkpt><trkpt lat="40.7489672" lon="14.7691357"><ele>198.0</ele><time>2026-03-30T09:59:53.088Z</time></trkpt><trkpt lat="40.7490172" lon="14.7692295"><ele>198.0</ele><time>2026-03-30T10:13:23.07Z</time></trkpt><trkpt lat="40.7489613" lon="14.7691849"><ele>198.0</ele><time>2026-03-30T10:16:29.07Z</time></trkpt><trkpt lat="40.7488988" lon="14.7691737"><ele>198.0</ele><time>2026-03-30T10:17:27.07Z</time></trkpt><trkpt lat="40.7489621" lon="14.7691649"><ele>198.0</ele><time>2026-03-30T10:30:39.072Z</time></trkpt><trkpt lat="40.7489214" lon="14.7692297"><ele>198.0</ele><time>2026-03-30T10:39:51.072Z</time></trkpt><trkpt lat="40.7490037" lon="14.7692153"><ele>198.0</ele><time>2026-03-30T11:01:30.073Z</time></trkpt><trkpt lat="40.7490551" lon="14.7691671"><ele>198.0</ele><time>2026-03-30T11:07:03.074Z</time></trkpt><trkpt lat="40.7489922" lon="14.7691537"><ele>198.0</ele><time>2026-03-30T11:29:31.077Z</time></trkpt><trkpt lat="40.7490583" lon="14.7691509"><ele>198.0</ele><time>2026-03-30T11:31:22.076Z</time></trkpt><trkpt lat="40.7490346" lon="14.7692283"><ele>198.0</ele><time>2026-03-30T11:48:17.093Z</time></trkpt><trkpt lat="40.7490922" lon="14.7691943"><ele>198.0</ele><time>2026-03-30T12:05:07.079Z</time></trkpt><trkpt lat="40.7490449" lon="14.7691354"><ele>198.0</ele><time>2026-03-30T12:15:28.08Z</time></trkpt><trkpt lat="40.7489821" lon="14.7691274"><ele>198.0</ele><time>2026-03-30T12:17:34.09Z</time></trkpt><trkpt lat="40.748921" lon="14.7691491"><ele>198.0</ele><time>2026-03-30T12:18:51.08Z</time></trkpt><trkpt lat="40.7488591" lon="14.769167"><ele>198.0</ele><time>2026-03-30T12:27:12.082Z</time></trkpt><trkpt lat="40.74892" lon="14.76914"><ele>198.0</ele><time>2026-03-30T12:40:06.083Z</time></trkpt><trkpt lat="40.7489918" lon="14.7691538"><ele>198.0</ele><time>2026-03-30T12:42:14.083Z</time></trkpt><trkpt lat="40.7489339" lon="14.7691199"><ele>198.0</ele><time>2026-03-30T12:47:47.083Z</time></trkpt><trkpt lat="40.7488778" lon="14.7691581"><ele>198.0</ele><time>2026-03-30T12:57:30.085Z</time></trkpt><trkpt lat="40.7488138" lon="14.7691624"><ele>198.0</ele><time>2026-03-30T13:12:29.085Z</time></trkpt><trkpt lat="40.7487508" lon="14.7691524"><ele>198.0</ele><time>2026-03-30T13:18:54.086Z</time></trkpt><trkpt lat="40.748811" lon="14.7691795"><ele>198.0</ele><time>2026-03-30T13:24:47.086Z</time></trkpt><trkpt lat="40.7489088" lon="14.7691983"><ele>198.0</ele><time>2026-03-30T13:29:43.097Z</time></trkpt><trkpt lat="40.7489857" lon="14.7691819"><ele>198.0</ele><time>2026-03-30T13:33:58.088Z</time></trkpt><trkpt lat="40.7490533" lon="14.7691779"><ele>198.0</ele><time>2026-03-30T13:35:40.087Z</time></trkpt><trkpt lat="40.7491241" lon="14.7691923"><ele>198.0</ele><time>2026-03-30T13:36:35.087Z</time></trkpt><trkpt lat="40.7491968" lon="14.76918"><ele>198.0</ele><time>2026-03-30T13:37:22.111Z</time></trkpt><trkpt lat="40.7492606" lon="14.7691747"><ele>198.0</ele><time>2026-03-30T13:38:18.087Z</time></trkpt><trkpt lat="40.7488862" lon="14.7691688"><ele>198.0</ele><time>2026-03-30T13:45:01.089Z</time></trkpt><trkpt lat="40.7489502" lon="14.7691835"><ele>198.0</ele><time>2026-03-30T13:48:31.114Z</time></trkpt><trkpt lat="40.7490145" lon="14.7691809"><ele>198.0</ele><time>2026-03-30T13:53:40.088Z</time></trkpt><trkpt lat="40.7489517" lon="14.7691713"><ele>198.0</ele><time>2026-03-30T14:05:33.09Z</time></trkpt><trkpt lat="40.7488928" lon="14.7691408"><ele>198.0</ele><time>2026-03-30T14:28:55.091Z</time></trkpt><trkpt lat="40.7489529" lon="14.7691735"><ele>198.0</ele><time>2026-03-30T14:32:37.093Z</time></trkpt><trkpt lat="40.7490235" lon="14.7691765"><ele>198.0</ele><time>2026-03-30T14:34:00.092Z</time></trkpt><trkpt lat="40.7490867" lon="14.7691649"><ele>198.0</ele><time>2026-03-30T14:36:12.092Z</time></trkpt><trkpt lat="40.7490248" lon="14.7691811"><ele>198.0</ele><time>2026-03-30T14:48:35.093Z</time></trkpt><trkpt lat="40.7489634" lon="14.7692003"><ele>198.0</ele><time>2026-03-30T14:53:28.094Z</time></trkpt><trkpt lat="40.7489002" lon="14.7692138"><ele>198.0</ele><time>2026-03-30T14:59:25.095Z</time></trkpt><trkpt lat="40.7489635" lon="14.7692146"><ele>198.0</ele><time>2026-03-30T15:10:21.095Z</time></trkpt><trkpt lat="40.7490112" lon="14.7691585"><ele>198.0</ele><time>2026-03-30T15:11:27.096Z</time></trkpt><trkpt lat="40.7490363" lon="14.7690799"><ele>198.0</ele><time>2026-03-30T15:19:19.097Z</time></trkpt><trkpt lat="40.7489774" lon="14.7691118"><ele>198.0</ele><time>2026-03-30T15:21:51.096Z</time></trkpt><trkpt lat="40.7489163" lon="14.7691333"><ele>198.0</ele><time>2026-03-30T15:23:41.096Z</time></trkpt><trkpt lat="40.7488616" lon="14.7691755"><ele>198.0</ele><time>2026-03-30T15:24:48.097Z</time></trkpt><trkpt lat="40.7487997" lon="14.7691918"><ele>198.0</ele><time>2026-03-30T15:26:26.097Z</time></trkpt><trkpt lat="40.7488466" lon="14.7691258"><ele>198.0</ele><time>2026-03-30T15:34:52.097Z</time></trkpt><trkpt lat="40.7489013" lon="14.769167"><ele>198.0</ele><time>2026-03-30T15:36:21.097Z</time></trkpt><trkpt lat="40.748844" lon="14.7692025"><ele>198.0</ele><time>2026-03-30T15:44:49.103Z</time></trkpt><trkpt lat="40.7488529" lon="14.7691202"><ele>198.0</ele><time>2026-03-30T16:01:57.1Z</time></trkpt><trkpt lat="40.7489754" lon="14.7690997"><ele>198.0</ele><time>2026-03-30T16:06:15.1Z</time></trkpt><trkpt lat="40.7490658" lon="14.7690946"><ele>198.0</ele><time>2026-03-30T16:10:56.1Z</time></trkpt><trkpt lat="40.7490172" lon="14.7691518"><ele>198.0</ele><time>2026-03-30T16:19:26.102Z</time></trkpt><trkpt lat="40.7489529" lon="14.7691544"><ele>198.0</ele><time>2026-03-30T16:33:02.102Z</time></trkpt><trkpt lat="40.7488898" lon="14.7691668"><ele>198.0</ele><time>2026-03-30T16:35:33.103Z</time></trkpt><trkpt lat="40.7488356" lon="14.7692107"><ele>198.0</ele><time>2026-03-30T16:36:34.102Z</time></trkpt><trkpt lat="40.7489092" lon="14.7692134"><ele>198.0</ele><time>2026-03-30T16:39:06.104Z</time></trkpt><trkpt lat="40.7489686" lon="14.7691855"><ele>198.0</ele><time>2026-03-30T16:40:21.103Z</time></trkpt><trkpt lat="40.7490547" lon="14.7691737"><ele>198.0</ele><time>2026-03-30T17:24:57.108Z</time></trkpt><trkpt lat="40.7491146" lon="14.7692024"><ele>198.0</ele><time>2026-03-30T17:42:04.109Z</time></trkpt><trkpt lat="40.749059" lon="14.7692438"><ele>198.0</ele><time>2026-03-30T17:47:12.108Z</time></trkpt><trkpt lat="40.7490203" lon="14.7691746"><ele>198.0</ele><time>2026-03-30T18:22:22.112Z</time></trkpt><trkpt lat="40.7489657" lon="14.7692182"><ele>198.0</ele><time>2026-03-30T18:24:04.112Z</time></trkpt><trkpt lat="40.7490219" lon="14.7691803"><ele>198.0</ele><time>2026-03-30T18:36:01.114Z</time></trkpt><trkpt lat="40.7489583" lon="14.7691776"><ele>198.0</ele><time>2026-03-30T19:06:57.115Z</time></trkpt><trkpt lat="40.7489017" lon="14.7692143"><ele>198.0</ele><time>2026-03-30T19:36:40.119Z</time></trkpt><trkpt lat="40.7489565" lon="14.7691663"><ele>198.0</ele><time>2026-03-30T19:59:09.12Z</time></trkpt><trkpt lat="40.7490136" lon="14.7691296"><ele>198.0</ele><time>2026-03-30T20:00:58.12Z</time></trkpt><trkpt lat="40.7489627" lon="14.7691787"><ele>198.0</ele><time>2026-03-30T20:05:31.122Z</time></trkpt><trkpt lat="40.7488993" lon="14.7691853"><ele>198.0</ele><time>2026-03-30T20:23:32.122Z</time></trkpt><trkpt lat="40.7489606" lon="14.7691643"><ele>198.0</ele><time>2026-03-30T20:29:55.123Z</time></trkpt><trkpt lat="40.749028" lon="14.7691894"><ele>198.0</ele><time>2026-03-30T20:34:11.123Z</time></trkpt><trkpt lat="40.7490766" lon="14.7691345"><ele>198.0</ele><time>2026-03-30T21:23:27.127Z</time></trkpt><trkpt lat="40.7490961" lon="14.7692167"><ele>198.0</ele><time>2026-03-30T21:44:37.129Z</time></trkpt><trkpt lat="40.7490328" lon="14.7692014"><ele>198.0</ele><time>2026-03-30T21:47:35.129Z</time></trkpt><trkpt lat="40.7489758" lon="14.769166"><ele>198.0</ele><time>2026-03-30T21:49:16.13Z</time></trkpt><trkpt lat="40.7490387" lon="14.7691909"><ele>198.0</ele><time>2026-03-30T22:34:40.134Z</time></trkpt><trkpt lat="40.7489748" lon="14.7691863"><ele>198.0</ele><time>2026-03-30T22:58:25.137Z</time></trkpt><trkpt lat="40.7489188" lon="14.7691477"><ele>198.0</ele><time>2026-03-30T22:59:55.137Z</time></trkpt><trkpt lat="40.7489944" lon="14.7691788"><ele>198.0</ele><time>2026-03-30T23:24:14.138Z</time></trkpt><trkpt lat="40.7490492" lon="14.7691325"><ele>198.0</ele><time>2026-03-30T23:28:29.138Z</time></trkpt><trkpt lat="40.7489864" lon="14.7691216"><ele>198.0</ele><time>2026-03-30T23:36:14.14Z</time></trkpt><trkpt lat="40.7491" lon="14.7691236"><ele>198.0</ele><time>2026-03-31T00:21:50.143Z</time></trkpt><trkpt lat="40.7490478" lon="14.7691707"><ele>198.0</ele><time>2026-03-31T00:32:49.145Z</time></trkpt><trkpt lat="40.7491098" lon="14.7691883"><ele>198.0</ele><time>2026-03-31T00:41:21.146Z</time></trkpt><trkpt lat="40.7490765" lon="14.7691175"><ele>198.0</ele><time>2026-03-31T00:43:17.143Z</time></trkpt><trkpt lat="40.7491125" lon="14.7691921"><ele>198.0</ele><time>2026-03-31T00:53:07.145Z</time></trkpt><trkpt lat="40.749064" lon="14.7691343"><ele>198.0</ele><time>2026-03-31T00:58:26.139Z</time></trkpt><trkpt lat="40.7490029" lon="14.7691768"><ele>198.0</ele><time>2026-03-31T00:58:36.146Z</time></trkpt><trkpt lat="40.7489439" lon="14.7692191"><ele>198.0</ele><time>2026-03-31T00:59:04.14Z</time></trkpt><trkpt lat="40.7488788" lon="14.7692296"><ele>198.0</ele><time>2026-03-31T00:59:18.141Z</time></trkpt><trkpt lat="40.7488135" lon="14.7692334"><ele>198.0</ele><time>2026-03-31T00:59:31.141Z</time></trkpt><trkpt lat="40.7487502" lon="14.7692517"><ele>198.0</ele><time>2026-03-31T01:00:04.141Z</time></trkpt><trkpt lat="40.7488425" lon="14.7692467"><ele>198.0</ele><time>2026-03-31T01:00:55.146Z</time></trkpt><trkpt lat="40.7489224" lon="14.7692098"><ele>198.0</ele><time>2026-03-31T01:01:30.023Z</time></trkpt><trkpt lat="40.748986" lon="14.7691945"><ele>198.0</ele><time>2026-03-31T01:01:40.022Z</time></trkpt><trkpt lat="40.7489224" lon="14.7691787"><ele>198.0</ele><time>2026-03-31T01:02:06.06Z</time></trkpt><trkpt lat="40.7489762" lon="14.7692248"><ele>198.0</ele><time>2026-03-31T01:09:29.032Z</time></trkpt><trkpt lat="40.7490476" lon="14.7692312"><ele>198.0</ele><time>2026-03-31T01:10:27.084Z</time></trkpt><trkpt lat="40.749114" lon="14.7692185"><ele>198.0</ele><time>2026-03-31T01:10:52.041Z</time></trkpt><trkpt lat="40.7491743" lon="14.7691834"><ele>198.0</ele><time>2026-03-31T01:11:06.023Z</time></trkpt><trkpt lat="40.7492926" lon="14.769175"><ele>198.0</ele><time>2026-03-31T01:11:55.04Z</time></trkpt><trkpt lat="40.7490005" lon="14.7692457"><ele>198.0</ele><time>2026-03-31T01:12:24.839Z</time></trkpt><trkpt lat="40.7489191" lon="14.7691874"><ele>198.0</ele><time>2026-03-31T01:12:30.773Z</time></trkpt><trkpt lat="40.7488474" lon="14.7691142"><ele>198.0</ele><time>2026-03-31T01:12:35.775Z</time></trkpt><trkpt lat="40.7487824" lon="14.7690445"><ele>198.0</ele><time>2026-03-31T01:12:41.768Z</time></trkpt><trkpt lat="40.7488928" lon="14.769145"><ele>198.0</ele><time>2026-03-31T01:12:52.665Z</time></trkpt><trkpt lat="40.7489388" lon="14.7692361"><ele>198.0</ele><time>2026-03-31T01:12:57.71Z</time></trkpt><trkpt lat="40.748965" lon="14.7693195"><ele>198.0</ele><time>2026-03-31T01:13:03.537Z</time></trkpt><trkpt lat="40.7488256" lon="14.7691623"><ele>198.0</ele><time>2026-03-31T01:13:14.362Z</time></trkpt><trkpt lat="40.7487725" lon="14.7690816"><ele>198.0</ele><time>2026-03-31T01:13:25.268Z</time></trkpt><trkpt lat="40.7489857" lon="14.7690698"><ele>198.0</ele><time>2026-03-31T01:13:36.303Z</time></trkpt><trkpt lat="40.7489591" lon="14.7692457"><ele>198.0</ele><time>2026-03-31T01:13:47.131Z</time></trkpt><trkpt lat="40.7488511" lon="14.7692712"><ele>198.0</ele><time>2026-03-31T01:13:52.163Z</time></trkpt><trkpt lat="40.7487657" lon="14.7692626"><ele>198.0</ele><time>2026-03-31T01:13:58.071Z</time></trkpt><trkpt lat="40.7489802" lon="14.7690958"><ele>198.0</ele><time>2026-03-31T01:14:13.928Z</time></trkpt><trkpt lat="40.7488308" lon="14.769247"><ele>198.0</ele><time>2026-03-31T01:15:25.043Z</time></trkpt><trkpt lat="40.7487477" lon="14.76924"><ele>198.0</ele><time>2026-03-31T01:15:35.926Z</time></trkpt><trkpt lat="40.74871" lon="14.7691712"><ele>198.0</ele><time>2026-03-31T01:15:40.982Z</time></trkpt><trkpt lat="40.7489598" lon="14.7691969"><ele>198.0</ele><time>2026-03-31T01:15:51.789Z</time></trkpt><trkpt lat="40.7489622" lon="14.7692962"><ele>198.0</ele><time>2026-03-31T01:15:57.622Z</time></trkpt><trkpt lat="40.7489846" lon="14.7692174"><ele>198.0</ele><time>2026-03-31T01:16:56.078Z</time></trkpt><trkpt lat="40.7489663" lon="14.7691377"><ele>198.0</ele><time>2026-03-31T01:17:36.021Z</time></trkpt><trkpt lat="40.7491312" lon="14.7691475"><ele>198.0</ele><time>2026-03-31T01:17:47.092Z</time></trkpt><trkpt lat="40.7491996" lon="14.7690984"><ele>198.0</ele><time>2026-03-31T01:17:50.061Z</time></trkpt><trkpt lat="40.749144" lon="14.7690529"><ele>198.0</ele><time>2026-03-31T01:18:05.021Z</time></trkpt><trkpt lat="40.7490805" lon="14.7690581"><ele>198.0</ele><time>2026-03-31T01:18:23.047Z</time></trkpt><trkpt lat="40.7490169" lon="14.7690793"><ele>198.0</ele><time>2026-03-31T01:18:31.072Z</time></trkpt><trkpt lat="40.7489478" lon="14.7691286"><ele>198.0</ele><time>2026-03-31T01:18:57.02Z</time></trkpt><trkpt lat="40.7488805" lon="14.7691676"><ele>198.0</ele><time>2026-03-31T01:20:53.02Z</time></trkpt><trkpt lat="40.7488222" lon="14.7692008"><ele>198.0</ele><time>2026-03-31T01:21:06.021Z</time></trkpt><trkpt lat="40.7487569" lon="14.7691928"><ele>198.0</ele><time>2026-03-31T01:21:16.021Z</time></trkpt><trkpt lat="40.7488873" lon="14.769143"><ele>198.0</ele><time>2026-03-31T01:22:12.445Z</time></trkpt><trkpt lat="40.748803" lon="14.7691124"><ele>198.0</ele><time>2026-03-31T01:22:29.022Z</time></trkpt><trkpt lat="40.7488605" lon="14.7691543"><ele>198.0</ele><time>2026-03-31T01:41:59.089Z</time></trkpt><trkpt lat="40.7488023" lon="14.7691878"><ele>198.0</ele><time>2026-03-31T01:42:30.096Z</time></trkpt><trkpt lat="40.7487427" lon="14.7691581"><ele>198.0</ele><time>2026-03-31T01:45:26.022Z</time></trkpt><trkpt lat="40.7486911" lon="14.7692059"><ele>198.0</ele><time>2026-03-31T01:46:46.061Z</time></trkpt><trkpt lat="40.7487544" lon="14.7692188"><ele>198.0</ele><time>2026-03-31T01:48:27.022Z</time></trkpt><trkpt lat="40.7488406" lon="14.7691887"><ele>198.0</ele><time>2026-03-31T01:48:36.023Z</time></trkpt><trkpt lat="40.7489005" lon="14.769158"><ele>198.0</ele><time>2026-03-31T01:48:48.106Z</time></trkpt><trkpt lat="40.7489588" lon="14.7691145"><ele>198.0</ele><time>2026-03-31T01:50:16.067Z</time></trkpt><trkpt lat="40.7490187" lon="14.7690828"><ele>198.0</ele><time>2026-03-31T01:50:41.026Z</time></trkpt><trkpt lat="40.7490752" lon="14.7690429"><ele>198.0</ele><time>2026-03-31T01:51:11.043Z</time></trkpt><trkpt lat="40.7491422" lon="14.7690327"><ele>198.0</ele><time>2026-03-31T01:52:11.076Z</time></trkpt><trkpt lat="40.7492554" lon="14.7690295"><ele>198.0</ele><time>2026-03-31T01:55:40.091Z</time></trkpt><trkpt lat="40.7493315" lon="14.7690343"><ele>198.0</ele><time>2026-03-31T01:56:00.022Z</time></trkpt><trkpt lat="40.7493795" lon="14.7690894"><ele>198.0</ele><time>2026-03-31T02:01:44.026Z</time></trkpt><trkpt lat="40.7493023" lon="14.769152"><ele>198.0</ele><time>2026-03-31T02:06:22.089Z</time></trkpt><trkpt lat="40.7492583" lon="14.7690678"><ele>198.0</ele><time>2026-03-31T02:06:24.067Z</time></trkpt><trkpt lat="40.7491355" lon="14.7691407"><ele>198.0</ele><time>2026-03-31T02:06:36.052Z</time></trkpt><trkpt lat="40.7490727" lon="14.7691264"><ele>198.0</ele><time>2026-03-31T02:08:32.05Z</time></trkpt><trkpt lat="40.7490103" lon="14.7691118"><ele>198.0</ele><time>2026-03-31T02:11:20.051Z</time></trkpt><trkpt lat="40.748949" lon="14.7691328"><ele>198.0</ele><time>2026-03-31T02:13:03.075Z</time></trkpt><trkpt lat="40.7490121" lon="14.7691291"><ele>198.0</ele><time>2026-03-31T02:20:37.054Z</time></trkpt><trkpt lat="40.7490962" lon="14.7691217"><ele>198.0</ele><time>2026-03-31T02:32:46.021Z</time></trkpt><trkpt lat="40.7490875" lon="14.7692043"><ele>198.0</ele><time>2026-03-31T02:40:17.124Z</time></trkpt><trkpt lat="40.749023" lon="14.7691974"><ele>198.0</ele><time>2026-03-31T03:14:07.064Z</time></trkpt><trkpt lat="40.7490771" lon="14.7691528"><ele>198.0</ele><time>2026-03-31T03:44:25.026Z</time></trkpt><trkpt lat="40.749014" lon="14.7691539"><ele>198.0</ele><time>2026-03-31T03:56:31.075Z</time></trkpt><trkpt lat="40.7490064" lon="14.7692365"><ele>198.0</ele><time>2026-03-31T04:09:08.038Z</time></trkpt><trkpt lat="40.7489588" lon="14.7693376"><ele>198.0</ele><time>2026-03-31T04:14:32.043Z</time></trkpt><trkpt lat="40.7488967" lon="14.7693233"><ele>198.0</ele><time>2026-03-31T04:16:29.029Z</time></trkpt><trkpt lat="40.7488861" lon="14.7692279"><ele>198.0</ele><time>2026-03-31T04:23:04.053Z</time></trkpt><trkpt lat="40.7488252" lon="14.7692567"><ele>198.0</ele><time>2026-03-31T04:23:25.052Z</time></trkpt><trkpt lat="40.7487714" lon="14.7693014"><ele>198.0</ele><time>2026-03-31T04:24:06.06Z</time></trkpt><trkpt lat="40.7487143" lon="14.7693392"><ele>198.0</ele><time>2026-03-31T04:30:35.042Z</time></trkpt><trkpt lat="40.7487676" lon="14.7692917"><ele>198.0</ele><time>2026-03-31T04:31:07.036Z</time></trkpt><trkpt lat="40.7488257" lon="14.7692537"><ele>198.0</ele><time>2026-03-31T04:31:44.087Z</time></trkpt><trkpt lat="40.7488766" lon="14.7692039"><ele>198.0</ele><time>2026-03-31T04:32:40.048Z</time></trkpt><trkpt lat="40.7489139" lon="14.7691357"><ele>198.0</ele><time>2026-03-31T04:33:18.088Z</time></trkpt><trkpt lat="40.7488516" lon="14.7691513"><ele>198.0</ele><time>2026-03-31T04:34:16.03Z</time></trkpt><trkpt lat="40.7488522" lon="14.7690682"><ele>198.0</ele><time>2026-03-31T05:40:41.038Z</time></trkpt><trkpt lat="40.7489681" lon="14.769052"><ele>198.0</ele><time>2026-03-31T05:51:46.084Z</time></trkpt><trkpt lat="40.7490104" lon="14.7691137"><ele>198.0</ele><time>2026-03-31T06:00:59.098Z</time></trkpt><trkpt lat="40.7489476" lon="14.7691235"><ele>198.0</ele><time>2026-03-31T06:33:15.086Z</time></trkpt><trkpt lat="40.7488846" lon="14.7691293"><ele>198.0</ele><time>2026-03-31T06:38:07.096Z</time></trkpt><trkpt lat="40.7489433" lon="14.7691602"><ele>198.0</ele><time>2026-03-31T07:30:49.968Z</time></trkpt><trkpt lat="40.7490031" lon="14.7691873"><ele>198.0</ele><time>2026-03-31T08:50:28.076Z</time></trkpt><trkpt lat="40.7490671" lon="14.7691838"><ele>198.0</ele><time>2026-03-31T08:58:23.053Z</time></trkpt><trkpt lat="40.7490269" lon="14.769118"><ele>198.0</ele><time>2026-03-31T09:22:48.056Z</time></trkpt><trkpt lat="40.7489639" lon="14.7691149"><ele>198.0</ele><time>2026-03-31T09:26:06.055Z</time></trkpt><trkpt lat="40.7489027" lon="14.7691349"><ele>198.0</ele><time>2026-03-31T10:13:43.06Z</time></trkpt><trkpt lat="40.7488551" lon="14.7691897"><ele>198.0</ele><time>2026-03-31T10:15:57.061Z</time></trkpt><trkpt lat="40.7489376" lon="14.7692087"><ele>198.0</ele><time>2026-03-31T10:21:05.078Z</time></trkpt><trkpt lat="40.7489978" lon="14.76918"><ele>198.0</ele><time>2026-03-31T10:41:41.062Z</time></trkpt><trkpt lat="40.7490598" lon="14.769154"><ele>198.0</ele><time>2026-03-31T11:37:09.068Z</time></trkpt><trkpt lat="40.7489982" lon="14.7691782"><ele>198.0</ele><time>2026-03-31T12:23:36.071Z</time></trkpt><trkpt lat="40.7489275" lon="14.7691157"><ele>198.0</ele><time>2026-03-31T12:26:42.072Z</time></trkpt><trkpt lat="40.7490291" lon="14.7691066"><ele>198.0</ele><time>2026-03-31T12:30:46.073Z</time></trkpt><trkpt lat="40.7489796" lon="14.7690548"><ele>198.0</ele><time>2026-03-31T12:43:11.111Z</time></trkpt><trkpt lat="40.7490095" lon="14.7691304"><ele>198.0</ele><time>2026-03-31T12:51:14.087Z</time></trkpt><trkpt lat="40.7489443" lon="14.7691337"><ele>198.0</ele><time>2026-03-31T12:53:19.093Z</time></trkpt><trkpt lat="40.7488814" lon="14.769142"><ele>198.0</ele><time>2026-03-31T12:54:20.074Z</time></trkpt><trkpt lat="40.7488143" lon="14.7691809"><ele>198.0</ele><time>2026-03-31T12:56:03.075Z</time></trkpt><trkpt lat="40.7487464" lon="14.7691884"><ele>198.0</ele><time>2026-03-31T12:56:19.074Z</time></trkpt><trkpt lat="40.7486792" lon="14.769165"><ele>198.0</ele><time>2026-03-31T12:57:16.075Z</time></trkpt><trkpt lat="40.7487477" lon="14.7691562"><ele>198.0</ele><time>2026-03-31T13:08:49.094Z</time></trkpt><trkpt lat="40.7488256" lon="14.7691548"><ele>198.0</ele><time>2026-03-31T13:16:42.077Z</time></trkpt><trkpt lat="40.748854" lon="14.7692307"><ele>198.0</ele><time>2026-03-31T13:24:05.078Z</time></trkpt><trkpt lat="40.7489192" lon="14.7692452"><ele>198.0</ele><time>2026-03-31T13:24:33.078Z</time></trkpt><trkpt lat="40.7489872" lon="14.7692444"><ele>198.0</ele><time>2026-03-31T13:25:23.083Z</time></trkpt><trkpt lat="40.7490991" lon="14.7692353"><ele>198.0</ele><time>2026-03-31T13:37:28.078Z</time></trkpt><trkpt lat="40.7491592" lon="14.7692088"><ele>198.0</ele><time>2026-03-31T13:40:26.079Z</time></trkpt><trkpt lat="40.7490951" lon="14.769198"><ele>198.0</ele><time>2026-03-31T13:50:52.08Z</time></trkpt><trkpt lat="40.7490337" lon="14.7691778"><ele>198.0</ele><time>2026-03-31T13:53:22.081Z</time></trkpt><trkpt lat="40.7489762" lon="14.7691438"><ele>198.0</ele><time>2026-03-31T14:12:26.082Z</time></trkpt><trkpt lat="40.7490396" lon="14.7691661"><ele>198.0</ele><time>2026-03-31T14:42:12.088Z</time></trkpt><trkpt lat="40.7491003" lon="14.7691893"><ele>198.0</ele><time>2026-03-31T14:43:17.084Z</time></trkpt><trkpt lat="40.749149" lon="14.7691365"><ele>198.0</ele><time>2026-03-31T14:59:20.087Z</time></trkpt><trkpt lat="40.7492423" lon="14.7690926"><ele>198.0</ele><time>2026-03-31T15:05:16.086Z</time></trkpt><trkpt lat="40.7492453" lon="14.7690082"><ele>198.0</ele><time>2026-03-31T15:14:12.087Z</time></trkpt><trkpt lat="40.7491839" lon="14.7689834"><ele>198.0</ele><time>2026-03-31T15:21:43.088Z</time></trkpt><trkpt lat="40.7491201" lon="14.7689853"><ele>198.0</ele><time>2026-03-31T15:23:35.088Z</time></trkpt><trkpt lat="40.7490559" lon="14.7689907"><ele>198.0</ele><time>2026-03-31T15:24:23.089Z</time></trkpt><trkpt lat="40.7489948" lon="14.7690227"><ele>198.0</ele><time>2026-03-31T15:25:01.088Z</time></trkpt><trkpt lat="40.7489406" lon="14.7690663"><ele>198.0</ele><time>2026-03-31T15:26:29.089Z</time></trkpt><trkpt lat="40.7489098" lon="14.7691425"><ele>198.0</ele><time>2026-03-31T16:15:37.093Z</time></trkpt><trkpt lat="40.7489989" lon="14.7691494"><ele>198.0</ele><time>2026-03-31T16:23:42.093Z</time></trkpt><trkpt lat="40.7489359" lon="14.7691643"><ele>198.0</ele><time>2026-03-31T17:54:07.102Z</time></trkpt><trkpt lat="40.7488655" lon="14.7691624"><ele>198.0</ele><time>2026-03-31T17:55:14.103Z</time></trkpt><trkpt lat="40.7488017" lon="14.7691757"><ele>198.0</ele><time>2026-03-31T17:55:58.102Z</time></trkpt><trkpt lat="40.7487395" lon="14.7691559"><ele>198.0</ele><time>2026-03-31T17:56:48.103Z</time></trkpt><trkpt lat="40.7488138" lon="14.7691407"><ele>198.0</ele><time>2026-03-31T18:02:44.102Z</time></trkpt><trkpt lat="40.7487787" lon="14.7690716"><ele>198.0</ele><time>2026-03-31T18:11:29.103Z</time></trkpt><trkpt lat="40.7487884" lon="14.7691541"><ele>198.0</ele><time>2026-03-31T18:17:13.104Z</time></trkpt><trkpt lat="40.7488638" lon="14.7691714"><ele>198.0</ele><time>2026-03-31T18:20:34.105Z</time></trkpt><trkpt lat="40.7489297" lon="14.7691916"><ele>198.0</ele><time>2026-03-31T18:26:55.105Z</time></trkpt><trkpt lat="40.7490329" lon="14.7692537"><ele>198.0</ele><time>2026-03-31T18:46:17.107Z</time></trkpt><trkpt lat="40.7491302" lon="14.769171"><ele>198.0</ele><time>2026-03-31T18:54:33.108Z</time></trkpt><trkpt lat="40.7490658" lon="14.7691579"><ele>198.0</ele><time>2026-03-31T18:55:24.107Z</time></trkpt><trkpt lat="40.7490036" lon="14.7691413"><ele>198.0</ele><time>2026-03-31T18:56:05.108Z</time></trkpt><trkpt lat="40.7490136" lon="14.7690588"><ele>198.0</ele><time>2026-03-31T19:33:37.111Z</time></trkpt><trkpt lat="40.7490757" lon="14.7690427"><ele>198.0</ele><time>2026-03-31T19:41:06.112Z</time></trkpt><trkpt lat="40.7491971" lon="14.7690216"><ele>198.0</ele><time>2026-03-31T19:55:47.114Z</time></trkpt><trkpt lat="40.749134" lon="14.769025"><ele>198.0</ele><time>2026-03-31T20:18:50.116Z</time></trkpt><trkpt lat="40.7490697" lon="14.7690342"><ele>198.0</ele><time>2026-03-31T20:44:13.118Z</time></trkpt><trkpt lat="40.7489929" lon="14.7690633"><ele>198.0</ele><time>2026-03-31T21:00:39.119Z</time></trkpt><trkpt lat="40.7490435" lon="14.7691151"><ele>198.0</ele><time>2026-03-31T21:02:02.12Z</time></trkpt><trkpt lat="40.7491407" lon="14.7691239"><ele>198.0</ele><time>2026-03-31T21:03:44.119Z</time></trkpt><trkpt lat="40.749" lon="14.7691504"><ele>198.0</ele><time>2026-03-31T21:11:56.059Z</time></trkpt><trkpt lat="40.7489358" lon="14.7691673"><ele>198.0</ele><time>2026-03-31T21:12:01.104Z</time></trkpt><trkpt lat="40.7488369" lon="14.7691609"><ele>198.0</ele><time>2026-03-31T21:12:11.968Z</time></trkpt><trkpt lat="40.7489078" lon="14.7691312"><ele>198.0</ele><time>2026-03-31T21:32:47.059Z</time></trkpt><trkpt lat="40.7489779" lon="14.7691101"><ele>198.0</ele><time>2026-03-31T21:33:30.045Z</time></trkpt><trkpt lat="40.7490819" lon="14.7690907"><ele>198.0</ele><time>2026-03-31T21:37:01.025Z</time></trkpt><trkpt lat="40.7491188" lon="14.7691582"><ele>198.0</ele><time>2026-03-31T22:16:54.096Z</time></trkpt><trkpt lat="40.7490709" lon="14.7692122"><ele>198.0</ele><time>2026-03-31T22:18:04.026Z</time></trkpt><trkpt lat="40.7490145" lon="14.7691749"><ele>198.0</ele><time>2026-03-31T22:22:57.027Z</time></trkpt><trkpt lat="40.7490871" lon="14.7691549"><ele>198.0</ele><time>2026-03-31T22:40:06.028Z</time></trkpt><trkpt lat="40.7490307" lon="14.7691155"><ele>198.0</ele><time>2026-03-31T22:56:05.035Z</time></trkpt><trkpt lat="40.7489968" lon="14.7690414"><ele>198.0</ele><time>2026-03-31T23:04:36.055Z</time></trkpt><trkpt lat="40.7489723" lon="14.7691222"><ele>198.0</ele><time>2026-03-31T23:20:08.045Z</time></trkpt><trkpt lat="40.7490333" lon="14.769143"><ele>198.0</ele><time>2026-03-31T23:22:52.08Z</time></trkpt><trkpt lat="40.748972" lon="14.7691629"><ele>198.0</ele><time>2026-03-31T23:24:22.032Z</time></trkpt><trkpt lat="40.748915" lon="14.7691983"><ele>198.0</ele><time>2026-03-31T23:30:02.069Z</time></trkpt><trkpt lat="40.7490369" lon="14.7692337"><ele>198.0</ele><time>2026-03-31T23:38:28.034Z</time></trkpt><trkpt lat="40.7490739" lon="14.7693015"><ele>198.0</ele><time>2026-03-31T23:40:09.063Z</time></trkpt><trkpt lat="40.7491384" lon="14.769324"><ele>198.0</ele><time>2026-03-31T23:47:31.035Z</time></trkpt><trkpt lat="40.7491997" lon="14.7692958"><ele>198.0</ele><time>2026-03-31T23:48:53.052Z</time></trkpt><trkpt lat="40.7492923" lon="14.769294"><ele>198.0</ele><time>2026-04-01T00:09:22.036Z</time></trkpt><trkpt lat="40.7492433" lon="14.769231"><ele>198.0</ele><time>2026-04-01T00:15:35.036Z</time></trkpt><trkpt lat="40.7491798" lon="14.7692293"><ele>198.0</ele><time>2026-04-01T00:16:10.107Z</time></trkpt><trkpt lat="40.7491168" lon="14.7692163"><ele>198.0</ele><time>2026-04-01T00:16:48.037Z</time></trkpt><trkpt lat="40.749059" lon="14.7691785"><ele>198.0</ele><time>2026-04-01T00:17:17.062Z</time></trkpt><trkpt lat="40.7491077" lon="14.7691191"><ele>198.0</ele><time>2026-04-01T00:19:04.038Z</time></trkpt><trkpt lat="40.7490439" lon="14.7690985"><ele>198.0</ele><time>2026-04-01T00:23:00.085Z</time></trkpt><trkpt lat="40.7489892" lon="14.7691416"><ele>198.0</ele><time>2026-04-01T00:27:08.037Z</time></trkpt><trkpt lat="40.7490538" lon="14.7691794"><ele>198.0</ele><time>2026-04-01T00:41:39.086Z</time></trkpt><trkpt lat="40.7489987" lon="14.7691387"><ele>198.0</ele><time>2026-04-01T00:43:25.071Z</time></trkpt><trkpt lat="40.749049" lon="14.7691911"><ele>198.0</ele><time>2026-04-01T01:00:18.086Z</time></trkpt><trkpt lat="40.7490979" lon="14.7691378"><ele>198.0</ele><time>2026-04-01T01:03:06.079Z</time></trkpt><trkpt lat="40.7490471" lon="14.7690887"><ele>198.0</ele><time>2026-04-01T01:06:51.041Z</time></trkpt><trkpt lat="40.7490549" lon="14.7691718"><ele>198.0</ele><time>2026-04-01T01:22:00.042Z</time></trkpt><trkpt lat="40.7491163" lon="14.7691918"><ele>198.0</ele><time>2026-04-01T01:51:12.069Z</time></trkpt><trkpt lat="40.7491742" lon="14.7692333"><ele>198.0</ele><time>2026-04-01T01:52:25.071Z</time></trkpt><trkpt lat="40.7491137" lon="14.7692076"><ele>198.0</ele><time>2026-04-01T02:04:23.046Z</time></trkpt><trkpt lat="40.7490545" lon="14.7691783"><ele>198.0</ele><time>2026-04-01T02:35:07.063Z</time></trkpt><trkpt lat="40.748926" lon="14.7691964"><ele>198.0</ele><time>2026-04-01T03:00:32.091Z</time></trkpt><trkpt lat="40.748848" lon="14.7691683"><ele>198.0</ele><time>2026-04-01T03:00:34.039Z</time></trkpt><trkpt lat="40.7489098" lon="14.7692043"><ele>198.0</ele><time>2026-04-01T03:00:42.021Z</time></trkpt><trkpt lat="40.7490363" lon="14.769258"><ele>198.0</ele><time>2026-04-01T03:00:56.02Z</time></trkpt><trkpt lat="40.7490997" lon="14.7692415"><ele>198.0</ele><time>2026-04-01T03:01:01.021Z</time></trkpt><trkpt lat="40.7491423" lon="14.7691751"><ele>198.0</ele><time>2026-04-01T03:04:05.021Z</time></trkpt><trkpt lat="40.7492086" lon="14.7691252"><ele>198.0</ele><time>2026-04-01T03:11:03.021Z</time></trkpt><trkpt lat="40.7492748" lon="14.7691116"><ele>198.0</ele><time>2026-04-01T03:21:14.021Z</time></trkpt><trkpt lat="40.7492217" lon="14.7690629"><ele>198.0</ele><time>2026-04-01T03:24:45.023Z</time></trkpt><trkpt lat="40.7491582" lon="14.76907"><ele>198.0</ele><time>2026-04-01T03:26:46.022Z</time></trkpt><trkpt lat="40.7492143" lon="14.7691082"><ele>198.0</ele><time>2026-04-01T03:30:03.023Z</time></trkpt><trkpt lat="40.7492755" lon="14.7691325"><ele>198.0</ele><time>2026-04-01T03:30:58.022Z</time></trkpt><trkpt lat="40.7492127" lon="14.7691151"><ele>198.0</ele><time>2026-04-01T03:33:09.024Z</time></trkpt><trkpt lat="40.7491433" lon="14.7691153"><ele>198.0</ele><time>2026-04-01T03:35:17.024Z</time></trkpt><trkpt lat="40.7490722" lon="14.7691191"><ele>198.0</ele><time>2026-04-01T03:38:00.024Z</time></trkpt><trkpt lat="40.7490057" lon="14.769131"><ele>198.0</ele><time>2026-04-01T03:38:31.024Z</time></trkpt><trkpt lat="40.7489907" lon="14.769029"><ele>198.0</ele><time>2026-04-01T03:51:09.025Z</time></trkpt><trkpt lat="40.7490032" lon="14.769111"><ele>198.0</ele><time>2026-04-01T03:54:47.025Z</time></trkpt><trkpt lat="40.7489401" lon="14.7691285"><ele>198.0</ele><time>2026-04-01T04:01:21.025Z</time></trkpt><trkpt lat="40.7488902" lon="14.7691829"><ele>198.0</ele><time>2026-04-01T04:03:56.026Z</time></trkpt><trkpt lat="40.748802" lon="14.7692187"><ele>198.0</ele><time>2026-04-01T04:07:04.026Z</time></trkpt><trkpt lat="40.7487336" lon="14.769232"><ele>198.0</ele><time>2026-04-01T04:10:15.026Z</time></trkpt><trkpt lat="40.7488193" lon="14.7692307"><ele>198.0</ele><time>2026-04-01T04:17:16.027Z</time></trkpt><trkpt lat="40.7489091" lon="14.7692842"><ele>198.0</ele><time>2026-04-01T04:21:30.028Z</time></trkpt><trkpt lat="40.7489559" lon="14.7691537"><ele>198.0</ele><time>2026-04-01T04:27:23.028Z</time></trkpt><trkpt lat="40.7489859" lon="14.76907"><ele>198.0</ele><time>2026-04-01T04:34:44.029Z</time></trkpt><trkpt lat="40.7490533" lon="14.769115"><ele>198.0</ele><time>2026-04-01T04:44:49.03Z</time></trkpt><trkpt lat="40.7491296" lon="14.769117"><ele>198.0</ele><time>2026-04-01T04:47:18.031Z</time></trkpt><trkpt lat="40.7490856" lon="14.7691781"><ele>198.0</ele><time>2026-04-01T04:58:32.031Z</time></trkpt><trkpt lat="40.7491535" lon="14.7691533"><ele>198.0</ele><time>2026-04-01T05:05:26.032Z</time></trkpt><trkpt lat="40.7492029" lon="14.7692149"><ele>198.0</ele><time>2026-04-01T05:08:06.033Z</time></trkpt><trkpt lat="40.7491079" lon="14.7691814"><ele>198.0</ele><time>2026-04-01T05:12:46.032Z</time></trkpt><trkpt lat="40.7490397" lon="14.7691862"><ele>198.0</ele><time>2026-04-01T05:16:46.033Z</time></trkpt><trkpt lat="40.7490178" lon="14.7690996"><ele>198.0</ele><time>2026-04-01T05:20:06.034Z</time></trkpt><trkpt lat="40.7490645" lon="14.7691594"><ele>198.0</ele><time>2026-04-01T05:34:19.034Z</time></trkpt><trkpt lat="40.7491401" lon="14.7691916"><ele>198.0</ele><time>2026-04-01T05:35:53.035Z</time></trkpt><trkpt lat="40.7490801" lon="14.769237"><ele>198.0</ele><time>2026-04-01T05:41:24.035Z</time></trkpt><trkpt lat="40.7490561" lon="14.7691583"><ele>198.0</ele><time>2026-04-01T05:58:19.038Z</time></trkpt><trkpt lat="40.7490006" lon="14.7692168"><ele>198.0</ele><time>2026-04-01T06:02:32.037Z</time></trkpt><trkpt lat="40.7489325" lon="14.7692153"><ele>198.0</ele><time>2026-04-01T06:03:26.037Z</time></trkpt><trkpt lat="40.7488934" lon="14.769301"><ele>198.0</ele><time>2026-04-01T06:06:52.039Z</time></trkpt><trkpt lat="40.7488735" lon="14.7692172"><ele>198.0</ele><time>2026-04-01T06:11:27.038Z</time></trkpt><trkpt lat="40.7488569" lon="14.7691219"><ele>198.0</ele><time>2026-04-01T06:13:47.038Z</time></trkpt><trkpt lat="40.7488366" lon="14.7692028"><ele>198.0</ele><time>2026-04-01T06:15:35.038Z</time></trkpt><trkpt lat="40.7487734" lon="14.7692087"><ele>198.0</ele><time>2026-04-01T06:17:22.039Z</time></trkpt><trkpt lat="40.7487106" lon="14.7692334"><ele>198.0</ele><time>2026-04-01T06:18:03.039Z</time></trkpt><trkpt lat="40.7487072" lon="14.7691502"><ele>198.0</ele><time>2026-04-01T06:18:46.039Z</time></trkpt><trkpt lat="40.7486566" lon="14.7692249"><ele>198.0</ele><time>2026-04-01T06:19:59.039Z</time></trkpt><trkpt lat="40.7486449" lon="14.7693096"><ele>198.0</ele><time>2026-04-01T06:20:08.039Z</time></trkpt><trkpt lat="40.748583" lon="14.7692838"><ele>198.0</ele><time>2026-04-01T06:21:28.04Z</time></trkpt><trkpt lat="40.7486369" lon="14.7693471"><ele>198.0</ele><time>2026-04-01T06:22:36.039Z</time></trkpt><trkpt lat="40.7487094" lon="14.7693312"><ele>198.0</ele><time>2026-04-01T06:23:20.039Z</time></trkpt><trkpt lat="40.7487853" lon="14.7693304"><ele>198.0</ele><time>2026-04-01T06:24:59.039Z</time></trkpt><trkpt lat="40.7488636" lon="14.769325"><ele>198.0</ele><time>2026-04-01T06:25:35.039Z</time></trkpt><trkpt lat="40.7489523" lon="14.7693096"><ele>198.0</ele><time>2026-04-01T06:27:43.04Z</time></trkpt><trkpt lat="40.7490275" lon="14.7692719"><ele>198.0</ele><time>2026-04-01T06:31:41.041Z</time></trkpt><trkpt lat="40.7490856" lon="14.7693433"><ele>198.0</ele><time>2026-04-01T06:36:30.041Z</time></trkpt><trkpt lat="40.7490073" lon="14.7693004"><ele>198.0</ele><time>2026-04-01T06:38:52.041Z</time></trkpt><trkpt lat="40.7489489" lon="14.769268"><ele>198.0</ele><time>2026-04-01T06:39:02.041Z</time></trkpt><trkpt lat="40.749015" lon="14.7692637"><ele>198.0</ele><time>2026-04-01T06:42:27.041Z</time></trkpt><trkpt lat="40.7490447" lon="14.7691885"><ele>198.0</ele><time>2026-04-01T06:45:17.041Z</time></trkpt><trkpt lat="40.7491101" lon="14.769194"><ele>198.0</ele><time>2026-04-01T06:45:54.042Z</time></trkpt><trkpt lat="40.7491799" lon="14.7692423"><ele>198.0</ele><time>2026-04-01T06:47:21.042Z</time></trkpt><trkpt lat="40.7492368" lon="14.7692832"><ele>198.0</ele><time>2026-04-01T06:47:45.042Z</time></trkpt><trkpt lat="40.7492481" lon="14.7693658"><ele>198.0</ele><time>2026-04-01T06:48:08.042Z</time></trkpt><trkpt lat="40.7491543" lon="14.7693549"><ele>198.0</ele><time>2026-04-01T06:49:19.043Z</time></trkpt><trkpt lat="40.749054" lon="14.7693315"><ele>198.0</ele><time>2026-04-01T06:49:22.042Z</time></trkpt><trkpt lat="40.7489799" lon="14.769337"><ele>198.0</ele><time>2026-04-01T06:49:23.042Z</time></trkpt><trkpt lat="40.7488813" lon="14.7693267"><ele>198.0</ele><time>2026-04-01T06:49:25.042Z</time></trkpt><trkpt lat="40.7487848" lon="14.7693088"><ele>198.0</ele><time>2026-04-01T06:49:27.042Z</time></trkpt><trkpt lat="40.7485697" lon="14.7692831"><ele>198.0</ele><time>2026-04-01T06:49:28.042Z</time></trkpt><trkpt lat="40.7484488" lon="14.7692622"><ele>197.83333333333334</ele><time>2026-04-01T06:49:29.042Z</time></trkpt><trkpt lat="40.7483711" lon="14.7692454"><ele>197.66666666666669</ele><time>2026-04-01T06:49:30.043Z</time></trkpt><trkpt lat="40.7482731" lon="14.7692253"><ele>197.5</ele><time>2026-04-01T06:49:32.043Z</time></trkpt><trkpt lat="40.7481913" lon="14.769211"><ele>197.33333333333334</ele><time>2026-04-01T06:49:34.042Z</time></trkpt><trkpt lat="40.748117" lon="14.7691989"><ele>197.16666666666669</ele><time>2026-04-01T06:49:37.042Z</time></trkpt><trkpt lat="40.7480531" lon="14.7692063"><ele>197.0</ele><time>2026-04-01T06:49:43.043Z</time></trkpt><trkpt lat="40.7479999" lon="14.7691583"><ele>197.00000000000003</ele><time>2026-04-01T06:50:56.042Z</time></trkpt><trkpt lat="40.7480738" lon="14.7691528"><ele>197.0</ele><time>2026-04-01T06:51:32.042Z</time></trkpt><trkpt lat="40.7481568" lon="14.7691651"><ele>197.0</ele><time>2026-04-01T06:51:38.042Z</time></trkpt><trkpt lat="40.7482493" lon="14.7691626"><ele>197.0</ele><time>2026-04-01T06:51:41.043Z</time></trkpt><trkpt lat="40.7483172" lon="14.7691336"><ele>197.00000000000003</ele><time>2026-04-01T06:51:50.043Z</time></trkpt><trkpt lat="40.7483988" lon="14.769117"><ele>197.0</ele><time>2026-04-01T06:51:58.043Z</time></trkpt><trkpt lat="40.7485013" lon="14.7691181"><ele>197.16666666666669</ele><time>2026-04-01T06:52:05.043Z</time></trkpt><trkpt lat="40.7485707" lon="14.7691239"><ele>197.33333333333334</ele><time>2026-04-01T06:52:14.043Z</time></trkpt><trkpt lat="40.7486304" lon="14.7690859"><ele>197.5</ele><time>2026-04-01T06:53:26.043Z</time></trkpt><trkpt lat="40.7486855" lon="14.7691771"><ele>197.66666666666669</ele><time>2026-04-01T06:54:46.042Z</time></trkpt><trkpt lat="40.7487495" lon="14.7691809"><ele>197.83333333333334</ele><time>2026-04-01T06:54:51.042Z</time></trkpt><trkpt lat="40.7486814" lon="14.7691833"><ele>198.0</ele><time>2026-04-01T06:56:17.042Z</time></trkpt><trkpt lat="40.7487798" lon="14.7691863"><ele>198.0</ele><time>2026-04-01T06:56:58.042Z</time></trkpt><trkpt lat="40.7488601" lon="14.7691841"><ele>198.0</ele><time>2026-04-01T06:57:00.042Z</time></trkpt><trkpt lat="40.7488741" lon="14.7690802"><ele>198.0</ele><time>2026-04-01T07:00:33.043Z</time></trkpt><trkpt lat="40.7488162" lon="14.7691212"><ele>198.0</ele><time>2026-04-01T07:03:14.043Z</time></trkpt><trkpt lat="40.748896" lon="14.7691592"><ele>198.0</ele><time>2026-04-01T07:08:57.051Z</time></trkpt><trkpt lat="40.7489662" lon="14.769163"><ele>198.0</ele><time>2026-04-01T07:17:17.044Z</time></trkpt><trkpt lat="40.7490332" lon="14.7691632"><ele>198.0</ele><time>2026-04-01T07:23:13.046Z</time></trkpt><trkpt lat="40.7489654" lon="14.7691445"><ele>198.0</ele><time>2026-04-01T07:36:07.067Z</time></trkpt><trkpt lat="40.7488968" lon="14.7691551"><ele>198.0</ele><time>2026-04-01T07:38:27.047Z</time></trkpt><trkpt lat="40.7488526" lon="14.7690943"><ele>198.0</ele><time>2026-04-01T07:43:16.047Z</time></trkpt><trkpt lat="40.7489599" lon="14.7691109"><ele>198.0</ele><time>2026-04-01T07:47:57.047Z</time></trkpt><trkpt lat="40.7489185" lon="14.7690424"><ele>198.0</ele><time>2026-04-01T07:49:28.049Z</time></trkpt><trkpt lat="40.7489544" lon="14.7691183"><ele>198.0</ele><time>2026-04-01T07:56:38.049Z</time></trkpt><trkpt lat="40.749032" lon="14.7691804"><ele>198.0</ele><time>2026-04-01T08:01:57.049Z</time></trkpt><trkpt lat="40.7489458" lon="14.7691929"><ele>198.0</ele><time>2026-04-01T08:09:22.05Z</time></trkpt><trkpt lat="40.7489629" lon="14.7692756"><ele>198.0</ele><time>2026-04-01T08:14:50.051Z</time></trkpt><trkpt lat="40.7488773" lon="14.7691765"><ele>198.0</ele><time>2026-04-01T08:25:52.055Z</time></trkpt><trkpt lat="40.7489656" lon="14.7691898"><ele>198.0</ele><time>2026-04-01T08:34:27.053Z</time></trkpt><trkpt lat="40.7489608" lon="14.7691066"><ele>198.0</ele><time>2026-04-01T08:58:39.055Z</time></trkpt><trkpt lat="40.7489031" lon="14.7691403"><ele>198.0</ele><time>2026-04-01T09:01:39.056Z</time></trkpt><trkpt lat="40.7489663" lon="14.7691296"><ele>198.0</ele><time>2026-04-01T09:14:15.059Z</time></trkpt><trkpt lat="40.749037" lon="14.7691396"><ele>198.0</ele><time>2026-04-01T09:18:33.091Z</time></trkpt><trkpt lat="40.7490973" lon="14.769115"><ele>198.0</ele><time>2026-04-01T09:35:18.062Z</time></trkpt><trkpt lat="40.7490522" lon="14.769179"><ele>198.0</ele><time>2026-04-01T09:50:16.061Z</time></trkpt><trkpt lat="40.7489937" lon="14.769212"><ele>198.0</ele><time>2026-04-01T09:57:37.061Z</time></trkpt><trkpt lat="40.7490718" lon="14.7691968"><ele>198.0</ele><time>2026-04-01T10:04:41.077Z</time></trkpt><trkpt lat="40.7490086" lon="14.7692057"><ele>198.0</ele><time>2026-04-01T10:11:25.063Z</time></trkpt><trkpt lat="40.7489477" lon="14.7691815"><ele>198.0</ele><time>2026-04-01T10:14:05.074Z</time></trkpt><trkpt lat="40.7488869" lon="14.7691585"><ele>198.0</ele><time>2026-04-01T10:23:51.063Z</time></trkpt><trkpt lat="40.7488256" lon="14.7691798"><ele>198.0</ele><time>2026-04-01T10:24:50.064Z</time></trkpt><trkpt lat="40.7488754" lon="14.7691289"><ele>198.0</ele><time>2026-04-01T10:26:56.092Z</time></trkpt><trkpt lat="40.7489617" lon="14.7691199"><ele>198.0</ele><time>2026-04-01T10:34:16.075Z</time></trkpt><trkpt lat="40.7490457" lon="14.7690939"><ele>198.0</ele><time>2026-04-01T10:35:52.065Z</time></trkpt><trkpt lat="40.748994" lon="14.7691445"><ele>198.0</ele><time>2026-04-01T10:39:59.091Z</time></trkpt><trkpt lat="40.7489319" lon="14.7691306"><ele>198.0</ele><time>2026-04-01T10:45:56.07Z</time></trkpt><trkpt lat="40.7488781" lon="14.7691742"><ele>198.0</ele><time>2026-04-01T10:47:14.066Z</time></trkpt><trkpt lat="40.7489721" lon="14.769162"><ele>198.0</ele><time>2026-04-01T11:06:20.067Z</time></trkpt><trkpt lat="40.7489159" lon="14.7692033"><ele>198.0</ele><time>2026-04-01T11:29:39.07Z</time></trkpt><trkpt lat="40.7489744" lon="14.7691716"><ele>198.0</ele><time>2026-04-01T11:38:52.071Z</time></trkpt><trkpt lat="40.7490815" lon="14.7691636"><ele>198.0</ele><time>2026-04-01T11:47:50.101Z</time></trkpt><trkpt lat="40.7490178" lon="14.769151"><ele>198.0</ele><time>2026-04-01T11:50:16.104Z</time></trkpt><trkpt lat="40.7489578" lon="14.7691775"><ele>198.0</ele><time>2026-04-01T11:58:40.075Z</time></trkpt><trkpt lat="40.7488952" lon="14.7691868"><ele>198.0</ele><time>2026-04-01T12:00:56.074Z</time></trkpt><trkpt lat="40.748832" lon="14.7691923"><ele>198.0</ele><time>2026-04-01T12:03:23.073Z</time></trkpt><trkpt lat="40.7487824" lon="14.769135"><ele>198.0</ele><time>2026-04-01T12:08:38.074Z</time></trkpt><trkpt lat="40.7488647" lon="14.769093"><ele>198.0</ele><time>2026-04-01T12:09:44.074Z</time></trkpt><trkpt lat="40.7488151" lon="14.7691468"><ele>198.0</ele><time>2026-04-01T12:16:05.074Z</time></trkpt><trkpt lat="40.7488735" lon="14.769115"><ele>198.0</ele><time>2026-04-01T12:22:51.079Z</time></trkpt><trkpt lat="40.7488961" lon="14.7691999"><ele>198.0</ele><time>2026-04-01T12:32:29.076Z</time></trkpt><trkpt lat="40.7488409" lon="14.7691596"><ele>198.0</ele><time>2026-04-01T12:33:52.077Z</time></trkpt><trkpt lat="40.748878" lon="14.7690892"><ele>198.0</ele><time>2026-04-01T12:47:30.077Z</time></trkpt><trkpt lat="40.7488147" lon="14.769088"><ele>198.0</ele><time>2026-04-01T12:49:11.078Z</time></trkpt><trkpt lat="40.748751" lon="14.7690963"><ele>198.0</ele><time>2026-04-01T12:50:06.077Z</time></trkpt><trkpt lat="40.7486885" lon="14.7691098"><ele>198.0</ele><time>2026-04-01T12:55:08.078Z</time></trkpt><trkpt lat="40.7486267" lon="14.7690885"><ele>198.0</ele><time>2026-04-01T12:57:39.086Z</time></trkpt><trkpt lat="40.7486933" lon="14.769114"><ele>198.0</ele><time>2026-04-01T13:01:18.089Z</time></trkpt><trkpt lat="40.7487584" lon="14.7691284"><ele>198.0</ele><time>2026-04-01T13:05:20.079Z</time></trkpt><trkpt lat="40.7488725" lon="14.7691263"><ele>198.0</ele><time>2026-04-01T13:11:18.079Z</time></trkpt><trkpt lat="40.7489626" lon="14.7691297"><ele>198.0</ele><time>2026-04-01T13:17:21.08Z</time></trkpt><trkpt lat="40.7490339" lon="14.7691298"><ele>198.0</ele><time>2026-04-01T13:20:25.11Z</time></trkpt><trkpt lat="40.7490981" lon="14.7691187"><ele>198.0</ele><time>2026-04-01T13:22:32.092Z</time></trkpt><trkpt lat="40.7490437" lon="14.7690763"><ele>198.0</ele><time>2026-04-01T13:41:58.082Z</time></trkpt><trkpt lat="40.748985" lon="14.769046"><ele>198.0</ele><time>2026-04-01T14:00:11.084Z</time></trkpt><trkpt lat="40.7489293" lon="14.7690862"><ele>198.0</ele><time>2026-04-01T14:01:20.107Z</time></trkpt><trkpt lat="40.748866" lon="14.7690908"><ele>198.0</ele><time>2026-04-01T14:02:08.085Z</time></trkpt><trkpt lat="40.7488069" lon="14.7691213"><ele>198.0</ele><time>2026-04-01T14:03:16.095Z</time></trkpt><trkpt lat="40.7488709" lon="14.7691787"><ele>198.0</ele><time>2026-04-01T14:12:52.085Z</time></trkpt><trkpt lat="40.7489577" lon="14.769178"><ele>198.0</ele><time>2026-04-01T14:19:00.086Z</time></trkpt><trkpt lat="40.7490129" lon="14.7691378"><ele>198.0</ele><time>2026-04-01T14:30:41.088Z</time></trkpt><trkpt lat="40.7489502" lon="14.7691467"><ele>198.0</ele><time>2026-04-01T14:46:38.089Z</time></trkpt><trkpt lat="40.7488955" lon="14.7691891"><ele>198.0</ele><time>2026-04-01T14:50:01.09Z</time></trkpt><trkpt lat="40.7488353" lon="14.7691634"><ele>198.0</ele><time>2026-04-01T14:51:29.104Z</time></trkpt><trkpt lat="40.7488299" lon="14.7692462"><ele>198.0</ele><time>2026-04-01T15:22:37.093Z</time></trkpt><trkpt lat="40.7488588" lon="14.769169"><ele>198.0</ele><time>2026-04-01T15:31:33.112Z</time></trkpt><trkpt lat="40.7489547" lon="14.769153"><ele>198.0</ele><time>2026-04-01T15:33:03.094Z</time></trkpt><trkpt lat="40.7489887" lon="14.7690822"><ele>198.0</ele><time>2026-04-01T15:41:25.094Z</time></trkpt><trkpt lat="40.7490985" lon="14.7691202"><ele>198.0</ele><time>2026-04-01T15:50:50.095Z</time></trkpt><trkpt lat="40.7490353" lon="14.7691202"><ele>198.0</ele><time>2026-04-01T16:02:38.095Z</time></trkpt><trkpt lat="40.7489847" lon="14.7691702"><ele>198.0</ele><time>2026-04-01T16:05:44.096Z</time></trkpt><trkpt lat="40.7489217" lon="14.7691758"><ele>198.0</ele><time>2026-04-01T16:10:06.097Z</time></trkpt><trkpt lat="40.748873" lon="14.7692446"><ele>198.0</ele><time>2026-04-01T16:12:24.097Z</time></trkpt><trkpt lat="40.7488094" lon="14.7692303"><ele>198.0</ele><time>2026-04-01T16:15:18.096Z</time></trkpt><trkpt lat="40.7488196" lon="14.7691481"><ele>198.0</ele><time>2026-04-01T16:21:07.097Z</time></trkpt><trkpt lat="40.7488693" lon="14.7691993"><ele>198.0</ele><time>2026-04-01T16:40:18.099Z</time></trkpt><trkpt lat="40.7489652" lon="14.7692079"><ele>198.0</ele><time>2026-04-01T16:42:56.1Z</time></trkpt><trkpt lat="40.749063" lon="14.7691799"><ele>198.0</ele><time>2026-04-01T17:20:25.103Z</time></trkpt><trkpt lat="40.7490225" lon="14.7692445"><ele>198.0</ele><time>2026-04-01T17:29:18.104Z</time></trkpt><trkpt lat="40.7490852" lon="14.7692367"><ele>198.0</ele><time>2026-04-01T17:36:27.104Z</time></trkpt><trkpt lat="40.7490473" lon="14.7693035"><ele>198.0</ele><time>2026-04-01T17:46:15.105Z</time></trkpt><trkpt lat="40.7490011" lon="14.769247"><ele>198.0</ele><time>2026-04-01T17:52:35.107Z</time></trkpt><trkpt lat="40.7489989" lon="14.7691626"><ele>198.0</ele><time>2026-04-01T18:02:47.107Z</time></trkpt><trkpt lat="40.7489426" lon="14.7691999"><ele>198.0</ele><time>2026-04-01T18:04:14.107Z</time></trkpt><trkpt lat="40.748888" lon="14.7691573"><ele>198.0</ele><time>2026-04-01T18:06:37.107Z</time></trkpt><trkpt lat="40.7488331" lon="14.7691163"><ele>198.0</ele><time>2026-04-01T18:08:49.11Z</time></trkpt><trkpt lat="40.7489081" lon="14.7691385"><ele>198.0</ele><time>2026-04-01T18:41:30.11Z</time></trkpt><trkpt lat="40.7488466" lon="14.7691167"><ele>198.0</ele><time>2026-04-01T18:55:04.111Z</time></trkpt><trkpt lat="40.7489102" lon="14.7691396"><ele>198.0</ele><time>2026-04-01T19:00:55.112Z</time></trkpt><trkpt lat="40.7490033" lon="14.7691409"><ele>198.0</ele><time>2026-04-01T19:12:59.114Z</time></trkpt><trkpt lat="40.7489395" lon="14.7691354"><ele>198.0</ele><time>2026-04-01T19:14:46.114Z</time></trkpt><trkpt lat="40.7490027" lon="14.7691432"><ele>198.0</ele><time>2026-04-01T19:33:33.115Z</time></trkpt><trkpt lat="40.7490886" lon="14.7691324"><ele>198.0</ele><time>2026-04-01T19:40:11.116Z</time></trkpt><trkpt lat="40.7490289" lon="14.7691048"><ele>198.0</ele><time>2026-04-01T19:54:44.118Z</time></trkpt><trkpt lat="40.7489667" lon="14.769124"><ele>198.0</ele><time>2026-04-01T19:55:27.118Z</time></trkpt><trkpt lat="40.7490277" lon="14.7691502"><ele>198.0</ele><time>2026-04-01T21:15:33.124Z</time></trkpt><trkpt lat="40.7489659" lon="14.7691291"><ele>198.0</ele><time>2026-04-01T21:36:45.127Z</time></trkpt><trkpt lat="40.7489072" lon="14.7691603"><ele>198.0</ele><time>2026-04-01T21:41:38.128Z</time></trkpt><trkpt lat="40.7488469" lon="14.7691857"><ele>198.0</ele><time>2026-04-01T21:44:00.128Z</time></trkpt><trkpt lat="40.748783" lon="14.7691814"><ele>198.0</ele><time>2026-04-01T21:44:42.127Z</time></trkpt><trkpt lat="40.7488424" lon="14.7691481"><ele>198.0</ele><time>2026-04-01T21:53:51.129Z</time></trkpt><trkpt lat="40.7489042" lon="14.7691321"><ele>198.0</ele><time>2026-04-01T21:58:42.128Z</time></trkpt><trkpt lat="40.7488421" lon="14.7691496"><ele>198.0</ele><time>2026-04-01T22:06:37.13Z</time></trkpt><trkpt lat="40.7487812" lon="14.7691269"><ele>198.0</ele><time>2026-04-01T22:08:17.13Z</time></trkpt><trkpt lat="40.7488719" lon="14.7691332"><ele>198.0</ele><time>2026-04-01T22:16:08.13Z</time></trkpt><trkpt lat="40.748994" lon="14.7691142"><ele>198.0</ele><time>2026-04-01T22:20:00.13Z</time></trkpt><trkpt lat="40.748933" lon="14.7691361"><ele>198.0</ele><time>2026-04-01T22:29:25.132Z</time></trkpt><trkpt lat="40.7488625" lon="14.7692068"><ele>198.0</ele><time>2026-04-01T22:37:55.133Z</time></trkpt><trkpt lat="40.7489286" lon="14.7692366"><ele>198.0</ele><time>2026-04-01T22:44:03.132Z</time></trkpt><trkpt lat="40.7490303" lon="14.7692549"><ele>198.0</ele><time>2026-04-01T22:58:22.135Z</time></trkpt><trkpt lat="40.7491145" lon="14.7692012"><ele>198.0</ele><time>2026-04-01T23:30:54.136Z</time></trkpt><trkpt lat="40.7490579" lon="14.7691639"><ele>198.0</ele><time>2026-04-01T23:36:54.137Z</time></trkpt><trkpt lat="40.7491193" lon="14.7691443"><ele>198.0</ele><time>2026-04-02T00:09:24.14Z</time></trkpt><trkpt lat="40.7490603" lon="14.76918"><ele>198.0</ele><time>2026-04-02T00:19:21.141Z</time></trkpt><trkpt lat="40.7489963" lon="14.7691876"><ele>198.0</ele><time>2026-04-02T00:19:35.139Z</time></trkpt><trkpt lat="40.7489414" lon="14.769145"><ele>198.0</ele><time>2026-04-02T00:21:39.135Z</time></trkpt><trkpt lat="40.7488783" lon="14.7691485"><ele>198.0</ele><time>2026-04-02T00:27:06.141Z</time></trkpt><trkpt lat="40.7488156" lon="14.7691613"><ele>198.0</ele><time>2026-04-02T00:56:55.145Z</time></trkpt><trkpt lat="40.7487508" lon="14.7691618"><ele>198.0</ele><time>2026-04-02T01:01:18.144Z</time></trkpt><trkpt lat="40.748824" lon="14.7691466"><ele>198.0</ele><time>2026-04-02T01:02:15.144Z</time></trkpt><trkpt lat="40.7488927" lon="14.7691771"><ele>198.0</ele><time>2026-04-02T01:03:27.144Z</time></trkpt><trkpt lat="40.7489561" lon="14.7691716"><ele>198.0</ele><time>2026-04-02T01:04:01.144Z</time></trkpt><trkpt lat="40.7489015" lon="14.7691298"><ele>198.0</ele><time>2026-04-02T01:09:15.142Z</time></trkpt><trkpt lat="40.7488657" lon="14.7691983"><ele>198.0</ele><time>2026-04-02T01:12:47.142Z</time></trkpt><trkpt lat="40.7488025" lon="14.7692108"><ele>198.0</ele><time>2026-04-02T01:13:38.145Z</time></trkpt><trkpt lat="40.7487394" lon="14.7692122"><ele>198.0</ele><time>2026-04-02T01:14:24.142Z</time></trkpt><trkpt lat="40.748676" lon="14.7692048"><ele>198.0</ele><time>2026-04-02T01:15:08.145Z</time></trkpt><trkpt lat="40.7487404" lon="14.7691924"><ele>198.0</ele><time>2026-04-02T01:18:11.147Z</time></trkpt><trkpt lat="40.7488221" lon="14.7692093"><ele>198.0</ele><time>2026-04-02T01:19:22.144Z</time></trkpt><trkpt lat="40.7488797" lon="14.769175"><ele>198.0</ele><time>2026-04-02T01:39:25.148Z</time></trkpt><trkpt lat="40.7489687" lon="14.7691542"><ele>198.0</ele><time>2026-04-02T01:45:27.146Z</time></trkpt><trkpt lat="40.749032" lon="14.769157"><ele>198.0</ele><time>2026-04-02T01:47:16.148Z</time></trkpt><trkpt lat="40.7490912" lon="14.769118"><ele>198.0</ele><time>2026-04-02T03:43:51.149Z</time></trkpt><trkpt lat="40.7490381" lon="14.7690727"><ele>198.0</ele><time>2026-04-02T03:53:33.152Z</time></trkpt><trkpt lat="40.7489763" lon="14.7690903"><ele>198.0</ele><time>2026-04-02T03:58:55.14Z</time></trkpt><trkpt lat="40.7489147" lon="14.7690679"><ele>198.0</ele><time>2026-04-02T03:59:46.146Z</time></trkpt><trkpt lat="40.7488626" lon="14.7690196"><ele>198.0</ele><time>2026-04-02T04:02:47.145Z</time></trkpt><trkpt lat="40.7489319" lon="14.769036"><ele>198.0</ele><time>2026-04-02T04:12:33.137Z</time></trkpt><trkpt lat="40.749004" lon="14.7690693"><ele>198.0</ele><time>2026-04-02T04:14:42.141Z</time></trkpt><trkpt lat="40.7490618" lon="14.7690354"><ele>198.0</ele><time>2026-04-02T04:16:04.144Z</time></trkpt><trkpt lat="40.7489989" lon="14.7690408"><ele>198.0</ele><time>2026-04-02T04:21:21.152Z</time></trkpt><trkpt lat="40.74894" lon="14.7690707"><ele>198.0</ele><time>2026-04-02T04:22:46.147Z</time></trkpt><trkpt lat="40.7488812" lon="14.7691045"><ele>198.0</ele><time>2026-04-02T04:23:59.142Z</time></trkpt><trkpt lat="40.7489422" lon="14.7691531"><ele>198.0</ele><time>2026-04-02T05:20:22.148Z</time></trkpt><trkpt lat="40.7490094" lon="14.7691591"><ele>198.0</ele><time>2026-04-02T05:23:31.145Z</time></trkpt><trkpt lat="40.7489506" lon="14.7691926"><ele>198.0</ele><time>2026-04-02T05:40:27.139Z</time></trkpt><trkpt lat="40.7489873" lon="14.769123"><ele>198.0</ele><time>2026-04-02T05:42:54.142Z</time></trkpt><trkpt lat="40.7490713" lon="14.7691121"><ele>198.0</ele><time>2026-04-02T05:45:06.143Z</time></trkpt><trkpt lat="40.7490115" lon="14.7690744"><ele>198.0</ele><time>2026-04-02T05:45:39.138Z</time></trkpt><trkpt lat="40.749009" lon="14.7691601"><ele>198.0</ele><time>2026-04-02T05:46:33.144Z</time></trkpt><trkpt lat="40.7489443" lon="14.769167"><ele>198.0</ele><time>2026-04-02T05:47:01.142Z</time></trkpt><trkpt lat="40.7488829" lon="14.7691908"><ele>198.0</ele><time>2026-04-02T05:47:24.145Z</time></trkpt><trkpt lat="40.7488205" lon="14.7692052"><ele>198.0</ele><time>2026-04-02T05:48:34.145Z</time></trkpt><trkpt lat="40.7487587" lon="14.7692281"><ele>198.0</ele><time>2026-04-02T05:49:09.141Z</time></trkpt><trkpt lat="40.7488163" lon="14.769191"><ele>198.0</ele><time>2026-04-02T05:50:35.143Z</time></trkpt><trkpt lat="40.748887" lon="14.7692523"><ele>198.0</ele><time>2026-04-02T05:56:16.149Z</time></trkpt><trkpt lat="40.7488275" lon="14.7692882"><ele>198.0</ele><time>2026-04-02T05:58:04.148Z</time></trkpt><trkpt lat="40.7488553" lon="14.7692136"><ele>198.0</ele><time>2026-04-02T06:01:13.15Z</time></trkpt><trkpt lat="40.7489122" lon="14.7691774"><ele>198.0</ele><time>2026-04-02T06:02:50.158Z</time></trkpt><trkpt lat="40.7490483" lon="14.76917"><ele>198.0</ele><time>2026-04-02T06:18:36.983Z</time></trkpt><trkpt lat="40.7489035" lon="14.7691857"><ele>198.0</ele><time>2026-04-02T06:18:42.633Z</time></trkpt><trkpt lat="40.7489672" lon="14.7691584"><ele>198.0</ele><time>2026-04-02T06:19:24.029Z</time></trkpt><trkpt lat="40.7490377" lon="14.7691466"><ele>198.0</ele><time>2026-04-02T06:19:37.03Z</time></trkpt><trkpt lat="40.7490982" lon="14.769118"><ele>198.0</ele><time>2026-04-02T06:19:42.029Z</time></trkpt><trkpt lat="40.7491893" lon="14.7691168"><ele>198.0</ele><time>2026-04-02T06:24:00.029Z</time></trkpt><trkpt lat="40.7491615" lon="14.7690318"><ele>198.0</ele><time>2026-04-02T06:31:52.031Z</time></trkpt><trkpt lat="40.7490989" lon="14.7690078"><ele>198.0</ele><time>2026-04-02T06:39:30.031Z</time></trkpt><trkpt lat="40.7490493" lon="14.7690604"><ele>198.0</ele><time>2026-04-02T06:41:52.032Z</time></trkpt><trkpt lat="40.748995" lon="14.7691468"><ele>198.0</ele><time>2026-04-02T06:47:07.031Z</time></trkpt><trkpt lat="40.7490578" lon="14.7691281"><ele>198.0</ele><time>2026-04-02T06:51:05.033Z</time></trkpt><trkpt lat="40.7491315" lon="14.7691503"><ele>198.0</ele><time>2026-04-02T06:56:52.033Z</time></trkpt><trkpt lat="40.7492017" lon="14.7691665"><ele>198.0</ele><time>2026-04-02T07:01:16.033Z</time></trkpt><trkpt lat="40.7492933" lon="14.7691533"><ele>198.0</ele><time>2026-04-02T07:07:13.034Z</time></trkpt><trkpt lat="40.7492242" lon="14.7691613"><ele>198.0</ele><time>2026-04-02T07:11:43.035Z</time></trkpt><trkpt lat="40.7491534" lon="14.7691445"><ele>198.0</ele><time>2026-04-02T07:17:25.034Z</time></trkpt><trkpt lat="40.7490552" lon="14.769142"><ele>198.0</ele><time>2026-04-02T07:22:33.036Z</time></trkpt><trkpt lat="40.7489872" lon="14.7691319"><ele>198.0</ele><time>2026-04-02T07:27:25.036Z</time></trkpt><trkpt lat="40.7489041" lon="14.7692135"><ele>198.0</ele><time>2026-04-02T07:41:44.036Z</time></trkpt><trkpt lat="40.7488275" lon="14.7691778"><ele>198.0</ele><time>2026-04-02T08:01:47.038Z</time></trkpt><trkpt lat="40.7488968" lon="14.7691585"><ele>198.0</ele><time>2026-04-02T08:07:03.039Z</time></trkpt><trkpt lat="40.7489062" lon="14.7692415"><ele>198.0</ele><time>2026-04-02T08:09:39.04Z</time></trkpt><trkpt lat="40.7489566" lon="14.7691786"><ele>198.0</ele><time>2026-04-02T08:31:38.042Z</time></trkpt><trkpt lat="40.7488937" lon="14.7691725"><ele>198.0</ele><time>2026-04-02T08:48:18.059Z</time></trkpt><trkpt lat="40.7488316" lon="14.7691903"><ele>198.0</ele><time>2026-04-02T08:57:50.044Z</time></trkpt><trkpt lat="40.7487744" lon="14.7691468"><ele>198.0</ele><time>2026-04-02T08:59:08.044Z</time></trkpt><trkpt lat="40.7488265" lon="14.7691949"><ele>198.0</ele><time>2026-04-02T09:01:56.045Z</time></trkpt><trkpt lat="40.7489151" lon="14.7691341"><ele>198.0</ele><time>2026-04-02T09:05:53.044Z</time></trkpt><trkpt lat="40.7489781" lon="14.7691223"><ele>198.0</ele><time>2026-04-02T09:29:57.048Z</time></trkpt><trkpt lat="40.7490395" lon="14.7690943"><ele>198.0</ele><time>2026-04-02T09:36:00.048Z</time></trkpt><trkpt lat="40.7491189" lon="14.769094"><ele>198.0</ele><time>2026-04-02T09:37:53.064Z</time></trkpt><trkpt lat="40.7491781" lon="14.7691233"><ele>198.0</ele><time>2026-04-02T09:39:18.049Z</time></trkpt><trkpt lat="40.749296" lon="14.7691278"><ele>198.0</ele><time>2026-04-02T09:44:04.049Z</time></trkpt><trkpt lat="40.7489226" lon="14.7691592"><ele>198.0</ele><time>2026-04-02T09:45:48.048Z</time></trkpt><trkpt lat="40.7489815" lon="14.76919"><ele>198.0</ele><time>2026-04-02T09:49:57.048Z</time></trkpt><trkpt lat="40.7489183" lon="14.7691994"><ele>198.0</ele><time>2026-04-02T10:01:22.084Z</time></trkpt><trkpt lat="40.7489602" lon="14.7691369"><ele>198.0</ele><time>2026-04-02T10:14:00.051Z</time></trkpt><trkpt lat="40.7490357" lon="14.7691315"><ele>198.0</ele><time>2026-04-02T10:17:31.052Z</time></trkpt><trkpt lat="40.7489734" lon="14.7691445"><ele>198.0</ele><time>2026-04-02T10:33:27.062Z</time></trkpt><trkpt lat="40.7489212" lon="14.7691931"><ele>198.0</ele><time>2026-04-02T10:34:31.053Z</time></trkpt><trkpt lat="40.7489738" lon="14.7691472"><ele>198.0</ele><time>2026-04-02T10:38:37.1Z</time></trkpt><trkpt lat="40.749018" lon="14.7690849"><ele>198.0</ele><time>2026-04-02T10:43:56.053Z</time></trkpt><trkpt lat="40.7490776" lon="14.7691369"><ele>198.0</ele><time>2026-04-02T11:15:52.056Z</time></trkpt><trkpt lat="40.7491211" lon="14.7690736"><ele>198.0</ele><time>2026-04-02T11:18:46.057Z</time></trkpt><trkpt lat="40.7491845" lon="14.7690089"><ele>198.0</ele><time>2026-04-02T11:21:43.058Z</time></trkpt><trkpt lat="40.7491282" lon="14.7689708"><ele>198.0</ele><time>2026-04-02T11:22:31.058Z</time></trkpt><trkpt lat="40.7491793" lon="14.7690204"><ele>198.0</ele><time>2026-04-02T11:29:35.057Z</time></trkpt><trkpt lat="40.7491715" lon="14.7691073"><ele>198.0</ele><time>2026-04-02T11:34:03.078Z</time></trkpt><trkpt lat="40.7492439" lon="14.7691147"><ele>198.0</ele><time>2026-04-02T11:37:14.058Z</time></trkpt><trkpt lat="40.7493094" lon="14.7691065"><ele>198.0</ele><time>2026-04-02T11:39:01.059Z</time></trkpt><trkpt lat="40.7490248" lon="14.7691317"><ele>198.0</ele><time>2026-04-02T11:41:16.059Z</time></trkpt><trkpt lat="40.7490775" lon="14.7691778"><ele>198.0</ele><time>2026-04-02T12:02:08.06Z</time></trkpt><trkpt lat="40.7491341" lon="14.7691403"><ele>198.0</ele><time>2026-04-02T12:10:07.076Z</time></trkpt><trkpt lat="40.7490721" lon="14.7691578"><ele>198.0</ele><time>2026-04-02T12:22:46.063Z</time></trkpt><trkpt lat="40.7490085" lon="14.7691606"><ele>198.0</ele><time>2026-04-02T12:24:09.062Z</time></trkpt><trkpt lat="40.7489475" lon="14.7691377"><ele>198.0</ele><time>2026-04-02T12:27:13.064Z</time></trkpt><trkpt lat="40.7488897" lon="14.7691707"><ele>198.0</ele><time>2026-04-02T12:44:20.064Z</time></trkpt><trkpt lat="40.7489927" lon="14.7691909"><ele>198.0</ele><time>2026-04-02T13:40:48.069Z</time></trkpt><trkpt lat="40.7489296" lon="14.7691897"><ele>198.0</ele><time>2026-04-02T13:50:27.094Z</time></trkpt><trkpt lat="40.7488704" lon="14.7691609"><ele>198.0</ele><time>2026-04-02T14:00:30.072Z</time></trkpt><trkpt lat="40.7489273" lon="14.7691249"><ele>198.0</ele><time>2026-04-02T14:05:10.071Z</time></trkpt><trkpt lat="40.7489005" lon="14.7692003"><ele>198.0</ele><time>2026-04-02T14:08:04.084Z</time></trkpt><trkpt lat="40.7488395" lon="14.7691793"><ele>198.0</ele><time>2026-04-02T14:09:31.073Z</time></trkpt><trkpt lat="40.7487763" lon="14.7691813"><ele>198.0</ele><time>2026-04-02T14:12:23.109Z</time></trkpt><trkpt lat="40.7488387" lon="14.7691994"><ele>198.0</ele><time>2026-04-02T14:17:43.072Z</time></trkpt><trkpt lat="40.748932" lon="14.7692278"><ele>198.0</ele><time>2026-04-02T14:21:51.073Z</time></trkpt><trkpt lat="40.7490099" lon="14.769215"><ele>198.0</ele><time>2026-04-02T14:23:21.118Z</time></trkpt><trkpt lat="40.748959" lon="14.7691652"><ele>198.0</ele><time>2026-04-02T14:32:02.074Z</time></trkpt><trkpt lat="40.7490255" lon="14.769112"><ele>198.0</ele><time>2026-04-02T14:37:27.075Z</time></trkpt><trkpt lat="40.7490967" lon="14.7691125"><ele>198.0</ele><time>2026-04-02T14:39:16.079Z</time></trkpt><trkpt lat="40.7490842" lon="14.7691944"><ele>198.0</ele><time>2026-04-02T14:50:36.075Z</time></trkpt><trkpt lat="40.7491205" lon="14.7691261"><ele>198.0</ele><time>2026-04-02T14:59:16.104Z</time></trkpt></trkseg></trk></gpx>